<?xml version='1.0' encoding='UTF-8'?><gpx version="1.1" creator="JPX - https://github.com/jenetics/jpx" xmlns="http://www.topografix.com/GPX/1/1"><trk><trkseg><trkpt lat="43.7658946" lon="11.1996506"><ele>40.0</ele><time>2026-04-05T09:04:46.809Z</time></trkpt><trkpt lat="43.7658053" lon="11.199546"><ele>40.0</ele><time>2026-04-05T09:04:48.809Z</time></trkpt><trkpt lat="43.7657515" lon="11.1994848"><ele>40.0</ele><time>2026-04-05T09:04:49.809Z</time></trkpt><trkpt lat="43.7656976" lon="11.199418"><ele>40.0</ele><time>2026-04-05T09:04:50.809Z</time></trkpt><trkpt lat="43.7656504" lon="11.1993469"><ele>40.0</ele><time>2026-04-05T09:04:51.809Z</time></trkpt><trkpt lat="43.7656121" lon="11.199265"><ele>40.0</ele><time>2026-04-05T09:04:52.809Z</time></trkpt><trkpt lat="43.765562" lon="11.19919"><ele>40.0</ele><time>2026-04-05T09:04:53.808Z</time></trkpt><trkpt lat="43.7654963" lon="11.1991536"><ele>40.0</ele><time>2026-04-05T09:04:54.809Z</time></trkpt><trkpt lat="43.7654233" lon="11.1991631"><ele>40.0</ele><time>2026-04-05T09:04:55.809Z</time></trkpt><trkpt lat="43.7653595" lon="11.1992145"><ele>40.0</ele><time>2026-04-05T09:04:56.809Z</time></trkpt><trkpt lat="43.7653008" lon="11.1992928"><ele>40.0</ele><time>2026-04-05T09:04:57.809Z</time></trkpt><trkpt lat="43.7652288" lon="11.1993633"><ele>40.0</ele><time>2026-04-05T09:04:58.809Z</time></trkpt><trkpt lat="43.7651401" lon="11.1993973"><ele>39.833333333333336</ele><time>2026-04-05T09:04:59.809Z</time></trkpt><trkpt lat="43.765047" lon="11.1994071"><ele>39.66666666666667</ele><time>2026-04-05T09:05:00.809Z</time></trkpt><trkpt lat="43.7649594" lon="11.1994069"><ele>39.5</ele><time>2026-04-05T09:05:01.809Z</time></trkpt><trkpt lat="43.7648767" lon="11.199389"><ele>39.333333333333336</ele><time>2026-04-05T09:05:02.809Z</time></trkpt><trkpt lat="43.7648061" lon="11.1993509"><ele>39.166666666666664</ele><time>2026-04-05T09:05:03.809Z</time></trkpt><trkpt lat="43.7647354" lon="11.1992891"><ele>39.0</ele><time>2026-04-05T09:05:04.809Z</time></trkpt><trkpt lat="43.7646719" lon="11.1992066"><ele>39.0</ele><time>2026-04-05T09:05:05.809Z</time></trkpt><trkpt lat="43.7646146" lon="11.1991069"><ele>39.0</ele><time>2026-04-05T09:05:06.809Z</time></trkpt><trkpt lat="43.7645625" lon="11.198995"><ele>39.0</ele><time>2026-04-05T09:05:07.808Z</time></trkpt><trkpt lat="43.7645145" lon="11.1988752"><ele>39.0</ele><time>2026-04-05T09:05:08.809Z</time></trkpt><trkpt lat="43.764468" lon="11.1987429"><ele>39.0</ele><time>2026-04-05T09:05:09.809Z</time></trkpt><trkpt lat="43.7644239" lon="11.1985997"><ele>39.0</ele><time>2026-04-05T09:05:10.809Z</time></trkpt><trkpt lat="43.7643816" lon="11.1984524"><ele>39.0</ele><time>2026-04-05T09:05:11.809Z</time></trkpt><trkpt lat="43.764341" lon="11.1983051"><ele>39.0</ele><time>2026-04-05T09:05:12.809Z</time></trkpt><trkpt lat="43.7642993" lon="11.1981512"><ele>39.0</ele><time>2026-04-05T09:05:13.809Z</time></trkpt><trkpt lat="43.7642539" lon="11.1979986"><ele>39.0</ele><time>2026-04-05T09:05:14.809Z</time></trkpt><trkpt lat="43.7642105" lon="11.1978402"><ele>39.0</ele><time>2026-04-05T09:05:15.809Z</time></trkpt><trkpt lat="43.7641692" lon="11.1976622"><ele>39.0</ele><time>2026-04-05T09:05:16.809Z</time></trkpt><trkpt lat="43.7641328" lon="11.1974749"><ele>39.0</ele><time>2026-04-05T09:05:17.809Z</time></trkpt><trkpt lat="43.7640994" lon="11.19728"><ele>39.0</ele><time>2026-04-05T09:05:18.809Z</time></trkpt><trkpt lat="43.7640726" lon="11.1970917"><ele>39.0</ele><time>2026-04-05T09:05:19.809Z</time></trkpt><trkpt lat="43.764049" lon="11.1969135"><ele>39.0</ele><time>2026-04-05T09:05:20.809Z</time></trkpt><trkpt lat="43.7640187" lon="11.1967406"><ele>39.0</ele><time>2026-04-05T09:05:21.809Z</time></trkpt><trkpt lat="43.7639802" lon="11.1965739"><ele>39.2</ele><time>2026-04-05T09:05:22.809Z</time></trkpt><trkpt lat="43.7639319" lon="11.1964239"><ele>39.4</ele><time>2026-04-05T09:05:23.809Z</time></trkpt><trkpt lat="43.7638803" lon="11.1962923"><ele>39.6</ele><time>2026-04-05T09:05:24.809Z</time></trkpt><trkpt lat="43.7638193" lon="11.1961837"><ele>39.8</ele><time>2026-04-05T09:05:25.809Z</time></trkpt><trkpt lat="43.7637494" lon="11.1961113"><ele>40.0</ele><time>2026-04-05T09:05:26.809Z</time></trkpt><trkpt lat="43.7636764" lon="11.196082"><ele>40.0</ele><time>2026-04-05T09:05:27.809Z</time></trkpt><trkpt lat="43.763604" lon="11.1960902"><ele>40.0</ele><time>2026-04-05T09:05:28.809Z</time></trkpt><trkpt lat="43.7635299" lon="11.1961324"><ele>40.0</ele><time>2026-04-05T09:05:29.809Z</time></trkpt><trkpt lat="43.763465" lon="11.1962144"><ele>40.0</ele><time>2026-04-05T09:05:30.809Z</time></trkpt><trkpt lat="43.7634106" lon="11.1963325"><ele>40.0</ele><time>2026-04-05T09:05:31.809Z</time></trkpt><trkpt lat="43.7633629" lon="11.1964808"><ele>40.0</ele><time>2026-04-05T09:05:32.809Z</time></trkpt><trkpt lat="43.7633145" lon="11.1966529"><ele>40.0</ele><time>2026-04-05T09:05:33.809Z</time></trkpt><trkpt lat="43.7632492" lon="11.1968348"><ele>40.0</ele><time>2026-04-05T09:05:34.809Z</time></trkpt><trkpt lat="43.7631709" lon="11.1970104"><ele>40.0</ele><time>2026-04-05T09:05:35.809Z</time></trkpt><trkpt lat="43.7630834" lon="11.1971878"><ele>40.333333333333336</ele><time>2026-04-05T09:05:36.809Z</time></trkpt><trkpt lat="43.7629979" lon="11.1973581"><ele>40.666666666666664</ele><time>2026-04-05T09:05:37.809Z</time></trkpt><trkpt lat="43.762907" lon="11.1975319"><ele>41.0</ele><time>2026-04-05T09:05:38.809Z</time></trkpt><trkpt lat="43.7628076" lon="11.1977011"><ele>41.0</ele><time>2026-04-05T09:05:39.809Z</time></trkpt><trkpt lat="43.7626941" lon="11.1978596"><ele>41.0</ele><time>2026-04-05T09:05:40.809Z</time></trkpt><trkpt lat="43.7625758" lon="11.1980189"><ele>41.0</ele><time>2026-04-05T09:05:41.809Z</time></trkpt><trkpt lat="43.7624593" lon="11.198187"><ele>41.0</ele><time>2026-04-05T09:05:42.809Z</time></trkpt><trkpt lat="43.762346" lon="11.1983617"><ele>41.0</ele><time>2026-04-05T09:05:43.809Z</time></trkpt><trkpt lat="43.7622352" lon="11.1985296"><ele>41.0</ele><time>2026-04-05T09:05:44.809Z</time></trkpt><trkpt lat="43.7621255" lon="11.19869"><ele>41.0</ele><time>2026-04-05T09:05:45.809Z</time></trkpt><trkpt lat="43.7620194" lon="11.198846"><ele>41.0</ele><time>2026-04-05T09:05:46.809Z</time></trkpt><trkpt lat="43.7619173" lon="11.1990004"><ele>41.0</ele><time>2026-04-05T09:05:47.809Z</time></trkpt><trkpt lat="43.7618167" lon="11.1991519"><ele>41.25</ele><time>2026-04-05T09:05:48.809Z</time></trkpt><trkpt lat="43.7617157" lon="11.1992971"><ele>41.5</ele><time>2026-04-05T09:05:49.809Z</time></trkpt><trkpt lat="43.7616167" lon="11.1994379"><ele>41.75</ele><time>2026-04-05T09:05:50.809Z</time></trkpt><trkpt lat="43.761521" lon="11.1995795"><ele>42.0</ele><time>2026-04-05T09:05:51.809Z</time></trkpt><trkpt lat="43.7614274" lon="11.199724"><ele>42.0</ele><time>2026-04-05T09:05:52.809Z</time></trkpt><trkpt lat="43.7613369" lon="11.1998672"><ele>42.0</ele><time>2026-04-05T09:05:53.809Z</time></trkpt><trkpt lat="43.761253" lon="11.2000015"><ele>42.0</ele><time>2026-04-05T09:05:54.809Z</time></trkpt><trkpt lat="43.7611674" lon="11.2001128"><ele>42.0</ele><time>2026-04-05T09:05:55.809Z</time></trkpt><trkpt lat="43.7610735" lon="11.2001955"><ele>41.75</ele><time>2026-04-05T09:05:56.809Z</time></trkpt><trkpt lat="43.7609831" lon="11.2002775"><ele>41.5</ele><time>2026-04-05T09:05:57.809Z</time></trkpt><trkpt lat="43.7609058" lon="11.2003913"><ele>41.25</ele><time>2026-04-05T09:05:58.809Z</time></trkpt><trkpt lat="43.7608301" lon="11.200524"><ele>41.0</ele><time>2026-04-05T09:05:59.809Z</time></trkpt><trkpt lat="43.7607455" lon="11.2006453"><ele>41.0</ele><time>2026-04-05T09:06:00.809Z</time></trkpt><trkpt lat="43.7606571" lon="11.2007502"><ele>41.0</ele><time>2026-04-05T09:06:01.808Z</time></trkpt><trkpt lat="43.7605705" lon="11.2008619"><ele>41.0</ele><time>2026-04-05T09:06:02.809Z</time></trkpt><trkpt lat="43.7604909" lon="11.2009798"><ele>41.0</ele><time>2026-04-05T09:06:03.809Z</time></trkpt><trkpt lat="43.7604292" lon="11.2011143"><ele>41.0</ele><time>2026-04-05T09:06:04.809Z</time></trkpt><trkpt lat="43.7603864" lon="11.2012688"><ele>41.0</ele><time>2026-04-05T09:06:05.809Z</time></trkpt><trkpt lat="43.7603565" lon="11.2014392"><ele>41.0</ele><time>2026-04-05T09:06:06.809Z</time></trkpt><trkpt lat="43.7603351" lon="11.2016225"><ele>41.0</ele><time>2026-04-05T09:06:07.809Z</time></trkpt><trkpt lat="43.7603196" lon="11.201807"><ele>41.599999999999994</ele><time>2026-04-05T09:06:08.809Z</time></trkpt><trkpt lat="43.760313" lon="11.2019787"><ele>42.2</ele><time>2026-04-05T09:06:09.809Z</time></trkpt><trkpt lat="43.7603109" lon="11.2021394"><ele>42.8</ele><time>2026-04-05T09:06:10.809Z</time></trkpt><trkpt lat="43.7603111" lon="11.2022867"><ele>43.400000000000006</ele><time>2026-04-05T09:06:11.809Z</time></trkpt><trkpt lat="43.7603112" lon="11.2024237"><ele>44.0</ele><time>2026-04-05T09:06:12.809Z</time></trkpt><trkpt lat="43.7603068" lon="11.2025483"><ele>44.0</ele><time>2026-04-05T09:06:13.809Z</time></trkpt><trkpt lat="43.7602864" lon="11.20266"><ele>44.0</ele><time>2026-04-05T09:06:14.809Z</time></trkpt><trkpt lat="43.7602517" lon="11.2027613"><ele>44.0</ele><time>2026-04-05T09:06:15.809Z</time></trkpt><trkpt lat="43.760207" lon="11.2028514"><ele>44.0</ele><time>2026-04-05T09:06:16.809Z</time></trkpt><trkpt lat="43.7601587" lon="11.2029363"><ele>44.0</ele><time>2026-04-05T09:06:17.809Z</time></trkpt><trkpt lat="43.7600915" lon="11.2029974"><ele>44.0</ele><time>2026-04-05T09:06:18.809Z</time></trkpt><trkpt lat="43.7600101" lon="11.2030244"><ele>44.166666666666664</ele><time>2026-04-05T09:06:19.809Z</time></trkpt><trkpt lat="43.7599238" lon="11.2030339"><ele>44.33333333333333</ele><time>2026-04-05T09:06:20.809Z</time></trkpt><trkpt lat="43.7598385" lon="11.2030391"><ele>44.5</ele><time>2026-04-05T09:06:21.809Z</time></trkpt><trkpt lat="43.7597576" lon="11.2030485"><ele>44.666666666666664</ele><time>2026-04-05T09:06:22.809Z</time></trkpt><trkpt lat="43.7596799" lon="11.203055"><ele>44.833333333333336</ele><time>2026-04-05T09:06:23.809Z</time></trkpt><trkpt lat="43.759599" lon="11.2030626"><ele>45.0</ele><time>2026-04-05T09:06:24.809Z</time></trkpt><trkpt lat="43.7595165" lon="11.2030709"><ele>45.0</ele><time>2026-04-05T09:06:25.809Z</time></trkpt><trkpt lat="43.7594409" lon="11.203081"><ele>45.0</ele><time>2026-04-05T09:06:26.809Z</time></trkpt><trkpt lat="43.7593732" lon="11.2030881"><ele>45.0</ele><time>2026-04-05T09:06:27.809Z</time></trkpt><trkpt lat="43.7592886" lon="11.2030903"><ele>45.0</ele><time>2026-04-05T09:06:29.809Z</time></trkpt><trkpt lat="43.7592023" lon="11.2030482"><ele>45.0</ele><time>2026-04-05T09:06:36.809Z</time></trkpt><trkpt lat="43.7591337" lon="11.2029025"><ele>45.0</ele><time>2026-04-05T09:06:38.809Z</time></trkpt><trkpt lat="43.759095" lon="11.202806"><ele>45.5</ele><time>2026-04-05T09:06:39.809Z</time></trkpt><trkpt lat="43.7590428" lon="11.2026798"><ele>46.0</ele><time>2026-04-05T09:06:40.809Z</time></trkpt><trkpt lat="43.758994" lon="11.2025378"><ele>46.5</ele><time>2026-04-05T09:06:41.809Z</time></trkpt><trkpt lat="43.758939" lon="11.2023803"><ele>47.0</ele><time>2026-04-05T09:06:42.809Z</time></trkpt><trkpt lat="43.7588822" lon="11.2022085"><ele>47.25</ele><time>2026-04-05T09:06:43.809Z</time></trkpt><trkpt lat="43.7588273" lon="11.2020309"><ele>47.5</ele><time>2026-04-05T09:06:44.809Z</time></trkpt><trkpt lat="43.7587775" lon="11.2018654"><ele>47.75</ele><time>2026-04-05T09:06:45.808Z</time></trkpt><trkpt lat="43.7587253" lon="11.2017019"><ele>48.0</ele><time>2026-04-05T09:06:46.809Z</time></trkpt><trkpt lat="43.7586698" lon="11.2015436"><ele>48.0</ele><time>2026-04-05T09:06:47.808Z</time></trkpt><trkpt lat="43.7586095" lon="11.201396"><ele>48.0</ele><time>2026-04-05T09:06:48.809Z</time></trkpt><trkpt lat="43.7585386" lon="11.2012575"><ele>48.0</ele><time>2026-04-05T09:06:49.809Z</time></trkpt><trkpt lat="43.7584584" lon="11.2011282"><ele>48.0</ele><time>2026-04-05T09:06:50.809Z</time></trkpt><trkpt lat="43.7583794" lon="11.201016"><ele>48.0</ele><time>2026-04-05T09:06:51.809Z</time></trkpt><trkpt lat="43.7583079" lon="11.2009154"><ele>48.0</ele><time>2026-04-05T09:06:52.809Z</time></trkpt><trkpt lat="43.7582404" lon="11.2008285"><ele>48.0</ele><time>2026-04-05T09:06:53.809Z</time></trkpt><trkpt lat="43.7581711" lon="11.2007505"><ele>48.0</ele><time>2026-04-05T09:06:54.808Z</time></trkpt><trkpt lat="43.7581025" lon="11.2006717"><ele>48.0</ele><time>2026-04-05T09:06:55.809Z</time></trkpt><trkpt lat="43.7580355" lon="11.2005927"><ele>47.666666666666664</ele><time>2026-04-05T09:06:56.809Z</time></trkpt><trkpt lat="43.7579724" lon="11.2005191"><ele>47.333333333333336</ele><time>2026-04-05T09:06:57.809Z</time></trkpt><trkpt lat="43.7579075" lon="11.2004489"><ele>47.0</ele><time>2026-04-05T09:06:58.809Z</time></trkpt><trkpt lat="43.7578415" lon="11.2003833"><ele>46.66666666666667</ele><time>2026-04-05T09:06:59.809Z</time></trkpt><trkpt lat="43.7577888" lon="11.2003263"><ele>46.333333333333336</ele><time>2026-04-05T09:07:00.809Z</time></trkpt><trkpt lat="43.7577192" lon="11.2002178"><ele>46.0</ele><time>2026-04-05T09:07:02.809Z</time></trkpt><trkpt lat="43.7576657" lon="11.2001122"><ele>46.0</ele><time>2026-04-05T09:07:04.809Z</time></trkpt><trkpt lat="43.7575873" lon="11.1999763"><ele>46.0</ele><time>2026-04-05T09:07:06.809Z</time></trkpt><trkpt lat="43.7575423" lon="11.1998858"><ele>46.0</ele><time>2026-04-05T09:07:07.809Z</time></trkpt><trkpt lat="43.7575" lon="11.1997957"><ele>46.0</ele><time>2026-04-05T09:07:08.809Z</time></trkpt><trkpt lat="43.75746" lon="11.1997108"><ele>46.0</ele><time>2026-04-05T09:07:09.809Z</time></trkpt><trkpt lat="43.7574119" lon="11.199619"><ele>46.0</ele><time>2026-04-05T09:07:10.808Z</time></trkpt><trkpt lat="43.7573616" lon="11.1995168"><ele>46.199999999999996</ele><time>2026-04-05T09:07:11.809Z</time></trkpt><trkpt lat="43.7573054" lon="11.1993972"><ele>46.4</ele><time>2026-04-05T09:07:12.809Z</time></trkpt><trkpt lat="43.7572529" lon="11.1992653"><ele>46.6</ele><time>2026-04-05T09:07:13.809Z</time></trkpt><trkpt lat="43.7572051" lon="11.1991461"><ele>46.8</ele><time>2026-04-05T09:07:14.809Z</time></trkpt><trkpt lat="43.7571583" lon="11.1990387"><ele>47.0</ele><time>2026-04-05T09:07:15.809Z</time></trkpt><trkpt lat="43.7571191" lon="11.1989385"><ele>47.166666666666664</ele><time>2026-04-05T09:07:16.809Z</time></trkpt><trkpt lat="43.7570879" lon="11.1988589"><ele>47.33333333333333</ele><time>2026-04-05T09:07:17.809Z</time></trkpt><trkpt lat="43.7570442" lon="11.1987438"><ele>47.5</ele><time>2026-04-05T09:07:19.809Z</time></trkpt><trkpt lat="43.757012" lon="11.1986515"><ele>47.666666666666664</ele><time>2026-04-05T09:07:36.809Z</time></trkpt><trkpt lat="43.7569619" lon="11.1985877"><ele>47.833333333333336</ele><time>2026-04-05T09:07:42.809Z</time></trkpt><trkpt lat="43.7568618" lon="11.1986334"><ele>48.0</ele><time>2026-04-05T09:07:44.809Z</time></trkpt><trkpt lat="43.7568068" lon="11.1986925"><ele>48.0</ele><time>2026-04-05T09:07:45.809Z</time></trkpt><trkpt lat="43.7567482" lon="11.1987636"><ele>48.0</ele><time>2026-04-05T09:07:46.809Z</time></trkpt><trkpt lat="43.7566798" lon="11.198859"><ele>48.0</ele><time>2026-04-05T09:07:47.809Z</time></trkpt><trkpt lat="43.7565944" lon="11.1989739"><ele>48.0</ele><time>2026-04-05T09:07:48.809Z</time></trkpt><trkpt lat="43.7564977" lon="11.1990932"><ele>48.0</ele><time>2026-04-05T09:07:49.809Z</time></trkpt><trkpt lat="43.7563909" lon="11.1992196"><ele>48.0</ele><time>2026-04-05T09:07:50.809Z</time></trkpt><trkpt lat="43.7562835" lon="11.1993559"><ele>48.0</ele><time>2026-04-05T09:07:51.809Z</time></trkpt><trkpt lat="43.7561751" lon="11.1994979"><ele>48.0</ele><time>2026-04-05T09:07:52.809Z</time></trkpt><trkpt lat="43.7560686" lon="11.1996401"><ele>48.0</ele><time>2026-04-05T09:07:53.809Z</time></trkpt><trkpt lat="43.7559612" lon="11.1997838"><ele>47.333333333333336</ele><time>2026-04-05T09:07:54.809Z</time></trkpt><trkpt lat="43.7558474" lon="11.1999154"><ele>46.66666666666667</ele><time>2026-04-05T09:07:55.809Z</time></trkpt><trkpt lat="43.755714" lon="11.2000112"><ele>46.0</ele><time>2026-04-05T09:07:56.809Z</time></trkpt><trkpt lat="43.7555739" lon="11.2000954"><ele>46.0</ele><time>2026-04-05T09:07:57.809Z</time></trkpt><trkpt lat="43.7554301" lon="11.200172"><ele>46.0</ele><time>2026-04-05T09:07:58.808Z</time></trkpt><trkpt lat="43.7552826" lon="11.2002402"><ele>46.0</ele><time>2026-04-05T09:07:59.809Z</time></trkpt><trkpt lat="43.7551394" lon="11.2003085"><ele>46.5</ele><time>2026-04-05T09:08:00.809Z</time></trkpt><trkpt lat="43.755005" lon="11.200382"><ele>47.0</ele><time>2026-04-05T09:08:01.809Z</time></trkpt><trkpt lat="43.7548792" lon="11.200462"><ele>47.5</ele><time>2026-04-05T09:08:02.809Z</time></trkpt><trkpt lat="43.7547558" lon="11.2005467"><ele>48.0</ele><time>2026-04-05T09:08:03.809Z</time></trkpt><trkpt lat="43.7546336" lon="11.2006177"><ele>48.25</ele><time>2026-04-05T09:08:04.809Z</time></trkpt><trkpt lat="43.7545053" lon="11.2006712"><ele>48.5</ele><time>2026-04-05T09:08:05.809Z</time></trkpt><trkpt lat="43.7543689" lon="11.2006936"><ele>48.75</ele><time>2026-04-05T09:08:06.808Z</time></trkpt><trkpt lat="43.7542303" lon="11.200693"><ele>49.0</ele><time>2026-04-05T09:08:07.809Z</time></trkpt><trkpt lat="43.7540924" lon="11.2006879"><ele>50.25</ele><time>2026-04-05T09:08:08.809Z</time></trkpt><trkpt lat="43.7539624" lon="11.2006918"><ele>51.5</ele><time>2026-04-05T09:08:09.809Z</time></trkpt><trkpt lat="43.7538438" lon="11.2007157"><ele>52.75</ele><time>2026-04-05T09:08:10.809Z</time></trkpt><trkpt lat="43.7537339" lon="11.2007647"><ele>54.0</ele><time>2026-04-05T09:08:11.809Z</time></trkpt><trkpt lat="43.7536263" lon="11.2008286"><ele>53.6</ele><time>2026-04-05T09:08:12.809Z</time></trkpt><trkpt lat="43.7535277" lon="11.2009034"><ele>53.2</ele><time>2026-04-05T09:08:13.809Z</time></trkpt><trkpt lat="43.7534386" lon="11.2009747"><ele>52.800000000000004</ele><time>2026-04-05T09:08:14.809Z</time></trkpt><trkpt lat="43.7533554" lon="11.2010516"><ele>52.400000000000006</ele><time>2026-04-05T09:08:15.808Z</time></trkpt><trkpt lat="43.7532835" lon="11.2011388"><ele>52.0</ele><time>2026-04-05T09:08:16.809Z</time></trkpt><trkpt lat="43.7532226" lon="11.2012445"><ele>52.0</ele><time>2026-04-05T09:08:17.809Z</time></trkpt><trkpt lat="43.7531757" lon="11.2013658"><ele>52.0</ele><time>2026-04-05T09:08:18.809Z</time></trkpt><trkpt lat="43.7531352" lon="11.2015071"><ele>52.0</ele><time>2026-04-05T09:08:19.809Z</time></trkpt><trkpt lat="43.7530991" lon="11.2016676"><ele>52.0</ele><time>2026-04-05T09:08:20.809Z</time></trkpt><trkpt lat="43.7530546" lon="11.2018391"><ele>52.75</ele><time>2026-04-05T09:08:21.808Z</time></trkpt><trkpt lat="43.752996" lon="11.2020079"><ele>53.5</ele><time>2026-04-05T09:08:22.809Z</time></trkpt><trkpt lat="43.752948" lon="11.2021812"><ele>54.25</ele><time>2026-04-05T09:08:23.809Z</time></trkpt><trkpt lat="43.7529112" lon="11.2023451"><ele>55.0</ele><time>2026-04-05T09:08:24.809Z</time></trkpt><trkpt lat="43.7528559" lon="11.2024914"><ele>55.0</ele><time>2026-04-05T09:08:25.809Z</time></trkpt><trkpt lat="43.7527738" lon="11.2026183"><ele>55.0</ele><time>2026-04-05T09:08:26.809Z</time></trkpt><trkpt lat="43.7526751" lon="11.2027149"><ele>55.0</ele><time>2026-04-05T09:08:27.809Z</time></trkpt><trkpt lat="43.7525739" lon="11.202782"><ele>55.0</ele><time>2026-04-05T09:08:28.809Z</time></trkpt><trkpt lat="43.7524788" lon="11.2028409"><ele>54.8</ele><time>2026-04-05T09:08:29.809Z</time></trkpt><trkpt lat="43.7523955" lon="11.2029043"><ele>54.6</ele><time>2026-04-05T09:08:30.809Z</time></trkpt><trkpt lat="43.7523199" lon="11.2029818"><ele>54.400000000000006</ele><time>2026-04-05T09:08:31.809Z</time></trkpt><trkpt lat="43.7522592" lon="11.2030761"><ele>54.2</ele><time>2026-04-05T09:08:32.808Z</time></trkpt><trkpt lat="43.7522077" lon="11.2031941"><ele>54.0</ele><time>2026-04-05T09:08:33.809Z</time></trkpt><trkpt lat="43.7521608" lon="11.2033273"><ele>54.0</ele><time>2026-04-05T09:08:34.809Z</time></trkpt><trkpt lat="43.7521166" lon="11.2034663"><ele>54.0</ele><time>2026-04-05T09:08:35.809Z</time></trkpt><trkpt lat="43.7520739" lon="11.2036137"><ele>54.0</ele><time>2026-04-05T09:08:36.809Z</time></trkpt><trkpt lat="43.7520319" lon="11.2037738"><ele>54.0</ele><time>2026-04-05T09:08:37.809Z</time></trkpt><trkpt lat="43.7519964" lon="11.2039509"><ele>52.75</ele><time>2026-04-05T09:08:38.809Z</time></trkpt><trkpt lat="43.7519671" lon="11.2041437"><ele>51.5</ele><time>2026-04-05T09:08:39.809Z</time></trkpt><trkpt lat="43.7519419" lon="11.2043436"><ele>50.25</ele><time>2026-04-05T09:08:40.809Z</time></trkpt><trkpt lat="43.751913" lon="11.2045515"><ele>49.0</ele><time>2026-04-05T09:08:41.809Z</time></trkpt><trkpt lat="43.7518685" lon="11.2047644"><ele>50.33333333333333</ele><time>2026-04-05T09:08:42.809Z</time></trkpt><trkpt lat="43.7518144" lon="11.2049687"><ele>51.66666666666667</ele><time>2026-04-05T09:08:43.809Z</time></trkpt><trkpt lat="43.7517421" lon="11.2051654"><ele>53.0</ele><time>2026-04-05T09:08:44.809Z</time></trkpt><trkpt lat="43.7516586" lon="11.2053542"><ele>53.0</ele><time>2026-04-05T09:08:45.809Z</time></trkpt><trkpt lat="43.7515727" lon="11.2055485"><ele>53.0</ele><time>2026-04-05T09:08:46.809Z</time></trkpt><trkpt lat="43.7514827" lon="11.2057418"><ele>53.0</ele><time>2026-04-05T09:08:47.808Z</time></trkpt><trkpt lat="43.7513795" lon="11.2059291"><ele>55.0</ele><time>2026-04-05T09:08:48.809Z</time></trkpt><trkpt lat="43.7512724" lon="11.2061212"><ele>57.0</ele><time>2026-04-05T09:08:49.809Z</time></trkpt><trkpt lat="43.7511675" lon="11.2063058"><ele>59.0</ele><time>2026-04-05T09:08:50.809Z</time></trkpt><trkpt lat="43.7510572" lon="11.2064714"><ele>57.333333333333336</ele><time>2026-04-05T09:08:51.809Z</time></trkpt><trkpt lat="43.7509283" lon="11.2066072"><ele>55.66666666666667</ele><time>2026-04-05T09:08:52.809Z</time></trkpt><trkpt lat="43.7507804" lon="11.2067202"><ele>54.0</ele><time>2026-04-05T09:08:53.809Z</time></trkpt><trkpt lat="43.7506237" lon="11.2068259"><ele>54.0</ele><time>2026-04-05T09:08:54.809Z</time></trkpt><trkpt lat="43.7504614" lon="11.2069349"><ele>54.0</ele><time>2026-04-05T09:08:55.809Z</time></trkpt><trkpt lat="43.7503001" lon="11.2070488"><ele>54.0</ele><time>2026-04-05T09:08:56.809Z</time></trkpt><trkpt lat="43.7501353" lon="11.2071668"><ele>52.33333333333333</ele><time>2026-04-05T09:08:57.809Z</time></trkpt><trkpt lat="43.749968" lon="11.207287"><ele>50.666666666666664</ele><time>2026-04-05T09:08:58.809Z</time></trkpt><trkpt lat="43.7498017" lon="11.2074073"><ele>49.0</ele><time>2026-04-05T09:08:59.809Z</time></trkpt><trkpt lat="43.7496386" lon="11.2075274"><ele>49.33333333333333</ele><time>2026-04-05T09:09:00.809Z</time></trkpt><trkpt lat="43.7494789" lon="11.2076434"><ele>49.66666666666667</ele><time>2026-04-05T09:09:01.809Z</time></trkpt><trkpt lat="43.7493244" lon="11.2077542"><ele>50.0</ele><time>2026-04-05T09:09:02.809Z</time></trkpt><trkpt lat="43.7491683" lon="11.2078363"><ele>50.0</ele><time>2026-04-05T09:09:03.809Z</time></trkpt><trkpt lat="43.7490045" lon="11.2079007"><ele>50.0</ele><time>2026-04-05T09:09:04.809Z</time></trkpt><trkpt lat="43.7488323" lon="11.2079503"><ele>50.0</ele><time>2026-04-05T09:09:05.809Z</time></trkpt><trkpt lat="43.7486569" lon="11.2079942"><ele>50.0</ele><time>2026-04-05T09:09:06.809Z</time></trkpt><trkpt lat="43.7484786" lon="11.2080378"><ele>50.0</ele><time>2026-04-05T09:09:07.809Z</time></trkpt><trkpt lat="43.7483004" lon="11.2080821"><ele>50.0</ele><time>2026-04-05T09:09:08.809Z</time></trkpt><trkpt lat="43.7481175" lon="11.208128"><ele>51.0</ele><time>2026-04-05T09:09:09.809Z</time></trkpt><trkpt lat="43.7479351" lon="11.2081751"><ele>52.0</ele><time>2026-04-05T09:09:10.809Z</time></trkpt><trkpt lat="43.7477492" lon="11.2082227"><ele>53.0</ele><time>2026-04-05T09:09:11.809Z</time></trkpt><trkpt lat="43.74756" lon="11.208272"><ele>53.0</ele><time>2026-04-05T09:09:12.809Z</time></trkpt><trkpt lat="43.7473719" lon="11.2083222"><ele>53.0</ele><time>2026-04-05T09:09:13.809Z</time></trkpt><trkpt lat="43.7471835" lon="11.2083712"><ele>53.0</ele><time>2026-04-05T09:09:14.809Z</time></trkpt><trkpt lat="43.7469944" lon="11.2084188"><ele>52.0</ele><time>2026-04-05T09:09:15.809Z</time></trkpt><trkpt lat="43.7468068" lon="11.2084702"><ele>51.0</ele><time>2026-04-05T09:09:16.809Z</time></trkpt><trkpt lat="43.7466239" lon="11.2085117"><ele>50.0</ele><time>2026-04-05T09:09:17.809Z</time></trkpt><trkpt lat="43.746454" lon="11.208552"><ele>50.0</ele><time>2026-04-05T09:09:18.809Z</time></trkpt><trkpt lat="43.7462883" lon="11.2086028"><ele>50.0</ele><time>2026-04-05T09:09:19.809Z</time></trkpt><trkpt lat="43.7461249" lon="11.2086713"><ele>50.0</ele><time>2026-04-05T09:09:20.809Z</time></trkpt><trkpt lat="43.7459611" lon="11.2087593"><ele>50.333333333333336</ele><time>2026-04-05T09:09:21.809Z</time></trkpt><trkpt lat="43.7458002" lon="11.2088556"><ele>50.66666666666667</ele><time>2026-04-05T09:09:22.809Z</time></trkpt><trkpt lat="43.7456467" lon="11.2089565"><ele>51.0</ele><time>2026-04-05T09:09:23.809Z</time></trkpt><trkpt lat="43.745506" lon="11.209065"><ele>51.0</ele><time>2026-04-05T09:09:24.809Z</time></trkpt><trkpt lat="43.7453833" lon="11.2091884"><ele>51.0</ele><time>2026-04-05T09:09:25.809Z</time></trkpt><trkpt lat="43.7452794" lon="11.2093288"><ele>51.0</ele><time>2026-04-05T09:09:26.809Z</time></trkpt><trkpt lat="43.7451892" lon="11.2094918"><ele>51.0</ele><time>2026-04-05T09:09:27.809Z</time></trkpt><trkpt lat="43.7451078" lon="11.2096733"><ele>51.33333333333333</ele><time>2026-04-05T09:09:28.809Z</time></trkpt><trkpt lat="43.7450306" lon="11.2098682"><ele>51.666666666666664</ele><time>2026-04-05T09:09:29.809Z</time></trkpt><trkpt lat="43.7449538" lon="11.2100706"><ele>52.0</ele><time>2026-04-05T09:09:30.809Z</time></trkpt><trkpt lat="43.7448772" lon="11.2102818"><ele>52.0</ele><time>2026-04-05T09:09:31.809Z</time></trkpt><trkpt lat="43.7447973" lon="11.2105005"><ele>52.0</ele><time>2026-04-05T09:09:32.809Z</time></trkpt><trkpt lat="43.744715" lon="11.210728"><ele>52.0</ele><time>2026-04-05T09:09:33.809Z</time></trkpt><trkpt lat="43.7446315" lon="11.2109553"><ele>52.666666666666664</ele><time>2026-04-05T09:09:34.809Z</time></trkpt><trkpt lat="43.744548" lon="11.2111871"><ele>53.33333333333333</ele><time>2026-04-05T09:09:35.809Z</time></trkpt><trkpt lat="43.7444628" lon="11.211423"><ele>54.0</ele><time>2026-04-05T09:09:36.809Z</time></trkpt><trkpt lat="43.7443785" lon="11.2116613"><ele>54.0</ele><time>2026-04-05T09:09:37.809Z</time></trkpt><trkpt lat="43.7442956" lon="11.2118998"><ele>54.0</ele><time>2026-04-05T09:09:38.809Z</time></trkpt><trkpt lat="43.7442202" lon="11.2121279"><ele>54.0</ele><time>2026-04-05T09:09:39.809Z</time></trkpt><trkpt lat="43.7441477" lon="11.2123388"><ele>57.0</ele><time>2026-04-05T09:09:40.809Z</time></trkpt><trkpt lat="43.7440755" lon="11.212536"><ele>60.0</ele><time>2026-04-05T09:09:41.809Z</time></trkpt><trkpt lat="43.7440049" lon="11.2127204"><ele>63.0</ele><time>2026-04-05T09:09:42.809Z</time></trkpt><trkpt lat="43.7439311" lon="11.2128912"><ele>63.0</ele><time>2026-04-05T09:09:43.809Z</time></trkpt><trkpt lat="43.7438513" lon="11.2130596"><ele>63.0</ele><time>2026-04-05T09:09:44.809Z</time></trkpt><trkpt lat="43.7437679" lon="11.2132241"><ele>63.0</ele><time>2026-04-05T09:09:45.809Z</time></trkpt><trkpt lat="43.743683" lon="11.2133807"><ele>63.0</ele><time>2026-04-05T09:09:46.809Z</time></trkpt><trkpt lat="43.7435966" lon="11.2135329"><ele>61.75</ele><time>2026-04-05T09:09:47.809Z</time></trkpt><trkpt lat="43.7435093" lon="11.2136734"><ele>60.5</ele><time>2026-04-05T09:09:48.809Z</time></trkpt><trkpt lat="43.7434184" lon="11.2138023"><ele>59.25</ele><time>2026-04-05T09:09:49.809Z</time></trkpt><trkpt lat="43.7433317" lon="11.2139221"><ele>58.0</ele><time>2026-04-05T09:09:50.809Z</time></trkpt><trkpt lat="43.74324" lon="11.2140293"><ele>58.0</ele><time>2026-04-05T09:09:51.809Z</time></trkpt><trkpt lat="43.7431449" lon="11.2141202"><ele>58.0</ele><time>2026-04-05T09:09:52.809Z</time></trkpt><trkpt lat="43.7430651" lon="11.2142173"><ele>58.0</ele><time>2026-04-05T09:09:53.809Z</time></trkpt><trkpt lat="43.7430302" lon="11.2143323"><ele>58.0</ele><time>2026-04-05T09:09:54.809Z</time></trkpt><trkpt lat="43.7430224" lon="11.2144628"><ele>58.0</ele><time>2026-04-05T09:09:55.809Z</time></trkpt><trkpt lat="43.7430383" lon="11.2145975"><ele>58.0</ele><time>2026-04-05T09:09:56.809Z</time></trkpt><trkpt lat="43.7430662" lon="11.2147378"><ele>58.0</ele><time>2026-04-05T09:09:57.809Z</time></trkpt><trkpt lat="43.7430897" lon="11.2148714"><ele>58.0</ele><time>2026-04-05T09:09:58.809Z</time></trkpt><trkpt lat="43.7431098" lon="11.2149925"><ele>58.0</ele><time>2026-04-05T09:09:59.809Z</time></trkpt><trkpt lat="43.7431338" lon="11.2151121"><ele>58.0</ele><time>2026-04-05T09:10:00.809Z</time></trkpt><trkpt lat="43.7431573" lon="11.2152342"><ele>58.49999999999999</ele><time>2026-04-05T09:10:01.809Z</time></trkpt><trkpt lat="43.7431766" lon="11.2153665"><ele>59.0</ele><time>2026-04-05T09:10:02.809Z</time></trkpt><trkpt lat="43.7431858" lon="11.2155058"><ele>59.5</ele><time>2026-04-05T09:10:03.809Z</time></trkpt><trkpt lat="43.7431887" lon="11.2156317"><ele>60.0</ele><time>2026-04-05T09:10:04.809Z</time></trkpt><trkpt lat="43.7431882" lon="11.2157376"><ele>60.49999999999999</ele><time>2026-04-05T09:10:05.809Z</time></trkpt><trkpt lat="43.7431863" lon="11.2158264"><ele>61.0</ele><time>2026-04-05T09:10:06.809Z</time></trkpt><trkpt lat="43.7431749" lon="11.2159634"><ele>61.99999999999999</ele><time>2026-04-05T09:10:08.809Z</time></trkpt><trkpt lat="43.7431712" lon="11.2160603"><ele>63.0</ele><time>2026-04-05T09:10:10.809Z</time></trkpt><trkpt lat="43.7431611" lon="11.2161684"><ele>64.0</ele><time>2026-04-05T09:10:13.809Z</time></trkpt><trkpt lat="43.7431524" lon="11.2162567"><ele>65.0</ele><time>2026-04-05T09:10:15.809Z</time></trkpt><trkpt lat="43.7431435" lon="11.2163666"><ele>66.0</ele><time>2026-04-05T09:10:17.809Z</time></trkpt><trkpt lat="43.7431267" lon="11.2165118"><ele>67.0</ele><time>2026-04-05T09:10:19.809Z</time></trkpt><trkpt lat="43.7431069" lon="11.2166567"><ele>68.2</ele><time>2026-04-05T09:10:21.809Z</time></trkpt><trkpt lat="43.743093" lon="11.2167998"><ele>69.4</ele><time>2026-04-05T09:10:23.809Z</time></trkpt><trkpt lat="43.7430775" lon="11.21696"><ele>70.6</ele><time>2026-04-05T09:10:25.809Z</time></trkpt><trkpt lat="43.743056" lon="11.2171377"><ele>71.8</ele><time>2026-04-05T09:10:27.809Z</time></trkpt><trkpt lat="43.7430478" lon="11.217239"><ele>73.0</ele><time>2026-04-05T09:10:28.809Z</time></trkpt><trkpt lat="43.7430426" lon="11.2173485"><ele>73.33333333333333</ele><time>2026-04-05T09:10:29.809Z</time></trkpt><trkpt lat="43.7430404" lon="11.2174653"><ele>73.66666666666666</ele><time>2026-04-05T09:10:30.809Z</time></trkpt><trkpt lat="43.7430389" lon="11.2175761"><ele>74.0</ele><time>2026-04-05T09:10:31.809Z</time></trkpt><trkpt lat="43.7430403" lon="11.2176803"><ele>74.33333333333333</ele><time>2026-04-05T09:10:32.809Z</time></trkpt><trkpt lat="43.7430434" lon="11.2177739"><ele>74.66666666666667</ele><time>2026-04-05T09:10:33.809Z</time></trkpt><trkpt lat="43.7430482" lon="11.2179319"><ele>75.0</ele><time>2026-04-05T09:10:35.809Z</time></trkpt><trkpt lat="43.7430566" lon="11.2180355"><ele>75.0</ele><time>2026-04-05T09:10:37.809Z</time></trkpt><trkpt lat="43.7430682" lon="11.2181307"><ele>75.0</ele><time>2026-04-05T09:10:40.809Z</time></trkpt><trkpt lat="43.7430811" lon="11.218272"><ele>75.0</ele><time>2026-04-05T09:10:43.809Z</time></trkpt><trkpt lat="43.743098" lon="11.2184149"><ele>75.0</ele><time>2026-04-05T09:10:45.809Z</time></trkpt><trkpt lat="43.7430994" lon="11.2185927"><ele>75.0</ele><time>2026-04-05T09:10:47.809Z</time></trkpt><trkpt lat="43.7430974" lon="11.2186951"><ele>74.33333333333333</ele><time>2026-04-05T09:10:48.809Z</time></trkpt><trkpt lat="43.7430905" lon="11.2187947"><ele>73.66666666666667</ele><time>2026-04-05T09:10:49.809Z</time></trkpt><trkpt lat="43.7430803" lon="11.2188881"><ele>73.0</ele><time>2026-04-05T09:10:50.809Z</time></trkpt><trkpt lat="43.7430678" lon="11.2189743"><ele>72.33333333333334</ele><time>2026-04-05T09:10:51.809Z</time></trkpt><trkpt lat="43.743019" lon="11.2191114"><ele>71.66666666666667</ele><time>2026-04-05T09:10:53.809Z</time></trkpt><trkpt lat="43.7429658" lon="11.2191878"><ele>71.0</ele><time>2026-04-05T09:10:55.809Z</time></trkpt><trkpt lat="43.7429116" lon="11.2192413"><ele>70.6</ele><time>2026-04-05T09:11:06.809Z</time></trkpt><trkpt lat="43.7428336" lon="11.2192205"><ele>70.19999999999999</ele><time>2026-04-05T09:11:08.809Z</time></trkpt><trkpt lat="43.7427472" lon="11.2190954"><ele>69.80000000000001</ele><time>2026-04-05T09:11:10.809Z</time></trkpt><trkpt lat="43.7427058" lon="11.2189908"><ele>69.4</ele><time>2026-04-05T09:11:11.81Z</time></trkpt><trkpt lat="43.7426798" lon="11.218856"><ele>69.0</ele><time>2026-04-05T09:11:12.81Z</time></trkpt><trkpt lat="43.7426727" lon="11.2186971"><ele>70.75</ele><time>2026-04-05T09:11:13.81Z</time></trkpt><trkpt lat="43.7426757" lon="11.2185137"><ele>72.5</ele><time>2026-04-05T09:11:14.81Z</time></trkpt><trkpt lat="43.7426825" lon="11.2183116"><ele>74.25</ele><time>2026-04-05T09:11:15.81Z</time></trkpt><trkpt lat="43.7426902" lon="11.2181054"><ele>76.0</ele><time>2026-04-05T09:11:16.81Z</time></trkpt><trkpt lat="43.7426996" lon="11.2178921"><ele>76.0</ele><time>2026-04-05T09:11:17.81Z</time></trkpt><trkpt lat="43.74271" lon="11.2176735"><ele>76.0</ele><time>2026-04-05T09:11:18.81Z</time></trkpt><trkpt lat="43.7427135" lon="11.2174524"><ele>76.0</ele><time>2026-04-05T09:11:19.809Z</time></trkpt><trkpt lat="43.7427106" lon="11.2172229"><ele>76.0</ele><time>2026-04-05T09:11:20.81Z</time></trkpt><trkpt lat="43.7427004" lon="11.216996"><ele>76.0</ele><time>2026-04-05T09:11:21.81Z</time></trkpt><trkpt lat="43.7426793" lon="11.2167679"><ele>76.0</ele><time>2026-04-05T09:11:22.809Z</time></trkpt><trkpt lat="43.7426435" lon="11.2165425"><ele>73.66666666666666</ele><time>2026-04-05T09:11:23.81Z</time></trkpt><trkpt lat="43.7425949" lon="11.2163219"><ele>71.33333333333333</ele><time>2026-04-05T09:11:24.81Z</time></trkpt><trkpt lat="43.742533" lon="11.2161038"><ele>69.0</ele><time>2026-04-05T09:11:25.81Z</time></trkpt><trkpt lat="43.7424627" lon="11.2158911"><ele>69.0</ele><time>2026-04-05T09:11:26.809Z</time></trkpt><trkpt lat="43.7423776" lon="11.2156862"><ele>69.0</ele><time>2026-04-05T09:11:27.81Z</time></trkpt><trkpt lat="43.7422806" lon="11.2154903"><ele>69.0</ele><time>2026-04-05T09:11:28.81Z</time></trkpt><trkpt lat="43.7421694" lon="11.2153077"><ele>69.66666666666667</ele><time>2026-04-05T09:11:29.81Z</time></trkpt><trkpt lat="43.7420515" lon="11.2151418"><ele>70.33333333333334</ele><time>2026-04-05T09:11:30.81Z</time></trkpt><trkpt lat="43.7419258" lon="11.2149944"><ele>71.0</ele><time>2026-04-05T09:11:31.81Z</time></trkpt><trkpt lat="43.7417918" lon="11.2148642"><ele>66.0</ele><time>2026-04-05T09:11:32.81Z</time></trkpt><trkpt lat="43.7416505" lon="11.2147476"><ele>61.0</ele><time>2026-04-05T09:11:33.809Z</time></trkpt><trkpt lat="43.7414982" lon="11.2146481"><ele>56.0</ele><time>2026-04-05T09:11:34.809Z</time></trkpt><trkpt lat="43.7413364" lon="11.214562"><ele>56.0</ele><time>2026-04-05T09:11:35.81Z</time></trkpt><trkpt lat="43.7411638" lon="11.2144847"><ele>56.0</ele><time>2026-04-05T09:11:36.81Z</time></trkpt><trkpt lat="43.7409867" lon="11.2144163"><ele>56.0</ele><time>2026-04-05T09:11:37.81Z</time></trkpt><trkpt lat="43.7408052" lon="11.2143587"><ele>57.333333333333336</ele><time>2026-04-05T09:11:38.81Z</time></trkpt><trkpt lat="43.7406167" lon="11.2143065"><ele>58.66666666666667</ele><time>2026-04-05T09:11:39.81Z</time></trkpt><trkpt lat="43.7404272" lon="11.2142602"><ele>60.0</ele><time>2026-04-05T09:11:40.81Z</time></trkpt><trkpt lat="43.7402419" lon="11.2142198"><ele>61.33333333333333</ele><time>2026-04-05T09:11:41.81Z</time></trkpt><trkpt lat="43.7400605" lon="11.2141807"><ele>62.666666666666664</ele><time>2026-04-05T09:11:42.81Z</time></trkpt><trkpt lat="43.7398835" lon="11.2141397"><ele>64.0</ele><time>2026-04-05T09:11:43.81Z</time></trkpt><trkpt lat="43.7397097" lon="11.2140978"><ele>64.0</ele><time>2026-04-05T09:11:44.81Z</time></trkpt><trkpt lat="43.7395292" lon="11.2140567"><ele>64.0</ele><time>2026-04-05T09:11:45.81Z</time></trkpt><trkpt lat="43.7393416" lon="11.2140198"><ele>64.0</ele><time>2026-04-05T09:11:46.81Z</time></trkpt><trkpt lat="43.7391528" lon="11.2139826"><ele>60.33333333333333</ele><time>2026-04-05T09:11:47.81Z</time></trkpt><trkpt lat="43.7389699" lon="11.2139501"><ele>56.66666666666667</ele><time>2026-04-05T09:11:48.81Z</time></trkpt><trkpt lat="43.7387936" lon="11.2139142"><ele>53.0</ele><time>2026-04-05T09:11:49.81Z</time></trkpt><trkpt lat="43.7386123" lon="11.2138747"><ele>54.0</ele><time>2026-04-05T09:11:50.81Z</time></trkpt><trkpt lat="43.7384219" lon="11.2138358"><ele>55.0</ele><time>2026-04-05T09:11:51.81Z</time></trkpt><trkpt lat="43.7382283" lon="11.2137983"><ele>56.0</ele><time>2026-04-05T09:11:52.81Z</time></trkpt><trkpt lat="43.7380295" lon="11.2137548"><ele>56.0</ele><time>2026-04-05T09:11:53.81Z</time></trkpt><trkpt lat="43.7378274" lon="11.2137094"><ele>56.0</ele><time>2026-04-05T09:11:54.81Z</time></trkpt><trkpt lat="43.7376219" lon="11.2136628"><ele>56.0</ele><time>2026-04-05T09:11:55.81Z</time></trkpt><trkpt lat="43.7374168" lon="11.2136155"><ele>63.333333333333336</ele><time>2026-04-05T09:11:56.81Z</time></trkpt><trkpt lat="43.7372095" lon="11.2135628"><ele>70.66666666666667</ele><time>2026-04-05T09:11:57.809Z</time></trkpt><trkpt lat="43.7370036" lon="11.2135036"><ele>78.0</ele><time>2026-04-05T09:11:58.81Z</time></trkpt><trkpt lat="43.7269072" lon="11.2184411"><ele>79.66666666666667</ele><time>2026-04-05T09:12:56.81Z</time></trkpt><trkpt lat="43.7267393" lon="11.2184954"><ele>81.33333333333334</ele><time>2026-04-05T09:12:57.81Z</time></trkpt><trkpt lat="43.7265666" lon="11.2185422"><ele>83.0</ele><time>2026-04-05T09:12:58.81Z</time></trkpt><trkpt lat="43.7205957" lon="11.2198549"><ele>80.0</ele><time>2026-04-05T09:13:34.81Z</time></trkpt><trkpt lat="43.7204663" lon="11.2199781"><ele>77.0</ele><time>2026-04-05T09:13:35.81Z</time></trkpt><trkpt lat="43.7203298" lon="11.2200946"><ele>74.0</ele><time>2026-04-05T09:13:36.81Z</time></trkpt><trkpt lat="43.7201815" lon="11.2201956"><ele>74.0</ele><time>2026-04-05T09:13:37.81Z</time></trkpt><trkpt lat="43.7200236" lon="11.2202683"><ele>74.0</ele><time>2026-04-05T09:13:38.81Z</time></trkpt><trkpt lat="43.7198554" lon="11.2203082"><ele>74.0</ele><time>2026-04-05T09:13:39.81Z</time></trkpt><trkpt lat="43.7196811" lon="11.2203171"><ele>74.0</ele><time>2026-04-05T09:13:40.81Z</time></trkpt><trkpt lat="43.719501" lon="11.2203119"><ele>74.0</ele><time>2026-04-05T09:13:41.81Z</time></trkpt><trkpt lat="43.7193163" lon="11.2202978"><ele>74.0</ele><time>2026-04-05T09:13:42.81Z</time></trkpt><trkpt lat="43.71913" lon="11.2202806"><ele>75.66666666666667</ele><time>2026-04-05T09:13:43.81Z</time></trkpt><trkpt lat="43.7189375" lon="11.2202659"><ele>77.33333333333333</ele><time>2026-04-05T09:13:44.81Z</time></trkpt><trkpt lat="43.7187407" lon="11.2202519"><ele>79.0</ele><time>2026-04-05T09:13:45.81Z</time></trkpt><trkpt lat="43.7185382" lon="11.2202489"><ele>80.33333333333333</ele><time>2026-04-05T09:13:46.81Z</time></trkpt><trkpt lat="43.7183321" lon="11.2202617"><ele>81.66666666666667</ele><time>2026-04-05T09:13:47.81Z</time></trkpt><trkpt lat="43.7181277" lon="11.2202798"><ele>83.0</ele><time>2026-04-05T09:13:48.809Z</time></trkpt><trkpt lat="43.7179176" lon="11.2203068"><ele>83.66666666666667</ele><time>2026-04-05T09:13:49.81Z</time></trkpt><trkpt lat="43.7177086" lon="11.2203196"><ele>84.33333333333333</ele><time>2026-04-05T09:13:50.809Z</time></trkpt><trkpt lat="43.7174994" lon="11.2203187"><ele>85.0</ele><time>2026-04-05T09:13:51.81Z</time></trkpt><trkpt lat="43.71729" lon="11.220296"><ele>85.0</ele><time>2026-04-05T09:13:52.81Z</time></trkpt><trkpt lat="43.7170791" lon="11.2202601"><ele>85.0</ele><time>2026-04-05T09:13:53.81Z</time></trkpt><trkpt lat="43.7168682" lon="11.2202096"><ele>85.0</ele><time>2026-04-05T09:13:54.81Z</time></trkpt><trkpt lat="43.7166551" lon="11.2201464"><ele>83.66666666666666</ele><time>2026-04-05T09:13:55.809Z</time></trkpt><trkpt lat="43.7164429" lon="11.2200639"><ele>82.33333333333333</ele><time>2026-04-05T09:13:56.81Z</time></trkpt><trkpt lat="43.7162343" lon="11.2199588"><ele>81.0</ele><time>2026-04-05T09:13:57.81Z</time></trkpt><trkpt lat="43.7160314" lon="11.2198332"><ele>82.66666666666667</ele><time>2026-04-05T09:13:58.81Z</time></trkpt><trkpt lat="43.715836" lon="11.2196875"><ele>84.33333333333334</ele><time>2026-04-05T09:13:59.81Z</time></trkpt><trkpt lat="43.7156448" lon="11.2195274"><ele>86.0</ele><time>2026-04-05T09:14:00.81Z</time></trkpt><trkpt lat="43.7154601" lon="11.2193572"><ele>86.0</ele><time>2026-04-05T09:14:01.81Z</time></trkpt><trkpt lat="43.7152812" lon="11.2191752"><ele>86.0</ele><time>2026-04-05T09:14:02.81Z</time></trkpt><trkpt lat="43.7151117" lon="11.2189787"><ele>86.0</ele><time>2026-04-05T09:14:03.81Z</time></trkpt><trkpt lat="43.7149525" lon="11.2187706"><ele>86.66666666666667</ele><time>2026-04-05T09:14:04.81Z</time></trkpt><trkpt lat="43.7148014" lon="11.2185491"><ele>87.33333333333333</ele><time>2026-04-05T09:14:05.81Z</time></trkpt><trkpt lat="43.7146543" lon="11.2183173"><ele>88.0</ele><time>2026-04-05T09:14:06.81Z</time></trkpt><trkpt lat="43.714516" lon="11.21807"><ele>80.0</ele><time>2026-04-05T09:14:07.81Z</time></trkpt><trkpt lat="43.7143899" lon="11.2178075"><ele>72.0</ele><time>2026-04-05T09:14:08.81Z</time></trkpt><trkpt lat="43.714277" lon="11.2175371"><ele>73.0</ele><time>2026-04-05T09:14:09.81Z</time></trkpt><trkpt lat="43.7141671" lon="11.2172726"><ele>74.0</ele><time>2026-04-05T09:14:10.81Z</time></trkpt><trkpt lat="43.714056" lon="11.2170147"><ele>75.0</ele><time>2026-04-05T09:14:11.81Z</time></trkpt><trkpt lat="43.7139382" lon="11.2167633"><ele>75.0</ele><time>2026-04-05T09:14:12.81Z</time></trkpt><trkpt lat="43.7138125" lon="11.2165224"><ele>75.0</ele><time>2026-04-05T09:14:13.81Z</time></trkpt><trkpt lat="43.7136768" lon="11.2162912"><ele>75.0</ele><time>2026-04-05T09:14:14.81Z</time></trkpt><trkpt lat="43.7135321" lon="11.2160701"><ele>73.33333333333333</ele><time>2026-04-05T09:14:15.81Z</time></trkpt><trkpt lat="43.7133812" lon="11.2158544"><ele>71.66666666666666</ele><time>2026-04-05T09:14:16.81Z</time></trkpt><trkpt lat="43.7132216" lon="11.2156467"><ele>70.0</ele><time>2026-04-05T09:14:17.81Z</time></trkpt><trkpt lat="43.7130515" lon="11.2154514"><ele>71.0</ele><time>2026-04-05T09:14:18.809Z</time></trkpt><trkpt lat="43.7128721" lon="11.2152723"><ele>72.0</ele><time>2026-04-05T09:14:19.81Z</time></trkpt><trkpt lat="43.7126852" lon="11.2151098"><ele>73.0</ele><time>2026-04-05T09:14:20.81Z</time></trkpt><trkpt lat="43.7124901" lon="11.2149607"><ele>76.0</ele><time>2026-04-05T09:14:21.81Z</time></trkpt><trkpt lat="43.7122799" lon="11.2148203"><ele>79.0</ele><time>2026-04-05T09:14:22.81Z</time></trkpt><trkpt lat="43.7120547" lon="11.2146814"><ele>77.0</ele><time>2026-04-05T09:14:23.81Z</time></trkpt><trkpt lat="43.7118193" lon="11.2145371"><ele>75.0</ele><time>2026-04-05T09:14:24.81Z</time></trkpt><trkpt lat="43.7115782" lon="11.2143834"><ele>75.0</ele><time>2026-04-05T09:14:25.81Z</time></trkpt><trkpt lat="43.7113306" lon="11.2142202"><ele>75.0</ele><time>2026-04-05T09:14:26.81Z</time></trkpt><trkpt lat="43.711081" lon="11.2140541"><ele>73.5</ele><time>2026-04-05T09:14:27.81Z</time></trkpt><trkpt lat="43.7108421" lon="11.2138983"><ele>72.0</ele><time>2026-04-05T09:14:28.81Z</time></trkpt><trkpt lat="43.7106147" lon="11.2137548"><ele>72.0</ele><time>2026-04-05T09:14:29.81Z</time></trkpt><trkpt lat="43.7103939" lon="11.2136176"><ele>72.0</ele><time>2026-04-05T09:14:30.81Z</time></trkpt><trkpt lat="43.7101689" lon="11.2134864"><ele>72.5</ele><time>2026-04-05T09:14:31.81Z</time></trkpt><trkpt lat="43.7099382" lon="11.2133613"><ele>73.0</ele><time>2026-04-05T09:14:32.81Z</time></trkpt><trkpt lat="43.7097001" lon="11.2132497"><ele>72.5</ele><time>2026-04-05T09:14:33.81Z</time></trkpt><trkpt lat="43.7094542" lon="11.2131539"><ele>72.0</ele><time>2026-04-05T09:14:34.81Z</time></trkpt><trkpt lat="43.7092041" lon="11.2130712"><ele>73.0</ele><time>2026-04-05T09:14:35.81Z</time></trkpt><trkpt lat="43.7089531" lon="11.2130083"><ele>74.0</ele><time>2026-04-05T09:14:36.81Z</time></trkpt><trkpt lat="43.7087016" lon="11.2129645"><ele>74.5</ele><time>2026-04-05T09:14:37.81Z</time></trkpt><trkpt lat="43.7084457" lon="11.2129428"><ele>75.0</ele><time>2026-04-05T09:14:38.81Z</time></trkpt><trkpt lat="43.7081872" lon="11.2129356"><ele>75.0</ele><time>2026-04-05T09:14:39.81Z</time></trkpt><trkpt lat="43.7079265" lon="11.2129461"><ele>75.0</ele><time>2026-04-05T09:14:40.81Z</time></trkpt><trkpt lat="43.7076661" lon="11.2129688"><ele>77.5</ele><time>2026-04-05T09:14:41.809Z</time></trkpt><trkpt lat="43.707405" lon="11.2130024"><ele>80.0</ele><time>2026-04-05T09:14:42.81Z</time></trkpt><trkpt lat="43.7071454" lon="11.2130473"><ele>92.5</ele><time>2026-04-05T09:14:43.81Z</time></trkpt><trkpt lat="43.7068844" lon="11.2130917"><ele>105.0</ele><time>2026-04-05T09:14:44.81Z</time></trkpt><trkpt lat="43.7066239" lon="11.2131394"><ele>103.0</ele><time>2026-04-05T09:14:45.81Z</time></trkpt><trkpt lat="43.7063631" lon="11.2131887"><ele>101.0</ele><time>2026-04-05T09:14:46.81Z</time></trkpt><trkpt lat="43.7028717" lon="11.2137855"><ele>97.5</ele><time>2026-04-05T09:14:58.81Z</time></trkpt><trkpt lat="43.7026012" lon="11.2138196"><ele>94.0</ele><time>2026-04-05T09:14:59.81Z</time></trkpt><trkpt lat="43.7023377" lon="11.2138412"><ele>94.0</ele><time>2026-04-05T09:15:00.81Z</time></trkpt><trkpt lat="43.7020769" lon="11.2138506"><ele>94.0</ele><time>2026-04-05T09:15:01.81Z</time></trkpt><trkpt lat="43.7018227" lon="11.2138422"><ele>94.5</ele><time>2026-04-05T09:15:02.81Z</time></trkpt><trkpt lat="43.7015693" lon="11.2138165"><ele>95.0</ele><time>2026-04-05T09:15:03.81Z</time></trkpt><trkpt lat="43.7013202" lon="11.2137764"><ele>90.5</ele><time>2026-04-05T09:15:04.81Z</time></trkpt><trkpt lat="43.7010714" lon="11.2137189"><ele>86.0</ele><time>2026-04-05T09:15:05.81Z</time></trkpt><trkpt lat="43.7008248" lon="11.2136479"><ele>86.0</ele><time>2026-04-05T09:15:06.81Z</time></trkpt><trkpt lat="43.700577" lon="11.2135626"><ele>86.0</ele><time>2026-04-05T09:15:07.81Z</time></trkpt><trkpt lat="43.7003334" lon="11.2134558"><ele>86.0</ele><time>2026-04-05T09:15:08.81Z</time></trkpt><trkpt lat="43.7000929" lon="11.213326"><ele>86.0</ele><time>2026-04-05T09:15:09.81Z</time></trkpt><trkpt lat="43.6998588" lon="11.2131753"><ele>85.0</ele><time>2026-04-05T09:15:10.81Z</time></trkpt><trkpt lat="43.6996319" lon="11.2130035"><ele>84.0</ele><time>2026-04-05T09:15:11.81Z</time></trkpt><trkpt lat="43.6994098" lon="11.2128195"><ele>86.5</ele><time>2026-04-05T09:15:12.81Z</time></trkpt><trkpt lat="43.6991902" lon="11.2126321"><ele>89.0</ele><time>2026-04-05T09:15:13.81Z</time></trkpt><trkpt lat="43.6989704" lon="11.2124439"><ele>89.0</ele><time>2026-04-05T09:15:14.81Z</time></trkpt><trkpt lat="43.6987485" lon="11.2122682"><ele>89.0</ele><time>2026-04-05T09:15:15.81Z</time></trkpt><trkpt lat="43.6985252" lon="11.2121062"><ele>89.0</ele><time>2026-04-05T09:15:16.81Z</time></trkpt><trkpt lat="43.6983009" lon="11.2119594"><ele>89.0</ele><time>2026-04-05T09:15:17.81Z</time></trkpt><trkpt lat="43.6980781" lon="11.2118324"><ele>89.0</ele><time>2026-04-05T09:15:18.81Z</time></trkpt><trkpt lat="43.6978581" lon="11.2117274"><ele>89.0</ele><time>2026-04-05T09:15:19.81Z</time></trkpt><trkpt lat="43.6976453" lon="11.2116414"><ele>90.33333333333334</ele><time>2026-04-05T09:15:20.81Z</time></trkpt><trkpt lat="43.69743" lon="11.2115773"><ele>91.66666666666667</ele><time>2026-04-05T09:15:21.81Z</time></trkpt><trkpt lat="43.6972102" lon="11.2115249"><ele>93.0</ele><time>2026-04-05T09:15:22.81Z</time></trkpt><trkpt lat="43.6969866" lon="11.2114898"><ele>91.5</ele><time>2026-04-05T09:15:23.81Z</time></trkpt><trkpt lat="43.6967608" lon="11.2114713"><ele>90.0</ele><time>2026-04-05T09:15:24.81Z</time></trkpt><trkpt lat="43.6965325" lon="11.2114691"><ele>90.0</ele><time>2026-04-05T09:15:25.81Z</time></trkpt><trkpt lat="43.696305" lon="11.2114829"><ele>90.0</ele><time>2026-04-05T09:15:26.81Z</time></trkpt><trkpt lat="43.6960799" lon="11.2115192"><ele>94.5</ele><time>2026-04-05T09:15:27.81Z</time></trkpt><trkpt lat="43.6958551" lon="11.2115706"><ele>99.0</ele><time>2026-04-05T09:15:28.809Z</time></trkpt><trkpt lat="43.6956286" lon="11.2116404"><ele>99.0</ele><time>2026-04-05T09:15:29.809Z</time></trkpt><trkpt lat="43.6954047" lon="11.2117287"><ele>99.0</ele><time>2026-04-05T09:15:30.81Z</time></trkpt><trkpt lat="43.6951796" lon="11.21183"><ele>95.5</ele><time>2026-04-05T09:15:31.81Z</time></trkpt><trkpt lat="43.6949535" lon="11.2119356"><ele>92.0</ele><time>2026-04-05T09:15:32.81Z</time></trkpt><trkpt lat="43.6947209" lon="11.2120439"><ele>92.0</ele><time>2026-04-05T09:15:33.81Z</time></trkpt><trkpt lat="43.6944855" lon="11.2121517"><ele>92.0</ele><time>2026-04-05T09:15:34.81Z</time></trkpt><trkpt lat="43.6942483" lon="11.2122592"><ele>95.0</ele><time>2026-04-05T09:15:35.81Z</time></trkpt><trkpt lat="43.6940109" lon="11.2123647"><ele>98.0</ele><time>2026-04-05T09:15:36.81Z</time></trkpt><trkpt lat="43.6937724" lon="11.2124739"><ele>97.5</ele><time>2026-04-05T09:15:37.81Z</time></trkpt><trkpt lat="43.6935356" lon="11.2125856"><ele>97.0</ele><time>2026-04-05T09:15:38.81Z</time></trkpt><trkpt lat="43.6933081" lon="11.2126943"><ele>97.0</ele><time>2026-04-05T09:15:39.81Z</time></trkpt><trkpt lat="43.6930875" lon="11.2127916"><ele>97.0</ele><time>2026-04-05T09:15:40.81Z</time></trkpt><trkpt lat="43.6928655" lon="11.2128607"><ele>94.0</ele><time>2026-04-05T09:15:41.81Z</time></trkpt><trkpt lat="43.6926423" lon="11.2129093"><ele>91.0</ele><time>2026-04-05T09:15:42.81Z</time></trkpt><trkpt lat="43.6924145" lon="11.2129441"><ele>91.0</ele><time>2026-04-05T09:15:43.81Z</time></trkpt><trkpt lat="43.692186" lon="11.2129713"><ele>91.0</ele><time>2026-04-05T09:15:44.81Z</time></trkpt><trkpt lat="43.6919548" lon="11.212983"><ele>91.33333333333333</ele><time>2026-04-05T09:15:45.81Z</time></trkpt><trkpt lat="43.6917318" lon="11.2129732"><ele>91.66666666666667</ele><time>2026-04-05T09:15:46.81Z</time></trkpt><trkpt lat="43.6915187" lon="11.2129473"><ele>92.0</ele><time>2026-04-05T09:15:47.81Z</time></trkpt><trkpt lat="43.691318" lon="11.2129037"><ele>92.0</ele><time>2026-04-05T09:15:48.81Z</time></trkpt><trkpt lat="43.6911257" lon="11.2128446"><ele>92.0</ele><time>2026-04-05T09:15:49.81Z</time></trkpt><trkpt lat="43.6909414" lon="11.2127716"><ele>92.0</ele><time>2026-04-05T09:15:50.81Z</time></trkpt><trkpt lat="43.6907631" lon="11.2126915"><ele>92.66666666666667</ele><time>2026-04-05T09:15:51.809Z</time></trkpt><trkpt lat="43.6905887" lon="11.2126079"><ele>93.33333333333333</ele><time>2026-04-05T09:15:52.809Z</time></trkpt><trkpt lat="43.6904204" lon="11.2125134"><ele>94.0</ele><time>2026-04-05T09:15:53.81Z</time></trkpt><trkpt lat="43.6902629" lon="11.2124204"><ele>93.33333333333333</ele><time>2026-04-05T09:15:54.809Z</time></trkpt><trkpt lat="43.6901168" lon="11.2123214"><ele>92.66666666666667</ele><time>2026-04-05T09:15:55.81Z</time></trkpt><trkpt lat="43.6899735" lon="11.2122176"><ele>92.0</ele><time>2026-04-05T09:15:56.81Z</time></trkpt><trkpt lat="43.689833" lon="11.2121097"><ele>92.0</ele><time>2026-04-05T09:15:57.81Z</time></trkpt><trkpt lat="43.6896943" lon="11.2120075"><ele>92.0</ele><time>2026-04-05T09:15:58.81Z</time></trkpt><trkpt lat="43.6895635" lon="11.2119093"><ele>92.0</ele><time>2026-04-05T09:15:59.81Z</time></trkpt><trkpt lat="43.6894408" lon="11.2118184"><ele>92.0</ele><time>2026-04-05T09:16:00.81Z</time></trkpt><trkpt lat="43.6893247" lon="11.2117362"><ele>92.25</ele><time>2026-04-05T09:16:01.81Z</time></trkpt><trkpt lat="43.6892134" lon="11.2116634"><ele>92.5</ele><time>2026-04-05T09:16:02.81Z</time></trkpt><trkpt lat="43.6891096" lon="11.2116025"><ele>92.75</ele><time>2026-04-05T09:16:03.81Z</time></trkpt><trkpt lat="43.6890086" lon="11.2115433"><ele>93.0</ele><time>2026-04-05T09:16:04.81Z</time></trkpt><trkpt lat="43.6889069" lon="11.2114832"><ele>92.60000000000001</ele><time>2026-04-05T09:16:05.81Z</time></trkpt><trkpt lat="43.68881" lon="11.2114292"><ele>92.2</ele><time>2026-04-05T09:16:06.81Z</time></trkpt><trkpt lat="43.6887189" lon="11.2113783"><ele>91.8</ele><time>2026-04-05T09:16:07.81Z</time></trkpt><trkpt lat="43.6886337" lon="11.2113319"><ele>91.4</ele><time>2026-04-05T09:16:08.81Z</time></trkpt><trkpt lat="43.6885516" lon="11.2112887"><ele>91.0</ele><time>2026-04-05T09:16:09.81Z</time></trkpt><trkpt lat="43.6884675" lon="11.2112523"><ele>91.66666666666666</ele><time>2026-04-05T09:16:10.81Z</time></trkpt><trkpt lat="43.6883811" lon="11.211221"><ele>92.33333333333333</ele><time>2026-04-05T09:16:11.81Z</time></trkpt><trkpt lat="43.6883003" lon="11.2111888"><ele>93.0</ele><time>2026-04-05T09:16:12.81Z</time></trkpt><trkpt lat="43.6882244" lon="11.2111619"><ele>93.66666666666667</ele><time>2026-04-05T09:16:13.81Z</time></trkpt><trkpt lat="43.688147" lon="11.2111357"><ele>94.33333333333334</ele><time>2026-04-05T09:16:14.81Z</time></trkpt><trkpt lat="43.6880675" lon="11.2111144"><ele>95.0</ele><time>2026-04-05T09:16:15.809Z</time></trkpt><trkpt lat="43.6879827" lon="11.2110964"><ele>95.0</ele><time>2026-04-05T09:16:16.81Z</time></trkpt><trkpt lat="43.6878919" lon="11.2110779"><ele>95.0</ele><time>2026-04-05T09:16:17.81Z</time></trkpt><trkpt lat="43.6878009" lon="11.211065"><ele>95.0</ele><time>2026-04-05T09:16:18.81Z</time></trkpt><trkpt lat="43.6877168" lon="11.2110533"><ele>95.0</ele><time>2026-04-05T09:16:19.81Z</time></trkpt><trkpt lat="43.6876424" lon="11.211043"><ele>95.0</ele><time>2026-04-05T09:16:20.81Z</time></trkpt><trkpt lat="43.6875754" lon="11.2110382"><ele>95.0</ele><time>2026-04-05T09:16:21.81Z</time></trkpt><trkpt lat="43.6874608" lon="11.2110277"><ele>97.16666666666667</ele><time>2026-04-05T09:16:23.81Z</time></trkpt><trkpt lat="43.6873635" lon="11.2110225"><ele>99.33333333333334</ele><time>2026-04-05T09:16:25.81Z</time></trkpt><trkpt lat="43.6872812" lon="11.2110109"><ele>101.5</ele><time>2026-04-05T09:16:27.81Z</time></trkpt><trkpt lat="43.6872" lon="11.2109996"><ele>103.66666666666667</ele><time>2026-04-05T09:16:29.81Z</time></trkpt><trkpt lat="43.6871174" lon="11.210995"><ele>105.83333333333333</ele><time>2026-04-05T09:16:31.81Z</time></trkpt><trkpt lat="43.6870333" lon="11.2110007"><ele>108.0</ele><time>2026-04-05T09:16:33.81Z</time></trkpt><trkpt lat="43.6869217" lon="11.2110192"><ele>109.5</ele><time>2026-04-05T09:16:35.81Z</time></trkpt><trkpt lat="43.6868536" lon="11.2110307"><ele>111.0</ele><time>2026-04-05T09:16:36.81Z</time></trkpt><trkpt lat="43.6867776" lon="11.2110453"><ele>112.5</ele><time>2026-04-05T09:16:37.809Z</time></trkpt><trkpt lat="43.6867028" lon="11.2110597"><ele>114.0</ele><time>2026-04-05T09:16:38.81Z</time></trkpt><trkpt lat="43.6866192" lon="11.2110759"><ele>115.5</ele><time>2026-04-05T09:16:39.81Z</time></trkpt><trkpt lat="43.6865192" lon="11.2110929"><ele>117.0</ele><time>2026-04-05T09:16:40.81Z</time></trkpt><trkpt lat="43.6864105" lon="11.2111127"><ele>117.0</ele><time>2026-04-05T09:16:41.81Z</time></trkpt><trkpt lat="43.6862932" lon="11.2111346"><ele>117.0</ele><time>2026-04-05T09:16:42.81Z</time></trkpt><trkpt lat="43.6861759" lon="11.2111585"><ele>117.0</ele><time>2026-04-05T09:16:43.809Z</time></trkpt><trkpt lat="43.6860596" lon="11.2111843"><ele>117.0</ele><time>2026-04-05T09:16:44.809Z</time></trkpt><trkpt lat="43.6859474" lon="11.2112014"><ele>119.6</ele><time>2026-04-05T09:16:45.81Z</time></trkpt><trkpt lat="43.6858368" lon="11.2112148"><ele>122.19999999999999</ele><time>2026-04-05T09:16:46.81Z</time></trkpt><trkpt lat="43.685726" lon="11.211234"><ele>124.8</ele><time>2026-04-05T09:16:47.809Z</time></trkpt><trkpt lat="43.6856146" lon="11.2112574"><ele>127.4</ele><time>2026-04-05T09:16:48.81Z</time></trkpt><trkpt lat="43.6855099" lon="11.2112793"><ele>130.0</ele><time>2026-04-05T09:16:49.81Z</time></trkpt><trkpt lat="43.6854114" lon="11.2112978"><ele>130.0</ele><time>2026-04-05T09:16:50.81Z</time></trkpt><trkpt lat="43.6853115" lon="11.2113171"><ele>130.0</ele><time>2026-04-05T09:16:51.81Z</time></trkpt><trkpt lat="43.6852063" lon="11.2113382"><ele>130.0</ele><time>2026-04-05T09:16:52.81Z</time></trkpt><trkpt lat="43.6850986" lon="11.2113577"><ele>130.0</ele><time>2026-04-05T09:16:53.81Z</time></trkpt><trkpt lat="43.6849873" lon="11.2113786"><ele>130.0</ele><time>2026-04-05T09:16:54.81Z</time></trkpt><trkpt lat="43.6848736" lon="11.2114023"><ele>132.75</ele><time>2026-04-05T09:16:55.81Z</time></trkpt><trkpt lat="43.6847569" lon="11.2114274"><ele>135.5</ele><time>2026-04-05T09:16:56.81Z</time></trkpt><trkpt lat="43.6846374" lon="11.211454"><ele>138.25</ele><time>2026-04-05T09:16:57.81Z</time></trkpt><trkpt lat="43.6845174" lon="11.2114792"><ele>141.0</ele><time>2026-04-05T09:16:58.81Z</time></trkpt><trkpt lat="43.6843975" lon="11.2115025"><ele>133.75</ele><time>2026-04-05T09:16:59.81Z</time></trkpt><trkpt lat="43.6842759" lon="11.2115264"><ele>126.5</ele><time>2026-04-05T09:17:00.81Z</time></trkpt><trkpt lat="43.6841542" lon="11.2115504"><ele>119.25</ele><time>2026-04-05T09:17:01.81Z</time></trkpt><trkpt lat="43.684034" lon="11.211573"><ele>112.0</ele><time>2026-04-05T09:17:02.809Z</time></trkpt><trkpt lat="43.6839171" lon="11.2115919"><ele>112.0</ele><time>2026-04-05T09:17:03.81Z</time></trkpt><trkpt lat="43.6838017" lon="11.2116058"><ele>112.0</ele><time>2026-04-05T09:17:04.81Z</time></trkpt><trkpt lat="43.6836821" lon="11.2116308"><ele>112.0</ele><time>2026-04-05T09:17:05.81Z</time></trkpt><trkpt lat="43.6835601" lon="11.2116533"><ele>112.0</ele><time>2026-04-05T09:17:06.81Z</time></trkpt><trkpt lat="43.6834359" lon="11.2116797"><ele>109.0</ele><time>2026-04-05T09:17:07.81Z</time></trkpt><trkpt lat="43.68331" lon="11.2117058"><ele>106.0</ele><time>2026-04-05T09:17:08.81Z</time></trkpt><trkpt lat="43.6831789" lon="11.2117322"><ele>103.0</ele><time>2026-04-05T09:17:09.81Z</time></trkpt><trkpt lat="43.683045" lon="11.2117583"><ele>100.0</ele><time>2026-04-05T09:17:10.809Z</time></trkpt><trkpt lat="43.6829084" lon="11.2117865"><ele>100.0</ele><time>2026-04-05T09:17:11.81Z</time></trkpt><trkpt lat="43.6827669" lon="11.2118128"><ele>100.0</ele><time>2026-04-05T09:17:12.81Z</time></trkpt><trkpt lat="43.6826196" lon="11.211844"><ele>100.0</ele><time>2026-04-05T09:17:13.81Z</time></trkpt><trkpt lat="43.6824695" lon="11.2118775"><ele>100.0</ele><time>2026-04-05T09:17:14.81Z</time></trkpt><trkpt lat="43.6823123" lon="11.2119053"><ele>98.66666666666667</ele><time>2026-04-05T09:17:15.81Z</time></trkpt><trkpt lat="43.6821539" lon="11.2119354"><ele>97.33333333333334</ele><time>2026-04-05T09:17:16.81Z</time></trkpt><trkpt lat="43.6819912" lon="11.2119656"><ele>96.0</ele><time>2026-04-05T09:17:17.81Z</time></trkpt><trkpt lat="43.6818259" lon="11.2119981"><ele>96.0</ele><time>2026-04-05T09:17:18.809Z</time></trkpt><trkpt lat="43.6816574" lon="11.212029"><ele>96.0</ele><time>2026-04-05T09:17:19.81Z</time></trkpt><trkpt lat="43.681489" lon="11.2120562"><ele>96.0</ele><time>2026-04-05T09:17:20.81Z</time></trkpt><trkpt lat="43.6813234" lon="11.2120784"><ele>96.0</ele><time>2026-04-05T09:17:21.81Z</time></trkpt><trkpt lat="43.6811594" lon="11.2120867"><ele>96.0</ele><time>2026-04-05T09:17:22.81Z</time></trkpt><trkpt lat="43.6809985" lon="11.2120852"><ele>96.0</ele><time>2026-04-05T09:17:23.81Z</time></trkpt><trkpt lat="43.6808404" lon="11.2120806"><ele>96.0</ele><time>2026-04-05T09:17:24.81Z</time></trkpt><trkpt lat="43.6806856" lon="11.2120675"><ele>96.0</ele><time>2026-04-05T09:17:25.81Z</time></trkpt><trkpt lat="43.6805418" lon="11.2120516"><ele>96.0</ele><time>2026-04-05T09:17:26.81Z</time></trkpt><trkpt lat="43.6804131" lon="11.212038"><ele>96.0</ele><time>2026-04-05T09:17:27.81Z</time></trkpt><trkpt lat="43.6803035" lon="11.2120197"><ele>96.5</ele><time>2026-04-05T09:17:28.81Z</time></trkpt><trkpt lat="43.6802102" lon="11.2120012"><ele>97.0</ele><time>2026-04-05T09:17:29.81Z</time></trkpt><trkpt lat="43.6801369" lon="11.2119846"><ele>97.5</ele><time>2026-04-05T09:17:30.81Z</time></trkpt><trkpt lat="43.6800709" lon="11.2119772"><ele>98.0</ele><time>2026-04-05T09:17:31.81Z</time></trkpt><trkpt lat="43.6800022" lon="11.2119645"><ele>98.5</ele><time>2026-04-05T09:17:32.81Z</time></trkpt><trkpt lat="43.6799299" lon="11.2119427"><ele>99.0</ele><time>2026-04-05T09:17:33.81Z</time></trkpt><trkpt lat="43.6798512" lon="11.211917"><ele>99.0</ele><time>2026-04-05T09:17:34.81Z</time></trkpt><trkpt lat="43.6797669" lon="11.2118852"><ele>99.0</ele><time>2026-04-05T09:17:35.81Z</time></trkpt><trkpt lat="43.6796819" lon="11.2118466"><ele>99.0</ele><time>2026-04-05T09:17:36.81Z</time></trkpt><trkpt lat="43.6795966" lon="11.2118062"><ele>99.0</ele><time>2026-04-05T09:17:37.81Z</time></trkpt><trkpt lat="43.6795134" lon="11.2117625"><ele>99.0</ele><time>2026-04-05T09:17:38.81Z</time></trkpt><trkpt lat="43.6794319" lon="11.2117177"><ele>99.0</ele><time>2026-04-05T09:17:39.81Z</time></trkpt><trkpt lat="43.6793496" lon="11.211673"><ele>99.4</ele><time>2026-04-05T09:17:40.81Z</time></trkpt><trkpt lat="43.679264" lon="11.2116224"><ele>99.80000000000001</ele><time>2026-04-05T09:17:41.81Z</time></trkpt><trkpt lat="43.6791771" lon="11.2115667"><ele>100.19999999999999</ele><time>2026-04-05T09:17:42.809Z</time></trkpt><trkpt lat="43.6790836" lon="11.2115052"><ele>100.6</ele><time>2026-04-05T09:17:43.81Z</time></trkpt><trkpt lat="43.6789932" lon="11.2114376"><ele>101.0</ele><time>2026-04-05T09:17:44.81Z</time></trkpt><trkpt lat="43.6789153" lon="11.2113747"><ele>100.99999999999999</ele><time>2026-04-05T09:17:45.81Z</time></trkpt><trkpt lat="43.6788359" lon="11.2113199"><ele>101.0</ele><time>2026-04-05T09:17:46.81Z</time></trkpt><trkpt lat="43.678759" lon="11.2112695"><ele>101.0</ele><time>2026-04-05T09:17:47.81Z</time></trkpt><trkpt lat="43.6786833" lon="11.2112166"><ele>101.0</ele><time>2026-04-05T09:17:48.81Z</time></trkpt><trkpt lat="43.6786057" lon="11.2111584"><ele>100.99999999999999</ele><time>2026-04-05T09:17:49.81Z</time></trkpt><trkpt lat="43.6785256" lon="11.2111"><ele>101.0</ele><time>2026-04-05T09:17:50.81Z</time></trkpt><trkpt lat="43.6784469" lon="11.2110392"><ele>102.6</ele><time>2026-04-05T09:17:51.81Z</time></trkpt><trkpt lat="43.678365" lon="11.2109789"><ele>104.19999999999999</ele><time>2026-04-05T09:17:52.81Z</time></trkpt><trkpt lat="43.6782843" lon="11.2109196"><ele>105.80000000000001</ele><time>2026-04-05T09:17:53.81Z</time></trkpt><trkpt lat="43.6782025" lon="11.2108594"><ele>107.4</ele><time>2026-04-05T09:17:54.81Z</time></trkpt><trkpt lat="43.6781228" lon="11.2108012"><ele>109.0</ele><time>2026-04-05T09:17:55.809Z</time></trkpt><trkpt lat="43.6780397" lon="11.2107431"><ele>109.0</ele><time>2026-04-05T09:17:56.81Z</time></trkpt><trkpt lat="43.6779528" lon="11.2106857"><ele>109.0</ele><time>2026-04-05T09:17:57.81Z</time></trkpt><trkpt lat="43.6778641" lon="11.210629"><ele>109.0</ele><time>2026-04-05T09:17:58.81Z</time></trkpt><trkpt lat="43.6777738" lon="11.2105746"><ele>109.0</ele><time>2026-04-05T09:17:59.81Z</time></trkpt><trkpt lat="43.6776811" lon="11.2105222"><ele>109.0</ele><time>2026-04-05T09:18:00.81Z</time></trkpt><trkpt lat="43.6775871" lon="11.2104713"><ele>108.4</ele><time>2026-04-05T09:18:01.81Z</time></trkpt><trkpt lat="43.6774897" lon="11.2104214"><ele>107.80000000000001</ele><time>2026-04-05T09:18:02.81Z</time></trkpt><trkpt lat="43.6773942" lon="11.2103754"><ele>107.19999999999999</ele><time>2026-04-05T09:18:03.81Z</time></trkpt><trkpt lat="43.6773037" lon="11.2103355"><ele>106.6</ele><time>2026-04-05T09:18:04.81Z</time></trkpt><trkpt lat="43.6772109" lon="11.210299"><ele>106.0</ele><time>2026-04-05T09:18:05.81Z</time></trkpt><trkpt lat="43.6771138" lon="11.2102591"><ele>106.0</ele><time>2026-04-05T09:18:06.81Z</time></trkpt><trkpt lat="43.6770119" lon="11.2102229"><ele>106.0</ele><time>2026-04-05T09:18:07.81Z</time></trkpt><trkpt lat="43.6769044" lon="11.2101873"><ele>106.0</ele><time>2026-04-05T09:18:08.81Z</time></trkpt><trkpt lat="43.6767909" lon="11.2101561"><ele>106.0</ele><time>2026-04-05T09:18:09.81Z</time></trkpt><trkpt lat="43.6766746" lon="11.2101304"><ele>106.0</ele><time>2026-04-05T09:18:10.81Z</time></trkpt><trkpt lat="43.6765559" lon="11.2101091"><ele>105.5</ele><time>2026-04-05T09:18:11.81Z</time></trkpt><trkpt lat="43.6764321" lon="11.2100891"><ele>105.0</ele><time>2026-04-05T09:18:12.81Z</time></trkpt><trkpt lat="43.6763089" lon="11.2100752"><ele>104.5</ele><time>2026-04-05T09:18:13.81Z</time></trkpt><trkpt lat="43.6761829" lon="11.2100608"><ele>104.0</ele><time>2026-04-05T09:18:14.81Z</time></trkpt><trkpt lat="43.6760577" lon="11.2100536"><ele>103.75</ele><time>2026-04-05T09:18:15.81Z</time></trkpt><trkpt lat="43.6759321" lon="11.2100534"><ele>103.5</ele><time>2026-04-05T09:18:16.81Z</time></trkpt><trkpt lat="43.6758062" lon="11.2100587"><ele>103.25</ele><time>2026-04-05T09:18:17.81Z</time></trkpt><trkpt lat="43.6756798" lon="11.2100678"><ele>103.0</ele><time>2026-04-05T09:18:18.81Z</time></trkpt><trkpt lat="43.6755519" lon="11.2100746"><ele>103.0</ele><time>2026-04-05T09:18:19.81Z</time></trkpt><trkpt lat="43.675423" lon="11.2100823"><ele>103.0</ele><time>2026-04-05T09:18:20.81Z</time></trkpt><trkpt lat="43.6752932" lon="11.2100891"><ele>103.0</ele><time>2026-04-05T09:18:21.81Z</time></trkpt><trkpt lat="43.6751635" lon="11.2100983"><ele>103.0</ele><time>2026-04-05T09:18:22.81Z</time></trkpt><trkpt lat="43.6750326" lon="11.2101036"><ele>108.5</ele><time>2026-04-05T09:18:23.81Z</time></trkpt><trkpt lat="43.6749" lon="11.2101087"><ele>114.0</ele><time>2026-04-05T09:18:24.81Z</time></trkpt><trkpt lat="43.674764" lon="11.2101167"><ele>119.5</ele><time>2026-04-05T09:18:25.81Z</time></trkpt><trkpt lat="43.6746263" lon="11.2101282"><ele>125.0</ele><time>2026-04-05T09:18:26.81Z</time></trkpt><trkpt lat="43.6744825" lon="11.2101394"><ele>131.66666666666666</ele><time>2026-04-05T09:18:27.81Z</time></trkpt><trkpt lat="43.6743332" lon="11.2101485"><ele>138.33333333333334</ele><time>2026-04-05T09:18:28.81Z</time></trkpt><trkpt lat="43.6741787" lon="11.2101548"><ele>145.0</ele><time>2026-04-05T09:18:29.81Z</time></trkpt><trkpt lat="43.6740168" lon="11.2101629"><ele>145.0</ele><time>2026-04-05T09:18:30.81Z</time></trkpt><trkpt lat="43.6738528" lon="11.210171"><ele>145.0</ele><time>2026-04-05T09:18:31.81Z</time></trkpt><trkpt lat="43.6736894" lon="11.2101803"><ele>145.0</ele><time>2026-04-05T09:18:32.81Z</time></trkpt><trkpt lat="43.6735382" lon="11.2101844"><ele>145.5</ele><time>2026-04-05T09:18:33.809Z</time></trkpt><trkpt lat="43.6733977" lon="11.2101924"><ele>146.0</ele><time>2026-04-05T09:18:34.81Z</time></trkpt><trkpt lat="43.6732622" lon="11.2101983"><ele>146.5</ele><time>2026-04-05T09:18:35.81Z</time></trkpt><trkpt lat="43.6731264" lon="11.2102048"><ele>147.0</ele><time>2026-04-05T09:18:36.81Z</time></trkpt><trkpt lat="43.67299" lon="11.2102104"><ele>147.0</ele><time>2026-04-05T09:18:37.81Z</time></trkpt><trkpt lat="43.6728522" lon="11.2102187"><ele>147.0</ele><time>2026-04-05T09:18:38.81Z</time></trkpt><trkpt lat="43.6727152" lon="11.2102287"><ele>147.0</ele><time>2026-04-05T09:18:39.81Z</time></trkpt><trkpt lat="43.6725751" lon="11.2102372"><ele>147.0</ele><time>2026-04-05T09:18:40.81Z</time></trkpt><trkpt lat="43.6724354" lon="11.2102441"><ele>147.0</ele><time>2026-04-05T09:18:41.81Z</time></trkpt><trkpt lat="43.6722932" lon="11.2102516"><ele>147.0</ele><time>2026-04-05T09:18:42.81Z</time></trkpt><trkpt lat="43.6721532" lon="11.2102583"><ele>147.0</ele><time>2026-04-05T09:18:43.81Z</time></trkpt><trkpt lat="43.6720126" lon="11.2102699"><ele>147.0</ele><time>2026-04-05T09:18:44.81Z</time></trkpt><trkpt lat="43.6718703" lon="11.2102772"><ele>149.25</ele><time>2026-04-05T09:18:45.81Z</time></trkpt><trkpt lat="43.6717288" lon="11.2102763"><ele>151.5</ele><time>2026-04-05T09:18:46.81Z</time></trkpt><trkpt lat="43.671587" lon="11.2102706"><ele>153.75</ele><time>2026-04-05T09:18:47.81Z</time></trkpt><trkpt lat="43.6714458" lon="11.2102617"><ele>156.0</ele><time>2026-04-05T09:18:48.81Z</time></trkpt><trkpt lat="43.6713033" lon="11.2102496"><ele>156.0</ele><time>2026-04-05T09:18:49.81Z</time></trkpt><trkpt lat="43.6711631" lon="11.2102326"><ele>156.0</ele><time>2026-04-05T09:18:50.81Z</time></trkpt><trkpt lat="43.6710291" lon="11.2102127"><ele>156.0</ele><time>2026-04-05T09:18:51.81Z</time></trkpt><trkpt lat="43.6708938" lon="11.2101934"><ele>156.0</ele><time>2026-04-05T09:18:52.809Z</time></trkpt><trkpt lat="43.6707569" lon="11.2101682"><ele>155.5</ele><time>2026-04-05T09:18:53.81Z</time></trkpt><trkpt lat="43.6706197" lon="11.2101427"><ele>155.0</ele><time>2026-04-05T09:18:54.811Z</time></trkpt><trkpt lat="43.670481" lon="11.2101155"><ele>154.5</ele><time>2026-04-05T09:18:55.81Z</time></trkpt><trkpt lat="43.670341" lon="11.2100884"><ele>154.0</ele><time>2026-04-05T09:18:56.81Z</time></trkpt><trkpt lat="43.6702002" lon="11.2100623"><ele>154.0</ele><time>2026-04-05T09:18:57.809Z</time></trkpt><trkpt lat="43.6700573" lon="11.2100326"><ele>154.0</ele><time>2026-04-05T09:18:58.81Z</time></trkpt><trkpt lat="43.6699143" lon="11.2100027"><ele>154.0</ele><time>2026-04-05T09:18:59.81Z</time></trkpt><trkpt lat="43.6697567" lon="11.2099758"><ele>154.0</ele><time>2026-04-05T09:19:00.81Z</time></trkpt><trkpt lat="43.6695795" lon="11.2099555"><ele>154.33333333333334</ele><time>2026-04-05T09:19:01.81Z</time></trkpt><trkpt lat="43.6693935" lon="11.2099326"><ele>154.66666666666666</ele><time>2026-04-05T09:19:02.81Z</time></trkpt><trkpt lat="43.6691913" lon="11.2098951"><ele>155.0</ele><time>2026-04-05T09:19:03.81Z</time></trkpt><trkpt lat="43.6689783" lon="11.2098538"><ele>159.5</ele><time>2026-04-05T09:19:04.81Z</time></trkpt><trkpt lat="43.6687578" lon="11.2098048"><ele>164.0</ele><time>2026-04-05T09:19:05.81Z</time></trkpt><trkpt lat="43.6685309" lon="11.2097516"><ele>164.0</ele><time>2026-04-05T09:19:06.809Z</time></trkpt><trkpt lat="43.6683033" lon="11.2097005"><ele>164.0</ele><time>2026-04-05T09:19:07.81Z</time></trkpt><trkpt lat="43.6680758" lon="11.2096497"><ele>164.0</ele><time>2026-04-05T09:19:08.81Z</time></trkpt><trkpt lat="43.6678489" lon="11.2096008"><ele>164.0</ele><time>2026-04-05T09:19:09.81Z</time></trkpt><trkpt lat="43.6676243" lon="11.2095558"><ele>165.66666666666666</ele><time>2026-04-05T09:19:10.81Z</time></trkpt><trkpt lat="43.6674034" lon="11.2095096"><ele>167.33333333333334</ele><time>2026-04-05T09:19:11.809Z</time></trkpt><trkpt lat="43.6671847" lon="11.2094651"><ele>169.0</ele><time>2026-04-05T09:19:12.81Z</time></trkpt><trkpt lat="43.6669688" lon="11.2094208"><ele>170.66666666666669</ele><time>2026-04-05T09:19:13.81Z</time></trkpt><trkpt lat="43.6667541" lon="11.2093708"><ele>172.33333333333334</ele><time>2026-04-05T09:19:14.81Z</time></trkpt><trkpt lat="43.6665417" lon="11.2093086"><ele>174.0</ele><time>2026-04-05T09:19:15.81Z</time></trkpt><trkpt lat="43.6663299" lon="11.2092382"><ele>174.0</ele><time>2026-04-05T09:19:16.81Z</time></trkpt><trkpt lat="43.666118" lon="11.209157"><ele>174.0</ele><time>2026-04-05T09:19:17.809Z</time></trkpt><trkpt lat="43.6659076" lon="11.2090636"><ele>174.0</ele><time>2026-04-05T09:19:18.81Z</time></trkpt><trkpt lat="43.6657022" lon="11.2089524"><ele>175.66666666666666</ele><time>2026-04-05T09:19:19.809Z</time></trkpt><trkpt lat="43.6655011" lon="11.208825"><ele>177.33333333333331</ele><time>2026-04-05T09:19:20.81Z</time></trkpt><trkpt lat="43.6653019" lon="11.2086869"><ele>179.0</ele><time>2026-04-05T09:19:21.81Z</time></trkpt><trkpt lat="43.665109" lon="11.2085352"><ele>179.0</ele><time>2026-04-05T09:19:22.81Z</time></trkpt><trkpt lat="43.6649196" lon="11.2083755"><ele>179.0</ele><time>2026-04-05T09:19:23.81Z</time></trkpt><trkpt lat="43.6647292" lon="11.2082143"><ele>179.0</ele><time>2026-04-05T09:19:24.81Z</time></trkpt><trkpt lat="43.6645369" lon="11.2080516"><ele>177.5</ele><time>2026-04-05T09:19:25.81Z</time></trkpt><trkpt lat="43.6643417" lon="11.2078867"><ele>176.0</ele><time>2026-04-05T09:19:26.81Z</time></trkpt><trkpt lat="43.6641456" lon="11.2077187"><ele>176.0</ele><time>2026-04-05T09:19:27.81Z</time></trkpt><trkpt lat="43.6639495" lon="11.2075492"><ele>176.0</ele><time>2026-04-05T09:19:28.81Z</time></trkpt><trkpt lat="43.6637557" lon="11.2073798"><ele>172.5</ele><time>2026-04-05T09:19:29.81Z</time></trkpt><trkpt lat="43.6635604" lon="11.2072154"><ele>169.0</ele><time>2026-04-05T09:19:30.81Z</time></trkpt><trkpt lat="43.6633663" lon="11.207043"><ele>169.0</ele><time>2026-04-05T09:19:31.81Z</time></trkpt><trkpt lat="43.6631692" lon="11.2068686"><ele>169.0</ele><time>2026-04-05T09:19:32.81Z</time></trkpt><trkpt lat="43.6629653" lon="11.2066953"><ele>172.5</ele><time>2026-04-05T09:19:33.81Z</time></trkpt><trkpt lat="43.6627618" lon="11.2065158"><ele>176.0</ele><time>2026-04-05T09:19:34.81Z</time></trkpt><trkpt lat="43.6625558" lon="11.2063367"><ele>184.5</ele><time>2026-04-05T09:19:35.81Z</time></trkpt><trkpt lat="43.6623497" lon="11.2061582"><ele>193.0</ele><time>2026-04-05T09:19:36.81Z</time></trkpt><trkpt lat="43.6621426" lon="11.2059797"><ele>191.0</ele><time>2026-04-05T09:19:37.81Z</time></trkpt><trkpt lat="43.661933" lon="11.2057977"><ele>189.0</ele><time>2026-04-05T09:19:38.81Z</time></trkpt><trkpt lat="43.6617243" lon="11.2056139"><ele>197.5</ele><time>2026-04-05T09:19:39.81Z</time></trkpt><trkpt lat="43.661513" lon="11.2054303"><ele>206.0</ele><time>2026-04-05T09:19:40.81Z</time></trkpt><trkpt lat="43.6613" lon="11.2052468"><ele>201.5</ele><time>2026-04-05T09:19:41.81Z</time></trkpt><trkpt lat="43.6610873" lon="11.2050639"><ele>197.0</ele><time>2026-04-05T09:19:42.81Z</time></trkpt><trkpt lat="43.6608793" lon="11.2048826"><ele>210.5</ele><time>2026-04-05T09:19:43.81Z</time></trkpt><trkpt lat="43.6606713" lon="11.204701"><ele>224.0</ele><time>2026-04-05T09:19:44.81Z</time></trkpt><trkpt lat="43.6604653" lon="11.2045195"><ele>216.5</ele><time>2026-04-05T09:19:45.81Z</time></trkpt><trkpt lat="43.6602616" lon="11.2043394"><ele>209.0</ele><time>2026-04-05T09:19:46.81Z</time></trkpt><trkpt lat="43.6600675" lon="11.2041628"><ele>214.0</ele><time>2026-04-05T09:19:47.81Z</time></trkpt><trkpt lat="43.6598831" lon="11.203988"><ele>219.0</ele><time>2026-04-05T09:19:48.811Z</time></trkpt><trkpt lat="43.6597041" lon="11.2038014"><ele>224.0</ele><time>2026-04-05T09:19:49.811Z</time></trkpt><trkpt lat="43.6595349" lon="11.2036046"><ele>224.66666666666669</ele><time>2026-04-05T09:19:50.811Z</time></trkpt><trkpt lat="43.6593727" lon="11.2033978"><ele>225.33333333333331</ele><time>2026-04-05T09:19:51.811Z</time></trkpt><trkpt lat="43.6592128" lon="11.2031772"><ele>226.0</ele><time>2026-04-05T09:19:52.811Z</time></trkpt><trkpt lat="43.6590621" lon="11.202942"><ele>226.0</ele><time>2026-04-05T09:19:53.811Z</time></trkpt><trkpt lat="43.6589179" lon="11.2026947"><ele>226.0</ele><time>2026-04-05T09:19:54.811Z</time></trkpt><trkpt lat="43.6587814" lon="11.2024389"><ele>220.0</ele><time>2026-04-05T09:19:55.811Z</time></trkpt><trkpt lat="43.6586539" lon="11.2021706"><ele>214.0</ele><time>2026-04-05T09:19:56.811Z</time></trkpt><trkpt lat="43.658535" lon="11.2018908"><ele>214.0</ele><time>2026-04-05T09:19:57.811Z</time></trkpt><trkpt lat="43.6584242" lon="11.2016005"><ele>214.0</ele><time>2026-04-05T09:19:58.811Z</time></trkpt><trkpt lat="43.6583186" lon="11.2013016"><ele>218.0</ele><time>2026-04-05T09:19:59.811Z</time></trkpt><trkpt lat="43.6582151" lon="11.200996"><ele>222.0</ele><time>2026-04-05T09:20:00.811Z</time></trkpt><trkpt lat="43.658112" lon="11.2006918"><ele>225.5</ele><time>2026-04-05T09:20:01.811Z</time></trkpt><trkpt lat="43.6580108" lon="11.2003899"><ele>229.0</ele><time>2026-04-05T09:20:02.811Z</time></trkpt><trkpt lat="43.6579106" lon="11.2000909"><ele>231.5</ele><time>2026-04-05T09:20:03.811Z</time></trkpt><trkpt lat="43.6578074" lon="11.1997943"><ele>234.0</ele><time>2026-04-05T09:20:04.811Z</time></trkpt><trkpt lat="43.6576961" lon="11.1994967"><ele>229.5</ele><time>2026-04-05T09:20:05.811Z</time></trkpt><trkpt lat="43.6575814" lon="11.1992014"><ele>225.0</ele><time>2026-04-05T09:20:06.811Z</time></trkpt><trkpt lat="43.6574645" lon="11.1989054"><ele>225.0</ele><time>2026-04-05T09:20:07.811Z</time></trkpt><trkpt lat="43.6573439" lon="11.1986115"><ele>225.0</ele><time>2026-04-05T09:20:08.811Z</time></trkpt><trkpt lat="43.6572145" lon="11.1983229"><ele>229.0</ele><time>2026-04-05T09:20:09.811Z</time></trkpt><trkpt lat="43.6570784" lon="11.1980403"><ele>233.0</ele><time>2026-04-05T09:20:10.811Z</time></trkpt><trkpt lat="43.6569327" lon="11.1977608"><ele>233.0</ele><time>2026-04-05T09:20:11.811Z</time></trkpt><trkpt lat="43.6567797" lon="11.1974808"><ele>233.0</ele><time>2026-04-05T09:20:12.811Z</time></trkpt><trkpt lat="43.65662" lon="11.1972015"><ele>231.0</ele><time>2026-04-05T09:20:13.811Z</time></trkpt><trkpt lat="43.6564553" lon="11.1969291"><ele>229.0</ele><time>2026-04-05T09:20:14.811Z</time></trkpt><trkpt lat="43.6562854" lon="11.1966628"><ele>237.5</ele><time>2026-04-05T09:20:15.811Z</time></trkpt><trkpt lat="43.6561116" lon="11.1963987"><ele>246.0</ele><time>2026-04-05T09:20:16.811Z</time></trkpt><trkpt lat="43.6559397" lon="11.1961332"><ele>246.0</ele><time>2026-04-05T09:20:17.811Z</time></trkpt><trkpt lat="43.6557614" lon="11.1958759"><ele>246.0</ele><time>2026-04-05T09:20:18.811Z</time></trkpt><trkpt lat="43.6555884" lon="11.195624"><ele>260.0</ele><time>2026-04-05T09:20:19.811Z</time></trkpt><trkpt lat="43.6554146" lon="11.1953778"><ele>274.0</ele><time>2026-04-05T09:20:20.811Z</time></trkpt><trkpt lat="43.6552386" lon="11.1951299"><ele>277.0</ele><time>2026-04-05T09:20:21.811Z</time></trkpt><trkpt lat="43.6550621" lon="11.194883"><ele>280.0</ele><time>2026-04-05T09:20:22.811Z</time></trkpt><trkpt lat="43.6526578" lon="11.1913554"><ele>266.0</ele><time>2026-04-05T09:20:36.811Z</time></trkpt><trkpt lat="43.6524884" lon="11.1910963"><ele>252.0</ele><time>2026-04-05T09:20:37.811Z</time></trkpt><trkpt lat="43.652316" lon="11.1908429"><ele>254.5</ele><time>2026-04-05T09:20:38.811Z</time></trkpt><trkpt lat="43.6521448" lon="11.1905858"><ele>257.0</ele><time>2026-04-05T09:20:39.811Z</time></trkpt><trkpt lat="43.6519748" lon="11.1903288"><ele>253.5</ele><time>2026-04-05T09:20:40.811Z</time></trkpt><trkpt lat="43.6518041" lon="11.1900691"><ele>250.0</ele><time>2026-04-05T09:20:41.811Z</time></trkpt><trkpt lat="43.6516349" lon="11.1898048"><ele>250.0</ele><time>2026-04-05T09:20:42.811Z</time></trkpt><trkpt lat="43.651474" lon="11.1895311"><ele>250.0</ele><time>2026-04-05T09:20:43.811Z</time></trkpt><trkpt lat="43.6513171" lon="11.1892539"><ele>254.0</ele><time>2026-04-05T09:20:44.811Z</time></trkpt><trkpt lat="43.6511731" lon="11.1889659"><ele>258.0</ele><time>2026-04-05T09:20:45.811Z</time></trkpt><trkpt lat="43.651029" lon="11.1886778"><ele>247.0</ele><time>2026-04-05T09:20:46.811Z</time></trkpt><trkpt lat="43.6508901" lon="11.1883827"><ele>236.0</ele><time>2026-04-05T09:20:47.811Z</time></trkpt><trkpt lat="43.6507479" lon="11.1880877"><ele>236.0</ele><time>2026-04-05T09:20:48.811Z</time></trkpt><trkpt lat="43.6506029" lon="11.1877891"><ele>236.0</ele><time>2026-04-05T09:20:49.811Z</time></trkpt><trkpt lat="43.65046" lon="11.1874875"><ele>234.0</ele><time>2026-04-05T09:20:50.811Z</time></trkpt><trkpt lat="43.6503233" lon="11.1871963"><ele>232.0</ele><time>2026-04-05T09:20:51.811Z</time></trkpt><trkpt lat="43.6501902" lon="11.1869115"><ele>228.5</ele><time>2026-04-05T09:20:52.811Z</time></trkpt><trkpt lat="43.6500537" lon="11.186628"><ele>225.0</ele><time>2026-04-05T09:20:53.811Z</time></trkpt><trkpt lat="43.6499155" lon="11.186341"><ele>223.0</ele><time>2026-04-05T09:20:54.811Z</time></trkpt><trkpt lat="43.6497804" lon="11.1860476"><ele>221.0</ele><time>2026-04-05T09:20:55.81Z</time></trkpt><trkpt lat="43.6496406" lon="11.1857526"><ele>218.5</ele><time>2026-04-05T09:20:56.811Z</time></trkpt><trkpt lat="43.6495013" lon="11.1854559"><ele>216.0</ele><time>2026-04-05T09:20:57.811Z</time></trkpt><trkpt lat="43.6493586" lon="11.1851564"><ele>216.0</ele><time>2026-04-05T09:20:58.811Z</time></trkpt><trkpt lat="43.6492144" lon="11.1848534"><ele>216.0</ele><time>2026-04-05T09:20:59.811Z</time></trkpt><trkpt lat="43.6490685" lon="11.1845497"><ele>216.0</ele><time>2026-04-05T09:21:00.811Z</time></trkpt><trkpt lat="43.6489268" lon="11.1842476"><ele>216.0</ele><time>2026-04-05T09:21:01.811Z</time></trkpt><trkpt lat="43.6487876" lon="11.183949"><ele>213.5</ele><time>2026-04-05T09:21:02.811Z</time></trkpt><trkpt lat="43.6486474" lon="11.1836532"><ele>211.0</ele><time>2026-04-05T09:21:03.811Z</time></trkpt><trkpt lat="43.6485069" lon="11.183367"><ele>208.5</ele><time>2026-04-05T09:21:04.811Z</time></trkpt><trkpt lat="43.6483647" lon="11.1830941"><ele>206.0</ele><time>2026-04-05T09:21:05.811Z</time></trkpt><trkpt lat="43.6482205" lon="11.1828259"><ele>206.0</ele><time>2026-04-05T09:21:06.811Z</time></trkpt><trkpt lat="43.6480699" lon="11.1825647"><ele>206.0</ele><time>2026-04-05T09:21:07.811Z</time></trkpt><trkpt lat="43.6479112" lon="11.1823128"><ele>206.0</ele><time>2026-04-05T09:21:08.811Z</time></trkpt><trkpt lat="43.6477472" lon="11.1820626"><ele>206.0</ele><time>2026-04-05T09:21:09.811Z</time></trkpt><trkpt lat="43.6475759" lon="11.1818167"><ele>206.0</ele><time>2026-04-05T09:21:10.811Z</time></trkpt><trkpt lat="43.6473957" lon="11.1815816"><ele>206.0</ele><time>2026-04-05T09:21:11.811Z</time></trkpt><trkpt lat="43.6472076" lon="11.1813554"><ele>204.0</ele><time>2026-04-05T09:21:12.811Z</time></trkpt><trkpt lat="43.6470158" lon="11.1811365"><ele>202.0</ele><time>2026-04-05T09:21:13.811Z</time></trkpt><trkpt lat="43.6468214" lon="11.1809196"><ele>202.0</ele><time>2026-04-05T09:21:14.811Z</time></trkpt><trkpt lat="43.6466264" lon="11.1807037"><ele>202.0</ele><time>2026-04-05T09:21:15.81Z</time></trkpt><trkpt lat="43.6464288" lon="11.1804882"><ele>199.0</ele><time>2026-04-05T09:21:16.811Z</time></trkpt><trkpt lat="43.6462299" lon="11.1802767"><ele>196.0</ele><time>2026-04-05T09:21:17.811Z</time></trkpt><trkpt lat="43.6460314" lon="11.1800645"><ele>196.0</ele><time>2026-04-05T09:21:18.811Z</time></trkpt><trkpt lat="43.6458318" lon="11.1798559"><ele>196.0</ele><time>2026-04-05T09:21:19.81Z</time></trkpt><trkpt lat="43.645633" lon="11.1796482"><ele>194.5</ele><time>2026-04-05T09:21:20.811Z</time></trkpt><trkpt lat="43.6454361" lon="11.1794458"><ele>193.0</ele><time>2026-04-05T09:21:21.811Z</time></trkpt><trkpt lat="43.6452426" lon="11.1792571"><ele>193.0</ele><time>2026-04-05T09:21:22.811Z</time></trkpt><trkpt lat="43.645046" lon="11.1790832"><ele>193.0</ele><time>2026-04-05T09:21:23.811Z</time></trkpt><trkpt lat="43.6448438" lon="11.1789221"><ele>189.5</ele><time>2026-04-05T09:21:24.811Z</time></trkpt><trkpt lat="43.6446341" lon="11.1787681"><ele>186.0</ele><time>2026-04-05T09:21:25.811Z</time></trkpt><trkpt lat="43.6444215" lon="11.1786255"><ele>186.0</ele><time>2026-04-05T09:21:26.812Z</time></trkpt><trkpt lat="43.6442041" lon="11.1784954"><ele>186.0</ele><time>2026-04-05T09:21:27.811Z</time></trkpt><trkpt lat="43.6439816" lon="11.1783824"><ele>186.0</ele><time>2026-04-05T09:21:28.811Z</time></trkpt><trkpt lat="43.6437546" lon="11.178289"><ele>186.0</ele><time>2026-04-05T09:21:29.811Z</time></trkpt><trkpt lat="43.6435198" lon="11.1782107"><ele>184.0</ele><time>2026-04-05T09:21:30.811Z</time></trkpt><trkpt lat="43.6432858" lon="11.1781503"><ele>182.0</ele><time>2026-04-05T09:21:31.811Z</time></trkpt><trkpt lat="43.6430393" lon="11.1781064"><ele>184.0</ele><time>2026-04-05T09:21:32.811Z</time></trkpt><trkpt lat="43.6427953" lon="11.1780819"><ele>186.0</ele><time>2026-04-05T09:21:33.811Z</time></trkpt><trkpt lat="43.6425525" lon="11.1780727"><ele>186.0</ele><time>2026-04-05T09:21:34.811Z</time></trkpt><trkpt lat="43.6423097" lon="11.1780781"><ele>186.0</ele><time>2026-04-05T09:21:35.811Z</time></trkpt><trkpt lat="43.6420677" lon="11.1781016"><ele>186.0</ele><time>2026-04-05T09:21:36.811Z</time></trkpt><trkpt lat="43.6418245" lon="11.178144"><ele>186.0</ele><time>2026-04-05T09:21:37.811Z</time></trkpt><trkpt lat="43.6415762" lon="11.1782034"><ele>186.0</ele><time>2026-04-05T09:21:38.811Z</time></trkpt><trkpt lat="43.6413258" lon="11.1782793"><ele>186.0</ele><time>2026-04-05T09:21:39.81Z</time></trkpt><trkpt lat="43.641076" lon="11.1783637"><ele>180.0</ele><time>2026-04-05T09:21:40.811Z</time></trkpt><trkpt lat="43.6408233" lon="11.1784563"><ele>174.0</ele><time>2026-04-05T09:21:41.811Z</time></trkpt><trkpt lat="43.6405655" lon="11.1785546"><ele>174.0</ele><time>2026-04-05T09:21:42.811Z</time></trkpt><trkpt lat="43.6403076" lon="11.1786537"><ele>174.0</ele><time>2026-04-05T09:21:43.811Z</time></trkpt><trkpt lat="43.6400471" lon="11.1787513"><ele>178.5</ele><time>2026-04-05T09:21:44.811Z</time></trkpt><trkpt lat="43.6397865" lon="11.1788465"><ele>183.0</ele><time>2026-04-05T09:21:45.811Z</time></trkpt><trkpt lat="43.6395273" lon="11.1789425"><ele>179.5</ele><time>2026-04-05T09:21:46.811Z</time></trkpt><trkpt lat="43.639266" lon="11.1790422"><ele>176.0</ele><time>2026-04-05T09:21:47.811Z</time></trkpt><trkpt lat="43.6390047" lon="11.1791386"><ele>176.0</ele><time>2026-04-05T09:21:48.811Z</time></trkpt><trkpt lat="43.6387409" lon="11.1792364"><ele>176.0</ele><time>2026-04-05T09:21:49.811Z</time></trkpt><trkpt lat="43.6384747" lon="11.1793384"><ele>171.5</ele><time>2026-04-05T09:21:50.811Z</time></trkpt><trkpt lat="43.6382058" lon="11.1794403"><ele>167.0</ele><time>2026-04-05T09:21:51.811Z</time></trkpt><trkpt lat="43.637933" lon="11.1795477"><ele>163.0</ele><time>2026-04-05T09:21:52.811Z</time></trkpt><trkpt lat="43.6376581" lon="11.1796569"><ele>159.0</ele><time>2026-04-05T09:21:53.811Z</time></trkpt><trkpt lat="43.6373863" lon="11.1797717"><ele>158.5</ele><time>2026-04-05T09:21:54.811Z</time></trkpt><trkpt lat="43.6371175" lon="11.179892"><ele>158.0</ele><time>2026-04-05T09:21:55.811Z</time></trkpt><trkpt lat="43.636855" lon="11.180014"><ele>158.0</ele><time>2026-04-05T09:21:56.81Z</time></trkpt><trkpt lat="43.6365959" lon="11.1801457"><ele>158.0</ele><time>2026-04-05T09:21:57.811Z</time></trkpt><trkpt lat="43.636336" lon="11.1802784"><ele>150.0</ele><time>2026-04-05T09:21:58.811Z</time></trkpt><trkpt lat="43.6360783" lon="11.1804171"><ele>142.0</ele><time>2026-04-05T09:21:59.811Z</time></trkpt><trkpt lat="43.6358203" lon="11.1805667"><ele>144.5</ele><time>2026-04-05T09:22:00.811Z</time></trkpt><trkpt lat="43.6355649" lon="11.1807211"><ele>147.0</ele><time>2026-04-05T09:22:01.811Z</time></trkpt><trkpt lat="43.6353078" lon="11.1808816"><ele>143.5</ele><time>2026-04-05T09:22:02.811Z</time></trkpt><trkpt lat="43.6350567" lon="11.1810452"><ele>140.0</ele><time>2026-04-05T09:22:03.81Z</time></trkpt><trkpt lat="43.6348075" lon="11.1812092"><ele>140.0</ele><time>2026-04-05T09:22:04.811Z</time></trkpt><trkpt lat="43.6345607" lon="11.1813699"><ele>140.0</ele><time>2026-04-05T09:22:05.811Z</time></trkpt><trkpt lat="43.6343171" lon="11.1815263"><ele>138.0</ele><time>2026-04-05T09:22:06.811Z</time></trkpt><trkpt lat="43.6340781" lon="11.1816816"><ele>136.0</ele><time>2026-04-05T09:22:07.811Z</time></trkpt><trkpt lat="43.6338414" lon="11.1818353"><ele>138.5</ele><time>2026-04-05T09:22:08.811Z</time></trkpt><trkpt lat="43.6336056" lon="11.1819857"><ele>141.0</ele><time>2026-04-05T09:22:09.81Z</time></trkpt><trkpt lat="43.6333705" lon="11.1821368"><ele>141.0</ele><time>2026-04-05T09:22:10.811Z</time></trkpt><trkpt lat="43.6331329" lon="11.1822806"><ele>141.0</ele><time>2026-04-05T09:22:11.811Z</time></trkpt><trkpt lat="43.6328939" lon="11.1824182"><ele>143.0</ele><time>2026-04-05T09:22:12.811Z</time></trkpt><trkpt lat="43.6326504" lon="11.1825455"><ele>145.0</ele><time>2026-04-05T09:22:13.811Z</time></trkpt><trkpt lat="43.6324034" lon="11.1826649"><ele>145.0</ele><time>2026-04-05T09:22:14.811Z</time></trkpt><trkpt lat="43.6321532" lon="11.182772"><ele>145.0</ele><time>2026-04-05T09:22:15.811Z</time></trkpt><trkpt lat="43.631899" lon="11.1828676"><ele>141.0</ele><time>2026-04-05T09:22:16.811Z</time></trkpt><trkpt lat="43.6316421" lon="11.1829485"><ele>137.0</ele><time>2026-04-05T09:22:17.811Z</time></trkpt><trkpt lat="43.6313868" lon="11.1830127"><ele>136.0</ele><time>2026-04-05T09:22:18.81Z</time></trkpt><trkpt lat="43.6311288" lon="11.1830622"><ele>135.0</ele><time>2026-04-05T09:22:19.811Z</time></trkpt><trkpt lat="43.6308703" lon="11.183104"><ele>135.0</ele><time>2026-04-05T09:22:20.811Z</time></trkpt><trkpt lat="43.6306094" lon="11.1831332"><ele>135.0</ele><time>2026-04-05T09:22:21.811Z</time></trkpt><trkpt lat="43.6303514" lon="11.1831483"><ele>135.0</ele><time>2026-04-05T09:22:22.81Z</time></trkpt><trkpt lat="43.6300917" lon="11.1831519"><ele>135.0</ele><time>2026-04-05T09:22:23.811Z</time></trkpt><trkpt lat="43.6298324" lon="11.1831469"><ele>135.0</ele><time>2026-04-05T09:22:24.811Z</time></trkpt><trkpt lat="43.6295725" lon="11.1831381"><ele>135.0</ele><time>2026-04-05T09:22:25.811Z</time></trkpt><trkpt lat="43.629312" lon="11.1831281"><ele>133.5</ele><time>2026-04-05T09:22:26.811Z</time></trkpt><trkpt lat="43.6290507" lon="11.1831184"><ele>132.0</ele><time>2026-04-05T09:22:27.811Z</time></trkpt><trkpt lat="43.6287907" lon="11.1831102"><ele>132.5</ele><time>2026-04-05T09:22:28.811Z</time></trkpt><trkpt lat="43.6285302" lon="11.183103"><ele>133.0</ele><time>2026-04-05T09:22:29.811Z</time></trkpt><trkpt lat="43.6282705" lon="11.1830968"><ele>133.0</ele><time>2026-04-05T09:22:30.81Z</time></trkpt><trkpt lat="43.6280099" lon="11.1830906"><ele>133.0</ele><time>2026-04-05T09:22:31.811Z</time></trkpt><trkpt lat="43.627748" lon="11.1830855"><ele>133.0</ele><time>2026-04-05T09:22:32.811Z</time></trkpt><trkpt lat="43.627488" lon="11.1830846"><ele>133.0</ele><time>2026-04-05T09:22:33.811Z</time></trkpt><trkpt lat="43.6272274" lon="11.1830893"><ele>134.0</ele><time>2026-04-05T09:22:34.811Z</time></trkpt><trkpt lat="43.6269669" lon="11.1831038"><ele>135.0</ele><time>2026-04-05T09:22:35.811Z</time></trkpt><trkpt lat="43.6267075" lon="11.1831266"><ele>135.0</ele><time>2026-04-05T09:22:36.811Z</time></trkpt><trkpt lat="43.6264481" lon="11.1831606"><ele>135.0</ele><time>2026-04-05T09:22:37.811Z</time></trkpt><trkpt lat="43.6261927" lon="11.1832048"><ele>137.5</ele><time>2026-04-05T09:22:38.811Z</time></trkpt><trkpt lat="43.6259381" lon="11.1832574"><ele>140.0</ele><time>2026-04-05T09:22:39.811Z</time></trkpt><trkpt lat="43.6256849" lon="11.1833212"><ele>140.0</ele><time>2026-04-05T09:22:40.811Z</time></trkpt><trkpt lat="43.6254331" lon="11.1833956"><ele>140.0</ele><time>2026-04-05T09:22:41.811Z</time></trkpt><trkpt lat="43.6251849" lon="11.1834769"><ele>139.0</ele><time>2026-04-05T09:22:42.811Z</time></trkpt><trkpt lat="43.6249372" lon="11.1835638"><ele>138.0</ele><time>2026-04-05T09:22:43.811Z</time></trkpt><trkpt lat="43.62469" lon="11.1836645"><ele>137.0</ele><time>2026-04-05T09:22:44.811Z</time></trkpt><trkpt lat="43.6244427" lon="11.18378"><ele>136.0</ele><time>2026-04-05T09:22:45.81Z</time></trkpt><trkpt lat="43.6241921" lon="11.1839069"><ele>138.0</ele><time>2026-04-05T09:22:46.811Z</time></trkpt><trkpt lat="43.6239386" lon="11.1840469"><ele>140.0</ele><time>2026-04-05T09:22:47.811Z</time></trkpt><trkpt lat="43.6236852" lon="11.1841893"><ele>138.5</ele><time>2026-04-05T09:22:48.811Z</time></trkpt><trkpt lat="43.6234323" lon="11.1843376"><ele>137.0</ele><time>2026-04-05T09:22:49.811Z</time></trkpt><trkpt lat="43.6231766" lon="11.1844868"><ele>137.0</ele><time>2026-04-05T09:22:50.811Z</time></trkpt><trkpt lat="43.6229114" lon="11.1846411"><ele>137.0</ele><time>2026-04-05T09:22:51.811Z</time></trkpt><trkpt lat="43.6226416" lon="11.1847987"><ele>136.0</ele><time>2026-04-05T09:22:52.811Z</time></trkpt><trkpt lat="43.6223652" lon="11.1849584"><ele>135.0</ele><time>2026-04-05T09:22:53.811Z</time></trkpt><trkpt lat="43.6220795" lon="11.1851216"><ele>135.0</ele><time>2026-04-05T09:22:54.811Z</time></trkpt><trkpt lat="43.6217879" lon="11.1852908"><ele>135.0</ele><time>2026-04-05T09:22:55.811Z</time></trkpt><trkpt lat="43.6214915" lon="11.1854642"><ele>135.0</ele><time>2026-04-05T09:22:56.811Z</time></trkpt><trkpt lat="43.6211876" lon="11.1856416"><ele>135.0</ele><time>2026-04-05T09:22:57.811Z</time></trkpt><trkpt lat="43.6208879" lon="11.1858149"><ele>135.0</ele><time>2026-04-05T09:22:58.811Z</time></trkpt><trkpt lat="43.6205943" lon="11.1859849"><ele>135.0</ele><time>2026-04-05T09:22:59.811Z</time></trkpt><trkpt lat="43.6203039" lon="11.186152"><ele>135.0</ele><time>2026-04-05T09:23:00.811Z</time></trkpt><trkpt lat="43.62002" lon="11.1863172"><ele>135.0</ele><time>2026-04-05T09:23:01.811Z</time></trkpt><trkpt lat="43.619751" lon="11.1864775"><ele>136.0</ele><time>2026-04-05T09:23:02.811Z</time></trkpt><trkpt lat="43.6194957" lon="11.1866296"><ele>137.0</ele><time>2026-04-05T09:23:03.811Z</time></trkpt><trkpt lat="43.6192532" lon="11.1867726"><ele>137.0</ele><time>2026-04-05T09:23:04.811Z</time></trkpt><trkpt lat="43.6190309" lon="11.1869"><ele>137.0</ele><time>2026-04-05T09:23:05.811Z</time></trkpt><trkpt lat="43.6188303" lon="11.187016"><ele>137.33333333333331</ele><time>2026-04-05T09:23:06.811Z</time></trkpt><trkpt lat="43.618641" lon="11.1871243"><ele>137.66666666666666</ele><time>2026-04-05T09:23:07.811Z</time></trkpt><trkpt lat="43.6184598" lon="11.1872286"><ele>138.0</ele><time>2026-04-05T09:23:08.811Z</time></trkpt><trkpt lat="43.6182814" lon="11.187331"><ele>138.66666666666666</ele><time>2026-04-05T09:23:09.811Z</time></trkpt><trkpt lat="43.6181054" lon="11.1874312"><ele>139.33333333333331</ele><time>2026-04-05T09:23:10.811Z</time></trkpt><trkpt lat="43.6179343" lon="11.1875329"><ele>140.0</ele><time>2026-04-05T09:23:11.81Z</time></trkpt><trkpt lat="43.6177706" lon="11.1876278"><ele>140.33333333333331</ele><time>2026-04-05T09:23:12.811Z</time></trkpt><trkpt lat="43.6176093" lon="11.1877247"><ele>140.66666666666666</ele><time>2026-04-05T09:23:13.811Z</time></trkpt><trkpt lat="43.6174499" lon="11.1878231"><ele>141.0</ele><time>2026-04-05T09:23:14.811Z</time></trkpt><trkpt lat="43.617291" lon="11.1879171"><ele>141.0</ele><time>2026-04-05T09:23:15.811Z</time></trkpt><trkpt lat="43.6171339" lon="11.1880078"><ele>141.0</ele><time>2026-04-05T09:23:16.811Z</time></trkpt><trkpt lat="43.6169795" lon="11.1880991"><ele>141.0</ele><time>2026-04-05T09:23:17.811Z</time></trkpt><trkpt lat="43.6168202" lon="11.1881878"><ele>142.0</ele><time>2026-04-05T09:23:18.811Z</time></trkpt><trkpt lat="43.6166626" lon="11.1882765"><ele>143.0</ele><time>2026-04-05T09:23:19.81Z</time></trkpt><trkpt lat="43.6165027" lon="11.1883696"><ele>144.0</ele><time>2026-04-05T09:23:20.811Z</time></trkpt><trkpt lat="43.6163392" lon="11.1884592"><ele>144.0</ele><time>2026-04-05T09:23:21.811Z</time></trkpt><trkpt lat="43.6161707" lon="11.1885478"><ele>144.0</ele><time>2026-04-05T09:23:22.811Z</time></trkpt><trkpt lat="43.6159966" lon="11.1886447"><ele>144.0</ele><time>2026-04-05T09:23:23.811Z</time></trkpt><trkpt lat="43.6158133" lon="11.1887472"><ele>143.33333333333334</ele><time>2026-04-05T09:23:24.811Z</time></trkpt><trkpt lat="43.6156239" lon="11.1888581"><ele>142.66666666666669</ele><time>2026-04-05T09:23:25.811Z</time></trkpt><trkpt lat="43.6154351" lon="11.1889681"><ele>142.0</ele><time>2026-04-05T09:23:26.81Z</time></trkpt><trkpt lat="43.6152464" lon="11.189081"><ele>141.66666666666669</ele><time>2026-04-05T09:23:27.811Z</time></trkpt><trkpt lat="43.6150552" lon="11.1891919"><ele>141.33333333333334</ele><time>2026-04-05T09:23:28.811Z</time></trkpt><trkpt lat="43.6148607" lon="11.1893004"><ele>141.0</ele><time>2026-04-05T09:23:29.811Z</time></trkpt><trkpt lat="43.6146647" lon="11.1894079"><ele>141.0</ele><time>2026-04-05T09:23:30.811Z</time></trkpt><trkpt lat="43.6144697" lon="11.1895183"><ele>141.0</ele><time>2026-04-05T09:23:31.811Z</time></trkpt><trkpt lat="43.6142751" lon="11.1896296"><ele>141.0</ele><time>2026-04-05T09:23:32.811Z</time></trkpt><trkpt lat="43.614078" lon="11.1897424"><ele>142.0</ele><time>2026-04-05T09:23:33.811Z</time></trkpt><trkpt lat="43.6138782" lon="11.1898533"><ele>143.0</ele><time>2026-04-05T09:23:34.811Z</time></trkpt><trkpt lat="43.6136717" lon="11.1899643"><ele>144.0</ele><time>2026-04-05T09:23:35.811Z</time></trkpt><trkpt lat="43.6134604" lon="11.1900706"><ele>144.0</ele><time>2026-04-05T09:23:36.811Z</time></trkpt><trkpt lat="43.6132423" lon="11.1901703"><ele>144.0</ele><time>2026-04-05T09:23:37.811Z</time></trkpt><trkpt lat="43.6130167" lon="11.1902626"><ele>143.5</ele><time>2026-04-05T09:23:38.811Z</time></trkpt><trkpt lat="43.6127852" lon="11.1903488"><ele>143.0</ele><time>2026-04-05T09:23:39.811Z</time></trkpt><trkpt lat="43.6125473" lon="11.1904327"><ele>143.0</ele><time>2026-04-05T09:23:40.81Z</time></trkpt><trkpt lat="43.6123061" lon="11.1905046"><ele>143.0</ele><time>2026-04-05T09:23:41.811Z</time></trkpt><trkpt lat="43.6120636" lon="11.1905686"><ele>143.0</ele><time>2026-04-05T09:23:42.811Z</time></trkpt><trkpt lat="43.611822" lon="11.190621"><ele>143.0</ele><time>2026-04-05T09:23:43.811Z</time></trkpt><trkpt lat="43.6115773" lon="11.1906612"><ele>143.0</ele><time>2026-04-05T09:23:44.811Z</time></trkpt><trkpt lat="43.6113312" lon="11.1906932"><ele>143.0</ele><time>2026-04-05T09:23:45.81Z</time></trkpt><trkpt lat="43.6110845" lon="11.1907268"><ele>143.0</ele><time>2026-04-05T09:23:46.811Z</time></trkpt><trkpt lat="43.6108353" lon="11.1907582"><ele>143.0</ele><time>2026-04-05T09:23:47.811Z</time></trkpt><trkpt lat="43.6105831" lon="11.1907965"><ele>143.0</ele><time>2026-04-05T09:23:48.811Z</time></trkpt><trkpt lat="43.6103292" lon="11.1908349"><ele>143.0</ele><time>2026-04-05T09:23:49.811Z</time></trkpt><trkpt lat="43.6100765" lon="11.1908689"><ele>143.5</ele><time>2026-04-05T09:23:50.811Z</time></trkpt><trkpt lat="43.6098234" lon="11.1909017"><ele>144.0</ele><time>2026-04-05T09:23:51.811Z</time></trkpt><trkpt lat="43.6095712" lon="11.1909326"><ele>145.5</ele><time>2026-04-05T09:23:52.811Z</time></trkpt><trkpt lat="43.6093163" lon="11.1909635"><ele>147.0</ele><time>2026-04-05T09:23:53.811Z</time></trkpt><trkpt lat="43.6090612" lon="11.1909929"><ele>147.0</ele><time>2026-04-05T09:23:54.811Z</time></trkpt><trkpt lat="43.6088041" lon="11.1910228"><ele>147.0</ele><time>2026-04-05T09:23:55.811Z</time></trkpt><trkpt lat="43.6085456" lon="11.1910551"><ele>147.0</ele><time>2026-04-05T09:23:56.811Z</time></trkpt><trkpt lat="43.6082877" lon="11.1910885"><ele>147.0</ele><time>2026-04-05T09:23:57.811Z</time></trkpt><trkpt lat="43.6080276" lon="11.1911199"><ele>146.0</ele><time>2026-04-05T09:23:58.811Z</time></trkpt><trkpt lat="43.6077662" lon="11.1911503"><ele>145.0</ele><time>2026-04-05T09:23:59.811Z</time></trkpt><trkpt lat="43.6075039" lon="11.1911812"><ele>145.0</ele><time>2026-04-05T09:24:00.811Z</time></trkpt><trkpt lat="43.607243" lon="11.1912086"><ele>145.0</ele><time>2026-04-05T09:24:01.811Z</time></trkpt><trkpt lat="43.6069828" lon="11.1912345"><ele>145.5</ele><time>2026-04-05T09:24:02.811Z</time></trkpt><trkpt lat="43.6067218" lon="11.191261"><ele>146.0</ele><time>2026-04-05T09:24:03.811Z</time></trkpt><trkpt lat="43.6064589" lon="11.1912845"><ele>146.0</ele><time>2026-04-05T09:24:04.811Z</time></trkpt><trkpt lat="43.6061967" lon="11.1913145"><ele>146.0</ele><time>2026-04-05T09:24:05.811Z</time></trkpt><trkpt lat="43.6059349" lon="11.1913477"><ele>146.5</ele><time>2026-04-05T09:24:06.811Z</time></trkpt><trkpt lat="43.6056781" lon="11.1913795"><ele>147.0</ele><time>2026-04-05T09:24:07.811Z</time></trkpt><trkpt lat="43.6054218" lon="11.1914107"><ele>149.5</ele><time>2026-04-05T09:24:08.811Z</time></trkpt><trkpt lat="43.6051658" lon="11.1914498"><ele>152.0</ele><time>2026-04-05T09:24:09.811Z</time></trkpt><trkpt lat="43.6049108" lon="11.1914975"><ele>151.5</ele><time>2026-04-05T09:24:10.811Z</time></trkpt><trkpt lat="43.6046528" lon="11.1915562"><ele>151.0</ele><time>2026-04-05T09:24:11.811Z</time></trkpt><trkpt lat="43.6043936" lon="11.1916255"><ele>151.0</ele><time>2026-04-05T09:24:12.811Z</time></trkpt><trkpt lat="43.6041337" lon="11.1917048"><ele>151.0</ele><time>2026-04-05T09:24:13.811Z</time></trkpt><trkpt lat="43.6038746" lon="11.1917954"><ele>151.0</ele><time>2026-04-05T09:24:14.811Z</time></trkpt><trkpt lat="43.6036157" lon="11.1918896"><ele>151.0</ele><time>2026-04-05T09:24:15.811Z</time></trkpt><trkpt lat="43.6033555" lon="11.1919886"><ele>151.0</ele><time>2026-04-05T09:24:16.811Z</time></trkpt><trkpt lat="43.6030951" lon="11.1920917"><ele>151.0</ele><time>2026-04-05T09:24:17.811Z</time></trkpt><trkpt lat="43.6028352" lon="11.192197"><ele>150.5</ele><time>2026-04-05T09:24:18.811Z</time></trkpt><trkpt lat="43.6025743" lon="11.192303"><ele>150.0</ele><time>2026-04-05T09:24:19.811Z</time></trkpt><trkpt lat="43.6023138" lon="11.192411"><ele>149.5</ele><time>2026-04-05T09:24:20.811Z</time></trkpt><trkpt lat="43.6020507" lon="11.192518"><ele>149.0</ele><time>2026-04-05T09:24:21.811Z</time></trkpt><trkpt lat="43.6017893" lon="11.1926275"><ele>150.0</ele><time>2026-04-05T09:24:22.811Z</time></trkpt><trkpt lat="43.601524" lon="11.1927351"><ele>151.0</ele><time>2026-04-05T09:24:23.811Z</time></trkpt><trkpt lat="43.601259" lon="11.1928401"><ele>151.5</ele><time>2026-04-05T09:24:24.811Z</time></trkpt><trkpt lat="43.6009919" lon="11.1929486"><ele>152.0</ele><time>2026-04-05T09:24:25.811Z</time></trkpt><trkpt lat="43.6007244" lon="11.1930574"><ele>152.0</ele><time>2026-04-05T09:24:26.811Z</time></trkpt><trkpt lat="43.6004563" lon="11.1931674"><ele>152.0</ele><time>2026-04-05T09:24:27.811Z</time></trkpt><trkpt lat="43.6001905" lon="11.1932731"><ele>152.0</ele><time>2026-04-05T09:24:28.811Z</time></trkpt><trkpt lat="43.5999277" lon="11.1933819"><ele>152.0</ele><time>2026-04-05T09:24:29.811Z</time></trkpt><trkpt lat="43.599666" lon="11.1934901"><ele>151.5</ele><time>2026-04-05T09:24:30.811Z</time></trkpt><trkpt lat="43.5994051" lon="11.1935957"><ele>151.0</ele><time>2026-04-05T09:24:31.811Z</time></trkpt><trkpt lat="43.599148" lon="11.1937088"><ele>151.0</ele><time>2026-04-05T09:24:32.811Z</time></trkpt><trkpt lat="43.5988947" lon="11.1938308"><ele>151.0</ele><time>2026-04-05T09:24:33.811Z</time></trkpt><trkpt lat="43.598642" lon="11.1939591"><ele>152.0</ele><time>2026-04-05T09:24:34.811Z</time></trkpt><trkpt lat="43.5983878" lon="11.1940953"><ele>153.0</ele><time>2026-04-05T09:24:35.811Z</time></trkpt><trkpt lat="43.5981355" lon="11.1942421"><ele>153.0</ele><time>2026-04-05T09:24:36.811Z</time></trkpt><trkpt lat="43.5978858" lon="11.1944036"><ele>153.0</ele><time>2026-04-05T09:24:37.811Z</time></trkpt><trkpt lat="43.5976369" lon="11.1945778"><ele>154.0</ele><time>2026-04-05T09:24:38.811Z</time></trkpt><trkpt lat="43.5973919" lon="11.1947636"><ele>155.0</ele><time>2026-04-05T09:24:39.811Z</time></trkpt><trkpt lat="43.5971479" lon="11.1949597"><ele>159.0</ele><time>2026-04-05T09:24:40.811Z</time></trkpt><trkpt lat="43.596908" lon="11.1951656"><ele>163.0</ele><time>2026-04-05T09:24:41.811Z</time></trkpt><trkpt lat="43.5966723" lon="11.1953738"><ele>163.0</ele><time>2026-04-05T09:24:42.811Z</time></trkpt><trkpt lat="43.5964377" lon="11.1955842"><ele>163.0</ele><time>2026-04-05T09:24:43.811Z</time></trkpt><trkpt lat="43.5962056" lon="11.1957964"><ele>162.0</ele><time>2026-04-05T09:24:44.811Z</time></trkpt><trkpt lat="43.5959728" lon="11.1960117"><ele>161.0</ele><time>2026-04-05T09:24:45.811Z</time></trkpt><trkpt lat="43.5957418" lon="11.1962254"><ele>161.0</ele><time>2026-04-05T09:24:46.811Z</time></trkpt><trkpt lat="43.5955082" lon="11.1964384"><ele>161.0</ele><time>2026-04-05T09:24:47.811Z</time></trkpt><trkpt lat="43.5952775" lon="11.1966524"><ele>160.5</ele><time>2026-04-05T09:24:48.811Z</time></trkpt><trkpt lat="43.5950504" lon="11.196866"><ele>160.0</ele><time>2026-04-05T09:24:49.81Z</time></trkpt><trkpt lat="43.5948212" lon="11.197079"><ele>160.0</ele><time>2026-04-05T09:24:50.811Z</time></trkpt><trkpt lat="43.5945924" lon="11.1972836"><ele>160.0</ele><time>2026-04-05T09:24:51.811Z</time></trkpt><trkpt lat="43.5943742" lon="11.1974803"><ele>161.0</ele><time>2026-04-05T09:24:52.811Z</time></trkpt><trkpt lat="43.594167" lon="11.1976646"><ele>162.0</ele><time>2026-04-05T09:24:53.81Z</time></trkpt><trkpt lat="43.5939657" lon="11.1978425"><ele>162.0</ele><time>2026-04-05T09:24:54.811Z</time></trkpt><trkpt lat="43.5937689" lon="11.1980157"><ele>162.0</ele><time>2026-04-05T09:24:55.811Z</time></trkpt><trkpt lat="43.5935734" lon="11.1981807"><ele>162.33333333333334</ele><time>2026-04-05T09:24:56.811Z</time></trkpt><trkpt lat="43.5933791" lon="11.1983268"><ele>162.66666666666669</ele><time>2026-04-05T09:24:57.811Z</time></trkpt><trkpt lat="43.5931838" lon="11.1984637"><ele>163.0</ele><time>2026-04-05T09:24:58.811Z</time></trkpt><trkpt lat="43.5929923" lon="11.1985893"><ele>164.0</ele><time>2026-04-05T09:24:59.811Z</time></trkpt><trkpt lat="43.5927959" lon="11.1987114"><ele>165.0</ele><time>2026-04-05T09:25:00.811Z</time></trkpt><trkpt lat="43.5926035" lon="11.1988275"><ele>166.0</ele><time>2026-04-05T09:25:01.811Z</time></trkpt><trkpt lat="43.5924176" lon="11.1989363"><ele>164.33333333333334</ele><time>2026-04-05T09:25:02.811Z</time></trkpt><trkpt lat="43.5922359" lon="11.1990406"><ele>162.66666666666666</ele><time>2026-04-05T09:25:03.811Z</time></trkpt><trkpt lat="43.5920515" lon="11.1991398"><ele>161.0</ele><time>2026-04-05T09:25:04.811Z</time></trkpt><trkpt lat="43.5918705" lon="11.1992381"><ele>161.0</ele><time>2026-04-05T09:25:05.811Z</time></trkpt><trkpt lat="43.5916891" lon="11.1993355"><ele>161.0</ele><time>2026-04-05T09:25:06.811Z</time></trkpt><trkpt lat="43.5915054" lon="11.1994269"><ele>161.0</ele><time>2026-04-05T09:25:07.811Z</time></trkpt><trkpt lat="43.591322" lon="11.1995188"><ele>161.33333333333331</ele><time>2026-04-05T09:25:08.811Z</time></trkpt><trkpt lat="43.5911299" lon="11.1996153"><ele>161.66666666666666</ele><time>2026-04-05T09:25:09.811Z</time></trkpt><trkpt lat="43.5909233" lon="11.1997177"><ele>162.0</ele><time>2026-04-05T09:25:10.811Z</time></trkpt><trkpt lat="43.590706" lon="11.1998245"><ele>161.5</ele><time>2026-04-05T09:25:11.811Z</time></trkpt><trkpt lat="43.5904823" lon="11.1999376"><ele>161.0</ele><time>2026-04-05T09:25:12.811Z</time></trkpt><trkpt lat="43.5902513" lon="11.2000544"><ele>161.0</ele><time>2026-04-05T09:25:13.811Z</time></trkpt><trkpt lat="43.5900188" lon="11.2001747"><ele>161.0</ele><time>2026-04-05T09:25:14.811Z</time></trkpt><trkpt lat="43.5897846" lon="11.2002925"><ele>161.0</ele><time>2026-04-05T09:25:15.811Z</time></trkpt><trkpt lat="43.5895492" lon="11.2004078"><ele>161.0</ele><time>2026-04-05T09:25:16.811Z</time></trkpt><trkpt lat="43.5893131" lon="11.2005208"><ele>161.5</ele><time>2026-04-05T09:25:17.811Z</time></trkpt><trkpt lat="43.5890747" lon="11.2006344"><ele>162.0</ele><time>2026-04-05T09:25:18.811Z</time></trkpt><trkpt lat="43.5888375" lon="11.2007492"><ele>163.5</ele><time>2026-04-05T09:25:19.811Z</time></trkpt><trkpt lat="43.5886006" lon="11.200866"><ele>165.0</ele><time>2026-04-05T09:25:20.811Z</time></trkpt><trkpt lat="43.5883645" lon="11.2009811"><ele>165.0</ele><time>2026-04-05T09:25:21.811Z</time></trkpt><trkpt lat="43.5881259" lon="11.2010919"><ele>165.0</ele><time>2026-04-05T09:25:22.811Z</time></trkpt><trkpt lat="43.5878861" lon="11.2011959"><ele>167.0</ele><time>2026-04-05T09:25:23.811Z</time></trkpt><trkpt lat="43.5876398" lon="11.2012924"><ele>169.0</ele><time>2026-04-05T09:25:24.811Z</time></trkpt><trkpt lat="43.5873895" lon="11.2013853"><ele>169.0</ele><time>2026-04-05T09:25:25.81Z</time></trkpt><trkpt lat="43.5871347" lon="11.2014756"><ele>169.0</ele><time>2026-04-05T09:25:26.811Z</time></trkpt><trkpt lat="43.5868755" lon="11.2015634"><ele>169.5</ele><time>2026-04-05T09:25:27.811Z</time></trkpt><trkpt lat="43.5866142" lon="11.201651"><ele>170.0</ele><time>2026-04-05T09:25:28.811Z</time></trkpt><trkpt lat="43.58635" lon="11.2017346"><ele>172.5</ele><time>2026-04-05T09:25:29.811Z</time></trkpt><trkpt lat="43.5860827" lon="11.2018177"><ele>175.0</ele><time>2026-04-05T09:25:30.811Z</time></trkpt><trkpt lat="43.5858125" lon="11.2018988"><ele>175.0</ele><time>2026-04-05T09:25:31.811Z</time></trkpt><trkpt lat="43.5855394" lon="11.2019832"><ele>175.0</ele><time>2026-04-05T09:25:32.811Z</time></trkpt><trkpt lat="43.5852626" lon="11.2020685"><ele>175.0</ele><time>2026-04-05T09:25:33.811Z</time></trkpt><trkpt lat="43.5849833" lon="11.202152"><ele>175.0</ele><time>2026-04-05T09:25:34.811Z</time></trkpt><trkpt lat="43.5847043" lon="11.2022371"><ele>174.5</ele><time>2026-04-05T09:25:35.811Z</time></trkpt><trkpt lat="43.5844237" lon="11.2023209"><ele>174.0</ele><time>2026-04-05T09:25:36.811Z</time></trkpt><trkpt lat="43.5841428" lon="11.2024019"><ele>174.0</ele><time>2026-04-05T09:25:37.811Z</time></trkpt><trkpt lat="43.5838628" lon="11.2024832"><ele>174.0</ele><time>2026-04-05T09:25:38.811Z</time></trkpt><trkpt lat="43.5835853" lon="11.2025632"><ele>175.0</ele><time>2026-04-05T09:25:39.811Z</time></trkpt><trkpt lat="43.5833094" lon="11.2026454"><ele>176.0</ele><time>2026-04-05T09:25:40.811Z</time></trkpt><trkpt lat="43.5830368" lon="11.2027325"><ele>179.0</ele><time>2026-04-05T09:25:41.81Z</time></trkpt><trkpt lat="43.5827647" lon="11.2028169"><ele>182.0</ele><time>2026-04-05T09:25:42.811Z</time></trkpt><trkpt lat="43.5824937" lon="11.2028994"><ele>182.0</ele><time>2026-04-05T09:25:43.811Z</time></trkpt><trkpt lat="43.5822198" lon="11.202983"><ele>182.0</ele><time>2026-04-05T09:25:44.811Z</time></trkpt><trkpt lat="43.581948" lon="11.2030674"><ele>183.0</ele><time>2026-04-05T09:25:45.811Z</time></trkpt><trkpt lat="43.581673" lon="11.2031496"><ele>184.0</ele><time>2026-04-05T09:25:46.811Z</time></trkpt><trkpt lat="43.5813985" lon="11.2032308"><ele>184.5</ele><time>2026-04-05T09:25:47.811Z</time></trkpt><trkpt lat="43.5811257" lon="11.2033116"><ele>185.0</ele><time>2026-04-05T09:25:48.811Z</time></trkpt><trkpt lat="43.5808539" lon="11.2033959"><ele>185.0</ele><time>2026-04-05T09:25:49.811Z</time></trkpt><trkpt lat="43.5805805" lon="11.203476"><ele>185.0</ele><time>2026-04-05T09:25:50.811Z</time></trkpt><trkpt lat="43.5803086" lon="11.2035539"><ele>189.5</ele><time>2026-04-05T09:25:51.811Z</time></trkpt><trkpt lat="43.5800377" lon="11.2036325"><ele>194.0</ele><time>2026-04-05T09:25:52.811Z</time></trkpt><trkpt lat="43.5797678" lon="11.2037104"><ele>199.5</ele><time>2026-04-05T09:25:53.811Z</time></trkpt><trkpt lat="43.579495" lon="11.2037877"><ele>205.0</ele><time>2026-04-05T09:25:54.811Z</time></trkpt><trkpt lat="43.5792215" lon="11.2038693"><ele>205.0</ele><time>2026-04-05T09:25:55.811Z</time></trkpt><trkpt lat="43.5789467" lon="11.2039519"><ele>205.0</ele><time>2026-04-05T09:25:56.811Z</time></trkpt><trkpt lat="43.5786702" lon="11.204036"><ele>200.5</ele><time>2026-04-05T09:25:57.811Z</time></trkpt><trkpt lat="43.5783934" lon="11.2041231"><ele>196.0</ele><time>2026-04-05T09:25:58.811Z</time></trkpt><trkpt lat="43.5781177" lon="11.2042113"><ele>199.0</ele><time>2026-04-05T09:25:59.811Z</time></trkpt><trkpt lat="43.5778433" lon="11.2043059"><ele>202.0</ele><time>2026-04-05T09:26:00.81Z</time></trkpt><trkpt lat="43.5775692" lon="11.2044066"><ele>202.0</ele><time>2026-04-05T09:26:01.811Z</time></trkpt><trkpt lat="43.5772952" lon="11.2045125"><ele>202.0</ele><time>2026-04-05T09:26:02.811Z</time></trkpt><trkpt lat="43.577022" lon="11.2046198"><ele>200.0</ele><time>2026-04-05T09:26:03.811Z</time></trkpt><trkpt lat="43.576754" lon="11.2047314"><ele>198.0</ele><time>2026-04-05T09:26:04.811Z</time></trkpt><trkpt lat="43.5764874" lon="11.2048528"><ele>198.0</ele><time>2026-04-05T09:26:05.811Z</time></trkpt><trkpt lat="43.5762219" lon="11.2049825"><ele>198.0</ele><time>2026-04-05T09:26:06.811Z</time></trkpt><trkpt lat="43.5759553" lon="11.2051134"><ele>203.5</ele><time>2026-04-05T09:26:07.811Z</time></trkpt><trkpt lat="43.575691" lon="11.2052497"><ele>209.0</ele><time>2026-04-05T09:26:08.811Z</time></trkpt><trkpt lat="43.5754316" lon="11.2053894"><ele>209.5</ele><time>2026-04-05T09:26:09.811Z</time></trkpt><trkpt lat="43.5751752" lon="11.205532"><ele>210.0</ele><time>2026-04-05T09:26:10.811Z</time></trkpt><trkpt lat="43.5749198" lon="11.2056741"><ele>210.0</ele><time>2026-04-05T09:26:11.811Z</time></trkpt><trkpt lat="43.5746641" lon="11.2058193"><ele>210.0</ele><time>2026-04-05T09:26:12.811Z</time></trkpt><trkpt lat="43.5744081" lon="11.2059585"><ele>220.0</ele><time>2026-04-05T09:26:13.811Z</time></trkpt><trkpt lat="43.5741514" lon="11.2060987"><ele>230.0</ele><time>2026-04-05T09:26:14.811Z</time></trkpt><trkpt lat="43.5738939" lon="11.206239"><ele>234.0</ele><time>2026-04-05T09:26:15.811Z</time></trkpt><trkpt lat="43.5736392" lon="11.2063834"><ele>238.0</ele><time>2026-04-05T09:26:16.811Z</time></trkpt><trkpt lat="43.5733806" lon="11.2065245"><ele>228.5</ele><time>2026-04-05T09:26:17.811Z</time></trkpt><trkpt lat="43.5731233" lon="11.2066689"><ele>219.0</ele><time>2026-04-05T09:26:18.81Z</time></trkpt><trkpt lat="43.5728639" lon="11.2068121"><ele>217.0</ele><time>2026-04-05T09:26:19.811Z</time></trkpt><trkpt lat="43.572611" lon="11.2069528"><ele>215.0</ele><time>2026-04-05T09:26:20.811Z</time></trkpt><trkpt lat="43.5723659" lon="11.2070963"><ele>215.0</ele><time>2026-04-05T09:26:21.811Z</time></trkpt><trkpt lat="43.5721282" lon="11.2072344"><ele>215.0</ele><time>2026-04-05T09:26:22.811Z</time></trkpt><trkpt lat="43.5718994" lon="11.207364"><ele>217.0</ele><time>2026-04-05T09:26:23.811Z</time></trkpt><trkpt lat="43.5716737" lon="11.2074913"><ele>219.0</ele><time>2026-04-05T09:26:24.811Z</time></trkpt><trkpt lat="43.5714507" lon="11.2076192"><ele>219.0</ele><time>2026-04-05T09:26:25.811Z</time></trkpt><trkpt lat="43.5712318" lon="11.207755"><ele>219.0</ele><time>2026-04-05T09:26:26.811Z</time></trkpt><trkpt lat="43.5710158" lon="11.2079049"><ele>223.5</ele><time>2026-04-05T09:26:27.811Z</time></trkpt><trkpt lat="43.570806" lon="11.2080652"><ele>228.0</ele><time>2026-04-05T09:26:28.811Z</time></trkpt><trkpt lat="43.5706064" lon="11.2082405"><ele>228.0</ele><time>2026-04-05T09:26:29.811Z</time></trkpt><trkpt lat="43.5704177" lon="11.2084296"><ele>228.0</ele><time>2026-04-05T09:26:30.811Z</time></trkpt><trkpt lat="43.5702452" lon="11.2086175"><ele>229.0</ele><time>2026-04-05T09:26:31.811Z</time></trkpt><trkpt lat="43.5700852" lon="11.2087927"><ele>230.0</ele><time>2026-04-05T09:26:32.811Z</time></trkpt><trkpt lat="43.5699409" lon="11.2089517"><ele>231.0</ele><time>2026-04-05T09:26:33.811Z</time></trkpt><trkpt lat="43.5698148" lon="11.209091"><ele>231.0</ele><time>2026-04-05T09:26:34.811Z</time></trkpt><trkpt lat="43.5696988" lon="11.2092146"><ele>231.0</ele><time>2026-04-05T09:26:35.811Z</time></trkpt><trkpt lat="43.5695913" lon="11.2093304"><ele>231.0</ele><time>2026-04-05T09:26:36.811Z</time></trkpt><trkpt lat="43.5694916" lon="11.2094385"><ele>231.0</ele><time>2026-04-05T09:26:37.811Z</time></trkpt><trkpt lat="43.5694017" lon="11.2095394"><ele>232.20000000000002</ele><time>2026-04-05T09:26:38.811Z</time></trkpt><trkpt lat="43.5693189" lon="11.2096316"><ele>233.40000000000003</ele><time>2026-04-05T09:26:39.81Z</time></trkpt><trkpt lat="43.5692429" lon="11.2097172"><ele>234.6</ele><time>2026-04-05T09:26:40.811Z</time></trkpt><trkpt lat="43.5691654" lon="11.2098038"><ele>235.8</ele><time>2026-04-05T09:26:41.811Z</time></trkpt><trkpt lat="43.5690852" lon="11.2098917"><ele>237.0</ele><time>2026-04-05T09:26:42.81Z</time></trkpt><trkpt lat="43.5690055" lon="11.2099781"><ele>237.0</ele><time>2026-04-05T09:26:43.811Z</time></trkpt><trkpt lat="43.568923" lon="11.2100669"><ele>237.0</ele><time>2026-04-05T09:26:44.81Z</time></trkpt><trkpt lat="43.56884" lon="11.2101607"><ele>237.0</ele><time>2026-04-05T09:26:45.811Z</time></trkpt><trkpt lat="43.5687604" lon="11.2102499"><ele>237.0</ele><time>2026-04-05T09:26:46.81Z</time></trkpt><trkpt lat="43.5686781" lon="11.210338"><ele>237.0</ele><time>2026-04-05T09:26:47.811Z</time></trkpt><trkpt lat="43.568593" lon="11.2104314"><ele>237.5</ele><time>2026-04-05T09:26:48.811Z</time></trkpt><trkpt lat="43.5685044" lon="11.210524"><ele>238.0</ele><time>2026-04-05T09:26:49.811Z</time></trkpt><trkpt lat="43.5684136" lon="11.2106261"><ele>238.5</ele><time>2026-04-05T09:26:50.811Z</time></trkpt><trkpt lat="43.5683178" lon="11.2107332"><ele>239.0</ele><time>2026-04-05T09:26:51.811Z</time></trkpt><trkpt lat="43.5682197" lon="11.2108437"><ele>239.0</ele><time>2026-04-05T09:26:52.811Z</time></trkpt><trkpt lat="43.5681174" lon="11.2109523"><ele>239.0</ele><time>2026-04-05T09:26:53.811Z</time></trkpt><trkpt lat="43.5680108" lon="11.2110656"><ele>239.0</ele><time>2026-04-05T09:26:54.811Z</time></trkpt><trkpt lat="43.5678999" lon="11.2111874"><ele>239.0</ele><time>2026-04-05T09:26:55.811Z</time></trkpt><trkpt lat="43.5677853" lon="11.2113127"><ele>238.66666666666669</ele><time>2026-04-05T09:26:56.811Z</time></trkpt><trkpt lat="43.5676675" lon="11.2114428"><ele>238.33333333333331</ele><time>2026-04-05T09:26:57.811Z</time></trkpt><trkpt lat="43.5675463" lon="11.2115764"><ele>238.0</ele><time>2026-04-05T09:26:58.811Z</time></trkpt><trkpt lat="43.5674234" lon="11.2117106"><ele>238.66666666666666</ele><time>2026-04-05T09:26:59.811Z</time></trkpt><trkpt lat="43.5672995" lon="11.2118501"><ele>239.33333333333331</ele><time>2026-04-05T09:27:00.811Z</time></trkpt><trkpt lat="43.5671688" lon="11.2119919"><ele>240.0</ele><time>2026-04-05T09:27:01.811Z</time></trkpt><trkpt lat="43.5670293" lon="11.2121349"><ele>245.0</ele><time>2026-04-05T09:27:02.811Z</time></trkpt><trkpt lat="43.5668787" lon="11.2122794"><ele>250.0</ele><time>2026-04-05T09:27:03.811Z</time></trkpt><trkpt lat="43.5667142" lon="11.2124168"><ele>255.0</ele><time>2026-04-05T09:27:04.811Z</time></trkpt><trkpt lat="43.5665373" lon="11.2125511"><ele>257.3333333333333</ele><time>2026-04-05T09:27:05.811Z</time></trkpt><trkpt lat="43.5663498" lon="11.2126781"><ele>259.66666666666663</ele><time>2026-04-05T09:27:06.811Z</time></trkpt><trkpt lat="43.5661573" lon="11.2127892"><ele>262.0</ele><time>2026-04-05T09:27:07.811Z</time></trkpt><trkpt lat="43.5659566" lon="11.2128858"><ele>266.3333333333333</ele><time>2026-04-05T09:27:08.811Z</time></trkpt><trkpt lat="43.5657443" lon="11.212974"><ele>270.6666666666667</ele><time>2026-04-05T09:27:09.811Z</time></trkpt><trkpt lat="43.5655246" lon="11.2130519"><ele>275.0</ele><time>2026-04-05T09:27:10.811Z</time></trkpt><trkpt lat="43.5652988" lon="11.2131212"><ele>273.0</ele><time>2026-04-05T09:27:11.811Z</time></trkpt><trkpt lat="43.5650776" lon="11.213177"><ele>271.0</ele><time>2026-04-05T09:27:12.811Z</time></trkpt><trkpt lat="43.5648558" lon="11.2132214"><ele>269.0</ele><time>2026-04-05T09:27:13.811Z</time></trkpt><trkpt lat="43.5646333" lon="11.2132473"><ele>267.5</ele><time>2026-04-05T09:27:14.811Z</time></trkpt><trkpt lat="43.5644095" lon="11.2132542"><ele>266.0</ele><time>2026-04-05T09:27:15.811Z</time></trkpt><trkpt lat="43.5641787" lon="11.2132467"><ele>266.0</ele><time>2026-04-05T09:27:16.811Z</time></trkpt><trkpt lat="43.5639386" lon="11.2132292"><ele>266.0</ele><time>2026-04-05T09:27:17.81Z</time></trkpt><trkpt lat="43.5636944" lon="11.2132039"><ele>263.0</ele><time>2026-04-05T09:27:18.811Z</time></trkpt><trkpt lat="43.5634461" lon="11.213168"><ele>260.0</ele><time>2026-04-05T09:27:19.811Z</time></trkpt><trkpt lat="43.5631893" lon="11.2131345"><ele>268.0</ele><time>2026-04-05T09:27:20.811Z</time></trkpt><trkpt lat="43.5629301" lon="11.2131063"><ele>276.0</ele><time>2026-04-05T09:27:21.811Z</time></trkpt><trkpt lat="43.562668" lon="11.2130779"><ele>276.0</ele><time>2026-04-05T09:27:22.81Z</time></trkpt><trkpt lat="43.5624069" lon="11.2130448"><ele>276.0</ele><time>2026-04-05T09:27:23.811Z</time></trkpt><trkpt lat="43.5621421" lon="11.2130111"><ele>276.0</ele><time>2026-04-05T09:27:24.811Z</time></trkpt><trkpt lat="43.5618791" lon="11.2129742"><ele>276.0</ele><time>2026-04-05T09:27:25.811Z</time></trkpt><trkpt lat="43.561615" lon="11.2129363"><ele>276.0</ele><time>2026-04-05T09:27:26.811Z</time></trkpt><trkpt lat="43.5613532" lon="11.2129023"><ele>276.0</ele><time>2026-04-05T09:27:27.811Z</time></trkpt><trkpt lat="43.5610888" lon="11.2128695"><ele>277.0</ele><time>2026-04-05T09:27:28.811Z</time></trkpt><trkpt lat="43.5608256" lon="11.2128337"><ele>278.0</ele><time>2026-04-05T09:27:29.812Z</time></trkpt><trkpt lat="43.560561" lon="11.2127942"><ele>282.0</ele><time>2026-04-05T09:27:30.812Z</time></trkpt><trkpt lat="43.5602978" lon="11.212757"><ele>286.0</ele><time>2026-04-05T09:27:31.812Z</time></trkpt><trkpt lat="43.5600351" lon="11.2127209"><ele>286.0</ele><time>2026-04-05T09:27:32.812Z</time></trkpt><trkpt lat="43.5597723" lon="11.2126876"><ele>286.0</ele><time>2026-04-05T09:27:33.812Z</time></trkpt><trkpt lat="43.5595135" lon="11.2126513"><ele>287.0</ele><time>2026-04-05T09:27:34.812Z</time></trkpt><trkpt lat="43.5592577" lon="11.212602"><ele>288.0</ele><time>2026-04-05T09:27:35.812Z</time></trkpt><trkpt lat="43.5590052" lon="11.2125454"><ele>288.0</ele><time>2026-04-05T09:27:36.812Z</time></trkpt><trkpt lat="43.558751" lon="11.212478"><ele>288.0</ele><time>2026-04-05T09:27:37.812Z</time></trkpt><trkpt lat="43.5584982" lon="11.2123925"><ele>294.5</ele><time>2026-04-05T09:27:38.812Z</time></trkpt><trkpt lat="43.5582502" lon="11.2122912"><ele>301.0</ele><time>2026-04-05T09:27:39.812Z</time></trkpt><trkpt lat="43.5580046" lon="11.2121717"><ele>294.0</ele><time>2026-04-05T09:27:40.812Z</time></trkpt><trkpt lat="43.5577643" lon="11.2120287"><ele>287.0</ele><time>2026-04-05T09:27:41.812Z</time></trkpt><trkpt lat="43.5575283" lon="11.2118723"><ele>287.0</ele><time>2026-04-05T09:27:42.812Z</time></trkpt><trkpt lat="43.5572966" lon="11.211699"><ele>287.0</ele><time>2026-04-05T09:27:43.812Z</time></trkpt><trkpt lat="43.5570707" lon="11.2115113"><ele>292.5</ele><time>2026-04-05T09:27:44.812Z</time></trkpt><trkpt lat="43.5568479" lon="11.211319"><ele>298.0</ele><time>2026-04-05T09:27:45.812Z</time></trkpt><trkpt lat="43.556624" lon="11.2111309"><ele>298.0</ele><time>2026-04-05T09:27:46.812Z</time></trkpt><trkpt lat="43.5563957" lon="11.2109569"><ele>298.0</ele><time>2026-04-05T09:27:47.812Z</time></trkpt><trkpt lat="43.5561613" lon="11.2107986"><ele>305.5</ele><time>2026-04-05T09:27:48.812Z</time></trkpt><trkpt lat="43.5559213" lon="11.2106575"><ele>313.0</ele><time>2026-04-05T09:27:49.812Z</time></trkpt><trkpt lat="43.5556771" lon="11.2105294"><ele>313.0</ele><time>2026-04-05T09:27:50.812Z</time></trkpt><trkpt lat="43.55543" lon="11.2104185"><ele>313.0</ele><time>2026-04-05T09:27:51.812Z</time></trkpt><trkpt lat="43.5551761" lon="11.2103258"><ele>312.5</ele><time>2026-04-05T09:27:52.812Z</time></trkpt><trkpt lat="43.554919" lon="11.2102535"><ele>312.0</ele><time>2026-04-05T09:27:53.812Z</time></trkpt><trkpt lat="43.5546557" lon="11.2101998"><ele>315.0</ele><time>2026-04-05T09:27:54.812Z</time></trkpt><trkpt lat="43.5543886" lon="11.2101707"><ele>318.0</ele><time>2026-04-05T09:27:55.811Z</time></trkpt><trkpt lat="43.5541128" lon="11.2101631"><ele>318.0</ele><time>2026-04-05T09:27:56.812Z</time></trkpt><trkpt lat="43.5538331" lon="11.2101668"><ele>318.0</ele><time>2026-04-05T09:27:57.812Z</time></trkpt><trkpt lat="43.5535495" lon="11.2101729"><ele>316.5</ele><time>2026-04-05T09:27:58.812Z</time></trkpt><trkpt lat="43.5532617" lon="11.2101765"><ele>315.0</ele><time>2026-04-05T09:27:59.812Z</time></trkpt><trkpt lat="43.5529696" lon="11.2101839"><ele>314.5</ele><time>2026-04-05T09:28:00.812Z</time></trkpt><trkpt lat="43.5526767" lon="11.2101903"><ele>314.0</ele><time>2026-04-05T09:28:01.812Z</time></trkpt><trkpt lat="43.5523836" lon="11.2101923"><ele>314.0</ele><time>2026-04-05T09:28:02.812Z</time></trkpt><trkpt lat="43.5520954" lon="11.2101926"><ele>314.0</ele><time>2026-04-05T09:28:03.812Z</time></trkpt><trkpt lat="43.5518083" lon="11.2101984"><ele>310.0</ele><time>2026-04-05T09:28:04.812Z</time></trkpt><trkpt lat="43.5515207" lon="11.210204"><ele>306.0</ele><time>2026-04-05T09:28:05.812Z</time></trkpt><trkpt lat="43.5512348" lon="11.2102107"><ele>303.0</ele><time>2026-04-05T09:28:06.812Z</time></trkpt><trkpt lat="43.5509506" lon="11.210216"><ele>300.0</ele><time>2026-04-05T09:28:07.811Z</time></trkpt><trkpt lat="43.5506709" lon="11.2102221"><ele>300.0</ele><time>2026-04-05T09:28:08.811Z</time></trkpt><trkpt lat="43.5503948" lon="11.2102255"><ele>300.0</ele><time>2026-04-05T09:28:09.812Z</time></trkpt><trkpt lat="43.5501196" lon="11.2102321"><ele>305.0</ele><time>2026-04-05T09:28:10.812Z</time></trkpt><trkpt lat="43.5498483" lon="11.2102359"><ele>310.0</ele><time>2026-04-05T09:28:11.812Z</time></trkpt><trkpt lat="43.5495783" lon="11.210246"><ele>310.5</ele><time>2026-04-05T09:28:12.812Z</time></trkpt><trkpt lat="43.5493102" lon="11.2102552"><ele>311.0</ele><time>2026-04-05T09:28:13.812Z</time></trkpt><trkpt lat="43.5490441" lon="11.2102696"><ele>311.0</ele><time>2026-04-05T09:28:14.812Z</time></trkpt><trkpt lat="43.54878" lon="11.2103023"><ele>311.0</ele><time>2026-04-05T09:28:15.812Z</time></trkpt><trkpt lat="43.5485188" lon="11.2103526"><ele>307.0</ele><time>2026-04-05T09:28:16.812Z</time></trkpt><trkpt lat="43.5482586" lon="11.2104213"><ele>303.0</ele><time>2026-04-05T09:28:17.812Z</time></trkpt><trkpt lat="43.5480019" lon="11.2105085"><ele>300.5</ele><time>2026-04-05T09:28:18.812Z</time></trkpt><trkpt lat="43.5477584" lon="11.2106167"><ele>298.0</ele><time>2026-04-05T09:28:19.812Z</time></trkpt><trkpt lat="43.5475208" lon="11.2107418"><ele>303.0</ele><time>2026-04-05T09:28:20.812Z</time></trkpt><trkpt lat="43.547288" lon="11.2108876"><ele>308.0</ele><time>2026-04-05T09:28:21.812Z</time></trkpt><trkpt lat="43.5470595" lon="11.2110534"><ele>301.0</ele><time>2026-04-05T09:28:22.812Z</time></trkpt><trkpt lat="43.546833" lon="11.2112407"><ele>294.0</ele><time>2026-04-05T09:28:23.812Z</time></trkpt><trkpt lat="43.5466126" lon="11.2114486"><ele>294.5</ele><time>2026-04-05T09:28:24.812Z</time></trkpt><trkpt lat="43.5463954" lon="11.2116742"><ele>295.0</ele><time>2026-04-05T09:28:25.812Z</time></trkpt><trkpt lat="43.5461817" lon="11.2119069"><ele>294.5</ele><time>2026-04-05T09:28:26.812Z</time></trkpt><trkpt lat="43.545969" lon="11.2121436"><ele>294.0</ele><time>2026-04-05T09:28:27.812Z</time></trkpt><trkpt lat="43.5457561" lon="11.2123827"><ele>294.0</ele><time>2026-04-05T09:28:28.812Z</time></trkpt><trkpt lat="43.5455472" lon="11.2126268"><ele>294.0</ele><time>2026-04-05T09:28:29.812Z</time></trkpt><trkpt lat="43.5453448" lon="11.2128777"><ele>293.0</ele><time>2026-04-05T09:28:30.812Z</time></trkpt><trkpt lat="43.5451368" lon="11.2131281"><ele>292.0</ele><time>2026-04-05T09:28:31.812Z</time></trkpt><trkpt lat="43.5449341" lon="11.2133837"><ele>291.0</ele><time>2026-04-05T09:28:32.812Z</time></trkpt><trkpt lat="43.5447331" lon="11.2136429"><ele>290.0</ele><time>2026-04-05T09:28:33.812Z</time></trkpt><trkpt lat="43.544534" lon="11.2139055"><ele>293.0</ele><time>2026-04-05T09:28:34.812Z</time></trkpt><trkpt lat="43.5443367" lon="11.2141724"><ele>296.0</ele><time>2026-04-05T09:28:35.812Z</time></trkpt><trkpt lat="43.5441442" lon="11.2144457"><ele>296.0</ele><time>2026-04-05T09:28:36.812Z</time></trkpt><trkpt lat="43.5439546" lon="11.2147237"><ele>296.0</ele><time>2026-04-05T09:28:37.812Z</time></trkpt><trkpt lat="43.5437681" lon="11.2150026"><ele>292.5</ele><time>2026-04-05T09:28:38.812Z</time></trkpt><trkpt lat="43.5435865" lon="11.215286"><ele>289.0</ele><time>2026-04-05T09:28:39.812Z</time></trkpt><trkpt lat="43.543407" lon="11.2155698"><ele>290.5</ele><time>2026-04-05T09:28:40.812Z</time></trkpt><trkpt lat="43.5432261" lon="11.215852"><ele>292.0</ele><time>2026-04-05T09:28:41.812Z</time></trkpt><trkpt lat="43.543046" lon="11.2161319"><ele>290.5</ele><time>2026-04-05T09:28:42.812Z</time></trkpt><trkpt lat="43.5428656" lon="11.2164123"><ele>289.0</ele><time>2026-04-05T09:28:43.812Z</time></trkpt><trkpt lat="43.5426868" lon="11.2166902"><ele>292.0</ele><time>2026-04-05T09:28:44.812Z</time></trkpt><trkpt lat="43.5425103" lon="11.216964"><ele>295.0</ele><time>2026-04-05T09:28:45.812Z</time></trkpt><trkpt lat="43.5423407" lon="11.2172286"><ele>296.5</ele><time>2026-04-05T09:28:46.812Z</time></trkpt><trkpt lat="43.5421758" lon="11.2174887"><ele>298.0</ele><time>2026-04-05T09:28:47.812Z</time></trkpt><trkpt lat="43.5420126" lon="11.2177493"><ele>298.0</ele><time>2026-04-05T09:28:48.812Z</time></trkpt><trkpt lat="43.5418464" lon="11.2180099"><ele>298.0</ele><time>2026-04-05T09:28:49.812Z</time></trkpt><trkpt lat="43.5416743" lon="11.2182608"><ele>300.5</ele><time>2026-04-05T09:28:50.812Z</time></trkpt><trkpt lat="43.5414964" lon="11.2184992"><ele>303.0</ele><time>2026-04-05T09:28:51.812Z</time></trkpt><trkpt lat="43.5413115" lon="11.2187244"><ele>303.0</ele><time>2026-04-05T09:28:52.812Z</time></trkpt><trkpt lat="43.5411233" lon="11.2189362"><ele>303.0</ele><time>2026-04-05T09:28:53.812Z</time></trkpt><trkpt lat="43.5409296" lon="11.2191364"><ele>306.0</ele><time>2026-04-05T09:28:54.812Z</time></trkpt><trkpt lat="43.5407284" lon="11.2193196"><ele>309.0</ele><time>2026-04-05T09:28:55.812Z</time></trkpt><trkpt lat="43.5405199" lon="11.21949"><ele>309.0</ele><time>2026-04-05T09:28:56.812Z</time></trkpt><trkpt lat="43.5403048" lon="11.219648"><ele>309.0</ele><time>2026-04-05T09:28:57.812Z</time></trkpt><trkpt lat="43.5400826" lon="11.2197946"><ele>311.5</ele><time>2026-04-05T09:28:58.812Z</time></trkpt><trkpt lat="43.5398569" lon="11.2199307"><ele>314.0</ele><time>2026-04-05T09:28:59.812Z</time></trkpt><trkpt lat="43.5396293" lon="11.220052"><ele>312.5</ele><time>2026-04-05T09:29:00.812Z</time></trkpt><trkpt lat="43.5393997" lon="11.2201643"><ele>311.0</ele><time>2026-04-05T09:29:01.812Z</time></trkpt><trkpt lat="43.5391694" lon="11.2202622"><ele>311.0</ele><time>2026-04-05T09:29:02.812Z</time></trkpt><trkpt lat="43.5389355" lon="11.2203359"><ele>311.0</ele><time>2026-04-05T09:29:03.811Z</time></trkpt><trkpt lat="43.5386945" lon="11.2203969"><ele>311.5</ele><time>2026-04-05T09:29:04.812Z</time></trkpt><trkpt lat="43.5384494" lon="11.2204468"><ele>312.0</ele><time>2026-04-05T09:29:05.811Z</time></trkpt><trkpt lat="43.5382018" lon="11.2204762"><ele>312.0</ele><time>2026-04-05T09:29:06.812Z</time></trkpt><trkpt lat="43.5379513" lon="11.220491"><ele>312.0</ele><time>2026-04-05T09:29:07.812Z</time></trkpt><trkpt lat="43.5377032" lon="11.220475"><ele>315.0</ele><time>2026-04-05T09:29:08.812Z</time></trkpt><trkpt lat="43.5374541" lon="11.2204477"><ele>318.0</ele><time>2026-04-05T09:29:09.812Z</time></trkpt><trkpt lat="43.5372065" lon="11.2204084"><ele>320.0</ele><time>2026-04-05T09:29:10.811Z</time></trkpt><trkpt lat="43.536958" lon="11.2203558"><ele>322.0</ele><time>2026-04-05T09:29:11.812Z</time></trkpt><trkpt lat="43.5367136" lon="11.2202915"><ele>322.0</ele><time>2026-04-05T09:29:12.812Z</time></trkpt><trkpt lat="43.5364706" lon="11.2202129"><ele>322.0</ele><time>2026-04-05T09:29:13.812Z</time></trkpt><trkpt lat="43.5362319" lon="11.2201172"><ele>320.0</ele><time>2026-04-05T09:29:14.812Z</time></trkpt><trkpt lat="43.5359972" lon="11.2200034"><ele>318.0</ele><time>2026-04-05T09:29:15.812Z</time></trkpt><trkpt lat="43.5357669" lon="11.2198757"><ele>316.5</ele><time>2026-04-05T09:29:16.812Z</time></trkpt><trkpt lat="43.5355397" lon="11.219741"><ele>315.0</ele><time>2026-04-05T09:29:17.812Z</time></trkpt><trkpt lat="43.5353169" lon="11.2195928"><ele>315.0</ele><time>2026-04-05T09:29:18.812Z</time></trkpt><trkpt lat="43.5351043" lon="11.2194252"><ele>315.0</ele><time>2026-04-05T09:29:19.812Z</time></trkpt><trkpt lat="43.5348984" lon="11.219251"><ele>315.0</ele><time>2026-04-05T09:29:20.812Z</time></trkpt><trkpt lat="43.534699" lon="11.2190624"><ele>315.0</ele><time>2026-04-05T09:29:21.812Z</time></trkpt><trkpt lat="43.5345052" lon="11.2188662"><ele>312.5</ele><time>2026-04-05T09:29:22.812Z</time></trkpt><trkpt lat="43.5343204" lon="11.2186614"><ele>310.0</ele><time>2026-04-05T09:29:23.812Z</time></trkpt><trkpt lat="43.5341447" lon="11.2184425"><ele>310.0</ele><time>2026-04-05T09:29:24.811Z</time></trkpt><trkpt lat="43.5339766" lon="11.2182131"><ele>310.0</ele><time>2026-04-05T09:29:25.812Z</time></trkpt><trkpt lat="43.5338162" lon="11.2179765"><ele>309.3333333333333</ele><time>2026-04-05T09:29:26.812Z</time></trkpt><trkpt lat="43.5336653" lon="11.2177452"><ele>308.6666666666667</ele><time>2026-04-05T09:29:27.812Z</time></trkpt><trkpt lat="43.5335211" lon="11.2175253"><ele>308.0</ele><time>2026-04-05T09:29:28.812Z</time></trkpt><trkpt lat="43.5333824" lon="11.2173121"><ele>308.0</ele><time>2026-04-05T09:29:29.812Z</time></trkpt><trkpt lat="43.5332479" lon="11.2171043"><ele>308.0</ele><time>2026-04-05T09:29:30.812Z</time></trkpt><trkpt lat="43.5331121" lon="11.2169034"><ele>308.0</ele><time>2026-04-05T09:29:31.812Z</time></trkpt><trkpt lat="43.5329786" lon="11.2167064"><ele>304.6666666666667</ele><time>2026-04-05T09:29:32.812Z</time></trkpt><trkpt lat="43.5328501" lon="11.2165132"><ele>301.3333333333333</ele><time>2026-04-05T09:29:33.812Z</time></trkpt><trkpt lat="43.5327278" lon="11.2163263"><ele>298.0</ele><time>2026-04-05T09:29:34.812Z</time></trkpt><trkpt lat="43.5326096" lon="11.2161492"><ele>298.0</ele><time>2026-04-05T09:29:35.811Z</time></trkpt><trkpt lat="43.5324943" lon="11.2159793"><ele>298.0</ele><time>2026-04-05T09:29:36.812Z</time></trkpt><trkpt lat="43.5323795" lon="11.2158074"><ele>298.0</ele><time>2026-04-05T09:29:37.812Z</time></trkpt><trkpt lat="43.5322662" lon="11.2156323"><ele>297.0</ele><time>2026-04-05T09:29:38.812Z</time></trkpt><trkpt lat="43.5321537" lon="11.2154575"><ele>296.0</ele><time>2026-04-05T09:29:39.811Z</time></trkpt><trkpt lat="43.5320408" lon="11.2152867"><ele>295.0</ele><time>2026-04-05T09:29:40.812Z</time></trkpt><trkpt lat="43.5319283" lon="11.2151144"><ele>289.66666666666663</ele><time>2026-04-05T09:29:41.812Z</time></trkpt><trkpt lat="43.5318151" lon="11.2149399"><ele>284.3333333333333</ele><time>2026-04-05T09:29:42.812Z</time></trkpt><trkpt lat="43.5317041" lon="11.214758"><ele>279.0</ele><time>2026-04-05T09:29:43.812Z</time></trkpt><trkpt lat="43.5315956" lon="11.2145662"><ele>278.3333333333333</ele><time>2026-04-05T09:29:44.812Z</time></trkpt><trkpt lat="43.5314926" lon="11.2143652"><ele>277.66666666666663</ele><time>2026-04-05T09:29:45.812Z</time></trkpt><trkpt lat="43.5313948" lon="11.2141551"><ele>277.0</ele><time>2026-04-05T09:29:46.812Z</time></trkpt><trkpt lat="43.5312986" lon="11.2139413"><ele>282.3333333333333</ele><time>2026-04-05T09:29:47.812Z</time></trkpt><trkpt lat="43.53121" lon="11.2137175"><ele>287.6666666666667</ele><time>2026-04-05T09:29:48.812Z</time></trkpt><trkpt lat="43.5311274" lon="11.2134801"><ele>293.0</ele><time>2026-04-05T09:29:49.812Z</time></trkpt><trkpt lat="43.5310528" lon="11.2132316"><ele>292.6666666666667</ele><time>2026-04-05T09:29:50.812Z</time></trkpt><trkpt lat="43.5309813" lon="11.2129683"><ele>292.3333333333333</ele><time>2026-04-05T09:29:51.812Z</time></trkpt><trkpt lat="43.5309126" lon="11.2126972"><ele>292.0</ele><time>2026-04-05T09:29:52.812Z</time></trkpt><trkpt lat="43.5308356" lon="11.2124231"><ele>290.66666666666663</ele><time>2026-04-05T09:29:53.812Z</time></trkpt><trkpt lat="43.530758" lon="11.2121467"><ele>289.3333333333333</ele><time>2026-04-05T09:29:54.812Z</time></trkpt><trkpt lat="43.5306807" lon="11.2118621"><ele>288.0</ele><time>2026-04-05T09:29:55.812Z</time></trkpt><trkpt lat="43.5305969" lon="11.2115767"><ele>285.0</ele><time>2026-04-05T09:29:56.812Z</time></trkpt><trkpt lat="43.5304988" lon="11.2112938"><ele>282.0</ele><time>2026-04-05T09:29:57.812Z</time></trkpt><trkpt lat="43.5303863" lon="11.211014"><ele>286.0</ele><time>2026-04-05T09:29:58.812Z</time></trkpt><trkpt lat="43.5302643" lon="11.2107332"><ele>290.0</ele><time>2026-04-05T09:29:59.812Z</time></trkpt><trkpt lat="43.5301317" lon="11.2104526"><ele>290.0</ele><time>2026-04-05T09:30:00.812Z</time></trkpt><trkpt lat="43.5299837" lon="11.2101841"><ele>290.0</ele><time>2026-04-05T09:30:01.812Z</time></trkpt><trkpt lat="43.5298251" lon="11.209923"><ele>289.5</ele><time>2026-04-05T09:30:02.812Z</time></trkpt><trkpt lat="43.5296575" lon="11.2096679"><ele>289.0</ele><time>2026-04-05T09:30:03.812Z</time></trkpt><trkpt lat="43.5294837" lon="11.209415"><ele>287.0</ele><time>2026-04-05T09:30:04.812Z</time></trkpt><trkpt lat="43.5293039" lon="11.209164"><ele>285.0</ele><time>2026-04-05T09:30:05.812Z</time></trkpt><trkpt lat="43.529126" lon="11.2089138"><ele>285.0</ele><time>2026-04-05T09:30:06.812Z</time></trkpt><trkpt lat="43.5289574" lon="11.2086542"><ele>285.0</ele><time>2026-04-05T09:30:07.812Z</time></trkpt><trkpt lat="43.5287972" lon="11.2083888"><ele>288.0</ele><time>2026-04-05T09:30:08.812Z</time></trkpt><trkpt lat="43.5286471" lon="11.2081164"><ele>291.0</ele><time>2026-04-05T09:30:09.812Z</time></trkpt><trkpt lat="43.5285088" lon="11.2078349"><ele>291.0</ele><time>2026-04-05T09:30:10.812Z</time></trkpt><trkpt lat="43.5283773" lon="11.2075488"><ele>291.0</ele><time>2026-04-05T09:30:11.812Z</time></trkpt><trkpt lat="43.5282507" lon="11.2072578"><ele>292.5</ele><time>2026-04-05T09:30:12.812Z</time></trkpt><trkpt lat="43.5281272" lon="11.2069668"><ele>294.0</ele><time>2026-04-05T09:30:13.812Z</time></trkpt><trkpt lat="43.528004" lon="11.2066729"><ele>294.0</ele><time>2026-04-05T09:30:14.812Z</time></trkpt><trkpt lat="43.5278769" lon="11.2063839"><ele>294.0</ele><time>2026-04-05T09:30:15.812Z</time></trkpt><trkpt lat="43.5277495" lon="11.2060952"><ele>294.0</ele><time>2026-04-05T09:30:16.811Z</time></trkpt><trkpt lat="43.5276216" lon="11.2058033"><ele>294.0</ele><time>2026-04-05T09:30:17.812Z</time></trkpt><trkpt lat="43.5274927" lon="11.2055095"><ele>289.5</ele><time>2026-04-05T09:30:18.812Z</time></trkpt><trkpt lat="43.5273654" lon="11.2052077"><ele>285.0</ele><time>2026-04-05T09:30:19.812Z</time></trkpt><trkpt lat="43.5272381" lon="11.2049047"><ele>281.5</ele><time>2026-04-05T09:30:20.812Z</time></trkpt><trkpt lat="43.5271109" lon="11.2045996"><ele>278.0</ele><time>2026-04-05T09:30:21.812Z</time></trkpt><trkpt lat="43.5269819" lon="11.2042926"><ele>283.5</ele><time>2026-04-05T09:30:22.812Z</time></trkpt><trkpt lat="43.5268492" lon="11.2039887"><ele>289.0</ele><time>2026-04-05T09:30:23.812Z</time></trkpt><trkpt lat="43.5267112" lon="11.2036869"><ele>289.0</ele><time>2026-04-05T09:30:24.812Z</time></trkpt><trkpt lat="43.5265682" lon="11.2033866"><ele>289.0</ele><time>2026-04-05T09:30:25.812Z</time></trkpt><trkpt lat="43.5264166" lon="11.2030915"><ele>289.5</ele><time>2026-04-05T09:30:26.812Z</time></trkpt><trkpt lat="43.5262584" lon="11.2028035"><ele>290.0</ele><time>2026-04-05T09:30:27.812Z</time></trkpt><trkpt lat="43.5260939" lon="11.2025198"><ele>290.5</ele><time>2026-04-05T09:30:28.812Z</time></trkpt><trkpt lat="43.5259316" lon="11.2022409"><ele>291.0</ele><time>2026-04-05T09:30:29.812Z</time></trkpt><trkpt lat="43.5257719" lon="11.2019821"><ele>291.0</ele><time>2026-04-05T09:30:30.812Z</time></trkpt><trkpt lat="43.5256184" lon="11.2017522"><ele>291.0</ele><time>2026-04-05T09:30:31.812Z</time></trkpt><trkpt lat="43.5254819" lon="11.201549"><ele>291.0</ele><time>2026-04-05T09:30:32.812Z</time></trkpt><trkpt lat="43.5253449" lon="11.2013568"><ele>288.0</ele><time>2026-04-05T09:30:33.812Z</time></trkpt><trkpt lat="43.5251971" lon="11.2011622"><ele>285.0</ele><time>2026-04-05T09:30:34.812Z</time></trkpt><trkpt lat="43.5250415" lon="11.2009688"><ele>282.0</ele><time>2026-04-05T09:30:35.812Z</time></trkpt><trkpt lat="43.5248788" lon="11.2007729"><ele>282.5</ele><time>2026-04-05T09:30:36.811Z</time></trkpt><trkpt lat="43.5247039" lon="11.2005819"><ele>283.0</ele><time>2026-04-05T09:30:37.812Z</time></trkpt><trkpt lat="43.5245206" lon="11.2003883"><ele>280.5</ele><time>2026-04-05T09:30:38.812Z</time></trkpt><trkpt lat="43.5243293" lon="11.2001959"><ele>278.0</ele><time>2026-04-05T09:30:39.812Z</time></trkpt><trkpt lat="43.5241345" lon="11.2000073"><ele>276.5</ele><time>2026-04-05T09:30:40.812Z</time></trkpt><trkpt lat="43.5239342" lon="11.1998215"><ele>275.0</ele><time>2026-04-05T09:30:41.812Z</time></trkpt><trkpt lat="43.5237278" lon="11.19964"><ele>273.5</ele><time>2026-04-05T09:30:42.812Z</time></trkpt><trkpt lat="43.5235164" lon="11.1994687"><ele>272.0</ele><time>2026-04-05T09:30:43.812Z</time></trkpt><trkpt lat="43.5233006" lon="11.1993064"><ele>272.0</ele><time>2026-04-05T09:30:44.812Z</time></trkpt><trkpt lat="43.5230876" lon="11.1991534"><ele>272.0</ele><time>2026-04-05T09:30:45.812Z</time></trkpt><trkpt lat="43.52288" lon="11.1990093"><ele>270.6666666666667</ele><time>2026-04-05T09:30:46.812Z</time></trkpt><trkpt lat="43.5226754" lon="11.1988823"><ele>269.3333333333333</ele><time>2026-04-05T09:30:47.812Z</time></trkpt><trkpt lat="43.5224789" lon="11.1987658"><ele>268.0</ele><time>2026-04-05T09:30:48.812Z</time></trkpt><trkpt lat="43.5222768" lon="11.1986528"><ele>268.0</ele><time>2026-04-05T09:30:49.812Z</time></trkpt><trkpt lat="43.5220733" lon="11.1985408"><ele>268.0</ele><time>2026-04-05T09:30:50.812Z</time></trkpt><trkpt lat="43.5218694" lon="11.1984308"><ele>268.0</ele><time>2026-04-05T09:30:51.812Z</time></trkpt><trkpt lat="43.5216603" lon="11.1983197"><ele>269.5</ele><time>2026-04-05T09:30:52.812Z</time></trkpt><trkpt lat="43.5214481" lon="11.1982093"><ele>271.0</ele><time>2026-04-05T09:30:53.812Z</time></trkpt><trkpt lat="43.5212348" lon="11.1980972"><ele>266.5</ele><time>2026-04-05T09:30:54.812Z</time></trkpt><trkpt lat="43.5210243" lon="11.197982"><ele>262.0</ele><time>2026-04-05T09:30:55.812Z</time></trkpt><trkpt lat="43.5208125" lon="11.1978678"><ele>262.0</ele><time>2026-04-05T09:30:56.812Z</time></trkpt><trkpt lat="43.5205999" lon="11.197754"><ele>262.0</ele><time>2026-04-05T09:30:57.812Z</time></trkpt><trkpt lat="43.5203843" lon="11.1976367"><ele>264.5</ele><time>2026-04-05T09:30:58.812Z</time></trkpt><trkpt lat="43.5201711" lon="11.197512"><ele>267.0</ele><time>2026-04-05T09:30:59.812Z</time></trkpt><trkpt lat="43.519958" lon="11.197393"><ele>262.5</ele><time>2026-04-05T09:31:00.812Z</time></trkpt><trkpt lat="43.5197373" lon="11.1973022"><ele>258.0</ele><time>2026-04-05T09:31:01.812Z</time></trkpt><trkpt lat="43.5195167" lon="11.1972277"><ele>257.3333333333333</ele><time>2026-04-05T09:31:02.812Z</time></trkpt><trkpt lat="43.519301" lon="11.1971707"><ele>256.66666666666663</ele><time>2026-04-05T09:31:03.812Z</time></trkpt><trkpt lat="43.5190932" lon="11.1971227"><ele>256.0</ele><time>2026-04-05T09:31:04.812Z</time></trkpt><trkpt lat="43.5188833" lon="11.197081"><ele>255.66666666666666</ele><time>2026-04-05T09:31:05.812Z</time></trkpt><trkpt lat="43.518666" lon="11.1970483"><ele>255.33333333333331</ele><time>2026-04-05T09:31:06.812Z</time></trkpt><trkpt lat="43.5184474" lon="11.1970273"><ele>255.0</ele><time>2026-04-05T09:31:07.812Z</time></trkpt><trkpt lat="43.5182288" lon="11.1970168"><ele>255.0</ele><time>2026-04-05T09:31:08.812Z</time></trkpt><trkpt lat="43.5180107" lon="11.1970076"><ele>255.0</ele><time>2026-04-05T09:31:09.812Z</time></trkpt><trkpt lat="43.5177894" lon="11.1970013"><ele>255.0</ele><time>2026-04-05T09:31:10.812Z</time></trkpt><trkpt lat="43.5175652" lon="11.1969947"><ele>254.33333333333331</ele><time>2026-04-05T09:31:11.812Z</time></trkpt><trkpt lat="43.5173399" lon="11.1969884"><ele>253.66666666666666</ele><time>2026-04-05T09:31:12.812Z</time></trkpt><trkpt lat="43.5171208" lon="11.1969774"><ele>253.0</ele><time>2026-04-05T09:31:13.812Z</time></trkpt><trkpt lat="43.5169085" lon="11.1969654"><ele>250.66666666666666</ele><time>2026-04-05T09:31:14.812Z</time></trkpt><trkpt lat="43.5167008" lon="11.1969493"><ele>248.33333333333331</ele><time>2026-04-05T09:31:15.812Z</time></trkpt><trkpt lat="43.5164955" lon="11.1969303"><ele>246.0</ele><time>2026-04-05T09:31:16.812Z</time></trkpt><trkpt lat="43.51629" lon="11.1969047"><ele>242.0</ele><time>2026-04-05T09:31:17.812Z</time></trkpt><trkpt lat="43.5160798" lon="11.1968686"><ele>238.0</ele><time>2026-04-05T09:31:18.812Z</time></trkpt><trkpt lat="43.5158719" lon="11.1968149"><ele>234.0</ele><time>2026-04-05T09:31:19.812Z</time></trkpt><trkpt lat="43.5156728" lon="11.1967424"><ele>234.0</ele><time>2026-04-05T09:31:20.812Z</time></trkpt><trkpt lat="43.5154798" lon="11.1966491"><ele>234.0</ele><time>2026-04-05T09:31:21.812Z</time></trkpt><trkpt lat="43.515287" lon="11.1965429"><ele>234.0</ele><time>2026-04-05T09:31:22.812Z</time></trkpt><trkpt lat="43.5150985" lon="11.1964236"><ele>232.0</ele><time>2026-04-05T09:31:23.812Z</time></trkpt><trkpt lat="43.5149173" lon="11.1962916"><ele>230.0</ele><time>2026-04-05T09:31:24.812Z</time></trkpt><trkpt lat="43.5147396" lon="11.1961482"><ele>228.0</ele><time>2026-04-05T09:31:25.812Z</time></trkpt><trkpt lat="43.514571" lon="11.1960035"><ele>231.0</ele><time>2026-04-05T09:31:26.812Z</time></trkpt><trkpt lat="43.5144089" lon="11.1958478"><ele>234.0</ele><time>2026-04-05T09:31:27.812Z</time></trkpt><trkpt lat="43.5142513" lon="11.1956826"><ele>237.0</ele><time>2026-04-05T09:31:28.812Z</time></trkpt><trkpt lat="43.5140978" lon="11.1955012"><ele>237.0</ele><time>2026-04-05T09:31:29.812Z</time></trkpt><trkpt lat="43.5139504" lon="11.1953007"><ele>237.0</ele><time>2026-04-05T09:31:30.812Z</time></trkpt><trkpt lat="43.5138073" lon="11.195082"><ele>237.0</ele><time>2026-04-05T09:31:31.812Z</time></trkpt><trkpt lat="43.5136698" lon="11.1948501"><ele>237.33333333333331</ele><time>2026-04-05T09:31:32.811Z</time></trkpt><trkpt lat="43.5135397" lon="11.1945997"><ele>237.66666666666666</ele><time>2026-04-05T09:31:33.812Z</time></trkpt><trkpt lat="43.5134202" lon="11.1943358"><ele>238.0</ele><time>2026-04-05T09:31:34.812Z</time></trkpt><trkpt lat="43.5133043" lon="11.1940654"><ele>233.0</ele><time>2026-04-05T09:31:35.812Z</time></trkpt><trkpt lat="43.5131913" lon="11.1937916"><ele>228.0</ele><time>2026-04-05T09:31:36.812Z</time></trkpt><trkpt lat="43.5130725" lon="11.1935293"><ele>228.0</ele><time>2026-04-05T09:31:37.812Z</time></trkpt><trkpt lat="43.5129416" lon="11.1932779"><ele>228.0</ele><time>2026-04-05T09:31:38.812Z</time></trkpt><trkpt lat="43.5127948" lon="11.1930347"><ele>228.0</ele><time>2026-04-05T09:31:39.812Z</time></trkpt><trkpt lat="43.5126373" lon="11.1927979"><ele>228.0</ele><time>2026-04-05T09:31:40.812Z</time></trkpt><trkpt lat="43.5124709" lon="11.1925651"><ele>228.0</ele><time>2026-04-05T09:31:41.812Z</time></trkpt><trkpt lat="43.5122911" lon="11.1923426"><ele>228.0</ele><time>2026-04-05T09:31:42.812Z</time></trkpt><trkpt lat="43.5121006" lon="11.1921327"><ele>226.0</ele><time>2026-04-05T09:31:43.812Z</time></trkpt><trkpt lat="43.5119004" lon="11.1919338"><ele>224.0</ele><time>2026-04-05T09:31:44.812Z</time></trkpt><trkpt lat="43.5116943" lon="11.1917423"><ele>224.0</ele><time>2026-04-05T09:31:45.812Z</time></trkpt><trkpt lat="43.5114854" lon="11.1915523"><ele>224.0</ele><time>2026-04-05T09:31:46.811Z</time></trkpt><trkpt lat="43.5112769" lon="11.1913633"><ele>220.0</ele><time>2026-04-05T09:31:47.812Z</time></trkpt><trkpt lat="43.5110646" lon="11.1911758"><ele>216.0</ele><time>2026-04-05T09:31:48.812Z</time></trkpt><trkpt lat="43.5108475" lon="11.1909987"><ele>216.0</ele><time>2026-04-05T09:31:49.813Z</time></trkpt><trkpt lat="43.5106247" lon="11.1908367"><ele>216.0</ele><time>2026-04-05T09:31:50.812Z</time></trkpt><trkpt lat="43.5103958" lon="11.1906872"><ele>212.5</ele><time>2026-04-05T09:31:51.812Z</time></trkpt><trkpt lat="43.5101625" lon="11.190549"><ele>209.0</ele><time>2026-04-05T09:31:52.811Z</time></trkpt><trkpt lat="43.5099245" lon="11.1904256"><ele>209.0</ele><time>2026-04-05T09:31:53.812Z</time></trkpt><trkpt lat="43.5096828" lon="11.1903133"><ele>209.0</ele><time>2026-04-05T09:31:54.811Z</time></trkpt><trkpt lat="43.5094383" lon="11.1902109"><ele>211.0</ele><time>2026-04-05T09:31:55.812Z</time></trkpt><trkpt lat="43.5091914" lon="11.1901186"><ele>213.0</ele><time>2026-04-05T09:31:56.812Z</time></trkpt><trkpt lat="43.5089416" lon="11.1900324"><ele>213.0</ele><time>2026-04-05T09:31:57.812Z</time></trkpt><trkpt lat="43.5086897" lon="11.1899534"><ele>213.0</ele><time>2026-04-05T09:31:58.812Z</time></trkpt><trkpt lat="43.5084354" lon="11.1898773"><ele>209.0</ele><time>2026-04-05T09:31:59.812Z</time></trkpt><trkpt lat="43.5081786" lon="11.1898012"><ele>205.0</ele><time>2026-04-05T09:32:00.812Z</time></trkpt><trkpt lat="43.5079229" lon="11.1897205"><ele>205.0</ele><time>2026-04-05T09:32:01.812Z</time></trkpt><trkpt lat="43.5076707" lon="11.189641"><ele>205.0</ele><time>2026-04-05T09:32:02.812Z</time></trkpt><trkpt lat="43.5074199" lon="11.1895674"><ele>205.0</ele><time>2026-04-05T09:32:03.812Z</time></trkpt><trkpt lat="43.5071726" lon="11.1894929"><ele>205.0</ele><time>2026-04-05T09:32:04.812Z</time></trkpt><trkpt lat="43.506926" lon="11.1894211"><ele>204.5</ele><time>2026-04-05T09:32:05.812Z</time></trkpt><trkpt lat="43.5066836" lon="11.1893502"><ele>204.0</ele><time>2026-04-05T09:32:06.812Z</time></trkpt><trkpt lat="43.5064441" lon="11.1892785"><ele>205.5</ele><time>2026-04-05T09:32:07.812Z</time></trkpt><trkpt lat="43.5062078" lon="11.1892028"><ele>207.0</ele><time>2026-04-05T09:32:08.812Z</time></trkpt><trkpt lat="43.5059744" lon="11.1891234"><ele>207.0</ele><time>2026-04-05T09:32:09.812Z</time></trkpt><trkpt lat="43.5057447" lon="11.1890367"><ele>207.0</ele><time>2026-04-05T09:32:10.812Z</time></trkpt><trkpt lat="43.5055154" lon="11.1889459"><ele>200.5</ele><time>2026-04-05T09:32:11.812Z</time></trkpt><trkpt lat="43.505287" lon="11.1888482"><ele>194.0</ele><time>2026-04-05T09:32:12.812Z</time></trkpt><trkpt lat="43.5050549" lon="11.1887432"><ele>194.0</ele><time>2026-04-05T09:32:13.812Z</time></trkpt><trkpt lat="43.5048219" lon="11.1886299"><ele>194.0</ele><time>2026-04-05T09:32:14.812Z</time></trkpt><trkpt lat="43.5045872" lon="11.1885173"><ele>195.5</ele><time>2026-04-05T09:32:15.812Z</time></trkpt><trkpt lat="43.5043486" lon="11.188404"><ele>197.0</ele><time>2026-04-05T09:32:16.812Z</time></trkpt><trkpt lat="43.5041069" lon="11.1882887"><ele>195.0</ele><time>2026-04-05T09:32:17.812Z</time></trkpt><trkpt lat="43.5038564" lon="11.1881758"><ele>193.0</ele><time>2026-04-05T09:32:18.812Z</time></trkpt><trkpt lat="43.5036019" lon="11.1880594"><ele>192.0</ele><time>2026-04-05T09:32:19.812Z</time></trkpt><trkpt lat="43.5033455" lon="11.1879369"><ele>191.0</ele><time>2026-04-05T09:32:20.812Z</time></trkpt><trkpt lat="43.5030948" lon="11.1878158"><ele>192.5</ele><time>2026-04-05T09:32:21.812Z</time></trkpt><trkpt lat="43.5028496" lon="11.187699"><ele>194.0</ele><time>2026-04-05T09:32:22.812Z</time></trkpt><trkpt lat="43.5026102" lon="11.1875839"><ele>194.0</ele><time>2026-04-05T09:32:23.812Z</time></trkpt><trkpt lat="43.5023785" lon="11.1874748"><ele>194.0</ele><time>2026-04-05T09:32:24.812Z</time></trkpt><trkpt lat="43.5021555" lon="11.1873704"><ele>188.5</ele><time>2026-04-05T09:32:25.812Z</time></trkpt><trkpt lat="43.5019421" lon="11.1872653"><ele>183.0</ele><time>2026-04-05T09:32:26.812Z</time></trkpt><trkpt lat="43.5017319" lon="11.187155"><ele>183.0</ele><time>2026-04-05T09:32:27.812Z</time></trkpt><trkpt lat="43.5015264" lon="11.1870279"><ele>183.0</ele><time>2026-04-05T09:32:28.811Z</time></trkpt><trkpt lat="43.5013241" lon="11.1868794"><ele>185.5</ele><time>2026-04-05T09:32:29.812Z</time></trkpt><trkpt lat="43.5011277" lon="11.1867181"><ele>188.0</ele><time>2026-04-05T09:32:30.812Z</time></trkpt><trkpt lat="43.5009342" lon="11.18654"><ele>185.5</ele><time>2026-04-05T09:32:31.812Z</time></trkpt><trkpt lat="43.5007422" lon="11.1863501"><ele>183.0</ele><time>2026-04-05T09:32:32.812Z</time></trkpt><trkpt lat="43.5005557" lon="11.1861439"><ele>182.5</ele><time>2026-04-05T09:32:33.812Z</time></trkpt><trkpt lat="43.5003771" lon="11.1859169"><ele>182.0</ele><time>2026-04-05T09:32:34.812Z</time></trkpt><trkpt lat="43.5002056" lon="11.185672"><ele>182.0</ele><time>2026-04-05T09:32:35.812Z</time></trkpt><trkpt lat="43.5000435" lon="11.1854145"><ele>182.0</ele><time>2026-04-05T09:32:36.812Z</time></trkpt><trkpt lat="43.4998879" lon="11.1851458"><ele>182.0</ele><time>2026-04-05T09:32:37.812Z</time></trkpt><trkpt lat="43.4997404" lon="11.1848648"><ele>182.0</ele><time>2026-04-05T09:32:38.812Z</time></trkpt><trkpt lat="43.4995918" lon="11.1845809"><ele>184.0</ele><time>2026-04-05T09:32:39.812Z</time></trkpt><trkpt lat="43.4994434" lon="11.184293"><ele>186.0</ele><time>2026-04-05T09:32:40.812Z</time></trkpt><trkpt lat="43.4992957" lon="11.1840049"><ele>182.0</ele><time>2026-04-05T09:32:41.812Z</time></trkpt><trkpt lat="43.499147" lon="11.183723"><ele>178.0</ele><time>2026-04-05T09:32:42.812Z</time></trkpt><trkpt lat="43.4990005" lon="11.1834383"><ele>178.5</ele><time>2026-04-05T09:32:43.812Z</time></trkpt><trkpt lat="43.4988539" lon="11.1831604"><ele>179.0</ele><time>2026-04-05T09:32:44.812Z</time></trkpt><trkpt lat="43.4987071" lon="11.1828864"><ele>179.0</ele><time>2026-04-05T09:32:45.812Z</time></trkpt><trkpt lat="43.4985595" lon="11.18262"><ele>179.0</ele><time>2026-04-05T09:32:46.812Z</time></trkpt><trkpt lat="43.4984085" lon="11.1823589"><ele>177.5</ele><time>2026-04-05T09:32:47.811Z</time></trkpt><trkpt lat="43.4982518" lon="11.1821054"><ele>176.0</ele><time>2026-04-05T09:32:48.812Z</time></trkpt><trkpt lat="43.498089" lon="11.1818555"><ele>176.0</ele><time>2026-04-05T09:32:49.812Z</time></trkpt><trkpt lat="43.497921" lon="11.1816139"><ele>176.0</ele><time>2026-04-05T09:32:50.812Z</time></trkpt><trkpt lat="43.4977463" lon="11.1813761"><ele>172.5</ele><time>2026-04-05T09:32:51.812Z</time></trkpt><trkpt lat="43.4975678" lon="11.1811438"><ele>169.0</ele><time>2026-04-05T09:32:52.812Z</time></trkpt><trkpt lat="43.4973861" lon="11.1809173"><ele>169.0</ele><time>2026-04-05T09:32:53.812Z</time></trkpt><trkpt lat="43.4971998" lon="11.1807036"><ele>169.0</ele><time>2026-04-05T09:32:54.812Z</time></trkpt><trkpt lat="43.497009" lon="11.1805022"><ele>168.0</ele><time>2026-04-05T09:32:55.812Z</time></trkpt><trkpt lat="43.4968181" lon="11.1803119"><ele>167.0</ele><time>2026-04-05T09:32:56.812Z</time></trkpt><trkpt lat="43.4966266" lon="11.180129"><ele>167.0</ele><time>2026-04-05T09:32:57.812Z</time></trkpt><trkpt lat="43.4964336" lon="11.1799566"><ele>167.0</ele><time>2026-04-05T09:32:58.812Z</time></trkpt><trkpt lat="43.4962376" lon="11.179795"><ele>164.5</ele><time>2026-04-05T09:32:59.812Z</time></trkpt><trkpt lat="43.4960389" lon="11.1796439"><ele>162.0</ele><time>2026-04-05T09:33:00.811Z</time></trkpt><trkpt lat="43.4958391" lon="11.179498"><ele>162.0</ele><time>2026-04-05T09:33:01.812Z</time></trkpt><trkpt lat="43.4956405" lon="11.1793576"><ele>162.0</ele><time>2026-04-05T09:33:02.811Z</time></trkpt><trkpt lat="43.4954373" lon="11.1792257"><ele>162.0</ele><time>2026-04-05T09:33:03.812Z</time></trkpt><trkpt lat="43.495232" lon="11.1791006"><ele>161.33333333333334</ele><time>2026-04-05T09:33:04.812Z</time></trkpt><trkpt lat="43.4950265" lon="11.1789799"><ele>160.66666666666669</ele><time>2026-04-05T09:33:05.812Z</time></trkpt><trkpt lat="43.4948187" lon="11.1788671"><ele>160.0</ele><time>2026-04-05T09:33:06.812Z</time></trkpt><trkpt lat="43.4946089" lon="11.178753"><ele>158.33333333333334</ele><time>2026-04-05T09:33:07.812Z</time></trkpt><trkpt lat="43.4943979" lon="11.1786363"><ele>156.66666666666666</ele><time>2026-04-05T09:33:08.812Z</time></trkpt><trkpt lat="43.4941925" lon="11.1785203"><ele>155.0</ele><time>2026-04-05T09:33:09.812Z</time></trkpt><trkpt lat="43.4939951" lon="11.1783958"><ele>155.0</ele><time>2026-04-05T09:33:10.812Z</time></trkpt><trkpt lat="43.4938" lon="11.1782566"><ele>155.0</ele><time>2026-04-05T09:33:11.812Z</time></trkpt><trkpt lat="43.4936092" lon="11.1781063"><ele>155.0</ele><time>2026-04-05T09:33:12.812Z</time></trkpt><trkpt lat="43.4934238" lon="11.1779406"><ele>155.0</ele><time>2026-04-05T09:33:13.812Z</time></trkpt><trkpt lat="43.4932386" lon="11.1777641"><ele>155.0</ele><time>2026-04-05T09:33:14.812Z</time></trkpt><trkpt lat="43.4930558" lon="11.1775749"><ele>154.5</ele><time>2026-04-05T09:33:15.811Z</time></trkpt><trkpt lat="43.4928745" lon="11.1773736"><ele>154.0</ele><time>2026-04-05T09:33:16.812Z</time></trkpt><trkpt lat="43.4926992" lon="11.177156"><ele>156.0</ele><time>2026-04-05T09:33:17.812Z</time></trkpt><trkpt lat="43.4925288" lon="11.1769249"><ele>158.0</ele><time>2026-04-05T09:33:18.812Z</time></trkpt><trkpt lat="43.4923631" lon="11.1766803"><ele>153.5</ele><time>2026-04-05T09:33:19.812Z</time></trkpt><trkpt lat="43.4922011" lon="11.176418"><ele>149.0</ele><time>2026-04-05T09:33:20.812Z</time></trkpt><trkpt lat="43.4920429" lon="11.1761458"><ele>149.0</ele><time>2026-04-05T09:33:21.812Z</time></trkpt><trkpt lat="43.491892" lon="11.1758589"><ele>149.0</ele><time>2026-04-05T09:33:22.812Z</time></trkpt><trkpt lat="43.4917439" lon="11.175566"><ele>149.0</ele><time>2026-04-05T09:33:23.811Z</time></trkpt><trkpt lat="43.4915927" lon="11.1752725"><ele>149.0</ele><time>2026-04-05T09:33:24.812Z</time></trkpt><trkpt lat="43.4914389" lon="11.1749809"><ele>151.0</ele><time>2026-04-05T09:33:25.812Z</time></trkpt><trkpt lat="43.4912832" lon="11.1746922"><ele>153.0</ele><time>2026-04-05T09:33:26.812Z</time></trkpt><trkpt lat="43.4911307" lon="11.1744011"><ele>147.5</ele><time>2026-04-05T09:33:27.812Z</time></trkpt><trkpt lat="43.4909772" lon="11.1741121"><ele>142.0</ele><time>2026-04-05T09:33:28.812Z</time></trkpt><trkpt lat="43.4908246" lon="11.1738243"><ele>141.5</ele><time>2026-04-05T09:33:29.812Z</time></trkpt><trkpt lat="43.4906778" lon="11.1735353"><ele>141.0</ele><time>2026-04-05T09:33:30.812Z</time></trkpt><trkpt lat="43.4905304" lon="11.1732455"><ele>139.5</ele><time>2026-04-05T09:33:31.812Z</time></trkpt><trkpt lat="43.4903823" lon="11.1729589"><ele>138.0</ele><time>2026-04-05T09:33:32.812Z</time></trkpt><trkpt lat="43.4902353" lon="11.1726724"><ele>138.0</ele><time>2026-04-05T09:33:33.812Z</time></trkpt><trkpt lat="43.4900884" lon="11.1723865"><ele>138.0</ele><time>2026-04-05T09:33:34.812Z</time></trkpt><trkpt lat="43.4899421" lon="11.1720985"><ele>139.5</ele><time>2026-04-05T09:33:35.812Z</time></trkpt><trkpt lat="43.4898018" lon="11.1718022"><ele>141.0</ele><time>2026-04-05T09:33:36.812Z</time></trkpt><trkpt lat="43.489667" lon="11.1714978"><ele>139.0</ele><time>2026-04-05T09:33:37.812Z</time></trkpt><trkpt lat="43.4895335" lon="11.1711839"><ele>137.0</ele><time>2026-04-05T09:33:38.812Z</time></trkpt><trkpt lat="43.4894023" lon="11.1708647"><ele>137.5</ele><time>2026-04-05T09:33:39.812Z</time></trkpt><trkpt lat="43.4892741" lon="11.1705345"><ele>138.0</ele><time>2026-04-05T09:33:40.811Z</time></trkpt><trkpt lat="43.4891501" lon="11.1702051"><ele>138.0</ele><time>2026-04-05T09:33:41.812Z</time></trkpt><trkpt lat="43.4890304" lon="11.1698705"><ele>138.0</ele><time>2026-04-05T09:33:42.812Z</time></trkpt><trkpt lat="43.4889186" lon="11.1695296"><ele>138.5</ele><time>2026-04-05T09:33:43.812Z</time></trkpt><trkpt lat="43.4888075" lon="11.1691892"><ele>139.0</ele><time>2026-04-05T09:33:44.812Z</time></trkpt><trkpt lat="43.4887024" lon="11.1688524"><ele>135.0</ele><time>2026-04-05T09:33:45.812Z</time></trkpt><trkpt lat="43.4886059" lon="11.1685124"><ele>131.0</ele><time>2026-04-05T09:33:46.812Z</time></trkpt><trkpt lat="43.4885153" lon="11.1681639"><ele>131.0</ele><time>2026-04-05T09:33:47.812Z</time></trkpt><trkpt lat="43.4884308" lon="11.1678057"><ele>131.0</ele><time>2026-04-05T09:33:48.812Z</time></trkpt><trkpt lat="43.4883495" lon="11.1674534"><ele>131.5</ele><time>2026-04-05T09:33:49.812Z</time></trkpt><trkpt lat="43.4882771" lon="11.1671063"><ele>132.0</ele><time>2026-04-05T09:33:50.812Z</time></trkpt><trkpt lat="43.4882118" lon="11.1667674"><ele>130.0</ele><time>2026-04-05T09:33:51.812Z</time></trkpt><trkpt lat="43.4881511" lon="11.1664359"><ele>128.0</ele><time>2026-04-05T09:33:52.812Z</time></trkpt><trkpt lat="43.4880961" lon="11.1661044"><ele>128.0</ele><time>2026-04-05T09:33:53.812Z</time></trkpt><trkpt lat="43.488044" lon="11.1657686"><ele>128.0</ele><time>2026-04-05T09:33:54.813Z</time></trkpt><trkpt lat="43.487994" lon="11.1654333"><ele>128.5</ele><time>2026-04-05T09:33:55.812Z</time></trkpt><trkpt lat="43.4879466" lon="11.1650981"><ele>129.0</ele><time>2026-04-05T09:33:56.812Z</time></trkpt><trkpt lat="43.4879024" lon="11.1647697"><ele>126.5</ele><time>2026-04-05T09:33:57.812Z</time></trkpt><trkpt lat="43.4878633" lon="11.1644535"><ele>124.0</ele><time>2026-04-05T09:33:58.812Z</time></trkpt><trkpt lat="43.4878207" lon="11.1641394"><ele>123.5</ele><time>2026-04-05T09:33:59.812Z</time></trkpt><trkpt lat="43.4877785" lon="11.1638296"><ele>123.0</ele><time>2026-04-05T09:34:00.812Z</time></trkpt><trkpt lat="43.4877376" lon="11.1635213"><ele>123.0</ele><time>2026-04-05T09:34:01.812Z</time></trkpt><trkpt lat="43.4877" lon="11.1632159"><ele>123.0</ele><time>2026-04-05T09:34:02.812Z</time></trkpt><trkpt lat="43.4876611" lon="11.1629122"><ele>123.0</ele><time>2026-04-05T09:34:03.812Z</time></trkpt><trkpt lat="43.4876242" lon="11.1626153"><ele>123.66666666666666</ele><time>2026-04-05T09:34:04.812Z</time></trkpt><trkpt lat="43.4875864" lon="11.1623162"><ele>124.33333333333333</ele><time>2026-04-05T09:34:05.812Z</time></trkpt><trkpt lat="43.4875482" lon="11.162019"><ele>125.0</ele><time>2026-04-05T09:34:06.811Z</time></trkpt><trkpt lat="43.4875089" lon="11.1617206"><ele>125.66666666666666</ele><time>2026-04-05T09:34:07.812Z</time></trkpt><trkpt lat="43.4874696" lon="11.1614231"><ele>126.33333333333334</ele><time>2026-04-05T09:34:08.812Z</time></trkpt><trkpt lat="43.4874281" lon="11.1611242"><ele>127.0</ele><time>2026-04-05T09:34:09.812Z</time></trkpt><trkpt lat="43.4873887" lon="11.160822"><ele>126.66666666666667</ele><time>2026-04-05T09:34:10.812Z</time></trkpt><trkpt lat="43.4873496" lon="11.1605202"><ele>126.33333333333334</ele><time>2026-04-05T09:34:11.812Z</time></trkpt><trkpt lat="43.4873096" lon="11.1602139"><ele>126.0</ele><time>2026-04-05T09:34:12.812Z</time></trkpt><trkpt lat="43.4872675" lon="11.1599028"><ele>126.0</ele><time>2026-04-05T09:34:13.812Z</time></trkpt><trkpt lat="43.487226" lon="11.1595914"><ele>126.0</ele><time>2026-04-05T09:34:14.812Z</time></trkpt><trkpt lat="43.487186" lon="11.159276"><ele>129.0</ele><time>2026-04-05T09:34:15.812Z</time></trkpt><trkpt lat="43.4871468" lon="11.1589572"><ele>132.0</ele><time>2026-04-05T09:34:16.812Z</time></trkpt><trkpt lat="43.487108" lon="11.1586354"><ele>126.5</ele><time>2026-04-05T09:34:17.812Z</time></trkpt><trkpt lat="43.4870655" lon="11.1583135"><ele>121.0</ele><time>2026-04-05T09:34:18.812Z</time></trkpt><trkpt lat="43.48702" lon="11.1579947"><ele>121.0</ele><time>2026-04-05T09:34:19.812Z</time></trkpt><trkpt lat="43.4869746" lon="11.1576811"><ele>121.0</ele><time>2026-04-05T09:34:20.812Z</time></trkpt><trkpt lat="43.4869333" lon="11.1573727"><ele>121.0</ele><time>2026-04-05T09:34:21.812Z</time></trkpt><trkpt lat="43.4868939" lon="11.1570715"><ele>121.0</ele><time>2026-04-05T09:34:22.812Z</time></trkpt><trkpt lat="43.4868565" lon="11.1567795"><ele>121.0</ele><time>2026-04-05T09:34:23.812Z</time></trkpt><trkpt lat="43.4868152" lon="11.1564876"><ele>120.66666666666667</ele><time>2026-04-05T09:34:24.812Z</time></trkpt><trkpt lat="43.4867686" lon="11.1561973"><ele>120.33333333333334</ele><time>2026-04-05T09:34:25.812Z</time></trkpt><trkpt lat="43.4867154" lon="11.1559182"><ele>120.0</ele><time>2026-04-05T09:34:26.812Z</time></trkpt><trkpt lat="43.4866545" lon="11.1556573"><ele>119.0</ele><time>2026-04-05T09:34:27.812Z</time></trkpt><trkpt lat="43.4865876" lon="11.155411"><ele>118.0</ele><time>2026-04-05T09:34:28.812Z</time></trkpt><trkpt lat="43.4865219" lon="11.1551778"><ele>117.0</ele><time>2026-04-05T09:34:29.812Z</time></trkpt><trkpt lat="43.4864558" lon="11.1549558"><ele>116.66666666666666</ele><time>2026-04-05T09:34:30.813Z</time></trkpt><trkpt lat="43.4863904" lon="11.1547472"><ele>116.33333333333333</ele><time>2026-04-05T09:34:31.812Z</time></trkpt><trkpt lat="43.4863231" lon="11.1545554"><ele>116.0</ele><time>2026-04-05T09:34:32.812Z</time></trkpt><trkpt lat="43.4862498" lon="11.1543742"><ele>115.25</ele><time>2026-04-05T09:34:33.812Z</time></trkpt><trkpt lat="43.4861759" lon="11.1542062"><ele>114.5</ele><time>2026-04-05T09:34:34.812Z</time></trkpt><trkpt lat="43.4861067" lon="11.1540424"><ele>113.75</ele><time>2026-04-05T09:34:35.812Z</time></trkpt><trkpt lat="43.4860515" lon="11.1538771"><ele>113.0</ele><time>2026-04-05T09:34:36.812Z</time></trkpt><trkpt lat="43.4860069" lon="11.1537124"><ele>113.0</ele><time>2026-04-05T09:34:37.812Z</time></trkpt><trkpt lat="43.4859728" lon="11.1535473"><ele>113.0</ele><time>2026-04-05T09:34:38.812Z</time></trkpt><trkpt lat="43.4859497" lon="11.1533852"><ele>113.0</ele><time>2026-04-05T09:34:39.812Z</time></trkpt><trkpt lat="43.4859388" lon="11.1532222"><ele>113.0</ele><time>2026-04-05T09:34:40.812Z</time></trkpt><trkpt lat="43.485932" lon="11.1530632"><ele>112.2</ele><time>2026-04-05T09:34:41.812Z</time></trkpt><trkpt lat="43.4859302" lon="11.1529046"><ele>111.4</ele><time>2026-04-05T09:34:42.812Z</time></trkpt><trkpt lat="43.4859382" lon="11.152753"><ele>110.60000000000001</ele><time>2026-04-05T09:34:43.813Z</time></trkpt><trkpt lat="43.4859525" lon="11.152608"><ele>109.80000000000001</ele><time>2026-04-05T09:34:44.812Z</time></trkpt><trkpt lat="43.4859745" lon="11.1524533"><ele>109.0</ele><time>2026-04-05T09:34:45.812Z</time></trkpt><trkpt lat="43.4860088" lon="11.1522896"><ele>108.5</ele><time>2026-04-05T09:34:46.812Z</time></trkpt><trkpt lat="43.4860533" lon="11.152118"><ele>108.0</ele><time>2026-04-05T09:34:47.811Z</time></trkpt><trkpt lat="43.4861047" lon="11.151943"><ele>107.5</ele><time>2026-04-05T09:34:48.812Z</time></trkpt><trkpt lat="43.4861672" lon="11.1517644"><ele>107.0</ele><time>2026-04-05T09:34:49.811Z</time></trkpt><trkpt lat="43.4862442" lon="11.1515818"><ele>107.0</ele><time>2026-04-05T09:34:50.812Z</time></trkpt><trkpt lat="43.4863324" lon="11.1514045"><ele>107.0</ele><time>2026-04-05T09:34:51.812Z</time></trkpt><trkpt lat="43.4864263" lon="11.1512482"><ele>107.0</ele><time>2026-04-05T09:34:52.812Z</time></trkpt><trkpt lat="43.4865185" lon="11.1511092"><ele>107.0</ele><time>2026-04-05T09:34:53.812Z</time></trkpt><trkpt lat="43.4866026" lon="11.1509803"><ele>107.0</ele><time>2026-04-05T09:34:54.812Z</time></trkpt><trkpt lat="43.4866753" lon="11.1508531"><ele>106.99999999999999</ele><time>2026-04-05T09:34:55.812Z</time></trkpt><trkpt lat="43.4867263" lon="11.1507174"><ele>106.99999999999999</ele><time>2026-04-05T09:34:56.812Z</time></trkpt><trkpt lat="43.4867456" lon="11.1505775"><ele>107.0</ele><time>2026-04-05T09:34:57.812Z</time></trkpt><trkpt lat="43.4867346" lon="11.1504433"><ele>107.0</ele><time>2026-04-05T09:34:58.812Z</time></trkpt><trkpt lat="43.4866941" lon="11.1503037"><ele>107.0</ele><time>2026-04-05T09:34:59.812Z</time></trkpt><trkpt lat="43.4866402" lon="11.1501763"><ele>106.99999999999999</ele><time>2026-04-05T09:35:00.812Z</time></trkpt><trkpt lat="43.4865906" lon="11.1500491"><ele>106.99999999999999</ele><time>2026-04-05T09:35:01.812Z</time></trkpt><trkpt lat="43.4865577" lon="11.149906"><ele>107.0</ele><time>2026-04-05T09:35:02.812Z</time></trkpt><trkpt lat="43.4865308" lon="11.1497489"><ele>107.0</ele><time>2026-04-05T09:35:03.812Z</time></trkpt><trkpt lat="43.4865156" lon="11.1495719"><ele>107.0</ele><time>2026-04-05T09:35:04.812Z</time></trkpt><trkpt lat="43.4865127" lon="11.1493825"><ele>107.0</ele><time>2026-04-05T09:35:05.812Z</time></trkpt><trkpt lat="43.4865145" lon="11.1491869"><ele>107.0</ele><time>2026-04-05T09:35:06.812Z</time></trkpt><trkpt lat="43.4865172" lon="11.1489871"><ele>107.0</ele><time>2026-04-05T09:35:07.812Z</time></trkpt><trkpt lat="43.4865144" lon="11.1487892"><ele>106.75</ele><time>2026-04-05T09:35:08.812Z</time></trkpt><trkpt lat="43.4865055" lon="11.1485921"><ele>106.5</ele><time>2026-04-05T09:35:09.812Z</time></trkpt><trkpt lat="43.4864911" lon="11.1484007"><ele>106.25</ele><time>2026-04-05T09:35:10.812Z</time></trkpt><trkpt lat="43.4864714" lon="11.1482119"><ele>106.0</ele><time>2026-04-05T09:35:11.812Z</time></trkpt><trkpt lat="43.4864431" lon="11.1480129"><ele>105.66666666666667</ele><time>2026-04-05T09:35:12.812Z</time></trkpt><trkpt lat="43.4864092" lon="11.1478127"><ele>105.33333333333334</ele><time>2026-04-05T09:35:13.812Z</time></trkpt><trkpt lat="43.486373" lon="11.14761"><ele>105.0</ele><time>2026-04-05T09:35:14.812Z</time></trkpt><trkpt lat="43.4863247" lon="11.1473972"><ele>105.33333333333334</ele><time>2026-04-05T09:35:15.812Z</time></trkpt><trkpt lat="43.4862638" lon="11.1471751"><ele>105.66666666666667</ele><time>2026-04-05T09:35:16.812Z</time></trkpt><trkpt lat="43.4861901" lon="11.1469481"><ele>106.0</ele><time>2026-04-05T09:35:17.812Z</time></trkpt><trkpt lat="43.4861039" lon="11.1467149"><ele>106.0</ele><time>2026-04-05T09:35:18.812Z</time></trkpt><trkpt lat="43.4860009" lon="11.1464699"><ele>106.0</ele><time>2026-04-05T09:35:19.812Z</time></trkpt><trkpt lat="43.4858821" lon="11.1462261"><ele>106.0</ele><time>2026-04-05T09:35:20.811Z</time></trkpt><trkpt lat="43.4857572" lon="11.1459952"><ele>106.0</ele><time>2026-04-05T09:35:21.812Z</time></trkpt><trkpt lat="43.4856366" lon="11.1457753"><ele>106.0</ele><time>2026-04-05T09:35:22.812Z</time></trkpt><trkpt lat="43.4855135" lon="11.1455573"><ele>106.0</ele><time>2026-04-05T09:35:23.811Z</time></trkpt><trkpt lat="43.4853912" lon="11.1453364"><ele>105.33333333333334</ele><time>2026-04-05T09:35:24.812Z</time></trkpt><trkpt lat="43.4852718" lon="11.1451149"><ele>104.66666666666666</ele><time>2026-04-05T09:35:25.812Z</time></trkpt><trkpt lat="43.4851526" lon="11.1448959"><ele>104.0</ele><time>2026-04-05T09:35:26.812Z</time></trkpt><trkpt lat="43.4850312" lon="11.1446769"><ele>104.0</ele><time>2026-04-05T09:35:27.811Z</time></trkpt><trkpt lat="43.4849093" lon="11.1444543"><ele>104.0</ele><time>2026-04-05T09:35:28.812Z</time></trkpt><trkpt lat="43.4847862" lon="11.1442343"><ele>104.0</ele><time>2026-04-05T09:35:29.812Z</time></trkpt><trkpt lat="43.4846602" lon="11.1440047"><ele>103.33333333333333</ele><time>2026-04-05T09:35:30.812Z</time></trkpt><trkpt lat="43.4845288" lon="11.1437722"><ele>102.66666666666666</ele><time>2026-04-05T09:35:31.812Z</time></trkpt><trkpt lat="43.48439" lon="11.1435342"><ele>102.0</ele><time>2026-04-05T09:35:32.812Z</time></trkpt><trkpt lat="43.4842522" lon="11.1432883"><ele>102.66666666666666</ele><time>2026-04-05T09:35:33.812Z</time></trkpt><trkpt lat="43.4841203" lon="11.1430443"><ele>103.33333333333333</ele><time>2026-04-05T09:35:34.812Z</time></trkpt><trkpt lat="43.4839957" lon="11.142799"><ele>104.0</ele><time>2026-04-05T09:35:35.812Z</time></trkpt><trkpt lat="43.4838771" lon="11.1425608"><ele>104.33333333333333</ele><time>2026-04-05T09:35:36.812Z</time></trkpt><trkpt lat="43.4837667" lon="11.1423283"><ele>104.66666666666666</ele><time>2026-04-05T09:35:37.812Z</time></trkpt><trkpt lat="43.4836628" lon="11.1420882"><ele>105.0</ele><time>2026-04-05T09:35:38.812Z</time></trkpt><trkpt lat="43.4835588" lon="11.1418426"><ele>104.33333333333334</ele><time>2026-04-05T09:35:39.812Z</time></trkpt><trkpt lat="43.4834629" lon="11.1415931"><ele>103.66666666666667</ele><time>2026-04-05T09:35:40.812Z</time></trkpt><trkpt lat="43.4833742" lon="11.1413304"><ele>103.0</ele><time>2026-04-05T09:35:41.812Z</time></trkpt><trkpt lat="43.4832934" lon="11.1410572"><ele>103.0</ele><time>2026-04-05T09:35:42.812Z</time></trkpt><trkpt lat="43.4832241" lon="11.1407709"><ele>103.0</ele><time>2026-04-05T09:35:43.812Z</time></trkpt><trkpt lat="43.4831616" lon="11.1404734"><ele>103.0</ele><time>2026-04-05T09:35:44.811Z</time></trkpt><trkpt lat="43.4831057" lon="11.1401761"><ele>103.66666666666667</ele><time>2026-04-05T09:35:45.812Z</time></trkpt><trkpt lat="43.4830554" lon="11.1398761"><ele>104.33333333333334</ele><time>2026-04-05T09:35:46.812Z</time></trkpt><trkpt lat="43.483013" lon="11.1395762"><ele>105.0</ele><time>2026-04-05T09:35:47.812Z</time></trkpt><trkpt lat="43.4829802" lon="11.1392772"><ele>104.66666666666666</ele><time>2026-04-05T09:35:48.812Z</time></trkpt><trkpt lat="43.4829523" lon="11.1389753"><ele>104.33333333333333</ele><time>2026-04-05T09:35:49.812Z</time></trkpt><trkpt lat="43.4829277" lon="11.1386719"><ele>104.0</ele><time>2026-04-05T09:35:50.812Z</time></trkpt><trkpt lat="43.4829037" lon="11.1383634"><ele>103.5</ele><time>2026-04-05T09:35:51.812Z</time></trkpt><trkpt lat="43.4828797" lon="11.1380468"><ele>103.0</ele><time>2026-04-05T09:35:52.812Z</time></trkpt><trkpt lat="43.4828586" lon="11.1377243"><ele>103.0</ele><time>2026-04-05T09:35:53.812Z</time></trkpt><trkpt lat="43.4828387" lon="11.1373959"><ele>103.0</ele><time>2026-04-05T09:35:54.812Z</time></trkpt><trkpt lat="43.4828186" lon="11.1370654"><ele>103.5</ele><time>2026-04-05T09:35:55.812Z</time></trkpt><trkpt lat="43.482797" lon="11.1367315"><ele>104.0</ele><time>2026-04-05T09:35:56.812Z</time></trkpt><trkpt lat="43.4827742" lon="11.1363962"><ele>104.0</ele><time>2026-04-05T09:35:57.812Z</time></trkpt><trkpt lat="43.4827531" lon="11.1360598"><ele>104.0</ele><time>2026-04-05T09:35:58.812Z</time></trkpt><trkpt lat="43.4827335" lon="11.135724"><ele>104.0</ele><time>2026-04-05T09:35:59.812Z</time></trkpt><trkpt lat="43.4827144" lon="11.1353871"><ele>104.0</ele><time>2026-04-05T09:36:00.811Z</time></trkpt><trkpt lat="43.4826942" lon="11.1350463"><ele>104.0</ele><time>2026-04-05T09:36:01.812Z</time></trkpt><trkpt lat="43.4826735" lon="11.1347043"><ele>104.0</ele><time>2026-04-05T09:36:02.812Z</time></trkpt><trkpt lat="43.4826504" lon="11.1343579"><ele>103.0</ele><time>2026-04-05T09:36:03.812Z</time></trkpt><trkpt lat="43.482628" lon="11.1340097"><ele>102.0</ele><time>2026-04-05T09:36:04.812Z</time></trkpt><trkpt lat="43.4826058" lon="11.1336612"><ele>102.0</ele><time>2026-04-05T09:36:05.812Z</time></trkpt><trkpt lat="43.4825849" lon="11.1333146"><ele>102.0</ele><time>2026-04-05T09:36:06.812Z</time></trkpt><trkpt lat="43.482564" lon="11.1329737"><ele>101.0</ele><time>2026-04-05T09:36:07.812Z</time></trkpt><trkpt lat="43.4825437" lon="11.1326316"><ele>100.0</ele><time>2026-04-05T09:36:08.811Z</time></trkpt><trkpt lat="43.4825218" lon="11.1322945"><ele>99.0</ele><time>2026-04-05T09:36:09.812Z</time></trkpt><trkpt lat="43.4825004" lon="11.1319569"><ele>98.0</ele><time>2026-04-05T09:36:10.812Z</time></trkpt><trkpt lat="43.4824799" lon="11.1316213"><ele>97.0</ele><time>2026-04-05T09:36:11.812Z</time></trkpt><trkpt lat="43.4824595" lon="11.1312943"><ele>96.0</ele><time>2026-04-05T09:36:12.812Z</time></trkpt><trkpt lat="43.4824399" lon="11.1309809"><ele>94.0</ele><time>2026-04-05T09:36:13.812Z</time></trkpt><trkpt lat="43.4824215" lon="11.1306754"><ele>92.0</ele><time>2026-04-05T09:36:14.813Z</time></trkpt><trkpt lat="43.4824023" lon="11.1303794"><ele>90.0</ele><time>2026-04-05T09:36:15.813Z</time></trkpt><trkpt lat="43.4823835" lon="11.1300959"><ele>89.0</ele><time>2026-04-05T09:36:16.813Z</time></trkpt><trkpt lat="43.4823662" lon="11.1298201"><ele>88.0</ele><time>2026-04-05T09:36:17.813Z</time></trkpt><trkpt lat="43.4823484" lon="11.1295418"><ele>87.0</ele><time>2026-04-05T09:36:18.813Z</time></trkpt><trkpt lat="43.482333" lon="11.1292645"><ele>86.0</ele><time>2026-04-05T09:36:19.813Z</time></trkpt><trkpt lat="43.4823187" lon="11.1289904"><ele>85.0</ele><time>2026-04-05T09:36:20.813Z</time></trkpt><trkpt lat="43.4823084" lon="11.1287192"><ele>84.0</ele><time>2026-04-05T09:36:21.813Z</time></trkpt><trkpt lat="43.4823002" lon="11.1284456"><ele>84.33333333333333</ele><time>2026-04-05T09:36:22.813Z</time></trkpt><trkpt lat="43.482294" lon="11.1281669"><ele>84.66666666666666</ele><time>2026-04-05T09:36:23.813Z</time></trkpt><trkpt lat="43.4822901" lon="11.127877"><ele>85.0</ele><time>2026-04-05T09:36:24.813Z</time></trkpt><trkpt lat="43.4822873" lon="11.1275855"><ele>85.33333333333333</ele><time>2026-04-05T09:36:25.813Z</time></trkpt><trkpt lat="43.4822873" lon="11.1273054"><ele>85.66666666666667</ele><time>2026-04-05T09:36:26.813Z</time></trkpt><trkpt lat="43.4822931" lon="11.1270273"><ele>86.0</ele><time>2026-04-05T09:36:27.812Z</time></trkpt><trkpt lat="43.4823005" lon="11.1267484"><ele>86.0</ele><time>2026-04-05T09:36:28.813Z</time></trkpt><trkpt lat="43.4823088" lon="11.1264818"><ele>86.0</ele><time>2026-04-05T09:36:29.813Z</time></trkpt><trkpt lat="43.482312" lon="11.1262247"><ele>86.0</ele><time>2026-04-05T09:36:30.813Z</time></trkpt><trkpt lat="43.4823145" lon="11.1259839"><ele>86.0</ele><time>2026-04-05T09:36:31.813Z</time></trkpt><trkpt lat="43.4823236" lon="11.1257568"><ele>86.0</ele><time>2026-04-05T09:36:32.813Z</time></trkpt><trkpt lat="43.4823467" lon="11.1255522"><ele>86.0</ele><time>2026-04-05T09:36:33.813Z</time></trkpt><trkpt lat="43.4823831" lon="11.125376"><ele>86.0</ele><time>2026-04-05T09:36:34.813Z</time></trkpt><trkpt lat="43.482436" lon="11.1252207"><ele>86.0</ele><time>2026-04-05T09:36:35.813Z</time></trkpt><trkpt lat="43.4825103" lon="11.1250839"><ele>86.0</ele><time>2026-04-05T09:36:36.813Z</time></trkpt><trkpt lat="43.4826051" lon="11.1249709"><ele>86.0</ele><time>2026-04-05T09:36:37.813Z</time></trkpt><trkpt lat="43.4827184" lon="11.1248844"><ele>86.0</ele><time>2026-04-05T09:36:38.813Z</time></trkpt><trkpt lat="43.4828375" lon="11.12483"><ele>86.0</ele><time>2026-04-05T09:36:39.813Z</time></trkpt><trkpt lat="43.4829612" lon="11.1248076"><ele>86.0</ele><time>2026-04-05T09:36:40.813Z</time></trkpt><trkpt lat="43.4830813" lon="11.1248179"><ele>86.0</ele><time>2026-04-05T09:36:41.813Z</time></trkpt><trkpt lat="43.4832014" lon="11.1248582"><ele>86.0</ele><time>2026-04-05T09:36:42.812Z</time></trkpt><trkpt lat="43.4833149" lon="11.1249339"><ele>85.5</ele><time>2026-04-05T09:36:43.813Z</time></trkpt><trkpt lat="43.4834195" lon="11.1250354"><ele>85.0</ele><time>2026-04-05T09:36:44.813Z</time></trkpt><trkpt lat="43.4835096" lon="11.1251651"><ele>84.5</ele><time>2026-04-05T09:36:45.813Z</time></trkpt><trkpt lat="43.483577" lon="11.125317"><ele>84.0</ele><time>2026-04-05T09:36:46.812Z</time></trkpt><trkpt lat="43.4836198" lon="11.125485"><ele>84.0</ele><time>2026-04-05T09:36:47.813Z</time></trkpt><trkpt lat="43.4836386" lon="11.1256639"><ele>84.0</ele><time>2026-04-05T09:36:48.813Z</time></trkpt><trkpt lat="43.4836307" lon="11.1258443"><ele>84.0</ele><time>2026-04-05T09:36:49.813Z</time></trkpt><trkpt lat="43.4835968" lon="11.1260211"><ele>84.0</ele><time>2026-04-05T09:36:50.813Z</time></trkpt><trkpt lat="43.4835346" lon="11.1261868"><ele>84.25</ele><time>2026-04-05T09:36:51.813Z</time></trkpt><trkpt lat="43.4834458" lon="11.1263277"><ele>84.5</ele><time>2026-04-05T09:36:52.813Z</time></trkpt><trkpt lat="43.4833366" lon="11.1264438"><ele>84.75</ele><time>2026-04-05T09:36:53.813Z</time></trkpt><trkpt lat="43.4832114" lon="11.1265344"><ele>85.0</ele><time>2026-04-05T09:36:54.813Z</time></trkpt><trkpt lat="43.48307" lon="11.1265862"><ele>85.33333333333333</ele><time>2026-04-05T09:36:55.812Z</time></trkpt><trkpt lat="43.4829168" lon="11.1266017"><ele>85.66666666666667</ele><time>2026-04-05T09:36:56.813Z</time></trkpt><trkpt lat="43.4827548" lon="11.1265925"><ele>86.0</ele><time>2026-04-05T09:36:57.813Z</time></trkpt><trkpt lat="43.4825901" lon="11.1265812"><ele>86.0</ele><time>2026-04-05T09:36:58.813Z</time></trkpt><trkpt lat="43.4824177" lon="11.126575"><ele>86.0</ele><time>2026-04-05T09:36:59.813Z</time></trkpt><trkpt lat="43.4822398" lon="11.1265688"><ele>86.0</ele><time>2026-04-05T09:37:00.813Z</time></trkpt><trkpt lat="43.4820541" lon="11.1265586"><ele>86.33333333333334</ele><time>2026-04-05T09:37:01.813Z</time></trkpt><trkpt lat="43.4818645" lon="11.1265481"><ele>86.66666666666667</ele><time>2026-04-05T09:37:02.813Z</time></trkpt><trkpt lat="43.4816724" lon="11.1265367"><ele>87.0</ele><time>2026-04-05T09:37:03.813Z</time></trkpt><trkpt lat="43.4814751" lon="11.1265268"><ele>87.0</ele><time>2026-04-05T09:37:04.813Z</time></trkpt><trkpt lat="43.4812721" lon="11.1265299"><ele>87.0</ele><time>2026-04-05T09:37:05.813Z</time></trkpt><trkpt lat="43.4810686" lon="11.1265457"><ele>87.0</ele><time>2026-04-05T09:37:06.813Z</time></trkpt><trkpt lat="43.4808711" lon="11.1265809"><ele>87.0</ele><time>2026-04-05T09:37:07.813Z</time></trkpt><trkpt lat="43.480676" lon="11.1266445"><ele>87.0</ele><time>2026-04-05T09:37:08.813Z</time></trkpt><trkpt lat="43.4804874" lon="11.1267319"><ele>87.0</ele><time>2026-04-05T09:37:09.813Z</time></trkpt><trkpt lat="43.4803098" lon="11.1268471"><ele>86.66666666666667</ele><time>2026-04-05T09:37:10.813Z</time></trkpt><trkpt lat="43.480143" lon="11.1269924"><ele>86.33333333333334</ele><time>2026-04-05T09:37:11.813Z</time></trkpt><trkpt lat="43.4799859" lon="11.1271613"><ele>86.0</ele><time>2026-04-05T09:37:12.813Z</time></trkpt><trkpt lat="43.4798369" lon="11.1273515"><ele>86.66666666666667</ele><time>2026-04-05T09:37:13.813Z</time></trkpt><trkpt lat="43.479699" lon="11.1275587"><ele>87.33333333333333</ele><time>2026-04-05T09:37:14.813Z</time></trkpt><trkpt lat="43.4795724" lon="11.1277872"><ele>88.0</ele><time>2026-04-05T09:37:15.813Z</time></trkpt><trkpt lat="43.4794542" lon="11.1280238"><ele>88.33333333333333</ele><time>2026-04-05T09:37:16.812Z</time></trkpt><trkpt lat="43.4793454" lon="11.1282505"><ele>88.66666666666667</ele><time>2026-04-05T09:37:17.813Z</time></trkpt><trkpt lat="43.4792404" lon="11.1284659"><ele>89.0</ele><time>2026-04-05T09:37:18.813Z</time></trkpt><trkpt lat="43.4791398" lon="11.1286695"><ele>89.0</ele><time>2026-04-05T09:37:19.813Z</time></trkpt><trkpt lat="43.4790466" lon="11.1288586"><ele>89.0</ele><time>2026-04-05T09:37:20.813Z</time></trkpt><trkpt lat="43.4789603" lon="11.1290342"><ele>89.0</ele><time>2026-04-05T09:37:21.813Z</time></trkpt><trkpt lat="43.4788769" lon="11.1291933"><ele>89.0</ele><time>2026-04-05T09:37:22.813Z</time></trkpt><trkpt lat="43.4787926" lon="11.1293363"><ele>89.0</ele><time>2026-04-05T09:37:23.813Z</time></trkpt><trkpt lat="43.478711" lon="11.1294617"><ele>89.0</ele><time>2026-04-05T09:37:24.813Z</time></trkpt><trkpt lat="43.4786374" lon="11.1295795"><ele>89.0</ele><time>2026-04-05T09:37:25.813Z</time></trkpt><trkpt lat="43.4785675" lon="11.1296797"><ele>88.83333333333334</ele><time>2026-04-05T09:37:26.813Z</time></trkpt><trkpt lat="43.4784999" lon="11.1297602"><ele>88.66666666666667</ele><time>2026-04-05T09:37:27.813Z</time></trkpt><trkpt lat="43.4784403" lon="11.1298179"><ele>88.5</ele><time>2026-04-05T09:37:28.812Z</time></trkpt><trkpt lat="43.4783549" lon="11.1298979"><ele>88.33333333333333</ele><time>2026-04-05T09:37:30.813Z</time></trkpt><trkpt lat="43.4782732" lon="11.1299674"><ele>88.16666666666666</ele><time>2026-04-05T09:37:32.813Z</time></trkpt><trkpt lat="43.4782161" lon="11.1300053"><ele>88.0</ele><time>2026-04-05T09:37:33.813Z</time></trkpt><trkpt lat="43.4781517" lon="11.1300582"><ele>88.0</ele><time>2026-04-05T09:37:34.813Z</time></trkpt><trkpt lat="43.4780888" lon="11.1301243"><ele>88.0</ele><time>2026-04-05T09:37:35.813Z</time></trkpt><trkpt lat="43.4780279" lon="11.1301824"><ele>88.0</ele><time>2026-04-05T09:37:36.813Z</time></trkpt><trkpt lat="43.4779655" lon="11.1302176"><ele>88.0</ele><time>2026-04-05T09:37:37.813Z</time></trkpt><trkpt lat="43.4778925" lon="11.1302355"><ele>88.0</ele><time>2026-04-05T09:37:38.813Z</time></trkpt><trkpt lat="43.4778074" lon="11.1302348"><ele>88.0</ele><time>2026-04-05T09:37:39.813Z</time></trkpt><trkpt lat="43.4777165" lon="11.130219"><ele>87.80000000000001</ele><time>2026-04-05T09:37:40.813Z</time></trkpt><trkpt lat="43.4776167" lon="11.1301943"><ele>87.6</ele><time>2026-04-05T09:37:41.813Z</time></trkpt><trkpt lat="43.4775124" lon="11.130169"><ele>87.4</ele><time>2026-04-05T09:37:42.812Z</time></trkpt><trkpt lat="43.477407" lon="11.1301434"><ele>87.19999999999999</ele><time>2026-04-05T09:37:43.813Z</time></trkpt><trkpt lat="43.4773106" lon="11.1301192"><ele>87.0</ele><time>2026-04-05T09:37:44.813Z</time></trkpt><trkpt lat="43.4772224" lon="11.1300971"><ele>87.0</ele><time>2026-04-05T09:37:45.813Z</time></trkpt><trkpt lat="43.477141" lon="11.1300736"><ele>87.0</ele><time>2026-04-05T09:37:46.813Z</time></trkpt><trkpt lat="43.4770544" lon="11.1300459"><ele>87.0</ele><time>2026-04-05T09:37:47.813Z</time></trkpt><trkpt lat="43.4769578" lon="11.130008"><ele>87.0</ele><time>2026-04-05T09:37:48.813Z</time></trkpt><trkpt lat="43.4768528" lon="11.1299639"><ele>87.0</ele><time>2026-04-05T09:37:49.813Z</time></trkpt><trkpt lat="43.4767412" lon="11.1299235"><ele>87.25</ele><time>2026-04-05T09:37:50.813Z</time></trkpt><trkpt lat="43.4766217" lon="11.129901"><ele>87.5</ele><time>2026-04-05T09:37:51.813Z</time></trkpt><trkpt lat="43.4764925" lon="11.1298981"><ele>87.75</ele><time>2026-04-05T09:37:52.813Z</time></trkpt><trkpt lat="43.4763581" lon="11.1298987"><ele>88.0</ele><time>2026-04-05T09:37:53.813Z</time></trkpt><trkpt lat="43.4762118" lon="11.1298987"><ele>88.33333333333333</ele><time>2026-04-05T09:37:54.813Z</time></trkpt><trkpt lat="43.4760596" lon="11.1298901"><ele>88.66666666666667</ele><time>2026-04-05T09:37:55.813Z</time></trkpt><trkpt lat="43.4758951" lon="11.129869"><ele>89.0</ele><time>2026-04-05T09:37:56.813Z</time></trkpt><trkpt lat="43.4757228" lon="11.129841"><ele>89.0</ele><time>2026-04-05T09:37:57.813Z</time></trkpt><trkpt lat="43.4755599" lon="11.1298086"><ele>89.0</ele><time>2026-04-05T09:37:58.813Z</time></trkpt><trkpt lat="43.4754155" lon="11.1297791"><ele>89.0</ele><time>2026-04-05T09:37:59.813Z</time></trkpt><trkpt lat="43.4752854" lon="11.1297567"><ele>89.0</ele><time>2026-04-05T09:38:00.813Z</time></trkpt><trkpt lat="43.4751595" lon="11.1297425"><ele>88.66666666666667</ele><time>2026-04-05T09:38:01.813Z</time></trkpt><trkpt lat="43.4750175" lon="11.1297287"><ele>88.33333333333333</ele><time>2026-04-05T09:38:02.813Z</time></trkpt><trkpt lat="43.4748592" lon="11.1297074"><ele>88.0</ele><time>2026-04-05T09:38:03.813Z</time></trkpt><trkpt lat="43.4746913" lon="11.1296822"><ele>87.66666666666666</ele><time>2026-04-05T09:38:04.812Z</time></trkpt><trkpt lat="43.4745117" lon="11.1296536"><ele>87.33333333333333</ele><time>2026-04-05T09:38:05.813Z</time></trkpt><trkpt lat="43.4743261" lon="11.1296224"><ele>87.0</ele><time>2026-04-05T09:38:06.813Z</time></trkpt><trkpt lat="43.4741325" lon="11.1295871"><ele>87.0</ele><time>2026-04-05T09:38:07.813Z</time></trkpt><trkpt lat="43.4739284" lon="11.1295506"><ele>87.0</ele><time>2026-04-05T09:38:08.813Z</time></trkpt><trkpt lat="43.4737168" lon="11.1295121"><ele>87.0</ele><time>2026-04-05T09:38:09.813Z</time></trkpt><trkpt lat="43.4735026" lon="11.1294713"><ele>87.0</ele><time>2026-04-05T09:38:10.813Z</time></trkpt><trkpt lat="43.4732859" lon="11.1294233"><ele>87.0</ele><time>2026-04-05T09:38:11.813Z</time></trkpt><trkpt lat="43.4730641" lon="11.1293726"><ele>87.0</ele><time>2026-04-05T09:38:12.812Z</time></trkpt><trkpt lat="43.472841" lon="11.1293298"><ele>87.0</ele><time>2026-04-05T09:38:13.813Z</time></trkpt><trkpt lat="43.4726202" lon="11.1292873"><ele>87.0</ele><time>2026-04-05T09:38:14.813Z</time></trkpt><trkpt lat="43.4724091" lon="11.1292414"><ele>87.0</ele><time>2026-04-05T09:38:15.813Z</time></trkpt><trkpt lat="43.4722049" lon="11.1291855"><ele>87.0</ele><time>2026-04-05T09:38:16.813Z</time></trkpt><trkpt lat="43.4720055" lon="11.1291153"><ele>87.0</ele><time>2026-04-05T09:38:17.813Z</time></trkpt><trkpt lat="43.4718114" lon="11.1290248"><ele>87.0</ele><time>2026-04-05T09:38:18.813Z</time></trkpt><trkpt lat="43.4716201" lon="11.1289265"><ele>87.66666666666667</ele><time>2026-04-05T09:38:19.813Z</time></trkpt><trkpt lat="43.4714324" lon="11.1288255"><ele>88.33333333333334</ele><time>2026-04-05T09:38:20.813Z</time></trkpt><trkpt lat="43.4712552" lon="11.1287297"><ele>89.0</ele><time>2026-04-05T09:38:21.813Z</time></trkpt><trkpt lat="43.4710895" lon="11.1286404"><ele>90.0</ele><time>2026-04-05T09:38:22.813Z</time></trkpt><trkpt lat="43.4709391" lon="11.1285601"><ele>91.0</ele><time>2026-04-05T09:38:23.813Z</time></trkpt><trkpt lat="43.470808" lon="11.1284945"><ele>92.0</ele><time>2026-04-05T09:38:24.813Z</time></trkpt><trkpt lat="43.4706984" lon="11.1284359"><ele>93.0</ele><time>2026-04-05T09:38:25.813Z</time></trkpt><trkpt lat="43.4706036" lon="11.1283713"><ele>93.0</ele><time>2026-04-05T09:38:26.813Z</time></trkpt><trkpt lat="43.4705181" lon="11.1282904"><ele>93.0</ele><time>2026-04-05T09:38:27.813Z</time></trkpt><trkpt lat="43.4704282" lon="11.1281968"><ele>93.0</ele><time>2026-04-05T09:38:28.812Z</time></trkpt><trkpt lat="43.4703354" lon="11.1280927"><ele>93.0</ele><time>2026-04-05T09:38:29.814Z</time></trkpt><trkpt lat="43.4702475" lon="11.1279773"><ele>93.4</ele><time>2026-04-05T09:38:30.813Z</time></trkpt><trkpt lat="43.4701677" lon="11.1278681"><ele>93.80000000000001</ele><time>2026-04-05T09:38:31.813Z</time></trkpt><trkpt lat="43.4700896" lon="11.1277593"><ele>94.2</ele><time>2026-04-05T09:38:32.813Z</time></trkpt><trkpt lat="43.4700159" lon="11.127654"><ele>94.6</ele><time>2026-04-05T09:38:33.813Z</time></trkpt><trkpt lat="43.4699513" lon="11.1275511"><ele>95.0</ele><time>2026-04-05T09:38:34.813Z</time></trkpt><trkpt lat="43.4699001" lon="11.1274491"><ele>95.0</ele><time>2026-04-05T09:38:35.813Z</time></trkpt><trkpt lat="43.469865" lon="11.1273508"><ele>95.0</ele><time>2026-04-05T09:38:36.813Z</time></trkpt><trkpt lat="43.4698419" lon="11.1272479"><ele>95.0</ele><time>2026-04-05T09:38:37.813Z</time></trkpt><trkpt lat="43.4698092" lon="11.1271476"><ele>95.0</ele><time>2026-04-05T09:38:38.813Z</time></trkpt><trkpt lat="43.4697577" lon="11.1270521"><ele>95.0</ele><time>2026-04-05T09:38:39.813Z</time></trkpt><trkpt lat="43.4696835" lon="11.1269634"><ele>95.0</ele><time>2026-04-05T09:38:40.813Z</time></trkpt><trkpt lat="43.4695924" lon="11.1268868"><ele>96.25</ele><time>2026-04-05T09:38:41.813Z</time></trkpt><trkpt lat="43.4694909" lon="11.1268079"><ele>97.5</ele><time>2026-04-05T09:38:42.813Z</time></trkpt><trkpt lat="43.4693795" lon="11.126726"><ele>98.75</ele><time>2026-04-05T09:38:43.813Z</time></trkpt><trkpt lat="43.46926" lon="11.1266404"><ele>100.0</ele><time>2026-04-05T09:38:44.813Z</time></trkpt><trkpt lat="43.4691292" lon="11.1265744"><ele>99.0</ele><time>2026-04-05T09:38:45.813Z</time></trkpt><trkpt lat="43.4689821" lon="11.1265313"><ele>98.0</ele><time>2026-04-05T09:38:46.813Z</time></trkpt><trkpt lat="43.4688198" lon="11.1265057"><ele>97.0</ele><time>2026-04-05T09:38:47.813Z</time></trkpt><trkpt lat="43.4686532" lon="11.1264861"><ele>96.66666666666667</ele><time>2026-04-05T09:38:48.813Z</time></trkpt><trkpt lat="43.4684791" lon="11.126466"><ele>96.33333333333334</ele><time>2026-04-05T09:38:49.813Z</time></trkpt><trkpt lat="43.4683001" lon="11.1264418"><ele>96.0</ele><time>2026-04-05T09:38:50.814Z</time></trkpt><trkpt lat="43.4681142" lon="11.1264055"><ele>95.66666666666667</ele><time>2026-04-05T09:38:51.813Z</time></trkpt><trkpt lat="43.4679271" lon="11.126363"><ele>95.33333333333334</ele><time>2026-04-05T09:38:52.812Z</time></trkpt><trkpt lat="43.4677369" lon="11.1263158"><ele>95.0</ele><time>2026-04-05T09:38:53.813Z</time></trkpt><trkpt lat="43.4675441" lon="11.1262718"><ele>95.0</ele><time>2026-04-05T09:38:54.812Z</time></trkpt><trkpt lat="43.4673532" lon="11.1262176"><ele>95.0</ele><time>2026-04-05T09:38:55.813Z</time></trkpt><trkpt lat="43.4671645" lon="11.1261492"><ele>95.0</ele><time>2026-04-05T09:38:56.813Z</time></trkpt><trkpt lat="43.4669778" lon="11.1260653"><ele>96.0</ele><time>2026-04-05T09:38:57.813Z</time></trkpt><trkpt lat="43.4667933" lon="11.1259678"><ele>97.0</ele><time>2026-04-05T09:38:58.813Z</time></trkpt><trkpt lat="43.4666072" lon="11.1258633"><ele>98.0</ele><time>2026-04-05T09:38:59.813Z</time></trkpt><trkpt lat="43.4664218" lon="11.125756"><ele>98.33333333333333</ele><time>2026-04-05T09:39:00.813Z</time></trkpt><trkpt lat="43.4662313" lon="11.1256464"><ele>98.66666666666666</ele><time>2026-04-05T09:39:01.813Z</time></trkpt><trkpt lat="43.4660388" lon="11.1255388"><ele>99.0</ele><time>2026-04-05T09:39:02.813Z</time></trkpt><trkpt lat="43.4658437" lon="11.1254309"><ele>99.0</ele><time>2026-04-05T09:39:03.815Z</time></trkpt><trkpt lat="43.4656472" lon="11.1253231"><ele>99.0</ele><time>2026-04-05T09:39:04.812Z</time></trkpt><trkpt lat="43.4654461" lon="11.1252112"><ele>99.0</ele><time>2026-04-05T09:39:05.813Z</time></trkpt><trkpt lat="43.4652437" lon="11.1250965"><ele>99.66666666666666</ele><time>2026-04-05T09:39:06.813Z</time></trkpt><trkpt lat="43.4650396" lon="11.1249835"><ele>100.33333333333333</ele><time>2026-04-05T09:39:07.813Z</time></trkpt><trkpt lat="43.464838" lon="11.1248686"><ele>101.0</ele><time>2026-04-05T09:39:08.813Z</time></trkpt><trkpt lat="43.4646385" lon="11.1247517"><ele>99.66666666666666</ele><time>2026-04-05T09:39:09.813Z</time></trkpt><trkpt lat="43.4644388" lon="11.1246365"><ele>98.33333333333334</ele><time>2026-04-05T09:39:10.812Z</time></trkpt><trkpt lat="43.4642435" lon="11.1245264"><ele>97.0</ele><time>2026-04-05T09:39:11.813Z</time></trkpt><trkpt lat="43.4640553" lon="11.1244207"><ele>97.0</ele><time>2026-04-05T09:39:12.813Z</time></trkpt><trkpt lat="43.4638747" lon="11.1243044"><ele>97.0</ele><time>2026-04-05T09:39:13.812Z</time></trkpt><trkpt lat="43.4636993" lon="11.1241733"><ele>97.0</ele><time>2026-04-05T09:39:14.813Z</time></trkpt><trkpt lat="43.4635306" lon="11.1240243"><ele>96.66666666666667</ele><time>2026-04-05T09:39:15.813Z</time></trkpt><trkpt lat="43.4633701" lon="11.1238571"><ele>96.33333333333334</ele><time>2026-04-05T09:39:16.813Z</time></trkpt><trkpt lat="43.4632166" lon="11.1236807"><ele>96.0</ele><time>2026-04-05T09:39:17.812Z</time></trkpt><trkpt lat="43.4630672" lon="11.1235035"><ele>96.33333333333334</ele><time>2026-04-05T09:39:18.813Z</time></trkpt><trkpt lat="43.4629222" lon="11.1233314"><ele>96.66666666666667</ele><time>2026-04-05T09:39:19.813Z</time></trkpt><trkpt lat="43.4627814" lon="11.1231537"><ele>97.0</ele><time>2026-04-05T09:39:20.813Z</time></trkpt><trkpt lat="43.462652" lon="11.1229589"><ele>97.0</ele><time>2026-04-05T09:39:21.813Z</time></trkpt><trkpt lat="43.4625348" lon="11.1227535"><ele>97.0</ele><time>2026-04-05T09:39:22.813Z</time></trkpt><trkpt lat="43.4624288" lon="11.1225533"><ele>97.0</ele><time>2026-04-05T09:39:23.812Z</time></trkpt><trkpt lat="43.4623334" lon="11.1223621"><ele>96.75</ele><time>2026-04-05T09:39:24.813Z</time></trkpt><trkpt lat="43.4622508" lon="11.1221939"><ele>96.5</ele><time>2026-04-05T09:39:25.813Z</time></trkpt><trkpt lat="43.4621762" lon="11.1220545"><ele>96.25</ele><time>2026-04-05T09:39:26.813Z</time></trkpt><trkpt lat="43.4621191" lon="11.1219171"><ele>96.0</ele><time>2026-04-05T09:39:27.813Z</time></trkpt><trkpt lat="43.4620954" lon="11.1217726"><ele>96.19999999999999</ele><time>2026-04-05T09:39:28.813Z</time></trkpt><trkpt lat="43.4620924" lon="11.121634"><ele>96.39999999999999</ele><time>2026-04-05T09:39:29.813Z</time></trkpt><trkpt lat="43.4620764" lon="11.1215033"><ele>96.6</ele><time>2026-04-05T09:39:30.813Z</time></trkpt><trkpt lat="43.4620301" lon="11.1213754"><ele>96.8</ele><time>2026-04-05T09:39:31.813Z</time></trkpt><trkpt lat="43.4619655" lon="11.12125"><ele>97.0</ele><time>2026-04-05T09:39:32.814Z</time></trkpt><trkpt lat="43.4619079" lon="11.1211069"><ele>97.0</ele><time>2026-04-05T09:39:33.813Z</time></trkpt><trkpt lat="43.4618522" lon="11.1209477"><ele>97.0</ele><time>2026-04-05T09:39:34.813Z</time></trkpt><trkpt lat="43.4617999" lon="11.1207668"><ele>97.0</ele><time>2026-04-05T09:39:35.813Z</time></trkpt><trkpt lat="43.4617567" lon="11.1205605"><ele>97.0</ele><time>2026-04-05T09:39:36.813Z</time></trkpt><trkpt lat="43.461713" lon="11.1203436"><ele>97.0</ele><time>2026-04-05T09:39:37.813Z</time></trkpt><trkpt lat="43.4616649" lon="11.1201125"><ele>97.0</ele><time>2026-04-05T09:39:38.813Z</time></trkpt><trkpt lat="43.4616175" lon="11.1198728"><ele>97.0</ele><time>2026-04-05T09:39:39.813Z</time></trkpt><trkpt lat="43.4615718" lon="11.1196336"><ele>97.0</ele><time>2026-04-05T09:39:40.812Z</time></trkpt><trkpt lat="43.4615239" lon="11.1193903"><ele>97.0</ele><time>2026-04-05T09:39:41.813Z</time></trkpt><trkpt lat="43.461476" lon="11.1191506"><ele>97.0</ele><time>2026-04-05T09:39:42.813Z</time></trkpt><trkpt lat="43.4614295" lon="11.1189061"><ele>97.0</ele><time>2026-04-05T09:39:43.813Z</time></trkpt><trkpt lat="43.4613822" lon="11.1186569"><ele>97.0</ele><time>2026-04-05T09:39:44.813Z</time></trkpt><trkpt lat="43.4613338" lon="11.1184074"><ele>97.0</ele><time>2026-04-05T09:39:45.813Z</time></trkpt><trkpt lat="43.4612853" lon="11.1181564"><ele>97.0</ele><time>2026-04-05T09:39:46.813Z</time></trkpt><trkpt lat="43.461236" lon="11.1179049"><ele>97.0</ele><time>2026-04-05T09:39:47.813Z</time></trkpt><trkpt lat="43.4611873" lon="11.1176532"><ele>97.0</ele><time>2026-04-05T09:39:48.813Z</time></trkpt><trkpt lat="43.4611381" lon="11.1173989"><ele>97.0</ele><time>2026-04-05T09:39:49.813Z</time></trkpt><trkpt lat="43.4610906" lon="11.1171452"><ele>97.0</ele><time>2026-04-05T09:39:50.813Z</time></trkpt><trkpt lat="43.4610418" lon="11.1168897"><ele>97.0</ele><time>2026-04-05T09:39:51.813Z</time></trkpt><trkpt lat="43.4609928" lon="11.1166298"><ele>97.0</ele><time>2026-04-05T09:39:52.813Z</time></trkpt><trkpt lat="43.4609446" lon="11.1163684"><ele>97.0</ele><time>2026-04-05T09:39:53.813Z</time></trkpt><trkpt lat="43.4608946" lon="11.1161069"><ele>97.0</ele><time>2026-04-05T09:39:54.813Z</time></trkpt><trkpt lat="43.4608439" lon="11.1158427"><ele>96.66666666666667</ele><time>2026-04-05T09:39:55.813Z</time></trkpt><trkpt lat="43.4607884" lon="11.1155768"><ele>96.33333333333334</ele><time>2026-04-05T09:39:56.813Z</time></trkpt><trkpt lat="43.4607336" lon="11.11531"><ele>96.0</ele><time>2026-04-05T09:39:57.813Z</time></trkpt><trkpt lat="43.4606786" lon="11.1150385"><ele>96.33333333333334</ele><time>2026-04-05T09:39:58.813Z</time></trkpt><trkpt lat="43.4606256" lon="11.1147611"><ele>96.66666666666667</ele><time>2026-04-05T09:39:59.813Z</time></trkpt><trkpt lat="43.4605729" lon="11.1144821"><ele>97.0</ele><time>2026-04-05T09:40:00.813Z</time></trkpt><trkpt lat="43.460521" lon="11.1142002"><ele>96.66666666666667</ele><time>2026-04-05T09:40:01.813Z</time></trkpt><trkpt lat="43.4604679" lon="11.1139174"><ele>96.33333333333334</ele><time>2026-04-05T09:40:02.813Z</time></trkpt><trkpt lat="43.460414" lon="11.1136297"><ele>96.0</ele><time>2026-04-05T09:40:03.813Z</time></trkpt><trkpt lat="43.4603588" lon="11.1133441"><ele>96.66666666666666</ele><time>2026-04-05T09:40:04.812Z</time></trkpt><trkpt lat="43.4603023" lon="11.1130566"><ele>97.33333333333333</ele><time>2026-04-05T09:40:05.813Z</time></trkpt><trkpt lat="43.4602483" lon="11.1127648"><ele>98.0</ele><time>2026-04-05T09:40:06.813Z</time></trkpt><trkpt lat="43.4601946" lon="11.1124773"><ele>97.66666666666666</ele><time>2026-04-05T09:40:07.813Z</time></trkpt><trkpt lat="43.4601424" lon="11.1122002"><ele>97.33333333333334</ele><time>2026-04-05T09:40:08.813Z</time></trkpt><trkpt lat="43.4600899" lon="11.1119347"><ele>97.0</ele><time>2026-04-05T09:40:09.813Z</time></trkpt><trkpt lat="43.4600401" lon="11.1116786"><ele>97.33333333333334</ele><time>2026-04-05T09:40:10.812Z</time></trkpt><trkpt lat="43.459994" lon="11.1114339"><ele>97.66666666666666</ele><time>2026-04-05T09:40:11.813Z</time></trkpt><trkpt lat="43.4599515" lon="11.1112055"><ele>98.0</ele><time>2026-04-05T09:40:12.813Z</time></trkpt><trkpt lat="43.4599115" lon="11.1110001"><ele>98.0</ele><time>2026-04-05T09:40:13.813Z</time></trkpt><trkpt lat="43.4598802" lon="11.110806"><ele>98.0</ele><time>2026-04-05T09:40:14.813Z</time></trkpt><trkpt lat="43.4598577" lon="11.1106283"><ele>98.0</ele><time>2026-04-05T09:40:15.813Z</time></trkpt><trkpt lat="43.4598543" lon="11.1104578"><ele>98.0</ele><time>2026-04-05T09:40:16.813Z</time></trkpt><trkpt lat="43.4598669" lon="11.1103035"><ele>98.0</ele><time>2026-04-05T09:40:17.813Z</time></trkpt><trkpt lat="43.4598836" lon="11.1101639"><ele>98.0</ele><time>2026-04-05T09:40:18.813Z</time></trkpt><trkpt lat="43.4598805" lon="11.1100345"><ele>98.0</ele><time>2026-04-05T09:40:19.813Z</time></trkpt><trkpt lat="43.459845" lon="11.1099202"><ele>98.0</ele><time>2026-04-05T09:40:20.813Z</time></trkpt><trkpt lat="43.4597831" lon="11.1098084"><ele>98.0</ele><time>2026-04-05T09:40:21.813Z</time></trkpt><trkpt lat="43.4597192" lon="11.1096785"><ele>98.25</ele><time>2026-04-05T09:40:22.813Z</time></trkpt><trkpt lat="43.4596665" lon="11.1095173"><ele>98.5</ele><time>2026-04-05T09:40:23.813Z</time></trkpt><trkpt lat="43.4596222" lon="11.1093268"><ele>98.75</ele><time>2026-04-05T09:40:24.813Z</time></trkpt><trkpt lat="43.4595813" lon="11.1091193"><ele>99.0</ele><time>2026-04-05T09:40:25.813Z</time></trkpt><trkpt lat="43.4595377" lon="11.1088991"><ele>99.0</ele><time>2026-04-05T09:40:26.813Z</time></trkpt><trkpt lat="43.4594908" lon="11.108665"><ele>99.0</ele><time>2026-04-05T09:40:27.813Z</time></trkpt><trkpt lat="43.4594414" lon="11.1084217"><ele>99.0</ele><time>2026-04-05T09:40:28.813Z</time></trkpt><trkpt lat="43.4593943" lon="11.1081771"><ele>99.0</ele><time>2026-04-05T09:40:29.813Z</time></trkpt><trkpt lat="43.4593471" lon="11.1079248"><ele>99.0</ele><time>2026-04-05T09:40:30.813Z</time></trkpt><trkpt lat="43.4592985" lon="11.1076696"><ele>99.0</ele><time>2026-04-05T09:40:31.813Z</time></trkpt><trkpt lat="43.459249" lon="11.1074097"><ele>98.66666666666666</ele><time>2026-04-05T09:40:32.813Z</time></trkpt><trkpt lat="43.4591972" lon="11.1071481"><ele>98.33333333333333</ele><time>2026-04-05T09:40:33.813Z</time></trkpt><trkpt lat="43.4591492" lon="11.1068847"><ele>98.0</ele><time>2026-04-05T09:40:34.813Z</time></trkpt><trkpt lat="43.4591137" lon="11.1066138"><ele>97.66666666666666</ele><time>2026-04-05T09:40:35.813Z</time></trkpt><trkpt lat="43.4590911" lon="11.1063408"><ele>97.33333333333334</ele><time>2026-04-05T09:40:36.812Z</time></trkpt><trkpt lat="43.4590845" lon="11.106066"><ele>97.0</ele><time>2026-04-05T09:40:37.813Z</time></trkpt><trkpt lat="43.4590942" lon="11.1057901"><ele>97.66666666666667</ele><time>2026-04-05T09:40:38.813Z</time></trkpt><trkpt lat="43.4591182" lon="11.10551"><ele>98.33333333333334</ele><time>2026-04-05T09:40:39.813Z</time></trkpt><trkpt lat="43.4591503" lon="11.1052242"><ele>99.0</ele><time>2026-04-05T09:40:40.812Z</time></trkpt><trkpt lat="43.4591808" lon="11.1049345"><ele>98.66666666666666</ele><time>2026-04-05T09:40:41.813Z</time></trkpt><trkpt lat="43.4592092" lon="11.1046393"><ele>98.33333333333333</ele><time>2026-04-05T09:40:42.813Z</time></trkpt><trkpt lat="43.4592417" lon="11.1043402"><ele>98.0</ele><time>2026-04-05T09:40:43.813Z</time></trkpt><trkpt lat="43.4592732" lon="11.1040372"><ele>99.0</ele><time>2026-04-05T09:40:44.813Z</time></trkpt><trkpt lat="43.4593056" lon="11.1037328"><ele>100.0</ele><time>2026-04-05T09:40:45.813Z</time></trkpt><trkpt lat="43.4593378" lon="11.1034271"><ele>101.0</ele><time>2026-04-05T09:40:46.813Z</time></trkpt><trkpt lat="43.4593735" lon="11.1031263"><ele>101.33333333333333</ele><time>2026-04-05T09:40:47.813Z</time></trkpt><trkpt lat="43.4594068" lon="11.1028237"><ele>101.66666666666666</ele><time>2026-04-05T09:40:48.813Z</time></trkpt><trkpt lat="43.4594415" lon="11.1025231"><ele>102.0</ele><time>2026-04-05T09:40:49.813Z</time></trkpt><trkpt lat="43.4594756" lon="11.1022297"><ele>102.0</ele><time>2026-04-05T09:40:50.813Z</time></trkpt><trkpt lat="43.4595055" lon="11.1019559"><ele>102.0</ele><time>2026-04-05T09:40:51.813Z</time></trkpt><trkpt lat="43.4595343" lon="11.1016976"><ele>102.0</ele><time>2026-04-05T09:40:52.813Z</time></trkpt><trkpt lat="43.459557" lon="11.1014557"><ele>102.33333333333334</ele><time>2026-04-05T09:40:53.813Z</time></trkpt><trkpt lat="43.4595719" lon="11.1012249"><ele>102.66666666666667</ele><time>2026-04-05T09:40:54.813Z</time></trkpt><trkpt lat="43.4595735" lon="11.1009914"><ele>103.0</ele><time>2026-04-05T09:40:55.813Z</time></trkpt><trkpt lat="43.4595656" lon="11.1007463"><ele>103.0</ele><time>2026-04-05T09:40:56.813Z</time></trkpt><trkpt lat="43.4595486" lon="11.1004899"><ele>103.0</ele><time>2026-04-05T09:40:57.813Z</time></trkpt><trkpt lat="43.459523" lon="11.1002255"><ele>103.0</ele><time>2026-04-05T09:40:58.813Z</time></trkpt><trkpt lat="43.459493" lon="11.0999525"><ele>103.0</ele><time>2026-04-05T09:40:59.812Z</time></trkpt><trkpt lat="43.4594659" lon="11.0996736"><ele>103.0</ele><time>2026-04-05T09:41:00.813Z</time></trkpt><trkpt lat="43.4594472" lon="11.0993847"><ele>103.0</ele><time>2026-04-05T09:41:01.812Z</time></trkpt><trkpt lat="43.4594356" lon="11.0990901"><ele>103.33333333333334</ele><time>2026-04-05T09:41:02.813Z</time></trkpt><trkpt lat="43.4594316" lon="11.0987894"><ele>103.66666666666666</ele><time>2026-04-05T09:41:03.813Z</time></trkpt><trkpt lat="43.459432" lon="11.0984834"><ele>104.0</ele><time>2026-04-05T09:41:04.813Z</time></trkpt><trkpt lat="43.4594271" lon="11.0981754"><ele>104.5</ele><time>2026-04-05T09:41:05.813Z</time></trkpt><trkpt lat="43.4594183" lon="11.0978623"><ele>105.0</ele><time>2026-04-05T09:41:06.813Z</time></trkpt><trkpt lat="43.4594064" lon="11.0975481"><ele>105.5</ele><time>2026-04-05T09:41:07.813Z</time></trkpt><trkpt lat="43.4593909" lon="11.0972367"><ele>106.0</ele><time>2026-04-05T09:41:08.812Z</time></trkpt><trkpt lat="43.4593716" lon="11.0969304"><ele>106.0</ele><time>2026-04-05T09:41:09.813Z</time></trkpt><trkpt lat="43.4593462" lon="11.0966293"><ele>106.0</ele><time>2026-04-05T09:41:10.813Z</time></trkpt><trkpt lat="43.4593165" lon="11.0963292"><ele>106.0</ele><time>2026-04-05T09:41:11.813Z</time></trkpt><trkpt lat="43.4592819" lon="11.0960277"><ele>106.33333333333334</ele><time>2026-04-05T09:41:12.813Z</time></trkpt><trkpt lat="43.4592485" lon="11.0957272"><ele>106.66666666666666</ele><time>2026-04-05T09:41:13.813Z</time></trkpt><trkpt lat="43.4592137" lon="11.0954279"><ele>107.0</ele><time>2026-04-05T09:41:14.813Z</time></trkpt><trkpt lat="43.4591758" lon="11.0951246"><ele>107.0</ele><time>2026-04-05T09:41:15.813Z</time></trkpt><trkpt lat="43.4591352" lon="11.0948241"><ele>107.0</ele><time>2026-04-05T09:41:16.813Z</time></trkpt><trkpt lat="43.4590955" lon="11.0945275"><ele>107.0</ele><time>2026-04-05T09:41:17.813Z</time></trkpt><trkpt lat="43.4590568" lon="11.0942377"><ele>107.66666666666666</ele><time>2026-04-05T09:41:18.813Z</time></trkpt><trkpt lat="43.459018" lon="11.0939559"><ele>108.33333333333334</ele><time>2026-04-05T09:41:19.813Z</time></trkpt><trkpt lat="43.4589666" lon="11.0936877"><ele>109.0</ele><time>2026-04-05T09:41:20.813Z</time></trkpt><trkpt lat="43.4588978" lon="11.093429"><ele>111.0</ele><time>2026-04-05T09:41:21.813Z</time></trkpt><trkpt lat="43.4588143" lon="11.0931767"><ele>113.0</ele><time>2026-04-05T09:41:22.813Z</time></trkpt><trkpt lat="43.4587167" lon="11.0929348"><ele>115.0</ele><time>2026-04-05T09:41:23.813Z</time></trkpt><trkpt lat="43.4586058" lon="11.0927017"><ele>115.0</ele><time>2026-04-05T09:41:24.813Z</time></trkpt><trkpt lat="43.4584811" lon="11.0924759"><ele>115.0</ele><time>2026-04-05T09:41:25.813Z</time></trkpt><trkpt lat="43.458348" lon="11.0922479"><ele>115.0</ele><time>2026-04-05T09:41:26.813Z</time></trkpt><trkpt lat="43.4582103" lon="11.092016"><ele>114.66666666666667</ele><time>2026-04-05T09:41:27.813Z</time></trkpt><trkpt lat="43.4580708" lon="11.091779"><ele>114.33333333333334</ele><time>2026-04-05T09:41:28.813Z</time></trkpt><trkpt lat="43.4579299" lon="11.0915393"><ele>114.0</ele><time>2026-04-05T09:41:29.813Z</time></trkpt><trkpt lat="43.4577879" lon="11.0912946"><ele>114.0</ele><time>2026-04-05T09:41:30.812Z</time></trkpt><trkpt lat="43.4576485" lon="11.0910527"><ele>114.0</ele><time>2026-04-05T09:41:31.813Z</time></trkpt><trkpt lat="43.4575079" lon="11.0908185"><ele>114.0</ele><time>2026-04-05T09:41:32.813Z</time></trkpt><trkpt lat="43.4573674" lon="11.0905827"><ele>115.5</ele><time>2026-04-05T09:41:33.813Z</time></trkpt><trkpt lat="43.4572263" lon="11.0903411"><ele>117.0</ele><time>2026-04-05T09:41:34.813Z</time></trkpt><trkpt lat="43.4570812" lon="11.0900971"><ele>114.0</ele><time>2026-04-05T09:41:35.813Z</time></trkpt><trkpt lat="43.4569353" lon="11.0898499"><ele>111.0</ele><time>2026-04-05T09:41:36.813Z</time></trkpt><trkpt lat="43.4567915" lon="11.0896062"><ele>111.0</ele><time>2026-04-05T09:41:37.813Z</time></trkpt><trkpt lat="43.4566464" lon="11.0893693"><ele>111.0</ele><time>2026-04-05T09:41:38.813Z</time></trkpt><trkpt lat="43.4565038" lon="11.0891288"><ele>111.5</ele><time>2026-04-05T09:41:39.813Z</time></trkpt><trkpt lat="43.4563614" lon="11.0888825"><ele>112.0</ele><time>2026-04-05T09:41:40.812Z</time></trkpt><trkpt lat="43.4562253" lon="11.0886389"><ele>112.0</ele><time>2026-04-05T09:41:41.813Z</time></trkpt><trkpt lat="43.4560962" lon="11.0884067"><ele>112.0</ele><time>2026-04-05T09:41:42.813Z</time></trkpt><trkpt lat="43.4559725" lon="11.0881852"><ele>112.0</ele><time>2026-04-05T09:41:43.813Z</time></trkpt><trkpt lat="43.4558481" lon="11.0879771"><ele>112.66666666666667</ele><time>2026-04-05T09:41:44.813Z</time></trkpt><trkpt lat="43.4557188" lon="11.0877685"><ele>113.33333333333334</ele><time>2026-04-05T09:41:45.813Z</time></trkpt><trkpt lat="43.4555791" lon="11.0875629"><ele>114.0</ele><time>2026-04-05T09:41:46.813Z</time></trkpt><trkpt lat="43.4554303" lon="11.0873566"><ele>114.0</ele><time>2026-04-05T09:41:47.813Z</time></trkpt><trkpt lat="43.455284" lon="11.0871538"><ele>114.0</ele><time>2026-04-05T09:41:48.813Z</time></trkpt><trkpt lat="43.4551489" lon="11.0869584"><ele>114.0</ele><time>2026-04-05T09:41:49.813Z</time></trkpt><trkpt lat="43.4550214" lon="11.0867762"><ele>114.0</ele><time>2026-04-05T09:41:50.812Z</time></trkpt><trkpt lat="43.4549007" lon="11.0866064"><ele>114.0</ele><time>2026-04-05T09:41:51.813Z</time></trkpt><trkpt lat="43.4547825" lon="11.0864435"><ele>114.0</ele><time>2026-04-05T09:41:52.813Z</time></trkpt><trkpt lat="43.4546648" lon="11.0862829"><ele>114.0</ele><time>2026-04-05T09:41:53.813Z</time></trkpt><trkpt lat="43.4545453" lon="11.086121"><ele>114.0</ele><time>2026-04-05T09:41:54.813Z</time></trkpt><trkpt lat="43.4544212" lon="11.0859533"><ele>114.0</ele><time>2026-04-05T09:41:55.813Z</time></trkpt><trkpt lat="43.4542925" lon="11.085782"><ele>116.66666666666666</ele><time>2026-04-05T09:41:56.813Z</time></trkpt><trkpt lat="43.4541605" lon="11.0856056"><ele>119.33333333333333</ele><time>2026-04-05T09:41:57.813Z</time></trkpt><trkpt lat="43.4540273" lon="11.0854268"><ele>122.0</ele><time>2026-04-05T09:41:58.813Z</time></trkpt><trkpt lat="43.4539023" lon="11.0852455"><ele>122.0</ele><time>2026-04-05T09:41:59.813Z</time></trkpt><trkpt lat="43.4537831" lon="11.0850745"><ele>122.0</ele><time>2026-04-05T09:42:00.813Z</time></trkpt><trkpt lat="43.4536682" lon="11.0849167"><ele>122.0</ele><time>2026-04-05T09:42:01.813Z</time></trkpt><trkpt lat="43.4535617" lon="11.0847754"><ele>122.0</ele><time>2026-04-05T09:42:02.813Z</time></trkpt><trkpt lat="43.4534643" lon="11.0846429"><ele>122.0</ele><time>2026-04-05T09:42:03.812Z</time></trkpt><trkpt lat="43.4533741" lon="11.0845195"><ele>122.0</ele><time>2026-04-05T09:42:04.813Z</time></trkpt><trkpt lat="43.4532957" lon="11.0843969"><ele>122.0</ele><time>2026-04-05T09:42:05.813Z</time></trkpt><trkpt lat="43.4532307" lon="11.0842823"><ele>122.0</ele><time>2026-04-05T09:42:06.813Z</time></trkpt><trkpt lat="43.4531801" lon="11.0841725"><ele>121.99999999999999</ele><time>2026-04-05T09:42:07.813Z</time></trkpt><trkpt lat="43.4531334" lon="11.0840595"><ele>121.99999999999999</ele><time>2026-04-05T09:42:08.813Z</time></trkpt><trkpt lat="43.453087" lon="11.0839359"><ele>122.0</ele><time>2026-04-05T09:42:09.812Z</time></trkpt><trkpt lat="43.453045" lon="11.0837989"><ele>122.0</ele><time>2026-04-05T09:42:10.813Z</time></trkpt><trkpt lat="43.4530056" lon="11.0836395"><ele>123.5</ele><time>2026-04-05T09:42:11.813Z</time></trkpt><trkpt lat="43.4529701" lon="11.0834663"><ele>125.0</ele><time>2026-04-05T09:42:12.813Z</time></trkpt><trkpt lat="43.4529422" lon="11.0832803"><ele>126.5</ele><time>2026-04-05T09:42:13.813Z</time></trkpt><trkpt lat="43.4529287" lon="11.0830885"><ele>128.0</ele><time>2026-04-05T09:42:14.813Z</time></trkpt><trkpt lat="43.4529263" lon="11.0828978"><ele>127.0</ele><time>2026-04-05T09:42:15.813Z</time></trkpt><trkpt lat="43.452941" lon="11.0826951"><ele>126.0</ele><time>2026-04-05T09:42:16.813Z</time></trkpt><trkpt lat="43.4529621" lon="11.0824789"><ele>125.0</ele><time>2026-04-05T09:42:17.813Z</time></trkpt><trkpt lat="43.4529878" lon="11.0822465"><ele>124.0</ele><time>2026-04-05T09:42:18.813Z</time></trkpt><trkpt lat="43.4530178" lon="11.0819951"><ele>123.0</ele><time>2026-04-05T09:42:19.813Z</time></trkpt><trkpt lat="43.4530542" lon="11.0817327"><ele>122.0</ele><time>2026-04-05T09:42:20.813Z</time></trkpt><trkpt lat="43.453091" lon="11.0814556"><ele>121.0</ele><time>2026-04-05T09:42:21.813Z</time></trkpt><trkpt lat="43.45313" lon="11.0811735"><ele>120.0</ele><time>2026-04-05T09:42:22.813Z</time></trkpt><trkpt lat="43.4531715" lon="11.0808921"><ele>119.0</ele><time>2026-04-05T09:42:23.813Z</time></trkpt><trkpt lat="43.4532157" lon="11.0806032"><ele>118.33333333333333</ele><time>2026-04-05T09:42:24.813Z</time></trkpt><trkpt lat="43.4532663" lon="11.0803168"><ele>117.66666666666666</ele><time>2026-04-05T09:42:25.813Z</time></trkpt><trkpt lat="43.4533147" lon="11.080028"><ele>117.0</ele><time>2026-04-05T09:42:26.813Z</time></trkpt><trkpt lat="43.4533545" lon="11.0797362"><ele>117.0</ele><time>2026-04-05T09:42:27.813Z</time></trkpt><trkpt lat="43.4533923" lon="11.0794409"><ele>117.0</ele><time>2026-04-05T09:42:28.813Z</time></trkpt><trkpt lat="43.4534318" lon="11.0791486"><ele>117.0</ele><time>2026-04-05T09:42:29.813Z</time></trkpt><trkpt lat="43.4534691" lon="11.0788599"><ele>117.66666666666666</ele><time>2026-04-05T09:42:30.813Z</time></trkpt><trkpt lat="43.453508" lon="11.0785733"><ele>118.33333333333333</ele><time>2026-04-05T09:42:31.813Z</time></trkpt><trkpt lat="43.4535491" lon="11.0782905"><ele>119.0</ele><time>2026-04-05T09:42:32.813Z</time></trkpt><trkpt lat="43.4535891" lon="11.07801"><ele>119.33333333333333</ele><time>2026-04-05T09:42:33.813Z</time></trkpt><trkpt lat="43.4536283" lon="11.0777286"><ele>119.66666666666666</ele><time>2026-04-05T09:42:34.813Z</time></trkpt><trkpt lat="43.4536656" lon="11.0774448"><ele>120.0</ele><time>2026-04-05T09:42:35.813Z</time></trkpt><trkpt lat="43.4537044" lon="11.0771607"><ele>120.33333333333334</ele><time>2026-04-05T09:42:36.813Z</time></trkpt><trkpt lat="43.4537423" lon="11.0768876"><ele>120.66666666666667</ele><time>2026-04-05T09:42:37.813Z</time></trkpt><trkpt lat="43.453779" lon="11.076634"><ele>121.0</ele><time>2026-04-05T09:42:38.813Z</time></trkpt><trkpt lat="43.453813" lon="11.0764005"><ele>124.33333333333334</ele><time>2026-04-05T09:42:39.813Z</time></trkpt><trkpt lat="43.4538432" lon="11.0761817"><ele>127.66666666666666</ele><time>2026-04-05T09:42:40.813Z</time></trkpt><trkpt lat="43.4538742" lon="11.0759772"><ele>131.0</ele><time>2026-04-05T09:42:41.813Z</time></trkpt><trkpt lat="43.4539156" lon="11.0757848"><ele>130.25</ele><time>2026-04-05T09:42:42.813Z</time></trkpt><trkpt lat="43.453972" lon="11.0755992"><ele>129.5</ele><time>2026-04-05T09:42:43.813Z</time></trkpt><trkpt lat="43.4540469" lon="11.0754229"><ele>128.75</ele><time>2026-04-05T09:42:44.813Z</time></trkpt><trkpt lat="43.4541425" lon="11.0752645"><ele>128.0</ele><time>2026-04-05T09:42:45.813Z</time></trkpt><trkpt lat="43.4542556" lon="11.0751201"><ele>128.0</ele><time>2026-04-05T09:42:46.813Z</time></trkpt><trkpt lat="43.4543825" lon="11.0749857"><ele>128.0</ele><time>2026-04-05T09:42:47.813Z</time></trkpt><trkpt lat="43.4545176" lon="11.0748673"><ele>128.0</ele><time>2026-04-05T09:42:48.812Z</time></trkpt><trkpt lat="43.4546551" lon="11.0747627"><ele>127.66666666666666</ele><time>2026-04-05T09:42:49.813Z</time></trkpt><trkpt lat="43.4547971" lon="11.0746679"><ele>127.33333333333334</ele><time>2026-04-05T09:42:50.813Z</time></trkpt><trkpt lat="43.4549455" lon="11.0745792"><ele>127.0</ele><time>2026-04-05T09:42:51.813Z</time></trkpt><trkpt lat="43.4550866" lon="11.0744696"><ele>127.0</ele><time>2026-04-05T09:42:52.813Z</time></trkpt><trkpt lat="43.4552305" lon="11.0743434"><ele>127.0</ele><time>2026-04-05T09:42:53.813Z</time></trkpt><trkpt lat="43.4553797" lon="11.0741866"><ele>127.0</ele><time>2026-04-05T09:42:54.813Z</time></trkpt><trkpt lat="43.4555296" lon="11.0740032"><ele>127.0</ele><time>2026-04-05T09:42:55.813Z</time></trkpt><trkpt lat="43.4556777" lon="11.0738094"><ele>127.0</ele><time>2026-04-05T09:42:56.813Z</time></trkpt><trkpt lat="43.4558359" lon="11.0736047"><ele>127.0</ele><time>2026-04-05T09:42:57.813Z</time></trkpt><trkpt lat="43.4560028" lon="11.0734041"><ele>127.0</ele><time>2026-04-05T09:42:58.813Z</time></trkpt><trkpt lat="43.4561633" lon="11.0732051"><ele>127.0</ele><time>2026-04-05T09:42:59.813Z</time></trkpt><trkpt lat="43.4563171" lon="11.0730022"><ele>127.0</ele><time>2026-04-05T09:43:00.813Z</time></trkpt><trkpt lat="43.4564656" lon="11.0728115"><ele>127.0</ele><time>2026-04-05T09:43:01.812Z</time></trkpt><trkpt lat="43.4566038" lon="11.0726333"><ele>127.0</ele><time>2026-04-05T09:43:02.813Z</time></trkpt><trkpt lat="43.4567317" lon="11.0724718"><ele>127.0</ele><time>2026-04-05T09:43:03.813Z</time></trkpt><trkpt lat="43.4568491" lon="11.0723197"><ele>127.0</ele><time>2026-04-05T09:43:04.813Z</time></trkpt><trkpt lat="43.4569475" lon="11.0721729"><ele>127.0</ele><time>2026-04-05T09:43:05.812Z</time></trkpt><trkpt lat="43.4570359" lon="11.0720321"><ele>127.0</ele><time>2026-04-05T09:43:06.813Z</time></trkpt><trkpt lat="43.457125" lon="11.0718766"><ele>127.0</ele><time>2026-04-05T09:43:07.813Z</time></trkpt><trkpt lat="43.4572136" lon="11.0717095"><ele>129.33333333333334</ele><time>2026-04-05T09:43:08.812Z</time></trkpt><trkpt lat="43.4573082" lon="11.0715251"><ele>131.66666666666666</ele><time>2026-04-05T09:43:09.813Z</time></trkpt><trkpt lat="43.4574125" lon="11.071334"><ele>134.0</ele><time>2026-04-05T09:43:10.813Z</time></trkpt><trkpt lat="43.4575209" lon="11.0711376"><ele>134.0</ele><time>2026-04-05T09:43:11.812Z</time></trkpt><trkpt lat="43.4576323" lon="11.0709345"><ele>134.0</ele><time>2026-04-05T09:43:12.813Z</time></trkpt><trkpt lat="43.4577473" lon="11.0707183"><ele>134.0</ele><time>2026-04-05T09:43:13.813Z</time></trkpt><trkpt lat="43.4578667" lon="11.0704953"><ele>134.0</ele><time>2026-04-05T09:43:14.813Z</time></trkpt><trkpt lat="43.4579848" lon="11.0702658"><ele>134.0</ele><time>2026-04-05T09:43:15.813Z</time></trkpt><trkpt lat="43.4581009" lon="11.0700356"><ele>134.0</ele><time>2026-04-05T09:43:16.813Z</time></trkpt><trkpt lat="43.4582143" lon="11.0698018"><ele>134.0</ele><time>2026-04-05T09:43:17.812Z</time></trkpt><trkpt lat="43.4583343" lon="11.0695706"><ele>134.0</ele><time>2026-04-05T09:43:18.813Z</time></trkpt><trkpt lat="43.4584552" lon="11.0693431"><ele>134.0</ele><time>2026-04-05T09:43:19.813Z</time></trkpt><trkpt lat="43.4585756" lon="11.0691146"><ele>135.0</ele><time>2026-04-05T09:43:20.813Z</time></trkpt><trkpt lat="43.4586964" lon="11.0688847"><ele>136.0</ele><time>2026-04-05T09:43:21.813Z</time></trkpt><trkpt lat="43.4588182" lon="11.068653"><ele>137.0</ele><time>2026-04-05T09:43:22.813Z</time></trkpt><trkpt lat="43.4589412" lon="11.0684163"><ele>137.33333333333331</ele><time>2026-04-05T09:43:23.813Z</time></trkpt><trkpt lat="43.4590637" lon="11.0681789"><ele>137.66666666666666</ele><time>2026-04-05T09:43:24.813Z</time></trkpt><trkpt lat="43.459182" lon="11.0679333"><ele>138.0</ele><time>2026-04-05T09:43:25.813Z</time></trkpt><trkpt lat="43.4592941" lon="11.0676794"><ele>138.66666666666666</ele><time>2026-04-05T09:43:26.813Z</time></trkpt><trkpt lat="43.4594003" lon="11.0674237"><ele>139.33333333333331</ele><time>2026-04-05T09:43:27.813Z</time></trkpt><trkpt lat="43.4594999" lon="11.0671709"><ele>140.0</ele><time>2026-04-05T09:43:28.813Z</time></trkpt><trkpt lat="43.4595959" lon="11.066929"><ele>140.33333333333331</ele><time>2026-04-05T09:43:29.813Z</time></trkpt><trkpt lat="43.4596875" lon="11.0666989"><ele>140.66666666666666</ele><time>2026-04-05T09:43:30.813Z</time></trkpt><trkpt lat="43.4597701" lon="11.0664726"><ele>141.0</ele><time>2026-04-05T09:43:31.813Z</time></trkpt><trkpt lat="43.4598363" lon="11.066255"><ele>141.0</ele><time>2026-04-05T09:43:32.813Z</time></trkpt><trkpt lat="43.4598793" lon="11.0660335"><ele>141.0</ele><time>2026-04-05T09:43:33.813Z</time></trkpt><trkpt lat="43.4598974" lon="11.065804"><ele>141.0</ele><time>2026-04-05T09:43:34.813Z</time></trkpt><trkpt lat="43.4598916" lon="11.0655626"><ele>143.33333333333334</ele><time>2026-04-05T09:43:35.813Z</time></trkpt><trkpt lat="43.4598737" lon="11.0653178"><ele>145.66666666666669</ele><time>2026-04-05T09:43:36.812Z</time></trkpt><trkpt lat="43.4598539" lon="11.0650712"><ele>148.0</ele><time>2026-04-05T09:43:37.813Z</time></trkpt><trkpt lat="43.4598324" lon="11.0648157"><ele>150.0</ele><time>2026-04-05T09:43:38.813Z</time></trkpt><trkpt lat="43.459812" lon="11.0645498"><ele>152.0</ele><time>2026-04-05T09:43:39.813Z</time></trkpt><trkpt lat="43.4597922" lon="11.0642872"><ele>154.0</ele><time>2026-04-05T09:43:40.813Z</time></trkpt><trkpt lat="43.4597768" lon="11.0640294"><ele>155.33333333333334</ele><time>2026-04-05T09:43:41.813Z</time></trkpt><trkpt lat="43.4597597" lon="11.0637865"><ele>156.66666666666666</ele><time>2026-04-05T09:43:42.813Z</time></trkpt><trkpt lat="43.4597171" lon="11.0635711"><ele>158.0</ele><time>2026-04-05T09:43:43.813Z</time></trkpt><trkpt lat="43.4596573" lon="11.0633762"><ele>159.33333333333331</ele><time>2026-04-05T09:43:44.813Z</time></trkpt><trkpt lat="43.4595781" lon="11.0631978"><ele>160.66666666666666</ele><time>2026-04-05T09:43:45.813Z</time></trkpt><trkpt lat="43.459477" lon="11.0630458"><ele>162.0</ele><time>2026-04-05T09:43:46.813Z</time></trkpt><trkpt lat="43.4593673" lon="11.0629074"><ele>162.0</ele><time>2026-04-05T09:43:47.813Z</time></trkpt><trkpt lat="43.4592637" lon="11.0627922"><ele>162.0</ele><time>2026-04-05T09:43:48.813Z</time></trkpt><trkpt lat="43.4591618" lon="11.0626775"><ele>162.0</ele><time>2026-04-05T09:43:49.813Z</time></trkpt><trkpt lat="43.4590796" lon="11.0625461"><ele>162.0</ele><time>2026-04-05T09:43:50.813Z</time></trkpt><trkpt lat="43.4590206" lon="11.062393"><ele>165.0</ele><time>2026-04-05T09:43:51.813Z</time></trkpt><trkpt lat="43.4589821" lon="11.0622189"><ele>168.0</ele><time>2026-04-05T09:43:52.813Z</time></trkpt><trkpt lat="43.4589554" lon="11.0620366"><ele>171.0</ele><time>2026-04-05T09:43:53.813Z</time></trkpt><trkpt lat="43.4589298" lon="11.0618509"><ele>174.0</ele><time>2026-04-05T09:43:54.813Z</time></trkpt><trkpt lat="43.4589038" lon="11.0616644"><ele>174.25</ele><time>2026-04-05T09:43:55.813Z</time></trkpt><trkpt lat="43.4588816" lon="11.0614818"><ele>174.5</ele><time>2026-04-05T09:43:56.813Z</time></trkpt><trkpt lat="43.4588688" lon="11.0612973"><ele>174.75</ele><time>2026-04-05T09:43:57.813Z</time></trkpt><trkpt lat="43.4588713" lon="11.0611086"><ele>175.0</ele><time>2026-04-05T09:43:58.813Z</time></trkpt><trkpt lat="43.4588939" lon="11.0609137"><ele>175.0</ele><time>2026-04-05T09:43:59.813Z</time></trkpt><trkpt lat="43.4589173" lon="11.0607006"><ele>175.0</ele><time>2026-04-05T09:44:00.813Z</time></trkpt><trkpt lat="43.458945" lon="11.0604684"><ele>175.0</ele><time>2026-04-05T09:44:01.813Z</time></trkpt><trkpt lat="43.4589754" lon="11.0602329"><ele>175.0</ele><time>2026-04-05T09:44:02.813Z</time></trkpt><trkpt lat="43.4590058" lon="11.0600067"><ele>175.0</ele><time>2026-04-05T09:44:03.813Z</time></trkpt><trkpt lat="43.4590377" lon="11.059787"><ele>175.0</ele><time>2026-04-05T09:44:04.813Z</time></trkpt><trkpt lat="43.4590711" lon="11.0595726"><ele>175.75</ele><time>2026-04-05T09:44:05.812Z</time></trkpt><trkpt lat="43.4591035" lon="11.0593648"><ele>176.5</ele><time>2026-04-05T09:44:06.813Z</time></trkpt><trkpt lat="43.4591341" lon="11.0591622"><ele>177.25</ele><time>2026-04-05T09:44:07.813Z</time></trkpt><trkpt lat="43.4591639" lon="11.0589682"><ele>178.0</ele><time>2026-04-05T09:44:08.813Z</time></trkpt><trkpt lat="43.4591885" lon="11.0587706"><ele>179.5</ele><time>2026-04-05T09:44:09.813Z</time></trkpt><trkpt lat="43.4591999" lon="11.0585705"><ele>181.0</ele><time>2026-04-05T09:44:10.813Z</time></trkpt><trkpt lat="43.4591943" lon="11.0583653"><ele>182.5</ele><time>2026-04-05T09:44:11.813Z</time></trkpt><trkpt lat="43.459171" lon="11.0581584"><ele>184.0</ele><time>2026-04-05T09:44:12.813Z</time></trkpt><trkpt lat="43.4591375" lon="11.057957"><ele>187.0</ele><time>2026-04-05T09:44:13.813Z</time></trkpt><trkpt lat="43.4590883" lon="11.0577655"><ele>190.0</ele><time>2026-04-05T09:44:14.812Z</time></trkpt><trkpt lat="43.4590262" lon="11.0575884"><ele>193.0</ele><time>2026-04-05T09:44:15.813Z</time></trkpt><trkpt lat="43.4589592" lon="11.0574211"><ele>196.0</ele><time>2026-04-05T09:44:16.813Z</time></trkpt><trkpt lat="43.4588931" lon="11.0572659"><ele>196.25</ele><time>2026-04-05T09:44:17.813Z</time></trkpt><trkpt lat="43.4588273" lon="11.0571126"><ele>196.5</ele><time>2026-04-05T09:44:18.813Z</time></trkpt><trkpt lat="43.4587684" lon="11.0569537"><ele>196.75</ele><time>2026-04-05T09:44:19.813Z</time></trkpt><trkpt lat="43.4587166" lon="11.0567833"><ele>197.0</ele><time>2026-04-05T09:44:20.813Z</time></trkpt><trkpt lat="43.458678" lon="11.0566112"><ele>197.0</ele><time>2026-04-05T09:44:21.814Z</time></trkpt><trkpt lat="43.4586449" lon="11.0564367"><ele>197.0</ele><time>2026-04-05T09:44:22.813Z</time></trkpt><trkpt lat="43.4586184" lon="11.056249"><ele>197.0</ele><time>2026-04-05T09:44:23.813Z</time></trkpt><trkpt lat="43.4586006" lon="11.0560498"><ele>197.0</ele><time>2026-04-05T09:44:24.813Z</time></trkpt><trkpt lat="43.4585923" lon="11.0558405"><ele>199.0</ele><time>2026-04-05T09:44:25.813Z</time></trkpt><trkpt lat="43.4585907" lon="11.0556191"><ele>201.0</ele><time>2026-04-05T09:44:26.813Z</time></trkpt><trkpt lat="43.4585879" lon="11.0553931"><ele>203.0</ele><time>2026-04-05T09:44:27.813Z</time></trkpt><trkpt lat="43.458595" lon="11.0551801"><ele>203.0</ele><time>2026-04-05T09:44:28.813Z</time></trkpt><trkpt lat="43.4586027" lon="11.0549722"><ele>203.0</ele><time>2026-04-05T09:44:29.813Z</time></trkpt><trkpt lat="43.4586097" lon="11.0547535"><ele>203.0</ele><time>2026-04-05T09:44:30.813Z</time></trkpt><trkpt lat="43.4586115" lon="11.0545189"><ele>204.0</ele><time>2026-04-05T09:44:31.812Z</time></trkpt><trkpt lat="43.4586182" lon="11.0542718"><ele>205.0</ele><time>2026-04-05T09:44:32.813Z</time></trkpt><trkpt lat="43.4586268" lon="11.0540172"><ele>206.0</ele><time>2026-04-05T09:44:33.813Z</time></trkpt><trkpt lat="43.4586348" lon="11.0537603"><ele>207.66666666666669</ele><time>2026-04-05T09:44:34.812Z</time></trkpt><trkpt lat="43.458639" lon="11.0534995"><ele>209.33333333333331</ele><time>2026-04-05T09:44:35.813Z</time></trkpt><trkpt lat="43.4586423" lon="11.0532353"><ele>211.0</ele><time>2026-04-05T09:44:36.813Z</time></trkpt><trkpt lat="43.4586461" lon="11.0529656"><ele>211.66666666666666</ele><time>2026-04-05T09:44:37.813Z</time></trkpt><trkpt lat="43.4586514" lon="11.0526919"><ele>212.33333333333331</ele><time>2026-04-05T09:44:38.812Z</time></trkpt><trkpt lat="43.4586556" lon="11.0524217"><ele>213.0</ele><time>2026-04-05T09:44:39.813Z</time></trkpt><trkpt lat="43.4586621" lon="11.0521624"><ele>214.66666666666669</ele><time>2026-04-05T09:44:40.813Z</time></trkpt><trkpt lat="43.4586656" lon="11.0519215"><ele>216.33333333333334</ele><time>2026-04-05T09:44:41.813Z</time></trkpt><trkpt lat="43.4586695" lon="11.0516966"><ele>218.0</ele><time>2026-04-05T09:44:42.813Z</time></trkpt><trkpt lat="43.458675" lon="11.0514736"><ele>219.0</ele><time>2026-04-05T09:44:43.813Z</time></trkpt><trkpt lat="43.4586746" lon="11.0512565"><ele>220.0</ele><time>2026-04-05T09:44:44.813Z</time></trkpt><trkpt lat="43.4586686" lon="11.0510506"><ele>221.0</ele><time>2026-04-05T09:44:45.813Z</time></trkpt><trkpt lat="43.4586687" lon="11.0508481"><ele>220.0</ele><time>2026-04-05T09:44:46.813Z</time></trkpt><trkpt lat="43.4586888" lon="11.0506424"><ele>219.0</ele><time>2026-04-05T09:44:47.812Z</time></trkpt><trkpt lat="43.45873" lon="11.0504365"><ele>218.0</ele><time>2026-04-05T09:44:48.813Z</time></trkpt><trkpt lat="43.4587839" lon="11.0502306"><ele>223.5</ele><time>2026-04-05T09:44:49.812Z</time></trkpt><trkpt lat="43.4588438" lon="11.0500263"><ele>229.0</ele><time>2026-04-05T09:44:50.813Z</time></trkpt><trkpt lat="43.4588941" lon="11.0498338"><ele>234.5</ele><time>2026-04-05T09:44:51.813Z</time></trkpt><trkpt lat="43.4589317" lon="11.0496591"><ele>240.0</ele><time>2026-04-05T09:44:52.813Z</time></trkpt><trkpt lat="43.4589593" lon="11.0494828"><ele>240.0</ele><time>2026-04-05T09:44:53.813Z</time></trkpt><trkpt lat="43.4589849" lon="11.0493014"><ele>240.0</ele><time>2026-04-05T09:44:54.813Z</time></trkpt><trkpt lat="43.4590169" lon="11.0491277"><ele>240.0</ele><time>2026-04-05T09:44:55.813Z</time></trkpt><trkpt lat="43.4590483" lon="11.048968"><ele>240.0</ele><time>2026-04-05T09:44:56.813Z</time></trkpt><trkpt lat="43.4590949" lon="11.0488234"><ele>239.0</ele><time>2026-04-05T09:44:57.813Z</time></trkpt><trkpt lat="43.4591658" lon="11.048687"><ele>238.0</ele><time>2026-04-05T09:44:58.813Z</time></trkpt><trkpt lat="43.4592593" lon="11.0485621"><ele>237.0</ele><time>2026-04-05T09:44:59.813Z</time></trkpt><trkpt lat="43.4593656" lon="11.0484354"><ele>236.0</ele><time>2026-04-05T09:45:00.813Z</time></trkpt><trkpt lat="43.4594755" lon="11.0483001"><ele>235.0</ele><time>2026-04-05T09:45:01.812Z</time></trkpt><trkpt lat="43.4595853" lon="11.0481662"><ele>234.0</ele><time>2026-04-05T09:45:02.813Z</time></trkpt><trkpt lat="43.459688" lon="11.0480369"><ele>233.0</ele><time>2026-04-05T09:45:03.813Z</time></trkpt><trkpt lat="43.4597794" lon="11.0479219"><ele>232.0</ele><time>2026-04-05T09:45:04.813Z</time></trkpt><trkpt lat="43.4598646" lon="11.0478243"><ele>233.8</ele><time>2026-04-05T09:45:05.813Z</time></trkpt><trkpt lat="43.4599503" lon="11.0477283"><ele>235.6</ele><time>2026-04-05T09:45:06.813Z</time></trkpt><trkpt lat="43.4600335" lon="11.0476314"><ele>237.40000000000003</ele><time>2026-04-05T09:45:07.813Z</time></trkpt><trkpt lat="43.4601069" lon="11.0475444"><ele>239.20000000000002</ele><time>2026-04-05T09:45:08.813Z</time></trkpt><trkpt lat="43.4601701" lon="11.0474668"><ele>241.0</ele><time>2026-04-05T09:45:09.813Z</time></trkpt><trkpt lat="43.4602245" lon="11.0473961"><ele>240.99999999999997</ele><time>2026-04-05T09:45:10.813Z</time></trkpt><trkpt lat="43.4602708" lon="11.0473366"><ele>241.0</ele><time>2026-04-05T09:45:11.813Z</time></trkpt><trkpt lat="43.4603479" lon="11.0472495"><ele>241.0</ele><time>2026-04-05T09:45:13.813Z</time></trkpt><trkpt lat="43.4604155" lon="11.0471648"><ele>241.0</ele><time>2026-04-05T09:45:15.813Z</time></trkpt><trkpt lat="43.4604712" lon="11.047096"><ele>240.99999999999997</ele><time>2026-04-05T09:45:16.813Z</time></trkpt><trkpt lat="43.4605358" lon="11.0470144"><ele>241.0</ele><time>2026-04-05T09:45:17.812Z</time></trkpt><trkpt lat="43.4606131" lon="11.0469316"><ele>242.66666666666666</ele><time>2026-04-05T09:45:18.813Z</time></trkpt><trkpt lat="43.4606941" lon="11.0468504"><ele>244.33333333333331</ele><time>2026-04-05T09:45:19.813Z</time></trkpt><trkpt lat="43.460766" lon="11.046783"><ele>246.0</ele><time>2026-04-05T09:45:20.813Z</time></trkpt><trkpt lat="43.4608303" lon="11.0467223"><ele>247.66666666666669</ele><time>2026-04-05T09:45:21.813Z</time></trkpt><trkpt lat="43.4608934" lon="11.046658"><ele>249.33333333333334</ele><time>2026-04-05T09:45:22.813Z</time></trkpt><trkpt lat="43.4609573" lon="11.0465945"><ele>251.0</ele><time>2026-04-05T09:45:23.813Z</time></trkpt><trkpt lat="43.4610221" lon="11.0465233"><ele>251.0</ele><time>2026-04-05T09:45:24.813Z</time></trkpt><trkpt lat="43.4610891" lon="11.0464507"><ele>251.00000000000003</ele><time>2026-04-05T09:45:25.812Z</time></trkpt><trkpt lat="43.4611617" lon="11.0463748"><ele>251.00000000000003</ele><time>2026-04-05T09:45:26.813Z</time></trkpt><trkpt lat="43.4612357" lon="11.0462943"><ele>251.0</ele><time>2026-04-05T09:45:27.813Z</time></trkpt><trkpt lat="43.4613089" lon="11.0462136"><ele>251.0</ele><time>2026-04-05T09:45:28.813Z</time></trkpt><trkpt lat="43.4613754" lon="11.0461217"><ele>253.0</ele><time>2026-04-05T09:45:29.813Z</time></trkpt><trkpt lat="43.4614374" lon="11.0460117"><ele>255.00000000000003</ele><time>2026-04-05T09:45:30.813Z</time></trkpt><trkpt lat="43.4614948" lon="11.0458832"><ele>257.0</ele><time>2026-04-05T09:45:31.813Z</time></trkpt><trkpt lat="43.4615425" lon="11.0457396"><ele>259.0</ele><time>2026-04-05T09:45:32.813Z</time></trkpt><trkpt lat="43.4615789" lon="11.0455798"><ele>261.0</ele><time>2026-04-05T09:45:33.813Z</time></trkpt><trkpt lat="43.4616073" lon="11.0454133"><ele>261.0</ele><time>2026-04-05T09:45:34.813Z</time></trkpt><trkpt lat="43.4616301" lon="11.0452428"><ele>261.0</ele><time>2026-04-05T09:45:35.813Z</time></trkpt><trkpt lat="43.4616523" lon="11.0450729"><ele>261.0</ele><time>2026-04-05T09:45:36.812Z</time></trkpt><trkpt lat="43.4616729" lon="11.0449014"><ele>261.0</ele><time>2026-04-05T09:45:37.813Z</time></trkpt><trkpt lat="43.4616859" lon="11.0447293"><ele>262.75</ele><time>2026-04-05T09:45:38.813Z</time></trkpt><trkpt lat="43.4616885" lon="11.0445587"><ele>264.5</ele><time>2026-04-05T09:45:39.813Z</time></trkpt><trkpt lat="43.4616824" lon="11.0443911"><ele>266.25</ele><time>2026-04-05T09:45:40.813Z</time></trkpt><trkpt lat="43.4616722" lon="11.0442286"><ele>268.0</ele><time>2026-04-05T09:45:41.813Z</time></trkpt><trkpt lat="43.4616575" lon="11.0440628"><ele>270.0</ele><time>2026-04-05T09:45:42.813Z</time></trkpt><trkpt lat="43.4616392" lon="11.0439035"><ele>272.0</ele><time>2026-04-05T09:45:43.813Z</time></trkpt><trkpt lat="43.4616192" lon="11.0437354"><ele>274.0</ele><time>2026-04-05T09:45:44.813Z</time></trkpt><trkpt lat="43.4616008" lon="11.0435761"><ele>276.0</ele><time>2026-04-05T09:45:45.813Z</time></trkpt><trkpt lat="43.4615872" lon="11.0434318"><ele>276.0</ele><time>2026-04-05T09:45:46.813Z</time></trkpt><trkpt lat="43.4615805" lon="11.043292"><ele>276.0</ele><time>2026-04-05T09:45:47.813Z</time></trkpt><trkpt lat="43.46158" lon="11.0431486"><ele>276.0</ele><time>2026-04-05T09:45:48.813Z</time></trkpt><trkpt lat="43.4615881" lon="11.0430021"><ele>276.0</ele><time>2026-04-05T09:45:49.813Z</time></trkpt><trkpt lat="43.4616057" lon="11.0428553"><ele>276.0</ele><time>2026-04-05T09:45:50.812Z</time></trkpt><trkpt lat="43.4616271" lon="11.0427164"><ele>276.0</ele><time>2026-04-05T09:45:51.813Z</time></trkpt><trkpt lat="43.4616588" lon="11.0425787"><ele>276.0</ele><time>2026-04-05T09:45:52.812Z</time></trkpt><trkpt lat="43.4616884" lon="11.0424544"><ele>276.0</ele><time>2026-04-05T09:45:53.813Z</time></trkpt><trkpt lat="43.4617239" lon="11.0423495"><ele>276.0</ele><time>2026-04-05T09:45:54.813Z</time></trkpt><trkpt lat="43.4617706" lon="11.0422496"><ele>276.0</ele><time>2026-04-05T09:45:55.813Z</time></trkpt><trkpt lat="43.4618202" lon="11.0421547"><ele>275.6666666666667</ele><time>2026-04-05T09:45:56.813Z</time></trkpt><trkpt lat="43.4618749" lon="11.0420588"><ele>275.3333333333333</ele><time>2026-04-05T09:45:57.813Z</time></trkpt><trkpt lat="43.4619282" lon="11.0419752"><ele>275.0</ele><time>2026-04-05T09:45:58.813Z</time></trkpt><trkpt lat="43.4619829" lon="11.0419029"><ele>274.66666666666663</ele><time>2026-04-05T09:45:59.813Z</time></trkpt><trkpt lat="43.46204" lon="11.0418327"><ele>274.3333333333333</ele><time>2026-04-05T09:46:00.813Z</time></trkpt><trkpt lat="43.4621036" lon="11.0417678"><ele>274.0</ele><time>2026-04-05T09:46:01.813Z</time></trkpt><trkpt lat="43.4621692" lon="11.0417105"><ele>273.8</ele><time>2026-04-05T09:46:02.813Z</time></trkpt><trkpt lat="43.4622242" lon="11.0416535"><ele>273.59999999999997</ele><time>2026-04-05T09:46:03.813Z</time></trkpt><trkpt lat="43.462244" lon="11.0414999"><ele>273.4</ele><time>2026-04-05T09:46:05.813Z</time></trkpt><trkpt lat="43.4621511" lon="11.0413852"><ele>273.2</ele><time>2026-04-05T09:46:07.813Z</time></trkpt><trkpt lat="43.4620795" lon="11.0413465"><ele>273.0</ele><time>2026-04-05T09:46:08.813Z</time></trkpt><trkpt lat="43.4620145" lon="11.0413139"><ele>273.0</ele><time>2026-04-05T09:46:09.813Z</time></trkpt><trkpt lat="43.4619484" lon="11.0412632"><ele>273.0</ele><time>2026-04-05T09:46:10.813Z</time></trkpt><trkpt lat="43.4618775" lon="11.041185"><ele>273.0</ele><time>2026-04-05T09:46:11.813Z</time></trkpt><trkpt lat="43.4618075" lon="11.0410893"><ele>273.0</ele><time>2026-04-05T09:46:12.813Z</time></trkpt><trkpt lat="43.4617386" lon="11.0409899"><ele>273.0</ele><time>2026-04-05T09:46:13.813Z</time></trkpt><trkpt lat="43.4616694" lon="11.0408963"><ele>273.0</ele><time>2026-04-05T09:46:14.813Z</time></trkpt><trkpt lat="43.4615996" lon="11.0408087"><ele>273.0</ele><time>2026-04-05T09:46:15.813Z</time></trkpt><trkpt lat="43.4615265" lon="11.0407246"><ele>273.0</ele><time>2026-04-05T09:46:16.813Z</time></trkpt><trkpt lat="43.4614515" lon="11.0406355"><ele>273.0</ele><time>2026-04-05T09:46:17.813Z</time></trkpt><trkpt lat="43.4613733" lon="11.0405429"><ele>273.0</ele><time>2026-04-05T09:46:18.813Z</time></trkpt><trkpt lat="43.4612937" lon="11.0404497"><ele>272.1666666666667</ele><time>2026-04-05T09:46:19.813Z</time></trkpt><trkpt lat="43.4612173" lon="11.0403583"><ele>271.3333333333333</ele><time>2026-04-05T09:46:20.813Z</time></trkpt><trkpt lat="43.4611429" lon="11.0402745"><ele>270.5</ele><time>2026-04-05T09:46:21.813Z</time></trkpt><trkpt lat="43.4610704" lon="11.0402052"><ele>269.66666666666663</ele><time>2026-04-05T09:46:22.813Z</time></trkpt><trkpt lat="43.461002" lon="11.0401611"><ele>268.8333333333333</ele><time>2026-04-05T09:46:23.813Z</time></trkpt><trkpt lat="43.4609392" lon="11.0401262"><ele>268.0</ele><time>2026-04-05T09:46:25.813Z</time></trkpt><trkpt lat="43.4608604" lon="11.040106"><ele>268.0</ele><time>2026-04-05T09:46:32.812Z</time></trkpt><trkpt lat="43.4607291" lon="11.0400895"><ele>268.0</ele><time>2026-04-05T09:46:34.813Z</time></trkpt><trkpt lat="43.4606146" lon="11.0400781"><ele>268.0</ele><time>2026-04-05T09:46:36.813Z</time></trkpt><trkpt lat="43.4605257" lon="11.04005"><ele>268.0</ele><time>2026-04-05T09:46:38.813Z</time></trkpt><trkpt lat="43.4604675" lon="11.0399838"><ele>268.0</ele><time>2026-04-05T09:46:40.813Z</time></trkpt><trkpt lat="43.4604109" lon="11.0398978"><ele>266.8</ele><time>2026-04-05T09:46:42.813Z</time></trkpt><trkpt lat="43.460333" lon="11.0398308"><ele>265.6</ele><time>2026-04-05T09:46:44.812Z</time></trkpt><trkpt lat="43.4602396" lon="11.0398367"><ele>264.4</ele><time>2026-04-05T09:46:46.813Z</time></trkpt><trkpt lat="43.4601561" lon="11.0399023"><ele>263.2</ele><time>2026-04-05T09:46:48.813Z</time></trkpt><trkpt lat="43.4600616" lon="11.0399835"><ele>262.0</ele><time>2026-04-05T09:46:50.813Z</time></trkpt><trkpt lat="43.4599283" lon="11.0400126"><ele>262.0</ele><time>2026-04-05T09:46:52.813Z</time></trkpt><trkpt lat="43.4598444" lon="11.039989"><ele>262.0</ele><time>2026-04-05T09:46:53.813Z</time></trkpt><trkpt lat="43.459758" lon="11.0399368"><ele>262.0</ele><time>2026-04-05T09:46:54.813Z</time></trkpt><trkpt lat="43.4596678" lon="11.0398599"><ele>262.0</ele><time>2026-04-05T09:46:55.813Z</time></trkpt><trkpt lat="43.4595768" lon="11.0397671"><ele>262.0</ele><time>2026-04-05T09:46:56.813Z</time></trkpt><trkpt lat="43.4594834" lon="11.0396581"><ele>259.75</ele><time>2026-04-05T09:46:57.813Z</time></trkpt><trkpt lat="43.4593806" lon="11.0395518"><ele>257.5</ele><time>2026-04-05T09:46:58.813Z</time></trkpt><trkpt lat="43.4592739" lon="11.0394608"><ele>255.25</ele><time>2026-04-05T09:46:59.812Z</time></trkpt><trkpt lat="43.4591613" lon="11.0393832"><ele>253.0</ele><time>2026-04-05T09:47:00.813Z</time></trkpt><trkpt lat="43.459037" lon="11.0393171"><ele>253.0</ele><time>2026-04-05T09:47:01.813Z</time></trkpt><trkpt lat="43.4589036" lon="11.0392528"><ele>253.0</ele><time>2026-04-05T09:47:02.813Z</time></trkpt><trkpt lat="43.4587691" lon="11.0391823"><ele>253.0</ele><time>2026-04-05T09:47:03.813Z</time></trkpt><trkpt lat="43.4586353" lon="11.0390971"><ele>253.0</ele><time>2026-04-05T09:47:04.813Z</time></trkpt><trkpt lat="43.4585061" lon="11.0389934"><ele>249.75</ele><time>2026-04-05T09:47:05.813Z</time></trkpt><trkpt lat="43.4583817" lon="11.0388831"><ele>246.5</ele><time>2026-04-05T09:47:06.813Z</time></trkpt><trkpt lat="43.4582568" lon="11.0387748"><ele>243.25</ele><time>2026-04-05T09:47:07.813Z</time></trkpt><trkpt lat="43.458125" lon="11.0386718"><ele>240.0</ele><time>2026-04-05T09:47:08.813Z</time></trkpt><trkpt lat="43.4579813" lon="11.0385876"><ele>240.33333333333331</ele><time>2026-04-05T09:47:09.813Z</time></trkpt><trkpt lat="43.4578283" lon="11.0385238"><ele>240.66666666666666</ele><time>2026-04-05T09:47:10.813Z</time></trkpt><trkpt lat="43.45767" lon="11.0384751"><ele>241.0</ele><time>2026-04-05T09:47:11.813Z</time></trkpt><trkpt lat="43.4575104" lon="11.0384331"><ele>241.0</ele><time>2026-04-05T09:47:12.813Z</time></trkpt><trkpt lat="43.4573543" lon="11.0383982"><ele>241.0</ele><time>2026-04-05T09:47:13.813Z</time></trkpt><trkpt lat="43.4571936" lon="11.0383845"><ele>241.0</ele><time>2026-04-05T09:47:14.813Z</time></trkpt><trkpt lat="43.4570333" lon="11.0384065"><ele>240.0</ele><time>2026-04-05T09:47:15.813Z</time></trkpt><trkpt lat="43.4568705" lon="11.0384559"><ele>239.0</ele><time>2026-04-05T09:47:16.813Z</time></trkpt><trkpt lat="43.4567115" lon="11.038511"><ele>238.0</ele><time>2026-04-05T09:47:17.813Z</time></trkpt><trkpt lat="43.4565501" lon="11.0385592"><ele>238.0</ele><time>2026-04-05T09:47:18.813Z</time></trkpt><trkpt lat="43.4563886" lon="11.0385979"><ele>238.0</ele><time>2026-04-05T09:47:19.813Z</time></trkpt><trkpt lat="43.4562281" lon="11.0386099"><ele>238.0</ele><time>2026-04-05T09:47:20.813Z</time></trkpt><trkpt lat="43.456067" lon="11.0385872"><ele>235.0</ele><time>2026-04-05T09:47:21.812Z</time></trkpt><trkpt lat="43.4559021" lon="11.0385329"><ele>232.0</ele><time>2026-04-05T09:47:22.813Z</time></trkpt><trkpt lat="43.455736" lon="11.0384584"><ele>229.0</ele><time>2026-04-05T09:47:23.813Z</time></trkpt><trkpt lat="43.4555674" lon="11.0383728"><ele>227.0</ele><time>2026-04-05T09:47:24.813Z</time></trkpt><trkpt lat="43.4553951" lon="11.0382862"><ele>225.0</ele><time>2026-04-05T09:47:25.813Z</time></trkpt><trkpt lat="43.4552247" lon="11.0382011"><ele>223.0</ele><time>2026-04-05T09:47:26.812Z</time></trkpt><trkpt lat="43.4550578" lon="11.0381193"><ele>223.0</ele><time>2026-04-05T09:47:27.813Z</time></trkpt><trkpt lat="43.454896" lon="11.0380373"><ele>223.0</ele><time>2026-04-05T09:47:28.813Z</time></trkpt><trkpt lat="43.4547387" lon="11.0379603"><ele>223.0</ele><time>2026-04-05T09:47:29.813Z</time></trkpt><trkpt lat="43.4545991" lon="11.0378869"><ele>223.0</ele><time>2026-04-05T09:47:30.813Z</time></trkpt><trkpt lat="43.4544797" lon="11.0378059"><ele>223.0</ele><time>2026-04-05T09:47:31.813Z</time></trkpt><trkpt lat="43.454385" lon="11.0377042"><ele>223.0</ele><time>2026-04-05T09:47:32.813Z</time></trkpt><trkpt lat="43.4543167" lon="11.0375762"><ele>223.0</ele><time>2026-04-05T09:47:33.813Z</time></trkpt><trkpt lat="43.4542769" lon="11.0374232"><ele>221.75</ele><time>2026-04-05T09:47:34.813Z</time></trkpt><trkpt lat="43.4542717" lon="11.0372638"><ele>220.5</ele><time>2026-04-05T09:47:35.813Z</time></trkpt><trkpt lat="43.4543046" lon="11.0371053"><ele>219.25</ele><time>2026-04-05T09:47:36.813Z</time></trkpt><trkpt lat="43.4543696" lon="11.0369666"><ele>218.0</ele><time>2026-04-05T09:47:37.813Z</time></trkpt><trkpt lat="43.4544565" lon="11.0368567"><ele>218.0</ele><time>2026-04-05T09:47:38.813Z</time></trkpt><trkpt lat="43.4545644" lon="11.0367763"><ele>218.0</ele><time>2026-04-05T09:47:39.812Z</time></trkpt><trkpt lat="43.4546866" lon="11.036702"><ele>218.0</ele><time>2026-04-05T09:47:40.813Z</time></trkpt><trkpt lat="43.4548181" lon="11.0366334"><ele>218.0</ele><time>2026-04-05T09:47:41.813Z</time></trkpt><trkpt lat="43.4549512" lon="11.0365645"><ele>217.25</ele><time>2026-04-05T09:47:42.813Z</time></trkpt><trkpt lat="43.4550779" lon="11.0364974"><ele>216.5</ele><time>2026-04-05T09:47:43.813Z</time></trkpt><trkpt lat="43.4551998" lon="11.0364268"><ele>215.75</ele><time>2026-04-05T09:47:44.813Z</time></trkpt><trkpt lat="43.4553283" lon="11.0363499"><ele>215.0</ele><time>2026-04-05T09:47:45.813Z</time></trkpt><trkpt lat="43.4554686" lon="11.0362711"><ele>215.0</ele><time>2026-04-05T09:47:46.813Z</time></trkpt><trkpt lat="43.455619" lon="11.0361863"><ele>215.0</ele><time>2026-04-05T09:47:47.813Z</time></trkpt><trkpt lat="43.455774" lon="11.0360947"><ele>215.0</ele><time>2026-04-05T09:47:48.813Z</time></trkpt><trkpt lat="43.4559334" lon="11.036002"><ele>215.0</ele><time>2026-04-05T09:47:49.813Z</time></trkpt><trkpt lat="43.4560942" lon="11.0359085"><ele>215.0</ele><time>2026-04-05T09:47:50.813Z</time></trkpt><trkpt lat="43.4562478" lon="11.0358186"><ele>215.0</ele><time>2026-04-05T09:47:51.813Z</time></trkpt><trkpt lat="43.4563934" lon="11.0357349"><ele>215.5</ele><time>2026-04-05T09:47:52.813Z</time></trkpt><trkpt lat="43.4565252" lon="11.0356533"><ele>216.0</ele><time>2026-04-05T09:47:53.813Z</time></trkpt><trkpt lat="43.4566329" lon="11.0355653"><ele>216.5</ele><time>2026-04-05T09:47:54.813Z</time></trkpt><trkpt lat="43.4567157" lon="11.0354553"><ele>217.0</ele><time>2026-04-05T09:47:55.813Z</time></trkpt><trkpt lat="43.4567635" lon="11.0353247"><ele>217.0</ele><time>2026-04-05T09:47:56.813Z</time></trkpt><trkpt lat="43.4567861" lon="11.0351769"><ele>217.0</ele><time>2026-04-05T09:47:57.813Z</time></trkpt><trkpt lat="43.4567729" lon="11.0350282"><ele>217.0</ele><time>2026-04-05T09:47:58.813Z</time></trkpt><trkpt lat="43.4567272" lon="11.0348944"><ele>217.0</ele><time>2026-04-05T09:47:59.813Z</time></trkpt><trkpt lat="43.4566567" lon="11.0347863"><ele>217.0</ele><time>2026-04-05T09:48:00.813Z</time></trkpt><trkpt lat="43.4565626" lon="11.034712"><ele>218.75</ele><time>2026-04-05T09:48:01.813Z</time></trkpt><trkpt lat="43.4564543" lon="11.0346743"><ele>220.5</ele><time>2026-04-05T09:48:02.813Z</time></trkpt><trkpt lat="43.4563429" lon="11.0346764"><ele>222.25</ele><time>2026-04-05T09:48:03.813Z</time></trkpt><trkpt lat="43.4562297" lon="11.0347241"><ele>224.0</ele><time>2026-04-05T09:48:04.813Z</time></trkpt><trkpt lat="43.4561178" lon="11.0347734"><ele>224.0</ele><time>2026-04-05T09:48:05.813Z</time></trkpt><trkpt lat="43.4559997" lon="11.0347933"><ele>224.0</ele><time>2026-04-05T09:48:06.813Z</time></trkpt><trkpt lat="43.455884" lon="11.0347523"><ele>224.0</ele><time>2026-04-05T09:48:07.813Z</time></trkpt><trkpt lat="43.4557744" lon="11.0346729"><ele>224.0</ele><time>2026-04-05T09:48:08.813Z</time></trkpt><trkpt lat="43.4556653" lon="11.0345568"><ele>224.0</ele><time>2026-04-05T09:48:09.813Z</time></trkpt><trkpt lat="43.4555629" lon="11.0344195"><ele>224.0</ele><time>2026-04-05T09:48:10.813Z</time></trkpt><trkpt lat="43.4554606" lon="11.0342749"><ele>224.0</ele><time>2026-04-05T09:48:11.813Z</time></trkpt><trkpt lat="43.4553578" lon="11.0341282"><ele>224.0</ele><time>2026-04-05T09:48:12.813Z</time></trkpt><trkpt lat="43.4552548" lon="11.033982"><ele>226.25</ele><time>2026-04-05T09:48:13.813Z</time></trkpt><trkpt lat="43.4551465" lon="11.0338491"><ele>228.5</ele><time>2026-04-05T09:48:14.813Z</time></trkpt><trkpt lat="43.4550323" lon="11.0337522"><ele>230.75</ele><time>2026-04-05T09:48:15.812Z</time></trkpt><trkpt lat="43.45491" lon="11.0336991"><ele>233.0</ele><time>2026-04-05T09:48:16.813Z</time></trkpt><trkpt lat="43.4547797" lon="11.0336957"><ele>233.0</ele><time>2026-04-05T09:48:17.813Z</time></trkpt><trkpt lat="43.454649" lon="11.0337284"><ele>233.0</ele><time>2026-04-05T09:48:18.813Z</time></trkpt><trkpt lat="43.4545197" lon="11.0338032"><ele>233.0</ele><time>2026-04-05T09:48:19.813Z</time></trkpt><trkpt lat="43.4543923" lon="11.0338976"><ele>233.0</ele><time>2026-04-05T09:48:20.813Z</time></trkpt><trkpt lat="43.4542625" lon="11.0339976"><ele>232.0</ele><time>2026-04-05T09:48:21.813Z</time></trkpt><trkpt lat="43.4541316" lon="11.0340956"><ele>231.0</ele><time>2026-04-05T09:48:22.813Z</time></trkpt><trkpt lat="43.4540065" lon="11.0341864"><ele>230.0</ele><time>2026-04-05T09:48:23.813Z</time></trkpt><trkpt lat="43.4538814" lon="11.0342462"><ele>229.0</ele><time>2026-04-05T09:48:24.813Z</time></trkpt><trkpt lat="43.4537534" lon="11.0342653"><ele>229.0</ele><time>2026-04-05T09:48:25.813Z</time></trkpt><trkpt lat="43.4536445" lon="11.0342313"><ele>229.0</ele><time>2026-04-05T09:48:26.813Z</time></trkpt><trkpt lat="43.4535499" lon="11.0341511"><ele>229.0</ele><time>2026-04-05T09:48:27.813Z</time></trkpt><trkpt lat="43.4534781" lon="11.0340329"><ele>229.0</ele><time>2026-04-05T09:48:28.813Z</time></trkpt><trkpt lat="43.4534344" lon="11.0338862"><ele>230.5</ele><time>2026-04-05T09:48:29.813Z</time></trkpt><trkpt lat="43.4534125" lon="11.0337122"><ele>232.0</ele><time>2026-04-05T09:48:30.813Z</time></trkpt><trkpt lat="43.4534044" lon="11.033527"><ele>233.5</ele><time>2026-04-05T09:48:31.813Z</time></trkpt><trkpt lat="43.4534008" lon="11.0333266"><ele>235.0</ele><time>2026-04-05T09:48:32.812Z</time></trkpt><trkpt lat="43.4533975" lon="11.0331106"><ele>237.33333333333331</ele><time>2026-04-05T09:48:33.813Z</time></trkpt><trkpt lat="43.4533912" lon="11.0328862"><ele>239.66666666666669</ele><time>2026-04-05T09:48:34.813Z</time></trkpt><trkpt lat="43.453387" lon="11.0326542"><ele>242.0</ele><time>2026-04-05T09:48:35.813Z</time></trkpt><trkpt lat="43.4533812" lon="11.0324165"><ele>244.0</ele><time>2026-04-05T09:48:36.813Z</time></trkpt><trkpt lat="43.4533663" lon="11.0321747"><ele>246.0</ele><time>2026-04-05T09:48:37.813Z</time></trkpt><trkpt lat="43.4533412" lon="11.0319287"><ele>248.0</ele><time>2026-04-05T09:48:38.813Z</time></trkpt><trkpt lat="43.4533089" lon="11.0316807"><ele>251.0</ele><time>2026-04-05T09:48:39.813Z</time></trkpt><trkpt lat="43.4532709" lon="11.0314345"><ele>254.0</ele><time>2026-04-05T09:48:40.812Z</time></trkpt><trkpt lat="43.4532333" lon="11.0311865"><ele>257.0</ele><time>2026-04-05T09:48:41.813Z</time></trkpt><trkpt lat="43.4531979" lon="11.0309375"><ele>259.33333333333337</ele><time>2026-04-05T09:48:42.813Z</time></trkpt><trkpt lat="43.4531611" lon="11.030688"><ele>261.6666666666667</ele><time>2026-04-05T09:48:43.813Z</time></trkpt><trkpt lat="43.4531231" lon="11.0304412"><ele>264.0</ele><time>2026-04-05T09:48:44.813Z</time></trkpt><trkpt lat="43.4530868" lon="11.0302023"><ele>264.3333333333333</ele><time>2026-04-05T09:48:45.813Z</time></trkpt><trkpt lat="43.4530617" lon="11.0299715"><ele>264.66666666666663</ele><time>2026-04-05T09:48:46.813Z</time></trkpt><trkpt lat="43.4530584" lon="11.0297461"><ele>265.0</ele><time>2026-04-05T09:48:47.813Z</time></trkpt><trkpt lat="43.4530865" lon="11.0295199"><ele>265.0</ele><time>2026-04-05T09:48:48.813Z</time></trkpt><trkpt lat="43.4531387" lon="11.0292918"><ele>265.0</ele><time>2026-04-05T09:48:49.813Z</time></trkpt><trkpt lat="43.453208" lon="11.0290687"><ele>265.0</ele><time>2026-04-05T09:48:50.813Z</time></trkpt><trkpt lat="43.4532792" lon="11.0288384"><ele>265.3333333333333</ele><time>2026-04-05T09:48:51.814Z</time></trkpt><trkpt lat="43.4533474" lon="11.0286037"><ele>265.6666666666667</ele><time>2026-04-05T09:48:52.813Z</time></trkpt><trkpt lat="43.4534164" lon="11.0283684"><ele>266.0</ele><time>2026-04-05T09:48:53.813Z</time></trkpt><trkpt lat="43.4534895" lon="11.0281456"><ele>266.33333333333337</ele><time>2026-04-05T09:48:54.813Z</time></trkpt><trkpt lat="43.4535753" lon="11.0279492"><ele>266.6666666666667</ele><time>2026-04-05T09:48:55.813Z</time></trkpt><trkpt lat="43.4536766" lon="11.0277719"><ele>267.0</ele><time>2026-04-05T09:48:56.813Z</time></trkpt><trkpt lat="43.4537927" lon="11.0276098"><ele>268.3333333333333</ele><time>2026-04-05T09:48:57.813Z</time></trkpt><trkpt lat="43.4539103" lon="11.0274577"><ele>269.66666666666663</ele><time>2026-04-05T09:48:58.813Z</time></trkpt><trkpt lat="43.4540232" lon="11.0273253"><ele>271.0</ele><time>2026-04-05T09:48:59.813Z</time></trkpt><trkpt lat="43.4541468" lon="11.0272177"><ele>271.0</ele><time>2026-04-05T09:49:00.813Z</time></trkpt><trkpt lat="43.4542825" lon="11.0271442"><ele>271.0</ele><time>2026-04-05T09:49:01.813Z</time></trkpt><trkpt lat="43.4544291" lon="11.0271118"><ele>271.0</ele><time>2026-04-05T09:49:02.813Z</time></trkpt><trkpt lat="43.4545795" lon="11.0271151"><ele>271.0</ele><time>2026-04-05T09:49:03.814Z</time></trkpt><trkpt lat="43.4547302" lon="11.0271511"><ele>270.75</ele><time>2026-04-05T09:49:04.813Z</time></trkpt><trkpt lat="43.4548785" lon="11.0271958"><ele>270.5</ele><time>2026-04-05T09:49:05.813Z</time></trkpt><trkpt lat="43.4550159" lon="11.0272211"><ele>270.25</ele><time>2026-04-05T09:49:06.813Z</time></trkpt><trkpt lat="43.4551363" lon="11.0271955"><ele>270.0</ele><time>2026-04-05T09:49:07.813Z</time></trkpt><trkpt lat="43.4552306" lon="11.0271365"><ele>270.0</ele><time>2026-04-05T09:49:08.813Z</time></trkpt><trkpt lat="43.4553008" lon="11.0270465"><ele>270.0</ele><time>2026-04-05T09:49:09.813Z</time></trkpt><trkpt lat="43.4553352" lon="11.0269307"><ele>270.0</ele><time>2026-04-05T09:49:10.813Z</time></trkpt><trkpt lat="43.4553423" lon="11.0267953"><ele>270.0</ele><time>2026-04-05T09:49:11.813Z</time></trkpt><trkpt lat="43.4553177" lon="11.0266504"><ele>270.0</ele><time>2026-04-05T09:49:12.813Z</time></trkpt><trkpt lat="43.4552687" lon="11.0265074"><ele>273.0</ele><time>2026-04-05T09:49:13.813Z</time></trkpt><trkpt lat="43.4551943" lon="11.0263843"><ele>276.0</ele><time>2026-04-05T09:49:14.814Z</time></trkpt><trkpt lat="43.455095" lon="11.0262994"><ele>279.0</ele><time>2026-04-05T09:49:15.813Z</time></trkpt><trkpt lat="43.4549772" lon="11.0262498"><ele>282.0</ele><time>2026-04-05T09:49:16.813Z</time></trkpt><trkpt lat="43.4548388" lon="11.0262318"><ele>282.0</ele><time>2026-04-05T09:49:17.813Z</time></trkpt><trkpt lat="43.454692" lon="11.0262222"><ele>282.0</ele><time>2026-04-05T09:49:18.812Z</time></trkpt><trkpt lat="43.4545435" lon="11.0262128"><ele>282.0</ele><time>2026-04-05T09:49:19.813Z</time></trkpt><trkpt lat="43.4543944" lon="11.0262003"><ele>282.0</ele><time>2026-04-05T09:49:20.813Z</time></trkpt><trkpt lat="43.4542461" lon="11.0261864"><ele>282.0</ele><time>2026-04-05T09:49:21.813Z</time></trkpt><trkpt lat="43.4541077" lon="11.0261689"><ele>282.0</ele><time>2026-04-05T09:49:22.813Z</time></trkpt><trkpt lat="43.4539872" lon="11.0261263"><ele>282.0</ele><time>2026-04-05T09:49:23.813Z</time></trkpt><trkpt lat="43.4538786" lon="11.0260429"><ele>282.0</ele><time>2026-04-05T09:49:24.813Z</time></trkpt><trkpt lat="43.4537862" lon="11.025918"><ele>283.25</ele><time>2026-04-05T09:49:25.813Z</time></trkpt><trkpt lat="43.4537068" lon="11.0257701"><ele>284.5</ele><time>2026-04-05T09:49:26.813Z</time></trkpt><trkpt lat="43.4536376" lon="11.0256196"><ele>285.75</ele><time>2026-04-05T09:49:27.813Z</time></trkpt><trkpt lat="43.4535834" lon="11.0254716"><ele>287.0</ele><time>2026-04-05T09:49:28.813Z</time></trkpt><trkpt lat="43.4535525" lon="11.025307"><ele>287.0</ele><time>2026-04-05T09:49:29.814Z</time></trkpt><trkpt lat="43.4535497" lon="11.025125"><ele>287.0</ele><time>2026-04-05T09:49:30.814Z</time></trkpt><trkpt lat="43.4535649" lon="11.0249327"><ele>287.0</ele><time>2026-04-05T09:49:31.814Z</time></trkpt><trkpt lat="43.4535872" lon="11.0247303"><ele>287.0</ele><time>2026-04-05T09:49:32.814Z</time></trkpt><trkpt lat="43.4535952" lon="11.0245378"><ele>288.75</ele><time>2026-04-05T09:49:33.814Z</time></trkpt><trkpt lat="43.4535823" lon="11.0243543"><ele>290.5</ele><time>2026-04-05T09:49:34.814Z</time></trkpt><trkpt lat="43.4535377" lon="11.0241879"><ele>292.25</ele><time>2026-04-05T09:49:35.814Z</time></trkpt><trkpt lat="43.4534603" lon="11.0240382"><ele>294.0</ele><time>2026-04-05T09:49:36.814Z</time></trkpt><trkpt lat="43.4533581" lon="11.0239017"><ele>297.3333333333333</ele><time>2026-04-05T09:49:37.814Z</time></trkpt><trkpt lat="43.4532427" lon="11.0237676"><ele>300.66666666666663</ele><time>2026-04-05T09:49:38.813Z</time></trkpt><trkpt lat="43.4531274" lon="11.0236277"><ele>304.0</ele><time>2026-04-05T09:49:39.814Z</time></trkpt><trkpt lat="43.4530158" lon="11.0234831"><ele>303.25</ele><time>2026-04-05T09:49:40.814Z</time></trkpt><trkpt lat="43.4529108" lon="11.0233549"><ele>302.5</ele><time>2026-04-05T09:49:41.813Z</time></trkpt><trkpt lat="43.4528124" lon="11.0232438"><ele>301.75</ele><time>2026-04-05T09:49:42.814Z</time></trkpt><trkpt lat="43.4527149" lon="11.0231655"><ele>301.0</ele><time>2026-04-05T09:49:43.814Z</time></trkpt><trkpt lat="43.4526134" lon="11.0231388"><ele>304.0</ele><time>2026-04-05T09:49:44.814Z</time></trkpt><trkpt lat="43.452492" lon="11.0231568"><ele>307.0</ele><time>2026-04-05T09:49:45.814Z</time></trkpt><trkpt lat="43.4523505" lon="11.0231953"><ele>310.0</ele><time>2026-04-05T09:49:46.814Z</time></trkpt><trkpt lat="43.4521934" lon="11.0232303"><ele>313.0</ele><time>2026-04-05T09:49:47.814Z</time></trkpt><trkpt lat="43.4520399" lon="11.023251"><ele>317.3333333333333</ele><time>2026-04-05T09:49:48.814Z</time></trkpt><trkpt lat="43.4518878" lon="11.0232575"><ele>321.6666666666667</ele><time>2026-04-05T09:49:49.814Z</time></trkpt><trkpt lat="43.4517314" lon="11.0232394"><ele>326.0</ele><time>2026-04-05T09:49:50.814Z</time></trkpt><trkpt lat="43.4515697" lon="11.0231956"><ele>326.0</ele><time>2026-04-05T09:49:51.814Z</time></trkpt><trkpt lat="43.4514055" lon="11.0231402"><ele>326.0</ele><time>2026-04-05T09:49:52.814Z</time></trkpt><trkpt lat="43.4512412" lon="11.0230824"><ele>326.0</ele><time>2026-04-05T09:49:53.814Z</time></trkpt><trkpt lat="43.4510826" lon="11.0230324"><ele>325.6666666666667</ele><time>2026-04-05T09:49:54.814Z</time></trkpt><trkpt lat="43.4509283" lon="11.0229729"><ele>325.3333333333333</ele><time>2026-04-05T09:49:55.814Z</time></trkpt><trkpt lat="43.4507788" lon="11.0228833"><ele>325.0</ele><time>2026-04-05T09:49:56.814Z</time></trkpt><trkpt lat="43.450628" lon="11.0227699"><ele>325.0</ele><time>2026-04-05T09:49:57.814Z</time></trkpt><trkpt lat="43.4504761" lon="11.0226379"><ele>325.0</ele><time>2026-04-05T09:49:58.814Z</time></trkpt><trkpt lat="43.450321" lon="11.0225033"><ele>325.0</ele><time>2026-04-05T09:49:59.813Z</time></trkpt><trkpt lat="43.4501658" lon="11.0223678"><ele>327.3333333333333</ele><time>2026-04-05T09:50:00.814Z</time></trkpt><trkpt lat="43.4500049" lon="11.0222347"><ele>329.6666666666667</ele><time>2026-04-05T09:50:01.814Z</time></trkpt><trkpt lat="43.4498415" lon="11.0221005"><ele>332.0</ele><time>2026-04-05T09:50:02.814Z</time></trkpt><trkpt lat="43.4496708" lon="11.0219786"><ele>331.33333333333337</ele><time>2026-04-05T09:50:03.814Z</time></trkpt><trkpt lat="43.449493" lon="11.0218704"><ele>330.6666666666667</ele><time>2026-04-05T09:50:04.814Z</time></trkpt><trkpt lat="43.4493148" lon="11.021776"><ele>330.0</ele><time>2026-04-05T09:50:05.814Z</time></trkpt><trkpt lat="43.4491482" lon="11.0216895"><ele>332.3333333333333</ele><time>2026-04-05T09:50:06.814Z</time></trkpt><trkpt lat="43.4489862" lon="11.0216039"><ele>334.66666666666663</ele><time>2026-04-05T09:50:07.814Z</time></trkpt><trkpt lat="43.4488262" lon="11.0215007"><ele>337.0</ele><time>2026-04-05T09:50:08.815Z</time></trkpt><trkpt lat="43.4486705" lon="11.0213792"><ele>337.0</ele><time>2026-04-05T09:50:09.814Z</time></trkpt><trkpt lat="43.4485226" lon="11.0212488"><ele>337.0</ele><time>2026-04-05T09:50:10.814Z</time></trkpt><trkpt lat="43.4483838" lon="11.0211322"><ele>337.0</ele><time>2026-04-05T09:50:11.814Z</time></trkpt><trkpt lat="43.448236" lon="11.0210462"><ele>337.0</ele><time>2026-04-05T09:50:12.814Z</time></trkpt><trkpt lat="43.4480796" lon="11.0209994"><ele>337.0</ele><time>2026-04-05T09:50:13.814Z</time></trkpt><trkpt lat="43.4479149" lon="11.0209881"><ele>337.0</ele><time>2026-04-05T09:50:14.814Z</time></trkpt><trkpt lat="43.4477452" lon="11.0209867"><ele>336.3333333333333</ele><time>2026-04-05T09:50:15.814Z</time></trkpt><trkpt lat="43.447573" lon="11.0209678"><ele>335.6666666666667</ele><time>2026-04-05T09:50:16.814Z</time></trkpt><trkpt lat="43.4473992" lon="11.0209196"><ele>335.0</ele><time>2026-04-05T09:50:17.814Z</time></trkpt><trkpt lat="43.4472243" lon="11.0208493"><ele>341.33333333333337</ele><time>2026-04-05T09:50:18.814Z</time></trkpt><trkpt lat="43.4470516" lon="11.020768"><ele>347.6666666666667</ele><time>2026-04-05T09:50:19.814Z</time></trkpt><trkpt lat="43.4468747" lon="11.0206915"><ele>354.0</ele><time>2026-04-05T09:50:20.814Z</time></trkpt><trkpt lat="43.4466924" lon="11.0206373"><ele>354.0</ele><time>2026-04-05T09:50:21.814Z</time></trkpt><trkpt lat="43.4465049" lon="11.02061"><ele>354.0</ele><time>2026-04-05T09:50:22.814Z</time></trkpt><trkpt lat="43.4463193" lon="11.0206024"><ele>354.0</ele><time>2026-04-05T09:50:23.814Z</time></trkpt><trkpt lat="43.4461464" lon="11.0205947"><ele>354.6666666666667</ele><time>2026-04-05T09:50:24.814Z</time></trkpt><trkpt lat="43.4459743" lon="11.0205526"><ele>355.33333333333337</ele><time>2026-04-05T09:50:25.814Z</time></trkpt><trkpt lat="43.4458074" lon="11.0204757"><ele>356.0</ele><time>2026-04-05T09:50:26.814Z</time></trkpt><trkpt lat="43.4456517" lon="11.0203967"><ele>356.0</ele><time>2026-04-05T09:50:27.814Z</time></trkpt><trkpt lat="43.4454947" lon="11.0203476"><ele>356.0</ele><time>2026-04-05T09:50:28.814Z</time></trkpt><trkpt lat="43.4453273" lon="11.0203308"><ele>356.0</ele><time>2026-04-05T09:50:29.814Z</time></trkpt><trkpt lat="43.4451552" lon="11.0203345"><ele>354.33333333333337</ele><time>2026-04-05T09:50:30.814Z</time></trkpt><trkpt lat="43.4449816" lon="11.0203483"><ele>352.6666666666667</ele><time>2026-04-05T09:50:31.814Z</time></trkpt><trkpt lat="43.4448169" lon="11.0203505"><ele>351.0</ele><time>2026-04-05T09:50:32.815Z</time></trkpt><trkpt lat="43.4446523" lon="11.0203281"><ele>351.0</ele><time>2026-04-05T09:50:33.814Z</time></trkpt><trkpt lat="43.444486" lon="11.0202863"><ele>351.0</ele><time>2026-04-05T09:50:34.814Z</time></trkpt><trkpt lat="43.4443247" lon="11.0202185"><ele>351.0</ele><time>2026-04-05T09:50:35.814Z</time></trkpt><trkpt lat="43.4441701" lon="11.0201533"><ele>351.0</ele><time>2026-04-05T09:50:36.813Z</time></trkpt><trkpt lat="43.4440235" lon="11.020111"><ele>351.0</ele><time>2026-04-05T09:50:37.814Z</time></trkpt><trkpt lat="43.4438715" lon="11.0201001"><ele>351.0</ele><time>2026-04-05T09:50:38.814Z</time></trkpt><trkpt lat="43.4437172" lon="11.0201217"><ele>350.0</ele><time>2026-04-05T09:50:39.814Z</time></trkpt><trkpt lat="43.4435595" lon="11.0201588"><ele>349.0</ele><time>2026-04-05T09:50:40.815Z</time></trkpt><trkpt lat="43.4434057" lon="11.0202043"><ele>348.0</ele><time>2026-04-05T09:50:41.814Z</time></trkpt><trkpt lat="43.4432566" lon="11.0202354"><ele>348.0</ele><time>2026-04-05T09:50:42.814Z</time></trkpt><trkpt lat="43.4431188" lon="11.0202309"><ele>348.0</ele><time>2026-04-05T09:50:43.814Z</time></trkpt><trkpt lat="43.4429847" lon="11.020183"><ele>348.0</ele><time>2026-04-05T09:50:44.814Z</time></trkpt><trkpt lat="43.4428559" lon="11.0200888"><ele>348.0</ele><time>2026-04-05T09:50:45.814Z</time></trkpt><trkpt lat="43.4427382" lon="11.0199704"><ele>349.5</ele><time>2026-04-05T09:50:46.814Z</time></trkpt><trkpt lat="43.4426275" lon="11.0198499"><ele>351.0</ele><time>2026-04-05T09:50:47.814Z</time></trkpt><trkpt lat="43.4425364" lon="11.0197176"><ele>352.5</ele><time>2026-04-05T09:50:48.814Z</time></trkpt><trkpt lat="43.4424701" lon="11.019564"><ele>354.0</ele><time>2026-04-05T09:50:49.814Z</time></trkpt><trkpt lat="43.4424236" lon="11.0193831"><ele>354.0</ele><time>2026-04-05T09:50:50.814Z</time></trkpt><trkpt lat="43.442389" lon="11.0191906"><ele>354.0</ele><time>2026-04-05T09:50:51.814Z</time></trkpt><trkpt lat="43.4423525" lon="11.0189912"><ele>354.0</ele><time>2026-04-05T09:50:52.814Z</time></trkpt><trkpt lat="43.4423149" lon="11.0188054"><ele>354.0</ele><time>2026-04-05T09:50:53.814Z</time></trkpt><trkpt lat="43.4422784" lon="11.018634"><ele>356.5</ele><time>2026-04-05T09:50:54.813Z</time></trkpt><trkpt lat="43.4422253" lon="11.0184637"><ele>359.0</ele><time>2026-04-05T09:50:55.814Z</time></trkpt><trkpt lat="43.4421424" lon="11.0183054"><ele>361.5</ele><time>2026-04-05T09:50:56.814Z</time></trkpt><trkpt lat="43.4420321" lon="11.0181549"><ele>364.0</ele><time>2026-04-05T09:50:57.813Z</time></trkpt><trkpt lat="43.4418944" lon="11.0180123"><ele>366.0</ele><time>2026-04-05T09:50:58.814Z</time></trkpt><trkpt lat="43.441736" lon="11.017874"><ele>368.0</ele><time>2026-04-05T09:50:59.814Z</time></trkpt><trkpt lat="43.4415702" lon="11.01773"><ele>370.0</ele><time>2026-04-05T09:51:00.814Z</time></trkpt><trkpt lat="43.441415" lon="11.0175869"><ele>371.0</ele><time>2026-04-05T09:51:01.815Z</time></trkpt><trkpt lat="43.4412557" lon="11.0174486"><ele>372.0</ele><time>2026-04-05T09:51:02.814Z</time></trkpt><trkpt lat="43.4410984" lon="11.0173184"><ele>373.0</ele><time>2026-04-05T09:51:03.814Z</time></trkpt><trkpt lat="43.4409446" lon="11.0171933"><ele>373.0</ele><time>2026-04-05T09:51:04.814Z</time></trkpt><trkpt lat="43.4407977" lon="11.017072"><ele>373.0</ele><time>2026-04-05T09:51:05.814Z</time></trkpt><trkpt lat="43.4406574" lon="11.0169569"><ele>373.0</ele><time>2026-04-05T09:51:06.814Z</time></trkpt><trkpt lat="43.4405161" lon="11.0168633"><ele>369.66666666666663</ele><time>2026-04-05T09:51:07.814Z</time></trkpt><trkpt lat="43.440374" lon="11.0167954"><ele>366.3333333333333</ele><time>2026-04-05T09:51:08.814Z</time></trkpt><trkpt lat="43.4402216" lon="11.0167532"><ele>363.0</ele><time>2026-04-05T09:51:09.814Z</time></trkpt><trkpt lat="43.4400565" lon="11.0167359"><ele>363.0</ele><time>2026-04-05T09:51:10.814Z</time></trkpt><trkpt lat="43.4398852" lon="11.0167367"><ele>363.0</ele><time>2026-04-05T09:51:11.814Z</time></trkpt><trkpt lat="43.4397132" lon="11.016742"><ele>363.0</ele><time>2026-04-05T09:51:12.815Z</time></trkpt><trkpt lat="43.4395329" lon="11.016745"><ele>360.3333333333333</ele><time>2026-04-05T09:51:13.814Z</time></trkpt><trkpt lat="43.4393485" lon="11.0167446"><ele>357.66666666666663</ele><time>2026-04-05T09:51:14.814Z</time></trkpt><trkpt lat="43.4391617" lon="11.0167463"><ele>355.0</ele><time>2026-04-05T09:51:15.814Z</time></trkpt><trkpt lat="43.4389693" lon="11.0167496"><ele>353.66666666666663</ele><time>2026-04-05T09:51:16.814Z</time></trkpt><trkpt lat="43.4387775" lon="11.0167534"><ele>352.3333333333333</ele><time>2026-04-05T09:51:17.814Z</time></trkpt><trkpt lat="43.4385895" lon="11.0167551"><ele>351.0</ele><time>2026-04-05T09:51:18.814Z</time></trkpt><trkpt lat="43.4384112" lon="11.0167582"><ele>351.0</ele><time>2026-04-05T09:51:19.814Z</time></trkpt><trkpt lat="43.438243" lon="11.0167662"><ele>351.0</ele><time>2026-04-05T09:51:20.814Z</time></trkpt><trkpt lat="43.4380808" lon="11.0167824"><ele>351.0</ele><time>2026-04-05T09:51:21.814Z</time></trkpt><trkpt lat="43.4379178" lon="11.0168159"><ele>350.6666666666667</ele><time>2026-04-05T09:51:22.814Z</time></trkpt><trkpt lat="43.4377518" lon="11.0168855"><ele>350.33333333333337</ele><time>2026-04-05T09:51:23.814Z</time></trkpt><trkpt lat="43.4375823" lon="11.0169793"><ele>350.0</ele><time>2026-04-05T09:51:24.814Z</time></trkpt><trkpt lat="43.4374144" lon="11.0170811"><ele>350.0</ele><time>2026-04-05T09:51:25.814Z</time></trkpt><trkpt lat="43.4372418" lon="11.0171885"><ele>350.0</ele><time>2026-04-05T09:51:26.814Z</time></trkpt><trkpt lat="43.4370664" lon="11.0172991"><ele>350.0</ele><time>2026-04-05T09:51:27.814Z</time></trkpt><trkpt lat="43.4368884" lon="11.0174056"><ele>349.0</ele><time>2026-04-05T09:51:28.814Z</time></trkpt><trkpt lat="43.4367137" lon="11.0175161"><ele>348.0</ele><time>2026-04-05T09:51:29.814Z</time></trkpt><trkpt lat="43.4365393" lon="11.0176239"><ele>347.0</ele><time>2026-04-05T09:51:30.814Z</time></trkpt><trkpt lat="43.4363696" lon="11.017727"><ele>347.6666666666667</ele><time>2026-04-05T09:51:31.814Z</time></trkpt><trkpt lat="43.436209" lon="11.0178224"><ele>348.3333333333333</ele><time>2026-04-05T09:51:32.814Z</time></trkpt><trkpt lat="43.4360568" lon="11.017915"><ele>349.0</ele><time>2026-04-05T09:51:33.814Z</time></trkpt><trkpt lat="43.4359177" lon="11.0180088"><ele>349.0</ele><time>2026-04-05T09:51:34.814Z</time></trkpt><trkpt lat="43.4357976" lon="11.0181077"><ele>349.0</ele><time>2026-04-05T09:51:35.814Z</time></trkpt><trkpt lat="43.4356997" lon="11.0182149"><ele>349.0</ele><time>2026-04-05T09:51:36.814Z</time></trkpt><trkpt lat="43.4356236" lon="11.0183329"><ele>349.0</ele><time>2026-04-05T09:51:37.814Z</time></trkpt><trkpt lat="43.4355629" lon="11.0184661"><ele>349.5</ele><time>2026-04-05T09:51:38.813Z</time></trkpt><trkpt lat="43.4355035" lon="11.0186178"><ele>350.0</ele><time>2026-04-05T09:51:39.814Z</time></trkpt><trkpt lat="43.4354428" lon="11.0187783"><ele>350.5</ele><time>2026-04-05T09:51:40.814Z</time></trkpt><trkpt lat="43.4353837" lon="11.0189451"><ele>351.0</ele><time>2026-04-05T09:51:41.814Z</time></trkpt><trkpt lat="43.4353184" lon="11.0191153"><ele>353.3333333333333</ele><time>2026-04-05T09:51:42.814Z</time></trkpt><trkpt lat="43.4352443" lon="11.0192902"><ele>355.66666666666663</ele><time>2026-04-05T09:51:43.813Z</time></trkpt><trkpt lat="43.4351704" lon="11.0194735"><ele>358.0</ele><time>2026-04-05T09:51:44.814Z</time></trkpt><trkpt lat="43.435096" lon="11.0196599"><ele>358.0</ele><time>2026-04-05T09:51:45.814Z</time></trkpt><trkpt lat="43.4350285" lon="11.0198386"><ele>358.0</ele><time>2026-04-05T09:51:46.814Z</time></trkpt><trkpt lat="43.4349791" lon="11.0200189"><ele>358.0</ele><time>2026-04-05T09:51:47.814Z</time></trkpt><trkpt lat="43.4349556" lon="11.0202066"><ele>358.0</ele><time>2026-04-05T09:51:48.814Z</time></trkpt><trkpt lat="43.4349517" lon="11.0204049"><ele>356.66666666666663</ele><time>2026-04-05T09:51:49.814Z</time></trkpt><trkpt lat="43.4349598" lon="11.020617"><ele>355.3333333333333</ele><time>2026-04-05T09:51:50.814Z</time></trkpt><trkpt lat="43.4349721" lon="11.0208285"><ele>354.0</ele><time>2026-04-05T09:51:51.814Z</time></trkpt><trkpt lat="43.4349805" lon="11.0210324"><ele>352.25</ele><time>2026-04-05T09:51:52.813Z</time></trkpt><trkpt lat="43.4349864" lon="11.0212289"><ele>350.5</ele><time>2026-04-05T09:51:53.814Z</time></trkpt><trkpt lat="43.434977" lon="11.0214194"><ele>348.75</ele><time>2026-04-05T09:51:54.814Z</time></trkpt><trkpt lat="43.4349514" lon="11.0216065"><ele>347.0</ele><time>2026-04-05T09:51:55.814Z</time></trkpt><trkpt lat="43.4349035" lon="11.0217928"><ele>348.0</ele><time>2026-04-05T09:51:56.814Z</time></trkpt><trkpt lat="43.434838" lon="11.0219691"><ele>349.0</ele><time>2026-04-05T09:51:57.813Z</time></trkpt><trkpt lat="43.4347743" lon="11.0221361"><ele>350.0</ele><time>2026-04-05T09:51:58.814Z</time></trkpt><trkpt lat="43.434709" lon="11.0222903"><ele>351.0</ele><time>2026-04-05T09:51:59.814Z</time></trkpt><trkpt lat="43.4346263" lon="11.0224147"><ele>347.0</ele><time>2026-04-05T09:52:00.814Z</time></trkpt><trkpt lat="43.4345198" lon="11.0225112"><ele>343.0</ele><time>2026-04-05T09:52:01.814Z</time></trkpt><trkpt lat="43.4343865" lon="11.0225617"><ele>339.0</ele><time>2026-04-05T09:52:02.814Z</time></trkpt><trkpt lat="43.4342398" lon="11.0225648"><ele>335.0</ele><time>2026-04-05T09:52:03.814Z</time></trkpt><trkpt lat="43.434088" lon="11.0225345"><ele>335.0</ele><time>2026-04-05T09:52:04.814Z</time></trkpt><trkpt lat="43.4339294" lon="11.0224971"><ele>335.0</ele><time>2026-04-05T09:52:05.814Z</time></trkpt><trkpt lat="43.4337808" lon="11.0224658"><ele>335.0</ele><time>2026-04-05T09:52:06.814Z</time></trkpt><trkpt lat="43.4336478" lon="11.0224485"><ele>335.0</ele><time>2026-04-05T09:52:07.814Z</time></trkpt><trkpt lat="43.4335288" lon="11.0224553"><ele>334.75</ele><time>2026-04-05T09:52:08.814Z</time></trkpt><trkpt lat="43.4334117" lon="11.0225045"><ele>334.5</ele><time>2026-04-05T09:52:09.814Z</time></trkpt><trkpt lat="43.433309" lon="11.0226001"><ele>334.25</ele><time>2026-04-05T09:52:10.814Z</time></trkpt><trkpt lat="43.4332234" lon="11.0227354"><ele>334.0</ele><time>2026-04-05T09:52:11.814Z</time></trkpt><trkpt lat="43.4331582" lon="11.0229175"><ele>334.0</ele><time>2026-04-05T09:52:12.814Z</time></trkpt><trkpt lat="43.4331017" lon="11.0231158"><ele>334.0</ele><time>2026-04-05T09:52:13.814Z</time></trkpt><trkpt lat="43.4330443" lon="11.0233045"><ele>334.0</ele><time>2026-04-05T09:52:14.814Z</time></trkpt><trkpt lat="43.4329831" lon="11.0234702"><ele>334.0</ele><time>2026-04-05T09:52:15.814Z</time></trkpt><trkpt lat="43.432903" lon="11.023612"><ele>333.0</ele><time>2026-04-05T09:52:16.813Z</time></trkpt><trkpt lat="43.4328043" lon="11.0237191"><ele>332.0</ele><time>2026-04-05T09:52:17.814Z</time></trkpt><trkpt lat="43.4326828" lon="11.0237855"><ele>331.0</ele><time>2026-04-05T09:52:18.814Z</time></trkpt><trkpt lat="43.4325448" lon="11.0238069"><ele>330.0</ele><time>2026-04-05T09:52:19.814Z</time></trkpt><trkpt lat="43.4323964" lon="11.0237987"><ele>330.0</ele><time>2026-04-05T09:52:20.814Z</time></trkpt><trkpt lat="43.4322448" lon="11.0237753"><ele>330.0</ele><time>2026-04-05T09:52:21.814Z</time></trkpt><trkpt lat="43.4320911" lon="11.023754"><ele>330.0</ele><time>2026-04-05T09:52:22.813Z</time></trkpt><trkpt lat="43.4319408" lon="11.0237485"><ele>330.0</ele><time>2026-04-05T09:52:23.814Z</time></trkpt><trkpt lat="43.4317923" lon="11.0237759"><ele>330.0</ele><time>2026-04-05T09:52:24.814Z</time></trkpt><trkpt lat="43.4316463" lon="11.0238459"><ele>330.0</ele><time>2026-04-05T09:52:25.814Z</time></trkpt><trkpt lat="43.4315005" lon="11.0239474"><ele>330.0</ele><time>2026-04-05T09:52:26.813Z</time></trkpt><trkpt lat="43.4313568" lon="11.0240594"><ele>330.0</ele><time>2026-04-05T09:52:27.814Z</time></trkpt><trkpt lat="43.4312193" lon="11.0241706"><ele>330.0</ele><time>2026-04-05T09:52:28.814Z</time></trkpt><trkpt lat="43.4310789" lon="11.0242625"><ele>324.6666666666667</ele><time>2026-04-05T09:52:29.813Z</time></trkpt><trkpt lat="43.4309316" lon="11.02434"><ele>319.33333333333337</ele><time>2026-04-05T09:52:30.815Z</time></trkpt><trkpt lat="43.4307712" lon="11.0243944"><ele>314.0</ele><time>2026-04-05T09:52:31.814Z</time></trkpt><trkpt lat="43.4306024" lon="11.0244301"><ele>312.33333333333337</ele><time>2026-04-05T09:52:32.814Z</time></trkpt><trkpt lat="43.4304366" lon="11.024464"><ele>310.6666666666667</ele><time>2026-04-05T09:52:33.814Z</time></trkpt><trkpt lat="43.4302761" lon="11.0244923"><ele>309.0</ele><time>2026-04-05T09:52:34.814Z</time></trkpt><trkpt lat="43.4301171" lon="11.0245228"><ele>309.0</ele><time>2026-04-05T09:52:35.814Z</time></trkpt><trkpt lat="43.4299572" lon="11.0245523"><ele>309.0</ele><time>2026-04-05T09:52:36.814Z</time></trkpt><trkpt lat="43.4297912" lon="11.02458"><ele>309.0</ele><time>2026-04-05T09:52:37.814Z</time></trkpt><trkpt lat="43.4296254" lon="11.0246081"><ele>307.3333333333333</ele><time>2026-04-05T09:52:38.814Z</time></trkpt><trkpt lat="43.4294656" lon="11.0246328"><ele>305.66666666666663</ele><time>2026-04-05T09:52:39.814Z</time></trkpt><trkpt lat="43.4293085" lon="11.0246591"><ele>304.0</ele><time>2026-04-05T09:52:40.814Z</time></trkpt><trkpt lat="43.4291613" lon="11.0247098"><ele>304.0</ele><time>2026-04-05T09:52:41.814Z</time></trkpt><trkpt lat="43.429025" lon="11.0247973"><ele>304.0</ele><time>2026-04-05T09:52:42.814Z</time></trkpt><trkpt lat="43.4288931" lon="11.024924"><ele>304.0</ele><time>2026-04-05T09:52:43.814Z</time></trkpt><trkpt lat="43.4287626" lon="11.0250733"><ele>299.66666666666663</ele><time>2026-04-05T09:52:44.814Z</time></trkpt><trkpt lat="43.4286318" lon="11.0252273"><ele>295.3333333333333</ele><time>2026-04-05T09:52:45.814Z</time></trkpt><trkpt lat="43.4285054" lon="11.0253775"><ele>291.0</ele><time>2026-04-05T09:52:46.814Z</time></trkpt><trkpt lat="43.4283811" lon="11.0255213"><ele>291.0</ele><time>2026-04-05T09:52:47.814Z</time></trkpt><trkpt lat="43.4282556" lon="11.0256503"><ele>291.0</ele><time>2026-04-05T09:52:48.814Z</time></trkpt><trkpt lat="43.4281208" lon="11.0257474"><ele>291.0</ele><time>2026-04-05T09:52:49.814Z</time></trkpt><trkpt lat="43.4279772" lon="11.0258067"><ele>290.3333333333333</ele><time>2026-04-05T09:52:50.814Z</time></trkpt><trkpt lat="43.4278203" lon="11.0258228"><ele>289.66666666666663</ele><time>2026-04-05T09:52:51.815Z</time></trkpt><trkpt lat="43.4276609" lon="11.025806"><ele>289.0</ele><time>2026-04-05T09:52:52.814Z</time></trkpt><trkpt lat="43.4275096" lon="11.025775"><ele>287.75</ele><time>2026-04-05T09:52:53.814Z</time></trkpt><trkpt lat="43.4273627" lon="11.025743"><ele>286.5</ele><time>2026-04-05T09:52:54.814Z</time></trkpt><trkpt lat="43.4272213" lon="11.0257284"><ele>285.25</ele><time>2026-04-05T09:52:55.814Z</time></trkpt><trkpt lat="43.4270933" lon="11.0257159"><ele>284.0</ele><time>2026-04-05T09:52:56.814Z</time></trkpt><trkpt lat="43.4269716" lon="11.0256988"><ele>283.25</ele><time>2026-04-05T09:52:57.813Z</time></trkpt><trkpt lat="43.4268586" lon="11.0256789"><ele>282.5</ele><time>2026-04-05T09:52:58.814Z</time></trkpt><trkpt lat="43.4267533" lon="11.0256445"><ele>281.75</ele><time>2026-04-05T09:52:59.815Z</time></trkpt><trkpt lat="43.4266442" lon="11.0255825"><ele>281.0</ele><time>2026-04-05T09:53:00.813Z</time></trkpt><trkpt lat="43.4265333" lon="11.0254984"><ele>281.0</ele><time>2026-04-05T09:53:01.814Z</time></trkpt><trkpt lat="43.4264195" lon="11.0253936"><ele>281.0</ele><time>2026-04-05T09:53:02.814Z</time></trkpt><trkpt lat="43.4263167" lon="11.0252842"><ele>281.0</ele><time>2026-04-05T09:53:03.814Z</time></trkpt><trkpt lat="43.4262146" lon="11.0251775"><ele>281.0</ele><time>2026-04-05T09:53:04.813Z</time></trkpt><trkpt lat="43.4261167" lon="11.0250782"><ele>281.75</ele><time>2026-04-05T09:53:05.814Z</time></trkpt><trkpt lat="43.4260232" lon="11.024987"><ele>282.5</ele><time>2026-04-05T09:53:06.815Z</time></trkpt><trkpt lat="43.4259297" lon="11.0248964"><ele>283.25</ele><time>2026-04-05T09:53:07.814Z</time></trkpt><trkpt lat="43.4258365" lon="11.0248055"><ele>284.0</ele><time>2026-04-05T09:53:08.813Z</time></trkpt><trkpt lat="43.4257469" lon="11.0247196"><ele>283.4</ele><time>2026-04-05T09:53:09.814Z</time></trkpt><trkpt lat="43.4256623" lon="11.0246444"><ele>282.79999999999995</ele><time>2026-04-05T09:53:10.814Z</time></trkpt><trkpt lat="43.4255801" lon="11.0245627"><ele>282.20000000000005</ele><time>2026-04-05T09:53:11.814Z</time></trkpt><trkpt lat="43.4255014" lon="11.024485"><ele>281.6</ele><time>2026-04-05T09:53:12.814Z</time></trkpt><trkpt lat="43.4254305" lon="11.0244195"><ele>281.0</ele><time>2026-04-05T09:53:13.814Z</time></trkpt><trkpt lat="43.4253559" lon="11.0243669"><ele>281.0</ele><time>2026-04-05T09:53:14.814Z</time></trkpt><trkpt lat="43.4252651" lon="11.0243296"><ele>281.0</ele><time>2026-04-05T09:53:15.814Z</time></trkpt><trkpt lat="43.4251638" lon="11.0243139"><ele>281.0</ele><time>2026-04-05T09:53:16.814Z</time></trkpt><trkpt lat="43.4250503" lon="11.0243178"><ele>281.0</ele><time>2026-04-05T09:53:17.814Z</time></trkpt><trkpt lat="43.4249295" lon="11.0243279"><ele>281.0</ele><time>2026-04-05T09:53:18.814Z</time></trkpt><trkpt lat="43.4247994" lon="11.0243394"><ele>281.0</ele><time>2026-04-05T09:53:19.814Z</time></trkpt><trkpt lat="43.4246621" lon="11.024351"><ele>281.0</ele><time>2026-04-05T09:53:20.814Z</time></trkpt><trkpt lat="43.4245165" lon="11.0243624"><ele>281.0</ele><time>2026-04-05T09:53:21.814Z</time></trkpt><trkpt lat="43.4243665" lon="11.0243792"><ele>281.0</ele><time>2026-04-05T09:53:22.814Z</time></trkpt><trkpt lat="43.4242111" lon="11.024397"><ele>279.0</ele><time>2026-04-05T09:53:23.814Z</time></trkpt><trkpt lat="43.4240503" lon="11.0244153"><ele>277.0</ele><time>2026-04-05T09:53:24.814Z</time></trkpt><trkpt lat="43.4238895" lon="11.024432"><ele>275.0</ele><time>2026-04-05T09:53:25.813Z</time></trkpt><trkpt lat="43.4237233" lon="11.0244494"><ele>272.0</ele><time>2026-04-05T09:53:26.814Z</time></trkpt><trkpt lat="43.4235587" lon="11.0244665"><ele>269.0</ele><time>2026-04-05T09:53:27.814Z</time></trkpt><trkpt lat="43.4233979" lon="11.0244856"><ele>266.0</ele><time>2026-04-05T09:53:28.814Z</time></trkpt><trkpt lat="43.4232403" lon="11.0245019"><ele>266.0</ele><time>2026-04-05T09:53:29.814Z</time></trkpt><trkpt lat="43.4230861" lon="11.0245175"><ele>266.0</ele><time>2026-04-05T09:53:30.814Z</time></trkpt><trkpt lat="43.4229412" lon="11.0245342"><ele>266.0</ele><time>2026-04-05T09:53:31.814Z</time></trkpt><trkpt lat="43.4228039" lon="11.0245619"><ele>266.0</ele><time>2026-04-05T09:53:32.814Z</time></trkpt><trkpt lat="43.4226737" lon="11.0246065"><ele>265.75</ele><time>2026-04-05T09:53:33.814Z</time></trkpt><trkpt lat="43.4225561" lon="11.0246766"><ele>265.5</ele><time>2026-04-05T09:53:34.814Z</time></trkpt><trkpt lat="43.4224511" lon="11.02479"><ele>265.25</ele><time>2026-04-05T09:53:35.813Z</time></trkpt><trkpt lat="43.4223654" lon="11.0249377"><ele>265.0</ele><time>2026-04-05T09:53:36.814Z</time></trkpt><trkpt lat="43.4223075" lon="11.0251057"><ele>265.0</ele><time>2026-04-05T09:53:37.814Z</time></trkpt><trkpt lat="43.4222696" lon="11.0252951"><ele>265.0</ele><time>2026-04-05T09:53:38.814Z</time></trkpt><trkpt lat="43.4222454" lon="11.0254814"><ele>265.0</ele><time>2026-04-05T09:53:39.814Z</time></trkpt><trkpt lat="43.4222181" lon="11.0256533"><ele>265.0</ele><time>2026-04-05T09:53:40.814Z</time></trkpt><trkpt lat="43.4221747" lon="11.0258087"><ele>264.0</ele><time>2026-04-05T09:53:41.814Z</time></trkpt><trkpt lat="43.4221117" lon="11.0259406"><ele>263.0</ele><time>2026-04-05T09:53:42.814Z</time></trkpt><trkpt lat="43.4220251" lon="11.0260399"><ele>262.0</ele><time>2026-04-05T09:53:43.814Z</time></trkpt><trkpt lat="43.4219213" lon="11.0261013"><ele>261.0</ele><time>2026-04-05T09:53:44.814Z</time></trkpt><trkpt lat="43.4218134" lon="11.0261102"><ele>260.0</ele><time>2026-04-05T09:53:45.814Z</time></trkpt><trkpt lat="43.4217092" lon="11.0260639"><ele>260.0</ele><time>2026-04-05T09:53:46.814Z</time></trkpt><trkpt lat="43.4216114" lon="11.0259749"><ele>260.0</ele><time>2026-04-05T09:53:47.814Z</time></trkpt><trkpt lat="43.4215241" lon="11.0258531"><ele>260.0</ele><time>2026-04-05T09:53:48.814Z</time></trkpt><trkpt lat="43.4214404" lon="11.0257167"><ele>260.0</ele><time>2026-04-05T09:53:49.814Z</time></trkpt><trkpt lat="43.4213338" lon="11.0255918"><ele>255.66666666666669</ele><time>2026-04-05T09:53:50.814Z</time></trkpt><trkpt lat="43.4212047" lon="11.025489"><ele>251.33333333333331</ele><time>2026-04-05T09:53:51.814Z</time></trkpt><trkpt lat="43.4210605" lon="11.025404"><ele>247.0</ele><time>2026-04-05T09:53:52.814Z</time></trkpt><trkpt lat="43.4209018" lon="11.0253249"><ele>247.0</ele><time>2026-04-05T09:53:53.813Z</time></trkpt><trkpt lat="43.4207378" lon="11.0252487"><ele>247.0</ele><time>2026-04-05T09:53:54.814Z</time></trkpt><trkpt lat="43.4205736" lon="11.0251685"><ele>247.0</ele><time>2026-04-05T09:53:55.814Z</time></trkpt><trkpt lat="43.4204151" lon="11.0250921"><ele>247.66666666666666</ele><time>2026-04-05T09:53:56.814Z</time></trkpt><trkpt lat="43.4202606" lon="11.0250189"><ele>248.33333333333331</ele><time>2026-04-05T09:53:57.813Z</time></trkpt><trkpt lat="43.4201105" lon="11.0249436"><ele>249.0</ele><time>2026-04-05T09:53:58.814Z</time></trkpt><trkpt lat="43.4199662" lon="11.024867"><ele>245.75</ele><time>2026-04-05T09:53:59.814Z</time></trkpt><trkpt lat="43.4198274" lon="11.0247996"><ele>242.5</ele><time>2026-04-05T09:54:00.814Z</time></trkpt><trkpt lat="43.4196902" lon="11.0247568"><ele>239.25</ele><time>2026-04-05T09:54:01.814Z</time></trkpt><trkpt lat="43.4195557" lon="11.0247388"><ele>236.0</ele><time>2026-04-05T09:54:02.814Z</time></trkpt><trkpt lat="43.4194246" lon="11.0247608"><ele>234.25</ele><time>2026-04-05T09:54:03.814Z</time></trkpt><trkpt lat="43.4192962" lon="11.0248151"><ele>232.5</ele><time>2026-04-05T09:54:04.814Z</time></trkpt><trkpt lat="43.419167" lon="11.0249006"><ele>230.75</ele><time>2026-04-05T09:54:05.814Z</time></trkpt><trkpt lat="43.4190439" lon="11.0250041"><ele>229.0</ele><time>2026-04-05T09:54:06.814Z</time></trkpt><trkpt lat="43.418925" lon="11.0251081"><ele>229.0</ele><time>2026-04-05T09:54:07.814Z</time></trkpt><trkpt lat="43.4188139" lon="11.0252121"><ele>229.0</ele><time>2026-04-05T09:54:08.814Z</time></trkpt><trkpt lat="43.4187108" lon="11.0253192"><ele>229.0</ele><time>2026-04-05T09:54:09.814Z</time></trkpt><trkpt lat="43.4186171" lon="11.0254541"><ele>229.0</ele><time>2026-04-05T09:54:10.814Z</time></trkpt><trkpt lat="43.4185372" lon="11.0256195"><ele>229.0</ele><time>2026-04-05T09:54:11.814Z</time></trkpt><trkpt lat="43.4184699" lon="11.025806"><ele>229.0</ele><time>2026-04-05T09:54:12.814Z</time></trkpt><trkpt lat="43.4184022" lon="11.0259949"><ele>229.0</ele><time>2026-04-05T09:54:13.815Z</time></trkpt><trkpt lat="43.4183333" lon="11.0261821"><ele>230.0</ele><time>2026-04-05T09:54:14.814Z</time></trkpt><trkpt lat="43.4182623" lon="11.0263769"><ele>231.0</ele><time>2026-04-05T09:54:15.814Z</time></trkpt><trkpt lat="43.4181974" lon="11.0265663"><ele>232.0</ele><time>2026-04-05T09:54:16.813Z</time></trkpt><trkpt lat="43.418143" lon="11.0267619"><ele>232.0</ele><time>2026-04-05T09:54:17.814Z</time></trkpt><trkpt lat="43.4181082" lon="11.0269635"><ele>232.0</ele><time>2026-04-05T09:54:18.814Z</time></trkpt><trkpt lat="43.4180979" lon="11.0271806"><ele>232.0</ele><time>2026-04-05T09:54:19.814Z</time></trkpt><trkpt lat="43.4181097" lon="11.0274007"><ele>231.0</ele><time>2026-04-05T09:54:20.814Z</time></trkpt><trkpt lat="43.4181446" lon="11.0276092"><ele>230.0</ele><time>2026-04-05T09:54:21.814Z</time></trkpt><trkpt lat="43.4181927" lon="11.0278049"><ele>229.0</ele><time>2026-04-05T09:54:22.814Z</time></trkpt><trkpt lat="43.4182607" lon="11.0279935"><ele>229.0</ele><time>2026-04-05T09:54:23.814Z</time></trkpt><trkpt lat="43.4183445" lon="11.0281683"><ele>229.0</ele><time>2026-04-05T09:54:24.814Z</time></trkpt><trkpt lat="43.4184403" lon="11.0283199"><ele>229.0</ele><time>2026-04-05T09:54:25.814Z</time></trkpt><trkpt lat="43.4185536" lon="11.0284569"><ele>229.0</ele><time>2026-04-05T09:54:26.814Z</time></trkpt><trkpt lat="43.4186821" lon="11.0285796"><ele>227.66666666666666</ele><time>2026-04-05T09:54:27.814Z</time></trkpt><trkpt lat="43.4188204" lon="11.028699"><ele>226.33333333333331</ele><time>2026-04-05T09:54:28.814Z</time></trkpt><trkpt lat="43.4189567" lon="11.0288128"><ele>225.0</ele><time>2026-04-05T09:54:29.814Z</time></trkpt><trkpt lat="43.4190903" lon="11.0289227"><ele>225.0</ele><time>2026-04-05T09:54:30.814Z</time></trkpt><trkpt lat="43.4192127" lon="11.0290294"><ele>225.0</ele><time>2026-04-05T09:54:31.814Z</time></trkpt><trkpt lat="43.4193211" lon="11.0291284"><ele>225.0</ele><time>2026-04-05T09:54:32.814Z</time></trkpt><trkpt lat="43.4194109" lon="11.0292402"><ele>225.0</ele><time>2026-04-05T09:54:33.814Z</time></trkpt><trkpt lat="43.4194711" lon="11.0293681"><ele>223.2</ele><time>2026-04-05T09:54:34.814Z</time></trkpt><trkpt lat="43.4195003" lon="11.0295117"><ele>221.4</ele><time>2026-04-05T09:54:35.814Z</time></trkpt><trkpt lat="43.4194956" lon="11.0296536"><ele>219.60000000000002</ele><time>2026-04-05T09:54:36.814Z</time></trkpt><trkpt lat="43.4194567" lon="11.0297922"><ele>217.8</ele><time>2026-04-05T09:54:37.814Z</time></trkpt><trkpt lat="43.4193892" lon="11.0299099"><ele>216.0</ele><time>2026-04-05T09:54:38.814Z</time></trkpt><trkpt lat="43.4192929" lon="11.0299953"><ele>214.75</ele><time>2026-04-05T09:54:39.814Z</time></trkpt><trkpt lat="43.419177" lon="11.0300479"><ele>213.5</ele><time>2026-04-05T09:54:40.814Z</time></trkpt><trkpt lat="43.4190478" lon="11.0300861"><ele>212.25</ele><time>2026-04-05T09:54:41.814Z</time></trkpt><trkpt lat="43.4189197" lon="11.0301178"><ele>211.0</ele><time>2026-04-05T09:54:42.814Z</time></trkpt><trkpt lat="43.4187981" lon="11.0301494"><ele>209.4</ele><time>2026-04-05T09:54:43.814Z</time></trkpt><trkpt lat="43.4186876" lon="11.0301976"><ele>207.8</ele><time>2026-04-05T09:54:44.814Z</time></trkpt><trkpt lat="43.4185925" lon="11.030269"><ele>206.20000000000002</ele><time>2026-04-05T09:54:45.815Z</time></trkpt><trkpt lat="43.4185189" lon="11.0303731"><ele>204.60000000000002</ele><time>2026-04-05T09:54:46.814Z</time></trkpt><trkpt lat="43.418473" lon="11.0305049"><ele>203.0</ele><time>2026-04-05T09:54:47.814Z</time></trkpt><trkpt lat="43.4184523" lon="11.0306654"><ele>203.0</ele><time>2026-04-05T09:54:48.814Z</time></trkpt><trkpt lat="43.4184526" lon="11.0308458"><ele>203.0</ele><time>2026-04-05T09:54:49.814Z</time></trkpt><trkpt lat="43.4184595" lon="11.0310403"><ele>203.0</ele><time>2026-04-05T09:54:50.814Z</time></trkpt><trkpt lat="43.4184683" lon="11.0312437"><ele>203.0</ele><time>2026-04-05T09:54:51.814Z</time></trkpt><trkpt lat="43.4184783" lon="11.0314582"><ele>203.0</ele><time>2026-04-05T09:54:52.814Z</time></trkpt><trkpt lat="43.4184893" lon="11.0316736"><ele>203.0</ele><time>2026-04-05T09:54:53.814Z</time></trkpt><trkpt lat="43.4184984" lon="11.0318796"><ele>203.0</ele><time>2026-04-05T09:54:54.814Z</time></trkpt><trkpt lat="43.4185085" lon="11.032088"><ele>203.0</ele><time>2026-04-05T09:54:55.814Z</time></trkpt><trkpt lat="43.4185199" lon="11.0322862"><ele>203.0</ele><time>2026-04-05T09:54:56.814Z</time></trkpt><trkpt lat="43.4185302" lon="11.0324664"><ele>203.0</ele><time>2026-04-05T09:54:57.814Z</time></trkpt><trkpt lat="43.4185278" lon="11.0326301"><ele>203.0</ele><time>2026-04-05T09:54:58.814Z</time></trkpt><trkpt lat="43.4184937" lon="11.0327716"><ele>202.8</ele><time>2026-04-05T09:54:59.814Z</time></trkpt><trkpt lat="43.4184279" lon="11.0328818"><ele>202.60000000000002</ele><time>2026-04-05T09:55:00.814Z</time></trkpt><trkpt lat="43.4183391" lon="11.0329559"><ele>202.39999999999998</ele><time>2026-04-05T09:55:01.814Z</time></trkpt><trkpt lat="43.4182386" lon="11.0329765"><ele>202.2</ele><time>2026-04-05T09:55:02.814Z</time></trkpt><trkpt lat="43.4181342" lon="11.0329546"><ele>202.0</ele><time>2026-04-05T09:55:03.814Z</time></trkpt><trkpt lat="43.4180387" lon="11.0328846"><ele>198.0</ele><time>2026-04-05T09:55:04.814Z</time></trkpt><trkpt lat="43.4179718" lon="11.0327753"><ele>194.0</ele><time>2026-04-05T09:55:05.814Z</time></trkpt><trkpt lat="43.4179354" lon="11.0326346"><ele>190.0</ele><time>2026-04-05T09:55:06.814Z</time></trkpt><trkpt lat="43.4179247" lon="11.0324636"><ele>186.0</ele><time>2026-04-05T09:55:07.814Z</time></trkpt><trkpt lat="43.4179295" lon="11.0322812"><ele>186.0</ele><time>2026-04-05T09:55:08.814Z</time></trkpt><trkpt lat="43.4179388" lon="11.0320999"><ele>186.0</ele><time>2026-04-05T09:55:09.814Z</time></trkpt><trkpt lat="43.417946" lon="11.0319115"><ele>186.0</ele><time>2026-04-05T09:55:10.814Z</time></trkpt><trkpt lat="43.417946" lon="11.0317175"><ele>186.0</ele><time>2026-04-05T09:55:11.814Z</time></trkpt><trkpt lat="43.4179301" lon="11.0315255"><ele>186.5</ele><time>2026-04-05T09:55:12.814Z</time></trkpt><trkpt lat="43.4178997" lon="11.0313569"><ele>187.0</ele><time>2026-04-05T09:55:13.814Z</time></trkpt><trkpt lat="43.4178465" lon="11.0311938"><ele>187.5</ele><time>2026-04-05T09:55:14.814Z</time></trkpt><trkpt lat="43.4177794" lon="11.0310303"><ele>188.0</ele><time>2026-04-05T09:55:15.814Z</time></trkpt><trkpt lat="43.4177111" lon="11.0308765"><ele>188.75</ele><time>2026-04-05T09:55:16.814Z</time></trkpt><trkpt lat="43.41765" lon="11.0307208"><ele>189.5</ele><time>2026-04-05T09:55:17.814Z</time></trkpt><trkpt lat="43.4176084" lon="11.0305424"><ele>190.25</ele><time>2026-04-05T09:55:18.814Z</time></trkpt><trkpt lat="43.4175846" lon="11.0303529"><ele>191.0</ele><time>2026-04-05T09:55:19.814Z</time></trkpt><trkpt lat="43.4175798" lon="11.0301588"><ele>193.0</ele><time>2026-04-05T09:55:20.814Z</time></trkpt><trkpt lat="43.4175732" lon="11.0299742"><ele>195.0</ele><time>2026-04-05T09:55:21.814Z</time></trkpt><trkpt lat="43.4175511" lon="11.0298034"><ele>197.0</ele><time>2026-04-05T09:55:22.813Z</time></trkpt><trkpt lat="43.4175015" lon="11.0296551"><ele>199.0</ele><time>2026-04-05T09:55:23.814Z</time></trkpt><trkpt lat="43.4174359" lon="11.0295269"><ele>199.0</ele><time>2026-04-05T09:55:24.814Z</time></trkpt><trkpt lat="43.4173506" lon="11.0294289"><ele>199.0</ele><time>2026-04-05T09:55:25.814Z</time></trkpt><trkpt lat="43.4172466" lon="11.0293584"><ele>199.0</ele><time>2026-04-05T09:55:26.814Z</time></trkpt><trkpt lat="43.4171415" lon="11.0293223"><ele>199.0</ele><time>2026-04-05T09:55:27.813Z</time></trkpt><trkpt lat="43.4170355" lon="11.0293282"><ele>199.0</ele><time>2026-04-05T09:55:28.814Z</time></trkpt><trkpt lat="43.416932" lon="11.029379"><ele>196.5</ele><time>2026-04-05T09:55:29.814Z</time></trkpt><trkpt lat="43.4168284" lon="11.0294634"><ele>194.0</ele><time>2026-04-05T09:55:30.814Z</time></trkpt><trkpt lat="43.4167193" lon="11.0295669"><ele>191.5</ele><time>2026-04-05T09:55:31.814Z</time></trkpt><trkpt lat="43.416604" lon="11.0296767"><ele>189.0</ele><time>2026-04-05T09:55:32.814Z</time></trkpt><trkpt lat="43.4164799" lon="11.0297911"><ele>189.0</ele><time>2026-04-05T09:55:33.814Z</time></trkpt><trkpt lat="43.4163486" lon="11.0299084"><ele>189.0</ele><time>2026-04-05T09:55:34.814Z</time></trkpt><trkpt lat="43.4162105" lon="11.0300316"><ele>189.0</ele><time>2026-04-05T09:55:35.814Z</time></trkpt><trkpt lat="43.4160755" lon="11.0301552"><ele>191.66666666666669</ele><time>2026-04-05T09:55:36.814Z</time></trkpt><trkpt lat="43.4159371" lon="11.0302846"><ele>194.33333333333334</ele><time>2026-04-05T09:55:37.814Z</time></trkpt><trkpt lat="43.4157942" lon="11.0304142"><ele>197.0</ele><time>2026-04-05T09:55:38.814Z</time></trkpt><trkpt lat="43.4156501" lon="11.030547"><ele>197.0</ele><time>2026-04-05T09:55:39.813Z</time></trkpt><trkpt lat="43.4155161" lon="11.0306693"><ele>197.0</ele><time>2026-04-05T09:55:40.814Z</time></trkpt><trkpt lat="43.4153959" lon="11.0307804"><ele>197.0</ele><time>2026-04-05T09:55:41.813Z</time></trkpt><trkpt lat="43.4152886" lon="11.0308784"><ele>197.0</ele><time>2026-04-05T09:55:42.814Z</time></trkpt><trkpt lat="43.4151845" lon="11.0309549"><ele>197.6</ele><time>2026-04-05T09:55:43.814Z</time></trkpt><trkpt lat="43.4150772" lon="11.0309848"><ele>198.2</ele><time>2026-04-05T09:55:44.814Z</time></trkpt><trkpt lat="43.414969" lon="11.0309716"><ele>198.8</ele><time>2026-04-05T09:55:45.814Z</time></trkpt><trkpt lat="43.4148657" lon="11.0309188"><ele>199.4</ele><time>2026-04-05T09:55:46.814Z</time></trkpt><trkpt lat="43.4147784" lon="11.0308275"><ele>200.0</ele><time>2026-04-05T09:55:47.814Z</time></trkpt><trkpt lat="43.4147226" lon="11.0307074"><ele>202.0</ele><time>2026-04-05T09:55:48.814Z</time></trkpt><trkpt lat="43.4146975" lon="11.0305668"><ele>204.0</ele><time>2026-04-05T09:55:49.814Z</time></trkpt><trkpt lat="43.4147045" lon="11.0304136"><ele>206.0</ele><time>2026-04-05T09:55:50.814Z</time></trkpt><trkpt lat="43.4147473" lon="11.0302611"><ele>208.0</ele><time>2026-04-05T09:55:51.814Z</time></trkpt><trkpt lat="43.4148196" lon="11.0301144"><ele>209.25</ele><time>2026-04-05T09:55:52.814Z</time></trkpt><trkpt lat="43.4149096" lon="11.0299738"><ele>210.5</ele><time>2026-04-05T09:55:53.813Z</time></trkpt><trkpt lat="43.4149985" lon="11.0298386"><ele>211.75</ele><time>2026-04-05T09:55:54.814Z</time></trkpt><trkpt lat="43.4150525" lon="11.0296977"><ele>213.0</ele><time>2026-04-05T09:55:55.814Z</time></trkpt><trkpt lat="43.4150821" lon="11.0295504"><ele>213.0</ele><time>2026-04-05T09:55:56.814Z</time></trkpt><trkpt lat="43.415083" lon="11.0294074"><ele>213.0</ele><time>2026-04-05T09:55:57.814Z</time></trkpt><trkpt lat="43.4150503" lon="11.0292652"><ele>213.0</ele><time>2026-04-05T09:55:58.813Z</time></trkpt><trkpt lat="43.414991" lon="11.0291413"><ele>213.0</ele><time>2026-04-05T09:55:59.814Z</time></trkpt><trkpt lat="43.4149079" lon="11.0290425"><ele>213.0</ele><time>2026-04-05T09:56:00.814Z</time></trkpt><trkpt lat="43.4148086" lon="11.0289868"><ele>213.25</ele><time>2026-04-05T09:56:01.814Z</time></trkpt><trkpt lat="43.4147009" lon="11.0289815"><ele>213.5</ele><time>2026-04-05T09:56:02.814Z</time></trkpt><trkpt lat="43.4145927" lon="11.029023"><ele>213.75</ele><time>2026-04-05T09:56:03.813Z</time></trkpt><trkpt lat="43.4144898" lon="11.0291095"><ele>214.0</ele><time>2026-04-05T09:56:04.814Z</time></trkpt><trkpt lat="43.4143976" lon="11.0292357"><ele>217.66666666666666</ele><time>2026-04-05T09:56:05.814Z</time></trkpt><trkpt lat="43.4143074" lon="11.0293917"><ele>221.33333333333331</ele><time>2026-04-05T09:56:06.814Z</time></trkpt><trkpt lat="43.4142141" lon="11.0295525"><ele>225.0</ele><time>2026-04-05T09:56:07.814Z</time></trkpt><trkpt lat="43.414112" lon="11.0297218"><ele>225.0</ele><time>2026-04-05T09:56:08.814Z</time></trkpt><trkpt lat="43.4140061" lon="11.029896"><ele>225.0</ele><time>2026-04-05T09:56:09.814Z</time></trkpt><trkpt lat="43.4138963" lon="11.0300759"><ele>225.0</ele><time>2026-04-05T09:56:10.814Z</time></trkpt><trkpt lat="43.4137853" lon="11.0302628"><ele>227.33333333333331</ele><time>2026-04-05T09:56:11.814Z</time></trkpt><trkpt lat="43.4136771" lon="11.0304573"><ele>229.66666666666666</ele><time>2026-04-05T09:56:12.814Z</time></trkpt><trkpt lat="43.4135682" lon="11.0306504"><ele>232.0</ele><time>2026-04-05T09:56:13.814Z</time></trkpt><trkpt lat="43.4134637" lon="11.0308318"><ele>232.0</ele><time>2026-04-05T09:56:14.814Z</time></trkpt><trkpt lat="43.413366" lon="11.030988"><ele>232.0</ele><time>2026-04-05T09:56:15.814Z</time></trkpt><trkpt lat="43.4132632" lon="11.0311116"><ele>232.0</ele><time>2026-04-05T09:56:16.814Z</time></trkpt><trkpt lat="43.4131562" lon="11.0311891"><ele>232.0</ele><time>2026-04-05T09:56:17.814Z</time></trkpt><trkpt lat="43.4130414" lon="11.0312135"><ele>235.0</ele><time>2026-04-05T09:56:18.814Z</time></trkpt><trkpt lat="43.412932" lon="11.0311806"><ele>238.0</ele><time>2026-04-05T09:56:19.814Z</time></trkpt><trkpt lat="43.4128342" lon="11.0311049"><ele>241.0</ele><time>2026-04-05T09:56:20.814Z</time></trkpt><trkpt lat="43.4127629" lon="11.0309889"><ele>244.0</ele><time>2026-04-05T09:56:21.814Z</time></trkpt><trkpt lat="43.4127212" lon="11.0308482"><ele>247.0</ele><time>2026-04-05T09:56:22.814Z</time></trkpt><trkpt lat="43.4127123" lon="11.030684"><ele>247.5</ele><time>2026-04-05T09:56:23.814Z</time></trkpt><trkpt lat="43.4127268" lon="11.0305044"><ele>248.0</ele><time>2026-04-05T09:56:24.814Z</time></trkpt><trkpt lat="43.4127488" lon="11.030321"><ele>248.5</ele><time>2026-04-05T09:56:25.814Z</time></trkpt><trkpt lat="43.4127735" lon="11.030131"><ele>249.0</ele><time>2026-04-05T09:56:26.814Z</time></trkpt><trkpt lat="43.4127892" lon="11.0299569"><ele>248.2</ele><time>2026-04-05T09:56:27.814Z</time></trkpt><trkpt lat="43.4127845" lon="11.0297997"><ele>247.39999999999998</ele><time>2026-04-05T09:56:28.814Z</time></trkpt><trkpt lat="43.4127522" lon="11.029655"><ele>246.6</ele><time>2026-04-05T09:56:29.814Z</time></trkpt><trkpt lat="43.4126875" lon="11.0295334"><ele>245.8</ele><time>2026-04-05T09:56:30.814Z</time></trkpt><trkpt lat="43.4125966" lon="11.0294423"><ele>245.0</ele><time>2026-04-05T09:56:31.814Z</time></trkpt><trkpt lat="43.412482" lon="11.0293822"><ele>245.0</ele><time>2026-04-05T09:56:32.814Z</time></trkpt><trkpt lat="43.4123498" lon="11.0293503"><ele>245.0</ele><time>2026-04-05T09:56:33.814Z</time></trkpt><trkpt lat="43.412209" lon="11.0293294"><ele>245.0</ele><time>2026-04-05T09:56:34.814Z</time></trkpt><trkpt lat="43.4120759" lon="11.0293056"><ele>245.0</ele><time>2026-04-05T09:56:35.813Z</time></trkpt><trkpt lat="43.411952" lon="11.0292743"><ele>247.75</ele><time>2026-04-05T09:56:36.814Z</time></trkpt><trkpt lat="43.4118415" lon="11.0292125"><ele>250.5</ele><time>2026-04-05T09:56:37.814Z</time></trkpt><trkpt lat="43.4117511" lon="11.0291029"><ele>253.25</ele><time>2026-04-05T09:56:38.814Z</time></trkpt><trkpt lat="43.4116915" lon="11.0289632"><ele>256.0</ele><time>2026-04-05T09:56:39.814Z</time></trkpt><trkpt lat="43.4116636" lon="11.0288117"><ele>257.0</ele><time>2026-04-05T09:56:40.814Z</time></trkpt><trkpt lat="43.41166" lon="11.028646"><ele>258.0</ele><time>2026-04-05T09:56:41.814Z</time></trkpt><trkpt lat="43.4116674" lon="11.0284677"><ele>259.0</ele><time>2026-04-05T09:56:42.814Z</time></trkpt><trkpt lat="43.4116763" lon="11.0282798"><ele>260.0</ele><time>2026-04-05T09:56:43.814Z</time></trkpt><trkpt lat="43.4116858" lon="11.0280826"><ele>259.5</ele><time>2026-04-05T09:56:44.814Z</time></trkpt><trkpt lat="43.4116952" lon="11.0278776"><ele>259.0</ele><time>2026-04-05T09:56:45.814Z</time></trkpt><trkpt lat="43.4117097" lon="11.0276718"><ele>258.5</ele><time>2026-04-05T09:56:46.814Z</time></trkpt><trkpt lat="43.4117184" lon="11.0274716"><ele>258.0</ele><time>2026-04-05T09:56:47.814Z</time></trkpt><trkpt lat="43.4117059" lon="11.0272848"><ele>258.0</ele><time>2026-04-05T09:56:48.813Z</time></trkpt><trkpt lat="43.411672" lon="11.0271039"><ele>258.0</ele><time>2026-04-05T09:56:49.814Z</time></trkpt><trkpt lat="43.4116147" lon="11.0269344"><ele>258.0</ele><time>2026-04-05T09:56:50.814Z</time></trkpt><trkpt lat="43.4115291" lon="11.026783"><ele>258.0</ele><time>2026-04-05T09:56:51.814Z</time></trkpt><trkpt lat="43.4114185" lon="11.0266489"><ele>262.3333333333333</ele><time>2026-04-05T09:56:52.814Z</time></trkpt><trkpt lat="43.411293" lon="11.0265185"><ele>266.66666666666663</ele><time>2026-04-05T09:56:53.814Z</time></trkpt><trkpt lat="43.4111626" lon="11.026384"><ele>271.0</ele><time>2026-04-05T09:56:54.814Z</time></trkpt><trkpt lat="43.4110291" lon="11.026246"><ele>271.0</ele><time>2026-04-05T09:56:55.814Z</time></trkpt><trkpt lat="43.410899" lon="11.0260996"><ele>271.0</ele><time>2026-04-05T09:56:56.814Z</time></trkpt><trkpt lat="43.4107748" lon="11.0259424"><ele>271.0</ele><time>2026-04-05T09:56:57.814Z</time></trkpt><trkpt lat="43.410654" lon="11.0257776"><ele>270.3333333333333</ele><time>2026-04-05T09:56:58.814Z</time></trkpt><trkpt lat="43.4105341" lon="11.0256103"><ele>269.6666666666667</ele><time>2026-04-05T09:56:59.814Z</time></trkpt><trkpt lat="43.4104138" lon="11.0254435"><ele>269.0</ele><time>2026-04-05T09:57:00.814Z</time></trkpt><trkpt lat="43.4102941" lon="11.0252749"><ele>271.33333333333337</ele><time>2026-04-05T09:57:01.814Z</time></trkpt><trkpt lat="43.4101761" lon="11.0251042"><ele>273.6666666666667</ele><time>2026-04-05T09:57:02.814Z</time></trkpt><trkpt lat="43.4100599" lon="11.0249353"><ele>276.0</ele><time>2026-04-05T09:57:03.814Z</time></trkpt><trkpt lat="43.4099529" lon="11.0247779"><ele>276.25</ele><time>2026-04-05T09:57:04.814Z</time></trkpt><trkpt lat="43.4098537" lon="11.0246362"><ele>276.5</ele><time>2026-04-05T09:57:05.814Z</time></trkpt><trkpt lat="43.4097696" lon="11.024494"><ele>276.75</ele><time>2026-04-05T09:57:06.813Z</time></trkpt><trkpt lat="43.4097164" lon="11.0243511"><ele>277.0</ele><time>2026-04-05T09:57:07.814Z</time></trkpt><trkpt lat="43.4096965" lon="11.0242032"><ele>279.2</ele><time>2026-04-05T09:57:08.814Z</time></trkpt><trkpt lat="43.4097149" lon="11.0240641"><ele>281.4</ele><time>2026-04-05T09:57:09.814Z</time></trkpt><trkpt lat="43.4097633" lon="11.0239431"><ele>283.6</ele><time>2026-04-05T09:57:10.814Z</time></trkpt><trkpt lat="43.4098386" lon="11.0238454"><ele>285.8</ele><time>2026-04-05T09:57:11.814Z</time></trkpt><trkpt lat="43.4099317" lon="11.0237778"><ele>288.0</ele><time>2026-04-05T09:57:12.814Z</time></trkpt><trkpt lat="43.4100376" lon="11.0237434"><ele>288.0</ele><time>2026-04-05T09:57:13.814Z</time></trkpt><trkpt lat="43.4101621" lon="11.0237415"><ele>288.0</ele><time>2026-04-05T09:57:14.814Z</time></trkpt><trkpt lat="43.4103016" lon="11.02376"><ele>288.0</ele><time>2026-04-05T09:57:15.814Z</time></trkpt><trkpt lat="43.4104488" lon="11.023785"><ele>288.0</ele><time>2026-04-05T09:57:16.814Z</time></trkpt><trkpt lat="43.4106014" lon="11.023807"><ele>289.0</ele><time>2026-04-05T09:57:17.814Z</time></trkpt><trkpt lat="43.4107597" lon="11.0238281"><ele>290.0</ele><time>2026-04-05T09:57:18.814Z</time></trkpt><trkpt lat="43.4109188" lon="11.0238599"><ele>291.0</ele><time>2026-04-05T09:57:19.813Z</time></trkpt><trkpt lat="43.4110651" lon="11.0238843"><ele>291.0</ele><time>2026-04-05T09:57:20.814Z</time></trkpt><trkpt lat="43.4111995" lon="11.0239015"><ele>291.0</ele><time>2026-04-05T09:57:21.814Z</time></trkpt><trkpt lat="43.4113247" lon="11.0238933"><ele>291.0</ele><time>2026-04-05T09:57:22.814Z</time></trkpt><trkpt lat="43.4114422" lon="11.0238519"><ele>291.0</ele><time>2026-04-05T09:57:23.814Z</time></trkpt><trkpt lat="43.4115448" lon="11.0237738"><ele>291.0</ele><time>2026-04-05T09:57:24.813Z</time></trkpt><trkpt lat="43.4116391" lon="11.023662"><ele>291.0</ele><time>2026-04-05T09:57:25.814Z</time></trkpt><trkpt lat="43.4117209" lon="11.0235244"><ele>291.0</ele><time>2026-04-05T09:57:26.814Z</time></trkpt><trkpt lat="43.4117821" lon="11.023369"><ele>291.0</ele><time>2026-04-05T09:57:27.814Z</time></trkpt><trkpt lat="43.4118162" lon="11.0232008"><ele>292.5</ele><time>2026-04-05T09:57:28.814Z</time></trkpt><trkpt lat="43.411828" lon="11.0230225"><ele>294.0</ele><time>2026-04-05T09:57:29.814Z</time></trkpt><trkpt lat="43.4118276" lon="11.0228324"><ele>295.5</ele><time>2026-04-05T09:57:30.814Z</time></trkpt><trkpt lat="43.4118278" lon="11.0226369"><ele>297.0</ele><time>2026-04-05T09:57:31.814Z</time></trkpt><trkpt lat="43.411819" lon="11.022446"><ele>297.75</ele><time>2026-04-05T09:57:32.814Z</time></trkpt><trkpt lat="43.411787" lon="11.0222569"><ele>298.5</ele><time>2026-04-05T09:57:33.814Z</time></trkpt><trkpt lat="43.4117346" lon="11.0220668"><ele>299.25</ele><time>2026-04-05T09:57:34.814Z</time></trkpt><trkpt lat="43.4116645" lon="11.0218791"><ele>300.0</ele><time>2026-04-05T09:57:35.814Z</time></trkpt><trkpt lat="43.4115879" lon="11.021686"><ele>298.3333333333333</ele><time>2026-04-05T09:57:36.814Z</time></trkpt><trkpt lat="43.4115127" lon="11.0214938"><ele>296.66666666666663</ele><time>2026-04-05T09:57:37.814Z</time></trkpt><trkpt lat="43.4114386" lon="11.0213"><ele>295.0</ele><time>2026-04-05T09:57:38.814Z</time></trkpt><trkpt lat="43.4113626" lon="11.0211133"><ele>298.0</ele><time>2026-04-05T09:57:39.814Z</time></trkpt><trkpt lat="43.4112786" lon="11.0209582"><ele>301.0</ele><time>2026-04-05T09:57:40.814Z</time></trkpt><trkpt lat="43.4111771" lon="11.0208322"><ele>304.0</ele><time>2026-04-05T09:57:41.814Z</time></trkpt><trkpt lat="43.4110463" lon="11.0207241"><ele>307.0</ele><time>2026-04-05T09:57:42.814Z</time></trkpt><trkpt lat="43.4109006" lon="11.0206225"><ele>307.0</ele><time>2026-04-05T09:57:43.814Z</time></trkpt><trkpt lat="43.4107481" lon="11.0205286"><ele>307.0</ele><time>2026-04-05T09:57:44.814Z</time></trkpt><trkpt lat="43.4105958" lon="11.0204318"><ele>307.0</ele><time>2026-04-05T09:57:45.814Z</time></trkpt><trkpt lat="43.4104477" lon="11.0203395"><ele>310.25</ele><time>2026-04-05T09:57:46.814Z</time></trkpt><trkpt lat="43.4103121" lon="11.020253"><ele>313.5</ele><time>2026-04-05T09:57:47.814Z</time></trkpt><trkpt lat="43.4101864" lon="11.0201635"><ele>316.75</ele><time>2026-04-05T09:57:48.814Z</time></trkpt><trkpt lat="43.410075" lon="11.0200605"><ele>320.0</ele><time>2026-04-05T09:57:49.814Z</time></trkpt><trkpt lat="43.4099844" lon="11.0199328"><ele>320.75</ele><time>2026-04-05T09:57:50.814Z</time></trkpt><trkpt lat="43.4099228" lon="11.0197811"><ele>321.5</ele><time>2026-04-05T09:57:51.814Z</time></trkpt><trkpt lat="43.4098992" lon="11.0196161"><ele>322.25</ele><time>2026-04-05T09:57:52.814Z</time></trkpt><trkpt lat="43.4099091" lon="11.0194515"><ele>323.0</ele><time>2026-04-05T09:57:53.814Z</time></trkpt><trkpt lat="43.4099529" lon="11.0192899"><ele>324.75</ele><time>2026-04-05T09:57:54.814Z</time></trkpt><trkpt lat="43.4100264" lon="11.0191395"><ele>326.5</ele><time>2026-04-05T09:57:55.814Z</time></trkpt><trkpt lat="43.4101247" lon="11.0189983"><ele>328.25</ele><time>2026-04-05T09:57:56.813Z</time></trkpt><trkpt lat="43.4102365" lon="11.0188679"><ele>330.0</ele><time>2026-04-05T09:57:57.814Z</time></trkpt><trkpt lat="43.4103402" lon="11.0187457"><ele>330.0</ele><time>2026-04-05T09:57:58.814Z</time></trkpt><trkpt lat="43.410423" lon="11.0186189"><ele>330.0</ele><time>2026-04-05T09:57:59.814Z</time></trkpt><trkpt lat="43.4104848" lon="11.0184777"><ele>330.0</ele><time>2026-04-05T09:58:00.814Z</time></trkpt><trkpt lat="43.4105082" lon="11.0183287"><ele>330.0</ele><time>2026-04-05T09:58:01.814Z</time></trkpt><trkpt lat="43.4105019" lon="11.0181628"><ele>330.25</ele><time>2026-04-05T09:58:02.814Z</time></trkpt><trkpt lat="43.4104618" lon="11.0179989"><ele>330.5</ele><time>2026-04-05T09:58:03.814Z</time></trkpt><trkpt lat="43.4103899" lon="11.0178419"><ele>330.75</ele><time>2026-04-05T09:58:04.814Z</time></trkpt><trkpt lat="43.4102904" lon="11.0176994"><ele>331.0</ele><time>2026-04-05T09:58:05.814Z</time></trkpt><trkpt lat="43.4101844" lon="11.0175662"><ele>329.0</ele><time>2026-04-05T09:58:06.814Z</time></trkpt><trkpt lat="43.4100905" lon="11.0174418"><ele>327.0</ele><time>2026-04-05T09:58:07.814Z</time></trkpt><trkpt lat="43.4099899" lon="11.0173508"><ele>325.0</ele><time>2026-04-05T09:58:08.814Z</time></trkpt><trkpt lat="43.4098761" lon="11.0172904"><ele>323.0</ele><time>2026-04-05T09:58:09.814Z</time></trkpt><trkpt lat="43.4097594" lon="11.0172549"><ele>324.75</ele><time>2026-04-05T09:58:10.814Z</time></trkpt><trkpt lat="43.4096435" lon="11.0172573"><ele>326.5</ele><time>2026-04-05T09:58:11.814Z</time></trkpt><trkpt lat="43.4095318" lon="11.0172959"><ele>328.25</ele><time>2026-04-05T09:58:12.814Z</time></trkpt><trkpt lat="43.4094247" lon="11.017384"><ele>330.0</ele><time>2026-04-05T09:58:13.814Z</time></trkpt><trkpt lat="43.409315" lon="11.0175188"><ele>332.0</ele><time>2026-04-05T09:58:14.814Z</time></trkpt><trkpt lat="43.4091899" lon="11.0176672"><ele>334.0</ele><time>2026-04-05T09:58:15.814Z</time></trkpt><trkpt lat="43.4090484" lon="11.0178272"><ele>336.0</ele><time>2026-04-05T09:58:16.814Z</time></trkpt><trkpt lat="43.4088987" lon="11.0179928"><ele>336.3333333333333</ele><time>2026-04-05T09:58:17.814Z</time></trkpt><trkpt lat="43.4087554" lon="11.0181627"><ele>336.66666666666663</ele><time>2026-04-05T09:58:18.814Z</time></trkpt><trkpt lat="43.4086067" lon="11.0183433"><ele>337.0</ele><time>2026-04-05T09:58:19.814Z</time></trkpt><trkpt lat="43.4084535" lon="11.0185249"><ele>337.66666666666663</ele><time>2026-04-05T09:58:20.814Z</time></trkpt><trkpt lat="43.4083006" lon="11.0187057"><ele>338.3333333333333</ele><time>2026-04-05T09:58:21.814Z</time></trkpt><trkpt lat="43.4081537" lon="11.0188878"><ele>339.0</ele><time>2026-04-05T09:58:22.814Z</time></trkpt><trkpt lat="43.4080023" lon="11.0190652"><ele>341.0</ele><time>2026-04-05T09:58:23.814Z</time></trkpt><trkpt lat="43.4078378" lon="11.0192351"><ele>343.0</ele><time>2026-04-05T09:58:24.814Z</time></trkpt><trkpt lat="43.4076646" lon="11.0193985"><ele>345.0</ele><time>2026-04-05T09:58:25.814Z</time></trkpt><trkpt lat="43.4074895" lon="11.0195589"><ele>345.0</ele><time>2026-04-05T09:58:26.814Z</time></trkpt><trkpt lat="43.4073109" lon="11.0197211"><ele>345.0</ele><time>2026-04-05T09:58:27.814Z</time></trkpt><trkpt lat="43.4071319" lon="11.0198817"><ele>345.0</ele><time>2026-04-05T09:58:28.814Z</time></trkpt><trkpt lat="43.4069503" lon="11.0200429"><ele>345.3333333333333</ele><time>2026-04-05T09:58:29.814Z</time></trkpt><trkpt lat="43.4067679" lon="11.0202032"><ele>345.66666666666663</ele><time>2026-04-05T09:58:30.814Z</time></trkpt><trkpt lat="43.406588" lon="11.0203692"><ele>346.0</ele><time>2026-04-05T09:58:31.814Z</time></trkpt><trkpt lat="43.4064078" lon="11.0205354"><ele>349.66666666666663</ele><time>2026-04-05T09:58:32.814Z</time></trkpt><trkpt lat="43.4062308" lon="11.0206942"><ele>353.3333333333333</ele><time>2026-04-05T09:58:33.814Z</time></trkpt><trkpt lat="43.4060641" lon="11.0208454"><ele>357.0</ele><time>2026-04-05T09:58:34.814Z</time></trkpt><trkpt lat="43.4059089" lon="11.0209813"><ele>357.0</ele><time>2026-04-05T09:58:35.814Z</time></trkpt><trkpt lat="43.405758" lon="11.0210956"><ele>357.0</ele><time>2026-04-05T09:58:36.814Z</time></trkpt><trkpt lat="43.4055967" lon="11.0211913"><ele>357.0</ele><time>2026-04-05T09:58:37.814Z</time></trkpt><trkpt lat="43.4054263" lon="11.0212681"><ele>360.3333333333333</ele><time>2026-04-05T09:58:38.814Z</time></trkpt><trkpt lat="43.4052613" lon="11.0213288"><ele>363.66666666666663</ele><time>2026-04-05T09:58:39.814Z</time></trkpt><trkpt lat="43.4051095" lon="11.0213823"><ele>367.0</ele><time>2026-04-05T09:58:40.814Z</time></trkpt><trkpt lat="43.4049771" lon="11.0214304"><ele>367.0</ele><time>2026-04-05T09:58:41.814Z</time></trkpt><trkpt lat="43.4048622" lon="11.0214614"><ele>367.0</ele><time>2026-04-05T09:58:42.814Z</time></trkpt><trkpt lat="43.4047615" lon="11.0214539"><ele>367.0</ele><time>2026-04-05T09:58:43.814Z</time></trkpt><trkpt lat="43.4046854" lon="11.0214071"><ele>367.0</ele><time>2026-04-05T09:58:44.814Z</time></trkpt><trkpt lat="43.4046416" lon="11.0213425"><ele>367.0</ele><time>2026-04-05T09:58:45.814Z</time></trkpt><trkpt lat="43.4046092" lon="11.0212376"><ele>367.0</ele><time>2026-04-05T09:58:47.814Z</time></trkpt><trkpt lat="43.4046154" lon="11.0210867"><ele>367.0</ele><time>2026-04-05T09:58:50.814Z</time></trkpt><trkpt lat="43.4046841" lon="11.0209301"><ele>367.0</ele><time>2026-04-05T09:58:52.814Z</time></trkpt><trkpt lat="43.4047493" lon="11.020858"><ele>367.0</ele><time>2026-04-05T09:58:53.814Z</time></trkpt><trkpt lat="43.4048287" lon="11.0207933"><ele>367.0</ele><time>2026-04-05T09:58:54.814Z</time></trkpt><trkpt lat="43.4049191" lon="11.0207385"><ele>367.0</ele><time>2026-04-05T09:58:55.814Z</time></trkpt><trkpt lat="43.4050079" lon="11.0206904"><ele>368.5</ele><time>2026-04-05T09:58:56.814Z</time></trkpt><trkpt lat="43.4050727" lon="11.0206368"><ele>370.0</ele><time>2026-04-05T09:58:57.814Z</time></trkpt><trkpt lat="43.4051104" lon="11.0204988"><ele>371.5</ele><time>2026-04-05T09:58:59.814Z</time></trkpt><trkpt lat="43.405037" lon="11.0203978"><ele>373.0</ele><time>2026-04-05T09:59:01.814Z</time></trkpt><trkpt lat="43.4049764" lon="11.0203573"><ele>374.5</ele><time>2026-04-05T09:59:02.814Z</time></trkpt><trkpt lat="43.4049054" lon="11.0203144"><ele>376.0</ele><time>2026-04-05T09:59:03.814Z</time></trkpt><trkpt lat="43.4048245" lon="11.0202678"><ele>376.0</ele><time>2026-04-05T09:59:04.813Z</time></trkpt><trkpt lat="43.4047497" lon="11.0202248"><ele>376.0</ele><time>2026-04-05T09:59:05.814Z</time></trkpt><trkpt lat="43.4046831" lon="11.0201815"><ele>376.0</ele><time>2026-04-05T09:59:06.814Z</time></trkpt><trkpt lat="43.4046282" lon="11.0201341"><ele>376.0</ele><time>2026-04-05T09:59:07.814Z</time></trkpt><trkpt lat="43.404553" lon="11.0200319"><ele>376.0</ele><time>2026-04-05T09:59:09.814Z</time></trkpt><trkpt lat="43.4044875" lon="11.0199255"><ele>376.0</ele><time>2026-04-05T09:59:11.814Z</time></trkpt><trkpt lat="43.4044214" lon="11.0197942"><ele>375.20000000000005</ele><time>2026-04-05T09:59:13.814Z</time></trkpt><trkpt lat="43.4043993" lon="11.0196912"><ele>374.40000000000003</ele><time>2026-04-05T09:59:14.814Z</time></trkpt><trkpt lat="43.4043851" lon="11.0195658"><ele>373.6</ele><time>2026-04-05T09:59:15.814Z</time></trkpt><trkpt lat="43.4043775" lon="11.0194251"><ele>372.8</ele><time>2026-04-05T09:59:16.814Z</time></trkpt><trkpt lat="43.4043688" lon="11.0192739"><ele>372.0</ele><time>2026-04-05T09:59:17.814Z</time></trkpt><trkpt lat="43.4043645" lon="11.0191118"><ele>372.0</ele><time>2026-04-05T09:59:18.814Z</time></trkpt><trkpt lat="43.4043659" lon="11.018942"><ele>372.0</ele><time>2026-04-05T09:59:19.814Z</time></trkpt><trkpt lat="43.4043708" lon="11.0187659"><ele>372.0</ele><time>2026-04-05T09:59:20.814Z</time></trkpt><trkpt lat="43.4043813" lon="11.0185876"><ele>372.0</ele><time>2026-04-05T09:59:21.814Z</time></trkpt><trkpt lat="43.4043948" lon="11.0184018"><ele>370.5</ele><time>2026-04-05T09:59:22.814Z</time></trkpt><trkpt lat="43.4044033" lon="11.0182276"><ele>369.0</ele><time>2026-04-05T09:59:23.814Z</time></trkpt><trkpt lat="43.4044017" lon="11.0180586"><ele>367.5</ele><time>2026-04-05T09:59:24.814Z</time></trkpt><trkpt lat="43.4043874" lon="11.0178956"><ele>366.0</ele><time>2026-04-05T09:59:25.814Z</time></trkpt><trkpt lat="43.4043648" lon="11.0177374"><ele>366.0</ele><time>2026-04-05T09:59:26.814Z</time></trkpt><trkpt lat="43.4043254" lon="11.0175911"><ele>366.0</ele><time>2026-04-05T09:59:27.814Z</time></trkpt><trkpt lat="43.4042769" lon="11.0174515"><ele>366.0</ele><time>2026-04-05T09:59:28.814Z</time></trkpt><trkpt lat="43.4042177" lon="11.0173049"><ele>366.0</ele><time>2026-04-05T09:59:29.814Z</time></trkpt><trkpt lat="43.404149" lon="11.0171453"><ele>365.0</ele><time>2026-04-05T09:59:30.814Z</time></trkpt><trkpt lat="43.4040772" lon="11.0169707"><ele>364.0</ele><time>2026-04-05T09:59:31.814Z</time></trkpt><trkpt lat="43.4039999" lon="11.0167907"><ele>363.0</ele><time>2026-04-05T09:59:32.814Z</time></trkpt><trkpt lat="43.4039189" lon="11.0166106"><ele>361.25</ele><time>2026-04-05T09:59:33.814Z</time></trkpt><trkpt lat="43.4038408" lon="11.0164342"><ele>359.5</ele><time>2026-04-05T09:59:34.814Z</time></trkpt><trkpt lat="43.4037675" lon="11.0162662"><ele>357.75</ele><time>2026-04-05T09:59:35.814Z</time></trkpt><trkpt lat="43.4036985" lon="11.0160935"><ele>356.0</ele><time>2026-04-05T09:59:36.814Z</time></trkpt><trkpt lat="43.4036363" lon="11.0159014"><ele>357.33333333333337</ele><time>2026-04-05T09:59:37.814Z</time></trkpt><trkpt lat="43.4035878" lon="11.01569"><ele>358.6666666666667</ele><time>2026-04-05T09:59:38.814Z</time></trkpt><trkpt lat="43.4035542" lon="11.0154719"><ele>360.0</ele><time>2026-04-05T09:59:39.813Z</time></trkpt><trkpt lat="43.4035327" lon="11.0152659"><ele>360.0</ele><time>2026-04-05T09:59:40.814Z</time></trkpt><trkpt lat="43.4035273" lon="11.0150703"><ele>360.0</ele><time>2026-04-05T09:59:41.814Z</time></trkpt><trkpt lat="43.4035446" lon="11.014888"><ele>360.0</ele><time>2026-04-05T09:59:42.814Z</time></trkpt><trkpt lat="43.40359" lon="11.0147109"><ele>360.0</ele><time>2026-04-05T09:59:43.814Z</time></trkpt><trkpt lat="43.403654" lon="11.014538"><ele>360.75</ele><time>2026-04-05T09:59:44.814Z</time></trkpt><trkpt lat="43.4037245" lon="11.0143656"><ele>361.5</ele><time>2026-04-05T09:59:45.814Z</time></trkpt><trkpt lat="43.4037972" lon="11.0141956"><ele>362.25</ele><time>2026-04-05T09:59:46.814Z</time></trkpt><trkpt lat="43.4038684" lon="11.0140264"><ele>363.0</ele><time>2026-04-05T09:59:47.814Z</time></trkpt><trkpt lat="43.4039377" lon="11.0138674"><ele>366.0</ele><time>2026-04-05T09:59:48.814Z</time></trkpt><trkpt lat="43.4040159" lon="11.0137291"><ele>369.0</ele><time>2026-04-05T09:59:49.814Z</time></trkpt><trkpt lat="43.4041177" lon="11.0136272"><ele>372.0</ele><time>2026-04-05T09:59:50.814Z</time></trkpt><trkpt lat="43.4042391" lon="11.0135635"><ele>375.0</ele><time>2026-04-05T09:59:51.814Z</time></trkpt><trkpt lat="43.4043685" lon="11.0135278"><ele>375.0</ele><time>2026-04-05T09:59:52.814Z</time></trkpt><trkpt lat="43.4044962" lon="11.0134983"><ele>375.0</ele><time>2026-04-05T09:59:53.813Z</time></trkpt><trkpt lat="43.4045991" lon="11.0134276"><ele>375.0</ele><time>2026-04-05T09:59:54.814Z</time></trkpt><trkpt lat="43.4046775" lon="11.0133299"><ele>375.0</ele><time>2026-04-05T09:59:55.814Z</time></trkpt><trkpt lat="43.404716" lon="11.0132147"><ele>375.0</ele><time>2026-04-05T09:59:56.814Z</time></trkpt><trkpt lat="43.4047127" lon="11.013089"><ele>376.25</ele><time>2026-04-05T09:59:57.814Z</time></trkpt><trkpt lat="43.4046746" lon="11.0129555"><ele>377.5</ele><time>2026-04-05T09:59:58.814Z</time></trkpt><trkpt lat="43.4046121" lon="11.0128182"><ele>378.75</ele><time>2026-04-05T09:59:59.814Z</time></trkpt><trkpt lat="43.4045416" lon="11.0126732"><ele>380.0</ele><time>2026-04-05T10:00:00.814Z</time></trkpt><trkpt lat="43.4044689" lon="11.0125205"><ele>381.0</ele><time>2026-04-05T10:00:01.814Z</time></trkpt><trkpt lat="43.4044015" lon="11.0123521"><ele>382.0</ele><time>2026-04-05T10:00:02.814Z</time></trkpt><trkpt lat="43.4043477" lon="11.0121687"><ele>383.0</ele><time>2026-04-05T10:00:03.814Z</time></trkpt><trkpt lat="43.4043118" lon="11.0119743"><ele>384.0</ele><time>2026-04-05T10:00:04.814Z</time></trkpt><trkpt lat="43.4042893" lon="11.0117771"><ele>384.0</ele><time>2026-04-05T10:00:05.814Z</time></trkpt><trkpt lat="43.4042797" lon="11.0115677"><ele>384.0</ele><time>2026-04-05T10:00:06.814Z</time></trkpt><trkpt lat="43.4042708" lon="11.011358"><ele>384.0</ele><time>2026-04-05T10:00:07.814Z</time></trkpt><trkpt lat="43.4042701" lon="11.0111606"><ele>384.0</ele><time>2026-04-05T10:00:08.814Z</time></trkpt><trkpt lat="43.4042829" lon="11.0109733"><ele>383.25</ele><time>2026-04-05T10:00:09.814Z</time></trkpt><trkpt lat="43.4043146" lon="11.0107938"><ele>382.5</ele><time>2026-04-05T10:00:10.814Z</time></trkpt><trkpt lat="43.4043538" lon="11.010621"><ele>381.75</ele><time>2026-04-05T10:00:11.814Z</time></trkpt><trkpt lat="43.404388" lon="11.010446"><ele>381.0</ele><time>2026-04-05T10:00:12.814Z</time></trkpt><trkpt lat="43.4044058" lon="11.0102708"><ele>381.0</ele><time>2026-04-05T10:00:13.814Z</time></trkpt><trkpt lat="43.404393" lon="11.0100835"><ele>381.0</ele><time>2026-04-05T10:00:14.814Z</time></trkpt><trkpt lat="43.4043457" lon="11.0098719"><ele>381.0</ele><time>2026-04-05T10:00:15.813Z</time></trkpt><trkpt lat="43.4042853" lon="11.0096323"><ele>380.0</ele><time>2026-04-05T10:00:16.814Z</time></trkpt><trkpt lat="43.4042289" lon="11.0093887"><ele>379.0</ele><time>2026-04-05T10:00:17.814Z</time></trkpt><trkpt lat="43.4041724" lon="11.0091294"><ele>378.0</ele><time>2026-04-05T10:00:18.814Z</time></trkpt><trkpt lat="43.404113" lon="11.0088603"><ele>378.0</ele><time>2026-04-05T10:00:19.814Z</time></trkpt><trkpt lat="43.404054" lon="11.0085821"><ele>378.0</ele><time>2026-04-05T10:00:20.814Z</time></trkpt><trkpt lat="43.4039956" lon="11.0083085"><ele>378.0</ele><time>2026-04-05T10:00:21.814Z</time></trkpt><trkpt lat="43.4039211" lon="11.0080327"><ele>377.6666666666667</ele><time>2026-04-05T10:00:22.814Z</time></trkpt><trkpt lat="43.4038399" lon="11.0077575"><ele>377.33333333333337</ele><time>2026-04-05T10:00:23.814Z</time></trkpt><trkpt lat="43.4037578" lon="11.0074916"><ele>377.0</ele><time>2026-04-05T10:00:24.814Z</time></trkpt><trkpt lat="43.4036802" lon="11.007242"><ele>377.0</ele><time>2026-04-05T10:00:25.814Z</time></trkpt><trkpt lat="43.4036019" lon="11.0070012"><ele>377.0</ele><time>2026-04-05T10:00:26.814Z</time></trkpt><trkpt lat="43.4035249" lon="11.0067566"><ele>377.0</ele><time>2026-04-05T10:00:27.814Z</time></trkpt><trkpt lat="43.4034452" lon="11.0065101"><ele>376.33333333333337</ele><time>2026-04-05T10:00:28.814Z</time></trkpt><trkpt lat="43.4033672" lon="11.0062578"><ele>375.6666666666667</ele><time>2026-04-05T10:00:29.814Z</time></trkpt><trkpt lat="43.4032879" lon="11.0060023"><ele>375.0</ele><time>2026-04-05T10:00:30.814Z</time></trkpt><trkpt lat="43.4031982" lon="11.0057529"><ele>375.0</ele><time>2026-04-05T10:00:31.814Z</time></trkpt><trkpt lat="43.4030989" lon="11.0055136"><ele>375.0</ele><time>2026-04-05T10:00:32.814Z</time></trkpt><trkpt lat="43.4029895" lon="11.0052949"><ele>375.0</ele><time>2026-04-05T10:00:33.814Z</time></trkpt><trkpt lat="43.4028765" lon="11.0050953"><ele>375.6666666666667</ele><time>2026-04-05T10:00:34.814Z</time></trkpt><trkpt lat="43.4027683" lon="11.0049093"><ele>376.33333333333337</ele><time>2026-04-05T10:00:35.814Z</time></trkpt><trkpt lat="43.4026699" lon="11.0047093"><ele>377.0</ele><time>2026-04-05T10:00:36.814Z</time></trkpt><trkpt lat="43.402589" lon="11.0044821"><ele>377.0</ele><time>2026-04-05T10:00:37.814Z</time></trkpt><trkpt lat="43.4025347" lon="11.0042363"><ele>377.0</ele><time>2026-04-05T10:00:38.814Z</time></trkpt><trkpt lat="43.40248" lon="11.0040009"><ele>377.0</ele><time>2026-04-05T10:00:39.814Z</time></trkpt><trkpt lat="43.4024069" lon="11.0037695"><ele>378.33333333333337</ele><time>2026-04-05T10:00:40.814Z</time></trkpt><trkpt lat="43.4023279" lon="11.0035462"><ele>379.6666666666667</ele><time>2026-04-05T10:00:41.813Z</time></trkpt><trkpt lat="43.4022487" lon="11.0033412"><ele>381.0</ele><time>2026-04-05T10:00:42.814Z</time></trkpt><trkpt lat="43.402167" lon="11.0031548"><ele>384.0</ele><time>2026-04-05T10:00:43.814Z</time></trkpt><trkpt lat="43.4020758" lon="11.0029962"><ele>387.0</ele><time>2026-04-05T10:00:44.814Z</time></trkpt><trkpt lat="43.4019666" lon="11.0028878"><ele>390.0</ele><time>2026-04-05T10:00:45.814Z</time></trkpt><trkpt lat="43.4018368" lon="11.0028254"><ele>393.0</ele><time>2026-04-05T10:00:46.814Z</time></trkpt><trkpt lat="43.4016969" lon="11.0028067"><ele>393.0</ele><time>2026-04-05T10:00:47.814Z</time></trkpt><trkpt lat="43.4015614" lon="11.0027968"><ele>393.0</ele><time>2026-04-05T10:00:48.814Z</time></trkpt><trkpt lat="43.4014444" lon="11.0027662"><ele>393.0</ele><time>2026-04-05T10:00:49.814Z</time></trkpt><trkpt lat="43.4013558" lon="11.0027003"><ele>393.0</ele><time>2026-04-05T10:00:50.814Z</time></trkpt><trkpt lat="43.4013113" lon="11.0025973"><ele>393.0</ele><time>2026-04-05T10:00:51.814Z</time></trkpt><trkpt lat="43.4013067" lon="11.0024814"><ele>395.59999999999997</ele><time>2026-04-05T10:00:52.814Z</time></trkpt><trkpt lat="43.4013449" lon="11.002367"><ele>398.2</ele><time>2026-04-05T10:00:53.814Z</time></trkpt><trkpt lat="43.4014102" lon="11.0022515"><ele>400.8</ele><time>2026-04-05T10:00:54.814Z</time></trkpt><trkpt lat="43.4014984" lon="11.0021356"><ele>403.4</ele><time>2026-04-05T10:00:55.814Z</time></trkpt><trkpt lat="43.401591" lon="11.0020174"><ele>406.0</ele><time>2026-04-05T10:00:56.814Z</time></trkpt><trkpt lat="43.4016958" lon="11.0019209"><ele>406.0</ele><time>2026-04-05T10:00:57.813Z</time></trkpt><trkpt lat="43.4018131" lon="11.0018722"><ele>406.0</ele><time>2026-04-05T10:00:58.814Z</time></trkpt><trkpt lat="43.4019432" lon="11.0018662"><ele>406.0</ele><time>2026-04-05T10:00:59.814Z</time></trkpt><trkpt lat="43.402076" lon="11.0018972"><ele>406.0</ele><time>2026-04-05T10:01:00.814Z</time></trkpt><trkpt lat="43.4022087" lon="11.0019468"><ele>405.0</ele><time>2026-04-05T10:01:01.814Z</time></trkpt><trkpt lat="43.4023285" lon="11.0019812"><ele>404.0</ele><time>2026-04-05T10:01:02.814Z</time></trkpt><trkpt lat="43.4024434" lon="11.001993"><ele>403.0</ele><time>2026-04-05T10:01:03.814Z</time></trkpt><trkpt lat="43.4025463" lon="11.0019591"><ele>402.0</ele><time>2026-04-05T10:01:04.814Z</time></trkpt><trkpt lat="43.4026301" lon="11.0018757"><ele>401.0</ele><time>2026-04-05T10:01:05.814Z</time></trkpt><trkpt lat="43.402695" lon="11.0017519"><ele>403.25</ele><time>2026-04-05T10:01:06.814Z</time></trkpt><trkpt lat="43.402735" lon="11.0015934"><ele>405.5</ele><time>2026-04-05T10:01:07.814Z</time></trkpt><trkpt lat="43.4027623" lon="11.0014126"><ele>407.75</ele><time>2026-04-05T10:01:08.814Z</time></trkpt><trkpt lat="43.402782" lon="11.001208"><ele>410.0</ele><time>2026-04-05T10:01:09.814Z</time></trkpt><trkpt lat="43.4028076" lon="11.0009996"><ele>411.5</ele><time>2026-04-05T10:01:10.813Z</time></trkpt><trkpt lat="43.4028368" lon="11.0007847"><ele>413.0</ele><time>2026-04-05T10:01:11.814Z</time></trkpt><trkpt lat="43.402866" lon="11.0005805"><ele>414.5</ele><time>2026-04-05T10:01:12.814Z</time></trkpt><trkpt lat="43.4028809" lon="11.0003954"><ele>416.0</ele><time>2026-04-05T10:01:13.814Z</time></trkpt><trkpt lat="43.4028636" lon="11.0002331"><ele>416.0</ele><time>2026-04-05T10:01:14.814Z</time></trkpt><trkpt lat="43.4028101" lon="11.0000821"><ele>416.0</ele><time>2026-04-05T10:01:15.814Z</time></trkpt><trkpt lat="43.4027181" lon="10.9999404"><ele>416.0</ele><time>2026-04-05T10:01:16.814Z</time></trkpt><trkpt lat="43.4026028" lon="10.9997993"><ele>416.0</ele><time>2026-04-05T10:01:17.814Z</time></trkpt><trkpt lat="43.4024743" lon="10.9996526"><ele>416.0</ele><time>2026-04-05T10:01:18.814Z</time></trkpt><trkpt lat="43.4023369" lon="10.9994954"><ele>416.0</ele><time>2026-04-05T10:01:19.814Z</time></trkpt><trkpt lat="43.4022002" lon="10.9993311"><ele>416.0</ele><time>2026-04-05T10:01:20.814Z</time></trkpt><trkpt lat="43.4020585" lon="10.9991608"><ele>420.0</ele><time>2026-04-05T10:01:21.814Z</time></trkpt><trkpt lat="43.4019143" lon="10.9989912"><ele>424.0</ele><time>2026-04-05T10:01:22.814Z</time></trkpt><trkpt lat="43.4017802" lon="10.9988405"><ele>428.0</ele><time>2026-04-05T10:01:23.814Z</time></trkpt><trkpt lat="43.4016567" lon="10.998701"><ele>428.0</ele><time>2026-04-05T10:01:24.814Z</time></trkpt><trkpt lat="43.4015549" lon="10.9985575"><ele>428.0</ele><time>2026-04-05T10:01:25.814Z</time></trkpt><trkpt lat="43.4014769" lon="10.9983945"><ele>428.0</ele><time>2026-04-05T10:01:26.813Z</time></trkpt><trkpt lat="43.401434" lon="10.9982171"><ele>428.0</ele><time>2026-04-05T10:01:27.814Z</time></trkpt><trkpt lat="43.4014275" lon="10.9980302"><ele>427.0</ele><time>2026-04-05T10:01:28.814Z</time></trkpt><trkpt lat="43.4014389" lon="10.9978261"><ele>426.0</ele><time>2026-04-05T10:01:29.814Z</time></trkpt><trkpt lat="43.4014612" lon="10.9976171"><ele>425.0</ele><time>2026-04-05T10:01:30.814Z</time></trkpt><trkpt lat="43.4014849" lon="10.9974166"><ele>425.0</ele><time>2026-04-05T10:01:31.814Z</time></trkpt><trkpt lat="43.4015171" lon="10.9972322"><ele>425.0</ele><time>2026-04-05T10:01:32.814Z</time></trkpt><trkpt lat="43.4015678" lon="10.997057"><ele>425.0</ele><time>2026-04-05T10:01:33.814Z</time></trkpt><trkpt lat="43.4016476" lon="10.996901"><ele>425.0</ele><time>2026-04-05T10:01:34.814Z</time></trkpt><trkpt lat="43.4017428" lon="10.9967562"><ele>426.25</ele><time>2026-04-05T10:01:35.814Z</time></trkpt><trkpt lat="43.4018291" lon="10.9965915"><ele>427.5</ele><time>2026-04-05T10:01:36.814Z</time></trkpt><trkpt lat="43.401898" lon="10.9964203"><ele>428.75</ele><time>2026-04-05T10:01:37.814Z</time></trkpt><trkpt lat="43.4019599" lon="10.9962619"><ele>430.0</ele><time>2026-04-05T10:01:38.814Z</time></trkpt><trkpt lat="43.4020269" lon="10.9961104"><ele>430.0</ele><time>2026-04-05T10:01:39.814Z</time></trkpt><trkpt lat="43.4021075" lon="10.9959701"><ele>430.0</ele><time>2026-04-05T10:01:40.814Z</time></trkpt><trkpt lat="43.4021953" lon="10.9958374"><ele>430.0</ele><time>2026-04-05T10:01:41.814Z</time></trkpt><trkpt lat="43.4022782" lon="10.995721"><ele>430.0</ele><time>2026-04-05T10:01:42.814Z</time></trkpt><trkpt lat="43.4023485" lon="10.9956017"><ele>430.0</ele><time>2026-04-05T10:01:43.814Z</time></trkpt><trkpt lat="43.4023991" lon="10.9954776"><ele>430.0</ele><time>2026-04-05T10:01:44.814Z</time></trkpt><trkpt lat="43.4024347" lon="10.9953451"><ele>430.0</ele><time>2026-04-05T10:01:45.814Z</time></trkpt><trkpt lat="43.402453" lon="10.9951948"><ele>430.0</ele><time>2026-04-05T10:01:46.814Z</time></trkpt><trkpt lat="43.4024431" lon="10.9950392"><ele>430.0</ele><time>2026-04-05T10:01:47.814Z</time></trkpt><trkpt lat="43.4024103" lon="10.9948723"><ele>430.0</ele><time>2026-04-05T10:01:48.814Z</time></trkpt><trkpt lat="43.402362" lon="10.9947031"><ele>430.0</ele><time>2026-04-05T10:01:49.814Z</time></trkpt><trkpt lat="43.4023011" lon="10.9945348"><ele>430.0</ele><time>2026-04-05T10:01:50.814Z</time></trkpt><trkpt lat="43.402239" lon="10.9943734"><ele>430.0</ele><time>2026-04-05T10:01:51.814Z</time></trkpt><trkpt lat="43.4021812" lon="10.9942246"><ele>430.75</ele><time>2026-04-05T10:01:52.815Z</time></trkpt><trkpt lat="43.4021066" lon="10.9940819"><ele>431.5</ele><time>2026-04-05T10:01:53.815Z</time></trkpt><trkpt lat="43.4020264" lon="10.9939377"><ele>432.25</ele><time>2026-04-05T10:01:54.815Z</time></trkpt><trkpt lat="43.4019503" lon="10.9937932"><ele>433.0</ele><time>2026-04-05T10:01:55.815Z</time></trkpt><trkpt lat="43.4018775" lon="10.9936483"><ele>433.0</ele><time>2026-04-05T10:01:56.815Z</time></trkpt><trkpt lat="43.4018048" lon="10.9934946"><ele>433.0</ele><time>2026-04-05T10:01:57.815Z</time></trkpt><trkpt lat="43.4017458" lon="10.9933216"><ele>433.0</ele><time>2026-04-05T10:01:58.814Z</time></trkpt><trkpt lat="43.4017091" lon="10.9931297"><ele>433.0</ele><time>2026-04-05T10:01:59.815Z</time></trkpt><trkpt lat="43.4016929" lon="10.9929429"><ele>431.25</ele><time>2026-04-05T10:02:00.815Z</time></trkpt><trkpt lat="43.4016931" lon="10.9927699"><ele>429.5</ele><time>2026-04-05T10:02:01.815Z</time></trkpt><trkpt lat="43.40169" lon="10.992614"><ele>427.75</ele><time>2026-04-05T10:02:02.815Z</time></trkpt><trkpt lat="43.401671" lon="10.9924564"><ele>426.0</ele><time>2026-04-05T10:02:03.815Z</time></trkpt><trkpt lat="43.4016329" lon="10.9922889"><ele>425.75</ele><time>2026-04-05T10:02:04.815Z</time></trkpt><trkpt lat="43.4015747" lon="10.9921163"><ele>425.5</ele><time>2026-04-05T10:02:05.815Z</time></trkpt><trkpt lat="43.4015092" lon="10.9919503"><ele>425.25</ele><time>2026-04-05T10:02:06.815Z</time></trkpt><trkpt lat="43.4014444" lon="10.9917967"><ele>425.0</ele><time>2026-04-05T10:02:07.815Z</time></trkpt><trkpt lat="43.4013872" lon="10.9916514"><ele>424.75</ele><time>2026-04-05T10:02:08.815Z</time></trkpt><trkpt lat="43.4013337" lon="10.9915053"><ele>424.5</ele><time>2026-04-05T10:02:09.815Z</time></trkpt><trkpt lat="43.4012905" lon="10.9913464"><ele>424.25</ele><time>2026-04-05T10:02:10.815Z</time></trkpt><trkpt lat="43.4012663" lon="10.9911714"><ele>424.0</ele><time>2026-04-05T10:02:11.815Z</time></trkpt><trkpt lat="43.4012596" lon="10.9909912"><ele>425.5</ele><time>2026-04-05T10:02:12.815Z</time></trkpt><trkpt lat="43.4012727" lon="10.9908121"><ele>427.0</ele><time>2026-04-05T10:02:13.815Z</time></trkpt><trkpt lat="43.4012892" lon="10.9906304"><ele>428.5</ele><time>2026-04-05T10:02:14.815Z</time></trkpt><trkpt lat="43.4013049" lon="10.9904388"><ele>430.0</ele><time>2026-04-05T10:02:15.815Z</time></trkpt><trkpt lat="43.4013213" lon="10.9902366"><ele>429.33333333333337</ele><time>2026-04-05T10:02:16.815Z</time></trkpt><trkpt lat="43.4013373" lon="10.990026"><ele>428.66666666666663</ele><time>2026-04-05T10:02:17.815Z</time></trkpt><trkpt lat="43.4013551" lon="10.9898158"><ele>428.0</ele><time>2026-04-05T10:02:18.815Z</time></trkpt><trkpt lat="43.4013749" lon="10.9896171"><ele>428.0</ele><time>2026-04-05T10:02:19.815Z</time></trkpt><trkpt lat="43.4014011" lon="10.9894257"><ele>428.0</ele><time>2026-04-05T10:02:20.815Z</time></trkpt><trkpt lat="43.4014423" lon="10.9892206"><ele>428.0</ele><time>2026-04-05T10:02:21.815Z</time></trkpt><trkpt lat="43.4014935" lon="10.9890085"><ele>429.66666666666663</ele><time>2026-04-05T10:02:22.815Z</time></trkpt><trkpt lat="43.4015633" lon="10.9888028"><ele>431.33333333333337</ele><time>2026-04-05T10:02:23.815Z</time></trkpt><trkpt lat="43.4016398" lon="10.988602"><ele>433.0</ele><time>2026-04-05T10:02:24.815Z</time></trkpt><trkpt lat="43.401713" lon="10.9884256"><ele>434.0</ele><time>2026-04-05T10:02:25.816Z</time></trkpt><trkpt lat="43.4017755" lon="10.9882371"><ele>435.0</ele><time>2026-04-05T10:02:26.814Z</time></trkpt><trkpt lat="43.4018225" lon="10.988005"><ele>436.0</ele><time>2026-04-05T10:02:27.815Z</time></trkpt><trkpt lat="43.4018596" lon="10.9877478"><ele>437.6666666666667</ele><time>2026-04-05T10:02:28.815Z</time></trkpt><trkpt lat="43.4018893" lon="10.9874751"><ele>439.33333333333337</ele><time>2026-04-05T10:02:29.815Z</time></trkpt><trkpt lat="43.4019221" lon="10.987189"><ele>441.0</ele><time>2026-04-05T10:02:30.815Z</time></trkpt><trkpt lat="43.4019648" lon="10.986899"><ele>442.66666666666663</ele><time>2026-04-05T10:02:31.815Z</time></trkpt><trkpt lat="43.40202" lon="10.9866094"><ele>444.3333333333333</ele><time>2026-04-05T10:02:32.815Z</time></trkpt><trkpt lat="43.4020779" lon="10.9863188"><ele>446.0</ele><time>2026-04-05T10:02:33.815Z</time></trkpt><trkpt lat="43.402141" lon="10.9860273"><ele>448.3333333333333</ele><time>2026-04-05T10:02:34.815Z</time></trkpt><trkpt lat="43.4022086" lon="10.9857364"><ele>450.66666666666663</ele><time>2026-04-05T10:02:35.815Z</time></trkpt><trkpt lat="43.4022791" lon="10.9854453"><ele>453.0</ele><time>2026-04-05T10:02:36.815Z</time></trkpt><trkpt lat="43.4023499" lon="10.9851557"><ele>455.0</ele><time>2026-04-05T10:02:37.815Z</time></trkpt><trkpt lat="43.4024218" lon="10.9848696"><ele>457.0</ele><time>2026-04-05T10:02:38.815Z</time></trkpt><trkpt lat="43.4024926" lon="10.9845832"><ele>459.0</ele><time>2026-04-05T10:02:39.815Z</time></trkpt><trkpt lat="43.4025615" lon="10.9842968"><ele>460.33333333333337</ele><time>2026-04-05T10:02:40.815Z</time></trkpt><trkpt lat="43.4026297" lon="10.9840124"><ele>461.6666666666667</ele><time>2026-04-05T10:02:41.815Z</time></trkpt><trkpt lat="43.4026984" lon="10.9837265"><ele>463.0</ele><time>2026-04-05T10:02:42.815Z</time></trkpt><trkpt lat="43.4027676" lon="10.9834421"><ele>464.0</ele><time>2026-04-05T10:02:43.814Z</time></trkpt><trkpt lat="43.4028367" lon="10.9831576"><ele>465.0</ele><time>2026-04-05T10:02:44.815Z</time></trkpt><trkpt lat="43.4029063" lon="10.9828711"><ele>466.0</ele><time>2026-04-05T10:02:45.815Z</time></trkpt><trkpt lat="43.4029752" lon="10.9825857"><ele>469.6666666666667</ele><time>2026-04-05T10:02:46.815Z</time></trkpt><trkpt lat="43.4030392" lon="10.9823179"><ele>473.33333333333337</ele><time>2026-04-05T10:02:47.815Z</time></trkpt><trkpt lat="43.4030997" lon="10.9820619"><ele>477.0</ele><time>2026-04-05T10:02:48.815Z</time></trkpt><trkpt lat="43.4031616" lon="10.9818025"><ele>478.0</ele><time>2026-04-05T10:02:49.815Z</time></trkpt><trkpt lat="43.4032219" lon="10.9815402"><ele>479.0</ele><time>2026-04-05T10:02:50.814Z</time></trkpt><trkpt lat="43.4032824" lon="10.9812712"><ele>480.0</ele><time>2026-04-05T10:02:51.815Z</time></trkpt><trkpt lat="43.4033435" lon="10.9809948"><ele>477.0</ele><time>2026-04-05T10:02:52.815Z</time></trkpt><trkpt lat="43.4034101" lon="10.980705"><ele>474.0</ele><time>2026-04-05T10:02:53.815Z</time></trkpt><trkpt lat="43.4034857" lon="10.9804"><ele>474.0</ele><time>2026-04-05T10:02:54.815Z</time></trkpt><trkpt lat="43.4035612" lon="10.9800875"><ele>474.0</ele><time>2026-04-05T10:02:55.814Z</time></trkpt><trkpt lat="43.4036335" lon="10.979781"><ele>472.33333333333337</ele><time>2026-04-05T10:02:56.815Z</time></trkpt><trkpt lat="43.4037038" lon="10.9794873"><ele>470.6666666666667</ele><time>2026-04-05T10:02:57.815Z</time></trkpt><trkpt lat="43.4037738" lon="10.9792023"><ele>469.0</ele><time>2026-04-05T10:02:58.815Z</time></trkpt><trkpt lat="43.4038391" lon="10.9789257"><ele>472.33333333333337</ele><time>2026-04-05T10:02:59.815Z</time></trkpt><trkpt lat="43.4039041" lon="10.9786557"><ele>475.66666666666663</ele><time>2026-04-05T10:03:00.815Z</time></trkpt><trkpt lat="43.4039705" lon="10.9783936"><ele>479.0</ele><time>2026-04-05T10:03:01.815Z</time></trkpt><trkpt lat="43.404035" lon="10.9781415"><ele>479.0</ele><time>2026-04-05T10:03:02.815Z</time></trkpt><trkpt lat="43.4040989" lon="10.9778947"><ele>479.0</ele><time>2026-04-05T10:03:03.815Z</time></trkpt><trkpt lat="43.4041551" lon="10.9776516"><ele>479.0</ele><time>2026-04-05T10:03:04.815Z</time></trkpt><trkpt lat="43.4042023" lon="10.9774144"><ele>478.0</ele><time>2026-04-05T10:03:05.815Z</time></trkpt><trkpt lat="43.4042415" lon="10.977181"><ele>477.0</ele><time>2026-04-05T10:03:06.815Z</time></trkpt><trkpt lat="43.4042702" lon="10.9769503"><ele>476.0</ele><time>2026-04-05T10:03:07.815Z</time></trkpt><trkpt lat="43.4042899" lon="10.9767124"><ele>475.3333333333333</ele><time>2026-04-05T10:03:08.815Z</time></trkpt><trkpt lat="43.4043016" lon="10.9764719"><ele>474.66666666666663</ele><time>2026-04-05T10:03:09.815Z</time></trkpt><trkpt lat="43.4043063" lon="10.97623"><ele>474.0</ele><time>2026-04-05T10:03:10.815Z</time></trkpt><trkpt lat="43.4043088" lon="10.9759856"><ele>473.33333333333337</ele><time>2026-04-05T10:03:11.816Z</time></trkpt><trkpt lat="43.4043093" lon="10.975735"><ele>472.6666666666667</ele><time>2026-04-05T10:03:12.815Z</time></trkpt><trkpt lat="43.404299" lon="10.9754855"><ele>472.0</ele><time>2026-04-05T10:03:13.815Z</time></trkpt><trkpt lat="43.404271" lon="10.9752361"><ele>471.33333333333337</ele><time>2026-04-05T10:03:14.815Z</time></trkpt><trkpt lat="43.4042283" lon="10.9749818"><ele>470.66666666666663</ele><time>2026-04-05T10:03:15.815Z</time></trkpt><trkpt lat="43.4041705" lon="10.974726"><ele>470.0</ele><time>2026-04-05T10:03:16.815Z</time></trkpt><trkpt lat="43.4040999" lon="10.9744724"><ele>470.0</ele><time>2026-04-05T10:03:17.815Z</time></trkpt><trkpt lat="43.404013" lon="10.9742184"><ele>470.0</ele><time>2026-04-05T10:03:18.815Z</time></trkpt><trkpt lat="43.403917" lon="10.9739663"><ele>470.0</ele><time>2026-04-05T10:03:19.815Z</time></trkpt><trkpt lat="43.4038102" lon="10.9737108"><ele>468.0</ele><time>2026-04-05T10:03:20.815Z</time></trkpt><trkpt lat="43.4036947" lon="10.9734525"><ele>466.0</ele><time>2026-04-05T10:03:21.815Z</time></trkpt><trkpt lat="43.4035733" lon="10.9731917"><ele>464.0</ele><time>2026-04-05T10:03:22.815Z</time></trkpt><trkpt lat="43.4034544" lon="10.9729296"><ele>464.0</ele><time>2026-04-05T10:03:23.815Z</time></trkpt><trkpt lat="43.4033415" lon="10.9726733"><ele>464.0</ele><time>2026-04-05T10:03:24.814Z</time></trkpt><trkpt lat="43.4032274" lon="10.9724136"><ele>464.0</ele><time>2026-04-05T10:03:25.815Z</time></trkpt><trkpt lat="43.4031057" lon="10.9721517"><ele>461.5</ele><time>2026-04-05T10:03:26.815Z</time></trkpt><trkpt lat="43.4029776" lon="10.9718885"><ele>459.0</ele><time>2026-04-05T10:03:27.815Z</time></trkpt><trkpt lat="43.4028422" lon="10.9716213"><ele>458.0</ele><time>2026-04-05T10:03:28.815Z</time></trkpt><trkpt lat="43.4026988" lon="10.9713552"><ele>457.0</ele><time>2026-04-05T10:03:29.815Z</time></trkpt><trkpt lat="43.4025488" lon="10.9710868"><ele>452.0</ele><time>2026-04-05T10:03:30.815Z</time></trkpt><trkpt lat="43.4024025" lon="10.9708275"><ele>447.0</ele><time>2026-04-05T10:03:31.815Z</time></trkpt><trkpt lat="43.4022611" lon="10.9705704"><ele>445.0</ele><time>2026-04-05T10:03:32.815Z</time></trkpt><trkpt lat="43.402126" lon="10.9703165"><ele>443.0</ele><time>2026-04-05T10:03:33.815Z</time></trkpt><trkpt lat="43.4019929" lon="10.9700559"><ele>444.5</ele><time>2026-04-05T10:03:34.815Z</time></trkpt><trkpt lat="43.4018639" lon="10.9697836"><ele>446.0</ele><time>2026-04-05T10:03:35.815Z</time></trkpt><trkpt lat="43.401743" lon="10.9694957"><ele>446.0</ele><time>2026-04-05T10:03:36.815Z</time></trkpt><trkpt lat="43.4016301" lon="10.9691927"><ele>446.0</ele><time>2026-04-05T10:03:37.814Z</time></trkpt><trkpt lat="43.4015233" lon="10.9688813"><ele>443.5</ele><time>2026-04-05T10:03:38.815Z</time></trkpt><trkpt lat="43.4014134" lon="10.9685629"><ele>441.0</ele><time>2026-04-05T10:03:39.815Z</time></trkpt><trkpt lat="43.4013006" lon="10.9682399"><ele>436.5</ele><time>2026-04-05T10:03:40.815Z</time></trkpt><trkpt lat="43.4011857" lon="10.9679117"><ele>432.0</ele><time>2026-04-05T10:03:41.815Z</time></trkpt><trkpt lat="43.4010691" lon="10.9675807"><ele>431.0</ele><time>2026-04-05T10:03:42.815Z</time></trkpt><trkpt lat="43.4009503" lon="10.9672465"><ele>430.0</ele><time>2026-04-05T10:03:43.815Z</time></trkpt><trkpt lat="43.400827" lon="10.966918"><ele>428.5</ele><time>2026-04-05T10:03:44.815Z</time></trkpt><trkpt lat="43.4007011" lon="10.9666049"><ele>427.0</ele><time>2026-04-05T10:03:45.815Z</time></trkpt><trkpt lat="43.4005719" lon="10.9663028"><ele>426.5</ele><time>2026-04-05T10:03:46.815Z</time></trkpt><trkpt lat="43.4004363" lon="10.9660041"><ele>426.0</ele><time>2026-04-05T10:03:47.815Z</time></trkpt><trkpt lat="43.4002987" lon="10.9657038"><ele>424.5</ele><time>2026-04-05T10:03:48.815Z</time></trkpt><trkpt lat="43.4001586" lon="10.9654018"><ele>423.0</ele><time>2026-04-05T10:03:49.814Z</time></trkpt><trkpt lat="43.4000164" lon="10.9651025"><ele>421.0</ele><time>2026-04-05T10:03:50.815Z</time></trkpt><trkpt lat="43.3998644" lon="10.9648106"><ele>419.0</ele><time>2026-04-05T10:03:51.815Z</time></trkpt><trkpt lat="43.3997034" lon="10.9645289"><ele>419.0</ele><time>2026-04-05T10:03:52.815Z</time></trkpt><trkpt lat="43.3995346" lon="10.964258"><ele>419.0</ele><time>2026-04-05T10:03:53.815Z</time></trkpt><trkpt lat="43.3993542" lon="10.9639915"><ele>419.0</ele><time>2026-04-05T10:03:54.814Z</time></trkpt><trkpt lat="43.3991532" lon="10.9637222"><ele>419.0</ele><time>2026-04-05T10:03:55.815Z</time></trkpt><trkpt lat="43.3989365" lon="10.9634407"><ele>417.0</ele><time>2026-04-05T10:03:56.815Z</time></trkpt><trkpt lat="43.3987063" lon="10.9631484"><ele>415.0</ele><time>2026-04-05T10:03:57.815Z</time></trkpt><trkpt lat="43.3984638" lon="10.9628481"><ele>415.0</ele><time>2026-04-05T10:03:58.815Z</time></trkpt><trkpt lat="43.3982219" lon="10.9625463"><ele>415.0</ele><time>2026-04-05T10:03:59.815Z</time></trkpt><trkpt lat="43.3979922" lon="10.9622582"><ele>415.0</ele><time>2026-04-05T10:04:00.815Z</time></trkpt><trkpt lat="43.3977723" lon="10.9619805"><ele>415.0</ele><time>2026-04-05T10:04:01.815Z</time></trkpt><trkpt lat="43.3975612" lon="10.9617149"><ele>413.5</ele><time>2026-04-05T10:04:02.815Z</time></trkpt><trkpt lat="43.39736" lon="10.9614601"><ele>412.0</ele><time>2026-04-05T10:04:03.815Z</time></trkpt><trkpt lat="43.3971668" lon="10.9612186"><ele>409.5</ele><time>2026-04-05T10:04:04.815Z</time></trkpt><trkpt lat="43.3969798" lon="10.960984"><ele>407.0</ele><time>2026-04-05T10:04:05.815Z</time></trkpt><trkpt lat="43.3967935" lon="10.9607522"><ele>407.0</ele><time>2026-04-05T10:04:06.815Z</time></trkpt><trkpt lat="43.3966101" lon="10.9605171"><ele>407.0</ele><time>2026-04-05T10:04:07.815Z</time></trkpt><trkpt lat="43.3964347" lon="10.9602744"><ele>407.5</ele><time>2026-04-05T10:04:08.815Z</time></trkpt><trkpt lat="43.3962662" lon="10.960025"><ele>408.0</ele><time>2026-04-05T10:04:09.815Z</time></trkpt><trkpt lat="43.3961111" lon="10.9597589"><ele>408.0</ele><time>2026-04-05T10:04:10.815Z</time></trkpt><trkpt lat="43.3959679" lon="10.9594764"><ele>408.0</ele><time>2026-04-05T10:04:11.815Z</time></trkpt><trkpt lat="43.395831" lon="10.959178"><ele>407.5</ele><time>2026-04-05T10:04:12.815Z</time></trkpt><trkpt lat="43.3956969" lon="10.9588733"><ele>407.0</ele><time>2026-04-05T10:04:13.815Z</time></trkpt><trkpt lat="43.3955701" lon="10.9585597"><ele>416.0</ele><time>2026-04-05T10:04:14.815Z</time></trkpt><trkpt lat="43.3954565" lon="10.9582344"><ele>425.0</ele><time>2026-04-05T10:04:15.815Z</time></trkpt><trkpt lat="43.3953503" lon="10.9579009"><ele>425.0</ele><time>2026-04-05T10:04:16.815Z</time></trkpt><trkpt lat="43.395238" lon="10.9575704"><ele>425.0</ele><time>2026-04-05T10:04:17.815Z</time></trkpt><trkpt lat="43.3951239" lon="10.9572452"><ele>423.5</ele><time>2026-04-05T10:04:18.815Z</time></trkpt><trkpt lat="43.3950143" lon="10.956932"><ele>422.0</ele><time>2026-04-05T10:04:19.815Z</time></trkpt><trkpt lat="43.3949038" lon="10.9566242"><ele>422.0</ele><time>2026-04-05T10:04:20.815Z</time></trkpt><trkpt lat="43.3947857" lon="10.9563271"><ele>422.0</ele><time>2026-04-05T10:04:21.815Z</time></trkpt><trkpt lat="43.3946501" lon="10.9560508"><ele>425.5</ele><time>2026-04-05T10:04:22.815Z</time></trkpt><trkpt lat="43.3945025" lon="10.9557921"><ele>429.0</ele><time>2026-04-05T10:04:23.814Z</time></trkpt><trkpt lat="43.3943417" lon="10.9555574"><ele>429.0</ele><time>2026-04-05T10:04:24.815Z</time></trkpt><trkpt lat="43.3941683" lon="10.9553489"><ele>429.0</ele><time>2026-04-05T10:04:25.815Z</time></trkpt><trkpt lat="43.3939815" lon="10.9551605"><ele>430.5</ele><time>2026-04-05T10:04:26.815Z</time></trkpt><trkpt lat="43.3937805" lon="10.9549866"><ele>432.0</ele><time>2026-04-05T10:04:27.814Z</time></trkpt><trkpt lat="43.3935686" lon="10.9548284"><ele>432.0</ele><time>2026-04-05T10:04:28.815Z</time></trkpt><trkpt lat="43.3933467" lon="10.9546815"><ele>432.0</ele><time>2026-04-05T10:04:29.815Z</time></trkpt><trkpt lat="43.3931221" lon="10.9545434"><ele>435.0</ele><time>2026-04-05T10:04:30.815Z</time></trkpt><trkpt lat="43.3928944" lon="10.9544053"><ele>438.0</ele><time>2026-04-05T10:04:31.815Z</time></trkpt><trkpt lat="43.3926675" lon="10.9542629"><ele>431.5</ele><time>2026-04-05T10:04:32.815Z</time></trkpt><trkpt lat="43.3924418" lon="10.9541156"><ele>425.0</ele><time>2026-04-05T10:04:33.815Z</time></trkpt><trkpt lat="43.392219" lon="10.9539635"><ele>428.0</ele><time>2026-04-05T10:04:34.815Z</time></trkpt><trkpt lat="43.3919997" lon="10.9537974"><ele>431.0</ele><time>2026-04-05T10:04:35.815Z</time></trkpt><trkpt lat="43.3917833" lon="10.9536202"><ele>431.0</ele><time>2026-04-05T10:04:36.815Z</time></trkpt><trkpt lat="43.3915721" lon="10.9534284"><ele>431.0</ele><time>2026-04-05T10:04:37.815Z</time></trkpt><trkpt lat="43.3913673" lon="10.9532263"><ele>428.0</ele><time>2026-04-05T10:04:38.815Z</time></trkpt><trkpt lat="43.3911702" lon="10.9530114"><ele>425.0</ele><time>2026-04-05T10:04:39.815Z</time></trkpt><trkpt lat="43.3909808" lon="10.9527835"><ele>425.0</ele><time>2026-04-05T10:04:40.814Z</time></trkpt><trkpt lat="43.390797" lon="10.952549"><ele>425.0</ele><time>2026-04-05T10:04:41.815Z</time></trkpt><trkpt lat="43.3906096" lon="10.952319"><ele>420.0</ele><time>2026-04-05T10:04:42.815Z</time></trkpt><trkpt lat="43.3904235" lon="10.9520868"><ele>415.0</ele><time>2026-04-05T10:04:43.815Z</time></trkpt><trkpt lat="43.390247" lon="10.9518549"><ele>415.5</ele><time>2026-04-05T10:04:44.815Z</time></trkpt><trkpt lat="43.3900793" lon="10.9516242"><ele>416.0</ele><time>2026-04-05T10:04:45.815Z</time></trkpt><trkpt lat="43.3899203" lon="10.9513976"><ele>416.0</ele><time>2026-04-05T10:04:46.815Z</time></trkpt><trkpt lat="43.3897729" lon="10.9511696"><ele>416.0</ele><time>2026-04-05T10:04:47.815Z</time></trkpt><trkpt lat="43.3896366" lon="10.9509317"><ele>416.0</ele><time>2026-04-05T10:04:48.815Z</time></trkpt><trkpt lat="43.3895106" lon="10.9506838"><ele>416.66666666666663</ele><time>2026-04-05T10:04:49.815Z</time></trkpt><trkpt lat="43.3893932" lon="10.9504248"><ele>417.33333333333337</ele><time>2026-04-05T10:04:50.814Z</time></trkpt><trkpt lat="43.3892834" lon="10.9501537"><ele>418.0</ele><time>2026-04-05T10:04:51.815Z</time></trkpt><trkpt lat="43.389182" lon="10.9498709"><ele>413.5</ele><time>2026-04-05T10:04:52.815Z</time></trkpt><trkpt lat="43.3890866" lon="10.9495757"><ele>409.0</ele><time>2026-04-05T10:04:53.815Z</time></trkpt><trkpt lat="43.3890006" lon="10.9492605"><ele>406.5</ele><time>2026-04-05T10:04:54.814Z</time></trkpt><trkpt lat="43.3889231" lon="10.948936"><ele>404.0</ele><time>2026-04-05T10:04:55.815Z</time></trkpt><trkpt lat="43.3888483" lon="10.9486089"><ele>399.0</ele><time>2026-04-05T10:04:56.815Z</time></trkpt><trkpt lat="43.3887755" lon="10.9482813"><ele>394.0</ele><time>2026-04-05T10:04:57.815Z</time></trkpt><trkpt lat="43.3887011" lon="10.9479544"><ele>394.0</ele><time>2026-04-05T10:04:58.815Z</time></trkpt><trkpt lat="43.3886248" lon="10.9476257"><ele>394.0</ele><time>2026-04-05T10:04:59.815Z</time></trkpt><trkpt lat="43.3885503" lon="10.9472971"><ele>395.5</ele><time>2026-04-05T10:05:00.815Z</time></trkpt><trkpt lat="43.3884809" lon="10.946982"><ele>397.0</ele><time>2026-04-05T10:05:01.815Z</time></trkpt><trkpt lat="43.3884115" lon="10.9466728"><ele>397.0</ele><time>2026-04-05T10:05:02.815Z</time></trkpt><trkpt lat="43.3883333" lon="10.9463554"><ele>397.0</ele><time>2026-04-05T10:05:03.815Z</time></trkpt><trkpt lat="43.3882495" lon="10.9460264"><ele>395.0</ele><time>2026-04-05T10:05:04.815Z</time></trkpt><trkpt lat="43.38817" lon="10.9456872"><ele>393.0</ele><time>2026-04-05T10:05:05.815Z</time></trkpt><trkpt lat="43.3880974" lon="10.9453401"><ele>391.5</ele><time>2026-04-05T10:05:06.815Z</time></trkpt><trkpt lat="43.3880289" lon="10.9449873"><ele>390.0</ele><time>2026-04-05T10:05:07.815Z</time></trkpt><trkpt lat="43.3879557" lon="10.9446343"><ele>384.5</ele><time>2026-04-05T10:05:08.815Z</time></trkpt><trkpt lat="43.3878782" lon="10.9442892"><ele>379.0</ele><time>2026-04-05T10:05:09.815Z</time></trkpt><trkpt lat="43.3878001" lon="10.9439509"><ele>379.0</ele><time>2026-04-05T10:05:10.815Z</time></trkpt><trkpt lat="43.387721" lon="10.9436151"><ele>379.0</ele><time>2026-04-05T10:05:11.816Z</time></trkpt><trkpt lat="43.3876339" lon="10.9432877"><ele>379.5</ele><time>2026-04-05T10:05:12.815Z</time></trkpt><trkpt lat="43.3875361" lon="10.9429648"><ele>380.0</ele><time>2026-04-05T10:05:13.815Z</time></trkpt><trkpt lat="43.3874239" lon="10.9426521"><ele>382.0</ele><time>2026-04-05T10:05:14.815Z</time></trkpt><trkpt lat="43.387297" lon="10.9423438"><ele>384.0</ele><time>2026-04-05T10:05:15.815Z</time></trkpt><trkpt lat="43.3871598" lon="10.9420397"><ele>377.5</ele><time>2026-04-05T10:05:16.814Z</time></trkpt><trkpt lat="43.3870189" lon="10.941742"><ele>371.0</ele><time>2026-04-05T10:05:17.815Z</time></trkpt><trkpt lat="43.3868811" lon="10.9414551"><ele>371.0</ele><time>2026-04-05T10:05:18.815Z</time></trkpt><trkpt lat="43.3867474" lon="10.9411762"><ele>371.0</ele><time>2026-04-05T10:05:19.815Z</time></trkpt><trkpt lat="43.386616" lon="10.940904"><ele>367.5</ele><time>2026-04-05T10:05:20.815Z</time></trkpt><trkpt lat="43.3864827" lon="10.9406316"><ele>364.0</ele><time>2026-04-05T10:05:21.815Z</time></trkpt><trkpt lat="43.3863435" lon="10.9403639"><ele>364.0</ele><time>2026-04-05T10:05:22.815Z</time></trkpt><trkpt lat="43.3862025" lon="10.9400949"><ele>364.0</ele><time>2026-04-05T10:05:23.815Z</time></trkpt><trkpt lat="43.3860542" lon="10.9398304"><ele>367.5</ele><time>2026-04-05T10:05:24.815Z</time></trkpt><trkpt lat="43.3858936" lon="10.9395768"><ele>371.0</ele><time>2026-04-05T10:05:25.815Z</time></trkpt><trkpt lat="43.3857209" lon="10.9393321"><ele>369.5</ele><time>2026-04-05T10:05:26.815Z</time></trkpt><trkpt lat="43.3855394" lon="10.9390954"><ele>368.0</ele><time>2026-04-05T10:05:27.815Z</time></trkpt><trkpt lat="43.3853496" lon="10.9388618"><ele>368.0</ele><time>2026-04-05T10:05:28.815Z</time></trkpt><trkpt lat="43.3851556" lon="10.9386321"><ele>368.0</ele><time>2026-04-05T10:05:29.815Z</time></trkpt><trkpt lat="43.3849602" lon="10.9384019"><ele>364.5</ele><time>2026-04-05T10:05:30.815Z</time></trkpt><trkpt lat="43.3847696" lon="10.938176"><ele>361.0</ele><time>2026-04-05T10:05:31.815Z</time></trkpt><trkpt lat="43.3845818" lon="10.9379493"><ele>361.0</ele><time>2026-04-05T10:05:32.815Z</time></trkpt><trkpt lat="43.3843924" lon="10.9377272"><ele>361.0</ele><time>2026-04-05T10:05:33.815Z</time></trkpt><trkpt lat="43.3842" lon="10.9375079"><ele>358.0</ele><time>2026-04-05T10:05:34.815Z</time></trkpt><trkpt lat="43.3840062" lon="10.9372875"><ele>355.0</ele><time>2026-04-05T10:05:35.815Z</time></trkpt><trkpt lat="43.3838182" lon="10.9370671"><ele>351.0</ele><time>2026-04-05T10:05:36.815Z</time></trkpt><trkpt lat="43.3836411" lon="10.9368449"><ele>347.0</ele><time>2026-04-05T10:05:37.815Z</time></trkpt><trkpt lat="43.383478" lon="10.9366163"><ele>346.0</ele><time>2026-04-05T10:05:38.815Z</time></trkpt><trkpt lat="43.3833254" lon="10.9363708"><ele>345.0</ele><time>2026-04-05T10:05:39.815Z</time></trkpt><trkpt lat="43.3831841" lon="10.9361067"><ele>344.0</ele><time>2026-04-05T10:05:40.815Z</time></trkpt><trkpt lat="43.3830584" lon="10.9358264"><ele>343.0</ele><time>2026-04-05T10:05:41.815Z</time></trkpt><trkpt lat="43.3829503" lon="10.935528"><ele>343.0</ele><time>2026-04-05T10:05:42.815Z</time></trkpt><trkpt lat="43.3828621" lon="10.9352211"><ele>343.0</ele><time>2026-04-05T10:05:43.815Z</time></trkpt><trkpt lat="43.382801" lon="10.9349154"><ele>343.0</ele><time>2026-04-05T10:05:44.815Z</time></trkpt><trkpt lat="43.3827591" lon="10.9346203"><ele>343.0</ele><time>2026-04-05T10:05:45.815Z</time></trkpt><trkpt lat="43.3827157" lon="10.934331"><ele>343.0</ele><time>2026-04-05T10:05:46.815Z</time></trkpt><trkpt lat="43.3826523" lon="10.9340443"><ele>343.3333333333333</ele><time>2026-04-05T10:05:47.815Z</time></trkpt><trkpt lat="43.3825715" lon="10.9337599"><ele>343.6666666666667</ele><time>2026-04-05T10:05:48.814Z</time></trkpt><trkpt lat="43.3824772" lon="10.9334794"><ele>344.0</ele><time>2026-04-05T10:05:49.815Z</time></trkpt><trkpt lat="43.38238" lon="10.9332111"><ele>343.33333333333337</ele><time>2026-04-05T10:05:50.815Z</time></trkpt><trkpt lat="43.3822878" lon="10.9329519"><ele>342.6666666666667</ele><time>2026-04-05T10:05:51.815Z</time></trkpt><trkpt lat="43.3822036" lon="10.9326918"><ele>342.0</ele><time>2026-04-05T10:05:52.815Z</time></trkpt><trkpt lat="43.3821344" lon="10.9324286"><ele>341.3333333333333</ele><time>2026-04-05T10:05:53.814Z</time></trkpt><trkpt lat="43.3820885" lon="10.9321717"><ele>340.66666666666663</ele><time>2026-04-05T10:05:54.815Z</time></trkpt><trkpt lat="43.3820673" lon="10.9319158"><ele>340.0</ele><time>2026-04-05T10:05:55.815Z</time></trkpt><trkpt lat="43.3820737" lon="10.931663"><ele>340.0</ele><time>2026-04-05T10:05:56.815Z</time></trkpt><trkpt lat="43.3821096" lon="10.9314119"><ele>340.0</ele><time>2026-04-05T10:05:57.815Z</time></trkpt><trkpt lat="43.3821716" lon="10.9311745"><ele>340.0</ele><time>2026-04-05T10:05:58.815Z</time></trkpt><trkpt lat="43.3822631" lon="10.9309519"><ele>341.66666666666663</ele><time>2026-04-05T10:05:59.815Z</time></trkpt><trkpt lat="43.3823723" lon="10.9307444"><ele>343.3333333333333</ele><time>2026-04-05T10:06:00.815Z</time></trkpt><trkpt lat="43.3824811" lon="10.930539"><ele>345.0</ele><time>2026-04-05T10:06:01.815Z</time></trkpt><trkpt lat="43.3825754" lon="10.9303176"><ele>345.0</ele><time>2026-04-05T10:06:02.815Z</time></trkpt><trkpt lat="43.3826436" lon="10.9300762"><ele>345.0</ele><time>2026-04-05T10:06:03.815Z</time></trkpt><trkpt lat="43.382686" lon="10.9298222"><ele>345.0</ele><time>2026-04-05T10:06:04.815Z</time></trkpt><trkpt lat="43.3827029" lon="10.9295613"><ele>347.6666666666667</ele><time>2026-04-05T10:06:05.815Z</time></trkpt><trkpt lat="43.3827064" lon="10.9293092"><ele>350.33333333333337</ele><time>2026-04-05T10:06:06.815Z</time></trkpt><trkpt lat="43.3827078" lon="10.9290798"><ele>353.0</ele><time>2026-04-05T10:06:07.815Z</time></trkpt><trkpt lat="43.3827061" lon="10.928852"><ele>355.5</ele><time>2026-04-05T10:06:08.815Z</time></trkpt><trkpt lat="43.3827021" lon="10.9286463"><ele>358.0</ele><time>2026-04-05T10:06:09.814Z</time></trkpt><trkpt lat="43.382692" lon="10.9284584"><ele>360.5</ele><time>2026-04-05T10:06:10.815Z</time></trkpt><trkpt lat="43.3826649" lon="10.9282683"><ele>363.0</ele><time>2026-04-05T10:06:11.815Z</time></trkpt><trkpt lat="43.3826116" lon="10.9280915"><ele>363.0</ele><time>2026-04-05T10:06:12.815Z</time></trkpt><trkpt lat="43.3825431" lon="10.9279208"><ele>363.0</ele><time>2026-04-05T10:06:13.815Z</time></trkpt><trkpt lat="43.3824765" lon="10.927746"><ele>363.0</ele><time>2026-04-05T10:06:14.815Z</time></trkpt><trkpt lat="43.3824202" lon="10.9275624"><ele>363.0</ele><time>2026-04-05T10:06:15.815Z</time></trkpt><trkpt lat="43.3823742" lon="10.927378"><ele>363.0</ele><time>2026-04-05T10:06:16.815Z</time></trkpt><trkpt lat="43.3823382" lon="10.9271975"><ele>363.0</ele><time>2026-04-05T10:06:17.814Z</time></trkpt><trkpt lat="43.382321" lon="10.927022"><ele>363.0</ele><time>2026-04-05T10:06:18.815Z</time></trkpt><trkpt lat="43.3823225" lon="10.9268501"><ele>363.0</ele><time>2026-04-05T10:06:19.815Z</time></trkpt><trkpt lat="43.3823386" lon="10.9266874"><ele>362.4</ele><time>2026-04-05T10:06:20.814Z</time></trkpt><trkpt lat="43.3823646" lon="10.9265317"><ele>361.79999999999995</ele><time>2026-04-05T10:06:21.815Z</time></trkpt><trkpt lat="43.3824011" lon="10.9263908"><ele>361.2</ele><time>2026-04-05T10:06:22.815Z</time></trkpt><trkpt lat="43.3824455" lon="10.9262639"><ele>360.6</ele><time>2026-04-05T10:06:23.815Z</time></trkpt><trkpt lat="43.3824972" lon="10.9261443"><ele>360.0</ele><time>2026-04-05T10:06:24.815Z</time></trkpt><trkpt lat="43.3825639" lon="10.9260205"><ele>361.5</ele><time>2026-04-05T10:06:25.815Z</time></trkpt><trkpt lat="43.3826355" lon="10.9258866"><ele>363.0</ele><time>2026-04-05T10:06:26.814Z</time></trkpt><trkpt lat="43.3827083" lon="10.9257374"><ele>364.5</ele><time>2026-04-05T10:06:27.815Z</time></trkpt><trkpt lat="43.3827755" lon="10.9255698"><ele>366.0</ele><time>2026-04-05T10:06:28.815Z</time></trkpt><trkpt lat="43.3828319" lon="10.9253785"><ele>366.0</ele><time>2026-04-05T10:06:29.815Z</time></trkpt><trkpt lat="43.3828742" lon="10.9251662"><ele>366.0</ele><time>2026-04-05T10:06:30.815Z</time></trkpt><trkpt lat="43.3829135" lon="10.9249385"><ele>366.0</ele><time>2026-04-05T10:06:31.815Z</time></trkpt><trkpt lat="43.3829515" lon="10.9246961"><ele>365.0</ele><time>2026-04-05T10:06:32.815Z</time></trkpt><trkpt lat="43.3829938" lon="10.9244494"><ele>364.0</ele><time>2026-04-05T10:06:33.815Z</time></trkpt><trkpt lat="43.3830489" lon="10.9242108"><ele>363.0</ele><time>2026-04-05T10:06:34.815Z</time></trkpt><trkpt lat="43.3831274" lon="10.9239927"><ele>358.6666666666667</ele><time>2026-04-05T10:06:35.815Z</time></trkpt><trkpt lat="43.3832318" lon="10.9237982"><ele>354.33333333333337</ele><time>2026-04-05T10:06:36.815Z</time></trkpt><trkpt lat="43.3833611" lon="10.9236208"><ele>350.0</ele><time>2026-04-05T10:06:37.815Z</time></trkpt><trkpt lat="43.3835067" lon="10.9234624"><ele>351.0</ele><time>2026-04-05T10:06:38.815Z</time></trkpt><trkpt lat="43.3836644" lon="10.923314"><ele>352.0</ele><time>2026-04-05T10:06:39.815Z</time></trkpt><trkpt lat="43.3838315" lon="10.9231791"><ele>353.0</ele><time>2026-04-05T10:06:40.815Z</time></trkpt><trkpt lat="43.3840013" lon="10.9230449"><ele>353.0</ele><time>2026-04-05T10:06:41.815Z</time></trkpt><trkpt lat="43.3841674" lon="10.9229198"><ele>353.0</ele><time>2026-04-05T10:06:42.815Z</time></trkpt><trkpt lat="43.384325" lon="10.922796"><ele>353.0</ele><time>2026-04-05T10:06:43.815Z</time></trkpt><trkpt lat="43.3844734" lon="10.9226389"><ele>353.6666666666667</ele><time>2026-04-05T10:06:44.815Z</time></trkpt><trkpt lat="43.3846251" lon="10.9224668"><ele>354.3333333333333</ele><time>2026-04-05T10:06:45.815Z</time></trkpt><trkpt lat="43.3847799" lon="10.9222872"><ele>355.0</ele><time>2026-04-05T10:06:46.815Z</time></trkpt><trkpt lat="43.3849281" lon="10.9221131"><ele>353.3333333333333</ele><time>2026-04-05T10:06:47.815Z</time></trkpt><trkpt lat="43.3850699" lon="10.9219457"><ele>351.6666666666667</ele><time>2026-04-05T10:06:48.815Z</time></trkpt><trkpt lat="43.3852065" lon="10.9217881"><ele>350.0</ele><time>2026-04-05T10:06:49.815Z</time></trkpt><trkpt lat="43.3853349" lon="10.9216395"><ele>350.0</ele><time>2026-04-05T10:06:50.815Z</time></trkpt><trkpt lat="43.38544" lon="10.9214981"><ele>350.0</ele><time>2026-04-05T10:06:51.815Z</time></trkpt><trkpt lat="43.3855137" lon="10.9213341"><ele>350.0</ele><time>2026-04-05T10:06:52.815Z</time></trkpt><trkpt lat="43.3855693" lon="10.9211329"><ele>350.0</ele><time>2026-04-05T10:06:53.815Z</time></trkpt><trkpt lat="43.3856132" lon="10.9209179"><ele>352.0</ele><time>2026-04-05T10:06:54.815Z</time></trkpt><trkpt lat="43.3856523" lon="10.9206972"><ele>354.0</ele><time>2026-04-05T10:06:55.815Z</time></trkpt><trkpt lat="43.3856914" lon="10.9204931"><ele>356.0</ele><time>2026-04-05T10:06:56.815Z</time></trkpt><trkpt lat="43.3857168" lon="10.9202974"><ele>356.0</ele><time>2026-04-05T10:06:57.815Z</time></trkpt><trkpt lat="43.3857126" lon="10.920104"><ele>356.0</ele><time>2026-04-05T10:06:58.815Z</time></trkpt><trkpt lat="43.3856943" lon="10.919918"><ele>356.0</ele><time>2026-04-05T10:06:59.814Z</time></trkpt><trkpt lat="43.3856684" lon="10.9197498"><ele>356.0</ele><time>2026-04-05T10:07:00.815Z</time></trkpt><trkpt lat="43.3856505" lon="10.919604"><ele>357.6</ele><time>2026-04-05T10:07:01.815Z</time></trkpt><trkpt lat="43.3856673" lon="10.9194693"><ele>359.20000000000005</ele><time>2026-04-05T10:07:02.815Z</time></trkpt><trkpt lat="43.3857175" lon="10.9193563"><ele>360.79999999999995</ele><time>2026-04-05T10:07:03.815Z</time></trkpt><trkpt lat="43.3857905" lon="10.9192793"><ele>362.4</ele><time>2026-04-05T10:07:04.815Z</time></trkpt><trkpt lat="43.3858736" lon="10.9192691"><ele>364.0</ele><time>2026-04-05T10:07:05.815Z</time></trkpt><trkpt lat="43.3859527" lon="10.919311"><ele>364.0</ele><time>2026-04-05T10:07:06.815Z</time></trkpt><trkpt lat="43.386028" lon="10.9193922"><ele>364.0</ele><time>2026-04-05T10:07:07.815Z</time></trkpt><trkpt lat="43.3861083" lon="10.9194938"><ele>364.0</ele><time>2026-04-05T10:07:08.815Z</time></trkpt><trkpt lat="43.3861992" lon="10.9196039"><ele>364.0</ele><time>2026-04-05T10:07:09.815Z</time></trkpt><trkpt lat="43.3863037" lon="10.9197059"><ele>366.0</ele><time>2026-04-05T10:07:10.815Z</time></trkpt><trkpt lat="43.3864215" lon="10.9197881"><ele>368.0</ele><time>2026-04-05T10:07:11.815Z</time></trkpt><trkpt lat="43.3865506" lon="10.9198506"><ele>370.0</ele><time>2026-04-05T10:07:12.815Z</time></trkpt><trkpt lat="43.3866876" lon="10.9198997"><ele>372.0</ele><time>2026-04-05T10:07:13.815Z</time></trkpt><trkpt lat="43.3868333" lon="10.9199214"><ele>372.0</ele><time>2026-04-05T10:07:14.815Z</time></trkpt><trkpt lat="43.3869825" lon="10.9199223"><ele>372.0</ele><time>2026-04-05T10:07:15.815Z</time></trkpt><trkpt lat="43.3871277" lon="10.9198982"><ele>372.0</ele><time>2026-04-05T10:07:16.815Z</time></trkpt><trkpt lat="43.387264" lon="10.9198422"><ele>372.0</ele><time>2026-04-05T10:07:17.815Z</time></trkpt><trkpt lat="43.387392" lon="10.9197625"><ele>373.0</ele><time>2026-04-05T10:07:18.815Z</time></trkpt><trkpt lat="43.3875121" lon="10.9196898"><ele>374.0</ele><time>2026-04-05T10:07:19.815Z</time></trkpt><trkpt lat="43.3876204" lon="10.9196209"><ele>375.0</ele><time>2026-04-05T10:07:20.815Z</time></trkpt><trkpt lat="43.3877134" lon="10.9195428"><ele>376.0</ele><time>2026-04-05T10:07:21.815Z</time></trkpt><trkpt lat="43.387777" lon="10.9194493"><ele>376.0</ele><time>2026-04-05T10:07:22.815Z</time></trkpt><trkpt lat="43.3878098" lon="10.9193294"><ele>376.0</ele><time>2026-04-05T10:07:23.815Z</time></trkpt><trkpt lat="43.3878183" lon="10.91919"><ele>376.0</ele><time>2026-04-05T10:07:24.815Z</time></trkpt><trkpt lat="43.3878039" lon="10.91903"><ele>376.0</ele><time>2026-04-05T10:07:25.815Z</time></trkpt><trkpt lat="43.3877821" lon="10.9188636"><ele>376.0</ele><time>2026-04-05T10:07:26.815Z</time></trkpt><trkpt lat="43.3877511" lon="10.9186905"><ele>378.75</ele><time>2026-04-05T10:07:27.815Z</time></trkpt><trkpt lat="43.3877055" lon="10.9185223"><ele>381.5</ele><time>2026-04-05T10:07:28.815Z</time></trkpt><trkpt lat="43.3876345" lon="10.9183733"><ele>384.25</ele><time>2026-04-05T10:07:29.815Z</time></trkpt><trkpt lat="43.3875406" lon="10.9182377"><ele>387.0</ele><time>2026-04-05T10:07:30.815Z</time></trkpt><trkpt lat="43.3874379" lon="10.9180981"><ele>388.0</ele><time>2026-04-05T10:07:31.815Z</time></trkpt><trkpt lat="43.3873368" lon="10.9179599"><ele>389.0</ele><time>2026-04-05T10:07:32.815Z</time></trkpt><trkpt lat="43.3872323" lon="10.9178217"><ele>390.0</ele><time>2026-04-05T10:07:33.815Z</time></trkpt><trkpt lat="43.3871268" lon="10.9176883"><ele>391.0</ele><time>2026-04-05T10:07:34.815Z</time></trkpt><trkpt lat="43.387021" lon="10.9175586"><ele>392.75</ele><time>2026-04-05T10:07:35.815Z</time></trkpt><trkpt lat="43.3869184" lon="10.9174291"><ele>394.5</ele><time>2026-04-05T10:07:36.815Z</time></trkpt><trkpt lat="43.3868359" lon="10.9172951"><ele>396.25</ele><time>2026-04-05T10:07:37.815Z</time></trkpt><trkpt lat="43.3867752" lon="10.9171411"><ele>398.0</ele><time>2026-04-05T10:07:38.814Z</time></trkpt><trkpt lat="43.3867488" lon="10.9169733"><ele>398.0</ele><time>2026-04-05T10:07:39.814Z</time></trkpt><trkpt lat="43.3867531" lon="10.9167897"><ele>398.0</ele><time>2026-04-05T10:07:40.815Z</time></trkpt><trkpt lat="43.3867808" lon="10.9165992"><ele>398.0</ele><time>2026-04-05T10:07:41.815Z</time></trkpt><trkpt lat="43.3868261" lon="10.9164025"><ele>398.0</ele><time>2026-04-05T10:07:42.815Z</time></trkpt><trkpt lat="43.3868962" lon="10.9162076"><ele>399.0</ele><time>2026-04-05T10:07:43.815Z</time></trkpt><trkpt lat="43.386985" lon="10.9160148"><ele>400.0</ele><time>2026-04-05T10:07:44.815Z</time></trkpt><trkpt lat="43.3870814" lon="10.9158254"><ele>401.0</ele><time>2026-04-05T10:07:45.815Z</time></trkpt><trkpt lat="43.3871776" lon="10.9156357"><ele>398.66666666666663</ele><time>2026-04-05T10:07:46.815Z</time></trkpt><trkpt lat="43.3872692" lon="10.9154446"><ele>396.33333333333337</ele><time>2026-04-05T10:07:47.815Z</time></trkpt><trkpt lat="43.3873557" lon="10.915256"><ele>394.0</ele><time>2026-04-05T10:07:48.815Z</time></trkpt><trkpt lat="43.387424" lon="10.9150733"><ele>396.5</ele><time>2026-04-05T10:07:49.815Z</time></trkpt><trkpt lat="43.3874742" lon="10.9148952"><ele>399.0</ele><time>2026-04-05T10:07:50.815Z</time></trkpt><trkpt lat="43.3875143" lon="10.9147227"><ele>401.5</ele><time>2026-04-05T10:07:51.815Z</time></trkpt><trkpt lat="43.387545" lon="10.9145612"><ele>404.0</ele><time>2026-04-05T10:07:52.815Z</time></trkpt><trkpt lat="43.3875453" lon="10.9144067"><ele>404.0</ele><time>2026-04-05T10:07:53.815Z</time></trkpt><trkpt lat="43.3875083" lon="10.9142509"><ele>404.0</ele><time>2026-04-05T10:07:54.815Z</time></trkpt><trkpt lat="43.3874442" lon="10.9140855"><ele>404.0</ele><time>2026-04-05T10:07:55.815Z</time></trkpt><trkpt lat="43.3873752" lon="10.9139076"><ele>404.0</ele><time>2026-04-05T10:07:56.815Z</time></trkpt><trkpt lat="43.3873214" lon="10.913716"><ele>403.75</ele><time>2026-04-05T10:07:57.815Z</time></trkpt><trkpt lat="43.3872731" lon="10.9135133"><ele>403.5</ele><time>2026-04-05T10:07:58.815Z</time></trkpt><trkpt lat="43.3872262" lon="10.9133204"><ele>403.25</ele><time>2026-04-05T10:07:59.815Z</time></trkpt><trkpt lat="43.3871727" lon="10.9131423"><ele>403.0</ele><time>2026-04-05T10:08:00.815Z</time></trkpt><trkpt lat="43.3871049" lon="10.9129696"><ele>403.6666666666667</ele><time>2026-04-05T10:08:01.815Z</time></trkpt><trkpt lat="43.3870212" lon="10.9128097"><ele>404.33333333333337</ele><time>2026-04-05T10:08:02.815Z</time></trkpt><trkpt lat="43.3869123" lon="10.9126565"><ele>405.0</ele><time>2026-04-05T10:08:03.815Z</time></trkpt><trkpt lat="43.3867846" lon="10.9125041"><ele>405.0</ele><time>2026-04-05T10:08:04.815Z</time></trkpt><trkpt lat="43.386645" lon="10.9123598"><ele>405.0</ele><time>2026-04-05T10:08:05.815Z</time></trkpt><trkpt lat="43.3865032" lon="10.9122137"><ele>405.0</ele><time>2026-04-05T10:08:06.815Z</time></trkpt><trkpt lat="43.3863691" lon="10.9120639"><ele>406.0</ele><time>2026-04-05T10:08:07.815Z</time></trkpt><trkpt lat="43.3862479" lon="10.911921"><ele>407.0</ele><time>2026-04-05T10:08:08.815Z</time></trkpt><trkpt lat="43.3861378" lon="10.9117887"><ele>408.0</ele><time>2026-04-05T10:08:09.815Z</time></trkpt><trkpt lat="43.3860394" lon="10.91166"><ele>409.0</ele><time>2026-04-05T10:08:10.814Z</time></trkpt><trkpt lat="43.3859571" lon="10.911528"><ele>409.0</ele><time>2026-04-05T10:08:11.815Z</time></trkpt><trkpt lat="43.3858895" lon="10.9113986"><ele>409.0</ele><time>2026-04-05T10:08:12.815Z</time></trkpt><trkpt lat="43.3858272" lon="10.9112773"><ele>409.0</ele><time>2026-04-05T10:08:13.815Z</time></trkpt><trkpt lat="43.3857659" lon="10.9111692"><ele>409.0</ele><time>2026-04-05T10:08:14.815Z</time></trkpt><trkpt lat="43.3857058" lon="10.9110735"><ele>409.0</ele><time>2026-04-05T10:08:15.814Z</time></trkpt><trkpt lat="43.3856502" lon="10.9109903"><ele>409.00000000000006</ele><time>2026-04-05T10:08:16.815Z</time></trkpt><trkpt lat="43.3855998" lon="10.9109189"><ele>409.0</ele><time>2026-04-05T10:08:17.815Z</time></trkpt><trkpt lat="43.3855499" lon="10.910861"><ele>409.0</ele><time>2026-04-05T10:08:18.815Z</time></trkpt><trkpt lat="43.3854618" lon="10.9107606"><ele>409.0</ele><time>2026-04-05T10:08:20.815Z</time></trkpt><trkpt lat="43.3853808" lon="10.9106665"><ele>409.00000000000006</ele><time>2026-04-05T10:08:22.815Z</time></trkpt><trkpt lat="43.3853184" lon="10.9105836"><ele>409.0</ele><time>2026-04-05T10:08:24.815Z</time></trkpt><trkpt lat="43.3852773" lon="10.9105098"><ele>408.6666666666667</ele><time>2026-04-05T10:09:11.815Z</time></trkpt><trkpt lat="43.3852318" lon="10.9104143"><ele>408.33333333333337</ele><time>2026-04-05T10:10:01.815Z</time></trkpt><trkpt lat="43.385188" lon="10.9103314"><ele>408.0</ele><time>2026-04-05T10:10:02.815Z</time></trkpt><trkpt lat="43.3851495" lon="10.910238"><ele>407.66666666666663</ele><time>2026-04-05T10:10:03.815Z</time></trkpt><trkpt lat="43.3851214" lon="10.9101161"><ele>407.3333333333333</ele><time>2026-04-05T10:10:04.815Z</time></trkpt><trkpt lat="43.3851067" lon="10.9099676"><ele>407.0</ele><time>2026-04-05T10:10:05.814Z</time></trkpt><trkpt lat="43.3851177" lon="10.909804"><ele>407.0</ele><time>2026-04-05T10:10:06.815Z</time></trkpt><trkpt lat="43.3851543" lon="10.9096296"><ele>407.0</ele><time>2026-04-05T10:10:07.815Z</time></trkpt><trkpt lat="43.3852104" lon="10.9094477"><ele>407.0</ele><time>2026-04-05T10:10:08.815Z</time></trkpt><trkpt lat="43.3852679" lon="10.9092741"><ele>407.0</ele><time>2026-04-05T10:10:09.815Z</time></trkpt><trkpt lat="43.3853245" lon="10.9091037"><ele>407.75</ele><time>2026-04-05T10:10:10.814Z</time></trkpt><trkpt lat="43.3853892" lon="10.9089352"><ele>408.5</ele><time>2026-04-05T10:10:11.815Z</time></trkpt><trkpt lat="43.3854714" lon="10.9087689"><ele>409.25</ele><time>2026-04-05T10:10:12.815Z</time></trkpt><trkpt lat="43.3855646" lon="10.9086157"><ele>410.0</ele><time>2026-04-05T10:10:13.815Z</time></trkpt><trkpt lat="43.385666" lon="10.9084786"><ele>407.0</ele><time>2026-04-05T10:10:14.815Z</time></trkpt><trkpt lat="43.3857676" lon="10.9083567"><ele>404.0</ele><time>2026-04-05T10:10:15.815Z</time></trkpt><trkpt lat="43.3858673" lon="10.9082501"><ele>401.0</ele><time>2026-04-05T10:10:16.815Z</time></trkpt><trkpt lat="43.3859594" lon="10.9081537"><ele>398.0</ele><time>2026-04-05T10:10:17.815Z</time></trkpt><trkpt lat="43.3860442" lon="10.9080698"><ele>397.99999999999994</ele><time>2026-04-05T10:10:18.815Z</time></trkpt><trkpt lat="43.386111" lon="10.9079839"><ele>398.0</ele><time>2026-04-05T10:10:19.815Z</time></trkpt><trkpt lat="43.3861569" lon="10.9078921"><ele>398.0</ele><time>2026-04-05T10:10:20.815Z</time></trkpt><trkpt lat="43.3861831" lon="10.9077873"><ele>398.0</ele><time>2026-04-05T10:10:21.815Z</time></trkpt><trkpt lat="43.3861983" lon="10.9076748"><ele>397.99999999999994</ele><time>2026-04-05T10:10:22.815Z</time></trkpt><trkpt lat="43.3862075" lon="10.9075462"><ele>398.0</ele><time>2026-04-05T10:10:23.815Z</time></trkpt><trkpt lat="43.3862038" lon="10.9073999"><ele>397.0</ele><time>2026-04-05T10:10:24.815Z</time></trkpt><trkpt lat="43.3861867" lon="10.9072427"><ele>396.0</ele><time>2026-04-05T10:10:25.815Z</time></trkpt><trkpt lat="43.3861714" lon="10.907075"><ele>395.0</ele><time>2026-04-05T10:10:26.815Z</time></trkpt><trkpt lat="43.3861656" lon="10.9068926"><ele>394.0</ele><time>2026-04-05T10:10:27.815Z</time></trkpt><trkpt lat="43.3861716" lon="10.906701"><ele>392.6666666666667</ele><time>2026-04-05T10:10:28.815Z</time></trkpt><trkpt lat="43.3861961" lon="10.9065071"><ele>391.33333333333337</ele><time>2026-04-05T10:10:29.815Z</time></trkpt><trkpt lat="43.3862195" lon="10.9063002"><ele>390.0</ele><time>2026-04-05T10:10:30.815Z</time></trkpt><trkpt lat="43.3862233" lon="10.9060823"><ele>388.0</ele><time>2026-04-05T10:10:31.815Z</time></trkpt><trkpt lat="43.3862134" lon="10.9058696"><ele>386.0</ele><time>2026-04-05T10:10:32.815Z</time></trkpt><trkpt lat="43.3861954" lon="10.9056632"><ele>384.0</ele><time>2026-04-05T10:10:33.815Z</time></trkpt><trkpt lat="43.3861734" lon="10.9054624"><ele>384.0</ele><time>2026-04-05T10:10:34.815Z</time></trkpt><trkpt lat="43.3861563" lon="10.9052777"><ele>384.0</ele><time>2026-04-05T10:10:35.815Z</time></trkpt><trkpt lat="43.3861607" lon="10.9051131"><ele>384.0</ele><time>2026-04-05T10:10:36.815Z</time></trkpt><trkpt lat="43.3861993" lon="10.904968"><ele>384.0</ele><time>2026-04-05T10:10:37.815Z</time></trkpt><trkpt lat="43.3862714" lon="10.9048422"><ele>380.75</ele><time>2026-04-05T10:10:38.815Z</time></trkpt><trkpt lat="43.3863575" lon="10.9047367"><ele>377.5</ele><time>2026-04-05T10:10:39.815Z</time></trkpt><trkpt lat="43.3864285" lon="10.9046235"><ele>374.25</ele><time>2026-04-05T10:10:40.815Z</time></trkpt><trkpt lat="43.3864783" lon="10.9044902"><ele>371.0</ele><time>2026-04-05T10:10:41.815Z</time></trkpt><trkpt lat="43.386501" lon="10.9043279"><ele>370.0</ele><time>2026-04-05T10:10:42.815Z</time></trkpt><trkpt lat="43.3865028" lon="10.9041501"><ele>369.0</ele><time>2026-04-05T10:10:43.815Z</time></trkpt><trkpt lat="43.3864904" lon="10.9039587"><ele>368.0</ele><time>2026-04-05T10:10:44.815Z</time></trkpt><trkpt lat="43.3864748" lon="10.9037657"><ele>367.0</ele><time>2026-04-05T10:10:45.815Z</time></trkpt><trkpt lat="43.3864533" lon="10.9035866"><ele>367.0</ele><time>2026-04-05T10:10:46.815Z</time></trkpt><trkpt lat="43.3864364" lon="10.9034319"><ele>367.0</ele><time>2026-04-05T10:10:47.815Z</time></trkpt><trkpt lat="43.3864413" lon="10.9032972"><ele>367.0</ele><time>2026-04-05T10:10:48.815Z</time></trkpt><trkpt lat="43.3864961" lon="10.9031885"><ele>367.0</ele><time>2026-04-05T10:10:49.815Z</time></trkpt><trkpt lat="43.3865793" lon="10.9031006"><ele>367.0</ele><time>2026-04-05T10:10:50.815Z</time></trkpt><trkpt lat="43.3866936" lon="10.9030636"><ele>366.6</ele><time>2026-04-05T10:10:51.815Z</time></trkpt><trkpt lat="43.3868104" lon="10.9030522"><ele>366.20000000000005</ele><time>2026-04-05T10:10:52.815Z</time></trkpt><trkpt lat="43.3869224" lon="10.9030345"><ele>365.8</ele><time>2026-04-05T10:10:53.815Z</time></trkpt><trkpt lat="43.3870247" lon="10.9029957"><ele>365.4</ele><time>2026-04-05T10:10:54.815Z</time></trkpt><trkpt lat="43.3871182" lon="10.9029474"><ele>365.0</ele><time>2026-04-05T10:10:55.814Z</time></trkpt><trkpt lat="43.3872091" lon="10.9029083"><ele>363.2</ele><time>2026-04-05T10:10:56.815Z</time></trkpt><trkpt lat="43.3873004" lon="10.90288"><ele>361.4</ele><time>2026-04-05T10:10:57.815Z</time></trkpt><trkpt lat="43.3873984" lon="10.9028432"><ele>359.6</ele><time>2026-04-05T10:10:58.815Z</time></trkpt><trkpt lat="43.3875024" lon="10.902784"><ele>357.8</ele><time>2026-04-05T10:10:59.815Z</time></trkpt><trkpt lat="43.3876138" lon="10.9026979"><ele>356.0</ele><time>2026-04-05T10:11:00.815Z</time></trkpt><trkpt lat="43.3877304" lon="10.9025916"><ele>356.33333333333337</ele><time>2026-04-05T10:11:01.815Z</time></trkpt><trkpt lat="43.3878503" lon="10.902469"><ele>356.6666666666667</ele><time>2026-04-05T10:11:02.815Z</time></trkpt><trkpt lat="43.3879777" lon="10.9023346"><ele>357.0</ele><time>2026-04-05T10:11:03.815Z</time></trkpt><trkpt lat="43.3881109" lon="10.9021923"><ele>354.3333333333333</ele><time>2026-04-05T10:11:04.814Z</time></trkpt><trkpt lat="43.3882464" lon="10.9020418"><ele>351.66666666666663</ele><time>2026-04-05T10:11:05.815Z</time></trkpt><trkpt lat="43.3883796" lon="10.9018759"><ele>349.0</ele><time>2026-04-05T10:11:06.815Z</time></trkpt><trkpt lat="43.38851" lon="10.9016886"><ele>349.0</ele><time>2026-04-05T10:11:07.815Z</time></trkpt><trkpt lat="43.38864" lon="10.9014873"><ele>349.0</ele><time>2026-04-05T10:11:08.815Z</time></trkpt><trkpt lat="43.3887732" lon="10.9012861"><ele>349.0</ele><time>2026-04-05T10:11:09.815Z</time></trkpt><trkpt lat="43.3889087" lon="10.9010931"><ele>347.0</ele><time>2026-04-05T10:11:10.815Z</time></trkpt><trkpt lat="43.3890469" lon="10.900907"><ele>345.0</ele><time>2026-04-05T10:11:11.815Z</time></trkpt><trkpt lat="43.3891849" lon="10.9007219"><ele>343.0</ele><time>2026-04-05T10:11:12.815Z</time></trkpt><trkpt lat="43.3893205" lon="10.9005354"><ele>343.0</ele><time>2026-04-05T10:11:13.815Z</time></trkpt><trkpt lat="43.3894585" lon="10.9003478"><ele>343.0</ele><time>2026-04-05T10:11:14.815Z</time></trkpt><trkpt lat="43.389597" lon="10.9001601"><ele>343.0</ele><time>2026-04-05T10:11:15.814Z</time></trkpt><trkpt lat="43.3897304" lon="10.8999797"><ele>341.66666666666663</ele><time>2026-04-05T10:11:16.815Z</time></trkpt><trkpt lat="43.3898578" lon="10.8997976"><ele>340.3333333333333</ele><time>2026-04-05T10:11:17.815Z</time></trkpt><trkpt lat="43.3899837" lon="10.899612"><ele>339.0</ele><time>2026-04-05T10:11:18.815Z</time></trkpt><trkpt lat="43.3901064" lon="10.8994205"><ele>339.3333333333333</ele><time>2026-04-05T10:11:19.815Z</time></trkpt><trkpt lat="43.3902273" lon="10.8992298"><ele>339.66666666666663</ele><time>2026-04-05T10:11:20.815Z</time></trkpt><trkpt lat="43.3903515" lon="10.899038"><ele>340.0</ele><time>2026-04-05T10:11:21.815Z</time></trkpt><trkpt lat="43.3904784" lon="10.8988536"><ele>338.66666666666663</ele><time>2026-04-05T10:11:22.815Z</time></trkpt><trkpt lat="43.3906129" lon="10.8986761"><ele>337.3333333333333</ele><time>2026-04-05T10:11:23.815Z</time></trkpt><trkpt lat="43.3907587" lon="10.8985067"><ele>336.0</ele><time>2026-04-05T10:11:24.815Z</time></trkpt><trkpt lat="43.3909089" lon="10.8983406"><ele>334.3333333333333</ele><time>2026-04-05T10:11:25.815Z</time></trkpt><trkpt lat="43.3910601" lon="10.8981713"><ele>332.66666666666663</ele><time>2026-04-05T10:11:26.815Z</time></trkpt><trkpt lat="43.3912094" lon="10.8979943"><ele>331.0</ele><time>2026-04-05T10:11:27.815Z</time></trkpt><trkpt lat="43.3913547" lon="10.8978073"><ele>329.66666666666663</ele><time>2026-04-05T10:11:28.815Z</time></trkpt><trkpt lat="43.3914975" lon="10.8976149"><ele>328.3333333333333</ele><time>2026-04-05T10:11:29.815Z</time></trkpt><trkpt lat="43.391641" lon="10.8974174"><ele>327.0</ele><time>2026-04-05T10:11:30.815Z</time></trkpt><trkpt lat="43.3917818" lon="10.8972227"><ele>327.0</ele><time>2026-04-05T10:11:31.815Z</time></trkpt><trkpt lat="43.3919166" lon="10.89702"><ele>327.0</ele><time>2026-04-05T10:11:32.815Z</time></trkpt><trkpt lat="43.3920426" lon="10.8968102"><ele>327.0</ele><time>2026-04-05T10:11:33.815Z</time></trkpt><trkpt lat="43.3921512" lon="10.896588"><ele>327.6666666666667</ele><time>2026-04-05T10:11:34.815Z</time></trkpt><trkpt lat="43.392245" lon="10.8963564"><ele>328.33333333333337</ele><time>2026-04-05T10:11:35.815Z</time></trkpt><trkpt lat="43.3923252" lon="10.8961212"><ele>329.0</ele><time>2026-04-05T10:11:36.815Z</time></trkpt><trkpt lat="43.3923929" lon="10.895886"><ele>330.33333333333337</ele><time>2026-04-05T10:11:37.815Z</time></trkpt><trkpt lat="43.3924467" lon="10.8956491"><ele>331.6666666666667</ele><time>2026-04-05T10:11:38.815Z</time></trkpt><trkpt lat="43.3924853" lon="10.8954013"><ele>333.0</ele><time>2026-04-05T10:11:39.814Z</time></trkpt><trkpt lat="43.3925083" lon="10.8951498"><ele>334.0</ele><time>2026-04-05T10:11:40.815Z</time></trkpt><trkpt lat="43.3925198" lon="10.8949213"><ele>335.0</ele><time>2026-04-05T10:11:41.815Z</time></trkpt><trkpt lat="43.3925447" lon="10.8947388"><ele>336.0</ele><time>2026-04-05T10:11:42.815Z</time></trkpt><trkpt lat="43.3925971" lon="10.8945725"><ele>337.0</ele><time>2026-04-05T10:11:43.815Z</time></trkpt><trkpt lat="43.3926841" lon="10.8944269"><ele>337.0</ele><time>2026-04-05T10:11:44.815Z</time></trkpt><trkpt lat="43.3927926" lon="10.8942803"><ele>337.0</ele><time>2026-04-05T10:11:45.815Z</time></trkpt><trkpt lat="43.392918" lon="10.8941313"><ele>337.0</ele><time>2026-04-05T10:11:46.815Z</time></trkpt><trkpt lat="43.3930555" lon="10.8939993"><ele>340.66666666666663</ele><time>2026-04-05T10:11:47.814Z</time></trkpt><trkpt lat="43.3931988" lon="10.8938918"><ele>344.3333333333333</ele><time>2026-04-05T10:11:48.815Z</time></trkpt><trkpt lat="43.3933415" lon="10.8937934"><ele>348.0</ele><time>2026-04-05T10:11:49.815Z</time></trkpt><trkpt lat="43.3934749" lon="10.8936703"><ele>348.0</ele><time>2026-04-05T10:11:50.815Z</time></trkpt><trkpt lat="43.3935934" lon="10.8935142"><ele>348.0</ele><time>2026-04-05T10:11:51.815Z</time></trkpt><trkpt lat="43.3936971" lon="10.8933392"><ele>348.0</ele><time>2026-04-05T10:11:52.815Z</time></trkpt><trkpt lat="43.3937845" lon="10.893168"><ele>348.75</ele><time>2026-04-05T10:11:53.815Z</time></trkpt><trkpt lat="43.393862" lon="10.8930064"><ele>349.5</ele><time>2026-04-05T10:11:54.815Z</time></trkpt><trkpt lat="43.3939149" lon="10.8928481"><ele>350.25</ele><time>2026-04-05T10:11:55.815Z</time></trkpt><trkpt lat="43.3939457" lon="10.892686"><ele>351.0</ele><time>2026-04-05T10:11:56.815Z</time></trkpt><trkpt lat="43.3939395" lon="10.8925221"><ele>351.0</ele><time>2026-04-05T10:11:57.815Z</time></trkpt><trkpt lat="43.3938944" lon="10.8923656"><ele>351.0</ele><time>2026-04-05T10:11:58.815Z</time></trkpt><trkpt lat="43.3938171" lon="10.8922213"><ele>351.0</ele><time>2026-04-05T10:11:59.815Z</time></trkpt><trkpt lat="43.3937214" lon="10.8921002"><ele>351.0</ele><time>2026-04-05T10:12:00.815Z</time></trkpt><trkpt lat="43.3936236" lon="10.8919768"><ele>351.5</ele><time>2026-04-05T10:12:01.814Z</time></trkpt><trkpt lat="43.3935348" lon="10.8918472"><ele>352.0</ele><time>2026-04-05T10:12:02.815Z</time></trkpt><trkpt lat="43.3934487" lon="10.8917137"><ele>352.5</ele><time>2026-04-05T10:12:03.814Z</time></trkpt><trkpt lat="43.3933726" lon="10.8915656"><ele>353.0</ele><time>2026-04-05T10:12:04.815Z</time></trkpt><trkpt lat="43.3933043" lon="10.8914099"><ele>353.0</ele><time>2026-04-05T10:12:05.815Z</time></trkpt><trkpt lat="43.3932386" lon="10.8912565"><ele>353.0</ele><time>2026-04-05T10:12:06.815Z</time></trkpt><trkpt lat="43.3931762" lon="10.8911165"><ele>353.0</ele><time>2026-04-05T10:12:07.814Z</time></trkpt><trkpt lat="43.3931234" lon="10.8909861"><ele>353.0</ele><time>2026-04-05T10:12:08.815Z</time></trkpt><trkpt lat="43.3930899" lon="10.8908433"><ele>356.5</ele><time>2026-04-05T10:12:09.814Z</time></trkpt><trkpt lat="43.3930891" lon="10.8906955"><ele>360.0</ele><time>2026-04-05T10:12:10.815Z</time></trkpt><trkpt lat="43.3931163" lon="10.8905442"><ele>363.5</ele><time>2026-04-05T10:12:11.815Z</time></trkpt><trkpt lat="43.3931751" lon="10.8903678"><ele>367.0</ele><time>2026-04-05T10:12:12.815Z</time></trkpt><trkpt lat="43.3932452" lon="10.8901753"><ele>366.3333333333333</ele><time>2026-04-05T10:12:13.815Z</time></trkpt><trkpt lat="43.3933299" lon="10.8899789"><ele>365.6666666666667</ele><time>2026-04-05T10:12:14.815Z</time></trkpt><trkpt lat="43.3934191" lon="10.8897827"><ele>365.0</ele><time>2026-04-05T10:12:15.815Z</time></trkpt><trkpt lat="43.3935027" lon="10.889603"><ele>365.0</ele><time>2026-04-05T10:12:16.815Z</time></trkpt><trkpt lat="43.393588" lon="10.8894462"><ele>365.0</ele><time>2026-04-05T10:12:17.815Z</time></trkpt><trkpt lat="43.3936925" lon="10.8893106"><ele>365.0</ele><time>2026-04-05T10:12:18.815Z</time></trkpt><trkpt lat="43.3938184" lon="10.8891944"><ele>365.0</ele><time>2026-04-05T10:12:19.815Z</time></trkpt><trkpt lat="43.3939554" lon="10.8890934"><ele>368.6666666666667</ele><time>2026-04-05T10:12:20.815Z</time></trkpt><trkpt lat="43.3940914" lon="10.8889895"><ele>372.3333333333333</ele><time>2026-04-05T10:12:21.815Z</time></trkpt><trkpt lat="43.3942218" lon="10.8888702"><ele>376.0</ele><time>2026-04-05T10:12:22.815Z</time></trkpt><trkpt lat="43.3943411" lon="10.8887419"><ele>376.0</ele><time>2026-04-05T10:12:23.815Z</time></trkpt><trkpt lat="43.3944353" lon="10.8885907"><ele>376.0</ele><time>2026-04-05T10:12:24.815Z</time></trkpt><trkpt lat="43.3945067" lon="10.8884356"><ele>376.0</ele><time>2026-04-05T10:12:25.815Z</time></trkpt><trkpt lat="43.3945605" lon="10.888295"><ele>376.0</ele><time>2026-04-05T10:12:26.815Z</time></trkpt><trkpt lat="43.3946139" lon="10.888181"><ele>376.8333333333333</ele><time>2026-04-05T10:12:27.815Z</time></trkpt><trkpt lat="43.3946827" lon="10.8881245"><ele>377.66666666666663</ele><time>2026-04-05T10:12:28.815Z</time></trkpt><trkpt lat="43.3947554" lon="10.8881245"><ele>378.5</ele><time>2026-04-05T10:12:29.815Z</time></trkpt><trkpt lat="43.3948197" lon="10.8881783"><ele>379.3333333333333</ele><time>2026-04-05T10:12:30.815Z</time></trkpt><trkpt lat="43.3948576" lon="10.8882768"><ele>380.1666666666667</ele><time>2026-04-05T10:12:31.814Z</time></trkpt><trkpt lat="43.3948764" lon="10.88841"><ele>381.0</ele><time>2026-04-05T10:12:32.815Z</time></trkpt><trkpt lat="43.3948764" lon="10.8885689"><ele>381.75</ele><time>2026-04-05T10:12:33.815Z</time></trkpt><trkpt lat="43.3948571" lon="10.8887348"><ele>382.5</ele><time>2026-04-05T10:12:34.815Z</time></trkpt><trkpt lat="43.3948394" lon="10.888904"><ele>383.25</ele><time>2026-04-05T10:12:35.815Z</time></trkpt><trkpt lat="43.3948467" lon="10.8890593"><ele>384.0</ele><time>2026-04-05T10:12:36.815Z</time></trkpt><trkpt lat="43.3948765" lon="10.8891959"><ele>384.0</ele><time>2026-04-05T10:12:37.815Z</time></trkpt><trkpt lat="43.3949275" lon="10.8892951"><ele>384.0</ele><time>2026-04-05T10:12:38.815Z</time></trkpt><trkpt lat="43.3949984" lon="10.8893385"><ele>384.0</ele><time>2026-04-05T10:12:39.815Z</time></trkpt><trkpt lat="43.3950725" lon="10.8893396"><ele>384.0</ele><time>2026-04-05T10:12:40.815Z</time></trkpt><trkpt lat="43.3951423" lon="10.8892767"><ele>384.0</ele><time>2026-04-05T10:12:41.815Z</time></trkpt><trkpt lat="43.3952082" lon="10.8891669"><ele>384.0</ele><time>2026-04-05T10:12:42.815Z</time></trkpt><trkpt lat="43.3952745" lon="10.889022"><ele>384.0</ele><time>2026-04-05T10:12:43.815Z</time></trkpt><trkpt lat="43.3953451" lon="10.8888578"><ele>384.0</ele><time>2026-04-05T10:12:44.814Z</time></trkpt><trkpt lat="43.3954202" lon="10.8886857"><ele>384.0</ele><time>2026-04-05T10:12:45.815Z</time></trkpt><trkpt lat="43.3954924" lon="10.8885147"><ele>384.0</ele><time>2026-04-05T10:12:46.815Z</time></trkpt><trkpt lat="43.3955669" lon="10.8883422"><ele>385.75</ele><time>2026-04-05T10:12:47.815Z</time></trkpt><trkpt lat="43.3956499" lon="10.8881775"><ele>387.5</ele><time>2026-04-05T10:12:48.815Z</time></trkpt><trkpt lat="43.3957501" lon="10.8880408"><ele>389.25</ele><time>2026-04-05T10:12:49.815Z</time></trkpt><trkpt lat="43.3958599" lon="10.887943"><ele>391.0</ele><time>2026-04-05T10:12:50.815Z</time></trkpt><trkpt lat="43.3959594" lon="10.8878565"><ele>391.0</ele><time>2026-04-05T10:12:51.815Z</time></trkpt><trkpt lat="43.3960216" lon="10.8877343"><ele>391.0</ele><time>2026-04-05T10:12:52.815Z</time></trkpt><trkpt lat="43.3960518" lon="10.8875814"><ele>391.0</ele><time>2026-04-05T10:12:53.814Z</time></trkpt><trkpt lat="43.3960485" lon="10.8874123"><ele>391.0</ele><time>2026-04-05T10:12:54.815Z</time></trkpt><trkpt lat="43.3960219" lon="10.8872349"><ele>392.5</ele><time>2026-04-05T10:12:55.815Z</time></trkpt><trkpt lat="43.3959804" lon="10.8870541"><ele>394.0</ele><time>2026-04-05T10:12:56.815Z</time></trkpt><trkpt lat="43.3959537" lon="10.8868732"><ele>395.5</ele><time>2026-04-05T10:12:57.814Z</time></trkpt><trkpt lat="43.3959514" lon="10.886694"><ele>397.0</ele><time>2026-04-05T10:12:58.815Z</time></trkpt><trkpt lat="43.3959694" lon="10.8865132"><ele>397.5</ele><time>2026-04-05T10:12:59.815Z</time></trkpt><trkpt lat="43.3960121" lon="10.8863403"><ele>398.0</ele><time>2026-04-05T10:13:00.815Z</time></trkpt><trkpt lat="43.3960789" lon="10.8861762"><ele>398.5</ele><time>2026-04-05T10:13:01.814Z</time></trkpt><trkpt lat="43.396164" lon="10.8860146"><ele>399.0</ele><time>2026-04-05T10:13:02.815Z</time></trkpt><trkpt lat="43.3962605" lon="10.8858499"><ele>402.33333333333337</ele><time>2026-04-05T10:13:03.815Z</time></trkpt><trkpt lat="43.3963631" lon="10.8856794"><ele>405.6666666666667</ele><time>2026-04-05T10:13:04.815Z</time></trkpt><trkpt lat="43.396472" lon="10.8854995"><ele>409.0</ele><time>2026-04-05T10:13:05.815Z</time></trkpt><trkpt lat="43.3965838" lon="10.8853133"><ele>409.0</ele><time>2026-04-05T10:13:06.815Z</time></trkpt><trkpt lat="43.3966997" lon="10.8851184"><ele>409.0</ele><time>2026-04-05T10:13:07.815Z</time></trkpt><trkpt lat="43.3968179" lon="10.8849154"><ele>409.0</ele><time>2026-04-05T10:13:08.815Z</time></trkpt><trkpt lat="43.3969378" lon="10.8847106"><ele>409.0</ele><time>2026-04-05T10:13:09.815Z</time></trkpt><trkpt lat="43.3970519" lon="10.8845142"><ele>409.0</ele><time>2026-04-05T10:13:10.815Z</time></trkpt><trkpt lat="43.3971488" lon="10.8843272"><ele>409.0</ele><time>2026-04-05T10:13:11.815Z</time></trkpt><trkpt lat="43.3972179" lon="10.8841513"><ele>409.0</ele><time>2026-04-05T10:13:12.815Z</time></trkpt><trkpt lat="43.3972546" lon="10.8839859"><ele>409.0</ele><time>2026-04-05T10:13:13.815Z</time></trkpt><trkpt lat="43.3972575" lon="10.8838109"><ele>409.0</ele><time>2026-04-05T10:13:14.815Z</time></trkpt><trkpt lat="43.3972312" lon="10.8836163"><ele>409.0</ele><time>2026-04-05T10:13:15.815Z</time></trkpt><trkpt lat="43.3971905" lon="10.8834022"><ele>404.6666666666667</ele><time>2026-04-05T10:13:16.815Z</time></trkpt><trkpt lat="43.3971568" lon="10.8831686"><ele>400.33333333333337</ele><time>2026-04-05T10:13:17.815Z</time></trkpt><trkpt lat="43.3971435" lon="10.8829324"><ele>396.0</ele><time>2026-04-05T10:13:18.814Z</time></trkpt><trkpt lat="43.3971441" lon="10.88269"><ele>398.0</ele><time>2026-04-05T10:13:19.815Z</time></trkpt><trkpt lat="43.3971501" lon="10.8824516"><ele>400.0</ele><time>2026-04-05T10:13:20.815Z</time></trkpt><trkpt lat="43.3971328" lon="10.8822166"><ele>402.0</ele><time>2026-04-05T10:13:21.815Z</time></trkpt><trkpt lat="43.3970921" lon="10.8819818"><ele>406.0</ele><time>2026-04-05T10:13:22.815Z</time></trkpt><trkpt lat="43.3970442" lon="10.8817442"><ele>410.0</ele><time>2026-04-05T10:13:23.815Z</time></trkpt><trkpt lat="43.3969986" lon="10.8815044"><ele>414.0</ele><time>2026-04-05T10:13:24.815Z</time></trkpt><trkpt lat="43.3969528" lon="10.881271"><ele>414.0</ele><time>2026-04-05T10:13:25.815Z</time></trkpt><trkpt lat="43.3969062" lon="10.8810385"><ele>414.0</ele><time>2026-04-05T10:13:26.815Z</time></trkpt><trkpt lat="43.396865" lon="10.880807"><ele>414.0</ele><time>2026-04-05T10:13:27.814Z</time></trkpt><trkpt lat="43.3968345" lon="10.8805725"><ele>417.33333333333337</ele><time>2026-04-05T10:13:28.815Z</time></trkpt><trkpt lat="43.3968147" lon="10.8803396"><ele>420.6666666666667</ele><time>2026-04-05T10:13:29.815Z</time></trkpt><trkpt lat="43.3967927" lon="10.8801103"><ele>424.0</ele><time>2026-04-05T10:13:30.815Z</time></trkpt><trkpt lat="43.3967593" lon="10.8798866"><ele>427.0</ele><time>2026-04-05T10:13:31.815Z</time></trkpt><trkpt lat="43.3967221" lon="10.8796687"><ele>430.0</ele><time>2026-04-05T10:13:32.815Z</time></trkpt><trkpt lat="43.3966934" lon="10.8794577"><ele>433.0</ele><time>2026-04-05T10:13:33.815Z</time></trkpt><trkpt lat="43.3966818" lon="10.8792421"><ele>434.75</ele><time>2026-04-05T10:13:34.815Z</time></trkpt><trkpt lat="43.3966825" lon="10.8790296"><ele>436.5</ele><time>2026-04-05T10:13:35.815Z</time></trkpt><trkpt lat="43.396695" lon="10.8788386"><ele>438.25</ele><time>2026-04-05T10:13:36.815Z</time></trkpt><trkpt lat="43.3967237" lon="10.8786683"><ele>440.0</ele><time>2026-04-05T10:13:37.815Z</time></trkpt><trkpt lat="43.3967793" lon="10.8785025"><ele>439.66666666666663</ele><time>2026-04-05T10:13:38.815Z</time></trkpt><trkpt lat="43.3968459" lon="10.8783276"><ele>439.33333333333337</ele><time>2026-04-05T10:13:39.815Z</time></trkpt><trkpt lat="43.3969028" lon="10.8781318"><ele>439.0</ele><time>2026-04-05T10:13:40.815Z</time></trkpt><trkpt lat="43.3969517" lon="10.877914"><ele>439.0</ele><time>2026-04-05T10:13:41.815Z</time></trkpt><trkpt lat="43.3969984" lon="10.8776801"><ele>439.0</ele><time>2026-04-05T10:13:42.815Z</time></trkpt><trkpt lat="43.3970396" lon="10.8774414"><ele>439.0</ele><time>2026-04-05T10:13:43.815Z</time></trkpt><trkpt lat="43.397077" lon="10.8772034"><ele>439.0</ele><time>2026-04-05T10:13:44.815Z</time></trkpt><trkpt lat="43.3971054" lon="10.8769664"><ele>439.0</ele><time>2026-04-05T10:13:45.815Z</time></trkpt><trkpt lat="43.3971264" lon="10.8767446"><ele>439.0</ele><time>2026-04-05T10:13:46.815Z</time></trkpt><trkpt lat="43.3971515" lon="10.8765401"><ele>448.33333333333337</ele><time>2026-04-05T10:13:47.815Z</time></trkpt><trkpt lat="43.3971899" lon="10.87634"><ele>457.66666666666663</ele><time>2026-04-05T10:13:48.815Z</time></trkpt><trkpt lat="43.3972388" lon="10.8761435"><ele>467.0</ele><time>2026-04-05T10:13:49.815Z</time></trkpt><trkpt lat="43.397303" lon="10.8759441"><ele>467.0</ele><time>2026-04-05T10:13:50.815Z</time></trkpt><trkpt lat="43.3973797" lon="10.8757389"><ele>467.0</ele><time>2026-04-05T10:13:51.815Z</time></trkpt><trkpt lat="43.3974592" lon="10.875524"><ele>467.0</ele><time>2026-04-05T10:13:52.815Z</time></trkpt><trkpt lat="43.3975312" lon="10.8753106"><ele>466.0</ele><time>2026-04-05T10:13:53.815Z</time></trkpt><trkpt lat="43.3975974" lon="10.8750977"><ele>465.0</ele><time>2026-04-05T10:13:54.815Z</time></trkpt><trkpt lat="43.3976549" lon="10.874896"><ele>464.0</ele><time>2026-04-05T10:13:55.815Z</time></trkpt><trkpt lat="43.3977203" lon="10.8747112"><ele>464.0</ele><time>2026-04-05T10:13:56.815Z</time></trkpt><trkpt lat="43.3977976" lon="10.8745415"><ele>464.0</ele><time>2026-04-05T10:13:57.815Z</time></trkpt><trkpt lat="43.3978858" lon="10.8743948"><ele>464.0</ele><time>2026-04-05T10:13:58.815Z</time></trkpt><trkpt lat="43.3979833" lon="10.8742551"><ele>464.0</ele><time>2026-04-05T10:13:59.815Z</time></trkpt><trkpt lat="43.3980846" lon="10.8741126"><ele>468.25</ele><time>2026-04-05T10:14:00.815Z</time></trkpt><trkpt lat="43.3981848" lon="10.8739688"><ele>472.5</ele><time>2026-04-05T10:14:01.815Z</time></trkpt><trkpt lat="43.3982825" lon="10.8738261"><ele>476.75</ele><time>2026-04-05T10:14:02.815Z</time></trkpt><trkpt lat="43.3983776" lon="10.8736777"><ele>481.0</ele><time>2026-04-05T10:14:03.815Z</time></trkpt><trkpt lat="43.398465" lon="10.8735172"><ele>480.0</ele><time>2026-04-05T10:14:04.815Z</time></trkpt><trkpt lat="43.3985436" lon="10.8733397"><ele>479.0</ele><time>2026-04-05T10:14:05.815Z</time></trkpt><trkpt lat="43.3986243" lon="10.8731624"><ele>478.0</ele><time>2026-04-05T10:14:06.815Z</time></trkpt><trkpt lat="43.398711" lon="10.8729835"><ele>478.0</ele><time>2026-04-05T10:14:07.815Z</time></trkpt><trkpt lat="43.3988006" lon="10.8728078"><ele>478.0</ele><time>2026-04-05T10:14:08.815Z</time></trkpt><trkpt lat="43.3988934" lon="10.8726298"><ele>478.0</ele><time>2026-04-05T10:14:09.815Z</time></trkpt><trkpt lat="43.3989895" lon="10.8724545"><ele>481.0</ele><time>2026-04-05T10:14:10.815Z</time></trkpt><trkpt lat="43.3990906" lon="10.8722957"><ele>484.0</ele><time>2026-04-05T10:14:11.815Z</time></trkpt><trkpt lat="43.3991952" lon="10.8721564"><ele>487.0</ele><time>2026-04-05T10:14:12.815Z</time></trkpt><trkpt lat="43.3992925" lon="10.8720204"><ele>490.0</ele><time>2026-04-05T10:14:13.815Z</time></trkpt><trkpt lat="43.3993778" lon="10.8718788"><ele>490.5</ele><time>2026-04-05T10:14:14.815Z</time></trkpt><trkpt lat="43.3994545" lon="10.8717302"><ele>491.0</ele><time>2026-04-05T10:14:15.815Z</time></trkpt><trkpt lat="43.3995211" lon="10.871578"><ele>491.5</ele><time>2026-04-05T10:14:16.815Z</time></trkpt><trkpt lat="43.3995763" lon="10.8714202"><ele>492.0</ele><time>2026-04-05T10:14:17.815Z</time></trkpt><trkpt lat="43.3996227" lon="10.8712563"><ele>492.0</ele><time>2026-04-05T10:14:18.815Z</time></trkpt><trkpt lat="43.3996606" lon="10.8710801"><ele>492.0</ele><time>2026-04-05T10:14:19.815Z</time></trkpt><trkpt lat="43.399692" lon="10.8708982"><ele>492.0</ele><time>2026-04-05T10:14:20.815Z</time></trkpt><trkpt lat="43.3997031" lon="10.8707159"><ele>492.0</ele><time>2026-04-05T10:14:21.815Z</time></trkpt><trkpt lat="43.3997116" lon="10.8705587"><ele>491.75</ele><time>2026-04-05T10:14:22.815Z</time></trkpt><trkpt lat="43.3997083" lon="10.8704074"><ele>491.5</ele><time>2026-04-05T10:14:23.815Z</time></trkpt><trkpt lat="43.3996933" lon="10.8702461"><ele>491.25</ele><time>2026-04-05T10:14:24.815Z</time></trkpt><trkpt lat="43.3996694" lon="10.8700745"><ele>491.0</ele><time>2026-04-05T10:14:25.815Z</time></trkpt><trkpt lat="43.3996535" lon="10.8698922"><ele>493.25</ele><time>2026-04-05T10:14:26.815Z</time></trkpt><trkpt lat="43.3996425" lon="10.869714"><ele>495.5</ele><time>2026-04-05T10:14:27.815Z</time></trkpt><trkpt lat="43.3996328" lon="10.869533"><ele>497.75</ele><time>2026-04-05T10:14:28.815Z</time></trkpt><trkpt lat="43.3996058" lon="10.8693549"><ele>500.0</ele><time>2026-04-05T10:14:29.815Z</time></trkpt><trkpt lat="43.3995688" lon="10.8691773"><ele>500.25</ele><time>2026-04-05T10:14:30.815Z</time></trkpt><trkpt lat="43.3995346" lon="10.8689972"><ele>500.5</ele><time>2026-04-05T10:14:31.815Z</time></trkpt><trkpt lat="43.3994989" lon="10.8688245"><ele>500.75</ele><time>2026-04-05T10:14:32.815Z</time></trkpt><trkpt lat="43.399468" lon="10.8686637"><ele>501.0</ele><time>2026-04-05T10:14:33.815Z</time></trkpt><trkpt lat="43.3994384" lon="10.8685155"><ele>501.0</ele><time>2026-04-05T10:14:34.815Z</time></trkpt><trkpt lat="43.3994112" lon="10.8683636"><ele>501.0</ele><time>2026-04-05T10:14:35.815Z</time></trkpt><trkpt lat="43.3993809" lon="10.8682128"><ele>501.0</ele><time>2026-04-05T10:14:36.815Z</time></trkpt><trkpt lat="43.3993476" lon="10.8680609"><ele>501.0</ele><time>2026-04-05T10:14:37.814Z</time></trkpt><trkpt lat="43.3993118" lon="10.8679128"><ele>501.0</ele><time>2026-04-05T10:14:38.815Z</time></trkpt><trkpt lat="43.3992823" lon="10.86778"><ele>501.0</ele><time>2026-04-05T10:14:39.815Z</time></trkpt><trkpt lat="43.3992656" lon="10.8676499"><ele>501.0</ele><time>2026-04-05T10:14:40.815Z</time></trkpt><trkpt lat="43.3992571" lon="10.8675278"><ele>501.0</ele><time>2026-04-05T10:14:41.815Z</time></trkpt><trkpt lat="43.3992512" lon="10.8674154"><ele>501.0</ele><time>2026-04-05T10:14:42.815Z</time></trkpt><trkpt lat="43.3992456" lon="10.8673157"><ele>501.0</ele><time>2026-04-05T10:14:43.815Z</time></trkpt><trkpt lat="43.3992435" lon="10.8672288"><ele>502.0</ele><time>2026-04-05T10:14:44.815Z</time></trkpt><trkpt lat="43.39924" lon="10.8671362"><ele>503.0</ele><time>2026-04-05T10:14:45.815Z</time></trkpt><trkpt lat="43.3992339" lon="10.8670228"><ele>504.0</ele><time>2026-04-05T10:14:46.815Z</time></trkpt><trkpt lat="43.3992283" lon="10.8668922"><ele>505.0</ele><time>2026-04-05T10:14:47.815Z</time></trkpt><trkpt lat="43.3992294" lon="10.8667577"><ele>506.0</ele><time>2026-04-05T10:14:48.815Z</time></trkpt><trkpt lat="43.3992337" lon="10.866628"><ele>507.0</ele><time>2026-04-05T10:14:49.815Z</time></trkpt><trkpt lat="43.3992367" lon="10.8665205"><ele>508.1666666666667</ele><time>2026-04-05T10:14:50.815Z</time></trkpt><trkpt lat="43.3992361" lon="10.86639"><ele>509.33333333333337</ele><time>2026-04-05T10:14:52.815Z</time></trkpt><trkpt lat="43.3992554" lon="10.866257"><ele>510.5</ele><time>2026-04-05T10:14:54.815Z</time></trkpt><trkpt lat="43.3992679" lon="10.8660913"><ele>511.6666666666667</ele><time>2026-04-05T10:14:56.814Z</time></trkpt><trkpt lat="43.3992731" lon="10.8660014"><ele>512.8333333333334</ele><time>2026-04-05T10:14:57.815Z</time></trkpt><trkpt lat="43.3992732" lon="10.8659086"><ele>514.0</ele><time>2026-04-05T10:14:58.815Z</time></trkpt><trkpt lat="43.3992702" lon="10.8658162"><ele>514.8</ele><time>2026-04-05T10:14:59.815Z</time></trkpt><trkpt lat="43.3992793" lon="10.8656508"><ele>515.5999999999999</ele><time>2026-04-05T10:15:01.815Z</time></trkpt><trkpt lat="43.3992974" lon="10.8655527"><ele>516.4</ele><time>2026-04-05T10:15:02.815Z</time></trkpt><trkpt lat="43.3993222" lon="10.8654402"><ele>517.1999999999999</ele><time>2026-04-05T10:15:03.815Z</time></trkpt><trkpt lat="43.3993463" lon="10.8653203"><ele>518.0</ele><time>2026-04-05T10:15:04.815Z</time></trkpt><trkpt lat="43.3993676" lon="10.8651994"><ele>517.8333333333333</ele><time>2026-04-05T10:15:05.815Z</time></trkpt><trkpt lat="43.3993797" lon="10.8650877"><ele>517.6666666666666</ele><time>2026-04-05T10:15:06.815Z</time></trkpt><trkpt lat="43.3993962" lon="10.8649744"><ele>517.5</ele><time>2026-04-05T10:15:07.815Z</time></trkpt><trkpt lat="43.3994171" lon="10.8648585"><ele>517.3333333333334</ele><time>2026-04-05T10:15:08.815Z</time></trkpt><trkpt lat="43.399439" lon="10.8647331"><ele>517.1666666666667</ele><time>2026-04-05T10:15:09.814Z</time></trkpt><trkpt lat="43.3994609" lon="10.8646006"><ele>517.0</ele><time>2026-04-05T10:15:10.815Z</time></trkpt><trkpt lat="43.399483" lon="10.8644668"><ele>517.0</ele><time>2026-04-05T10:15:11.815Z</time></trkpt><trkpt lat="43.3995069" lon="10.8643344"><ele>517.0</ele><time>2026-04-05T10:15:12.815Z</time></trkpt><trkpt lat="43.3995315" lon="10.8642024"><ele>517.0</ele><time>2026-04-05T10:15:13.815Z</time></trkpt><trkpt lat="43.3995548" lon="10.8640784"><ele>517.0</ele><time>2026-04-05T10:15:14.814Z</time></trkpt><trkpt lat="43.399575" lon="10.863963"><ele>517.0</ele><time>2026-04-05T10:15:15.815Z</time></trkpt><trkpt lat="43.3995919" lon="10.8638524"><ele>516.6</ele><time>2026-04-05T10:15:16.815Z</time></trkpt><trkpt lat="43.3996077" lon="10.8637463"><ele>516.2</ele><time>2026-04-05T10:15:17.815Z</time></trkpt><trkpt lat="43.3996245" lon="10.8636308"><ele>515.8</ele><time>2026-04-05T10:15:18.815Z</time></trkpt><trkpt lat="43.3996371" lon="10.8634982"><ele>515.4</ele><time>2026-04-05T10:15:19.815Z</time></trkpt><trkpt lat="43.3996478" lon="10.8633379"><ele>515.0</ele><time>2026-04-05T10:15:20.815Z</time></trkpt><trkpt lat="43.399669" lon="10.8631614"><ele>521.0</ele><time>2026-04-05T10:15:21.816Z</time></trkpt><trkpt lat="43.3996944" lon="10.8629801"><ele>527.0</ele><time>2026-04-05T10:15:22.815Z</time></trkpt><trkpt lat="43.3997215" lon="10.8627958"><ele>533.0</ele><time>2026-04-05T10:15:23.815Z</time></trkpt><trkpt lat="43.3997443" lon="10.8626181"><ele>539.0</ele><time>2026-04-05T10:15:24.815Z</time></trkpt><trkpt lat="43.3997624" lon="10.8624431"><ele>539.0</ele><time>2026-04-05T10:15:25.815Z</time></trkpt><trkpt lat="43.3997778" lon="10.8622696"><ele>539.0</ele><time>2026-04-05T10:15:26.815Z</time></trkpt><trkpt lat="43.3997956" lon="10.8621016"><ele>539.0</ele><time>2026-04-05T10:15:27.815Z</time></trkpt><trkpt lat="43.3998142" lon="10.8619458"><ele>539.0</ele><time>2026-04-05T10:15:28.814Z</time></trkpt><trkpt lat="43.399832" lon="10.8617967"><ele>538.2</ele><time>2026-04-05T10:15:29.815Z</time></trkpt><trkpt lat="43.3998487" lon="10.8616604"><ele>537.4</ele><time>2026-04-05T10:15:30.815Z</time></trkpt><trkpt lat="43.3998662" lon="10.8615333"><ele>536.6</ele><time>2026-04-05T10:15:31.815Z</time></trkpt><trkpt lat="43.3998826" lon="10.8614125"><ele>535.8</ele><time>2026-04-05T10:15:32.815Z</time></trkpt><trkpt lat="43.399897" lon="10.8612975"><ele>535.0</ele><time>2026-04-05T10:15:33.815Z</time></trkpt><trkpt lat="43.3999139" lon="10.8611778"><ele>535.0</ele><time>2026-04-05T10:15:34.815Z</time></trkpt><trkpt lat="43.3999295" lon="10.8610551"><ele>535.0</ele><time>2026-04-05T10:15:35.815Z</time></trkpt><trkpt lat="43.399946" lon="10.8609252"><ele>535.0</ele><time>2026-04-05T10:15:36.815Z</time></trkpt><trkpt lat="43.3999626" lon="10.8607947"><ele>535.0</ele><time>2026-04-05T10:15:37.815Z</time></trkpt><trkpt lat="43.3999806" lon="10.8606641"><ele>535.0</ele><time>2026-04-05T10:15:38.815Z</time></trkpt><trkpt lat="43.3999975" lon="10.8605356"><ele>533.8</ele><time>2026-04-05T10:15:39.815Z</time></trkpt><trkpt lat="43.4000246" lon="10.8604027"><ele>532.6</ele><time>2026-04-05T10:15:40.815Z</time></trkpt><trkpt lat="43.4000617" lon="10.8602754"><ele>531.4</ele><time>2026-04-05T10:15:41.814Z</time></trkpt><trkpt lat="43.4001097" lon="10.8601517"><ele>530.2</ele><time>2026-04-05T10:15:42.815Z</time></trkpt><trkpt lat="43.4001634" lon="10.8600422"><ele>529.0</ele><time>2026-04-05T10:15:43.815Z</time></trkpt><trkpt lat="43.4002132" lon="10.8599401"><ele>525.8</ele><time>2026-04-05T10:15:44.815Z</time></trkpt><trkpt lat="43.4002622" lon="10.859837"><ele>522.5999999999999</ele><time>2026-04-05T10:15:45.815Z</time></trkpt><trkpt lat="43.4003065" lon="10.8597316"><ele>519.4</ele><time>2026-04-05T10:15:46.815Z</time></trkpt><trkpt lat="43.4003536" lon="10.8596279"><ele>516.1999999999999</ele><time>2026-04-05T10:15:47.815Z</time></trkpt><trkpt lat="43.4004066" lon="10.8595227"><ele>513.0</ele><time>2026-04-05T10:15:48.815Z</time></trkpt><trkpt lat="43.4004666" lon="10.8594196"><ele>514.8333333333334</ele><time>2026-04-05T10:15:49.815Z</time></trkpt><trkpt lat="43.4005302" lon="10.8593158"><ele>516.6666666666666</ele><time>2026-04-05T10:15:50.815Z</time></trkpt><trkpt lat="43.4005927" lon="10.8592212"><ele>518.5</ele><time>2026-04-05T10:15:51.815Z</time></trkpt><trkpt lat="43.4006576" lon="10.8591451"><ele>520.3333333333333</ele><time>2026-04-05T10:15:52.816Z</time></trkpt><trkpt lat="43.4007158" lon="10.8590803"><ele>522.1666666666666</ele><time>2026-04-05T10:15:53.816Z</time></trkpt><trkpt lat="43.400771" lon="10.8590314"><ele>524.0</ele><time>2026-04-05T10:15:54.816Z</time></trkpt><trkpt lat="43.4008827" lon="10.8590039"><ele>524.0</ele><time>2026-04-05T10:15:56.816Z</time></trkpt><trkpt lat="43.4009476" lon="10.8590212"><ele>524.0</ele><time>2026-04-05T10:15:58.816Z</time></trkpt><trkpt lat="43.4009677" lon="10.8591256"><ele>524.0</ele><time>2026-04-05T10:16:02.816Z</time></trkpt><trkpt lat="43.4009473" lon="10.8592457"><ele>524.0</ele><time>2026-04-05T10:16:05.816Z</time></trkpt><trkpt lat="43.4009571" lon="10.8593424"><ele>524.0</ele><time>2026-04-05T10:16:07.816Z</time></trkpt><trkpt lat="43.4010246" lon="10.8593807"><ele>524.0</ele><time>2026-04-05T10:16:09.816Z</time></trkpt><trkpt lat="43.4010657" lon="10.859307"><ele>524.0</ele><time>2026-04-05T10:16:11.816Z</time></trkpt><trkpt lat="43.4010502" lon="10.8592012"><ele>524.0</ele><time>2026-04-05T10:16:13.816Z</time></trkpt><trkpt lat="43.4010238" lon="10.8591002"><ele>524.0</ele><time>2026-04-05T10:16:15.816Z</time></trkpt><trkpt lat="43.4009837" lon="10.8590146"><ele>524.0</ele><time>2026-04-05T10:16:18.816Z</time></trkpt></trkseg><trkseg><trkpt lat="43.4009126" lon="10.8590063"><ele>524.0</ele><time>2026-04-05T11:03:51.814Z</time></trkpt><trkpt lat="43.4008419" lon="10.8590059"><ele>524.0</ele><time>2026-04-05T11:03:52.813Z</time></trkpt><trkpt lat="43.400765" lon="10.8590354"><ele>524.0</ele><time>2026-04-05T11:03:53.813Z</time></trkpt><trkpt lat="43.4006927" lon="10.8591029"><ele>524.0</ele><time>2026-04-05T11:03:54.814Z</time></trkpt><trkpt lat="43.400624" lon="10.8591963"><ele>524.0</ele><time>2026-04-05T11:03:55.814Z</time></trkpt><trkpt lat="43.4005608" lon="10.8593129"><ele>524.0</ele><time>2026-04-05T11:03:56.814Z</time></trkpt><trkpt lat="43.4004898" lon="10.8594495"><ele>521.25</ele><time>2026-04-05T11:03:57.814Z</time></trkpt><trkpt lat="43.4004109" lon="10.859599"><ele>518.5</ele><time>2026-04-05T11:03:58.814Z</time></trkpt><trkpt lat="43.4003316" lon="10.8597479"><ele>515.75</ele><time>2026-04-05T11:03:59.814Z</time></trkpt><trkpt lat="43.4002606" lon="10.8598852"><ele>513.0</ele><time>2026-04-05T11:04:00.813Z</time></trkpt><trkpt lat="43.4001967" lon="10.860008"><ele>516.1999999999999</ele><time>2026-04-05T11:04:01.815Z</time></trkpt><trkpt lat="43.4001401" lon="10.86012"><ele>519.4</ele><time>2026-04-05T11:04:02.814Z</time></trkpt><trkpt lat="43.400086" lon="10.8602252"><ele>522.5999999999999</ele><time>2026-04-05T11:04:03.814Z</time></trkpt><trkpt lat="43.4000346" lon="10.8603503"><ele>525.8</ele><time>2026-04-05T11:04:04.816Z</time></trkpt><trkpt lat="43.3999977" lon="10.8604908"><ele>529.0</ele><time>2026-04-05T11:04:05.814Z</time></trkpt><trkpt lat="43.3999763" lon="10.8606551"><ele>529.0</ele><time>2026-04-05T11:04:06.814Z</time></trkpt><trkpt lat="43.3999519" lon="10.8608364"><ele>529.0</ele><time>2026-04-05T11:04:07.815Z</time></trkpt><trkpt lat="43.39993" lon="10.8610303"><ele>529.0</ele><time>2026-04-05T11:04:08.814Z</time></trkpt><trkpt lat="43.3999048" lon="10.8612247"><ele>529.0</ele><time>2026-04-05T11:04:09.816Z</time></trkpt><trkpt lat="43.3998809" lon="10.8614198"><ele>531.0</ele><time>2026-04-05T11:04:10.814Z</time></trkpt><trkpt lat="43.3998597" lon="10.8616257"><ele>533.0</ele><time>2026-04-05T11:04:11.814Z</time></trkpt><trkpt lat="43.3998342" lon="10.8618288"><ele>535.0</ele><time>2026-04-05T11:04:12.814Z</time></trkpt><trkpt lat="43.3998121" lon="10.8620352"><ele>536.3333333333334</ele><time>2026-04-05T11:04:13.815Z</time></trkpt><trkpt lat="43.3997904" lon="10.8622424"><ele>537.6666666666666</ele><time>2026-04-05T11:04:14.815Z</time></trkpt><trkpt lat="43.3997741" lon="10.8624546"><ele>539.0</ele><time>2026-04-05T11:04:15.815Z</time></trkpt><trkpt lat="43.3997538" lon="10.8626697"><ele>540.0</ele><time>2026-04-05T11:04:16.815Z</time></trkpt><trkpt lat="43.3997329" lon="10.8628785"><ele>541.0</ele><time>2026-04-05T11:04:17.815Z</time></trkpt><trkpt lat="43.3997113" lon="10.8630878"><ele>542.0</ele><time>2026-04-05T11:04:18.814Z</time></trkpt><trkpt lat="43.3996868" lon="10.8632878"><ele>535.25</ele><time>2026-04-05T11:04:19.814Z</time></trkpt><trkpt lat="43.3996613" lon="10.8634772"><ele>528.5</ele><time>2026-04-05T11:04:20.814Z</time></trkpt><trkpt lat="43.3996392" lon="10.8636586"><ele>521.75</ele><time>2026-04-05T11:04:21.814Z</time></trkpt><trkpt lat="43.399615" lon="10.863838"><ele>515.0</ele><time>2026-04-05T11:04:22.814Z</time></trkpt><trkpt lat="43.3995877" lon="10.8640081"><ele>515.0</ele><time>2026-04-05T11:04:23.814Z</time></trkpt><trkpt lat="43.3995645" lon="10.8641735"><ele>515.0</ele><time>2026-04-05T11:04:24.814Z</time></trkpt><trkpt lat="43.3995382" lon="10.8643305"><ele>515.0</ele><time>2026-04-05T11:04:25.814Z</time></trkpt><trkpt lat="43.3995072" lon="10.8644789"><ele>515.0</ele><time>2026-04-05T11:04:26.815Z</time></trkpt><trkpt lat="43.3994789" lon="10.8646264"><ele>515.4</ele><time>2026-04-05T11:04:27.814Z</time></trkpt><trkpt lat="43.3994536" lon="10.8647688"><ele>515.8</ele><time>2026-04-05T11:04:28.815Z</time></trkpt><trkpt lat="43.3994298" lon="10.8649029"><ele>516.2</ele><time>2026-04-05T11:04:29.814Z</time></trkpt><trkpt lat="43.3994073" lon="10.865032"><ele>516.6</ele><time>2026-04-05T11:04:30.814Z</time></trkpt><trkpt lat="43.3993808" lon="10.8651569"><ele>517.0</ele><time>2026-04-05T11:04:31.814Z</time></trkpt><trkpt lat="43.3993555" lon="10.8652646"><ele>517.0</ele><time>2026-04-05T11:04:32.814Z</time></trkpt><trkpt lat="43.3993364" lon="10.8653472"><ele>517.0</ele><time>2026-04-05T11:04:33.815Z</time></trkpt><trkpt lat="43.3992787" lon="10.8654458"><ele>517.0</ele><time>2026-04-05T11:04:35.814Z</time></trkpt><trkpt lat="43.3992103" lon="10.8654157"><ele>517.0</ele><time>2026-04-05T11:04:37.814Z</time></trkpt><trkpt lat="43.3991872" lon="10.8652892"><ele>517.0</ele><time>2026-04-05T11:04:39.814Z</time></trkpt><trkpt lat="43.3991899" lon="10.865108"><ele>517.0</ele><time>2026-04-05T11:04:41.816Z</time></trkpt><trkpt lat="43.3991938" lon="10.8649887"><ele>517.0</ele><time>2026-04-05T11:04:42.814Z</time></trkpt><trkpt lat="43.3991952" lon="10.8648578"><ele>517.0</ele><time>2026-04-05T11:04:43.814Z</time></trkpt><trkpt lat="43.3992007" lon="10.8647247"><ele>517.0</ele><time>2026-04-05T11:04:44.814Z</time></trkpt><trkpt lat="43.3992007" lon="10.8645997"><ele>517.0</ele><time>2026-04-05T11:04:45.814Z</time></trkpt><trkpt lat="43.3991989" lon="10.8644761"><ele>517.0</ele><time>2026-04-05T11:04:46.814Z</time></trkpt><trkpt lat="43.3991999" lon="10.8643627"><ele>517.0</ele><time>2026-04-05T11:04:47.814Z</time></trkpt><trkpt lat="43.3992032" lon="10.8642567"><ele>517.0</ele><time>2026-04-05T11:04:48.814Z</time></trkpt><trkpt lat="43.3992077" lon="10.8641523"><ele>517.0</ele><time>2026-04-05T11:04:49.814Z</time></trkpt><trkpt lat="43.3992175" lon="10.8640375"><ele>517.0</ele><time>2026-04-05T11:04:50.814Z</time></trkpt><trkpt lat="43.3992242" lon="10.8639101"><ele>517.0</ele><time>2026-04-05T11:04:51.815Z</time></trkpt><trkpt lat="43.3992379" lon="10.8637671"><ele>516.5</ele><time>2026-04-05T11:04:52.814Z</time></trkpt><trkpt lat="43.3992552" lon="10.8636041"><ele>516.0</ele><time>2026-04-05T11:04:53.814Z</time></trkpt><trkpt lat="43.3992744" lon="10.8634239"><ele>515.5</ele><time>2026-04-05T11:04:54.813Z</time></trkpt><trkpt lat="43.3992917" lon="10.8632306"><ele>515.0</ele><time>2026-04-05T11:04:55.814Z</time></trkpt><trkpt lat="43.3993087" lon="10.8630346"><ele>513.3333333333333</ele><time>2026-04-05T11:04:56.814Z</time></trkpt><trkpt lat="43.3993241" lon="10.8628286"><ele>511.66666666666663</ele><time>2026-04-05T11:04:57.814Z</time></trkpt><trkpt lat="43.3993419" lon="10.862615"><ele>510.0</ele><time>2026-04-05T11:04:58.815Z</time></trkpt><trkpt lat="43.3993572" lon="10.8623887"><ele>507.66666666666663</ele><time>2026-04-05T11:04:59.814Z</time></trkpt><trkpt lat="43.3993739" lon="10.8621623"><ele>505.3333333333333</ele><time>2026-04-05T11:05:00.815Z</time></trkpt><trkpt lat="43.3993911" lon="10.8619351"><ele>503.0</ele><time>2026-04-05T11:05:01.814Z</time></trkpt><trkpt lat="43.3994097" lon="10.8616986"><ele>500.3333333333333</ele><time>2026-04-05T11:05:02.814Z</time></trkpt><trkpt lat="43.3994309" lon="10.8614624"><ele>497.66666666666663</ele><time>2026-04-05T11:05:03.814Z</time></trkpt><trkpt lat="43.3994491" lon="10.8612282"><ele>495.0</ele><time>2026-04-05T11:05:04.814Z</time></trkpt><trkpt lat="43.3994662" lon="10.8609943"><ele>493.33333333333337</ele><time>2026-04-05T11:05:05.814Z</time></trkpt><trkpt lat="43.3994788" lon="10.8607742"><ele>491.6666666666667</ele><time>2026-04-05T11:05:06.814Z</time></trkpt><trkpt lat="43.3994929" lon="10.8605565"><ele>490.0</ele><time>2026-04-05T11:05:07.814Z</time></trkpt><trkpt lat="43.3995088" lon="10.8603473"><ele>490.0</ele><time>2026-04-05T11:05:08.814Z</time></trkpt><trkpt lat="43.39952" lon="10.8601442"><ele>490.0</ele><time>2026-04-05T11:05:09.814Z</time></trkpt><trkpt lat="43.3995357" lon="10.8599457"><ele>490.0</ele><time>2026-04-05T11:05:10.814Z</time></trkpt><trkpt lat="43.3995471" lon="10.8597636"><ele>490.0</ele><time>2026-04-05T11:05:11.815Z</time></trkpt><trkpt lat="43.3995598" lon="10.8595926"><ele>489.0</ele><time>2026-04-05T11:05:12.815Z</time></trkpt><trkpt lat="43.399596" lon="10.8594487"><ele>488.0</ele><time>2026-04-05T11:05:13.814Z</time></trkpt><trkpt lat="43.399662" lon="10.8593131"><ele>487.0</ele><time>2026-04-05T11:05:14.814Z</time></trkpt><trkpt lat="43.3997498" lon="10.8591871"><ele>486.0</ele><time>2026-04-05T11:05:15.815Z</time></trkpt><trkpt lat="43.39985" lon="10.8590569"><ele>489.25</ele><time>2026-04-05T11:05:16.814Z</time></trkpt><trkpt lat="43.3999544" lon="10.8589116"><ele>492.5</ele><time>2026-04-05T11:05:17.815Z</time></trkpt><trkpt lat="43.4000607" lon="10.8587744"><ele>495.75</ele><time>2026-04-05T11:05:18.814Z</time></trkpt><trkpt lat="43.4001613" lon="10.8586385"><ele>499.0</ele><time>2026-04-05T11:05:19.814Z</time></trkpt><trkpt lat="43.4002524" lon="10.8585072"><ele>501.4</ele><time>2026-04-05T11:05:20.814Z</time></trkpt><trkpt lat="43.400335" lon="10.8583896"><ele>503.79999999999995</ele><time>2026-04-05T11:05:21.814Z</time></trkpt><trkpt lat="43.4003993" lon="10.8582928"><ele>506.20000000000005</ele><time>2026-04-05T11:05:22.815Z</time></trkpt><trkpt lat="43.4004518" lon="10.858213"><ele>508.6</ele><time>2026-04-05T11:05:23.816Z</time></trkpt><trkpt lat="43.4005142" lon="10.8580932"><ele>511.0</ele><time>2026-04-05T11:05:25.815Z</time></trkpt><trkpt lat="43.4005116" lon="10.858001"><ele>506.0</ele><time>2026-04-05T11:05:28.814Z</time></trkpt><trkpt lat="43.4004318" lon="10.8579577"><ele>501.0</ele><time>2026-04-05T11:05:30.814Z</time></trkpt><trkpt lat="43.4003519" lon="10.8579835"><ele>496.0</ele><time>2026-04-05T11:05:31.815Z</time></trkpt><trkpt lat="43.4002519" lon="10.8580505"><ele>491.0</ele><time>2026-04-05T11:05:32.814Z</time></trkpt><trkpt lat="43.400136" lon="10.8581196"><ele>486.0</ele><time>2026-04-05T11:05:33.815Z</time></trkpt><trkpt lat="43.3999978" lon="10.8581738"><ele>486.0</ele><time>2026-04-05T11:05:34.815Z</time></trkpt><trkpt lat="43.3998541" lon="10.8582167"><ele>486.0</ele><time>2026-04-05T11:05:35.816Z</time></trkpt><trkpt lat="43.3997068" lon="10.8582647"><ele>486.0</ele><time>2026-04-05T11:05:36.814Z</time></trkpt><trkpt lat="43.399568" lon="10.8583157"><ele>486.0</ele><time>2026-04-05T11:05:37.815Z</time></trkpt><trkpt lat="43.3994349" lon="10.8583759"><ele>484.5</ele><time>2026-04-05T11:05:38.814Z</time></trkpt><trkpt lat="43.3993066" lon="10.8584533"><ele>483.0</ele><time>2026-04-05T11:05:39.815Z</time></trkpt><trkpt lat="43.399193" lon="10.8585532"><ele>481.5</ele><time>2026-04-05T11:05:40.814Z</time></trkpt><trkpt lat="43.3990983" lon="10.8586813"><ele>480.0</ele><time>2026-04-05T11:05:41.814Z</time></trkpt><trkpt lat="43.3990134" lon="10.8588247"><ele>480.0</ele><time>2026-04-05T11:05:42.815Z</time></trkpt><trkpt lat="43.3989412" lon="10.8589659"><ele>480.0</ele><time>2026-04-05T11:05:43.815Z</time></trkpt><trkpt lat="43.3988833" lon="10.8591148"><ele>480.0</ele><time>2026-04-05T11:05:44.814Z</time></trkpt><trkpt lat="43.3988349" lon="10.8592351"><ele>480.0</ele><time>2026-04-05T11:05:45.815Z</time></trkpt><trkpt lat="43.3987901" lon="10.8593398"><ele>480.0</ele><time>2026-04-05T11:05:46.814Z</time></trkpt><trkpt lat="43.3986874" lon="10.8593226"><ele>475.4</ele><time>2026-04-05T11:05:48.815Z</time></trkpt><trkpt lat="43.3986562" lon="10.8592394"><ele>470.8</ele><time>2026-04-05T11:05:49.814Z</time></trkpt><trkpt lat="43.39864" lon="10.8591145"><ele>466.20000000000005</ele><time>2026-04-05T11:05:50.815Z</time></trkpt><trkpt lat="43.3986292" lon="10.8589577"><ele>461.6</ele><time>2026-04-05T11:05:51.815Z</time></trkpt><trkpt lat="43.3986136" lon="10.8587867"><ele>457.0</ele><time>2026-04-05T11:05:52.815Z</time></trkpt><trkpt lat="43.3985976" lon="10.8586076"><ele>456.75</ele><time>2026-04-05T11:05:53.815Z</time></trkpt><trkpt lat="43.3985739" lon="10.8584362"><ele>456.5</ele><time>2026-04-05T11:05:54.814Z</time></trkpt><trkpt lat="43.3985556" lon="10.8582772"><ele>456.25</ele><time>2026-04-05T11:05:55.814Z</time></trkpt><trkpt lat="43.3985509" lon="10.8581267"><ele>456.0</ele><time>2026-04-05T11:05:56.815Z</time></trkpt><trkpt lat="43.3985788" lon="10.8579764"><ele>456.0</ele><time>2026-04-05T11:05:57.814Z</time></trkpt><trkpt lat="43.398628" lon="10.8578149"><ele>456.0</ele><time>2026-04-05T11:05:58.815Z</time></trkpt><trkpt lat="43.3986771" lon="10.8576476"><ele>456.0</ele><time>2026-04-05T11:05:59.814Z</time></trkpt><trkpt lat="43.3987271" lon="10.8574698"><ele>456.0</ele><time>2026-04-05T11:06:00.814Z</time></trkpt><trkpt lat="43.3987694" lon="10.8572752"><ele>455.33333333333337</ele><time>2026-04-05T11:06:01.815Z</time></trkpt><trkpt lat="43.3987951" lon="10.8570662"><ele>454.6666666666667</ele><time>2026-04-05T11:06:02.814Z</time></trkpt><trkpt lat="43.3988078" lon="10.8568516"><ele>454.0</ele><time>2026-04-05T11:06:03.815Z</time></trkpt><trkpt lat="43.3988101" lon="10.8566353"><ele>453.5</ele><time>2026-04-05T11:06:04.816Z</time></trkpt><trkpt lat="43.3988197" lon="10.8564225"><ele>453.0</ele><time>2026-04-05T11:06:05.813Z</time></trkpt><trkpt lat="43.3988333" lon="10.8562292"><ele>452.5</ele><time>2026-04-05T11:06:06.815Z</time></trkpt><trkpt lat="43.3988423" lon="10.8560492"><ele>452.0</ele><time>2026-04-05T11:06:07.815Z</time></trkpt><trkpt lat="43.3988545" lon="10.8558918"><ele>452.0</ele><time>2026-04-05T11:06:08.814Z</time></trkpt><trkpt lat="43.398896" lon="10.8557543"><ele>452.00000000000006</ele><time>2026-04-05T11:06:09.814Z</time></trkpt><trkpt lat="43.3989636" lon="10.8556508"><ele>452.00000000000006</ele><time>2026-04-05T11:06:10.814Z</time></trkpt><trkpt lat="43.399047" lon="10.8555861"><ele>452.0</ele><time>2026-04-05T11:06:11.814Z</time></trkpt><trkpt lat="43.3991531" lon="10.8555482"><ele>452.0</ele><time>2026-04-05T11:06:12.814Z</time></trkpt><trkpt lat="43.3992733" lon="10.8555266"><ele>452.0</ele><time>2026-04-05T11:06:13.814Z</time></trkpt><trkpt lat="43.3994137" lon="10.8554979"><ele>452.0</ele><time>2026-04-05T11:06:14.815Z</time></trkpt><trkpt lat="43.399556" lon="10.8554509"><ele>452.0</ele><time>2026-04-05T11:06:15.814Z</time></trkpt><trkpt lat="43.3997004" lon="10.8553818"><ele>452.0</ele><time>2026-04-05T11:06:16.814Z</time></trkpt><trkpt lat="43.3998406" lon="10.8552831"><ele>452.66666666666663</ele><time>2026-04-05T11:06:17.814Z</time></trkpt><trkpt lat="43.3999834" lon="10.8551817"><ele>453.33333333333337</ele><time>2026-04-05T11:06:18.814Z</time></trkpt><trkpt lat="43.4001187" lon="10.8550819"><ele>454.0</ele><time>2026-04-05T11:06:19.815Z</time></trkpt><trkpt lat="43.4002528" lon="10.8549901"><ele>453.25</ele><time>2026-04-05T11:06:20.815Z</time></trkpt><trkpt lat="43.4003788" lon="10.8548966"><ele>452.5</ele><time>2026-04-05T11:06:21.814Z</time></trkpt><trkpt lat="43.400495" lon="10.8547864"><ele>451.75</ele><time>2026-04-05T11:06:22.814Z</time></trkpt><trkpt lat="43.400585" lon="10.8546543"><ele>451.0</ele><time>2026-04-05T11:06:23.815Z</time></trkpt><trkpt lat="43.4006491" lon="10.8545091"><ele>451.0</ele><time>2026-04-05T11:06:24.814Z</time></trkpt><trkpt lat="43.400694" lon="10.8543465"><ele>451.0</ele><time>2026-04-05T11:06:25.814Z</time></trkpt><trkpt lat="43.4007126" lon="10.8541648"><ele>451.0</ele><time>2026-04-05T11:06:26.814Z</time></trkpt><trkpt lat="43.4007373" lon="10.8539759"><ele>451.0</ele><time>2026-04-05T11:06:27.814Z</time></trkpt><trkpt lat="43.4007825" lon="10.8537839"><ele>447.0</ele><time>2026-04-05T11:06:28.815Z</time></trkpt><trkpt lat="43.4008549" lon="10.8535838"><ele>443.0</ele><time>2026-04-05T11:06:29.815Z</time></trkpt><trkpt lat="43.4009297" lon="10.8533798"><ele>439.0</ele><time>2026-04-05T11:06:30.814Z</time></trkpt><trkpt lat="43.4009856" lon="10.853173"><ele>437.0</ele><time>2026-04-05T11:06:31.814Z</time></trkpt><trkpt lat="43.4010198" lon="10.8529661"><ele>435.0</ele><time>2026-04-05T11:06:32.814Z</time></trkpt><trkpt lat="43.4010398" lon="10.8527642"><ele>433.0</ele><time>2026-04-05T11:06:33.814Z</time></trkpt><trkpt lat="43.4010673" lon="10.8525826"><ele>431.0</ele><time>2026-04-05T11:06:34.814Z</time></trkpt><trkpt lat="43.4011223" lon="10.8524252"><ele>432.25</ele><time>2026-04-05T11:06:35.814Z</time></trkpt><trkpt lat="43.4012058" lon="10.8522771"><ele>433.5</ele><time>2026-04-05T11:06:36.814Z</time></trkpt><trkpt lat="43.4013025" lon="10.8521382"><ele>434.75</ele><time>2026-04-05T11:06:37.815Z</time></trkpt><trkpt lat="43.4014056" lon="10.8520078"><ele>436.0</ele><time>2026-04-05T11:06:38.814Z</time></trkpt><trkpt lat="43.4015255" lon="10.8518924"><ele>436.0</ele><time>2026-04-05T11:06:39.814Z</time></trkpt><trkpt lat="43.4016553" lon="10.8518084"><ele>436.0</ele><time>2026-04-05T11:06:40.815Z</time></trkpt><trkpt lat="43.4017775" lon="10.8517247"><ele>436.0</ele><time>2026-04-05T11:06:41.814Z</time></trkpt><trkpt lat="43.4018869" lon="10.8516538"><ele>436.0</ele><time>2026-04-05T11:06:42.814Z</time></trkpt><trkpt lat="43.4019739" lon="10.8515785"><ele>434.0</ele><time>2026-04-05T11:06:43.815Z</time></trkpt><trkpt lat="43.4020357" lon="10.8514867"><ele>432.0</ele><time>2026-04-05T11:06:44.814Z</time></trkpt><trkpt lat="43.4020566" lon="10.8513846"><ele>430.0</ele><time>2026-04-05T11:06:45.814Z</time></trkpt><trkpt lat="43.4020263" lon="10.8513044"><ele>428.0</ele><time>2026-04-05T11:06:46.815Z</time></trkpt><trkpt lat="43.4018854" lon="10.8512734"><ele>426.0</ele><time>2026-04-05T11:06:48.815Z</time></trkpt><trkpt lat="43.4017779" lon="10.851305"><ele>426.0</ele><time>2026-04-05T11:06:49.816Z</time></trkpt><trkpt lat="43.4016579" lon="10.8513536"><ele>426.0</ele><time>2026-04-05T11:06:50.814Z</time></trkpt><trkpt lat="43.4015244" lon="10.8514083"><ele>426.0</ele><time>2026-04-05T11:06:51.814Z</time></trkpt><trkpt lat="43.4013817" lon="10.8514611"><ele>426.0</ele><time>2026-04-05T11:06:52.815Z</time></trkpt><trkpt lat="43.4012391" lon="10.8515099"><ele>421.66666666666663</ele><time>2026-04-05T11:06:53.814Z</time></trkpt><trkpt lat="43.4010915" lon="10.8515596"><ele>417.3333333333333</ele><time>2026-04-05T11:06:54.814Z</time></trkpt><trkpt lat="43.4009505" lon="10.8516295"><ele>413.0</ele><time>2026-04-05T11:06:55.814Z</time></trkpt><trkpt lat="43.4008116" lon="10.851729"><ele>412.3333333333333</ele><time>2026-04-05T11:06:56.814Z</time></trkpt><trkpt lat="43.4006781" lon="10.8518498"><ele>411.66666666666663</ele><time>2026-04-05T11:06:57.814Z</time></trkpt><trkpt lat="43.4005458" lon="10.8519716"><ele>411.0</ele><time>2026-04-05T11:06:58.814Z</time></trkpt><trkpt lat="43.4004123" lon="10.8520795"><ele>411.0</ele><time>2026-04-05T11:06:59.814Z</time></trkpt><trkpt lat="43.4002851" lon="10.8521926"><ele>411.0</ele><time>2026-04-05T11:07:00.814Z</time></trkpt><trkpt lat="43.4001621" lon="10.8523036"><ele>411.0</ele><time>2026-04-05T11:07:01.815Z</time></trkpt><trkpt lat="43.400041" lon="10.8524346"><ele>411.0</ele><time>2026-04-05T11:07:02.814Z</time></trkpt><trkpt lat="43.3999357" lon="10.8525818"><ele>411.0</ele><time>2026-04-05T11:07:03.814Z</time></trkpt><trkpt lat="43.3998399" lon="10.852734"><ele>411.0</ele><time>2026-04-05T11:07:04.814Z</time></trkpt><trkpt lat="43.3997609" lon="10.8528751"><ele>411.0</ele><time>2026-04-05T11:07:05.815Z</time></trkpt><trkpt lat="43.3996789" lon="10.8529901"><ele>410.8</ele><time>2026-04-05T11:07:06.815Z</time></trkpt><trkpt lat="43.3995903" lon="10.8530675"><ele>410.6</ele><time>2026-04-05T11:07:07.814Z</time></trkpt><trkpt lat="43.3994922" lon="10.8530948"><ele>410.4</ele><time>2026-04-05T11:07:08.814Z</time></trkpt><trkpt lat="43.3993892" lon="10.8530656"><ele>410.2</ele><time>2026-04-05T11:07:09.815Z</time></trkpt><trkpt lat="43.399286" lon="10.8529932"><ele>410.0</ele><time>2026-04-05T11:07:10.815Z</time></trkpt><trkpt lat="43.3991877" lon="10.8528898"><ele>410.0</ele><time>2026-04-05T11:07:11.815Z</time></trkpt><trkpt lat="43.3990971" lon="10.8527785"><ele>410.0</ele><time>2026-04-05T11:07:12.814Z</time></trkpt><trkpt lat="43.399001" lon="10.8526695"><ele>410.0</ele><time>2026-04-05T11:07:13.814Z</time></trkpt><trkpt lat="43.398913" lon="10.852561"><ele>410.0</ele><time>2026-04-05T11:07:14.815Z</time></trkpt><trkpt lat="43.3988305" lon="10.8524475"><ele>408.25</ele><time>2026-04-05T11:07:15.814Z</time></trkpt><trkpt lat="43.3987612" lon="10.8523201"><ele>406.5</ele><time>2026-04-05T11:07:16.814Z</time></trkpt><trkpt lat="43.3987073" lon="10.8521688"><ele>404.75</ele><time>2026-04-05T11:07:17.814Z</time></trkpt><trkpt lat="43.3986657" lon="10.8520047"><ele>403.0</ele><time>2026-04-05T11:07:18.814Z</time></trkpt><trkpt lat="43.3986243" lon="10.8518315"><ele>401.75</ele><time>2026-04-05T11:07:19.814Z</time></trkpt><trkpt lat="43.398586" lon="10.8516623"><ele>400.5</ele><time>2026-04-05T11:07:20.815Z</time></trkpt><trkpt lat="43.3985507" lon="10.8514989"><ele>399.25</ele><time>2026-04-05T11:07:21.815Z</time></trkpt><trkpt lat="43.3985008" lon="10.8513578"><ele>398.0</ele><time>2026-04-05T11:07:22.814Z</time></trkpt><trkpt lat="43.3984304" lon="10.8512436"><ele>398.0</ele><time>2026-04-05T11:07:23.814Z</time></trkpt><trkpt lat="43.398346" lon="10.8511606"><ele>398.0</ele><time>2026-04-05T11:07:24.815Z</time></trkpt><trkpt lat="43.398249" lon="10.8511284"><ele>398.0</ele><time>2026-04-05T11:07:25.815Z</time></trkpt><trkpt lat="43.3981582" lon="10.8511509"><ele>398.0</ele><time>2026-04-05T11:07:26.815Z</time></trkpt><trkpt lat="43.3980678" lon="10.8512035"><ele>398.0</ele><time>2026-04-05T11:07:27.814Z</time></trkpt><trkpt lat="43.3979629" lon="10.8512838"><ele>395.5</ele><time>2026-04-05T11:07:28.814Z</time></trkpt><trkpt lat="43.3978529" lon="10.8513618"><ele>393.0</ele><time>2026-04-05T11:07:29.814Z</time></trkpt><trkpt lat="43.397736" lon="10.8514511"><ele>390.5</ele><time>2026-04-05T11:07:30.814Z</time></trkpt><trkpt lat="43.3976218" lon="10.8515441"><ele>388.0</ele><time>2026-04-05T11:07:31.816Z</time></trkpt><trkpt lat="43.3975093" lon="10.8516688"><ele>390.33333333333337</ele><time>2026-04-05T11:07:32.815Z</time></trkpt><trkpt lat="43.3974077" lon="10.8518219"><ele>392.66666666666663</ele><time>2026-04-05T11:07:33.815Z</time></trkpt><trkpt lat="43.3973027" lon="10.8519814"><ele>395.0</ele><time>2026-04-05T11:07:34.813Z</time></trkpt><trkpt lat="43.3972018" lon="10.8521438"><ele>392.66666666666663</ele><time>2026-04-05T11:07:35.815Z</time></trkpt><trkpt lat="43.3971009" lon="10.8523067"><ele>390.33333333333337</ele><time>2026-04-05T11:07:36.814Z</time></trkpt><trkpt lat="43.3969919" lon="10.8524672"><ele>388.0</ele><time>2026-04-05T11:07:37.814Z</time></trkpt><trkpt lat="43.3968746" lon="10.8526256"><ele>388.0</ele><time>2026-04-05T11:07:38.814Z</time></trkpt><trkpt lat="43.3967457" lon="10.8527614"><ele>388.0</ele><time>2026-04-05T11:07:39.814Z</time></trkpt><trkpt lat="43.3966129" lon="10.8528801"><ele>388.0</ele><time>2026-04-05T11:07:40.814Z</time></trkpt><trkpt lat="43.3964721" lon="10.8529872"><ele>388.0</ele><time>2026-04-05T11:07:41.815Z</time></trkpt><trkpt lat="43.3963446" lon="10.8530938"><ele>388.0</ele><time>2026-04-05T11:07:42.814Z</time></trkpt><trkpt lat="43.3962248" lon="10.8531883"><ele>388.0</ele><time>2026-04-05T11:07:43.814Z</time></trkpt><trkpt lat="43.3961193" lon="10.8532827"><ele>388.0</ele><time>2026-04-05T11:07:44.814Z</time></trkpt><trkpt lat="43.3960194" lon="10.853367"><ele>385.33333333333337</ele><time>2026-04-05T11:07:45.814Z</time></trkpt><trkpt lat="43.3959308" lon="10.8534302"><ele>382.6666666666667</ele><time>2026-04-05T11:07:46.814Z</time></trkpt><trkpt lat="43.3958478" lon="10.8534596"><ele>380.0</ele><time>2026-04-05T11:07:47.814Z</time></trkpt><trkpt lat="43.3957708" lon="10.8534376"><ele>377.33333333333337</ele><time>2026-04-05T11:07:48.814Z</time></trkpt><trkpt lat="43.395733" lon="10.8533617"><ele>374.6666666666667</ele><time>2026-04-05T11:07:49.815Z</time></trkpt><trkpt lat="43.3957304" lon="10.8532532"><ele>372.0</ele><time>2026-04-05T11:07:50.815Z</time></trkpt><trkpt lat="43.3957648" lon="10.853134"><ele>372.0</ele><time>2026-04-05T11:07:51.815Z</time></trkpt><trkpt lat="43.3958386" lon="10.8530214"><ele>372.0</ele><time>2026-04-05T11:07:52.814Z</time></trkpt><trkpt lat="43.3959367" lon="10.8529149"><ele>372.0</ele><time>2026-04-05T11:07:53.813Z</time></trkpt><trkpt lat="43.3960443" lon="10.8528165"><ele>372.0</ele><time>2026-04-05T11:07:54.814Z</time></trkpt><trkpt lat="43.3961482" lon="10.8526909"><ele>369.3333333333333</ele><time>2026-04-05T11:07:55.814Z</time></trkpt><trkpt lat="43.3962335" lon="10.8525322"><ele>366.66666666666663</ele><time>2026-04-05T11:07:56.814Z</time></trkpt><trkpt lat="43.3962892" lon="10.8523421"><ele>364.0</ele><time>2026-04-05T11:07:57.814Z</time></trkpt><trkpt lat="43.39633" lon="10.8521316"><ele>367.3333333333333</ele><time>2026-04-05T11:07:58.814Z</time></trkpt><trkpt lat="43.3963544" lon="10.8519101"><ele>370.6666666666667</ele><time>2026-04-05T11:07:59.814Z</time></trkpt><trkpt lat="43.3963784" lon="10.8516879"><ele>374.0</ele><time>2026-04-05T11:08:00.815Z</time></trkpt><trkpt lat="43.3964026" lon="10.8514632"><ele>374.0</ele><time>2026-04-05T11:08:01.814Z</time></trkpt><trkpt lat="43.3964355" lon="10.8512417"><ele>374.0</ele><time>2026-04-05T11:08:02.814Z</time></trkpt><trkpt lat="43.3964783" lon="10.8510205"><ele>374.0</ele><time>2026-04-05T11:08:03.814Z</time></trkpt><trkpt lat="43.3965218" lon="10.8508049"><ele>372.0</ele><time>2026-04-05T11:08:04.815Z</time></trkpt><trkpt lat="43.396567" lon="10.8505905"><ele>370.0</ele><time>2026-04-05T11:08:05.814Z</time></trkpt><trkpt lat="43.3966079" lon="10.8503849"><ele>368.0</ele><time>2026-04-05T11:08:06.814Z</time></trkpt><trkpt lat="43.3966501" lon="10.8501796"><ele>365.33333333333337</ele><time>2026-04-05T11:08:07.814Z</time></trkpt><trkpt lat="43.3967075" lon="10.8499743"><ele>362.6666666666667</ele><time>2026-04-05T11:08:08.815Z</time></trkpt><trkpt lat="43.3967741" lon="10.849772"><ele>360.0</ele><time>2026-04-05T11:08:09.815Z</time></trkpt><trkpt lat="43.396852" lon="10.8495782"><ele>360.0</ele><time>2026-04-05T11:08:10.814Z</time></trkpt><trkpt lat="43.3969331" lon="10.8493887"><ele>360.0</ele><time>2026-04-05T11:08:11.815Z</time></trkpt><trkpt lat="43.3970089" lon="10.8492145"><ele>360.0</ele><time>2026-04-05T11:08:12.815Z</time></trkpt><trkpt lat="43.3970845" lon="10.8490433"><ele>360.0</ele><time>2026-04-05T11:08:13.816Z</time></trkpt><trkpt lat="43.3971569" lon="10.8488813"><ele>360.0</ele><time>2026-04-05T11:08:14.815Z</time></trkpt><trkpt lat="43.3972153" lon="10.8487289"><ele>360.0</ele><time>2026-04-05T11:08:15.814Z</time></trkpt><trkpt lat="43.3972546" lon="10.8485855"><ele>360.0</ele><time>2026-04-05T11:08:16.815Z</time></trkpt><trkpt lat="43.3972629" lon="10.8484483"><ele>360.0</ele><time>2026-04-05T11:08:17.815Z</time></trkpt><trkpt lat="43.3972315" lon="10.8483318"><ele>360.0</ele><time>2026-04-05T11:08:18.814Z</time></trkpt><trkpt lat="43.397169" lon="10.8482622"><ele>360.0</ele><time>2026-04-05T11:08:19.814Z</time></trkpt><trkpt lat="43.397089" lon="10.8482517"><ele>360.0</ele><time>2026-04-05T11:08:20.814Z</time></trkpt><trkpt lat="43.3969962" lon="10.8483006"><ele>360.0</ele><time>2026-04-05T11:08:21.815Z</time></trkpt><trkpt lat="43.396893" lon="10.8483969"><ele>357.5</ele><time>2026-04-05T11:08:22.814Z</time></trkpt><trkpt lat="43.396786" lon="10.848517"><ele>355.0</ele><time>2026-04-05T11:08:23.815Z</time></trkpt><trkpt lat="43.3966797" lon="10.8486512"><ele>352.5</ele><time>2026-04-05T11:08:24.814Z</time></trkpt><trkpt lat="43.3965808" lon="10.8487888"><ele>350.0</ele><time>2026-04-05T11:08:25.814Z</time></trkpt><trkpt lat="43.3964805" lon="10.8489136"><ele>350.0</ele><time>2026-04-05T11:08:26.815Z</time></trkpt><trkpt lat="43.3963596" lon="10.849017"><ele>350.0</ele><time>2026-04-05T11:08:27.814Z</time></trkpt><trkpt lat="43.3962192" lon="10.849098"><ele>350.0</ele><time>2026-04-05T11:08:28.814Z</time></trkpt><trkpt lat="43.3960715" lon="10.8491681"><ele>349.0</ele><time>2026-04-05T11:08:29.815Z</time></trkpt><trkpt lat="43.395916" lon="10.8492374"><ele>348.0</ele><time>2026-04-05T11:08:30.815Z</time></trkpt><trkpt lat="43.3957629" lon="10.8493219"><ele>347.0</ele><time>2026-04-05T11:08:31.814Z</time></trkpt><trkpt lat="43.3956096" lon="10.8494356"><ele>342.6666666666667</ele><time>2026-04-05T11:08:32.814Z</time></trkpt><trkpt lat="43.3954664" lon="10.8495647"><ele>338.3333333333333</ele><time>2026-04-05T11:08:33.815Z</time></trkpt><trkpt lat="43.3953302" lon="10.8496918"><ele>334.0</ele><time>2026-04-05T11:08:34.815Z</time></trkpt><trkpt lat="43.3952113" lon="10.8498232"><ele>334.0</ele><time>2026-04-05T11:08:35.815Z</time></trkpt><trkpt lat="43.3951174" lon="10.849962"><ele>334.0</ele><time>2026-04-05T11:08:36.814Z</time></trkpt><trkpt lat="43.3950538" lon="10.8501136"><ele>334.0</ele><time>2026-04-05T11:08:37.814Z</time></trkpt><trkpt lat="43.3950153" lon="10.850256"><ele>334.0</ele><time>2026-04-05T11:08:38.815Z</time></trkpt><trkpt lat="43.3949688" lon="10.8503699"><ele>334.0</ele><time>2026-04-05T11:08:39.814Z</time></trkpt><trkpt lat="43.3949097" lon="10.8504455"><ele>334.0</ele><time>2026-04-05T11:08:40.814Z</time></trkpt><trkpt lat="43.3948424" lon="10.8504666"><ele>334.0</ele><time>2026-04-05T11:08:41.814Z</time></trkpt><trkpt lat="43.3947816" lon="10.8503344"><ele>334.0</ele><time>2026-04-05T11:08:43.814Z</time></trkpt><trkpt lat="43.3948002" lon="10.8502205"><ele>334.0</ele><time>2026-04-05T11:08:44.815Z</time></trkpt><trkpt lat="43.3948408" lon="10.8500867"><ele>334.0</ele><time>2026-04-05T11:08:45.814Z</time></trkpt><trkpt lat="43.3948905" lon="10.8499336"><ele>334.0</ele><time>2026-04-05T11:08:46.814Z</time></trkpt><trkpt lat="43.3949436" lon="10.8497671"><ele>334.0</ele><time>2026-04-05T11:08:47.815Z</time></trkpt><trkpt lat="43.395003" lon="10.8495922"><ele>334.0</ele><time>2026-04-05T11:08:48.815Z</time></trkpt><trkpt lat="43.3950592" lon="10.8494074"><ele>331.75</ele><time>2026-04-05T11:08:49.814Z</time></trkpt><trkpt lat="43.3951135" lon="10.8492208"><ele>329.5</ele><time>2026-04-05T11:08:50.814Z</time></trkpt><trkpt lat="43.3951593" lon="10.8490399"><ele>327.25</ele><time>2026-04-05T11:08:51.815Z</time></trkpt><trkpt lat="43.3952021" lon="10.8488578"><ele>325.0</ele><time>2026-04-05T11:08:52.815Z</time></trkpt><trkpt lat="43.3952478" lon="10.8486883"><ele>325.0</ele><time>2026-04-05T11:08:53.815Z</time></trkpt><trkpt lat="43.3952887" lon="10.8485364"><ele>325.0</ele><time>2026-04-05T11:08:54.814Z</time></trkpt><trkpt lat="43.3953223" lon="10.8483956"><ele>325.0</ele><time>2026-04-05T11:08:55.815Z</time></trkpt><trkpt lat="43.3953297" lon="10.8482599"><ele>325.0</ele><time>2026-04-05T11:08:56.814Z</time></trkpt><trkpt lat="43.3953091" lon="10.8481353"><ele>325.0</ele><time>2026-04-05T11:08:57.814Z</time></trkpt><trkpt lat="43.3952565" lon="10.8480415"><ele>323.8</ele><time>2026-04-05T11:08:58.814Z</time></trkpt><trkpt lat="43.3951828" lon="10.8480004"><ele>322.6</ele><time>2026-04-05T11:08:59.816Z</time></trkpt><trkpt lat="43.3950924" lon="10.8480142"><ele>321.4</ele><time>2026-04-05T11:09:00.814Z</time></trkpt><trkpt lat="43.395002" lon="10.8480656"><ele>320.2</ele><time>2026-04-05T11:09:01.815Z</time></trkpt><trkpt lat="43.3949113" lon="10.8481545"><ele>319.0</ele><time>2026-04-05T11:09:02.815Z</time></trkpt><trkpt lat="43.3948359" lon="10.8482754"><ele>319.0</ele><time>2026-04-05T11:09:03.814Z</time></trkpt><trkpt lat="43.3947738" lon="10.8484219"><ele>319.0</ele><time>2026-04-05T11:09:04.814Z</time></trkpt><trkpt lat="43.394724" lon="10.8485817"><ele>319.0</ele><time>2026-04-05T11:09:05.814Z</time></trkpt><trkpt lat="43.3946781" lon="10.8487426"><ele>319.0</ele><time>2026-04-05T11:09:06.814Z</time></trkpt><trkpt lat="43.3946112" lon="10.8488875"><ele>317.75</ele><time>2026-04-05T11:09:07.814Z</time></trkpt><trkpt lat="43.3945256" lon="10.84901"><ele>316.5</ele><time>2026-04-05T11:09:08.814Z</time></trkpt><trkpt lat="43.394413" lon="10.8490859"><ele>315.25</ele><time>2026-04-05T11:09:09.815Z</time></trkpt><trkpt lat="43.3942866" lon="10.8491079"><ele>314.0</ele><time>2026-04-05T11:09:10.814Z</time></trkpt><trkpt lat="43.3941501" lon="10.8490862"><ele>314.0</ele><time>2026-04-05T11:09:11.814Z</time></trkpt><trkpt lat="43.3940124" lon="10.8490478"><ele>314.0</ele><time>2026-04-05T11:09:12.815Z</time></trkpt><trkpt lat="43.393865" lon="10.849014"><ele>314.0</ele><time>2026-04-05T11:09:13.815Z</time></trkpt><trkpt lat="43.393707" lon="10.8490127"><ele>314.0</ele><time>2026-04-05T11:09:14.815Z</time></trkpt><trkpt lat="43.3935422" lon="10.849028"><ele>312.6666666666667</ele><time>2026-04-05T11:09:15.815Z</time></trkpt><trkpt lat="43.393376" lon="10.8490498"><ele>311.3333333333333</ele><time>2026-04-05T11:09:16.814Z</time></trkpt><trkpt lat="43.3932105" lon="10.8490647"><ele>310.0</ele><time>2026-04-05T11:09:17.815Z</time></trkpt><trkpt lat="43.3930449" lon="10.8490667"><ele>306.3333333333333</ele><time>2026-04-05T11:09:18.814Z</time></trkpt><trkpt lat="43.3928743" lon="10.8490371"><ele>302.6666666666667</ele><time>2026-04-05T11:09:19.815Z</time></trkpt><trkpt lat="43.3927027" lon="10.848977"><ele>299.0</ele><time>2026-04-05T11:09:20.814Z</time></trkpt><trkpt lat="43.3925327" lon="10.8488906"><ele>299.0</ele><time>2026-04-05T11:09:21.814Z</time></trkpt><trkpt lat="43.3923644" lon="10.8487713"><ele>299.0</ele><time>2026-04-05T11:09:22.815Z</time></trkpt><trkpt lat="43.3922028" lon="10.8486376"><ele>299.0</ele><time>2026-04-05T11:09:23.815Z</time></trkpt><trkpt lat="43.3920494" lon="10.8484884"><ele>296.33333333333337</ele><time>2026-04-05T11:09:24.814Z</time></trkpt><trkpt lat="43.3919052" lon="10.8483349"><ele>293.6666666666667</ele><time>2026-04-05T11:09:25.814Z</time></trkpt><trkpt lat="43.3917612" lon="10.8481842"><ele>291.0</ele><time>2026-04-05T11:09:26.814Z</time></trkpt><trkpt lat="43.3916217" lon="10.8480358"><ele>291.0</ele><time>2026-04-05T11:09:27.814Z</time></trkpt><trkpt lat="43.3914938" lon="10.8478753"><ele>291.0</ele><time>2026-04-05T11:09:28.815Z</time></trkpt><trkpt lat="43.3913834" lon="10.8476927"><ele>291.0</ele><time>2026-04-05T11:09:29.815Z</time></trkpt><trkpt lat="43.3912836" lon="10.8474881"><ele>291.6666666666667</ele><time>2026-04-05T11:09:30.815Z</time></trkpt><trkpt lat="43.39119" lon="10.847271"><ele>292.33333333333337</ele><time>2026-04-05T11:09:31.814Z</time></trkpt><trkpt lat="43.3910959" lon="10.8470653"><ele>293.0</ele><time>2026-04-05T11:09:32.813Z</time></trkpt><trkpt lat="43.3910058" lon="10.8468649"><ele>292.33333333333337</ele><time>2026-04-05T11:09:33.814Z</time></trkpt><trkpt lat="43.3909236" lon="10.8466715"><ele>291.6666666666667</ele><time>2026-04-05T11:09:34.815Z</time></trkpt><trkpt lat="43.3908419" lon="10.8464842"><ele>291.0</ele><time>2026-04-05T11:09:35.814Z</time></trkpt><trkpt lat="43.3907555" lon="10.8463072"><ele>291.0</ele><time>2026-04-05T11:09:36.814Z</time></trkpt><trkpt lat="43.3906619" lon="10.8461548"><ele>291.0</ele><time>2026-04-05T11:09:37.814Z</time></trkpt><trkpt lat="43.390551" lon="10.8460428"><ele>291.0</ele><time>2026-04-05T11:09:38.815Z</time></trkpt><trkpt lat="43.3904308" lon="10.8459732"><ele>291.0</ele><time>2026-04-05T11:09:39.815Z</time></trkpt><trkpt lat="43.3903016" lon="10.8459479"><ele>290.75</ele><time>2026-04-05T11:09:40.813Z</time></trkpt><trkpt lat="43.3901675" lon="10.8459702"><ele>290.5</ele><time>2026-04-05T11:09:41.814Z</time></trkpt><trkpt lat="43.3900302" lon="10.8460433"><ele>290.25</ele><time>2026-04-05T11:09:42.814Z</time></trkpt><trkpt lat="43.3898938" lon="10.8461336"><ele>290.0</ele><time>2026-04-05T11:09:43.814Z</time></trkpt><trkpt lat="43.3897643" lon="10.8462204"><ele>286.75</ele><time>2026-04-05T11:09:44.814Z</time></trkpt><trkpt lat="43.3896347" lon="10.8462829"><ele>283.5</ele><time>2026-04-05T11:09:45.814Z</time></trkpt><trkpt lat="43.3895048" lon="10.8463036"><ele>280.25</ele><time>2026-04-05T11:09:46.814Z</time></trkpt><trkpt lat="43.3893727" lon="10.8462731"><ele>277.0</ele><time>2026-04-05T11:09:47.814Z</time></trkpt><trkpt lat="43.3892454" lon="10.846214"><ele>277.0</ele><time>2026-04-05T11:09:48.814Z</time></trkpt><trkpt lat="43.3891184" lon="10.846151"><ele>277.0</ele><time>2026-04-05T11:09:49.815Z</time></trkpt><trkpt lat="43.388998" lon="10.8460786"><ele>277.0</ele><time>2026-04-05T11:09:50.814Z</time></trkpt><trkpt lat="43.3888883" lon="10.8459884"><ele>277.0</ele><time>2026-04-05T11:09:51.815Z</time></trkpt><trkpt lat="43.3888049" lon="10.8458694"><ele>273.75</ele><time>2026-04-05T11:09:52.815Z</time></trkpt><trkpt lat="43.3887458" lon="10.8457194"><ele>270.5</ele><time>2026-04-05T11:09:53.815Z</time></trkpt><trkpt lat="43.3887116" lon="10.8455441"><ele>267.25</ele><time>2026-04-05T11:09:54.815Z</time></trkpt><trkpt lat="43.388705" lon="10.8453552"><ele>264.0</ele><time>2026-04-05T11:09:55.814Z</time></trkpt><trkpt lat="43.3887192" lon="10.8451617"><ele>263.75</ele><time>2026-04-05T11:09:56.814Z</time></trkpt><trkpt lat="43.3887508" lon="10.8449723"><ele>263.5</ele><time>2026-04-05T11:09:57.815Z</time></trkpt><trkpt lat="43.3887887" lon="10.8447996"><ele>263.25</ele><time>2026-04-05T11:09:58.815Z</time></trkpt><trkpt lat="43.3888545" lon="10.8446474"><ele>263.0</ele><time>2026-04-05T11:09:59.815Z</time></trkpt><trkpt lat="43.3889485" lon="10.8445222"><ele>263.5</ele><time>2026-04-05T11:10:00.814Z</time></trkpt><trkpt lat="43.3890674" lon="10.8444314"><ele>264.0</ele><time>2026-04-05T11:10:01.814Z</time></trkpt><trkpt lat="43.3892027" lon="10.844373"><ele>264.5</ele><time>2026-04-05T11:10:02.814Z</time></trkpt><trkpt lat="43.3893446" lon="10.8443265"><ele>265.0</ele><time>2026-04-05T11:10:03.815Z</time></trkpt><trkpt lat="43.3894852" lon="10.8442833"><ele>265.0</ele><time>2026-04-05T11:10:04.815Z</time></trkpt><trkpt lat="43.3896179" lon="10.8442437"><ele>265.0</ele><time>2026-04-05T11:10:05.814Z</time></trkpt><trkpt lat="43.3897505" lon="10.8442079"><ele>265.0</ele><time>2026-04-05T11:10:06.814Z</time></trkpt><trkpt lat="43.3898765" lon="10.8441795"><ele>265.0</ele><time>2026-04-05T11:10:07.815Z</time></trkpt><trkpt lat="43.3900104" lon="10.8441771"><ele>265.0</ele><time>2026-04-05T11:10:08.815Z</time></trkpt><trkpt lat="43.3901429" lon="10.8442045"><ele>265.0</ele><time>2026-04-05T11:10:09.813Z</time></trkpt><trkpt lat="43.390275" lon="10.8442407"><ele>265.0</ele><time>2026-04-05T11:10:10.814Z</time></trkpt><trkpt lat="43.3904078" lon="10.8442774"><ele>265.0</ele><time>2026-04-05T11:10:11.815Z</time></trkpt><trkpt lat="43.390535" lon="10.8443113"><ele>265.8</ele><time>2026-04-05T11:10:12.814Z</time></trkpt><trkpt lat="43.3906569" lon="10.8443359"><ele>266.6</ele><time>2026-04-05T11:10:13.815Z</time></trkpt><trkpt lat="43.3907686" lon="10.8443544"><ele>267.4</ele><time>2026-04-05T11:10:14.814Z</time></trkpt><trkpt lat="43.3908559" lon="10.844322"><ele>268.2</ele><time>2026-04-05T11:10:15.815Z</time></trkpt><trkpt lat="43.3909238" lon="10.8442553"><ele>269.0</ele><time>2026-04-05T11:10:16.814Z</time></trkpt><trkpt lat="43.3909743" lon="10.8441636"><ele>267.2</ele><time>2026-04-05T11:10:17.815Z</time></trkpt><trkpt lat="43.3909992" lon="10.8440496"><ele>265.4</ele><time>2026-04-05T11:10:18.814Z</time></trkpt><trkpt lat="43.3909906" lon="10.8439288"><ele>263.6</ele><time>2026-04-05T11:10:19.815Z</time></trkpt><trkpt lat="43.3909452" lon="10.8438187"><ele>261.8</ele><time>2026-04-05T11:10:20.815Z</time></trkpt><trkpt lat="43.3908717" lon="10.8437244"><ele>260.0</ele><time>2026-04-05T11:10:21.815Z</time></trkpt><trkpt lat="43.3907839" lon="10.8436419"><ele>260.0</ele><time>2026-04-05T11:10:22.814Z</time></trkpt><trkpt lat="43.3906833" lon="10.8435534"><ele>260.0</ele><time>2026-04-05T11:10:23.815Z</time></trkpt><trkpt lat="43.3905803" lon="10.8434674"><ele>260.0</ele><time>2026-04-05T11:10:24.814Z</time></trkpt><trkpt lat="43.3904796" lon="10.8433856"><ele>260.0</ele><time>2026-04-05T11:10:25.814Z</time></trkpt><trkpt lat="43.3903989" lon="10.8432788"><ele>258.75</ele><time>2026-04-05T11:10:26.815Z</time></trkpt><trkpt lat="43.3903465" lon="10.8431527"><ele>257.5</ele><time>2026-04-05T11:10:27.815Z</time></trkpt><trkpt lat="43.3903285" lon="10.8429973"><ele>256.25</ele><time>2026-04-05T11:10:28.814Z</time></trkpt><trkpt lat="43.3903422" lon="10.8428354"><ele>255.0</ele><time>2026-04-05T11:10:29.814Z</time></trkpt><trkpt lat="43.3903892" lon="10.842686"><ele>252.2</ele><time>2026-04-05T11:10:30.815Z</time></trkpt><trkpt lat="43.3904635" lon="10.8425775"><ele>249.4</ele><time>2026-04-05T11:10:31.814Z</time></trkpt><trkpt lat="43.3905541" lon="10.8425168"><ele>246.60000000000002</ele><time>2026-04-05T11:10:32.815Z</time></trkpt><trkpt lat="43.3906574" lon="10.8425103"><ele>243.8</ele><time>2026-04-05T11:10:33.815Z</time></trkpt><trkpt lat="43.3907648" lon="10.8425566"><ele>241.0</ele><time>2026-04-05T11:10:34.814Z</time></trkpt><trkpt lat="43.3908675" lon="10.8426245"><ele>243.60000000000002</ele><time>2026-04-05T11:10:35.815Z</time></trkpt><trkpt lat="43.390966" lon="10.8426999"><ele>246.20000000000002</ele><time>2026-04-05T11:10:36.814Z</time></trkpt><trkpt lat="43.3910586" lon="10.8427649"><ele>248.79999999999998</ele><time>2026-04-05T11:10:37.814Z</time></trkpt><trkpt lat="43.3911501" lon="10.8427936"><ele>251.39999999999998</ele><time>2026-04-05T11:10:38.815Z</time></trkpt><trkpt lat="43.3912346" lon="10.8427748"><ele>254.0</ele><time>2026-04-05T11:10:39.814Z</time></trkpt><trkpt lat="43.3913099" lon="10.842718"><ele>251.39999999999998</ele><time>2026-04-05T11:10:40.814Z</time></trkpt><trkpt lat="43.3913272" lon="10.8426005"><ele>248.79999999999998</ele><time>2026-04-05T11:10:41.814Z</time></trkpt><trkpt lat="43.3913172" lon="10.8424693"><ele>246.20000000000002</ele><time>2026-04-05T11:10:42.814Z</time></trkpt><trkpt lat="43.3912644" lon="10.842348"><ele>243.60000000000002</ele><time>2026-04-05T11:10:43.815Z</time></trkpt><trkpt lat="43.3911826" lon="10.842232"><ele>241.0</ele><time>2026-04-05T11:10:44.814Z</time></trkpt><trkpt lat="43.3910934" lon="10.8421153"><ele>241.0</ele><time>2026-04-05T11:10:45.815Z</time></trkpt><trkpt lat="43.3909946" lon="10.841997"><ele>241.0</ele><time>2026-04-05T11:10:46.815Z</time></trkpt><trkpt lat="43.3908875" lon="10.841893"><ele>241.0</ele><time>2026-04-05T11:10:47.815Z</time></trkpt><trkpt lat="43.3907709" lon="10.8418004"><ele>241.0</ele><time>2026-04-05T11:10:48.814Z</time></trkpt><trkpt lat="43.39064" lon="10.8417337"><ele>236.66666666666666</ele><time>2026-04-05T11:10:49.815Z</time></trkpt><trkpt lat="43.3904953" lon="10.8417108"><ele>232.33333333333331</ele><time>2026-04-05T11:10:50.814Z</time></trkpt><trkpt lat="43.3903431" lon="10.8417105"><ele>228.0</ele><time>2026-04-05T11:10:51.815Z</time></trkpt><trkpt lat="43.3901872" lon="10.8417169"><ele>228.0</ele><time>2026-04-05T11:10:52.815Z</time></trkpt><trkpt lat="43.3900267" lon="10.8417257"><ele>228.0</ele><time>2026-04-05T11:10:53.814Z</time></trkpt><trkpt lat="43.3898693" lon="10.841726"><ele>228.0</ele><time>2026-04-05T11:10:54.815Z</time></trkpt><trkpt lat="43.3897176" lon="10.8417291"><ele>227.5</ele><time>2026-04-05T11:10:55.814Z</time></trkpt><trkpt lat="43.389571" lon="10.84174"><ele>227.0</ele><time>2026-04-05T11:10:56.814Z</time></trkpt><trkpt lat="43.3894246" lon="10.8417522"><ele>226.5</ele><time>2026-04-05T11:10:57.814Z</time></trkpt><trkpt lat="43.3892861" lon="10.8417395"><ele>226.0</ele><time>2026-04-05T11:10:58.814Z</time></trkpt><trkpt lat="43.3891626" lon="10.8416836"><ele>226.0</ele><time>2026-04-05T11:10:59.815Z</time></trkpt><trkpt lat="43.3890566" lon="10.8415861"><ele>226.0</ele><time>2026-04-05T11:11:00.816Z</time></trkpt><trkpt lat="43.3889708" lon="10.8414449"><ele>226.0</ele><time>2026-04-05T11:11:01.815Z</time></trkpt><trkpt lat="43.3889039" lon="10.8412739"><ele>226.0</ele><time>2026-04-05T11:11:02.814Z</time></trkpt><trkpt lat="43.3888191" lon="10.8411049"><ele>224.33333333333331</ele><time>2026-04-05T11:11:03.814Z</time></trkpt><trkpt lat="43.3887143" lon="10.8409425"><ele>222.66666666666669</ele><time>2026-04-05T11:11:04.814Z</time></trkpt><trkpt lat="43.3886015" lon="10.8407772"><ele>221.0</ele><time>2026-04-05T11:11:05.815Z</time></trkpt><trkpt lat="43.3884866" lon="10.8406051"><ele>221.0</ele><time>2026-04-05T11:11:06.814Z</time></trkpt><trkpt lat="43.3883636" lon="10.8404302"><ele>221.0</ele><time>2026-04-05T11:11:07.815Z</time></trkpt><trkpt lat="43.3882317" lon="10.840254"><ele>221.0</ele><time>2026-04-05T11:11:08.815Z</time></trkpt><trkpt lat="43.3880964" lon="10.8400978"><ele>220.0</ele><time>2026-04-05T11:11:09.816Z</time></trkpt><trkpt lat="43.3879606" lon="10.8399476"><ele>219.0</ele><time>2026-04-05T11:11:10.814Z</time></trkpt><trkpt lat="43.3878303" lon="10.8397996"><ele>218.0</ele><time>2026-04-05T11:11:11.814Z</time></trkpt><trkpt lat="43.3877046" lon="10.8396576"><ele>218.0</ele><time>2026-04-05T11:11:12.814Z</time></trkpt><trkpt lat="43.3875835" lon="10.839516"><ele>218.0</ele><time>2026-04-05T11:11:13.815Z</time></trkpt><trkpt lat="43.3874579" lon="10.8393879"><ele>218.0</ele><time>2026-04-05T11:11:14.815Z</time></trkpt><trkpt lat="43.3873451" lon="10.839254"><ele>216.5</ele><time>2026-04-05T11:11:15.814Z</time></trkpt><trkpt lat="43.3872503" lon="10.8390969"><ele>215.0</ele><time>2026-04-05T11:11:16.815Z</time></trkpt><trkpt lat="43.3871785" lon="10.8389268"><ele>213.5</ele><time>2026-04-05T11:11:17.816Z</time></trkpt><trkpt lat="43.3871168" lon="10.8387468"><ele>212.0</ele><time>2026-04-05T11:11:18.815Z</time></trkpt><trkpt lat="43.3870377" lon="10.8385879"><ele>209.5</ele><time>2026-04-05T11:11:19.815Z</time></trkpt><trkpt lat="43.3869539" lon="10.8384519"><ele>207.0</ele><time>2026-04-05T11:11:20.815Z</time></trkpt><trkpt lat="43.3868189" lon="10.8383518"><ele>204.5</ele><time>2026-04-05T11:11:21.815Z</time></trkpt><trkpt lat="43.3866866" lon="10.8382564"><ele>202.0</ele><time>2026-04-05T11:11:22.814Z</time></trkpt><trkpt lat="43.3865498" lon="10.8381623"><ele>202.0</ele><time>2026-04-05T11:11:23.815Z</time></trkpt><trkpt lat="43.3864063" lon="10.8380656"><ele>202.0</ele><time>2026-04-05T11:11:24.815Z</time></trkpt><trkpt lat="43.3862631" lon="10.8379794"><ele>202.0</ele><time>2026-04-05T11:11:25.815Z</time></trkpt><trkpt lat="43.3861128" lon="10.8378968"><ele>200.66666666666666</ele><time>2026-04-05T11:11:26.815Z</time></trkpt><trkpt lat="43.3859569" lon="10.8378058"><ele>199.33333333333331</ele><time>2026-04-05T11:11:27.815Z</time></trkpt><trkpt lat="43.3857969" lon="10.8377289"><ele>198.0</ele><time>2026-04-05T11:11:28.814Z</time></trkpt><trkpt lat="43.3856288" lon="10.8376821"><ele>195.33333333333334</ele><time>2026-04-05T11:11:29.814Z</time></trkpt><trkpt lat="43.3854636" lon="10.8376582"><ele>192.66666666666669</ele><time>2026-04-05T11:11:30.814Z</time></trkpt><trkpt lat="43.3852965" lon="10.8376393"><ele>190.0</ele><time>2026-04-05T11:11:31.814Z</time></trkpt><trkpt lat="43.3851373" lon="10.8376289"><ele>189.33333333333334</ele><time>2026-04-05T11:11:32.813Z</time></trkpt><trkpt lat="43.384983" lon="10.8376173"><ele>188.66666666666666</ele><time>2026-04-05T11:11:33.814Z</time></trkpt><trkpt lat="43.3848316" lon="10.8375799"><ele>188.0</ele><time>2026-04-05T11:11:34.815Z</time></trkpt><trkpt lat="43.3846791" lon="10.8375045"><ele>185.33333333333331</ele><time>2026-04-05T11:11:35.814Z</time></trkpt><trkpt lat="43.3845363" lon="10.837387"><ele>182.66666666666666</ele><time>2026-04-05T11:11:36.815Z</time></trkpt><trkpt lat="43.384399" lon="10.8372355"><ele>180.0</ele><time>2026-04-05T11:11:37.814Z</time></trkpt><trkpt lat="43.3842616" lon="10.8370711"><ele>180.0</ele><time>2026-04-05T11:11:38.813Z</time></trkpt><trkpt lat="43.3841243" lon="10.8369188"><ele>180.0</ele><time>2026-04-05T11:11:39.813Z</time></trkpt><trkpt lat="43.3839848" lon="10.8367657"><ele>180.0</ele><time>2026-04-05T11:11:40.814Z</time></trkpt><trkpt lat="43.3838492" lon="10.8366093"><ele>179.33333333333334</ele><time>2026-04-05T11:11:41.814Z</time></trkpt><trkpt lat="43.3837129" lon="10.8364571"><ele>178.66666666666669</ele><time>2026-04-05T11:11:42.814Z</time></trkpt><trkpt lat="43.3835778" lon="10.8362951"><ele>178.0</ele><time>2026-04-05T11:11:43.814Z</time></trkpt><trkpt lat="43.3834408" lon="10.8361384"><ele>178.0</ele><time>2026-04-05T11:11:44.814Z</time></trkpt><trkpt lat="43.3833049" lon="10.8359802"><ele>178.0</ele><time>2026-04-05T11:11:45.814Z</time></trkpt><trkpt lat="43.3831742" lon="10.83581"><ele>178.0</ele><time>2026-04-05T11:11:46.814Z</time></trkpt><trkpt lat="43.3830421" lon="10.8356329"><ele>177.66666666666669</ele><time>2026-04-05T11:11:47.815Z</time></trkpt><trkpt lat="43.3829078" lon="10.8354442"><ele>177.33333333333334</ele><time>2026-04-05T11:11:48.815Z</time></trkpt><trkpt lat="43.3827708" lon="10.8352543"><ele>177.0</ele><time>2026-04-05T11:11:49.816Z</time></trkpt><trkpt lat="43.3826277" lon="10.8350568"><ele>177.0</ele><time>2026-04-05T11:11:50.815Z</time></trkpt><trkpt lat="43.3824829" lon="10.8348601"><ele>177.0</ele><time>2026-04-05T11:11:51.815Z</time></trkpt><trkpt lat="43.3823378" lon="10.8346548"><ele>177.0</ele><time>2026-04-05T11:11:52.815Z</time></trkpt><trkpt lat="43.3822023" lon="10.8344532"><ele>176.33333333333334</ele><time>2026-04-05T11:11:53.814Z</time></trkpt><trkpt lat="43.3820804" lon="10.8342538"><ele>175.66666666666669</ele><time>2026-04-05T11:11:54.814Z</time></trkpt><trkpt lat="43.3819622" lon="10.8340522"><ele>175.0</ele><time>2026-04-05T11:11:55.815Z</time></trkpt><trkpt lat="43.3818452" lon="10.8338572"><ele>175.0</ele><time>2026-04-05T11:11:56.814Z</time></trkpt><trkpt lat="43.3817335" lon="10.8336552"><ele>175.0</ele><time>2026-04-05T11:11:57.815Z</time></trkpt><trkpt lat="43.3816209" lon="10.8334517"><ele>175.0</ele><time>2026-04-05T11:11:58.815Z</time></trkpt><trkpt lat="43.3815083" lon="10.8332473"><ele>172.66666666666669</ele><time>2026-04-05T11:11:59.814Z</time></trkpt><trkpt lat="43.3813994" lon="10.833038"><ele>170.33333333333334</ele><time>2026-04-05T11:12:00.814Z</time></trkpt><trkpt lat="43.3812924" lon="10.8328291"><ele>168.0</ele><time>2026-04-05T11:12:01.815Z</time></trkpt><trkpt lat="43.3811977" lon="10.8326107"><ele>167.0</ele><time>2026-04-05T11:12:02.816Z</time></trkpt><trkpt lat="43.3811099" lon="10.8323777"><ele>166.0</ele><time>2026-04-05T11:12:03.814Z</time></trkpt><trkpt lat="43.3810316" lon="10.8321374"><ele>165.0</ele><time>2026-04-05T11:12:04.814Z</time></trkpt><trkpt lat="43.3809608" lon="10.8318949"><ele>165.0</ele><time>2026-04-05T11:12:05.814Z</time></trkpt><trkpt lat="43.3809022" lon="10.8316434"><ele>165.0</ele><time>2026-04-05T11:12:06.815Z</time></trkpt><trkpt lat="43.3808595" lon="10.8313931"><ele>165.0</ele><time>2026-04-05T11:12:07.814Z</time></trkpt><trkpt lat="43.3808318" lon="10.8311397"><ele>163.66666666666666</ele><time>2026-04-05T11:12:08.814Z</time></trkpt><trkpt lat="43.3808237" lon="10.8308714"><ele>162.33333333333331</ele><time>2026-04-05T11:12:09.815Z</time></trkpt><trkpt lat="43.3808415" lon="10.8306066"><ele>161.0</ele><time>2026-04-05T11:12:10.814Z</time></trkpt><trkpt lat="43.3808671" lon="10.8303371"><ele>160.66666666666666</ele><time>2026-04-05T11:12:11.815Z</time></trkpt><trkpt lat="43.3808959" lon="10.8300643"><ele>160.33333333333334</ele><time>2026-04-05T11:12:12.815Z</time></trkpt><trkpt lat="43.3809299" lon="10.8297835"><ele>160.0</ele><time>2026-04-05T11:12:13.815Z</time></trkpt><trkpt lat="43.3809568" lon="10.8295063"><ele>159.33333333333334</ele><time>2026-04-05T11:12:14.814Z</time></trkpt><trkpt lat="43.3809901" lon="10.8292352"><ele>158.66666666666666</ele><time>2026-04-05T11:12:15.815Z</time></trkpt><trkpt lat="43.3810183" lon="10.8289781"><ele>158.0</ele><time>2026-04-05T11:12:16.815Z</time></trkpt><trkpt lat="43.381047" lon="10.8287398"><ele>158.0</ele><time>2026-04-05T11:12:17.814Z</time></trkpt><trkpt lat="43.381075" lon="10.8285127"><ele>158.0</ele><time>2026-04-05T11:12:18.816Z</time></trkpt><trkpt lat="43.3810955" lon="10.8283188"><ele>158.0</ele><time>2026-04-05T11:12:19.814Z</time></trkpt><trkpt lat="43.3810996" lon="10.8281454"><ele>158.0</ele><time>2026-04-05T11:12:20.814Z</time></trkpt><trkpt lat="43.3810796" lon="10.8279725"><ele>159.0</ele><time>2026-04-05T11:12:21.815Z</time></trkpt><trkpt lat="43.3810457" lon="10.8277914"><ele>160.0</ele><time>2026-04-05T11:12:22.815Z</time></trkpt><trkpt lat="43.3810066" lon="10.8276123"><ele>161.0</ele><time>2026-04-05T11:12:23.814Z</time></trkpt><trkpt lat="43.3809611" lon="10.8274565"><ele>162.0</ele><time>2026-04-05T11:12:24.814Z</time></trkpt><trkpt lat="43.3808977" lon="10.8273105"><ele>162.5</ele><time>2026-04-05T11:12:25.815Z</time></trkpt><trkpt lat="43.3808226" lon="10.827182"><ele>163.0</ele><time>2026-04-05T11:12:26.815Z</time></trkpt><trkpt lat="43.380731" lon="10.8270811"><ele>163.5</ele><time>2026-04-05T11:12:27.815Z</time></trkpt><trkpt lat="43.3806335" lon="10.8270002"><ele>164.0</ele><time>2026-04-05T11:12:28.815Z</time></trkpt><trkpt lat="43.3805355" lon="10.8269133"><ele>162.5</ele><time>2026-04-05T11:12:29.814Z</time></trkpt><trkpt lat="43.380456" lon="10.8267983"><ele>161.0</ele><time>2026-04-05T11:12:30.815Z</time></trkpt><trkpt lat="43.3803963" lon="10.826647"><ele>159.5</ele><time>2026-04-05T11:12:31.814Z</time></trkpt><trkpt lat="43.380369" lon="10.8264754"><ele>158.0</ele><time>2026-04-05T11:12:32.815Z</time></trkpt><trkpt lat="43.380355" lon="10.8262809"><ele>158.0</ele><time>2026-04-05T11:12:33.815Z</time></trkpt><trkpt lat="43.3803501" lon="10.8260915"><ele>158.0</ele><time>2026-04-05T11:12:34.814Z</time></trkpt><trkpt lat="43.3803488" lon="10.8259132"><ele>158.0</ele><time>2026-04-05T11:12:35.816Z</time></trkpt><trkpt lat="43.3803471" lon="10.8257407"><ele>158.0</ele><time>2026-04-05T11:12:36.815Z</time></trkpt><trkpt lat="43.380343" lon="10.8255785"><ele>158.5</ele><time>2026-04-05T11:12:37.814Z</time></trkpt><trkpt lat="43.3803301" lon="10.8254179"><ele>159.0</ele><time>2026-04-05T11:12:38.815Z</time></trkpt><trkpt lat="43.380299" lon="10.8252579"><ele>159.5</ele><time>2026-04-05T11:12:39.815Z</time></trkpt><trkpt lat="43.3802356" lon="10.8250994"><ele>160.0</ele><time>2026-04-05T11:12:40.816Z</time></trkpt><trkpt lat="43.3801432" lon="10.8249562"><ele>158.25</ele><time>2026-04-05T11:12:41.814Z</time></trkpt><trkpt lat="43.3800305" lon="10.8248374"><ele>156.5</ele><time>2026-04-05T11:12:42.815Z</time></trkpt><trkpt lat="43.3799056" lon="10.8247455"><ele>154.75</ele><time>2026-04-05T11:12:43.816Z</time></trkpt><trkpt lat="43.3797658" lon="10.8246527"><ele>153.0</ele><time>2026-04-05T11:12:44.814Z</time></trkpt><trkpt lat="43.3796264" lon="10.8245566"><ele>152.0</ele><time>2026-04-05T11:12:45.815Z</time></trkpt><trkpt lat="43.3794888" lon="10.8244566"><ele>151.0</ele><time>2026-04-05T11:12:46.814Z</time></trkpt><trkpt lat="43.3793544" lon="10.8243501"><ele>150.0</ele><time>2026-04-05T11:12:47.814Z</time></trkpt><trkpt lat="43.3792285" lon="10.8242249"><ele>148.5</ele><time>2026-04-05T11:12:48.814Z</time></trkpt><trkpt lat="43.3791238" lon="10.8241001"><ele>147.0</ele><time>2026-04-05T11:12:49.815Z</time></trkpt><trkpt lat="43.3790354" lon="10.8239877"><ele>145.5</ele><time>2026-04-05T11:12:50.814Z</time></trkpt><trkpt lat="43.3789383" lon="10.8238911"><ele>144.0</ele><time>2026-04-05T11:12:51.815Z</time></trkpt><trkpt lat="43.3788201" lon="10.8238183"><ele>142.25</ele><time>2026-04-05T11:12:52.815Z</time></trkpt><trkpt lat="43.3786983" lon="10.8237588"><ele>140.5</ele><time>2026-04-05T11:12:53.815Z</time></trkpt><trkpt lat="43.378567" lon="10.8237158"><ele>138.75</ele><time>2026-04-05T11:12:54.815Z</time></trkpt><trkpt lat="43.3784415" lon="10.8236764"><ele>137.0</ele><time>2026-04-05T11:12:55.815Z</time></trkpt><trkpt lat="43.3783217" lon="10.8236217"><ele>137.0</ele><time>2026-04-05T11:12:56.815Z</time></trkpt><trkpt lat="43.3782028" lon="10.8235759"><ele>137.0</ele><time>2026-04-05T11:12:57.815Z</time></trkpt><trkpt lat="43.3780941" lon="10.8235306"><ele>137.0</ele><time>2026-04-05T11:12:58.814Z</time></trkpt><trkpt lat="43.3780008" lon="10.8234528"><ele>137.0</ele><time>2026-04-05T11:12:59.814Z</time></trkpt><trkpt lat="43.3779205" lon="10.8233487"><ele>135.5</ele><time>2026-04-05T11:13:00.815Z</time></trkpt><trkpt lat="43.3778473" lon="10.8232107"><ele>134.0</ele><time>2026-04-05T11:13:01.815Z</time></trkpt><trkpt lat="43.377783" lon="10.8230652"><ele>132.5</ele><time>2026-04-05T11:13:02.815Z</time></trkpt><trkpt lat="43.3777138" lon="10.8229262"><ele>131.0</ele><time>2026-04-05T11:13:03.815Z</time></trkpt><trkpt lat="43.3776452" lon="10.8227987"><ele>131.0</ele><time>2026-04-05T11:13:04.815Z</time></trkpt><trkpt lat="43.3775684" lon="10.822683"><ele>131.0</ele><time>2026-04-05T11:13:05.814Z</time></trkpt><trkpt lat="43.3774727" lon="10.8225903"><ele>131.0</ele><time>2026-04-05T11:13:06.815Z</time></trkpt><trkpt lat="43.3773538" lon="10.8225176"><ele>131.0</ele><time>2026-04-05T11:13:07.815Z</time></trkpt><trkpt lat="43.3772261" lon="10.8224748"><ele>130.33333333333331</ele><time>2026-04-05T11:13:08.814Z</time></trkpt><trkpt lat="43.3770807" lon="10.8224473"><ele>129.66666666666666</ele><time>2026-04-05T11:13:09.814Z</time></trkpt><trkpt lat="43.3769145" lon="10.82244"><ele>129.0</ele><time>2026-04-05T11:13:10.815Z</time></trkpt><trkpt lat="43.3767301" lon="10.8224276"><ele>129.0</ele><time>2026-04-05T11:13:11.815Z</time></trkpt><trkpt lat="43.3765396" lon="10.8224056"><ele>129.0</ele><time>2026-04-05T11:13:12.814Z</time></trkpt><trkpt lat="43.3763399" lon="10.8223862"><ele>129.0</ele><time>2026-04-05T11:13:13.814Z</time></trkpt><trkpt lat="43.376135" lon="10.8223749"><ele>129.0</ele><time>2026-04-05T11:13:14.814Z</time></trkpt><trkpt lat="43.3759389" lon="10.8223602"><ele>129.0</ele><time>2026-04-05T11:13:15.814Z</time></trkpt><trkpt lat="43.3757551" lon="10.8223368"><ele>129.0</ele><time>2026-04-05T11:13:16.815Z</time></trkpt><trkpt lat="43.3755885" lon="10.8223045"><ele>130.0</ele><time>2026-04-05T11:13:17.816Z</time></trkpt><trkpt lat="43.3754411" lon="10.8222649"><ele>131.0</ele><time>2026-04-05T11:13:18.814Z</time></trkpt><trkpt lat="43.3753111" lon="10.8222254"><ele>132.0</ele><time>2026-04-05T11:13:19.814Z</time></trkpt><trkpt lat="43.3751896" lon="10.8221859"><ele>133.0</ele><time>2026-04-05T11:13:20.815Z</time></trkpt><trkpt lat="43.3750733" lon="10.8221601"><ele>133.0</ele><time>2026-04-05T11:13:21.815Z</time></trkpt><trkpt lat="43.3749607" lon="10.8221469"><ele>133.0</ele><time>2026-04-05T11:13:22.815Z</time></trkpt><trkpt lat="43.3748441" lon="10.8221733"><ele>133.0</ele><time>2026-04-05T11:13:23.816Z</time></trkpt><trkpt lat="43.3747306" lon="10.8222224"><ele>133.0</ele><time>2026-04-05T11:13:24.815Z</time></trkpt><trkpt lat="43.3746268" lon="10.8222734"><ele>133.0</ele><time>2026-04-05T11:13:25.814Z</time></trkpt><trkpt lat="43.374531" lon="10.8223211"><ele>133.0</ele><time>2026-04-05T11:13:26.815Z</time></trkpt><trkpt lat="43.3744329" lon="10.8223725"><ele>133.0</ele><time>2026-04-05T11:13:27.814Z</time></trkpt><trkpt lat="43.3743204" lon="10.8224214"><ele>133.0</ele><time>2026-04-05T11:13:28.814Z</time></trkpt><trkpt lat="43.3742083" lon="10.822467"><ele>133.0</ele><time>2026-04-05T11:13:29.815Z</time></trkpt><trkpt lat="43.3740995" lon="10.8224909"><ele>133.0</ele><time>2026-04-05T11:13:30.815Z</time></trkpt><trkpt lat="43.3739895" lon="10.8225031"><ele>133.0</ele><time>2026-04-05T11:13:31.815Z</time></trkpt><trkpt lat="43.3738787" lon="10.8224994"><ele>133.0</ele><time>2026-04-05T11:13:32.815Z</time></trkpt><trkpt lat="43.3737549" lon="10.8224922"><ele>133.0</ele><time>2026-04-05T11:13:33.814Z</time></trkpt><trkpt lat="43.3736284" lon="10.822466"><ele>131.25</ele><time>2026-04-05T11:13:34.814Z</time></trkpt><trkpt lat="43.3735033" lon="10.8224122"><ele>129.5</ele><time>2026-04-05T11:13:35.815Z</time></trkpt><trkpt lat="43.3733877" lon="10.8223216"><ele>127.75</ele><time>2026-04-05T11:13:36.815Z</time></trkpt><trkpt lat="43.3732943" lon="10.8222172"><ele>126.0</ele><time>2026-04-05T11:13:37.815Z</time></trkpt><trkpt lat="43.3732144" lon="10.8221058"><ele>126.0</ele><time>2026-04-05T11:13:38.815Z</time></trkpt><trkpt lat="43.3731367" lon="10.8220028"><ele>126.0</ele><time>2026-04-05T11:13:39.815Z</time></trkpt><trkpt lat="43.3730554" lon="10.8219104"><ele>126.0</ele><time>2026-04-05T11:13:40.815Z</time></trkpt><trkpt lat="43.3729736" lon="10.8218272"><ele>126.0</ele><time>2026-04-05T11:13:41.815Z</time></trkpt><trkpt lat="43.3728777" lon="10.8217743"><ele>126.0</ele><time>2026-04-05T11:13:42.814Z</time></trkpt><trkpt lat="43.3727723" lon="10.8217547"><ele>125.6</ele><time>2026-04-05T11:13:43.814Z</time></trkpt><trkpt lat="43.37267" lon="10.8217563"><ele>125.19999999999999</ele><time>2026-04-05T11:13:44.815Z</time></trkpt><trkpt lat="43.3725719" lon="10.8217667"><ele>124.80000000000001</ele><time>2026-04-05T11:13:45.814Z</time></trkpt><trkpt lat="43.3724763" lon="10.8217739"><ele>124.4</ele><time>2026-04-05T11:13:46.815Z</time></trkpt><trkpt lat="43.3723757" lon="10.8217723"><ele>124.0</ele><time>2026-04-05T11:13:47.815Z</time></trkpt><trkpt lat="43.372265" lon="10.8217364"><ele>124.0</ele><time>2026-04-05T11:13:48.815Z</time></trkpt><trkpt lat="43.3721376" lon="10.8216614"><ele>124.0</ele><time>2026-04-05T11:13:49.814Z</time></trkpt><trkpt lat="43.3719954" lon="10.8215532"><ele>124.0</ele><time>2026-04-05T11:13:50.814Z</time></trkpt><trkpt lat="43.3718509" lon="10.8214201"><ele>124.0</ele><time>2026-04-05T11:13:51.815Z</time></trkpt><trkpt lat="43.3716877" lon="10.8212725"><ele>124.0</ele><time>2026-04-05T11:13:52.814Z</time></trkpt><trkpt lat="43.3715242" lon="10.8211343"><ele>124.0</ele><time>2026-04-05T11:13:53.814Z</time></trkpt><trkpt lat="43.3713656" lon="10.820989"><ele>123.66666666666667</ele><time>2026-04-05T11:13:54.815Z</time></trkpt><trkpt lat="43.3712087" lon="10.8208398"><ele>123.33333333333334</ele><time>2026-04-05T11:13:55.815Z</time></trkpt><trkpt lat="43.3710512" lon="10.8206878"><ele>123.0</ele><time>2026-04-05T11:13:56.815Z</time></trkpt><trkpt lat="43.3708956" lon="10.820552"><ele>123.0</ele><time>2026-04-05T11:13:57.814Z</time></trkpt><trkpt lat="43.3707452" lon="10.8204292"><ele>123.0</ele><time>2026-04-05T11:13:58.815Z</time></trkpt><trkpt lat="43.3706061" lon="10.8203046"><ele>123.0</ele><time>2026-04-05T11:13:59.815Z</time></trkpt><trkpt lat="43.3704716" lon="10.8201853"><ele>123.0</ele><time>2026-04-05T11:14:00.815Z</time></trkpt><trkpt lat="43.3703464" lon="10.8200356"><ele>123.0</ele><time>2026-04-05T11:14:01.815Z</time></trkpt><trkpt lat="43.3702237" lon="10.8198575"><ele>123.0</ele><time>2026-04-05T11:14:02.814Z</time></trkpt><trkpt lat="43.370109" lon="10.8196509"><ele>123.0</ele><time>2026-04-05T11:14:03.814Z</time></trkpt><trkpt lat="43.3699977" lon="10.8194365"><ele>123.0</ele><time>2026-04-05T11:14:04.814Z</time></trkpt><trkpt lat="43.3698935" lon="10.8192232"><ele>123.0</ele><time>2026-04-05T11:14:05.815Z</time></trkpt><trkpt lat="43.3697813" lon="10.8190105"><ele>123.66666666666666</ele><time>2026-04-05T11:14:06.815Z</time></trkpt><trkpt lat="43.3696713" lon="10.8188051"><ele>124.33333333333333</ele><time>2026-04-05T11:14:07.815Z</time></trkpt><trkpt lat="43.3695677" lon="10.8185929"><ele>125.0</ele><time>2026-04-05T11:14:08.814Z</time></trkpt><trkpt lat="43.36948" lon="10.818375"><ele>123.0</ele><time>2026-04-05T11:14:09.815Z</time></trkpt><trkpt lat="43.3694084" lon="10.8181474"><ele>121.0</ele><time>2026-04-05T11:14:10.815Z</time></trkpt><trkpt lat="43.369345" lon="10.8179089"><ele>119.0</ele><time>2026-04-05T11:14:11.815Z</time></trkpt><trkpt lat="43.3692821" lon="10.8176669"><ele>116.33333333333333</ele><time>2026-04-05T11:14:12.814Z</time></trkpt><trkpt lat="43.3692172" lon="10.817433"><ele>113.66666666666666</ele><time>2026-04-05T11:14:13.815Z</time></trkpt><trkpt lat="43.3691546" lon="10.8172115"><ele>111.0</ele><time>2026-04-05T11:14:14.815Z</time></trkpt><trkpt lat="43.3690938" lon="10.8170067"><ele>111.0</ele><time>2026-04-05T11:14:15.815Z</time></trkpt><trkpt lat="43.3690368" lon="10.816824"><ele>111.0</ele><time>2026-04-05T11:14:16.815Z</time></trkpt><trkpt lat="43.3689694" lon="10.8166656"><ele>111.0</ele><time>2026-04-05T11:14:17.815Z</time></trkpt><trkpt lat="43.3688585" lon="10.8165424"><ele>111.0</ele><time>2026-04-05T11:14:18.815Z</time></trkpt><trkpt lat="43.3687537" lon="10.8164398"><ele>109.75</ele><time>2026-04-05T11:14:19.815Z</time></trkpt><trkpt lat="43.3686576" lon="10.8163078"><ele>108.5</ele><time>2026-04-05T11:14:20.814Z</time></trkpt><trkpt lat="43.3685873" lon="10.8161437"><ele>107.25</ele><time>2026-04-05T11:14:21.815Z</time></trkpt><trkpt lat="43.3685425" lon="10.815954"><ele>106.0</ele><time>2026-04-05T11:14:22.815Z</time></trkpt><trkpt lat="43.3685247" lon="10.8157592"><ele>104.75</ele><time>2026-04-05T11:14:23.815Z</time></trkpt><trkpt lat="43.3685315" lon="10.8155662"><ele>103.5</ele><time>2026-04-05T11:14:24.815Z</time></trkpt><trkpt lat="43.3685378" lon="10.8153816"><ele>102.25</ele><time>2026-04-05T11:14:25.815Z</time></trkpt><trkpt lat="43.3685338" lon="10.8151992"><ele>101.0</ele><time>2026-04-05T11:14:26.815Z</time></trkpt><trkpt lat="43.3684902" lon="10.8150433"><ele>99.75</ele><time>2026-04-05T11:14:27.815Z</time></trkpt><trkpt lat="43.3684289" lon="10.8149004"><ele>98.5</ele><time>2026-04-05T11:14:28.814Z</time></trkpt><trkpt lat="43.3683513" lon="10.8148028"><ele>97.25</ele><time>2026-04-05T11:14:29.815Z</time></trkpt><trkpt lat="43.3682527" lon="10.8147433"><ele>96.0</ele><time>2026-04-05T11:14:30.815Z</time></trkpt><trkpt lat="43.3681007" lon="10.814736"><ele>95.33333333333333</ele><time>2026-04-05T11:14:31.815Z</time></trkpt><trkpt lat="43.3679488" lon="10.8147517"><ele>94.66666666666666</ele><time>2026-04-05T11:14:32.814Z</time></trkpt><trkpt lat="43.3678007" lon="10.8147916"><ele>94.0</ele><time>2026-04-05T11:14:33.815Z</time></trkpt><trkpt lat="43.367637" lon="10.8148601"><ele>94.0</ele><time>2026-04-05T11:14:34.815Z</time></trkpt><trkpt lat="43.3674637" lon="10.8149417"><ele>94.0</ele><time>2026-04-05T11:14:35.815Z</time></trkpt><trkpt lat="43.3672872" lon="10.8150086"><ele>94.0</ele><time>2026-04-05T11:14:36.813Z</time></trkpt><trkpt lat="43.3671163" lon="10.8150613"><ele>93.33333333333333</ele><time>2026-04-05T11:14:37.815Z</time></trkpt><trkpt lat="43.3669492" lon="10.8150838"><ele>92.66666666666667</ele><time>2026-04-05T11:14:38.814Z</time></trkpt><trkpt lat="43.3667894" lon="10.8150671"><ele>92.0</ele><time>2026-04-05T11:14:39.815Z</time></trkpt><trkpt lat="43.3666278" lon="10.8150106"><ele>92.0</ele><time>2026-04-05T11:14:40.815Z</time></trkpt><trkpt lat="43.3664756" lon="10.8149388"><ele>92.0</ele><time>2026-04-05T11:14:41.815Z</time></trkpt><trkpt lat="43.366325" lon="10.8148709"><ele>92.0</ele><time>2026-04-05T11:14:42.815Z</time></trkpt><trkpt lat="43.3661848" lon="10.8148009"><ele>89.75</ele><time>2026-04-05T11:14:43.815Z</time></trkpt><trkpt lat="43.3660459" lon="10.8147161"><ele>87.5</ele><time>2026-04-05T11:14:44.815Z</time></trkpt><trkpt lat="43.3659167" lon="10.8146254"><ele>85.25</ele><time>2026-04-05T11:14:45.815Z</time></trkpt><trkpt lat="43.365795" lon="10.81453"><ele>83.0</ele><time>2026-04-05T11:14:46.814Z</time></trkpt><trkpt lat="43.3656774" lon="10.8144284"><ele>83.0</ele><time>2026-04-05T11:14:47.814Z</time></trkpt><trkpt lat="43.3655661" lon="10.8143242"><ele>83.0</ele><time>2026-04-05T11:14:48.814Z</time></trkpt><trkpt lat="43.3654512" lon="10.8142192"><ele>83.0</ele><time>2026-04-05T11:14:49.815Z</time></trkpt><trkpt lat="43.3653373" lon="10.8141198"><ele>83.0</ele><time>2026-04-05T11:14:50.815Z</time></trkpt><trkpt lat="43.3652203" lon="10.8140139"><ele>82.0</ele><time>2026-04-05T11:14:51.815Z</time></trkpt><trkpt lat="43.3651086" lon="10.8139149"><ele>81.0</ele><time>2026-04-05T11:14:52.815Z</time></trkpt><trkpt lat="43.3649903" lon="10.8138089"><ele>80.0</ele><time>2026-04-05T11:14:53.815Z</time></trkpt><trkpt lat="43.3648804" lon="10.8137034"><ele>79.0</ele><time>2026-04-05T11:14:54.815Z</time></trkpt><trkpt lat="43.3647702" lon="10.813599"><ele>78.75</ele><time>2026-04-05T11:14:55.815Z</time></trkpt><trkpt lat="43.3646648" lon="10.8134952"><ele>78.5</ele><time>2026-04-05T11:14:56.815Z</time></trkpt><trkpt lat="43.3645604" lon="10.8133984"><ele>78.25</ele><time>2026-04-05T11:14:57.815Z</time></trkpt><trkpt lat="43.3644571" lon="10.813302"><ele>78.0</ele><time>2026-04-05T11:14:58.815Z</time></trkpt><trkpt lat="43.3643644" lon="10.8132161"><ele>78.0</ele><time>2026-04-05T11:14:59.815Z</time></trkpt><trkpt lat="43.3642782" lon="10.813135"><ele>78.0</ele><time>2026-04-05T11:15:00.814Z</time></trkpt><trkpt lat="43.3641966" lon="10.8130631"><ele>78.0</ele><time>2026-04-05T11:15:01.815Z</time></trkpt><trkpt lat="43.3641212" lon="10.81299"><ele>78.0</ele><time>2026-04-05T11:15:02.815Z</time></trkpt><trkpt lat="43.364051" lon="10.8129255"><ele>78.0</ele><time>2026-04-05T11:15:03.815Z</time></trkpt><trkpt lat="43.3639846" lon="10.8128707"><ele>78.0</ele><time>2026-04-05T11:15:04.814Z</time></trkpt><trkpt lat="43.3639303" lon="10.8128062"><ele>78.0</ele><time>2026-04-05T11:15:05.815Z</time></trkpt><trkpt lat="43.363885" lon="10.8127408"><ele>78.0</ele><time>2026-04-05T11:15:06.815Z</time></trkpt><trkpt lat="43.3638409" lon="10.8126772"><ele>78.0</ele><time>2026-04-05T11:15:07.815Z</time></trkpt><trkpt lat="43.3637634" lon="10.8126542"><ele>78.0</ele><time>2026-04-05T11:15:08.815Z</time></trkpt><trkpt lat="43.3636822" lon="10.8126466"><ele>78.0</ele><time>2026-04-05T11:15:09.815Z</time></trkpt><trkpt lat="43.3635849" lon="10.812645"><ele>78.25</ele><time>2026-04-05T11:15:10.815Z</time></trkpt><trkpt lat="43.3634789" lon="10.8126466"><ele>78.5</ele><time>2026-04-05T11:15:11.815Z</time></trkpt><trkpt lat="43.363363" lon="10.8126429"><ele>78.75</ele><time>2026-04-05T11:15:12.815Z</time></trkpt><trkpt lat="43.3632419" lon="10.8126396"><ele>79.0</ele><time>2026-04-05T11:15:13.815Z</time></trkpt><trkpt lat="43.3631214" lon="10.8126391"><ele>79.0</ele><time>2026-04-05T11:15:14.814Z</time></trkpt><trkpt lat="43.363" lon="10.8126376"><ele>79.0</ele><time>2026-04-05T11:15:15.814Z</time></trkpt><trkpt lat="43.3628861" lon="10.8126315"><ele>79.0</ele><time>2026-04-05T11:15:16.815Z</time></trkpt><trkpt lat="43.3627763" lon="10.8126276"><ele>79.0</ele><time>2026-04-05T11:15:17.815Z</time></trkpt><trkpt lat="43.3626684" lon="10.8126229"><ele>79.0</ele><time>2026-04-05T11:15:18.815Z</time></trkpt><trkpt lat="43.3625626" lon="10.8126236"><ele>79.0</ele><time>2026-04-05T11:15:19.815Z</time></trkpt><trkpt lat="43.3624516" lon="10.8126181"><ele>79.0</ele><time>2026-04-05T11:15:20.814Z</time></trkpt><trkpt lat="43.3623395" lon="10.8126147"><ele>79.0</ele><time>2026-04-05T11:15:21.815Z</time></trkpt><trkpt lat="43.3622253" lon="10.8126056"><ele>79.0</ele><time>2026-04-05T11:15:22.815Z</time></trkpt><trkpt lat="43.3621092" lon="10.8125877"><ele>78.25</ele><time>2026-04-05T11:15:23.815Z</time></trkpt><trkpt lat="43.3619914" lon="10.8125588"><ele>77.5</ele><time>2026-04-05T11:15:24.814Z</time></trkpt><trkpt lat="43.3618763" lon="10.8125223"><ele>76.75</ele><time>2026-04-05T11:15:25.813Z</time></trkpt><trkpt lat="43.3617641" lon="10.8124757"><ele>76.0</ele><time>2026-04-05T11:15:26.815Z</time></trkpt><trkpt lat="43.3616549" lon="10.8124135"><ele>76.0</ele><time>2026-04-05T11:15:27.814Z</time></trkpt><trkpt lat="43.3615498" lon="10.8123395"><ele>76.0</ele><time>2026-04-05T11:15:28.814Z</time></trkpt><trkpt lat="43.361452" lon="10.8122619"><ele>76.0</ele><time>2026-04-05T11:15:29.814Z</time></trkpt><trkpt lat="43.361357" lon="10.8121714"><ele>76.0</ele><time>2026-04-05T11:15:30.815Z</time></trkpt><trkpt lat="43.3612613" lon="10.8120621"><ele>75.66666666666666</ele><time>2026-04-05T11:15:31.814Z</time></trkpt><trkpt lat="43.361162" lon="10.8119298"><ele>75.33333333333333</ele><time>2026-04-05T11:15:32.815Z</time></trkpt><trkpt lat="43.3610597" lon="10.8117712"><ele>75.0</ele><time>2026-04-05T11:15:33.815Z</time></trkpt><trkpt lat="43.3609572" lon="10.8115878"><ele>75.0</ele><time>2026-04-05T11:15:34.815Z</time></trkpt><trkpt lat="43.3608514" lon="10.8113946"><ele>75.0</ele><time>2026-04-05T11:15:35.815Z</time></trkpt><trkpt lat="43.3607477" lon="10.8111934"><ele>75.0</ele><time>2026-04-05T11:15:36.815Z</time></trkpt><trkpt lat="43.3606502" lon="10.8109732"><ele>73.66666666666667</ele><time>2026-04-05T11:15:37.814Z</time></trkpt><trkpt lat="43.3605667" lon="10.8107464"><ele>72.33333333333334</ele><time>2026-04-05T11:15:38.815Z</time></trkpt><trkpt lat="43.3604935" lon="10.8105148"><ele>71.0</ele><time>2026-04-05T11:15:39.815Z</time></trkpt><trkpt lat="43.3604189" lon="10.8102787"><ele>71.33333333333334</ele><time>2026-04-05T11:15:40.815Z</time></trkpt><trkpt lat="43.3603428" lon="10.810037"><ele>71.66666666666667</ele><time>2026-04-05T11:15:41.815Z</time></trkpt><trkpt lat="43.3602643" lon="10.8097939"><ele>72.0</ele><time>2026-04-05T11:15:42.814Z</time></trkpt><trkpt lat="43.3601862" lon="10.8095458"><ele>72.66666666666667</ele><time>2026-04-05T11:15:43.815Z</time></trkpt><trkpt lat="43.3601021" lon="10.8092945"><ele>73.33333333333334</ele><time>2026-04-05T11:15:44.815Z</time></trkpt><trkpt lat="43.3600241" lon="10.8090502"><ele>74.0</ele><time>2026-04-05T11:15:45.815Z</time></trkpt><trkpt lat="43.3599406" lon="10.8087966"><ele>74.0</ele><time>2026-04-05T11:15:46.814Z</time></trkpt><trkpt lat="43.3598612" lon="10.8085433"><ele>74.0</ele><time>2026-04-05T11:15:47.814Z</time></trkpt><trkpt lat="43.3597849" lon="10.8082897"><ele>74.0</ele><time>2026-04-05T11:15:48.815Z</time></trkpt><trkpt lat="43.3597111" lon="10.8080402"><ele>72.66666666666667</ele><time>2026-04-05T11:15:49.815Z</time></trkpt><trkpt lat="43.3596358" lon="10.8077951"><ele>71.33333333333333</ele><time>2026-04-05T11:15:50.815Z</time></trkpt><trkpt lat="43.3595604" lon="10.807544"><ele>70.0</ele><time>2026-04-05T11:15:51.815Z</time></trkpt><trkpt lat="43.3594869" lon="10.8072991"><ele>70.0</ele><time>2026-04-05T11:15:52.815Z</time></trkpt><trkpt lat="43.3594131" lon="10.8070683"><ele>70.0</ele><time>2026-04-05T11:15:53.815Z</time></trkpt><trkpt lat="43.3593445" lon="10.8068502"><ele>70.0</ele><time>2026-04-05T11:15:54.815Z</time></trkpt><trkpt lat="43.3592839" lon="10.8066503"><ele>69.66666666666666</ele><time>2026-04-05T11:15:55.815Z</time></trkpt><trkpt lat="43.3592454" lon="10.806454"><ele>69.33333333333333</ele><time>2026-04-05T11:15:56.815Z</time></trkpt><trkpt lat="43.3592332" lon="10.8062543"><ele>69.0</ele><time>2026-04-05T11:15:57.815Z</time></trkpt><trkpt lat="43.3592499" lon="10.806039"><ele>69.0</ele><time>2026-04-05T11:15:58.815Z</time></trkpt><trkpt lat="43.3592783" lon="10.8058078"><ele>69.0</ele><time>2026-04-05T11:15:59.815Z</time></trkpt><trkpt lat="43.3593068" lon="10.8055616"><ele>69.0</ele><time>2026-04-05T11:16:00.815Z</time></trkpt><trkpt lat="43.3593329" lon="10.8053039"><ele>68.33333333333333</ele><time>2026-04-05T11:16:01.815Z</time></trkpt><trkpt lat="43.3593614" lon="10.8050416"><ele>67.66666666666666</ele><time>2026-04-05T11:16:02.815Z</time></trkpt><trkpt lat="43.3593953" lon="10.8047801"><ele>67.0</ele><time>2026-04-05T11:16:03.815Z</time></trkpt><trkpt lat="43.3594275" lon="10.804519"><ele>66.33333333333333</ele><time>2026-04-05T11:16:04.815Z</time></trkpt><trkpt lat="43.3594543" lon="10.8042599"><ele>65.66666666666667</ele><time>2026-04-05T11:16:05.815Z</time></trkpt><trkpt lat="43.3594704" lon="10.8040018"><ele>65.0</ele><time>2026-04-05T11:16:06.815Z</time></trkpt><trkpt lat="43.3594617" lon="10.803749"><ele>65.0</ele><time>2026-04-05T11:16:07.815Z</time></trkpt><trkpt lat="43.3594389" lon="10.8034993"><ele>65.0</ele><time>2026-04-05T11:16:08.815Z</time></trkpt><trkpt lat="43.3594025" lon="10.8032626"><ele>65.0</ele><time>2026-04-05T11:16:09.815Z</time></trkpt><trkpt lat="43.3593461" lon="10.803037"><ele>65.33333333333334</ele><time>2026-04-05T11:16:10.814Z</time></trkpt><trkpt lat="43.3592714" lon="10.8028142"><ele>65.66666666666667</ele><time>2026-04-05T11:16:11.815Z</time></trkpt><trkpt lat="43.3591807" lon="10.8026016"><ele>66.0</ele><time>2026-04-05T11:16:12.815Z</time></trkpt><trkpt lat="43.3590753" lon="10.8024006"><ele>65.66666666666667</ele><time>2026-04-05T11:16:13.815Z</time></trkpt><trkpt lat="43.3589581" lon="10.8022084"><ele>65.33333333333334</ele><time>2026-04-05T11:16:14.815Z</time></trkpt><trkpt lat="43.3588326" lon="10.8020176"><ele>65.0</ele><time>2026-04-05T11:16:15.815Z</time></trkpt><trkpt lat="43.3587053" lon="10.8018254"><ele>65.66666666666667</ele><time>2026-04-05T11:16:16.815Z</time></trkpt><trkpt lat="43.3585793" lon="10.8016254"><ele>66.33333333333333</ele><time>2026-04-05T11:16:17.815Z</time></trkpt><trkpt lat="43.3584594" lon="10.8014146"><ele>67.0</ele><time>2026-04-05T11:16:18.815Z</time></trkpt><trkpt lat="43.3583497" lon="10.8011925"><ele>68.66666666666666</ele><time>2026-04-05T11:16:19.815Z</time></trkpt><trkpt lat="43.3582494" lon="10.8009579"><ele>70.33333333333333</ele><time>2026-04-05T11:16:20.815Z</time></trkpt><trkpt lat="43.3581648" lon="10.8007081"><ele>72.0</ele><time>2026-04-05T11:16:21.814Z</time></trkpt><trkpt lat="43.3580787" lon="10.8004508"><ele>69.66666666666667</ele><time>2026-04-05T11:16:22.814Z</time></trkpt><trkpt lat="43.3579923" lon="10.800186"><ele>67.33333333333334</ele><time>2026-04-05T11:16:23.815Z</time></trkpt><trkpt lat="43.3579027" lon="10.7999256"><ele>65.0</ele><time>2026-04-05T11:16:24.815Z</time></trkpt><trkpt lat="43.3578087" lon="10.7996625"><ele>65.0</ele><time>2026-04-05T11:16:25.815Z</time></trkpt><trkpt lat="43.3577024" lon="10.7993984"><ele>65.0</ele><time>2026-04-05T11:16:26.815Z</time></trkpt><trkpt lat="43.3575799" lon="10.7991462"><ele>65.0</ele><time>2026-04-05T11:16:27.814Z</time></trkpt><trkpt lat="43.357441" lon="10.7989082"><ele>65.0</ele><time>2026-04-05T11:16:28.815Z</time></trkpt><trkpt lat="43.3572906" lon="10.7986836"><ele>65.0</ele><time>2026-04-05T11:16:29.815Z</time></trkpt><trkpt lat="43.3571435" lon="10.7984521"><ele>65.0</ele><time>2026-04-05T11:16:30.815Z</time></trkpt><trkpt lat="43.3570021" lon="10.7982153"><ele>65.0</ele><time>2026-04-05T11:16:31.815Z</time></trkpt><trkpt lat="43.3568811" lon="10.7979652"><ele>65.0</ele><time>2026-04-05T11:16:32.815Z</time></trkpt><trkpt lat="43.3567699" lon="10.7977061"><ele>65.0</ele><time>2026-04-05T11:16:33.815Z</time></trkpt><trkpt lat="43.3566667" lon="10.7974388"><ele>66.66666666666667</ele><time>2026-04-05T11:16:34.815Z</time></trkpt><trkpt lat="43.356582" lon="10.7971788"><ele>68.33333333333333</ele><time>2026-04-05T11:16:35.815Z</time></trkpt><trkpt lat="43.3565133" lon="10.7969232"><ele>70.0</ele><time>2026-04-05T11:16:36.815Z</time></trkpt><trkpt lat="43.3564548" lon="10.796658"><ele>71.33333333333333</ele><time>2026-04-05T11:16:37.815Z</time></trkpt><trkpt lat="43.3564118" lon="10.7963879"><ele>72.66666666666667</ele><time>2026-04-05T11:16:38.814Z</time></trkpt><trkpt lat="43.3563842" lon="10.7961052"><ele>74.0</ele><time>2026-04-05T11:16:39.815Z</time></trkpt><trkpt lat="43.3563696" lon="10.7958069"><ele>70.0</ele><time>2026-04-05T11:16:40.815Z</time></trkpt><trkpt lat="43.3563709" lon="10.7955014"><ele>66.0</ele><time>2026-04-05T11:16:41.815Z</time></trkpt><trkpt lat="43.3563805" lon="10.7951861"><ele>64.5</ele><time>2026-04-05T11:16:42.815Z</time></trkpt><trkpt lat="43.3564093" lon="10.7948616"><ele>63.0</ele><time>2026-04-05T11:16:43.813Z</time></trkpt><trkpt lat="43.3564536" lon="10.7945291"><ele>62.0</ele><time>2026-04-05T11:16:44.814Z</time></trkpt><trkpt lat="43.3565151" lon="10.7941779"><ele>61.0</ele><time>2026-04-05T11:16:45.814Z</time></trkpt><trkpt lat="43.356588" lon="10.7938142"><ele>60.5</ele><time>2026-04-05T11:16:46.815Z</time></trkpt><trkpt lat="43.3566659" lon="10.793443"><ele>60.0</ele><time>2026-04-05T11:16:47.815Z</time></trkpt><trkpt lat="43.3567524" lon="10.793059"><ele>59.0</ele><time>2026-04-05T11:16:48.815Z</time></trkpt><trkpt lat="43.3568368" lon="10.7926672"><ele>58.0</ele><time>2026-04-05T11:16:49.815Z</time></trkpt><trkpt lat="43.3569178" lon="10.7922839"><ele>58.0</ele><time>2026-04-05T11:16:50.815Z</time></trkpt><trkpt lat="43.3569959" lon="10.7918923"><ele>58.0</ele><time>2026-04-05T11:16:51.815Z</time></trkpt><trkpt lat="43.3570665" lon="10.7915003"><ele>58.5</ele><time>2026-04-05T11:16:52.815Z</time></trkpt><trkpt lat="43.357133" lon="10.7911087"><ele>59.0</ele><time>2026-04-05T11:16:53.815Z</time></trkpt><trkpt lat="43.35719" lon="10.7907165"><ele>60.0</ele><time>2026-04-05T11:16:54.815Z</time></trkpt><trkpt lat="43.357235" lon="10.7903272"><ele>61.0</ele><time>2026-04-05T11:16:55.815Z</time></trkpt><trkpt lat="43.3572659" lon="10.789948"><ele>62.0</ele><time>2026-04-05T11:16:56.814Z</time></trkpt><trkpt lat="43.3572851" lon="10.7895678"><ele>63.0</ele><time>2026-04-05T11:16:57.815Z</time></trkpt><trkpt lat="43.3572959" lon="10.7891899"><ele>64.5</ele><time>2026-04-05T11:16:58.815Z</time></trkpt><trkpt lat="43.3573015" lon="10.7888163"><ele>66.0</ele><time>2026-04-05T11:16:59.815Z</time></trkpt><trkpt lat="43.357295" lon="10.7884384"><ele>66.0</ele><time>2026-04-05T11:17:00.815Z</time></trkpt><trkpt lat="43.357278" lon="10.7880487"><ele>66.0</ele><time>2026-04-05T11:17:01.815Z</time></trkpt><trkpt lat="43.3572477" lon="10.7876613"><ele>64.5</ele><time>2026-04-05T11:17:02.815Z</time></trkpt><trkpt lat="43.3572101" lon="10.787274"><ele>63.0</ele><time>2026-04-05T11:17:03.814Z</time></trkpt><trkpt lat="43.3571656" lon="10.7868858"><ele>61.5</ele><time>2026-04-05T11:17:04.815Z</time></trkpt><trkpt lat="43.3571135" lon="10.7864871"><ele>60.0</ele><time>2026-04-05T11:17:05.815Z</time></trkpt><trkpt lat="43.3570574" lon="10.7860779"><ele>60.5</ele><time>2026-04-05T11:17:06.815Z</time></trkpt><trkpt lat="43.3569969" lon="10.7856596"><ele>61.0</ele><time>2026-04-05T11:17:07.815Z</time></trkpt><trkpt lat="43.3569283" lon="10.785233"><ele>60.5</ele><time>2026-04-05T11:17:08.815Z</time></trkpt><trkpt lat="43.3568655" lon="10.7848116"><ele>60.0</ele><time>2026-04-05T11:17:09.815Z</time></trkpt><trkpt lat="43.3568081" lon="10.7844125"><ele>60.0</ele><time>2026-04-05T11:17:10.815Z</time></trkpt><trkpt lat="43.3567527" lon="10.7840419"><ele>60.0</ele><time>2026-04-05T11:17:11.815Z</time></trkpt><trkpt lat="43.3566989" lon="10.7836871"><ele>59.5</ele><time>2026-04-05T11:17:12.815Z</time></trkpt><trkpt lat="43.3566475" lon="10.783353"><ele>59.0</ele><time>2026-04-05T11:17:13.815Z</time></trkpt><trkpt lat="43.3565983" lon="10.7830198"><ele>59.0</ele><time>2026-04-05T11:17:14.815Z</time></trkpt><trkpt lat="43.3565569" lon="10.7826834"><ele>59.0</ele><time>2026-04-05T11:17:15.815Z</time></trkpt><trkpt lat="43.3565297" lon="10.782326"><ele>59.0</ele><time>2026-04-05T11:17:16.815Z</time></trkpt><trkpt lat="43.3565125" lon="10.7819681"><ele>59.0</ele><time>2026-04-05T11:17:17.815Z</time></trkpt><trkpt lat="43.3564995" lon="10.7816043"><ele>59.0</ele><time>2026-04-05T11:17:18.815Z</time></trkpt><trkpt lat="43.3564867" lon="10.7812309"><ele>59.0</ele><time>2026-04-05T11:17:19.815Z</time></trkpt><trkpt lat="43.3564751" lon="10.7808704"><ele>59.5</ele><time>2026-04-05T11:17:20.815Z</time></trkpt><trkpt lat="43.3564656" lon="10.780514"><ele>60.0</ele><time>2026-04-05T11:17:21.815Z</time></trkpt><trkpt lat="43.3564549" lon="10.7801686"><ele>60.0</ele><time>2026-04-05T11:17:22.815Z</time></trkpt><trkpt lat="43.3564453" lon="10.7798361"><ele>60.0</ele><time>2026-04-05T11:17:23.816Z</time></trkpt><trkpt lat="43.3564323" lon="10.7795033"><ele>62.0</ele><time>2026-04-05T11:17:24.815Z</time></trkpt><trkpt lat="43.356412" lon="10.7791734"><ele>64.0</ele><time>2026-04-05T11:17:25.815Z</time></trkpt><trkpt lat="43.3563784" lon="10.7788597"><ele>62.0</ele><time>2026-04-05T11:17:26.815Z</time></trkpt><trkpt lat="43.3563288" lon="10.7785554"><ele>60.0</ele><time>2026-04-05T11:17:27.815Z</time></trkpt><trkpt lat="43.3562598" lon="10.7782649"><ele>58.0</ele><time>2026-04-05T11:17:28.815Z</time></trkpt><trkpt lat="43.3561761" lon="10.7779915"><ele>58.0</ele><time>2026-04-05T11:17:29.815Z</time></trkpt><trkpt lat="43.3560733" lon="10.7777274"><ele>58.0</ele><time>2026-04-05T11:17:30.815Z</time></trkpt><trkpt lat="43.3559518" lon="10.7774871"><ele>58.0</ele><time>2026-04-05T11:17:31.815Z</time></trkpt><trkpt lat="43.3558161" lon="10.7772608"><ele>57.666666666666664</ele><time>2026-04-05T11:17:32.814Z</time></trkpt><trkpt lat="43.3556712" lon="10.7770592"><ele>57.33333333333333</ele><time>2026-04-05T11:17:33.815Z</time></trkpt><trkpt lat="43.3555189" lon="10.7768896"><ele>57.0</ele><time>2026-04-05T11:17:34.815Z</time></trkpt><trkpt lat="43.3553603" lon="10.7767465"><ele>57.66666666666667</ele><time>2026-04-05T11:17:35.815Z</time></trkpt><trkpt lat="43.3551976" lon="10.7766248"><ele>58.333333333333336</ele><time>2026-04-05T11:17:36.815Z</time></trkpt><trkpt lat="43.3550411" lon="10.7765253"><ele>59.0</ele><time>2026-04-05T11:17:37.815Z</time></trkpt><trkpt lat="43.3548959" lon="10.7764251"><ele>59.0</ele><time>2026-04-05T11:17:38.815Z</time></trkpt><trkpt lat="43.3547625" lon="10.7763406"><ele>59.0</ele><time>2026-04-05T11:17:39.815Z</time></trkpt><trkpt lat="43.3546407" lon="10.7762629"><ele>59.0</ele><time>2026-04-05T11:17:40.815Z</time></trkpt><trkpt lat="43.3545333" lon="10.7761987"><ele>59.0</ele><time>2026-04-05T11:17:41.815Z</time></trkpt><trkpt lat="43.3544448" lon="10.7761422"><ele>59.25</ele><time>2026-04-05T11:17:42.815Z</time></trkpt><trkpt lat="43.3543598" lon="10.7760853"><ele>59.5</ele><time>2026-04-05T11:17:43.815Z</time></trkpt><trkpt lat="43.3542632" lon="10.7760253"><ele>59.75</ele><time>2026-04-05T11:17:44.815Z</time></trkpt><trkpt lat="43.3541557" lon="10.7759553"><ele>60.0</ele><time>2026-04-05T11:17:45.815Z</time></trkpt><trkpt lat="43.3540338" lon="10.7758683"><ele>60.0</ele><time>2026-04-05T11:17:46.815Z</time></trkpt><trkpt lat="43.353904" lon="10.775761"><ele>60.0</ele><time>2026-04-05T11:17:47.815Z</time></trkpt><trkpt lat="43.3537743" lon="10.7756349"><ele>60.0</ele><time>2026-04-05T11:17:48.815Z</time></trkpt><trkpt lat="43.3536468" lon="10.7754802"><ele>59.0</ele><time>2026-04-05T11:17:49.815Z</time></trkpt><trkpt lat="43.3535246" lon="10.7753083"><ele>58.0</ele><time>2026-04-05T11:17:50.815Z</time></trkpt><trkpt lat="43.3534141" lon="10.775118"><ele>57.0</ele><time>2026-04-05T11:17:51.815Z</time></trkpt><trkpt lat="43.3533033" lon="10.7749262"><ele>57.0</ele><time>2026-04-05T11:17:52.815Z</time></trkpt><trkpt lat="43.3531886" lon="10.7747282"><ele>57.0</ele><time>2026-04-05T11:17:53.815Z</time></trkpt><trkpt lat="43.3530664" lon="10.774529"><ele>57.0</ele><time>2026-04-05T11:17:54.815Z</time></trkpt><trkpt lat="43.3529417" lon="10.7743165"><ele>56.66666666666667</ele><time>2026-04-05T11:17:55.815Z</time></trkpt><trkpt lat="43.3528163" lon="10.7740983"><ele>56.333333333333336</ele><time>2026-04-05T11:17:56.815Z</time></trkpt><trkpt lat="43.352686" lon="10.7738774"><ele>56.0</ele><time>2026-04-05T11:17:57.815Z</time></trkpt><trkpt lat="43.3525547" lon="10.773654"><ele>56.333333333333336</ele><time>2026-04-05T11:17:58.815Z</time></trkpt><trkpt lat="43.3524214" lon="10.7734249"><ele>56.66666666666667</ele><time>2026-04-05T11:17:59.815Z</time></trkpt><trkpt lat="43.3522898" lon="10.773198"><ele>57.0</ele><time>2026-04-05T11:18:00.815Z</time></trkpt><trkpt lat="43.3521575" lon="10.7729768"><ele>56.33333333333333</ele><time>2026-04-05T11:18:01.815Z</time></trkpt><trkpt lat="43.3520217" lon="10.7727475"><ele>55.666666666666664</ele><time>2026-04-05T11:18:02.815Z</time></trkpt><trkpt lat="43.3518874" lon="10.7725165"><ele>55.0</ele><time>2026-04-05T11:18:03.815Z</time></trkpt><trkpt lat="43.3517524" lon="10.7722858"><ele>55.0</ele><time>2026-04-05T11:18:04.815Z</time></trkpt><trkpt lat="43.351618" lon="10.7720534"><ele>55.0</ele><time>2026-04-05T11:18:05.815Z</time></trkpt><trkpt lat="43.351483" lon="10.7718145"><ele>55.0</ele><time>2026-04-05T11:18:06.815Z</time></trkpt><trkpt lat="43.351347" lon="10.7715769"><ele>54.666666666666664</ele><time>2026-04-05T11:18:07.815Z</time></trkpt><trkpt lat="43.3512069" lon="10.7713361"><ele>54.33333333333333</ele><time>2026-04-05T11:18:08.815Z</time></trkpt><trkpt lat="43.3510699" lon="10.7710969"><ele>54.0</ele><time>2026-04-05T11:18:09.815Z</time></trkpt><trkpt lat="43.3509307" lon="10.7708557"><ele>55.5</ele><time>2026-04-05T11:18:10.815Z</time></trkpt><trkpt lat="43.350794" lon="10.7706098"><ele>57.0</ele><time>2026-04-05T11:18:11.815Z</time></trkpt><trkpt lat="43.3506608" lon="10.7703536"><ele>56.5</ele><time>2026-04-05T11:18:12.815Z</time></trkpt><trkpt lat="43.3505296" lon="10.7700873"><ele>56.0</ele><time>2026-04-05T11:18:13.815Z</time></trkpt><trkpt lat="43.350401" lon="10.7698194"><ele>56.0</ele><time>2026-04-05T11:18:14.815Z</time></trkpt><trkpt lat="43.3502725" lon="10.7695642"><ele>56.0</ele><time>2026-04-05T11:18:15.815Z</time></trkpt><trkpt lat="43.3501547" lon="10.7693292"><ele>56.0</ele><time>2026-04-05T11:18:16.815Z</time></trkpt><trkpt lat="43.350042" lon="10.7691046"><ele>56.0</ele><time>2026-04-05T11:18:17.815Z</time></trkpt><trkpt lat="43.3499373" lon="10.7688897"><ele>56.0</ele><time>2026-04-05T11:18:18.814Z</time></trkpt><trkpt lat="43.3498353" lon="10.7686718"><ele>56.0</ele><time>2026-04-05T11:18:19.815Z</time></trkpt><trkpt lat="43.3497447" lon="10.7684493"><ele>55.66666666666667</ele><time>2026-04-05T11:18:20.815Z</time></trkpt><trkpt lat="43.3496661" lon="10.7682123"><ele>55.33333333333333</ele><time>2026-04-05T11:18:21.815Z</time></trkpt><trkpt lat="43.3496071" lon="10.7679672"><ele>55.0</ele><time>2026-04-05T11:18:22.815Z</time></trkpt><trkpt lat="43.349563" lon="10.7677173"><ele>55.0</ele><time>2026-04-05T11:18:23.815Z</time></trkpt><trkpt lat="43.3495317" lon="10.7674643"><ele>55.0</ele><time>2026-04-05T11:18:24.815Z</time></trkpt><trkpt lat="43.3495207" lon="10.7672282"><ele>55.0</ele><time>2026-04-05T11:18:25.815Z</time></trkpt><trkpt lat="43.3495231" lon="10.7670211"><ele>55.25</ele><time>2026-04-05T11:18:26.815Z</time></trkpt><trkpt lat="43.3495305" lon="10.7668255"><ele>55.5</ele><time>2026-04-05T11:18:27.815Z</time></trkpt><trkpt lat="43.349516" lon="10.7666408"><ele>55.75</ele><time>2026-04-05T11:18:28.815Z</time></trkpt><trkpt lat="43.3494759" lon="10.7664565"><ele>56.0</ele><time>2026-04-05T11:18:29.815Z</time></trkpt><trkpt lat="43.3494128" lon="10.7662699"><ele>56.0</ele><time>2026-04-05T11:18:30.815Z</time></trkpt><trkpt lat="43.3493226" lon="10.7660821"><ele>56.0</ele><time>2026-04-05T11:18:31.815Z</time></trkpt><trkpt lat="43.3492149" lon="10.7659026"><ele>56.0</ele><time>2026-04-05T11:18:32.815Z</time></trkpt><trkpt lat="43.349095" lon="10.7657236"><ele>56.0</ele><time>2026-04-05T11:18:33.815Z</time></trkpt><trkpt lat="43.348972" lon="10.7655285"><ele>56.0</ele><time>2026-04-05T11:18:34.815Z</time></trkpt><trkpt lat="43.3488535" lon="10.7653237"><ele>56.0</ele><time>2026-04-05T11:18:35.815Z</time></trkpt><trkpt lat="43.3487455" lon="10.7651088"><ele>57.333333333333336</ele><time>2026-04-05T11:18:36.816Z</time></trkpt><trkpt lat="43.3486422" lon="10.7648831"><ele>58.66666666666667</ele><time>2026-04-05T11:18:37.815Z</time></trkpt><trkpt lat="43.3485501" lon="10.7646466"><ele>60.0</ele><time>2026-04-05T11:18:38.815Z</time></trkpt><trkpt lat="43.3484635" lon="10.7644013"><ele>61.66666666666667</ele><time>2026-04-05T11:18:39.815Z</time></trkpt><trkpt lat="43.3483824" lon="10.7641475"><ele>63.333333333333336</ele><time>2026-04-05T11:18:40.815Z</time></trkpt><trkpt lat="43.3482985" lon="10.7638859"><ele>65.0</ele><time>2026-04-05T11:18:41.815Z</time></trkpt><trkpt lat="43.3482136" lon="10.7636194"><ele>65.66666666666667</ele><time>2026-04-05T11:18:42.815Z</time></trkpt><trkpt lat="43.3481229" lon="10.7633486"><ele>66.33333333333333</ele><time>2026-04-05T11:18:43.815Z</time></trkpt><trkpt lat="43.3480363" lon="10.7630705"><ele>67.0</ele><time>2026-04-05T11:18:44.815Z</time></trkpt><trkpt lat="43.3479502" lon="10.7627878"><ele>62.5</ele><time>2026-04-05T11:18:45.815Z</time></trkpt><trkpt lat="43.3478695" lon="10.7624968"><ele>58.0</ele><time>2026-04-05T11:18:46.815Z</time></trkpt><trkpt lat="43.3478035" lon="10.7621879"><ele>58.0</ele><time>2026-04-05T11:18:47.815Z</time></trkpt><trkpt lat="43.3477502" lon="10.7618749"><ele>58.0</ele><time>2026-04-05T11:18:48.815Z</time></trkpt><trkpt lat="43.3477088" lon="10.7615537"><ele>58.0</ele><time>2026-04-05T11:18:49.816Z</time></trkpt><trkpt lat="43.3476741" lon="10.761233"><ele>58.0</ele><time>2026-04-05T11:18:50.815Z</time></trkpt><trkpt lat="43.3476397" lon="10.7609151"><ele>58.0</ele><time>2026-04-05T11:18:51.815Z</time></trkpt><trkpt lat="43.3475994" lon="10.7606017"><ele>58.0</ele><time>2026-04-05T11:18:52.816Z</time></trkpt><trkpt lat="43.3475574" lon="10.7602932"><ele>57.33333333333333</ele><time>2026-04-05T11:18:53.815Z</time></trkpt><trkpt lat="43.3475029" lon="10.7599951"><ele>56.66666666666667</ele><time>2026-04-05T11:18:54.815Z</time></trkpt><trkpt lat="43.3474288" lon="10.7597115"><ele>56.0</ele><time>2026-04-05T11:18:55.815Z</time></trkpt><trkpt lat="43.3473337" lon="10.7594375"><ele>56.333333333333336</ele><time>2026-04-05T11:18:56.815Z</time></trkpt><trkpt lat="43.3472248" lon="10.7591826"><ele>56.66666666666667</ele><time>2026-04-05T11:18:57.815Z</time></trkpt><trkpt lat="43.3471026" lon="10.758915"><ele>57.0</ele><time>2026-04-05T11:18:58.815Z</time></trkpt><trkpt lat="43.3469657" lon="10.7586544"><ele>59.0</ele><time>2026-04-05T11:18:59.815Z</time></trkpt><trkpt lat="43.3468258" lon="10.7584001"><ele>61.0</ele><time>2026-04-05T11:19:00.815Z</time></trkpt><trkpt lat="43.3466872" lon="10.7581422"><ele>61.0</ele><time>2026-04-05T11:19:01.815Z</time></trkpt><trkpt lat="43.346546" lon="10.7578804"><ele>61.0</ele><time>2026-04-05T11:19:02.815Z</time></trkpt><trkpt lat="43.3464044" lon="10.7576254"><ele>59.0</ele><time>2026-04-05T11:19:03.815Z</time></trkpt><trkpt lat="43.3462605" lon="10.757368"><ele>57.0</ele><time>2026-04-05T11:19:04.816Z</time></trkpt><trkpt lat="43.346119" lon="10.7571213"><ele>57.0</ele><time>2026-04-05T11:19:05.815Z</time></trkpt><trkpt lat="43.3459722" lon="10.7568949"><ele>57.0</ele><time>2026-04-05T11:19:06.815Z</time></trkpt><trkpt lat="43.345823" lon="10.7566847"><ele>57.0</ele><time>2026-04-05T11:19:07.815Z</time></trkpt><trkpt lat="43.345681" lon="10.7564934"><ele>56.66666666666667</ele><time>2026-04-05T11:19:08.816Z</time></trkpt><trkpt lat="43.3455439" lon="10.7563159"><ele>56.333333333333336</ele><time>2026-04-05T11:19:09.815Z</time></trkpt><trkpt lat="43.3454189" lon="10.7561687"><ele>56.0</ele><time>2026-04-05T11:19:10.815Z</time></trkpt><trkpt lat="43.3453305" lon="10.756041"><ele>56.00000000000001</ele><time>2026-04-05T11:19:11.815Z</time></trkpt><trkpt lat="43.3452613" lon="10.7559351"><ele>56.0</ele><time>2026-04-05T11:19:12.816Z</time></trkpt><trkpt lat="43.3452371" lon="10.7558262"><ele>56.0</ele><time>2026-04-05T11:19:13.815Z</time></trkpt><trkpt lat="43.3452466" lon="10.7557136"><ele>56.0</ele><time>2026-04-05T11:19:14.815Z</time></trkpt><trkpt lat="43.3452828" lon="10.7556053"><ele>56.00000000000001</ele><time>2026-04-05T11:19:15.815Z</time></trkpt><trkpt lat="43.3453052" lon="10.7554844"><ele>56.0</ele><time>2026-04-05T11:19:16.815Z</time></trkpt><trkpt lat="43.3452984" lon="10.7553722"><ele>56.0</ele><time>2026-04-05T11:19:17.816Z</time></trkpt><trkpt lat="43.3452597" lon="10.755277"><ele>55.99999999999999</ele><time>2026-04-05T11:19:18.815Z</time></trkpt><trkpt lat="43.3451887" lon="10.7552015"><ele>55.99999999999999</ele><time>2026-04-05T11:19:19.815Z</time></trkpt><trkpt lat="43.3450964" lon="10.7551146"><ele>56.0</ele><time>2026-04-05T11:19:20.815Z</time></trkpt><trkpt lat="43.345009" lon="10.7549908"><ele>56.0</ele><time>2026-04-05T11:19:21.815Z</time></trkpt><trkpt lat="43.3449363" lon="10.7548288"><ele>56.0</ele><time>2026-04-05T11:19:22.815Z</time></trkpt><trkpt lat="43.344878" lon="10.7546219"><ele>56.0</ele><time>2026-04-05T11:19:23.815Z</time></trkpt><trkpt lat="43.3448286" lon="10.7544024"><ele>56.0</ele><time>2026-04-05T11:19:24.815Z</time></trkpt><trkpt lat="43.3447608" lon="10.7541707"><ele>55.66666666666667</ele><time>2026-04-05T11:19:25.814Z</time></trkpt><trkpt lat="43.3446716" lon="10.7539276"><ele>55.33333333333333</ele><time>2026-04-05T11:19:26.816Z</time></trkpt><trkpt lat="43.344561" lon="10.7536986"><ele>55.0</ele><time>2026-04-05T11:19:27.815Z</time></trkpt><trkpt lat="43.3444272" lon="10.7534625"><ele>56.0</ele><time>2026-04-05T11:19:28.815Z</time></trkpt><trkpt lat="43.3442745" lon="10.7532222"><ele>57.0</ele><time>2026-04-05T11:19:29.815Z</time></trkpt><trkpt lat="43.3441085" lon="10.7529765"><ele>57.0</ele><time>2026-04-05T11:19:30.815Z</time></trkpt><trkpt lat="43.3439332" lon="10.7527356"><ele>57.0</ele><time>2026-04-05T11:19:31.814Z</time></trkpt><trkpt lat="43.3437624" lon="10.7524919"><ele>56.5</ele><time>2026-04-05T11:19:32.815Z</time></trkpt><trkpt lat="43.3435957" lon="10.7522559"><ele>56.0</ele><time>2026-04-05T11:19:33.815Z</time></trkpt><trkpt lat="43.3434296" lon="10.7520246"><ele>56.5</ele><time>2026-04-05T11:19:34.815Z</time></trkpt><trkpt lat="43.3432699" lon="10.7518"><ele>57.0</ele><time>2026-04-05T11:19:35.815Z</time></trkpt><trkpt lat="43.3431141" lon="10.7515728"><ele>56.0</ele><time>2026-04-05T11:19:36.815Z</time></trkpt><trkpt lat="43.342959" lon="10.7513473"><ele>55.0</ele><time>2026-04-05T11:19:37.815Z</time></trkpt><trkpt lat="43.3428039" lon="10.7511198"><ele>55.5</ele><time>2026-04-05T11:19:38.815Z</time></trkpt><trkpt lat="43.342651" lon="10.750892"><ele>56.0</ele><time>2026-04-05T11:19:39.815Z</time></trkpt><trkpt lat="43.3424973" lon="10.7506646"><ele>56.0</ele><time>2026-04-05T11:19:40.815Z</time></trkpt><trkpt lat="43.3423423" lon="10.750441"><ele>56.0</ele><time>2026-04-05T11:19:41.815Z</time></trkpt><trkpt lat="43.3421854" lon="10.750214"><ele>55.66666666666667</ele><time>2026-04-05T11:19:42.816Z</time></trkpt><trkpt lat="43.3420389" lon="10.7499938"><ele>55.33333333333333</ele><time>2026-04-05T11:19:43.815Z</time></trkpt><trkpt lat="43.3418899" lon="10.7497756"><ele>55.0</ele><time>2026-04-05T11:19:44.815Z</time></trkpt><trkpt lat="43.341742" lon="10.7495608"><ele>54.666666666666664</ele><time>2026-04-05T11:19:45.816Z</time></trkpt><trkpt lat="43.341595" lon="10.7493672"><ele>54.33333333333333</ele><time>2026-04-05T11:19:46.816Z</time></trkpt><trkpt lat="43.3414397" lon="10.7491914"><ele>54.0</ele><time>2026-04-05T11:19:47.815Z</time></trkpt><trkpt lat="43.3412767" lon="10.749029"><ele>54.0</ele><time>2026-04-05T11:19:48.815Z</time></trkpt><trkpt lat="43.341104" lon="10.7488756"><ele>54.0</ele><time>2026-04-05T11:19:49.816Z</time></trkpt><trkpt lat="43.3409219" lon="10.7487293"><ele>54.0</ele><time>2026-04-05T11:19:50.815Z</time></trkpt><trkpt lat="43.3407327" lon="10.7485909"><ele>54.33333333333333</ele><time>2026-04-05T11:19:51.815Z</time></trkpt><trkpt lat="43.3405329" lon="10.7484573"><ele>54.666666666666664</ele><time>2026-04-05T11:19:52.815Z</time></trkpt><trkpt lat="43.3403318" lon="10.7483323"><ele>55.0</ele><time>2026-04-05T11:19:53.815Z</time></trkpt><trkpt lat="43.3401186" lon="10.748228"><ele>55.0</ele><time>2026-04-05T11:19:54.815Z</time></trkpt><trkpt lat="43.3399062" lon="10.7481307"><ele>55.0</ele><time>2026-04-05T11:19:55.815Z</time></trkpt><trkpt lat="43.3397051" lon="10.7480447"><ele>55.0</ele><time>2026-04-05T11:19:56.815Z</time></trkpt><trkpt lat="43.3395084" lon="10.747963"><ele>55.0</ele><time>2026-04-05T11:19:57.815Z</time></trkpt><trkpt lat="43.3393117" lon="10.7478887"><ele>55.0</ele><time>2026-04-05T11:19:58.815Z</time></trkpt><trkpt lat="43.3391069" lon="10.7478335"><ele>55.0</ele><time>2026-04-05T11:19:59.815Z</time></trkpt><trkpt lat="43.3389025" lon="10.7478002"><ele>54.0</ele><time>2026-04-05T11:20:00.816Z</time></trkpt><trkpt lat="43.3386955" lon="10.7477963"><ele>53.0</ele><time>2026-04-05T11:20:01.815Z</time></trkpt><trkpt lat="43.33849" lon="10.7478008"><ele>52.0</ele><time>2026-04-05T11:20:02.816Z</time></trkpt><trkpt lat="43.3382883" lon="10.7478124"><ele>52.0</ele><time>2026-04-05T11:20:03.815Z</time></trkpt><trkpt lat="43.3380881" lon="10.7478238"><ele>52.0</ele><time>2026-04-05T11:20:04.815Z</time></trkpt><trkpt lat="43.3378939" lon="10.7478285"><ele>52.0</ele><time>2026-04-05T11:20:05.815Z</time></trkpt><trkpt lat="43.3377093" lon="10.7478123"><ele>52.33333333333333</ele><time>2026-04-05T11:20:06.815Z</time></trkpt><trkpt lat="43.3375353" lon="10.747755"><ele>52.66666666666667</ele><time>2026-04-05T11:20:07.815Z</time></trkpt><trkpt lat="43.337373" lon="10.747679"><ele>53.0</ele><time>2026-04-05T11:20:08.815Z</time></trkpt><trkpt lat="43.3372312" lon="10.7475737"><ele>54.0</ele><time>2026-04-05T11:20:09.815Z</time></trkpt><trkpt lat="43.3370972" lon="10.747445"><ele>55.0</ele><time>2026-04-05T11:20:10.816Z</time></trkpt><trkpt lat="43.3369649" lon="10.7472971"><ele>56.0</ele><time>2026-04-05T11:20:11.816Z</time></trkpt><trkpt lat="43.3368392" lon="10.7471364"><ele>56.0</ele><time>2026-04-05T11:20:12.815Z</time></trkpt><trkpt lat="43.336711" lon="10.7469739"><ele>56.0</ele><time>2026-04-05T11:20:13.815Z</time></trkpt><trkpt lat="43.3365897" lon="10.7468106"><ele>56.0</ele><time>2026-04-05T11:20:14.815Z</time></trkpt><trkpt lat="43.3364746" lon="10.7466472"><ele>55.333333333333336</ele><time>2026-04-05T11:20:15.815Z</time></trkpt><trkpt lat="43.3363744" lon="10.74647"><ele>54.66666666666667</ele><time>2026-04-05T11:20:16.815Z</time></trkpt><trkpt lat="43.3362897" lon="10.7462683"><ele>54.0</ele><time>2026-04-05T11:20:17.815Z</time></trkpt><trkpt lat="43.3362172" lon="10.7460567"><ele>54.33333333333333</ele><time>2026-04-05T11:20:18.815Z</time></trkpt><trkpt lat="43.3361477" lon="10.7458384"><ele>54.666666666666664</ele><time>2026-04-05T11:20:19.815Z</time></trkpt><trkpt lat="43.3360899" lon="10.745628"><ele>55.0</ele><time>2026-04-05T11:20:20.815Z</time></trkpt><trkpt lat="43.3360316" lon="10.7454272"><ele>55.0</ele><time>2026-04-05T11:20:21.815Z</time></trkpt><trkpt lat="43.3359791" lon="10.7452371"><ele>55.0</ele><time>2026-04-05T11:20:22.815Z</time></trkpt><trkpt lat="43.3359261" lon="10.7450605"><ele>55.0</ele><time>2026-04-05T11:20:23.815Z</time></trkpt><trkpt lat="43.3358777" lon="10.7448892"><ele>55.0</ele><time>2026-04-05T11:20:24.816Z</time></trkpt><trkpt lat="43.3358249" lon="10.74472"><ele>55.75</ele><time>2026-04-05T11:20:25.816Z</time></trkpt><trkpt lat="43.3357757" lon="10.7445471"><ele>56.5</ele><time>2026-04-05T11:20:26.815Z</time></trkpt><trkpt lat="43.3357246" lon="10.7443835"><ele>57.25</ele><time>2026-04-05T11:20:27.815Z</time></trkpt><trkpt lat="43.3356754" lon="10.7442241"><ele>58.0</ele><time>2026-04-05T11:20:28.816Z</time></trkpt><trkpt lat="43.335633" lon="10.7440711"><ele>57.0</ele><time>2026-04-05T11:20:29.815Z</time></trkpt><trkpt lat="43.3355898" lon="10.7439087"><ele>56.0</ele><time>2026-04-05T11:20:30.815Z</time></trkpt><trkpt lat="43.3355423" lon="10.7437404"><ele>55.0</ele><time>2026-04-05T11:20:31.815Z</time></trkpt><trkpt lat="43.3354897" lon="10.7435793"><ele>54.0</ele><time>2026-04-05T11:20:32.815Z</time></trkpt><trkpt lat="43.3354419" lon="10.743418"><ele>54.0</ele><time>2026-04-05T11:20:33.815Z</time></trkpt><trkpt lat="43.3354156" lon="10.7432524"><ele>54.0</ele><time>2026-04-05T11:20:34.816Z</time></trkpt><trkpt lat="43.335406" lon="10.7430773"><ele>54.0</ele><time>2026-04-05T11:20:35.815Z</time></trkpt><trkpt lat="43.3354196" lon="10.7428988"><ele>54.0</ele><time>2026-04-05T11:20:36.816Z</time></trkpt><trkpt lat="43.3354465" lon="10.7427224"><ele>54.0</ele><time>2026-04-05T11:20:37.815Z</time></trkpt><trkpt lat="43.3354877" lon="10.7425308"><ele>54.0</ele><time>2026-04-05T11:20:38.815Z</time></trkpt><trkpt lat="43.3355311" lon="10.7423248"><ele>54.0</ele><time>2026-04-05T11:20:39.816Z</time></trkpt><trkpt lat="43.3355744" lon="10.7421099"><ele>56.33333333333333</ele><time>2026-04-05T11:20:40.815Z</time></trkpt><trkpt lat="43.335616" lon="10.7418918"><ele>58.666666666666664</ele><time>2026-04-05T11:20:41.815Z</time></trkpt><trkpt lat="43.3356624" lon="10.7416621"><ele>61.0</ele><time>2026-04-05T11:20:42.815Z</time></trkpt><trkpt lat="43.3357092" lon="10.7414333"><ele>61.0</ele><time>2026-04-05T11:20:43.815Z</time></trkpt><trkpt lat="43.3357587" lon="10.7412005"><ele>61.0</ele><time>2026-04-05T11:20:44.815Z</time></trkpt><trkpt lat="43.3358091" lon="10.7409658"><ele>61.0</ele><time>2026-04-05T11:20:45.815Z</time></trkpt><trkpt lat="43.3358591" lon="10.7407275"><ele>59.0</ele><time>2026-04-05T11:20:46.816Z</time></trkpt><trkpt lat="43.3359068" lon="10.7404851"><ele>57.0</ele><time>2026-04-05T11:20:47.815Z</time></trkpt><trkpt lat="43.3359541" lon="10.7402348"><ele>55.0</ele><time>2026-04-05T11:20:48.816Z</time></trkpt><trkpt lat="43.3360038" lon="10.7399912"><ele>54.33333333333333</ele><time>2026-04-05T11:20:49.816Z</time></trkpt><trkpt lat="43.3360564" lon="10.7397375"><ele>53.66666666666667</ele><time>2026-04-05T11:20:50.816Z</time></trkpt><trkpt lat="43.3361081" lon="10.7394911"><ele>53.0</ele><time>2026-04-05T11:20:51.816Z</time></trkpt><trkpt lat="43.3361619" lon="10.7392424"><ele>52.333333333333336</ele><time>2026-04-05T11:20:52.815Z</time></trkpt><trkpt lat="43.3362243" lon="10.7389956"><ele>51.66666666666667</ele><time>2026-04-05T11:20:53.815Z</time></trkpt><trkpt lat="43.3362888" lon="10.7387416"><ele>51.0</ele><time>2026-04-05T11:20:54.816Z</time></trkpt><trkpt lat="43.3363442" lon="10.7384882"><ele>54.33333333333333</ele><time>2026-04-05T11:20:55.815Z</time></trkpt><trkpt lat="43.3363866" lon="10.7382285"><ele>57.666666666666664</ele><time>2026-04-05T11:20:56.815Z</time></trkpt><trkpt lat="43.336414" lon="10.73796"><ele>61.0</ele><time>2026-04-05T11:20:57.815Z</time></trkpt><trkpt lat="43.3364295" lon="10.7376814"><ele>61.0</ele><time>2026-04-05T11:20:58.815Z</time></trkpt><trkpt lat="43.3364374" lon="10.7373988"><ele>61.0</ele><time>2026-04-05T11:20:59.815Z</time></trkpt><trkpt lat="43.3364358" lon="10.7371118"><ele>61.0</ele><time>2026-04-05T11:21:00.815Z</time></trkpt><trkpt lat="43.3364261" lon="10.7368256"><ele>61.33333333333333</ele><time>2026-04-05T11:21:01.815Z</time></trkpt><trkpt lat="43.3364191" lon="10.7365338"><ele>61.66666666666667</ele><time>2026-04-05T11:21:02.815Z</time></trkpt><trkpt lat="43.3364123" lon="10.7362527"><ele>62.0</ele><time>2026-04-05T11:21:03.816Z</time></trkpt><trkpt lat="43.3363955" lon="10.7359856"><ele>57.333333333333336</ele><time>2026-04-05T11:21:04.815Z</time></trkpt><trkpt lat="43.3363609" lon="10.7357381"><ele>52.66666666666667</ele><time>2026-04-05T11:21:05.816Z</time></trkpt><trkpt lat="43.3363029" lon="10.7355048"><ele>48.0</ele><time>2026-04-05T11:21:06.815Z</time></trkpt><trkpt lat="43.3362222" lon="10.7352776"><ele>49.66666666666667</ele><time>2026-04-05T11:21:07.816Z</time></trkpt><trkpt lat="43.3361214" lon="10.7350536"><ele>51.333333333333336</ele><time>2026-04-05T11:21:08.815Z</time></trkpt><trkpt lat="43.3360175" lon="10.7348201"><ele>53.0</ele><time>2026-04-05T11:21:09.814Z</time></trkpt><trkpt lat="43.3359087" lon="10.7345863"><ele>56.0</ele><time>2026-04-05T11:21:10.815Z</time></trkpt><trkpt lat="43.3357954" lon="10.7343491"><ele>59.0</ele><time>2026-04-05T11:21:11.816Z</time></trkpt><trkpt lat="43.3356826" lon="10.734111"><ele>62.0</ele><time>2026-04-05T11:21:12.815Z</time></trkpt><trkpt lat="43.3355687" lon="10.7338692"><ele>58.0</ele><time>2026-04-05T11:21:13.816Z</time></trkpt><trkpt lat="43.3354611" lon="10.7336289"><ele>54.0</ele><time>2026-04-05T11:21:14.815Z</time></trkpt><trkpt lat="43.3353633" lon="10.7333861"><ele>50.0</ele><time>2026-04-05T11:21:15.816Z</time></trkpt><trkpt lat="43.3352756" lon="10.733146"><ele>50.0</ele><time>2026-04-05T11:21:16.815Z</time></trkpt><trkpt lat="43.3351921" lon="10.7329183"><ele>50.0</ele><time>2026-04-05T11:21:17.815Z</time></trkpt><trkpt lat="43.3351241" lon="10.7326969"><ele>50.0</ele><time>2026-04-05T11:21:18.815Z</time></trkpt><trkpt lat="43.3350763" lon="10.7324715"><ele>51.66666666666667</ele><time>2026-04-05T11:21:19.815Z</time></trkpt><trkpt lat="43.3350536" lon="10.7322286"><ele>53.33333333333333</ele><time>2026-04-05T11:21:20.815Z</time></trkpt><trkpt lat="43.335058" lon="10.7319765"><ele>55.0</ele><time>2026-04-05T11:21:21.815Z</time></trkpt><trkpt lat="43.3350751" lon="10.7317143"><ele>55.0</ele><time>2026-04-05T11:21:22.816Z</time></trkpt><trkpt lat="43.335094" lon="10.731439"><ele>55.0</ele><time>2026-04-05T11:21:23.816Z</time></trkpt><trkpt lat="43.3351175" lon="10.7311615"><ele>55.0</ele><time>2026-04-05T11:21:24.816Z</time></trkpt><trkpt lat="43.3351376" lon="10.7308884"><ele>55.0</ele><time>2026-04-05T11:21:25.815Z</time></trkpt><trkpt lat="43.3351593" lon="10.7306198"><ele>55.0</ele><time>2026-04-05T11:21:26.815Z</time></trkpt><trkpt lat="43.3351822" lon="10.7303638"><ele>55.0</ele><time>2026-04-05T11:21:27.815Z</time></trkpt><trkpt lat="43.3351973" lon="10.7301082"><ele>55.0</ele><time>2026-04-05T11:21:28.816Z</time></trkpt><trkpt lat="43.3351996" lon="10.7298543"><ele>55.0</ele><time>2026-04-05T11:21:29.815Z</time></trkpt><trkpt lat="43.3351864" lon="10.7296157"><ele>55.0</ele><time>2026-04-05T11:21:30.816Z</time></trkpt><trkpt lat="43.3351708" lon="10.729396"><ele>55.33333333333333</ele><time>2026-04-05T11:21:31.815Z</time></trkpt><trkpt lat="43.3351511" lon="10.7291769"><ele>55.66666666666667</ele><time>2026-04-05T11:21:32.815Z</time></trkpt><trkpt lat="43.3351207" lon="10.7289467"><ele>56.0</ele><time>2026-04-05T11:21:33.815Z</time></trkpt><trkpt lat="43.3350818" lon="10.7286952"><ele>56.333333333333336</ele><time>2026-04-05T11:21:34.815Z</time></trkpt><trkpt lat="43.3350426" lon="10.7284233"><ele>56.66666666666667</ele><time>2026-04-05T11:21:35.814Z</time></trkpt><trkpt lat="43.3350109" lon="10.7281489"><ele>57.0</ele><time>2026-04-05T11:21:36.815Z</time></trkpt><trkpt lat="43.3349857" lon="10.7278593"><ele>57.33333333333333</ele><time>2026-04-05T11:21:37.815Z</time></trkpt><trkpt lat="43.3349535" lon="10.7275708"><ele>57.666666666666664</ele><time>2026-04-05T11:21:38.816Z</time></trkpt><trkpt lat="43.3349171" lon="10.7272818"><ele>58.0</ele><time>2026-04-05T11:21:39.815Z</time></trkpt><trkpt lat="43.3348802" lon="10.7269897"><ele>58.666666666666664</ele><time>2026-04-05T11:21:40.815Z</time></trkpt><trkpt lat="43.3348382" lon="10.7266979"><ele>59.33333333333333</ele><time>2026-04-05T11:21:41.815Z</time></trkpt><trkpt lat="43.3347938" lon="10.726403"><ele>60.0</ele><time>2026-04-05T11:21:42.815Z</time></trkpt><trkpt lat="43.3347514" lon="10.7261081"><ele>56.66666666666667</ele><time>2026-04-05T11:21:43.816Z</time></trkpt><trkpt lat="43.3347151" lon="10.7258143"><ele>53.333333333333336</ele><time>2026-04-05T11:21:44.815Z</time></trkpt><trkpt lat="43.3346776" lon="10.7255436"><ele>50.0</ele><time>2026-04-05T11:21:45.816Z</time></trkpt><trkpt lat="43.3346322" lon="10.725289"><ele>51.0</ele><time>2026-04-05T11:21:46.816Z</time></trkpt><trkpt lat="43.3345701" lon="10.725061"><ele>52.0</ele><time>2026-04-05T11:21:47.815Z</time></trkpt><trkpt lat="43.3344824" lon="10.7248541"><ele>53.0</ele><time>2026-04-05T11:21:48.816Z</time></trkpt><trkpt lat="43.3343749" lon="10.7246592"><ele>53.0</ele><time>2026-04-05T11:21:49.815Z</time></trkpt><trkpt lat="43.3342646" lon="10.7244733"><ele>53.0</ele><time>2026-04-05T11:21:50.815Z</time></trkpt><trkpt lat="43.334158" lon="10.7242851"><ele>53.0</ele><time>2026-04-05T11:21:51.815Z</time></trkpt><trkpt lat="43.3340603" lon="10.7240835"><ele>52.0</ele><time>2026-04-05T11:21:52.816Z</time></trkpt><trkpt lat="43.3339738" lon="10.7238547"><ele>51.0</ele><time>2026-04-05T11:21:53.816Z</time></trkpt><trkpt lat="43.3339059" lon="10.7236054"><ele>50.0</ele><time>2026-04-05T11:21:54.815Z</time></trkpt><trkpt lat="43.3338488" lon="10.7233295"><ele>50.0</ele><time>2026-04-05T11:21:55.817Z</time></trkpt><trkpt lat="43.3337886" lon="10.7230484"><ele>50.0</ele><time>2026-04-05T11:21:56.815Z</time></trkpt><trkpt lat="43.3337256" lon="10.7227658"><ele>50.0</ele><time>2026-04-05T11:21:57.816Z</time></trkpt><trkpt lat="43.3336634" lon="10.7224825"><ele>50.0</ele><time>2026-04-05T11:21:58.815Z</time></trkpt><trkpt lat="43.333599" lon="10.7221921"><ele>50.0</ele><time>2026-04-05T11:21:59.815Z</time></trkpt><trkpt lat="43.3335271" lon="10.7218907"><ele>50.0</ele><time>2026-04-05T11:22:00.814Z</time></trkpt><trkpt lat="43.333455" lon="10.7215847"><ele>50.0</ele><time>2026-04-05T11:22:01.816Z</time></trkpt><trkpt lat="43.3333847" lon="10.7212755"><ele>49.5</ele><time>2026-04-05T11:22:02.814Z</time></trkpt><trkpt lat="43.3333191" lon="10.7209653"><ele>49.0</ele><time>2026-04-05T11:22:03.815Z</time></trkpt><trkpt lat="43.3332591" lon="10.7206699"><ele>49.0</ele><time>2026-04-05T11:22:04.816Z</time></trkpt><trkpt lat="43.3331979" lon="10.7203862"><ele>49.0</ele><time>2026-04-05T11:22:05.815Z</time></trkpt><trkpt lat="43.3331394" lon="10.7201114"><ele>49.0</ele><time>2026-04-05T11:22:06.816Z</time></trkpt><trkpt lat="43.3330779" lon="10.7198412"><ele>48.33333333333333</ele><time>2026-04-05T11:22:07.814Z</time></trkpt><trkpt lat="43.3330174" lon="10.719573"><ele>47.666666666666664</ele><time>2026-04-05T11:22:08.815Z</time></trkpt><trkpt lat="43.332958" lon="10.7193075"><ele>47.0</ele><time>2026-04-05T11:22:09.815Z</time></trkpt><trkpt lat="43.332906" lon="10.7190512"><ele>47.0</ele><time>2026-04-05T11:22:10.815Z</time></trkpt><trkpt lat="43.33287" lon="10.7187838"><ele>47.0</ele><time>2026-04-05T11:22:11.816Z</time></trkpt><trkpt lat="43.3328444" lon="10.7185147"><ele>47.0</ele><time>2026-04-05T11:22:12.815Z</time></trkpt><trkpt lat="43.3328226" lon="10.7182407"><ele>48.666666666666664</ele><time>2026-04-05T11:22:13.816Z</time></trkpt><trkpt lat="43.3328072" lon="10.7179574"><ele>50.33333333333333</ele><time>2026-04-05T11:22:14.815Z</time></trkpt><trkpt lat="43.3327863" lon="10.7176677"><ele>52.0</ele><time>2026-04-05T11:22:15.815Z</time></trkpt><trkpt lat="43.3327704" lon="10.7173793"><ele>52.33333333333333</ele><time>2026-04-05T11:22:16.815Z</time></trkpt><trkpt lat="43.3327563" lon="10.7170883"><ele>52.66666666666667</ele><time>2026-04-05T11:22:17.816Z</time></trkpt><trkpt lat="43.3327388" lon="10.7168002"><ele>53.0</ele><time>2026-04-05T11:22:18.815Z</time></trkpt><trkpt lat="43.3327147" lon="10.716512"><ele>53.0</ele><time>2026-04-05T11:22:19.815Z</time></trkpt><trkpt lat="43.3326938" lon="10.7162242"><ele>53.0</ele><time>2026-04-05T11:22:20.815Z</time></trkpt><trkpt lat="43.3326723" lon="10.7159361"><ele>53.0</ele><time>2026-04-05T11:22:21.816Z</time></trkpt><trkpt lat="43.3326506" lon="10.7156406"><ele>53.0</ele><time>2026-04-05T11:22:22.815Z</time></trkpt><trkpt lat="43.3326358" lon="10.7153471"><ele>53.0</ele><time>2026-04-05T11:22:23.815Z</time></trkpt><trkpt lat="43.3326126" lon="10.7150523"><ele>53.0</ele><time>2026-04-05T11:22:24.815Z</time></trkpt><trkpt lat="43.3325846" lon="10.714768"><ele>50.66666666666667</ele><time>2026-04-05T11:22:25.816Z</time></trkpt><trkpt lat="43.3325566" lon="10.7144921"><ele>48.333333333333336</ele><time>2026-04-05T11:22:26.815Z</time></trkpt><trkpt lat="43.3325368" lon="10.7142212"><ele>46.0</ele><time>2026-04-05T11:22:27.815Z</time></trkpt><trkpt lat="43.3325155" lon="10.7139527"><ele>45.66666666666667</ele><time>2026-04-05T11:22:28.816Z</time></trkpt><trkpt lat="43.3324929" lon="10.7137033"><ele>45.333333333333336</ele><time>2026-04-05T11:22:29.815Z</time></trkpt><trkpt lat="43.3324555" lon="10.7134682"><ele>45.0</ele><time>2026-04-05T11:22:30.816Z</time></trkpt><trkpt lat="43.3324002" lon="10.7132368"><ele>46.0</ele><time>2026-04-05T11:22:31.815Z</time></trkpt><trkpt lat="43.3323277" lon="10.7130105"><ele>47.0</ele><time>2026-04-05T11:22:32.816Z</time></trkpt><trkpt lat="43.3322311" lon="10.7127804"><ele>48.0</ele><time>2026-04-05T11:22:33.815Z</time></trkpt><trkpt lat="43.332117" lon="10.7125479"><ele>48.0</ele><time>2026-04-05T11:22:34.816Z</time></trkpt><trkpt lat="43.3319882" lon="10.7123222"><ele>48.0</ele><time>2026-04-05T11:22:35.815Z</time></trkpt><trkpt lat="43.3318477" lon="10.7120933"><ele>48.0</ele><time>2026-04-05T11:22:36.815Z</time></trkpt><trkpt lat="43.3317004" lon="10.7118557"><ele>47.5</ele><time>2026-04-05T11:22:37.816Z</time></trkpt><trkpt lat="43.3315508" lon="10.7116161"><ele>47.0</ele><time>2026-04-05T11:22:38.815Z</time></trkpt><trkpt lat="43.3314067" lon="10.7113778"><ele>46.33333333333333</ele><time>2026-04-05T11:22:39.815Z</time></trkpt><trkpt lat="43.3312657" lon="10.7111364"><ele>45.666666666666664</ele><time>2026-04-05T11:22:40.816Z</time></trkpt><trkpt lat="43.3311274" lon="10.710899"><ele>45.0</ele><time>2026-04-05T11:22:41.816Z</time></trkpt><trkpt lat="43.3309955" lon="10.7106705"><ele>46.33333333333333</ele><time>2026-04-05T11:22:42.815Z</time></trkpt><trkpt lat="43.3308624" lon="10.7104475"><ele>47.666666666666664</ele><time>2026-04-05T11:22:43.815Z</time></trkpt><trkpt lat="43.3307372" lon="10.7102129"><ele>49.0</ele><time>2026-04-05T11:22:44.816Z</time></trkpt><trkpt lat="43.3306255" lon="10.7099634"><ele>48.33333333333333</ele><time>2026-04-05T11:22:45.816Z</time></trkpt><trkpt lat="43.3305206" lon="10.7097033"><ele>47.666666666666664</ele><time>2026-04-05T11:22:46.816Z</time></trkpt><trkpt lat="43.3304295" lon="10.709427"><ele>47.0</ele><time>2026-04-05T11:22:47.815Z</time></trkpt><trkpt lat="43.3303519" lon="10.709144"><ele>47.0</ele><time>2026-04-05T11:22:48.816Z</time></trkpt><trkpt lat="43.330284" lon="10.7088486"><ele>47.0</ele><time>2026-04-05T11:22:49.815Z</time></trkpt><trkpt lat="43.3302127" lon="10.7085475"><ele>48.0</ele><time>2026-04-05T11:22:50.815Z</time></trkpt><trkpt lat="43.3301376" lon="10.708251"><ele>49.0</ele><time>2026-04-05T11:22:51.816Z</time></trkpt><trkpt lat="43.3300639" lon="10.707948"><ele>50.0</ele><time>2026-04-05T11:22:52.816Z</time></trkpt><trkpt lat="43.3299971" lon="10.70765"><ele>51.0</ele><time>2026-04-05T11:22:53.815Z</time></trkpt><trkpt lat="43.3299408" lon="10.7073645"><ele>52.0</ele><time>2026-04-05T11:22:54.816Z</time></trkpt><trkpt lat="43.3298979" lon="10.707075"><ele>53.0</ele><time>2026-04-05T11:22:55.815Z</time></trkpt><trkpt lat="43.3298685" lon="10.706781"><ele>54.0</ele><time>2026-04-05T11:22:56.815Z</time></trkpt><trkpt lat="43.3298564" lon="10.706478"><ele>55.0</ele><time>2026-04-05T11:22:57.815Z</time></trkpt><trkpt lat="43.3298544" lon="10.7061729"><ele>55.0</ele><time>2026-04-05T11:22:58.815Z</time></trkpt><trkpt lat="43.3298564" lon="10.7058864"><ele>55.0</ele><time>2026-04-05T11:22:59.815Z</time></trkpt><trkpt lat="43.3298585" lon="10.7056083"><ele>55.0</ele><time>2026-04-05T11:23:00.815Z</time></trkpt><trkpt lat="43.3298588" lon="10.705343"><ele>53.666666666666664</ele><time>2026-04-05T11:23:01.815Z</time></trkpt><trkpt lat="43.3298581" lon="10.7050745"><ele>52.33333333333333</ele><time>2026-04-05T11:23:02.816Z</time></trkpt><trkpt lat="43.3298534" lon="10.7048093"><ele>51.0</ele><time>2026-04-05T11:23:03.816Z</time></trkpt><trkpt lat="43.329839" lon="10.7045476"><ele>51.0</ele><time>2026-04-05T11:23:04.815Z</time></trkpt><trkpt lat="43.3298019" lon="10.7042735"><ele>51.0</ele><time>2026-04-05T11:23:05.815Z</time></trkpt><trkpt lat="43.3297498" lon="10.7039812"><ele>51.0</ele><time>2026-04-05T11:23:06.816Z</time></trkpt><trkpt lat="43.3296912" lon="10.7036955"><ele>49.0</ele><time>2026-04-05T11:23:07.815Z</time></trkpt><trkpt lat="43.3296279" lon="10.7034032"><ele>47.0</ele><time>2026-04-05T11:23:08.815Z</time></trkpt><trkpt lat="43.3295694" lon="10.7031128"><ele>45.0</ele><time>2026-04-05T11:23:09.814Z</time></trkpt><trkpt lat="43.3295077" lon="10.7028296"><ele>45.333333333333336</ele><time>2026-04-05T11:23:10.815Z</time></trkpt><trkpt lat="43.3294402" lon="10.7025579"><ele>45.66666666666667</ele><time>2026-04-05T11:23:11.816Z</time></trkpt><trkpt lat="43.3293717" lon="10.7022858"><ele>46.0</ele><time>2026-04-05T11:23:12.816Z</time></trkpt><trkpt lat="43.3293066" lon="10.7020158"><ele>47.0</ele><time>2026-04-05T11:23:13.815Z</time></trkpt><trkpt lat="43.3292469" lon="10.7017457"><ele>48.0</ele><time>2026-04-05T11:23:14.815Z</time></trkpt><trkpt lat="43.329196" lon="10.7014788"><ele>49.0</ele><time>2026-04-05T11:23:15.815Z</time></trkpt><trkpt lat="43.3291592" lon="10.7012158"><ele>50.0</ele><time>2026-04-05T11:23:16.816Z</time></trkpt><trkpt lat="43.329139" lon="10.700945"><ele>51.0</ele><time>2026-04-05T11:23:17.816Z</time></trkpt><trkpt lat="43.3291306" lon="10.7006754"><ele>52.0</ele><time>2026-04-05T11:23:18.815Z</time></trkpt><trkpt lat="43.3291422" lon="10.7004007"><ele>52.0</ele><time>2026-04-05T11:23:19.816Z</time></trkpt><trkpt lat="43.3291627" lon="10.7001221"><ele>52.0</ele><time>2026-04-05T11:23:20.816Z</time></trkpt><trkpt lat="43.3291996" lon="10.699844"><ele>52.0</ele><time>2026-04-05T11:23:21.815Z</time></trkpt><trkpt lat="43.3292593" lon="10.6995662"><ele>50.0</ele><time>2026-04-05T11:23:22.815Z</time></trkpt><trkpt lat="43.3293293" lon="10.6992872"><ele>48.0</ele><time>2026-04-05T11:23:23.815Z</time></trkpt><trkpt lat="43.3294258" lon="10.6990089"><ele>46.0</ele><time>2026-04-05T11:23:24.815Z</time></trkpt><trkpt lat="43.3295237" lon="10.698726"><ele>45.0</ele><time>2026-04-05T11:23:25.815Z</time></trkpt><trkpt lat="43.3296253" lon="10.6984407"><ele>44.0</ele><time>2026-04-05T11:23:26.815Z</time></trkpt><trkpt lat="43.3297237" lon="10.6981606"><ele>43.666666666666664</ele><time>2026-04-05T11:23:27.816Z</time></trkpt><trkpt lat="43.3298223" lon="10.6978844"><ele>43.333333333333336</ele><time>2026-04-05T11:23:28.815Z</time></trkpt><trkpt lat="43.3299138" lon="10.697606"><ele>43.0</ele><time>2026-04-05T11:23:29.815Z</time></trkpt><trkpt lat="43.3299941" lon="10.6973192"><ele>43.0</ele><time>2026-04-05T11:23:30.815Z</time></trkpt><trkpt lat="43.3300654" lon="10.6970286"><ele>43.0</ele><time>2026-04-05T11:23:31.815Z</time></trkpt><trkpt lat="43.3301302" lon="10.6967323"><ele>43.0</ele><time>2026-04-05T11:23:32.816Z</time></trkpt><trkpt lat="43.3301823" lon="10.6964299"><ele>43.0</ele><time>2026-04-05T11:23:33.815Z</time></trkpt><trkpt lat="43.3302245" lon="10.6961196"><ele>43.0</ele><time>2026-04-05T11:23:34.816Z</time></trkpt><trkpt lat="43.3302615" lon="10.6958077"><ele>43.5</ele><time>2026-04-05T11:23:35.815Z</time></trkpt><trkpt lat="43.3302968" lon="10.6954934"><ele>44.0</ele><time>2026-04-05T11:23:36.816Z</time></trkpt><trkpt lat="43.3303278" lon="10.6951738"><ele>44.0</ele><time>2026-04-05T11:23:37.816Z</time></trkpt><trkpt lat="43.3303404" lon="10.6948477"><ele>44.0</ele><time>2026-04-05T11:23:38.815Z</time></trkpt><trkpt lat="43.3303312" lon="10.6945224"><ele>45.0</ele><time>2026-04-05T11:23:39.815Z</time></trkpt><trkpt lat="43.3303114" lon="10.6941915"><ele>46.0</ele><time>2026-04-05T11:23:40.816Z</time></trkpt><trkpt lat="43.3302727" lon="10.6938667"><ele>47.0</ele><time>2026-04-05T11:23:41.816Z</time></trkpt><trkpt lat="43.3302237" lon="10.6935387"><ele>48.0</ele><time>2026-04-05T11:23:42.815Z</time></trkpt><trkpt lat="43.3301696" lon="10.6932246"><ele>48.0</ele><time>2026-04-05T11:23:43.815Z</time></trkpt><trkpt lat="43.3301093" lon="10.6929138"><ele>48.0</ele><time>2026-04-05T11:23:44.815Z</time></trkpt><trkpt lat="43.3300467" lon="10.6926071"><ele>47.333333333333336</ele><time>2026-04-05T11:23:45.816Z</time></trkpt><trkpt lat="43.3299787" lon="10.6923108"><ele>46.66666666666667</ele><time>2026-04-05T11:23:46.816Z</time></trkpt><trkpt lat="43.3299172" lon="10.6920375"><ele>46.0</ele><time>2026-04-05T11:23:47.815Z</time></trkpt><trkpt lat="43.3298615" lon="10.6917826"><ele>44.66666666666667</ele><time>2026-04-05T11:23:48.815Z</time></trkpt><trkpt lat="43.3297905" lon="10.6915247"><ele>43.333333333333336</ele><time>2026-04-05T11:23:49.816Z</time></trkpt><trkpt lat="43.3297007" lon="10.6912701"><ele>42.0</ele><time>2026-04-05T11:23:50.815Z</time></trkpt><trkpt lat="43.3295972" lon="10.6910013"><ele>41.5</ele><time>2026-04-05T11:23:51.815Z</time></trkpt><trkpt lat="43.3294873" lon="10.6907257"><ele>41.0</ele><time>2026-04-05T11:23:52.815Z</time></trkpt><trkpt lat="43.3293759" lon="10.6904453"><ele>41.5</ele><time>2026-04-05T11:23:53.816Z</time></trkpt><trkpt lat="43.3292693" lon="10.6901617"><ele>42.0</ele><time>2026-04-05T11:23:54.815Z</time></trkpt><trkpt lat="43.3291612" lon="10.6898731"><ele>42.0</ele><time>2026-04-05T11:23:55.816Z</time></trkpt><trkpt lat="43.3290503" lon="10.6895902"><ele>42.0</ele><time>2026-04-05T11:23:56.816Z</time></trkpt><trkpt lat="43.3289414" lon="10.6893063"><ele>41.5</ele><time>2026-04-05T11:23:57.815Z</time></trkpt><trkpt lat="43.3288331" lon="10.6890174"><ele>41.0</ele><time>2026-04-05T11:23:58.815Z</time></trkpt><trkpt lat="43.32873" lon="10.6887164"><ele>42.0</ele><time>2026-04-05T11:23:59.816Z</time></trkpt><trkpt lat="43.3286348" lon="10.6884169"><ele>43.0</ele><time>2026-04-05T11:24:00.815Z</time></trkpt><trkpt lat="43.3285534" lon="10.6881086"><ele>43.0</ele><time>2026-04-05T11:24:01.816Z</time></trkpt><trkpt lat="43.3284873" lon="10.6877925"><ele>43.0</ele><time>2026-04-05T11:24:02.815Z</time></trkpt><trkpt lat="43.3284425" lon="10.6874652"><ele>43.5</ele><time>2026-04-05T11:24:03.816Z</time></trkpt><trkpt lat="43.3284102" lon="10.6871397"><ele>44.0</ele><time>2026-04-05T11:24:04.816Z</time></trkpt><trkpt lat="43.3284013" lon="10.6868046"><ele>44.5</ele><time>2026-04-05T11:24:05.816Z</time></trkpt><trkpt lat="43.3284049" lon="10.6864658"><ele>45.0</ele><time>2026-04-05T11:24:06.815Z</time></trkpt><trkpt lat="43.3284336" lon="10.6861246"><ele>45.0</ele><time>2026-04-05T11:24:07.815Z</time></trkpt><trkpt lat="43.3284827" lon="10.6857796"><ele>45.0</ele><time>2026-04-05T11:24:08.815Z</time></trkpt><trkpt lat="43.3285472" lon="10.6854385"><ele>44.5</ele><time>2026-04-05T11:24:09.815Z</time></trkpt><trkpt lat="43.3286242" lon="10.6850933"><ele>44.0</ele><time>2026-04-05T11:24:10.816Z</time></trkpt><trkpt lat="43.3287033" lon="10.6847502"><ele>43.0</ele><time>2026-04-05T11:24:11.816Z</time></trkpt><trkpt lat="43.3287872" lon="10.6844037"><ele>42.0</ele><time>2026-04-05T11:24:12.816Z</time></trkpt><trkpt lat="43.3288747" lon="10.6840601"><ele>42.0</ele><time>2026-04-05T11:24:13.815Z</time></trkpt><trkpt lat="43.3289701" lon="10.6837104"><ele>42.0</ele><time>2026-04-05T11:24:14.815Z</time></trkpt><trkpt lat="43.3290543" lon="10.6833582"><ele>42.0</ele><time>2026-04-05T11:24:15.815Z</time></trkpt><trkpt lat="43.3291323" lon="10.6830011"><ele>42.0</ele><time>2026-04-05T11:24:16.815Z</time></trkpt><trkpt lat="43.3292045" lon="10.682642"><ele>41.0</ele><time>2026-04-05T11:24:17.815Z</time></trkpt><trkpt lat="43.3292754" lon="10.682285"><ele>40.0</ele><time>2026-04-05T11:24:18.815Z</time></trkpt><trkpt lat="43.3293444" lon="10.6819308"><ele>39.0</ele><time>2026-04-05T11:24:19.816Z</time></trkpt><trkpt lat="43.3294084" lon="10.6815923"><ele>38.0</ele><time>2026-04-05T11:24:20.816Z</time></trkpt><trkpt lat="43.3294712" lon="10.6812675"><ele>38.0</ele><time>2026-04-05T11:24:21.815Z</time></trkpt><trkpt lat="43.329525" lon="10.6809393"><ele>38.0</ele><time>2026-04-05T11:24:22.816Z</time></trkpt><trkpt lat="43.329573" lon="10.6806074"><ele>38.0</ele><time>2026-04-05T11:24:23.816Z</time></trkpt><trkpt lat="43.3296155" lon="10.6802741"><ele>38.0</ele><time>2026-04-05T11:24:24.816Z</time></trkpt><trkpt lat="43.3296575" lon="10.6799403"><ele>38.5</ele><time>2026-04-05T11:24:25.816Z</time></trkpt><trkpt lat="43.3296952" lon="10.6795982"><ele>39.0</ele><time>2026-04-05T11:24:26.816Z</time></trkpt><trkpt lat="43.3297287" lon="10.679254"><ele>43.5</ele><time>2026-04-05T11:24:27.815Z</time></trkpt><trkpt lat="43.3297563" lon="10.6789071"><ele>48.0</ele><time>2026-04-05T11:24:28.816Z</time></trkpt><trkpt lat="43.3297806" lon="10.6785642"><ele>48.5</ele><time>2026-04-05T11:24:29.815Z</time></trkpt><trkpt lat="43.3298029" lon="10.6782099"><ele>49.0</ele><time>2026-04-05T11:24:30.817Z</time></trkpt><trkpt lat="43.329821" lon="10.6778501"><ele>45.0</ele><time>2026-04-05T11:24:31.815Z</time></trkpt><trkpt lat="43.329839" lon="10.6774993"><ele>41.0</ele><time>2026-04-05T11:24:32.815Z</time></trkpt><trkpt lat="43.3298541" lon="10.6771434"><ele>39.0</ele><time>2026-04-05T11:24:33.815Z</time></trkpt><trkpt lat="43.3298664" lon="10.6767898"><ele>37.0</ele><time>2026-04-05T11:24:34.815Z</time></trkpt><trkpt lat="43.3298691" lon="10.6764352"><ele>37.5</ele><time>2026-04-05T11:24:35.815Z</time></trkpt><trkpt lat="43.3298666" lon="10.676091"><ele>38.0</ele><time>2026-04-05T11:24:36.816Z</time></trkpt><trkpt lat="43.3298591" lon="10.675738"><ele>38.0</ele><time>2026-04-05T11:24:37.816Z</time></trkpt><trkpt lat="43.3298487" lon="10.6753836"><ele>38.0</ele><time>2026-04-05T11:24:38.816Z</time></trkpt><trkpt lat="43.3298352" lon="10.6750348"><ele>38.0</ele><time>2026-04-05T11:24:39.815Z</time></trkpt><trkpt lat="43.3298156" lon="10.6746866"><ele>38.0</ele><time>2026-04-05T11:24:40.816Z</time></trkpt><trkpt lat="43.3297907" lon="10.6743389"><ele>39.0</ele><time>2026-04-05T11:24:41.816Z</time></trkpt><trkpt lat="43.3297593" lon="10.6739895"><ele>40.0</ele><time>2026-04-05T11:24:42.816Z</time></trkpt><trkpt lat="43.3297273" lon="10.6736437"><ele>38.5</ele><time>2026-04-05T11:24:43.815Z</time></trkpt><trkpt lat="43.3296966" lon="10.6733121"><ele>37.0</ele><time>2026-04-05T11:24:44.815Z</time></trkpt><trkpt lat="43.3296653" lon="10.6729936"><ele>37.333333333333336</ele><time>2026-04-05T11:24:45.815Z</time></trkpt><trkpt lat="43.3296315" lon="10.6726943"><ele>37.666666666666664</ele><time>2026-04-05T11:24:46.815Z</time></trkpt><trkpt lat="43.3295943" lon="10.6724162"><ele>38.0</ele><time>2026-04-05T11:24:47.815Z</time></trkpt><trkpt lat="43.3295616" lon="10.6721521"><ele>38.0</ele><time>2026-04-05T11:24:48.816Z</time></trkpt><trkpt lat="43.3295229" lon="10.6718998"><ele>38.0</ele><time>2026-04-05T11:24:49.816Z</time></trkpt><trkpt lat="43.3294873" lon="10.6716665"><ele>38.0</ele><time>2026-04-05T11:24:50.816Z</time></trkpt><trkpt lat="43.3294527" lon="10.6714467"><ele>38.0</ele><time>2026-04-05T11:24:51.815Z</time></trkpt><trkpt lat="43.3294141" lon="10.67124"><ele>38.0</ele><time>2026-04-05T11:24:52.815Z</time></trkpt><trkpt lat="43.3293883" lon="10.6710585"><ele>38.0</ele><time>2026-04-05T11:24:53.815Z</time></trkpt><trkpt lat="43.3293668" lon="10.6708894"><ele>38.0</ele><time>2026-04-05T11:24:54.816Z</time></trkpt><trkpt lat="43.3293539" lon="10.6707523"><ele>37.83333333333333</ele><time>2026-04-05T11:24:55.815Z</time></trkpt><trkpt lat="43.3293518" lon="10.6706375"><ele>37.666666666666664</ele><time>2026-04-05T11:24:56.815Z</time></trkpt><trkpt lat="43.3293553" lon="10.670532"><ele>37.5</ele><time>2026-04-05T11:24:57.816Z</time></trkpt><trkpt lat="43.3293558" lon="10.6704166"><ele>37.333333333333336</ele><time>2026-04-05T11:24:58.816Z</time></trkpt><trkpt lat="43.3293331" lon="10.6702991"><ele>37.16666666666667</ele><time>2026-04-05T11:24:59.814Z</time></trkpt><trkpt lat="43.3292887" lon="10.6701689"><ele>37.0</ele><time>2026-04-05T11:25:00.815Z</time></trkpt><trkpt lat="43.3292393" lon="10.6700103"><ele>36.333333333333336</ele><time>2026-04-05T11:25:01.816Z</time></trkpt><trkpt lat="43.329202" lon="10.6698381"><ele>35.666666666666664</ele><time>2026-04-05T11:25:02.815Z</time></trkpt><trkpt lat="43.3291691" lon="10.6696375"><ele>35.0</ele><time>2026-04-05T11:25:03.816Z</time></trkpt><trkpt lat="43.3291383" lon="10.669406"><ele>34.666666666666664</ele><time>2026-04-05T11:25:04.815Z</time></trkpt><trkpt lat="43.3291082" lon="10.6691776"><ele>34.333333333333336</ele><time>2026-04-05T11:25:05.816Z</time></trkpt><trkpt lat="43.3290716" lon="10.6689425"><ele>34.0</ele><time>2026-04-05T11:25:06.816Z</time></trkpt><trkpt lat="43.3290364" lon="10.6687035"><ele>34.66666666666667</ele><time>2026-04-05T11:25:07.816Z</time></trkpt><trkpt lat="43.328998" lon="10.6684633"><ele>35.333333333333336</ele><time>2026-04-05T11:25:08.815Z</time></trkpt><trkpt lat="43.3289628" lon="10.66824"><ele>36.0</ele><time>2026-04-05T11:25:09.816Z</time></trkpt><trkpt lat="43.3289287" lon="10.6680334"><ele>36.0</ele><time>2026-04-05T11:25:10.815Z</time></trkpt><trkpt lat="43.3288942" lon="10.6678317"><ele>36.0</ele><time>2026-04-05T11:25:11.815Z</time></trkpt><trkpt lat="43.3288597" lon="10.6676314"><ele>36.0</ele><time>2026-04-05T11:25:12.815Z</time></trkpt><trkpt lat="43.3288272" lon="10.6674196"><ele>36.333333333333336</ele><time>2026-04-05T11:25:13.815Z</time></trkpt><trkpt lat="43.3287931" lon="10.6672069"><ele>36.66666666666667</ele><time>2026-04-05T11:25:14.815Z</time></trkpt><trkpt lat="43.328764" lon="10.6669862"><ele>37.0</ele><time>2026-04-05T11:25:15.815Z</time></trkpt><trkpt lat="43.3287308" lon="10.6667609"><ele>37.0</ele><time>2026-04-05T11:25:16.816Z</time></trkpt><trkpt lat="43.3286969" lon="10.6665353"><ele>37.0</ele><time>2026-04-05T11:25:17.815Z</time></trkpt><trkpt lat="43.3286631" lon="10.6663088"><ele>37.0</ele><time>2026-04-05T11:25:18.816Z</time></trkpt><trkpt lat="43.3286317" lon="10.6660827"><ele>37.333333333333336</ele><time>2026-04-05T11:25:19.816Z</time></trkpt><trkpt lat="43.3286056" lon="10.6658519"><ele>37.666666666666664</ele><time>2026-04-05T11:25:20.814Z</time></trkpt><trkpt lat="43.3285865" lon="10.6656316"><ele>38.0</ele><time>2026-04-05T11:25:21.815Z</time></trkpt><trkpt lat="43.3285656" lon="10.6653904"><ele>38.0</ele><time>2026-04-05T11:25:22.815Z</time></trkpt><trkpt lat="43.3285484" lon="10.6651385"><ele>38.0</ele><time>2026-04-05T11:25:23.814Z</time></trkpt><trkpt lat="43.3285291" lon="10.6648785"><ele>38.0</ele><time>2026-04-05T11:25:24.816Z</time></trkpt><trkpt lat="43.3285096" lon="10.6646081"><ele>37.0</ele><time>2026-04-05T11:25:25.816Z</time></trkpt><trkpt lat="43.3284992" lon="10.6643319"><ele>36.0</ele><time>2026-04-05T11:25:26.816Z</time></trkpt><trkpt lat="43.3285038" lon="10.664061"><ele>35.0</ele><time>2026-04-05T11:25:27.815Z</time></trkpt><trkpt lat="43.3285328" lon="10.6637972"><ele>35.0</ele><time>2026-04-05T11:25:28.815Z</time></trkpt><trkpt lat="43.3285899" lon="10.6635414"><ele>35.0</ele><time>2026-04-05T11:25:29.815Z</time></trkpt><trkpt lat="43.3286713" lon="10.6632931"><ele>35.0</ele><time>2026-04-05T11:25:30.815Z</time></trkpt><trkpt lat="43.3287806" lon="10.6630686"><ele>35.0</ele><time>2026-04-05T11:25:31.816Z</time></trkpt><trkpt lat="43.3289065" lon="10.6628698"><ele>35.0</ele><time>2026-04-05T11:25:32.816Z</time></trkpt><trkpt lat="43.3290513" lon="10.6627035"><ele>35.0</ele><time>2026-04-05T11:25:33.815Z</time></trkpt><trkpt lat="43.3292185" lon="10.6625575"><ele>35.0</ele><time>2026-04-05T11:25:34.815Z</time></trkpt><trkpt lat="43.3294063" lon="10.6624289"><ele>35.0</ele><time>2026-04-05T11:25:35.816Z</time></trkpt><trkpt lat="43.3296088" lon="10.6623243"><ele>35.0</ele><time>2026-04-05T11:25:36.816Z</time></trkpt><trkpt lat="43.3298165" lon="10.6622251"><ele>36.5</ele><time>2026-04-05T11:25:37.815Z</time></trkpt><trkpt lat="43.330031" lon="10.6621276"><ele>38.0</ele><time>2026-04-05T11:25:38.815Z</time></trkpt><trkpt lat="43.3302476" lon="10.6620262"><ele>37.0</ele><time>2026-04-05T11:25:39.815Z</time></trkpt><trkpt lat="43.3304659" lon="10.6619156"><ele>36.0</ele><time>2026-04-05T11:25:40.815Z</time></trkpt><trkpt lat="43.3306866" lon="10.661785"><ele>38.0</ele><time>2026-04-05T11:25:41.816Z</time></trkpt><trkpt lat="43.3309063" lon="10.6616399"><ele>40.0</ele><time>2026-04-05T11:25:42.814Z</time></trkpt><trkpt lat="43.3311219" lon="10.6614755"><ele>40.0</ele><time>2026-04-05T11:25:43.816Z</time></trkpt><trkpt lat="43.3313345" lon="10.6612976"><ele>40.0</ele><time>2026-04-05T11:25:44.816Z</time></trkpt><trkpt lat="43.3315411" lon="10.6611024"><ele>38.0</ele><time>2026-04-05T11:25:45.815Z</time></trkpt><trkpt lat="43.3317401" lon="10.6608892"><ele>36.0</ele><time>2026-04-05T11:25:46.815Z</time></trkpt><trkpt lat="43.3319316" lon="10.66066"><ele>36.0</ele><time>2026-04-05T11:25:47.816Z</time></trkpt><trkpt lat="43.332115" lon="10.6604126"><ele>36.0</ele><time>2026-04-05T11:25:48.814Z</time></trkpt><trkpt lat="43.3322871" lon="10.6601488"><ele>37.5</ele><time>2026-04-05T11:25:49.815Z</time></trkpt><trkpt lat="43.3324498" lon="10.6598714"><ele>39.0</ele><time>2026-04-05T11:25:50.816Z</time></trkpt><trkpt lat="43.3326098" lon="10.659591"><ele>37.0</ele><time>2026-04-05T11:25:51.815Z</time></trkpt><trkpt lat="43.3327684" lon="10.6593102"><ele>35.0</ele><time>2026-04-05T11:25:52.815Z</time></trkpt><trkpt lat="43.3329215" lon="10.6590244"><ele>35.5</ele><time>2026-04-05T11:25:53.815Z</time></trkpt><trkpt lat="43.3330772" lon="10.658738"><ele>36.0</ele><time>2026-04-05T11:25:54.816Z</time></trkpt><trkpt lat="43.333235" lon="10.6584543"><ele>34.0</ele><time>2026-04-05T11:25:55.815Z</time></trkpt><trkpt lat="43.3333925" lon="10.6581664"><ele>32.0</ele><time>2026-04-05T11:25:56.816Z</time></trkpt><trkpt lat="43.3335546" lon="10.6578738"><ele>32.0</ele><time>2026-04-05T11:25:57.815Z</time></trkpt><trkpt lat="43.3337153" lon="10.6575847"><ele>32.0</ele><time>2026-04-05T11:25:58.815Z</time></trkpt><trkpt lat="43.3338772" lon="10.6572955"><ele>32.5</ele><time>2026-04-05T11:25:59.816Z</time></trkpt><trkpt lat="43.3340363" lon="10.6570046"><ele>33.0</ele><time>2026-04-05T11:26:00.817Z</time></trkpt><trkpt lat="43.3341952" lon="10.6567145"><ele>33.0</ele><time>2026-04-05T11:26:01.816Z</time></trkpt><trkpt lat="43.3343491" lon="10.6564236"><ele>33.0</ele><time>2026-04-05T11:26:02.816Z</time></trkpt><trkpt lat="43.3344988" lon="10.6561524"><ele>32.0</ele><time>2026-04-05T11:26:03.815Z</time></trkpt><trkpt lat="43.3346459" lon="10.655872"><ele>31.0</ele><time>2026-04-05T11:26:04.816Z</time></trkpt><trkpt lat="43.3347955" lon="10.6555894"><ele>32.0</ele><time>2026-04-05T11:26:05.816Z</time></trkpt><trkpt lat="43.3349474" lon="10.6553031"><ele>33.0</ele><time>2026-04-05T11:26:06.815Z</time></trkpt><trkpt lat="43.3350969" lon="10.6550354"><ele>33.0</ele><time>2026-04-05T11:26:07.815Z</time></trkpt><trkpt lat="43.3352378" lon="10.6547812"><ele>33.0</ele><time>2026-04-05T11:26:08.815Z</time></trkpt><trkpt lat="43.3353755" lon="10.6545407"><ele>32.0</ele><time>2026-04-05T11:26:09.815Z</time></trkpt><trkpt lat="43.3355023" lon="10.6543107"><ele>31.0</ele><time>2026-04-05T11:26:10.815Z</time></trkpt><trkpt lat="43.3356214" lon="10.6540975"><ele>30.0</ele><time>2026-04-05T11:26:11.816Z</time></trkpt><trkpt lat="43.335735" lon="10.6538943"><ele>31.0</ele><time>2026-04-05T11:26:12.816Z</time></trkpt><trkpt lat="43.3358408" lon="10.6537083"><ele>32.0</ele><time>2026-04-05T11:26:13.815Z</time></trkpt><trkpt lat="43.3359425" lon="10.6535375"><ele>33.0</ele><time>2026-04-05T11:26:14.815Z</time></trkpt><trkpt lat="43.3360376" lon="10.6533838"><ele>33.0</ele><time>2026-04-05T11:26:15.815Z</time></trkpt><trkpt lat="43.3361261" lon="10.6532468"><ele>33.0</ele><time>2026-04-05T11:26:16.815Z</time></trkpt><trkpt lat="43.3362119" lon="10.6531283"><ele>33.0</ele><time>2026-04-05T11:26:17.816Z</time></trkpt><trkpt lat="43.3363041" lon="10.6530326"><ele>33.0</ele><time>2026-04-05T11:26:18.816Z</time></trkpt><trkpt lat="43.3363926" lon="10.6529868"><ele>33.0</ele><time>2026-04-05T11:26:19.816Z</time></trkpt><trkpt lat="43.3364818" lon="10.6529502"><ele>33.0</ele><time>2026-04-05T11:26:20.816Z</time></trkpt><trkpt lat="43.336557" lon="10.6528929"><ele>33.0</ele><time>2026-04-05T11:26:21.816Z</time></trkpt><trkpt lat="43.3366085" lon="10.6528157"><ele>33.0</ele><time>2026-04-05T11:26:22.815Z</time></trkpt><trkpt lat="43.3366415" lon="10.6527276"><ele>33.0</ele><time>2026-04-05T11:26:23.816Z</time></trkpt><trkpt lat="43.336662" lon="10.6526291"><ele>33.0</ele><time>2026-04-05T11:26:24.816Z</time></trkpt><trkpt lat="43.3366722" lon="10.6525336"><ele>33.0</ele><time>2026-04-05T11:26:25.816Z</time></trkpt><trkpt lat="43.3366943" lon="10.652449"><ele>33.0</ele><time>2026-04-05T11:26:26.815Z</time></trkpt><trkpt lat="43.3367597" lon="10.6523184"><ele>33.0</ele><time>2026-04-05T11:26:28.815Z</time></trkpt><trkpt lat="43.3368053" lon="10.6522519"><ele>33.0</ele><time>2026-04-05T11:26:30.815Z</time></trkpt><trkpt lat="43.3368565" lon="10.6521488"><ele>33.0</ele><time>2026-04-05T11:26:44.816Z</time></trkpt><trkpt lat="43.3369123" lon="10.6520572"><ele>33.0</ele><time>2026-04-05T11:26:45.816Z</time></trkpt><trkpt lat="43.3369891" lon="10.6519439"><ele>32.666666666666664</ele><time>2026-04-05T11:26:46.816Z</time></trkpt><trkpt lat="43.3370891" lon="10.6517966"><ele>32.33333333333333</ele><time>2026-04-05T11:26:47.816Z</time></trkpt><trkpt lat="43.3372043" lon="10.6516281"><ele>32.0</ele><time>2026-04-05T11:26:48.816Z</time></trkpt><trkpt lat="43.3373321" lon="10.6514443"><ele>32.0</ele><time>2026-04-05T11:26:49.816Z</time></trkpt><trkpt lat="43.3374655" lon="10.6512529"><ele>32.0</ele><time>2026-04-05T11:26:50.816Z</time></trkpt><trkpt lat="43.3376005" lon="10.6510602"><ele>32.0</ele><time>2026-04-05T11:26:51.816Z</time></trkpt><trkpt lat="43.337736" lon="10.6508656"><ele>32.0</ele><time>2026-04-05T11:26:52.816Z</time></trkpt><trkpt lat="43.3378715" lon="10.6506669"><ele>32.0</ele><time>2026-04-05T11:26:53.816Z</time></trkpt><trkpt lat="43.338009" lon="10.6504671"><ele>32.0</ele><time>2026-04-05T11:26:54.816Z</time></trkpt><trkpt lat="43.338141" lon="10.6502579"><ele>32.0</ele><time>2026-04-05T11:26:55.816Z</time></trkpt><trkpt lat="43.338268" lon="10.6500369"><ele>32.0</ele><time>2026-04-05T11:26:56.816Z</time></trkpt><trkpt lat="43.3383925" lon="10.6497993"><ele>32.0</ele><time>2026-04-05T11:26:57.816Z</time></trkpt><trkpt lat="43.3385089" lon="10.6495467"><ele>32.0</ele><time>2026-04-05T11:26:58.816Z</time></trkpt><trkpt lat="43.3386187" lon="10.6492817"><ele>32.0</ele><time>2026-04-05T11:26:59.816Z</time></trkpt><trkpt lat="43.3387221" lon="10.6490075"><ele>32.0</ele><time>2026-04-05T11:27:00.816Z</time></trkpt><trkpt lat="43.3388184" lon="10.6487249"><ele>32.0</ele><time>2026-04-05T11:27:01.816Z</time></trkpt><trkpt lat="43.3389066" lon="10.648433"><ele>32.0</ele><time>2026-04-05T11:27:02.816Z</time></trkpt><trkpt lat="43.3389896" lon="10.648137"><ele>32.0</ele><time>2026-04-05T11:27:03.816Z</time></trkpt><trkpt lat="43.339067" lon="10.6478337"><ele>32.0</ele><time>2026-04-05T11:27:04.816Z</time></trkpt><trkpt lat="43.3391442" lon="10.6475259"><ele>32.0</ele><time>2026-04-05T11:27:05.816Z</time></trkpt><trkpt lat="43.3392209" lon="10.6472172"><ele>32.0</ele><time>2026-04-05T11:27:06.816Z</time></trkpt><trkpt lat="43.3392939" lon="10.6469073"><ele>32.0</ele><time>2026-04-05T11:27:07.816Z</time></trkpt><trkpt lat="43.3393675" lon="10.6466032"><ele>32.0</ele><time>2026-04-05T11:27:08.816Z</time></trkpt><trkpt lat="43.3394396" lon="10.6463044"><ele>31.666666666666664</ele><time>2026-04-05T11:27:09.816Z</time></trkpt><trkpt lat="43.3395086" lon="10.6460143"><ele>31.333333333333336</ele><time>2026-04-05T11:27:10.816Z</time></trkpt><trkpt lat="43.3395763" lon="10.6457307"><ele>31.0</ele><time>2026-04-05T11:27:11.816Z</time></trkpt><trkpt lat="43.3396442" lon="10.6454512"><ele>31.0</ele><time>2026-04-05T11:27:12.816Z</time></trkpt><trkpt lat="43.3397085" lon="10.6451811"><ele>31.0</ele><time>2026-04-05T11:27:13.816Z</time></trkpt><trkpt lat="43.3397721" lon="10.6449226"><ele>31.0</ele><time>2026-04-05T11:27:14.816Z</time></trkpt><trkpt lat="43.3398322" lon="10.6446742"><ele>31.333333333333336</ele><time>2026-04-05T11:27:15.816Z</time></trkpt><trkpt lat="43.3398969" lon="10.6444232"><ele>31.666666666666664</ele><time>2026-04-05T11:27:16.816Z</time></trkpt><trkpt lat="43.3399681" lon="10.64417"><ele>32.0</ele><time>2026-04-05T11:27:17.815Z</time></trkpt><trkpt lat="43.3400532" lon="10.6439156"><ele>32.0</ele><time>2026-04-05T11:27:18.816Z</time></trkpt><trkpt lat="43.3401548" lon="10.6436613"><ele>32.0</ele><time>2026-04-05T11:27:19.816Z</time></trkpt><trkpt lat="43.340272" lon="10.6434115"><ele>32.0</ele><time>2026-04-05T11:27:20.816Z</time></trkpt><trkpt lat="43.3404048" lon="10.643165"><ele>31.333333333333332</ele><time>2026-04-05T11:27:21.816Z</time></trkpt><trkpt lat="43.3405531" lon="10.6429404"><ele>30.666666666666664</ele><time>2026-04-05T11:27:22.816Z</time></trkpt><trkpt lat="43.3407152" lon="10.6427256"><ele>30.0</ele><time>2026-04-05T11:27:23.816Z</time></trkpt><trkpt lat="43.340883" lon="10.6425138"><ele>30.0</ele><time>2026-04-05T11:27:24.816Z</time></trkpt><trkpt lat="43.3410538" lon="10.6423041"><ele>30.0</ele><time>2026-04-05T11:27:25.816Z</time></trkpt><trkpt lat="43.3412292" lon="10.6420883"><ele>32.0</ele><time>2026-04-05T11:27:26.816Z</time></trkpt><trkpt lat="43.3414063" lon="10.6418702"><ele>34.0</ele><time>2026-04-05T11:27:27.816Z</time></trkpt><trkpt lat="43.341588" lon="10.6416474"><ele>34.0</ele><time>2026-04-05T11:27:28.816Z</time></trkpt><trkpt lat="43.3417743" lon="10.6414266"><ele>34.0</ele><time>2026-04-05T11:27:29.816Z</time></trkpt><trkpt lat="43.3419621" lon="10.6412034"><ele>33.0</ele><time>2026-04-05T11:27:30.816Z</time></trkpt><trkpt lat="43.3421508" lon="10.6409801"><ele>32.0</ele><time>2026-04-05T11:27:31.816Z</time></trkpt><trkpt lat="43.3423388" lon="10.6407544"><ele>32.5</ele><time>2026-04-05T11:27:32.816Z</time></trkpt><trkpt lat="43.342528" lon="10.640527"><ele>33.0</ele><time>2026-04-05T11:27:33.816Z</time></trkpt><trkpt lat="43.3427158" lon="10.640299"><ele>33.0</ele><time>2026-04-05T11:27:34.816Z</time></trkpt><trkpt lat="43.3428995" lon="10.640063"><ele>33.0</ele><time>2026-04-05T11:27:35.816Z</time></trkpt><trkpt lat="43.3430782" lon="10.6398207"><ele>33.0</ele><time>2026-04-05T11:27:36.816Z</time></trkpt><trkpt lat="43.3432503" lon="10.63957"><ele>33.0</ele><time>2026-04-05T11:27:37.816Z</time></trkpt><trkpt lat="43.3434175" lon="10.6393152"><ele>33.0</ele><time>2026-04-05T11:27:38.816Z</time></trkpt><trkpt lat="43.3435758" lon="10.6390506"><ele>33.0</ele><time>2026-04-05T11:27:39.816Z</time></trkpt><trkpt lat="43.3437232" lon="10.6387705"><ele>31.0</ele><time>2026-04-05T11:27:40.816Z</time></trkpt><trkpt lat="43.3438598" lon="10.6384774"><ele>29.0</ele><time>2026-04-05T11:27:41.816Z</time></trkpt><trkpt lat="43.3439921" lon="10.6381768"><ele>31.0</ele><time>2026-04-05T11:27:42.816Z</time></trkpt><trkpt lat="43.3441233" lon="10.63788"><ele>33.0</ele><time>2026-04-05T11:27:43.816Z</time></trkpt><trkpt lat="43.3442575" lon="10.6375869"><ele>33.0</ele><time>2026-04-05T11:27:44.816Z</time></trkpt><trkpt lat="43.344388" lon="10.6372941"><ele>33.0</ele><time>2026-04-05T11:27:45.816Z</time></trkpt><trkpt lat="43.3445179" lon="10.6370053"><ele>30.0</ele><time>2026-04-05T11:27:46.816Z</time></trkpt><trkpt lat="43.3446524" lon="10.6367223"><ele>27.0</ele><time>2026-04-05T11:27:47.816Z</time></trkpt><trkpt lat="43.344799" lon="10.6364476"><ele>31.5</ele><time>2026-04-05T11:27:48.816Z</time></trkpt><trkpt lat="43.3449499" lon="10.6361783"><ele>36.0</ele><time>2026-04-05T11:27:49.816Z</time></trkpt><trkpt lat="43.3451023" lon="10.635906"><ele>36.0</ele><time>2026-04-05T11:27:50.816Z</time></trkpt><trkpt lat="43.3452581" lon="10.6356363"><ele>36.0</ele><time>2026-04-05T11:27:51.816Z</time></trkpt><trkpt lat="43.345414" lon="10.6353661"><ele>38.0</ele><time>2026-04-05T11:27:52.816Z</time></trkpt><trkpt lat="43.3455724" lon="10.6350954"><ele>40.0</ele><time>2026-04-05T11:27:53.816Z</time></trkpt><trkpt lat="43.3457345" lon="10.6348233"><ele>40.0</ele><time>2026-04-05T11:27:54.816Z</time></trkpt><trkpt lat="43.3458975" lon="10.6345525"><ele>40.0</ele><time>2026-04-05T11:27:55.816Z</time></trkpt><trkpt lat="43.3460613" lon="10.6342803"><ele>43.5</ele><time>2026-04-05T11:27:56.816Z</time></trkpt><trkpt lat="43.346227" lon="10.634006"><ele>47.0</ele><time>2026-04-05T11:27:57.816Z</time></trkpt><trkpt lat="43.3463934" lon="10.633731"><ele>40.0</ele><time>2026-04-05T11:27:58.816Z</time></trkpt><trkpt lat="43.3465595" lon="10.6334571"><ele>33.0</ele><time>2026-04-05T11:27:59.816Z</time></trkpt><trkpt lat="43.3467307" lon="10.6331847"><ele>33.0</ele><time>2026-04-05T11:28:00.816Z</time></trkpt><trkpt lat="43.3469035" lon="10.6329143"><ele>33.0</ele><time>2026-04-05T11:28:01.816Z</time></trkpt><trkpt lat="43.3470774" lon="10.6326429"><ele>34.0</ele><time>2026-04-05T11:28:02.816Z</time></trkpt><trkpt lat="43.3472504" lon="10.6323676"><ele>35.0</ele><time>2026-04-05T11:28:03.816Z</time></trkpt><trkpt lat="43.3474239" lon="10.6320897"><ele>33.5</ele><time>2026-04-05T11:28:04.816Z</time></trkpt><trkpt lat="43.3475951" lon="10.6318108"><ele>32.0</ele><time>2026-04-05T11:28:05.816Z</time></trkpt><trkpt lat="43.3477655" lon="10.6315297"><ele>32.0</ele><time>2026-04-05T11:28:06.816Z</time></trkpt><trkpt lat="43.3479355" lon="10.6312512"><ele>32.0</ele><time>2026-04-05T11:28:07.816Z</time></trkpt><trkpt lat="43.3481022" lon="10.6309719"><ele>30.5</ele><time>2026-04-05T11:28:08.816Z</time></trkpt><trkpt lat="43.3482671" lon="10.6306899"><ele>29.0</ele><time>2026-04-05T11:28:09.816Z</time></trkpt><trkpt lat="43.3484285" lon="10.630406"><ele>29.5</ele><time>2026-04-05T11:28:10.816Z</time></trkpt><trkpt lat="43.3485835" lon="10.6301225"><ele>30.0</ele><time>2026-04-05T11:28:11.816Z</time></trkpt><trkpt lat="43.3487391" lon="10.6298401"><ele>31.5</ele><time>2026-04-05T11:28:12.816Z</time></trkpt><trkpt lat="43.3488902" lon="10.629561"><ele>33.0</ele><time>2026-04-05T11:28:13.816Z</time></trkpt><trkpt lat="43.3490393" lon="10.6292814"><ele>33.0</ele><time>2026-04-05T11:28:14.816Z</time></trkpt><trkpt lat="43.349185" lon="10.6290046"><ele>33.0</ele><time>2026-04-05T11:28:15.816Z</time></trkpt><trkpt lat="43.3493272" lon="10.6287236"><ele>33.5</ele><time>2026-04-05T11:28:16.816Z</time></trkpt><trkpt lat="43.3494597" lon="10.6284485"><ele>34.0</ele><time>2026-04-05T11:28:17.816Z</time></trkpt><trkpt lat="43.3495839" lon="10.6281891"><ele>34.0</ele><time>2026-04-05T11:28:18.816Z</time></trkpt><trkpt lat="43.3497014" lon="10.6279366"><ele>34.0</ele><time>2026-04-05T11:28:19.816Z</time></trkpt><trkpt lat="43.349817" lon="10.62769"><ele>34.0</ele><time>2026-04-05T11:28:20.816Z</time></trkpt><trkpt lat="43.3499214" lon="10.6274655"><ele>34.333333333333336</ele><time>2026-04-05T11:28:21.816Z</time></trkpt><trkpt lat="43.3500176" lon="10.6272592"><ele>34.666666666666664</ele><time>2026-04-05T11:28:22.816Z</time></trkpt><trkpt lat="43.350101" lon="10.6270737"><ele>35.0</ele><time>2026-04-05T11:28:23.816Z</time></trkpt><trkpt lat="43.3501755" lon="10.6269075"><ele>35.0</ele><time>2026-04-05T11:28:24.816Z</time></trkpt><trkpt lat="43.3502455" lon="10.626751"><ele>35.0</ele><time>2026-04-05T11:28:25.816Z</time></trkpt><trkpt lat="43.3503191" lon="10.6266174"><ele>35.0</ele><time>2026-04-05T11:28:26.816Z</time></trkpt><trkpt lat="43.3504037" lon="10.6265252"><ele>35.0</ele><time>2026-04-05T11:28:27.816Z</time></trkpt><trkpt lat="43.3504925" lon="10.6264697"><ele>35.33333333333333</ele><time>2026-04-05T11:28:28.816Z</time></trkpt><trkpt lat="43.3505749" lon="10.626415"><ele>35.666666666666664</ele><time>2026-04-05T11:28:29.816Z</time></trkpt><trkpt lat="43.3506292" lon="10.6263293"><ele>36.0</ele><time>2026-04-05T11:28:30.816Z</time></trkpt><trkpt lat="43.3506609" lon="10.6262271"><ele>36.333333333333336</ele><time>2026-04-05T11:28:31.816Z</time></trkpt><trkpt lat="43.350662" lon="10.6261213"><ele>36.66666666666667</ele><time>2026-04-05T11:28:32.816Z</time></trkpt><trkpt lat="43.3506302" lon="10.6260337"><ele>37.0</ele><time>2026-04-05T11:28:33.816Z</time></trkpt><trkpt lat="43.3505754" lon="10.6259821"><ele>37.6</ele><time>2026-04-05T11:28:34.816Z</time></trkpt><trkpt lat="43.3505012" lon="10.6259613"><ele>38.2</ele><time>2026-04-05T11:28:35.816Z</time></trkpt><trkpt lat="43.3504126" lon="10.6259657"><ele>38.8</ele><time>2026-04-05T11:28:36.816Z</time></trkpt><trkpt lat="43.3503071" lon="10.6259585"><ele>39.4</ele><time>2026-04-05T11:28:37.815Z</time></trkpt><trkpt lat="43.3501857" lon="10.6259177"><ele>40.0</ele><time>2026-04-05T11:28:38.816Z</time></trkpt><trkpt lat="43.350053" lon="10.6258486"><ele>40.0</ele><time>2026-04-05T11:28:39.816Z</time></trkpt><trkpt lat="43.3499145" lon="10.6257608"><ele>40.0</ele><time>2026-04-05T11:28:40.816Z</time></trkpt><trkpt lat="43.3497641" lon="10.6256584"><ele>40.0</ele><time>2026-04-05T11:28:41.816Z</time></trkpt><trkpt lat="43.349605" lon="10.6255403"><ele>39.0</ele><time>2026-04-05T11:28:42.816Z</time></trkpt><trkpt lat="43.3494431" lon="10.6254052"><ele>38.0</ele><time>2026-04-05T11:28:43.816Z</time></trkpt><trkpt lat="43.349278" lon="10.6252592"><ele>37.0</ele><time>2026-04-05T11:28:44.816Z</time></trkpt><trkpt lat="43.3491099" lon="10.6250919"><ele>37.0</ele><time>2026-04-05T11:28:45.816Z</time></trkpt><trkpt lat="43.3489394" lon="10.6249083"><ele>37.0</ele><time>2026-04-05T11:28:46.816Z</time></trkpt><trkpt lat="43.3487722" lon="10.6247175"><ele>37.0</ele><time>2026-04-05T11:28:47.816Z</time></trkpt><trkpt lat="43.3486043" lon="10.6245198"><ele>35.0</ele><time>2026-04-05T11:28:48.816Z</time></trkpt><trkpt lat="43.3484346" lon="10.6243127"><ele>33.0</ele><time>2026-04-05T11:28:49.815Z</time></trkpt><trkpt lat="43.348265" lon="10.6241006"><ele>33.0</ele><time>2026-04-05T11:28:50.816Z</time></trkpt><trkpt lat="43.3480954" lon="10.6238892"><ele>33.0</ele><time>2026-04-05T11:28:51.816Z</time></trkpt><trkpt lat="43.3479272" lon="10.6236775"><ele>33.0</ele><time>2026-04-05T11:28:52.816Z</time></trkpt><trkpt lat="43.3477663" lon="10.6234743"><ele>33.0</ele><time>2026-04-05T11:28:53.816Z</time></trkpt><trkpt lat="43.3476122" lon="10.6232869"><ele>33.0</ele><time>2026-04-05T11:28:54.816Z</time></trkpt><trkpt lat="43.3474697" lon="10.6231053"><ele>33.0</ele><time>2026-04-05T11:28:55.816Z</time></trkpt><trkpt lat="43.3473348" lon="10.6229409"><ele>33.0</ele><time>2026-04-05T11:28:56.816Z</time></trkpt><trkpt lat="43.3472107" lon="10.6227914"><ele>33.0</ele><time>2026-04-05T11:28:57.816Z</time></trkpt><trkpt lat="43.3471029" lon="10.6226525"><ele>32.25</ele><time>2026-04-05T11:28:58.816Z</time></trkpt><trkpt lat="43.3470052" lon="10.6225267"><ele>31.5</ele><time>2026-04-05T11:28:59.816Z</time></trkpt><trkpt lat="43.3469127" lon="10.6224079"><ele>30.75</ele><time>2026-04-05T11:29:00.816Z</time></trkpt><trkpt lat="43.3468165" lon="10.6222807"><ele>30.0</ele><time>2026-04-05T11:29:01.816Z</time></trkpt><trkpt lat="43.3467144" lon="10.6221409"><ele>30.0</ele><time>2026-04-05T11:29:02.816Z</time></trkpt><trkpt lat="43.3466051" lon="10.6219886"><ele>30.0</ele><time>2026-04-05T11:29:03.816Z</time></trkpt><trkpt lat="43.3464891" lon="10.6218182"><ele>30.0</ele><time>2026-04-05T11:29:04.816Z</time></trkpt><trkpt lat="43.3463681" lon="10.6216325"><ele>30.0</ele><time>2026-04-05T11:29:05.816Z</time></trkpt><trkpt lat="43.3462522" lon="10.6214267"><ele>30.0</ele><time>2026-04-05T11:29:06.816Z</time></trkpt><trkpt lat="43.3461455" lon="10.6212012"><ele>30.0</ele><time>2026-04-05T11:29:07.816Z</time></trkpt><trkpt lat="43.3460521" lon="10.6209515"><ele>30.0</ele><time>2026-04-05T11:29:08.816Z</time></trkpt><trkpt lat="43.345971" lon="10.6206776"><ele>30.0</ele><time>2026-04-05T11:29:09.816Z</time></trkpt><trkpt lat="43.3459088" lon="10.6203975"><ele>30.0</ele><time>2026-04-05T11:29:10.816Z</time></trkpt><trkpt lat="43.3458606" lon="10.6201302"><ele>30.0</ele><time>2026-04-05T11:29:11.816Z</time></trkpt><trkpt lat="43.3458206" lon="10.6198756"><ele>30.0</ele><time>2026-04-05T11:29:12.816Z</time></trkpt><trkpt lat="43.3457849" lon="10.6196332"><ele>30.0</ele><time>2026-04-05T11:29:13.816Z</time></trkpt><trkpt lat="43.3457624" lon="10.6193935"><ele>30.666666666666664</ele><time>2026-04-05T11:29:14.816Z</time></trkpt><trkpt lat="43.3457448" lon="10.6191442"><ele>31.333333333333332</ele><time>2026-04-05T11:29:15.816Z</time></trkpt><trkpt lat="43.3457212" lon="10.6188861"><ele>32.0</ele><time>2026-04-05T11:29:16.815Z</time></trkpt><trkpt lat="43.3456914" lon="10.6186173"><ele>33.33333333333333</ele><time>2026-04-05T11:29:17.816Z</time></trkpt><trkpt lat="43.3456669" lon="10.6183395"><ele>34.666666666666664</ele><time>2026-04-05T11:29:18.816Z</time></trkpt><trkpt lat="43.3456564" lon="10.6180531"><ele>36.0</ele><time>2026-04-05T11:29:19.816Z</time></trkpt><trkpt lat="43.3456677" lon="10.6177635"><ele>36.666666666666664</ele><time>2026-04-05T11:29:20.816Z</time></trkpt><trkpt lat="43.3456965" lon="10.6174752"><ele>37.33333333333333</ele><time>2026-04-05T11:29:21.816Z</time></trkpt><trkpt lat="43.3457424" lon="10.6171847"><ele>38.0</ele><time>2026-04-05T11:29:22.815Z</time></trkpt><trkpt lat="43.3458069" lon="10.6168924"><ele>35.0</ele><time>2026-04-05T11:29:23.816Z</time></trkpt><trkpt lat="43.3458866" lon="10.6165965"><ele>32.0</ele><time>2026-04-05T11:29:24.816Z</time></trkpt><trkpt lat="43.3459716" lon="10.616296"><ele>28.5</ele><time>2026-04-05T11:29:25.816Z</time></trkpt><trkpt lat="43.3460592" lon="10.6159899"><ele>25.0</ele><time>2026-04-05T11:29:26.816Z</time></trkpt><trkpt lat="43.346151" lon="10.6156789"><ele>25.0</ele><time>2026-04-05T11:29:27.815Z</time></trkpt><trkpt lat="43.3462436" lon="10.6153636"><ele>25.0</ele><time>2026-04-05T11:29:28.816Z</time></trkpt><trkpt lat="43.3463356" lon="10.6150445"><ele>29.0</ele><time>2026-04-05T11:29:29.816Z</time></trkpt><trkpt lat="43.3464275" lon="10.6147244"><ele>33.0</ele><time>2026-04-05T11:29:30.816Z</time></trkpt><trkpt lat="43.3465188" lon="10.6144053"><ele>33.0</ele><time>2026-04-05T11:29:31.816Z</time></trkpt><trkpt lat="43.3466089" lon="10.6140883"><ele>33.0</ele><time>2026-04-05T11:29:32.816Z</time></trkpt><trkpt lat="43.3466998" lon="10.613773"><ele>31.0</ele><time>2026-04-05T11:29:33.816Z</time></trkpt><trkpt lat="43.3467894" lon="10.6134613"><ele>29.0</ele><time>2026-04-05T11:29:34.816Z</time></trkpt><trkpt lat="43.3468802" lon="10.6131553"><ele>29.0</ele><time>2026-04-05T11:29:35.816Z</time></trkpt><trkpt lat="43.3469702" lon="10.6128495"><ele>29.0</ele><time>2026-04-05T11:29:36.816Z</time></trkpt><trkpt lat="43.3470571" lon="10.612544"><ele>28.0</ele><time>2026-04-05T11:29:37.815Z</time></trkpt><trkpt lat="43.3471403" lon="10.6122341"><ele>27.0</ele><time>2026-04-05T11:29:38.816Z</time></trkpt><trkpt lat="43.3472153" lon="10.6119163"><ele>33.5</ele><time>2026-04-05T11:29:39.816Z</time></trkpt><trkpt lat="43.3472787" lon="10.6115916"><ele>40.0</ele><time>2026-04-05T11:29:40.816Z</time></trkpt><trkpt lat="43.3473276" lon="10.6112616"><ele>36.5</ele><time>2026-04-05T11:29:41.816Z</time></trkpt><trkpt lat="43.347363" lon="10.6109287"><ele>33.0</ele><time>2026-04-05T11:29:42.816Z</time></trkpt><trkpt lat="43.3473831" lon="10.6105926"><ele>31.5</ele><time>2026-04-05T11:29:43.816Z</time></trkpt><trkpt lat="43.347385" lon="10.6102619"><ele>30.0</ele><time>2026-04-05T11:29:44.816Z</time></trkpt><trkpt lat="43.3473729" lon="10.6099383"><ele>30.0</ele><time>2026-04-05T11:29:45.816Z</time></trkpt><trkpt lat="43.347354" lon="10.6096097"><ele>30.0</ele><time>2026-04-05T11:29:46.816Z</time></trkpt><trkpt lat="43.3473281" lon="10.6092793"><ele>31.0</ele><time>2026-04-05T11:29:47.816Z</time></trkpt><trkpt lat="43.3473009" lon="10.6089435"><ele>32.0</ele><time>2026-04-05T11:29:48.816Z</time></trkpt><trkpt lat="43.3472761" lon="10.6086082"><ele>34.5</ele><time>2026-04-05T11:29:49.816Z</time></trkpt><trkpt lat="43.34725" lon="10.60827"><ele>37.0</ele><time>2026-04-05T11:29:50.816Z</time></trkpt><trkpt lat="43.3472204" lon="10.607935"><ele>29.5</ele><time>2026-04-05T11:29:51.816Z</time></trkpt><trkpt lat="43.347187" lon="10.6076124"><ele>22.0</ele><time>2026-04-05T11:29:52.816Z</time></trkpt><trkpt lat="43.3471448" lon="10.6073097"><ele>22.0</ele><time>2026-04-05T11:29:53.816Z</time></trkpt><trkpt lat="43.3470931" lon="10.6070087"><ele>22.0</ele><time>2026-04-05T11:29:54.816Z</time></trkpt><trkpt lat="43.3470261" lon="10.6067104"><ele>22.5</ele><time>2026-04-05T11:29:55.816Z</time></trkpt><trkpt lat="43.3469436" lon="10.6064162"><ele>23.0</ele><time>2026-04-05T11:29:56.816Z</time></trkpt><trkpt lat="43.3468557" lon="10.6061184"><ele>25.0</ele><time>2026-04-05T11:29:57.816Z</time></trkpt><trkpt lat="43.3467655" lon="10.605814"><ele>27.0</ele><time>2026-04-05T11:29:58.816Z</time></trkpt><trkpt lat="43.3466688" lon="10.6055091"><ele>29.0</ele><time>2026-04-05T11:29:59.816Z</time></trkpt><trkpt lat="43.3465733" lon="10.6052061"><ele>31.0</ele><time>2026-04-05T11:30:00.816Z</time></trkpt><trkpt lat="43.3464766" lon="10.6048972"><ele>31.0</ele><time>2026-04-05T11:30:01.816Z</time></trkpt><trkpt lat="43.3463798" lon="10.6045867"><ele>31.0</ele><time>2026-04-05T11:30:02.815Z</time></trkpt><trkpt lat="43.3462845" lon="10.6042757"><ele>27.5</ele><time>2026-04-05T11:30:03.816Z</time></trkpt><trkpt lat="43.3461906" lon="10.6039667"><ele>24.0</ele><time>2026-04-05T11:30:04.816Z</time></trkpt><trkpt lat="43.3460975" lon="10.6036628"><ele>24.0</ele><time>2026-04-05T11:30:05.816Z</time></trkpt><trkpt lat="43.346002" lon="10.6033672"><ele>24.0</ele><time>2026-04-05T11:30:06.816Z</time></trkpt><trkpt lat="43.3459036" lon="10.6030775"><ele>26.5</ele><time>2026-04-05T11:30:07.816Z</time></trkpt><trkpt lat="43.3458038" lon="10.6027882"><ele>29.0</ele><time>2026-04-05T11:30:08.816Z</time></trkpt><trkpt lat="43.3457008" lon="10.6025046"><ele>29.0</ele><time>2026-04-05T11:30:09.816Z</time></trkpt><trkpt lat="43.3455908" lon="10.6022332"><ele>29.0</ele><time>2026-04-05T11:30:10.816Z</time></trkpt><trkpt lat="43.3454684" lon="10.6019739"><ele>27.333333333333332</ele><time>2026-04-05T11:30:11.816Z</time></trkpt><trkpt lat="43.3453273" lon="10.6017358"><ele>25.666666666666664</ele><time>2026-04-05T11:30:12.816Z</time></trkpt><trkpt lat="43.3451747" lon="10.6015134"><ele>24.0</ele><time>2026-04-05T11:30:13.816Z</time></trkpt><trkpt lat="43.3450044" lon="10.6013107"><ele>23.0</ele><time>2026-04-05T11:30:14.816Z</time></trkpt><trkpt lat="43.3448173" lon="10.601125"><ele>22.0</ele><time>2026-04-05T11:30:15.816Z</time></trkpt><trkpt lat="43.3446198" lon="10.6009535"><ele>22.0</ele><time>2026-04-05T11:30:16.816Z</time></trkpt><trkpt lat="43.3444153" lon="10.6007914"><ele>22.0</ele><time>2026-04-05T11:30:17.816Z</time></trkpt><trkpt lat="43.3442034" lon="10.6006337"><ele>22.0</ele><time>2026-04-05T11:30:18.816Z</time></trkpt><trkpt lat="43.3439924" lon="10.6004722"><ele>22.0</ele><time>2026-04-05T11:30:19.815Z</time></trkpt><trkpt lat="43.343779" lon="10.6003068"><ele>24.5</ele><time>2026-04-05T11:30:20.816Z</time></trkpt><trkpt lat="43.3435643" lon="10.6001431"><ele>27.0</ele><time>2026-04-05T11:30:21.816Z</time></trkpt><trkpt lat="43.3433485" lon="10.5999851"><ele>27.0</ele><time>2026-04-05T11:30:22.816Z</time></trkpt><trkpt lat="43.3431371" lon="10.5998117"><ele>27.0</ele><time>2026-04-05T11:30:23.816Z</time></trkpt><trkpt lat="43.3429366" lon="10.5996279"><ele>28.0</ele><time>2026-04-05T11:30:24.816Z</time></trkpt><trkpt lat="43.3427451" lon="10.5994257"><ele>29.0</ele><time>2026-04-05T11:30:25.815Z</time></trkpt><trkpt lat="43.3425673" lon="10.5992079"><ele>29.0</ele><time>2026-04-05T11:30:26.816Z</time></trkpt><trkpt lat="43.342405" lon="10.5989689"><ele>29.0</ele><time>2026-04-05T11:30:27.816Z</time></trkpt><trkpt lat="43.34226" lon="10.598712"><ele>25.5</ele><time>2026-04-05T11:30:28.816Z</time></trkpt><trkpt lat="43.3421253" lon="10.5984359"><ele>22.0</ele><time>2026-04-05T11:30:29.816Z</time></trkpt><trkpt lat="43.3420034" lon="10.5981462"><ele>22.0</ele><time>2026-04-05T11:30:30.816Z</time></trkpt><trkpt lat="43.3418919" lon="10.5978452"><ele>22.0</ele><time>2026-04-05T11:30:31.816Z</time></trkpt><trkpt lat="43.3417805" lon="10.5975396"><ele>26.0</ele><time>2026-04-05T11:30:32.816Z</time></trkpt><trkpt lat="43.3416717" lon="10.5972372"><ele>30.0</ele><time>2026-04-05T11:30:33.816Z</time></trkpt><trkpt lat="43.3415749" lon="10.5969469"><ele>28.333333333333336</ele><time>2026-04-05T11:30:34.816Z</time></trkpt><trkpt lat="43.3414807" lon="10.5966681"><ele>26.666666666666668</ele><time>2026-04-05T11:30:35.816Z</time></trkpt><trkpt lat="43.3413822" lon="10.5963896"><ele>25.0</ele><time>2026-04-05T11:30:36.816Z</time></trkpt><trkpt lat="43.3412819" lon="10.596111"><ele>25.0</ele><time>2026-04-05T11:30:37.816Z</time></trkpt><trkpt lat="43.34118" lon="10.5958265"><ele>25.0</ele><time>2026-04-05T11:30:38.816Z</time></trkpt><trkpt lat="43.3410765" lon="10.5955301"><ele>28.0</ele><time>2026-04-05T11:30:39.816Z</time></trkpt><trkpt lat="43.3409698" lon="10.5952281"><ele>31.0</ele><time>2026-04-05T11:30:40.816Z</time></trkpt><trkpt lat="43.3408637" lon="10.5949243"><ele>31.0</ele><time>2026-04-05T11:30:41.816Z</time></trkpt><trkpt lat="43.3407572" lon="10.5946164"><ele>31.0</ele><time>2026-04-05T11:30:42.815Z</time></trkpt><trkpt lat="43.3406502" lon="10.5943028"><ele>26.5</ele><time>2026-04-05T11:30:43.816Z</time></trkpt><trkpt lat="43.3405502" lon="10.593984"><ele>22.0</ele><time>2026-04-05T11:30:44.816Z</time></trkpt><trkpt lat="43.3404623" lon="10.5936588"><ele>22.0</ele><time>2026-04-05T11:30:45.816Z</time></trkpt><trkpt lat="43.3403865" lon="10.5933267"><ele>22.0</ele><time>2026-04-05T11:30:46.816Z</time></trkpt><trkpt lat="43.340327" lon="10.5929871"><ele>23.5</ele><time>2026-04-05T11:30:47.816Z</time></trkpt><trkpt lat="43.3402805" lon="10.5926482"><ele>25.0</ele><time>2026-04-05T11:30:48.816Z</time></trkpt><trkpt lat="43.340251" lon="10.5923096"><ele>24.0</ele><time>2026-04-05T11:30:49.816Z</time></trkpt><trkpt lat="43.3402388" lon="10.5919665"><ele>23.0</ele><time>2026-04-05T11:30:50.816Z</time></trkpt><trkpt lat="43.3402493" lon="10.5916234"><ele>23.0</ele><time>2026-04-05T11:30:51.816Z</time></trkpt><trkpt lat="43.3402769" lon="10.5912817"><ele>23.0</ele><time>2026-04-05T11:30:52.816Z</time></trkpt><trkpt lat="43.3403165" lon="10.5909433"><ele>21.5</ele><time>2026-04-05T11:30:53.816Z</time></trkpt><trkpt lat="43.3403637" lon="10.5906035"><ele>20.0</ele><time>2026-04-05T11:30:54.816Z</time></trkpt><trkpt lat="43.3404168" lon="10.5902664"><ele>19.5</ele><time>2026-04-05T11:30:55.816Z</time></trkpt><trkpt lat="43.340476" lon="10.5899313"><ele>19.0</ele><time>2026-04-05T11:30:56.816Z</time></trkpt><trkpt lat="43.3405336" lon="10.5895972"><ele>22.0</ele><time>2026-04-05T11:30:57.816Z</time></trkpt><trkpt lat="43.3405881" lon="10.5892791"><ele>25.0</ele><time>2026-04-05T11:30:58.816Z</time></trkpt><trkpt lat="43.3406401" lon="10.5889766"><ele>25.0</ele><time>2026-04-05T11:30:59.816Z</time></trkpt><trkpt lat="43.340692" lon="10.5886919"><ele>25.0</ele><time>2026-04-05T11:31:00.816Z</time></trkpt><trkpt lat="43.3407451" lon="10.5884101"><ele>25.0</ele><time>2026-04-05T11:31:01.817Z</time></trkpt><trkpt lat="43.3407993" lon="10.5881283"><ele>24.333333333333336</ele><time>2026-04-05T11:31:02.816Z</time></trkpt><trkpt lat="43.3408545" lon="10.5878483"><ele>23.666666666666668</ele><time>2026-04-05T11:31:03.816Z</time></trkpt><trkpt lat="43.340909" lon="10.5875678"><ele>23.0</ele><time>2026-04-05T11:31:04.816Z</time></trkpt><trkpt lat="43.3409661" lon="10.5872897"><ele>23.0</ele><time>2026-04-05T11:31:05.816Z</time></trkpt><trkpt lat="43.341032" lon="10.5870278"><ele>23.0</ele><time>2026-04-05T11:31:06.816Z</time></trkpt><trkpt lat="43.3411099" lon="10.5867804"><ele>23.0</ele><time>2026-04-05T11:31:07.816Z</time></trkpt><trkpt lat="43.3411979" lon="10.5865431"><ele>22.666666666666668</ele><time>2026-04-05T11:31:08.816Z</time></trkpt><trkpt lat="43.341295" lon="10.58631"><ele>22.333333333333332</ele><time>2026-04-05T11:31:09.815Z</time></trkpt><trkpt lat="43.3414023" lon="10.5860797"><ele>22.0</ele><time>2026-04-05T11:31:10.816Z</time></trkpt><trkpt lat="43.3415239" lon="10.5858563"><ele>22.0</ele><time>2026-04-05T11:31:11.815Z</time></trkpt><trkpt lat="43.3416552" lon="10.5856418"><ele>22.0</ele><time>2026-04-05T11:31:12.816Z</time></trkpt><trkpt lat="43.3417894" lon="10.5854318"><ele>22.0</ele><time>2026-04-05T11:31:13.816Z</time></trkpt><trkpt lat="43.3419226" lon="10.5852187"><ele>22.0</ele><time>2026-04-05T11:31:14.816Z</time></trkpt><trkpt lat="43.3420505" lon="10.5850144"><ele>22.0</ele><time>2026-04-05T11:31:15.816Z</time></trkpt><trkpt lat="43.3421771" lon="10.5848152"><ele>22.0</ele><time>2026-04-05T11:31:16.816Z</time></trkpt><trkpt lat="43.342304" lon="10.5846154"><ele>22.333333333333332</ele><time>2026-04-05T11:31:17.816Z</time></trkpt><trkpt lat="43.3424378" lon="10.5844183"><ele>22.666666666666668</ele><time>2026-04-05T11:31:18.816Z</time></trkpt><trkpt lat="43.342574" lon="10.5842219"><ele>23.0</ele><time>2026-04-05T11:31:19.816Z</time></trkpt><trkpt lat="43.3427092" lon="10.584017"><ele>23.0</ele><time>2026-04-05T11:31:20.816Z</time></trkpt><trkpt lat="43.342837" lon="10.5837997"><ele>23.0</ele><time>2026-04-05T11:31:21.816Z</time></trkpt><trkpt lat="43.3429505" lon="10.5835805"><ele>23.0</ele><time>2026-04-05T11:31:22.816Z</time></trkpt><trkpt lat="43.3430439" lon="10.5833685"><ele>23.25</ele><time>2026-04-05T11:31:23.816Z</time></trkpt><trkpt lat="43.343115" lon="10.5831763"><ele>23.5</ele><time>2026-04-05T11:31:24.816Z</time></trkpt><trkpt lat="43.3431729" lon="10.5830054"><ele>23.75</ele><time>2026-04-05T11:31:25.816Z</time></trkpt><trkpt lat="43.3432307" lon="10.5828675"><ele>24.0</ele><time>2026-04-05T11:31:26.816Z</time></trkpt><trkpt lat="43.3433038" lon="10.5827633"><ele>24.2</ele><time>2026-04-05T11:31:27.816Z</time></trkpt><trkpt lat="43.3433718" lon="10.5826718"><ele>24.4</ele><time>2026-04-05T11:31:28.816Z</time></trkpt><trkpt lat="43.3434105" lon="10.5825653"><ele>24.6</ele><time>2026-04-05T11:31:29.816Z</time></trkpt><trkpt lat="43.3434193" lon="10.5824467"><ele>24.8</ele><time>2026-04-05T11:31:30.816Z</time></trkpt><trkpt lat="43.3433964" lon="10.5823053"><ele>25.0</ele><time>2026-04-05T11:31:31.816Z</time></trkpt><trkpt lat="43.3433543" lon="10.5821432"><ele>26.333333333333336</ele><time>2026-04-05T11:31:32.816Z</time></trkpt><trkpt lat="43.3433161" lon="10.5819523"><ele>27.666666666666664</ele><time>2026-04-05T11:31:33.816Z</time></trkpt><trkpt lat="43.3432819" lon="10.581739"><ele>29.0</ele><time>2026-04-05T11:31:34.816Z</time></trkpt><trkpt lat="43.3432352" lon="10.5815204"><ele>29.0</ele><time>2026-04-05T11:31:35.816Z</time></trkpt><trkpt lat="43.3431697" lon="10.5812919"><ele>29.0</ele><time>2026-04-05T11:31:36.816Z</time></trkpt><trkpt lat="43.343096" lon="10.5810673"><ele>29.0</ele><time>2026-04-05T11:31:37.816Z</time></trkpt><trkpt lat="43.3430159" lon="10.5808431"><ele>29.0</ele><time>2026-04-05T11:31:38.816Z</time></trkpt><trkpt lat="43.3429376" lon="10.5806224"><ele>29.0</ele><time>2026-04-05T11:31:39.815Z</time></trkpt><trkpt lat="43.3428617" lon="10.58041"><ele>29.0</ele><time>2026-04-05T11:31:40.816Z</time></trkpt><trkpt lat="43.3427907" lon="10.5802059"><ele>28.75</ele><time>2026-04-05T11:31:41.816Z</time></trkpt><trkpt lat="43.3427244" lon="10.5800101"><ele>28.5</ele><time>2026-04-05T11:31:42.816Z</time></trkpt><trkpt lat="43.342666" lon="10.579817"><ele>28.25</ele><time>2026-04-05T11:31:43.816Z</time></trkpt><trkpt lat="43.3426218" lon="10.579634"><ele>28.0</ele><time>2026-04-05T11:31:44.816Z</time></trkpt><trkpt lat="43.3425969" lon="10.5794618"><ele>27.2</ele><time>2026-04-05T11:31:45.816Z</time></trkpt><trkpt lat="43.3425944" lon="10.5792966"><ele>26.4</ele><time>2026-04-05T11:31:46.816Z</time></trkpt><trkpt lat="43.3426185" lon="10.5791497"><ele>25.599999999999998</ele><time>2026-04-05T11:31:47.816Z</time></trkpt><trkpt lat="43.3426328" lon="10.5790202"><ele>24.799999999999997</ele><time>2026-04-05T11:31:48.816Z</time></trkpt><trkpt lat="43.3426116" lon="10.5789111"><ele>24.0</ele><time>2026-04-05T11:31:49.816Z</time></trkpt><trkpt lat="43.3425661" lon="10.5788358"><ele>24.0</ele><time>2026-04-05T11:31:50.816Z</time></trkpt><trkpt lat="43.3425057" lon="10.5788054"><ele>24.0</ele><time>2026-04-05T11:31:51.816Z</time></trkpt><trkpt lat="43.3424326" lon="10.578811"><ele>24.0</ele><time>2026-04-05T11:31:52.816Z</time></trkpt><trkpt lat="43.3423499" lon="10.5788296"><ele>24.0</ele><time>2026-04-05T11:31:53.816Z</time></trkpt><trkpt lat="43.3422537" lon="10.5788186"><ele>24.0</ele><time>2026-04-05T11:31:54.816Z</time></trkpt><trkpt lat="43.34216" lon="10.5787598"><ele>24.0</ele><time>2026-04-05T11:31:55.816Z</time></trkpt><trkpt lat="43.3420795" lon="10.5786511"><ele>23.0</ele><time>2026-04-05T11:31:56.816Z</time></trkpt><trkpt lat="43.3420101" lon="10.5784972"><ele>22.0</ele><time>2026-04-05T11:31:57.816Z</time></trkpt><trkpt lat="43.3419507" lon="10.5783199"><ele>21.0</ele><time>2026-04-05T11:31:58.816Z</time></trkpt><trkpt lat="43.3418808" lon="10.5781288"><ele>20.0</ele><time>2026-04-05T11:31:59.815Z</time></trkpt><trkpt lat="43.3418004" lon="10.5779301"><ele>19.333333333333336</ele><time>2026-04-05T11:32:00.816Z</time></trkpt><trkpt lat="43.3417155" lon="10.5777224"><ele>18.666666666666668</ele><time>2026-04-05T11:32:01.816Z</time></trkpt><trkpt lat="43.3416213" lon="10.5775051"><ele>18.0</ele><time>2026-04-05T11:32:02.816Z</time></trkpt><trkpt lat="43.3415236" lon="10.5772783"><ele>18.0</ele><time>2026-04-05T11:32:03.816Z</time></trkpt><trkpt lat="43.3414216" lon="10.5770401"><ele>18.0</ele><time>2026-04-05T11:32:04.816Z</time></trkpt><trkpt lat="43.3413163" lon="10.5767948"><ele>18.0</ele><time>2026-04-05T11:32:05.816Z</time></trkpt><trkpt lat="43.34121" lon="10.5765419"><ele>17.666666666666668</ele><time>2026-04-05T11:32:06.816Z</time></trkpt><trkpt lat="43.3410988" lon="10.5762841"><ele>17.333333333333336</ele><time>2026-04-05T11:32:07.816Z</time></trkpt><trkpt lat="43.3409895" lon="10.5760209"><ele>17.0</ele><time>2026-04-05T11:32:08.816Z</time></trkpt><trkpt lat="43.340878" lon="10.5757545"><ele>16.5</ele><time>2026-04-05T11:32:09.816Z</time></trkpt><trkpt lat="43.340764" lon="10.5754868"><ele>16.0</ele><time>2026-04-05T11:32:10.816Z</time></trkpt><trkpt lat="43.3406484" lon="10.5752156"><ele>15.0</ele><time>2026-04-05T11:32:11.816Z</time></trkpt><trkpt lat="43.3405316" lon="10.5749443"><ele>14.0</ele><time>2026-04-05T11:32:12.816Z</time></trkpt><trkpt lat="43.340413" lon="10.5746684"><ele>12.5</ele><time>2026-04-05T11:32:13.816Z</time></trkpt><trkpt lat="43.3402951" lon="10.5743869"><ele>11.0</ele><time>2026-04-05T11:32:14.816Z</time></trkpt><trkpt lat="43.340176" lon="10.5741079"><ele>11.0</ele><time>2026-04-05T11:32:15.816Z</time></trkpt><trkpt lat="43.3400558" lon="10.5738306"><ele>11.0</ele><time>2026-04-05T11:32:16.816Z</time></trkpt><trkpt lat="43.3399366" lon="10.5735514"><ele>11.0</ele><time>2026-04-05T11:32:17.816Z</time></trkpt><trkpt lat="43.3398174" lon="10.5732689"><ele>11.0</ele><time>2026-04-05T11:32:18.816Z</time></trkpt><trkpt lat="43.3396964" lon="10.5729854"><ele>12.0</ele><time>2026-04-05T11:32:19.816Z</time></trkpt><trkpt lat="43.339576" lon="10.5726959"><ele>13.0</ele><time>2026-04-05T11:32:20.816Z</time></trkpt><trkpt lat="43.3394547" lon="10.5724053"><ele>13.0</ele><time>2026-04-05T11:32:21.816Z</time></trkpt><trkpt lat="43.3393337" lon="10.5721205"><ele>13.0</ele><time>2026-04-05T11:32:22.816Z</time></trkpt><trkpt lat="43.3392156" lon="10.5718472"><ele>13.666666666666666</ele><time>2026-04-05T11:32:23.815Z</time></trkpt><trkpt lat="43.3391051" lon="10.5715889"><ele>14.333333333333332</ele><time>2026-04-05T11:32:24.816Z</time></trkpt><trkpt lat="43.339001" lon="10.5713386"><ele>15.0</ele><time>2026-04-05T11:32:25.816Z</time></trkpt><trkpt lat="43.3388968" lon="10.5710951"><ele>18.333333333333336</ele><time>2026-04-05T11:32:26.816Z</time></trkpt><trkpt lat="43.3387838" lon="10.5708597"><ele>21.666666666666668</ele><time>2026-04-05T11:32:27.816Z</time></trkpt><trkpt lat="43.338663" lon="10.5706296"><ele>25.0</ele><time>2026-04-05T11:32:28.816Z</time></trkpt><trkpt lat="43.3385377" lon="10.5703992"><ele>21.666666666666668</ele><time>2026-04-05T11:32:29.816Z</time></trkpt><trkpt lat="43.3384079" lon="10.5701656"><ele>18.333333333333336</ele><time>2026-04-05T11:32:30.816Z</time></trkpt><trkpt lat="43.3382744" lon="10.5699283"><ele>15.0</ele><time>2026-04-05T11:32:31.816Z</time></trkpt><trkpt lat="43.3381377" lon="10.569686"><ele>15.5</ele><time>2026-04-05T11:32:32.815Z</time></trkpt><trkpt lat="43.3379973" lon="10.5694416"><ele>16.0</ele><time>2026-04-05T11:32:33.817Z</time></trkpt><trkpt lat="43.3378573" lon="10.5691929"><ele>16.0</ele><time>2026-04-05T11:32:34.816Z</time></trkpt><trkpt lat="43.3377181" lon="10.5689399"><ele>16.0</ele><time>2026-04-05T11:32:35.816Z</time></trkpt><trkpt lat="43.3375768" lon="10.5686853"><ele>16.5</ele><time>2026-04-05T11:32:36.816Z</time></trkpt><trkpt lat="43.3374374" lon="10.5684297"><ele>17.0</ele><time>2026-04-05T11:32:37.816Z</time></trkpt><trkpt lat="43.3372975" lon="10.5681719"><ele>16.0</ele><time>2026-04-05T11:32:38.816Z</time></trkpt><trkpt lat="43.3371631" lon="10.5679116"><ele>15.0</ele><time>2026-04-05T11:32:39.816Z</time></trkpt><trkpt lat="43.3370267" lon="10.567657"><ele>15.0</ele><time>2026-04-05T11:32:40.816Z</time></trkpt><trkpt lat="43.3368905" lon="10.5674021"><ele>15.0</ele><time>2026-04-05T11:32:41.816Z</time></trkpt><trkpt lat="43.3367496" lon="10.567156"><ele>15.0</ele><time>2026-04-05T11:32:42.816Z</time></trkpt><trkpt lat="43.336602" lon="10.5669178"><ele>15.0</ele><time>2026-04-05T11:32:43.816Z</time></trkpt><trkpt lat="43.3364512" lon="10.5666814"><ele>14.5</ele><time>2026-04-05T11:32:44.816Z</time></trkpt><trkpt lat="43.3363009" lon="10.5664432"><ele>14.0</ele><time>2026-04-05T11:32:45.816Z</time></trkpt><trkpt lat="43.3361487" lon="10.5662047"><ele>14.0</ele><time>2026-04-05T11:32:46.816Z</time></trkpt><trkpt lat="43.3359977" lon="10.5659683"><ele>14.0</ele><time>2026-04-05T11:32:47.816Z</time></trkpt><trkpt lat="43.3358476" lon="10.5657297"><ele>14.0</ele><time>2026-04-05T11:32:48.816Z</time></trkpt><trkpt lat="43.335698" lon="10.5654897"><ele>14.0</ele><time>2026-04-05T11:32:49.816Z</time></trkpt><trkpt lat="43.3355479" lon="10.5652473"><ele>13.5</ele><time>2026-04-05T11:32:50.816Z</time></trkpt><trkpt lat="43.3353962" lon="10.5650072"><ele>13.0</ele><time>2026-04-05T11:32:51.816Z</time></trkpt><trkpt lat="43.3352419" lon="10.5647667"><ele>13.0</ele><time>2026-04-05T11:32:52.816Z</time></trkpt><trkpt lat="43.3350866" lon="10.564526"><ele>13.0</ele><time>2026-04-05T11:32:53.815Z</time></trkpt><trkpt lat="43.3349314" lon="10.5642831"><ele>13.0</ele><time>2026-04-05T11:32:54.815Z</time></trkpt><trkpt lat="43.3347807" lon="10.56405"><ele>13.0</ele><time>2026-04-05T11:32:55.816Z</time></trkpt><trkpt lat="43.3346356" lon="10.5638316"><ele>13.0</ele><time>2026-04-05T11:32:56.816Z</time></trkpt><trkpt lat="43.3344987" lon="10.5636252"><ele>13.666666666666666</ele><time>2026-04-05T11:32:57.816Z</time></trkpt><trkpt lat="43.3343694" lon="10.5634292"><ele>14.333333333333332</ele><time>2026-04-05T11:32:58.816Z</time></trkpt><trkpt lat="43.3342414" lon="10.5632495"><ele>15.0</ele><time>2026-04-05T11:32:59.816Z</time></trkpt><trkpt lat="43.3341194" lon="10.5630874"><ele>15.0</ele><time>2026-04-05T11:33:00.816Z</time></trkpt><trkpt lat="43.3340045" lon="10.5629415"><ele>15.0</ele><time>2026-04-05T11:33:01.816Z</time></trkpt><trkpt lat="43.3339075" lon="10.5627998"><ele>15.0</ele><time>2026-04-05T11:33:02.816Z</time></trkpt><trkpt lat="43.3338291" lon="10.5626554"><ele>15.0</ele><time>2026-04-05T11:33:03.816Z</time></trkpt><trkpt lat="43.3337709" lon="10.5624865"><ele>15.25</ele><time>2026-04-05T11:33:04.816Z</time></trkpt><trkpt lat="43.3337071" lon="10.5623326"><ele>15.5</ele><time>2026-04-05T11:33:05.816Z</time></trkpt><trkpt lat="43.3336037" lon="10.5622072"><ele>15.75</ele><time>2026-04-05T11:33:06.816Z</time></trkpt><trkpt lat="43.3334839" lon="10.5620659"><ele>16.0</ele><time>2026-04-05T11:33:07.816Z</time></trkpt><trkpt lat="43.3333802" lon="10.5618768"><ele>16.0</ele><time>2026-04-05T11:33:08.816Z</time></trkpt><trkpt lat="43.3332725" lon="10.5616567"><ele>16.0</ele><time>2026-04-05T11:33:09.816Z</time></trkpt><trkpt lat="43.333149" lon="10.5614323"><ele>16.0</ele><time>2026-04-05T11:33:10.816Z</time></trkpt><trkpt lat="43.333009" lon="10.5612044"><ele>15.5</ele><time>2026-04-05T11:33:11.816Z</time></trkpt><trkpt lat="43.3328615" lon="10.5609633"><ele>15.0</ele><time>2026-04-05T11:33:12.816Z</time></trkpt><trkpt lat="43.3327139" lon="10.5607174"><ele>15.0</ele><time>2026-04-05T11:33:13.816Z</time></trkpt><trkpt lat="43.3325612" lon="10.5604641"><ele>15.0</ele><time>2026-04-05T11:33:14.816Z</time></trkpt><trkpt lat="43.3324074" lon="10.5602133"><ele>14.5</ele><time>2026-04-05T11:33:15.816Z</time></trkpt><trkpt lat="43.3322518" lon="10.5599572"><ele>14.0</ele><time>2026-04-05T11:33:16.816Z</time></trkpt><trkpt lat="43.3320952" lon="10.5596979"><ele>13.0</ele><time>2026-04-05T11:33:17.816Z</time></trkpt><trkpt lat="43.3319368" lon="10.5594367"><ele>12.0</ele><time>2026-04-05T11:33:18.816Z</time></trkpt><trkpt lat="43.3317747" lon="10.5591756"><ele>12.0</ele><time>2026-04-05T11:33:19.816Z</time></trkpt><trkpt lat="43.331611" lon="10.5589125"><ele>12.0</ele><time>2026-04-05T11:33:20.816Z</time></trkpt><trkpt lat="43.3314487" lon="10.5586473"><ele>12.0</ele><time>2026-04-05T11:33:21.815Z</time></trkpt><trkpt lat="43.3312884" lon="10.5583848"><ele>12.0</ele><time>2026-04-05T11:33:22.816Z</time></trkpt><trkpt lat="43.3311334" lon="10.5581329"><ele>12.0</ele><time>2026-04-05T11:33:23.816Z</time></trkpt><trkpt lat="43.3309792" lon="10.5578812"><ele>12.0</ele><time>2026-04-05T11:33:24.816Z</time></trkpt><trkpt lat="43.3308252" lon="10.5576301"><ele>12.0</ele><time>2026-04-05T11:33:25.816Z</time></trkpt><trkpt lat="43.3306678" lon="10.5573777"><ele>12.0</ele><time>2026-04-05T11:33:26.816Z</time></trkpt><trkpt lat="43.3305016" lon="10.5571196"><ele>12.0</ele><time>2026-04-05T11:33:27.816Z</time></trkpt><trkpt lat="43.3303285" lon="10.5568576"><ele>12.0</ele><time>2026-04-05T11:33:28.816Z</time></trkpt><trkpt lat="43.3301566" lon="10.5565955"><ele>12.0</ele><time>2026-04-05T11:33:29.816Z</time></trkpt><trkpt lat="43.329993" lon="10.5563439"><ele>12.0</ele><time>2026-04-05T11:33:30.816Z</time></trkpt><trkpt lat="43.3298374" lon="10.5560982"><ele>12.0</ele><time>2026-04-05T11:33:31.816Z</time></trkpt><trkpt lat="43.3296776" lon="10.5558563"><ele>12.0</ele><time>2026-04-05T11:33:32.815Z</time></trkpt><trkpt lat="43.3295099" lon="10.5556118"><ele>11.5</ele><time>2026-04-05T11:33:33.816Z</time></trkpt><trkpt lat="43.3293391" lon="10.555351"><ele>11.0</ele><time>2026-04-05T11:33:34.816Z</time></trkpt><trkpt lat="43.3291769" lon="10.5550803"><ele>11.0</ele><time>2026-04-05T11:33:35.816Z</time></trkpt><trkpt lat="43.3290181" lon="10.5548065"><ele>11.0</ele><time>2026-04-05T11:33:36.816Z</time></trkpt><trkpt lat="43.3288602" lon="10.5545319"><ele>10.5</ele><time>2026-04-05T11:33:37.816Z</time></trkpt><trkpt lat="43.3287004" lon="10.5542535"><ele>10.0</ele><time>2026-04-05T11:33:38.816Z</time></trkpt><trkpt lat="43.3285408" lon="10.5539731"><ele>10.0</ele><time>2026-04-05T11:33:39.815Z</time></trkpt><trkpt lat="43.3283822" lon="10.5536926"><ele>10.0</ele><time>2026-04-05T11:33:40.816Z</time></trkpt><trkpt lat="43.3282275" lon="10.5534097"><ele>10.0</ele><time>2026-04-05T11:33:41.816Z</time></trkpt><trkpt lat="43.3280773" lon="10.5531426"><ele>10.0</ele><time>2026-04-05T11:33:42.816Z</time></trkpt><trkpt lat="43.3279379" lon="10.5528897"><ele>10.333333333333334</ele><time>2026-04-05T11:33:43.816Z</time></trkpt><trkpt lat="43.327803" lon="10.5526457"><ele>10.666666666666666</ele><time>2026-04-05T11:33:44.816Z</time></trkpt><trkpt lat="43.3276712" lon="10.5523997"><ele>11.0</ele><time>2026-04-05T11:33:45.816Z</time></trkpt><trkpt lat="43.3275427" lon="10.5521474"><ele>12.0</ele><time>2026-04-05T11:33:46.816Z</time></trkpt><trkpt lat="43.3274194" lon="10.5518899"><ele>13.0</ele><time>2026-04-05T11:33:47.816Z</time></trkpt><trkpt lat="43.3273024" lon="10.5516204"><ele>12.5</ele><time>2026-04-05T11:33:48.815Z</time></trkpt><trkpt lat="43.3271931" lon="10.5513422"><ele>12.0</ele><time>2026-04-05T11:33:49.816Z</time></trkpt><trkpt lat="43.3270943" lon="10.5510559"><ele>12.0</ele><time>2026-04-05T11:33:50.816Z</time></trkpt><trkpt lat="43.3269989" lon="10.5507634"><ele>12.0</ele><time>2026-04-05T11:33:51.816Z</time></trkpt><trkpt lat="43.3269055" lon="10.5504698"><ele>11.333333333333334</ele><time>2026-04-05T11:33:52.816Z</time></trkpt><trkpt lat="43.3268143" lon="10.5501844"><ele>10.666666666666668</ele><time>2026-04-05T11:33:53.816Z</time></trkpt><trkpt lat="43.326728" lon="10.5499179"><ele>10.0</ele><time>2026-04-05T11:33:54.815Z</time></trkpt><trkpt lat="43.3266484" lon="10.5496709"><ele>10.0</ele><time>2026-04-05T11:33:55.816Z</time></trkpt><trkpt lat="43.3265735" lon="10.5494339"><ele>10.0</ele><time>2026-04-05T11:33:56.815Z</time></trkpt><trkpt lat="43.3265007" lon="10.5492007"><ele>10.0</ele><time>2026-04-05T11:33:57.816Z</time></trkpt><trkpt lat="43.3264265" lon="10.5489682"><ele>10.333333333333334</ele><time>2026-04-05T11:33:58.816Z</time></trkpt><trkpt lat="43.3263529" lon="10.5487339"><ele>10.666666666666666</ele><time>2026-04-05T11:33:59.816Z</time></trkpt><trkpt lat="43.3262771" lon="10.5484969"><ele>11.0</ele><time>2026-04-05T11:34:00.816Z</time></trkpt><trkpt lat="43.3261994" lon="10.5482591"><ele>10.333333333333332</ele><time>2026-04-05T11:34:01.816Z</time></trkpt><trkpt lat="43.3261238" lon="10.5480177"><ele>9.666666666666666</ele><time>2026-04-05T11:34:02.816Z</time></trkpt><trkpt lat="43.3260464" lon="10.5477754"><ele>9.0</ele><time>2026-04-05T11:34:03.816Z</time></trkpt><trkpt lat="43.3259695" lon="10.5475318"><ele>9.0</ele><time>2026-04-05T11:34:04.816Z</time></trkpt><trkpt lat="43.3258942" lon="10.5472903"><ele>9.0</ele><time>2026-04-05T11:34:05.816Z</time></trkpt><trkpt lat="43.3258188" lon="10.5470488"><ele>9.0</ele><time>2026-04-05T11:34:06.816Z</time></trkpt><trkpt lat="43.3257421" lon="10.5468068"><ele>9.0</ele><time>2026-04-05T11:34:07.816Z</time></trkpt><trkpt lat="43.3256634" lon="10.5465674"><ele>9.0</ele><time>2026-04-05T11:34:08.816Z</time></trkpt><trkpt lat="43.3255847" lon="10.546325"><ele>9.0</ele><time>2026-04-05T11:34:09.816Z</time></trkpt><trkpt lat="43.3255046" lon="10.546075"><ele>9.666666666666666</ele><time>2026-04-05T11:34:10.816Z</time></trkpt><trkpt lat="43.3254202" lon="10.5458171"><ele>10.333333333333332</ele><time>2026-04-05T11:34:11.816Z</time></trkpt><trkpt lat="43.3253308" lon="10.5455545"><ele>11.0</ele><time>2026-04-05T11:34:12.816Z</time></trkpt><trkpt lat="43.3252407" lon="10.5452826"><ele>11.0</ele><time>2026-04-05T11:34:13.816Z</time></trkpt><trkpt lat="43.3251502" lon="10.5450055"><ele>11.0</ele><time>2026-04-05T11:34:14.816Z</time></trkpt><trkpt lat="43.3250596" lon="10.5447202"><ele>11.0</ele><time>2026-04-05T11:34:15.816Z</time></trkpt><trkpt lat="43.3249706" lon="10.5444346"><ele>10.0</ele><time>2026-04-05T11:34:16.816Z</time></trkpt><trkpt lat="43.3248802" lon="10.5441488"><ele>9.0</ele><time>2026-04-05T11:34:17.816Z</time></trkpt><trkpt lat="43.3247885" lon="10.5438654"><ele>9.0</ele><time>2026-04-05T11:34:18.816Z</time></trkpt><trkpt lat="43.3246974" lon="10.5435828"><ele>9.0</ele><time>2026-04-05T11:34:19.816Z</time></trkpt><trkpt lat="43.3246091" lon="10.543304"><ele>9.0</ele><time>2026-04-05T11:34:20.816Z</time></trkpt><trkpt lat="43.324521" lon="10.5430283"><ele>9.0</ele><time>2026-04-05T11:34:21.816Z</time></trkpt><trkpt lat="43.3244309" lon="10.5427531"><ele>9.0</ele><time>2026-04-05T11:34:22.816Z</time></trkpt><trkpt lat="43.3243404" lon="10.5424781"><ele>9.0</ele><time>2026-04-05T11:34:23.816Z</time></trkpt><trkpt lat="43.3242513" lon="10.5422031"><ele>8.666666666666666</ele><time>2026-04-05T11:34:24.816Z</time></trkpt><trkpt lat="43.3241641" lon="10.5419321"><ele>8.333333333333332</ele><time>2026-04-05T11:34:25.816Z</time></trkpt><trkpt lat="43.3240811" lon="10.5416667"><ele>8.0</ele><time>2026-04-05T11:34:26.816Z</time></trkpt><trkpt lat="43.3239979" lon="10.5414101"><ele>7.666666666666666</ele><time>2026-04-05T11:34:27.816Z</time></trkpt><trkpt lat="43.3239112" lon="10.5411547"><ele>7.333333333333334</ele><time>2026-04-05T11:34:28.816Z</time></trkpt><trkpt lat="43.3238256" lon="10.5408966"><ele>7.0</ele><time>2026-04-05T11:34:29.816Z</time></trkpt><trkpt lat="43.3237415" lon="10.5406393"><ele>7.333333333333334</ele><time>2026-04-05T11:34:30.816Z</time></trkpt><trkpt lat="43.3236594" lon="10.5403776"><ele>7.666666666666666</ele><time>2026-04-05T11:34:31.816Z</time></trkpt><trkpt lat="43.3235782" lon="10.5401117"><ele>8.0</ele><time>2026-04-05T11:34:32.816Z</time></trkpt><trkpt lat="43.3234917" lon="10.5398396"><ele>8.0</ele><time>2026-04-05T11:34:33.816Z</time></trkpt><trkpt lat="43.3234027" lon="10.5395604"><ele>8.0</ele><time>2026-04-05T11:34:34.816Z</time></trkpt><trkpt lat="43.323311" lon="10.5392777"><ele>8.0</ele><time>2026-04-05T11:34:35.816Z</time></trkpt><trkpt lat="43.3232179" lon="10.538989"><ele>8.5</ele><time>2026-04-05T11:34:36.816Z</time></trkpt><trkpt lat="43.3231273" lon="10.5386966"><ele>9.0</ele><time>2026-04-05T11:34:37.816Z</time></trkpt><trkpt lat="43.3230314" lon="10.538402"><ele>9.0</ele><time>2026-04-05T11:34:38.816Z</time></trkpt><trkpt lat="43.322935" lon="10.5381045"><ele>9.0</ele><time>2026-04-05T11:34:39.816Z</time></trkpt><trkpt lat="43.3228411" lon="10.5378053"><ele>9.0</ele><time>2026-04-05T11:34:40.816Z</time></trkpt><trkpt lat="43.3227508" lon="10.5375105"><ele>9.0</ele><time>2026-04-05T11:34:41.816Z</time></trkpt><trkpt lat="43.3226659" lon="10.5372297"><ele>9.0</ele><time>2026-04-05T11:34:42.816Z</time></trkpt><trkpt lat="43.3225822" lon="10.5369661"><ele>9.0</ele><time>2026-04-05T11:34:43.815Z</time></trkpt><trkpt lat="43.3224971" lon="10.5367209"><ele>9.0</ele><time>2026-04-05T11:34:44.816Z</time></trkpt><trkpt lat="43.322403" lon="10.5364937"><ele>9.0</ele><time>2026-04-05T11:34:45.816Z</time></trkpt><trkpt lat="43.3222937" lon="10.5362881"><ele>9.0</ele><time>2026-04-05T11:34:46.816Z</time></trkpt><trkpt lat="43.3221639" lon="10.5361029"><ele>9.0</ele><time>2026-04-05T11:34:47.817Z</time></trkpt><trkpt lat="43.3220116" lon="10.5359381"><ele>9.333333333333334</ele><time>2026-04-05T11:34:48.817Z</time></trkpt><trkpt lat="43.3218431" lon="10.5357844"><ele>9.666666666666668</ele><time>2026-04-05T11:34:49.817Z</time></trkpt><trkpt lat="43.321666" lon="10.5356285"><ele>10.0</ele><time>2026-04-05T11:34:50.817Z</time></trkpt><trkpt lat="43.3214892" lon="10.5354616"><ele>10.0</ele><time>2026-04-05T11:34:51.816Z</time></trkpt><trkpt lat="43.3213113" lon="10.5352883"><ele>10.0</ele><time>2026-04-05T11:34:52.817Z</time></trkpt><trkpt lat="43.3211352" lon="10.5351179"><ele>10.0</ele><time>2026-04-05T11:34:53.817Z</time></trkpt><trkpt lat="43.3209637" lon="10.5349564"><ele>10.0</ele><time>2026-04-05T11:34:54.817Z</time></trkpt><trkpt lat="43.3207982" lon="10.5348174"><ele>10.0</ele><time>2026-04-05T11:34:55.817Z</time></trkpt><trkpt lat="43.3206373" lon="10.5347145"><ele>10.0</ele><time>2026-04-05T11:34:56.817Z</time></trkpt><trkpt lat="43.3204769" lon="10.5346558"><ele>9.333333333333334</ele><time>2026-04-05T11:34:57.817Z</time></trkpt><trkpt lat="43.3203173" lon="10.5346466"><ele>8.666666666666666</ele><time>2026-04-05T11:34:58.817Z</time></trkpt><trkpt lat="43.3201496" lon="10.5346813"><ele>8.0</ele><time>2026-04-05T11:34:59.817Z</time></trkpt><trkpt lat="43.319975" lon="10.5347558"><ele>8.0</ele><time>2026-04-05T11:35:00.817Z</time></trkpt><trkpt lat="43.319804" lon="10.5348514"><ele>8.0</ele><time>2026-04-05T11:35:01.817Z</time></trkpt><trkpt lat="43.3196328" lon="10.5349533"><ele>8.0</ele><time>2026-04-05T11:35:02.817Z</time></trkpt><trkpt lat="43.3194636" lon="10.535052"><ele>8.666666666666666</ele><time>2026-04-05T11:35:03.817Z</time></trkpt><trkpt lat="43.3192943" lon="10.535144"><ele>9.333333333333334</ele><time>2026-04-05T11:35:04.817Z</time></trkpt><trkpt lat="43.3191255" lon="10.5352337"><ele>10.0</ele><time>2026-04-05T11:35:05.817Z</time></trkpt><trkpt lat="43.3189604" lon="10.5353223"><ele>10.0</ele><time>2026-04-05T11:35:06.817Z</time></trkpt><trkpt lat="43.318796" lon="10.5353914"><ele>10.0</ele><time>2026-04-05T11:35:07.817Z</time></trkpt><trkpt lat="43.3186329" lon="10.5354207"><ele>10.0</ele><time>2026-04-05T11:35:08.817Z</time></trkpt><trkpt lat="43.3184704" lon="10.5354106"><ele>10.0</ele><time>2026-04-05T11:35:09.817Z</time></trkpt><trkpt lat="43.3183111" lon="10.5353614"><ele>10.0</ele><time>2026-04-05T11:35:10.817Z</time></trkpt><trkpt lat="43.3181615" lon="10.5352778"><ele>10.0</ele><time>2026-04-05T11:35:11.817Z</time></trkpt><trkpt lat="43.3180245" lon="10.5351564"><ele>11.333333333333334</ele><time>2026-04-05T11:35:12.817Z</time></trkpt><trkpt lat="43.3179092" lon="10.5350076"><ele>12.666666666666668</ele><time>2026-04-05T11:35:13.817Z</time></trkpt><trkpt lat="43.31781" lon="10.5348317"><ele>14.0</ele><time>2026-04-05T11:35:14.817Z</time></trkpt><trkpt lat="43.3177328" lon="10.5346315"><ele>14.333333333333334</ele><time>2026-04-05T11:35:15.817Z</time></trkpt><trkpt lat="43.3176739" lon="10.5344223"><ele>14.666666666666668</ele><time>2026-04-05T11:35:16.816Z</time></trkpt><trkpt lat="43.3176202" lon="10.5342282"><ele>15.0</ele><time>2026-04-05T11:35:17.817Z</time></trkpt><trkpt lat="43.3175547" lon="10.5340457"><ele>15.0</ele><time>2026-04-05T11:35:18.816Z</time></trkpt><trkpt lat="43.3175341" lon="10.5338738"><ele>15.0</ele><time>2026-04-05T11:35:19.817Z</time></trkpt><trkpt lat="43.3175481" lon="10.5337259"><ele>15.0</ele><time>2026-04-05T11:35:20.817Z</time></trkpt><trkpt lat="43.3175504" lon="10.5335793"><ele>15.0</ele><time>2026-04-05T11:35:21.817Z</time></trkpt><trkpt lat="43.3175221" lon="10.5334606"><ele>15.0</ele><time>2026-04-05T11:35:22.817Z</time></trkpt><trkpt lat="43.3174652" lon="10.5333662"><ele>15.0</ele><time>2026-04-05T11:35:23.817Z</time></trkpt><trkpt lat="43.3173763" lon="10.5332895"><ele>15.0</ele><time>2026-04-05T11:35:24.817Z</time></trkpt><trkpt lat="43.3172721" lon="10.5332037"><ele>15.0</ele><time>2026-04-05T11:35:25.816Z</time></trkpt><trkpt lat="43.3171642" lon="10.5330933"><ele>15.0</ele><time>2026-04-05T11:35:26.816Z</time></trkpt><trkpt lat="43.3170342" lon="10.5329901"><ele>15.0</ele><time>2026-04-05T11:35:27.817Z</time></trkpt><trkpt lat="43.3168931" lon="10.5329111"><ele>15.0</ele><time>2026-04-05T11:35:28.817Z</time></trkpt><trkpt lat="43.3167391" lon="10.5328618"><ele>15.0</ele><time>2026-04-05T11:35:29.816Z</time></trkpt><trkpt lat="43.3165785" lon="10.5328422"><ele>15.666666666666668</ele><time>2026-04-05T11:35:30.817Z</time></trkpt><trkpt lat="43.3164124" lon="10.532861"><ele>16.333333333333336</ele><time>2026-04-05T11:35:31.817Z</time></trkpt><trkpt lat="43.3162426" lon="10.5329198"><ele>17.0</ele><time>2026-04-05T11:35:32.818Z</time></trkpt><trkpt lat="43.3160706" lon="10.5330022"><ele>17.666666666666668</ele><time>2026-04-05T11:35:33.817Z</time></trkpt><trkpt lat="43.3158998" lon="10.5330862"><ele>18.333333333333332</ele><time>2026-04-05T11:35:34.817Z</time></trkpt><trkpt lat="43.3157338" lon="10.5331694"><ele>19.0</ele><time>2026-04-05T11:35:35.817Z</time></trkpt><trkpt lat="43.3155788" lon="10.5332493"><ele>19.75</ele><time>2026-04-05T11:35:36.817Z</time></trkpt><trkpt lat="43.3154339" lon="10.5333234"><ele>20.5</ele><time>2026-04-05T11:35:37.817Z</time></trkpt><trkpt lat="43.3152934" lon="10.533403"><ele>21.25</ele><time>2026-04-05T11:35:38.817Z</time></trkpt><trkpt lat="43.315164" lon="10.533477"><ele>22.0</ele><time>2026-04-05T11:35:39.817Z</time></trkpt><trkpt lat="43.315037" lon="10.5335104"><ele>22.0</ele><time>2026-04-05T11:35:40.816Z</time></trkpt><trkpt lat="43.3149056" lon="10.5334984"><ele>22.0</ele><time>2026-04-05T11:35:41.817Z</time></trkpt><trkpt lat="43.3147819" lon="10.5334464"><ele>22.0</ele><time>2026-04-05T11:35:42.817Z</time></trkpt><trkpt lat="43.314667" lon="10.5333747"><ele>22.0</ele><time>2026-04-05T11:35:43.817Z</time></trkpt><trkpt lat="43.3145564" lon="10.5333155"><ele>23.0</ele><time>2026-04-05T11:35:44.817Z</time></trkpt><trkpt lat="43.3144317" lon="10.5332964"><ele>24.0</ele><time>2026-04-05T11:35:45.817Z</time></trkpt><trkpt lat="43.3143128" lon="10.533322"><ele>25.0</ele><time>2026-04-05T11:35:46.817Z</time></trkpt><trkpt lat="43.3142109" lon="10.5333854"><ele>26.0</ele><time>2026-04-05T11:35:47.817Z</time></trkpt><trkpt lat="43.3141269" lon="10.5334902"><ele>26.0</ele><time>2026-04-05T11:35:48.817Z</time></trkpt><trkpt lat="43.3140704" lon="10.5336231"><ele>26.0</ele><time>2026-04-05T11:35:49.817Z</time></trkpt><trkpt lat="43.3140371" lon="10.5337918"><ele>26.0</ele><time>2026-04-05T11:35:50.817Z</time></trkpt><trkpt lat="43.3140317" lon="10.5339767"><ele>26.0</ele><time>2026-04-05T11:35:51.817Z</time></trkpt><trkpt lat="43.3140309" lon="10.5341495"><ele>26.5</ele><time>2026-04-05T11:35:52.817Z</time></trkpt><trkpt lat="43.3139964" lon="10.5343012"><ele>27.0</ele><time>2026-04-05T11:35:53.817Z</time></trkpt><trkpt lat="43.3139354" lon="10.5344446"><ele>27.5</ele><time>2026-04-05T11:35:54.817Z</time></trkpt><trkpt lat="43.3138367" lon="10.5345724"><ele>28.0</ele><time>2026-04-05T11:35:55.817Z</time></trkpt><trkpt lat="43.3137083" lon="10.5346878"><ele>28.333333333333336</ele><time>2026-04-05T11:35:56.817Z</time></trkpt><trkpt lat="43.3135707" lon="10.5348005"><ele>28.666666666666664</ele><time>2026-04-05T11:35:57.817Z</time></trkpt><trkpt lat="43.3134234" lon="10.5349235"><ele>29.0</ele><time>2026-04-05T11:35:58.817Z</time></trkpt><trkpt lat="43.3132702" lon="10.5350571"><ele>29.0</ele><time>2026-04-05T11:35:59.817Z</time></trkpt><trkpt lat="43.3131165" lon="10.535197"><ele>29.0</ele><time>2026-04-05T11:36:00.817Z</time></trkpt><trkpt lat="43.3129562" lon="10.5353343"><ele>29.0</ele><time>2026-04-05T11:36:01.817Z</time></trkpt><trkpt lat="43.3127923" lon="10.5354783"><ele>28.0</ele><time>2026-04-05T11:36:02.817Z</time></trkpt><trkpt lat="43.3126265" lon="10.5356313"><ele>27.0</ele><time>2026-04-05T11:36:03.817Z</time></trkpt><trkpt lat="43.3124597" lon="10.5357809"><ele>26.0</ele><time>2026-04-05T11:36:04.817Z</time></trkpt><trkpt lat="43.3122886" lon="10.5359323"><ele>25.666666666666664</ele><time>2026-04-05T11:36:05.817Z</time></trkpt><trkpt lat="43.3121167" lon="10.5360867"><ele>25.333333333333336</ele><time>2026-04-05T11:36:06.817Z</time></trkpt><trkpt lat="43.3119427" lon="10.5362444"><ele>25.0</ele><time>2026-04-05T11:36:07.817Z</time></trkpt><trkpt lat="43.3117675" lon="10.5364035"><ele>25.0</ele><time>2026-04-05T11:36:08.817Z</time></trkpt><trkpt lat="43.3115932" lon="10.536558"><ele>25.0</ele><time>2026-04-05T11:36:09.817Z</time></trkpt><trkpt lat="43.3114208" lon="10.5367135"><ele>25.0</ele><time>2026-04-05T11:36:10.817Z</time></trkpt><trkpt lat="43.3112564" lon="10.5368607"><ele>25.0</ele><time>2026-04-05T11:36:11.817Z</time></trkpt><trkpt lat="43.3110922" lon="10.537006"><ele>25.0</ele><time>2026-04-05T11:36:12.817Z</time></trkpt><trkpt lat="43.3109238" lon="10.5371509"><ele>25.0</ele><time>2026-04-05T11:36:13.817Z</time></trkpt><trkpt lat="43.3107665" lon="10.5372845"><ele>25.0</ele><time>2026-04-05T11:36:14.817Z</time></trkpt><trkpt lat="43.3106362" lon="10.5373923"><ele>25.0</ele><time>2026-04-05T11:36:15.817Z</time></trkpt><trkpt lat="43.310526" lon="10.5374668"><ele>25.0</ele><time>2026-04-05T11:36:16.817Z</time></trkpt><trkpt lat="43.3104298" lon="10.5375053"><ele>25.0</ele><time>2026-04-05T11:36:17.817Z</time></trkpt><trkpt lat="43.3103489" lon="10.5375202"><ele>25.0</ele><time>2026-04-05T11:36:18.816Z</time></trkpt><trkpt lat="43.3102781" lon="10.5375511"><ele>25.0</ele><time>2026-04-05T11:36:19.817Z</time></trkpt><trkpt lat="43.310216" lon="10.5376273"><ele>25.0</ele><time>2026-04-05T11:36:20.817Z</time></trkpt><trkpt lat="43.3101559" lon="10.5377396"><ele>25.0</ele><time>2026-04-05T11:36:21.817Z</time></trkpt><trkpt lat="43.3100735" lon="10.5378663"><ele>25.0</ele><time>2026-04-05T11:36:22.817Z</time></trkpt><trkpt lat="43.30996" lon="10.5379847"><ele>25.0</ele><time>2026-04-05T11:36:23.817Z</time></trkpt><trkpt lat="43.3098342" lon="10.538107"><ele>25.0</ele><time>2026-04-05T11:36:24.817Z</time></trkpt><trkpt lat="43.3096967" lon="10.5382302"><ele>25.0</ele><time>2026-04-05T11:36:25.816Z</time></trkpt><trkpt lat="43.309547" lon="10.5383623"><ele>25.0</ele><time>2026-04-05T11:36:26.817Z</time></trkpt><trkpt lat="43.3093924" lon="10.5384966"><ele>25.0</ele><time>2026-04-05T11:36:27.817Z</time></trkpt><trkpt lat="43.3092342" lon="10.5386413"><ele>25.0</ele><time>2026-04-05T11:36:28.817Z</time></trkpt><trkpt lat="43.3090694" lon="10.5387956"><ele>25.666666666666668</ele><time>2026-04-05T11:36:29.817Z</time></trkpt><trkpt lat="43.3088966" lon="10.5389513"><ele>26.333333333333336</ele><time>2026-04-05T11:36:30.817Z</time></trkpt><trkpt lat="43.3087246" lon="10.5391004"><ele>27.0</ele><time>2026-04-05T11:36:31.817Z</time></trkpt><trkpt lat="43.308549" lon="10.5392539"><ele>27.0</ele><time>2026-04-05T11:36:32.817Z</time></trkpt><trkpt lat="43.3083744" lon="10.539408"><ele>27.0</ele><time>2026-04-05T11:36:33.817Z</time></trkpt><trkpt lat="43.3082011" lon="10.5395656"><ele>27.0</ele><time>2026-04-05T11:36:34.817Z</time></trkpt><trkpt lat="43.3080299" lon="10.5397198"><ele>27.0</ele><time>2026-04-05T11:36:35.817Z</time></trkpt><trkpt lat="43.3078595" lon="10.5398701"><ele>27.0</ele><time>2026-04-05T11:36:36.817Z</time></trkpt><trkpt lat="43.3076916" lon="10.5400205"><ele>27.0</ele><time>2026-04-05T11:36:37.817Z</time></trkpt><trkpt lat="43.3075241" lon="10.5401725"><ele>27.0</ele><time>2026-04-05T11:36:38.817Z</time></trkpt><trkpt lat="43.3073523" lon="10.5403185"><ele>27.0</ele><time>2026-04-05T11:36:39.817Z</time></trkpt><trkpt lat="43.3071808" lon="10.5404679"><ele>27.0</ele><time>2026-04-05T11:36:40.817Z</time></trkpt><trkpt lat="43.3070096" lon="10.5406273"><ele>26.333333333333336</ele><time>2026-04-05T11:36:41.817Z</time></trkpt><trkpt lat="43.3068382" lon="10.5407923"><ele>25.666666666666668</ele><time>2026-04-05T11:36:42.817Z</time></trkpt><trkpt lat="43.3066661" lon="10.540961"><ele>25.0</ele><time>2026-04-05T11:36:43.817Z</time></trkpt><trkpt lat="43.3064895" lon="10.5411335"><ele>24.666666666666668</ele><time>2026-04-05T11:36:44.817Z</time></trkpt><trkpt lat="43.3063112" lon="10.5413061"><ele>24.333333333333336</ele><time>2026-04-05T11:36:45.817Z</time></trkpt><trkpt lat="43.3061297" lon="10.5414814"><ele>24.0</ele><time>2026-04-05T11:36:46.817Z</time></trkpt><trkpt lat="43.3059456" lon="10.5416588"><ele>24.0</ele><time>2026-04-05T11:36:47.817Z</time></trkpt><trkpt lat="43.3057598" lon="10.5418385"><ele>24.0</ele><time>2026-04-05T11:36:48.817Z</time></trkpt><trkpt lat="43.3055735" lon="10.5420188"><ele>24.5</ele><time>2026-04-05T11:36:49.817Z</time></trkpt><trkpt lat="43.3053855" lon="10.5422047"><ele>25.0</ele><time>2026-04-05T11:36:50.817Z</time></trkpt><trkpt lat="43.3051984" lon="10.5423941"><ele>25.0</ele><time>2026-04-05T11:36:51.817Z</time></trkpt><trkpt lat="43.3050078" lon="10.5425812"><ele>25.0</ele><time>2026-04-05T11:36:52.817Z</time></trkpt><trkpt lat="43.3048161" lon="10.5427682"><ele>24.5</ele><time>2026-04-05T11:36:53.817Z</time></trkpt><trkpt lat="43.3046245" lon="10.5429553"><ele>24.0</ele><time>2026-04-05T11:36:54.817Z</time></trkpt><trkpt lat="43.3044301" lon="10.543142"><ele>24.0</ele><time>2026-04-05T11:36:55.817Z</time></trkpt><trkpt lat="43.304235" lon="10.5433288"><ele>24.0</ele><time>2026-04-05T11:36:56.817Z</time></trkpt><trkpt lat="43.304043" lon="10.543518"><ele>25.0</ele><time>2026-04-05T11:36:57.817Z</time></trkpt><trkpt lat="43.3038501" lon="10.5437065"><ele>26.0</ele><time>2026-04-05T11:36:58.817Z</time></trkpt><trkpt lat="43.3036566" lon="10.5438941"><ele>27.5</ele><time>2026-04-05T11:36:59.817Z</time></trkpt><trkpt lat="43.3034629" lon="10.5440813"><ele>29.0</ele><time>2026-04-05T11:37:00.817Z</time></trkpt><trkpt lat="43.3032685" lon="10.5442688"><ele>29.0</ele><time>2026-04-05T11:37:01.817Z</time></trkpt><trkpt lat="43.3030848" lon="10.5444448"><ele>29.0</ele><time>2026-04-05T11:37:02.817Z</time></trkpt><trkpt lat="43.3029135" lon="10.54461"><ele>29.0</ele><time>2026-04-05T11:37:03.817Z</time></trkpt><trkpt lat="43.3027525" lon="10.5447697"><ele>30.0</ele><time>2026-04-05T11:37:04.817Z</time></trkpt><trkpt lat="43.3025957" lon="10.5449248"><ele>31.0</ele><time>2026-04-05T11:37:05.817Z</time></trkpt><trkpt lat="43.3024424" lon="10.5450754"><ele>32.0</ele><time>2026-04-05T11:37:06.817Z</time></trkpt><trkpt lat="43.3022883" lon="10.5452286"><ele>31.333333333333332</ele><time>2026-04-05T11:37:07.817Z</time></trkpt><trkpt lat="43.3021319" lon="10.545381"><ele>30.666666666666664</ele><time>2026-04-05T11:37:08.817Z</time></trkpt><trkpt lat="43.3019729" lon="10.5455313"><ele>30.0</ele><time>2026-04-05T11:37:09.816Z</time></trkpt><trkpt lat="43.3018117" lon="10.5456863"><ele>30.0</ele><time>2026-04-05T11:37:10.817Z</time></trkpt><trkpt lat="43.3016437" lon="10.5458407"><ele>30.0</ele><time>2026-04-05T11:37:11.817Z</time></trkpt><trkpt lat="43.301464" lon="10.5459888"><ele>30.0</ele><time>2026-04-05T11:37:12.817Z</time></trkpt><trkpt lat="43.3012703" lon="10.546125"><ele>28.5</ele><time>2026-04-05T11:37:13.816Z</time></trkpt><trkpt lat="43.3010607" lon="10.5462465"><ele>27.0</ele><time>2026-04-05T11:37:14.817Z</time></trkpt><trkpt lat="43.3008429" lon="10.5463604"><ele>27.0</ele><time>2026-04-05T11:37:15.817Z</time></trkpt><trkpt lat="43.3006212" lon="10.5464761"><ele>27.0</ele><time>2026-04-05T11:37:16.817Z</time></trkpt><trkpt lat="43.3003985" lon="10.5466017"><ele>27.0</ele><time>2026-04-05T11:37:17.816Z</time></trkpt><trkpt lat="43.3001766" lon="10.5467243"><ele>27.0</ele><time>2026-04-05T11:37:18.818Z</time></trkpt><trkpt lat="43.2999584" lon="10.5468411"><ele>27.0</ele><time>2026-04-05T11:37:19.817Z</time></trkpt><trkpt lat="43.2997406" lon="10.5469545"><ele>27.0</ele><time>2026-04-05T11:37:20.817Z</time></trkpt><trkpt lat="43.2995242" lon="10.5470686"><ele>27.5</ele><time>2026-04-05T11:37:21.816Z</time></trkpt><trkpt lat="43.2993102" lon="10.5471837"><ele>28.0</ele><time>2026-04-05T11:37:22.817Z</time></trkpt><trkpt lat="43.2990952" lon="10.5472931"><ele>27.5</ele><time>2026-04-05T11:37:23.817Z</time></trkpt><trkpt lat="43.2988821" lon="10.5474072"><ele>27.0</ele><time>2026-04-05T11:37:24.817Z</time></trkpt><trkpt lat="43.2986682" lon="10.5475201"><ele>27.0</ele><time>2026-04-05T11:37:25.817Z</time></trkpt><trkpt lat="43.2984541" lon="10.5476366"><ele>27.0</ele><time>2026-04-05T11:37:26.817Z</time></trkpt><trkpt lat="43.2982358" lon="10.5477543"><ele>28.0</ele><time>2026-04-05T11:37:27.817Z</time></trkpt><trkpt lat="43.298015" lon="10.5478732"><ele>29.0</ele><time>2026-04-05T11:37:28.817Z</time></trkpt><trkpt lat="43.297795" lon="10.5479898"><ele>30.5</ele><time>2026-04-05T11:37:29.817Z</time></trkpt><trkpt lat="43.2975821" lon="10.5481042"><ele>32.0</ele><time>2026-04-05T11:37:30.817Z</time></trkpt><trkpt lat="43.2973722" lon="10.5482203"><ele>31.333333333333332</ele><time>2026-04-05T11:37:31.817Z</time></trkpt><trkpt lat="43.2971647" lon="10.5483306"><ele>30.666666666666664</ele><time>2026-04-05T11:37:32.817Z</time></trkpt><trkpt lat="43.2969568" lon="10.5484388"><ele>30.0</ele><time>2026-04-05T11:37:33.817Z</time></trkpt><trkpt lat="43.2967465" lon="10.5485472"><ele>30.0</ele><time>2026-04-05T11:37:34.817Z</time></trkpt><trkpt lat="43.2965342" lon="10.5486579"><ele>30.0</ele><time>2026-04-05T11:37:35.817Z</time></trkpt><trkpt lat="43.2963227" lon="10.5487723"><ele>28.5</ele><time>2026-04-05T11:37:36.817Z</time></trkpt><trkpt lat="43.2961071" lon="10.5488855"><ele>27.0</ele><time>2026-04-05T11:37:37.817Z</time></trkpt><trkpt lat="43.2958894" lon="10.5489985"><ele>27.0</ele><time>2026-04-05T11:37:38.817Z</time></trkpt><trkpt lat="43.2956762" lon="10.549113"><ele>27.0</ele><time>2026-04-05T11:37:39.817Z</time></trkpt><trkpt lat="43.2954688" lon="10.5492216"><ele>28.0</ele><time>2026-04-05T11:37:40.817Z</time></trkpt><trkpt lat="43.295272" lon="10.5493231"><ele>29.0</ele><time>2026-04-05T11:37:41.817Z</time></trkpt><trkpt lat="43.2950892" lon="10.5494206"><ele>30.0</ele><time>2026-04-05T11:37:42.817Z</time></trkpt><trkpt lat="43.2949115" lon="10.5495143"><ele>30.333333333333336</ele><time>2026-04-05T11:37:43.817Z</time></trkpt><trkpt lat="43.294728" lon="10.5496102"><ele>30.666666666666668</ele><time>2026-04-05T11:37:44.817Z</time></trkpt><trkpt lat="43.2945417" lon="10.5497085"><ele>31.0</ele><time>2026-04-05T11:37:45.817Z</time></trkpt><trkpt lat="43.2943535" lon="10.5498083"><ele>31.0</ele><time>2026-04-05T11:37:46.817Z</time></trkpt><trkpt lat="43.294162" lon="10.5499117"><ele>31.0</ele><time>2026-04-05T11:37:47.816Z</time></trkpt><trkpt lat="43.2939659" lon="10.5500136"><ele>31.0</ele><time>2026-04-05T11:37:48.817Z</time></trkpt><trkpt lat="43.2937659" lon="10.5501168"><ele>29.666666666666668</ele><time>2026-04-05T11:37:49.817Z</time></trkpt><trkpt lat="43.2935628" lon="10.5502209"><ele>28.333333333333336</ele><time>2026-04-05T11:37:50.817Z</time></trkpt><trkpt lat="43.2933614" lon="10.5503309"><ele>27.0</ele><time>2026-04-05T11:37:51.817Z</time></trkpt><trkpt lat="43.2931617" lon="10.5504448"><ele>26.333333333333336</ele><time>2026-04-05T11:37:52.817Z</time></trkpt><trkpt lat="43.2929591" lon="10.5505525"><ele>25.666666666666668</ele><time>2026-04-05T11:37:53.817Z</time></trkpt><trkpt lat="43.2927559" lon="10.5506583"><ele>25.0</ele><time>2026-04-05T11:37:54.817Z</time></trkpt><trkpt lat="43.2925485" lon="10.5507637"><ele>25.0</ele><time>2026-04-05T11:37:55.817Z</time></trkpt><trkpt lat="43.2923425" lon="10.5508702"><ele>25.0</ele><time>2026-04-05T11:37:56.817Z</time></trkpt><trkpt lat="43.2921353" lon="10.550975"><ele>25.0</ele><time>2026-04-05T11:37:57.817Z</time></trkpt><trkpt lat="43.2919264" lon="10.5510841"><ele>22.5</ele><time>2026-04-05T11:37:58.817Z</time></trkpt><trkpt lat="43.2917144" lon="10.5511949"><ele>20.0</ele><time>2026-04-05T11:37:59.817Z</time></trkpt><trkpt lat="43.2915008" lon="10.5513041"><ele>20.0</ele><time>2026-04-05T11:38:00.817Z</time></trkpt><trkpt lat="43.2912882" lon="10.551415"><ele>20.0</ele><time>2026-04-05T11:38:01.817Z</time></trkpt><trkpt lat="43.2910763" lon="10.5515272"><ele>20.0</ele><time>2026-04-05T11:38:02.817Z</time></trkpt><trkpt lat="43.2908676" lon="10.5516353"><ele>20.0</ele><time>2026-04-05T11:38:03.817Z</time></trkpt><trkpt lat="43.2906621" lon="10.5517425"><ele>20.0</ele><time>2026-04-05T11:38:04.817Z</time></trkpt><trkpt lat="43.2904585" lon="10.5518498"><ele>20.666666666666668</ele><time>2026-04-05T11:38:05.817Z</time></trkpt><trkpt lat="43.2902573" lon="10.5519572"><ele>21.333333333333332</ele><time>2026-04-05T11:38:06.817Z</time></trkpt><trkpt lat="43.2900672" lon="10.5520574"><ele>22.0</ele><time>2026-04-05T11:38:07.817Z</time></trkpt><trkpt lat="43.289887" lon="10.5521501"><ele>23.333333333333332</ele><time>2026-04-05T11:38:08.817Z</time></trkpt><trkpt lat="43.2897161" lon="10.5522378"><ele>24.666666666666664</ele><time>2026-04-05T11:38:09.817Z</time></trkpt><trkpt lat="43.2895463" lon="10.5523303"><ele>26.0</ele><time>2026-04-05T11:38:10.817Z</time></trkpt><trkpt lat="43.2893741" lon="10.5524201"><ele>26.0</ele><time>2026-04-05T11:38:11.817Z</time></trkpt><trkpt lat="43.2891997" lon="10.5525119"><ele>26.0</ele><time>2026-04-05T11:38:12.817Z</time></trkpt><trkpt lat="43.2890244" lon="10.5526071"><ele>26.0</ele><time>2026-04-05T11:38:13.817Z</time></trkpt><trkpt lat="43.2888448" lon="10.5527016"><ele>26.0</ele><time>2026-04-05T11:38:14.817Z</time></trkpt><trkpt lat="43.2886613" lon="10.5527953"><ele>26.0</ele><time>2026-04-05T11:38:15.817Z</time></trkpt><trkpt lat="43.2884795" lon="10.5528896"><ele>26.0</ele><time>2026-04-05T11:38:16.817Z</time></trkpt><trkpt lat="43.2882966" lon="10.5529878"><ele>25.666666666666664</ele><time>2026-04-05T11:38:17.817Z</time></trkpt><trkpt lat="43.2881132" lon="10.5530845"><ele>25.333333333333336</ele><time>2026-04-05T11:38:18.817Z</time></trkpt><trkpt lat="43.2879255" lon="10.5531825"><ele>25.0</ele><time>2026-04-05T11:38:19.817Z</time></trkpt><trkpt lat="43.2877331" lon="10.5532845"><ele>24.666666666666668</ele><time>2026-04-05T11:38:20.817Z</time></trkpt><trkpt lat="43.2875315" lon="10.5533916"><ele>24.333333333333336</ele><time>2026-04-05T11:38:21.817Z</time></trkpt><trkpt lat="43.2873257" lon="10.5535029"><ele>24.0</ele><time>2026-04-05T11:38:22.816Z</time></trkpt><trkpt lat="43.2871134" lon="10.5536154"><ele>24.5</ele><time>2026-04-05T11:38:23.817Z</time></trkpt><trkpt lat="43.2868948" lon="10.5537281"><ele>25.0</ele><time>2026-04-05T11:38:24.817Z</time></trkpt><trkpt lat="43.2866692" lon="10.553845"><ele>25.0</ele><time>2026-04-05T11:38:25.817Z</time></trkpt><trkpt lat="43.2864395" lon="10.5539629"><ele>25.0</ele><time>2026-04-05T11:38:26.817Z</time></trkpt><trkpt lat="43.2862116" lon="10.5540816"><ele>25.0</ele><time>2026-04-05T11:38:27.817Z</time></trkpt><trkpt lat="43.2859843" lon="10.5542023"><ele>25.0</ele><time>2026-04-05T11:38:28.817Z</time></trkpt><trkpt lat="43.2857592" lon="10.5543213"><ele>25.5</ele><time>2026-04-05T11:38:29.817Z</time></trkpt><trkpt lat="43.2855403" lon="10.5544394"><ele>26.0</ele><time>2026-04-05T11:38:30.817Z</time></trkpt><trkpt lat="43.2853346" lon="10.5545499"><ele>26.0</ele><time>2026-04-05T11:38:31.817Z</time></trkpt><trkpt lat="43.2851398" lon="10.5546496"><ele>26.0</ele><time>2026-04-05T11:38:32.816Z</time></trkpt><trkpt lat="43.2849542" lon="10.5547468"><ele>26.0</ele><time>2026-04-05T11:38:33.817Z</time></trkpt><trkpt lat="43.2847681" lon="10.5548427"><ele>26.666666666666664</ele><time>2026-04-05T11:38:34.817Z</time></trkpt><trkpt lat="43.2845786" lon="10.5549429"><ele>27.333333333333336</ele><time>2026-04-05T11:38:35.817Z</time></trkpt><trkpt lat="43.2843818" lon="10.5550458"><ele>28.0</ele><time>2026-04-05T11:38:36.817Z</time></trkpt><trkpt lat="43.284181" lon="10.5551518"><ele>28.0</ele><time>2026-04-05T11:38:37.817Z</time></trkpt><trkpt lat="43.2839748" lon="10.5552644"><ele>28.0</ele><time>2026-04-05T11:38:38.817Z</time></trkpt><trkpt lat="43.2837628" lon="10.5553779"><ele>28.0</ele><time>2026-04-05T11:38:39.817Z</time></trkpt><trkpt lat="43.2835478" lon="10.5554905"><ele>26.0</ele><time>2026-04-05T11:38:40.817Z</time></trkpt><trkpt lat="43.2833316" lon="10.5556052"><ele>24.0</ele><time>2026-04-05T11:38:41.817Z</time></trkpt><trkpt lat="43.2831115" lon="10.5557222"><ele>22.5</ele><time>2026-04-05T11:38:42.817Z</time></trkpt><trkpt lat="43.2828909" lon="10.5558374"><ele>21.0</ele><time>2026-04-05T11:38:43.817Z</time></trkpt><trkpt lat="43.2826835" lon="10.5559451"><ele>21.0</ele><time>2026-04-05T11:38:44.817Z</time></trkpt><trkpt lat="43.2824845" lon="10.5560467"><ele>21.0</ele><time>2026-04-05T11:38:45.817Z</time></trkpt><trkpt lat="43.2822939" lon="10.5561477"><ele>21.0</ele><time>2026-04-05T11:38:46.817Z</time></trkpt><trkpt lat="43.2821093" lon="10.5562452"><ele>20.666666666666668</ele><time>2026-04-05T11:38:47.817Z</time></trkpt><trkpt lat="43.2819233" lon="10.5563414"><ele>20.333333333333336</ele><time>2026-04-05T11:38:48.817Z</time></trkpt><trkpt lat="43.2817356" lon="10.556442"><ele>20.0</ele><time>2026-04-05T11:38:49.817Z</time></trkpt><trkpt lat="43.2815399" lon="10.5565477"><ele>20.0</ele><time>2026-04-05T11:38:50.817Z</time></trkpt><trkpt lat="43.2813413" lon="10.5566527"><ele>20.0</ele><time>2026-04-05T11:38:51.817Z</time></trkpt><trkpt lat="43.2811362" lon="10.5567605"><ele>20.0</ele><time>2026-04-05T11:38:52.817Z</time></trkpt><trkpt lat="43.2809267" lon="10.5568716"><ele>20.0</ele><time>2026-04-05T11:38:53.816Z</time></trkpt><trkpt lat="43.2807083" lon="10.5569861"><ele>20.0</ele><time>2026-04-05T11:38:54.817Z</time></trkpt><trkpt lat="43.2804831" lon="10.5571003"><ele>21.0</ele><time>2026-04-05T11:38:55.817Z</time></trkpt><trkpt lat="43.2802522" lon="10.5572186"><ele>22.0</ele><time>2026-04-05T11:38:56.817Z</time></trkpt><trkpt lat="43.28002" lon="10.5573413"><ele>22.0</ele><time>2026-04-05T11:38:57.817Z</time></trkpt><trkpt lat="43.2797874" lon="10.5574639"><ele>22.0</ele><time>2026-04-05T11:38:58.816Z</time></trkpt><trkpt lat="43.2795532" lon="10.5575857"><ele>22.0</ele><time>2026-04-05T11:38:59.817Z</time></trkpt><trkpt lat="43.2793186" lon="10.5577076"><ele>22.0</ele><time>2026-04-05T11:39:00.817Z</time></trkpt><trkpt lat="43.2790839" lon="10.5578287"><ele>21.0</ele><time>2026-04-05T11:39:01.817Z</time></trkpt><trkpt lat="43.2788583" lon="10.5579423"><ele>20.0</ele><time>2026-04-05T11:39:02.817Z</time></trkpt><trkpt lat="43.2786471" lon="10.5580607"><ele>20.0</ele><time>2026-04-05T11:39:03.817Z</time></trkpt><trkpt lat="43.2784522" lon="10.5581869"><ele>20.0</ele><time>2026-04-05T11:39:04.817Z</time></trkpt><trkpt lat="43.2782694" lon="10.5583348"><ele>20.0</ele><time>2026-04-05T11:39:05.817Z</time></trkpt><trkpt lat="43.2780902" lon="10.5585133"><ele>19.0</ele><time>2026-04-05T11:39:06.816Z</time></trkpt><trkpt lat="43.277925" lon="10.558712"><ele>18.0</ele><time>2026-04-05T11:39:07.817Z</time></trkpt><trkpt lat="43.2777688" lon="10.5589257"><ele>17.0</ele><time>2026-04-05T11:39:08.817Z</time></trkpt><trkpt lat="43.2776187" lon="10.5591358"><ele>17.0</ele><time>2026-04-05T11:39:09.817Z</time></trkpt><trkpt lat="43.2774727" lon="10.5593304"><ele>17.0</ele><time>2026-04-05T11:39:10.817Z</time></trkpt><trkpt lat="43.2773246" lon="10.5595252"><ele>17.0</ele><time>2026-04-05T11:39:11.817Z</time></trkpt><trkpt lat="43.2771795" lon="10.5597249"><ele>17.333333333333336</ele><time>2026-04-05T11:39:12.817Z</time></trkpt><trkpt lat="43.2770329" lon="10.5599304"><ele>17.666666666666668</ele><time>2026-04-05T11:39:13.817Z</time></trkpt><trkpt lat="43.2768807" lon="10.5601402"><ele>18.0</ele><time>2026-04-05T11:39:14.817Z</time></trkpt><trkpt lat="43.2767276" lon="10.560358"><ele>18.0</ele><time>2026-04-05T11:39:15.817Z</time></trkpt><trkpt lat="43.2765736" lon="10.5605909"><ele>18.0</ele><time>2026-04-05T11:39:16.817Z</time></trkpt><trkpt lat="43.2764221" lon="10.5608348"><ele>17.0</ele><time>2026-04-05T11:39:17.817Z</time></trkpt><trkpt lat="43.2762667" lon="10.5610841"><ele>16.0</ele><time>2026-04-05T11:39:18.817Z</time></trkpt><trkpt lat="43.2761042" lon="10.5613288"><ele>16.0</ele><time>2026-04-05T11:39:19.817Z</time></trkpt><trkpt lat="43.2759399" lon="10.5615644"><ele>16.0</ele><time>2026-04-05T11:39:20.817Z</time></trkpt><trkpt lat="43.2757799" lon="10.561794"><ele>16.0</ele><time>2026-04-05T11:39:21.817Z</time></trkpt><trkpt lat="43.2756232" lon="10.5620182"><ele>16.0</ele><time>2026-04-05T11:39:22.817Z</time></trkpt><trkpt lat="43.2754653" lon="10.5622409"><ele>16.5</ele><time>2026-04-05T11:39:23.817Z</time></trkpt><trkpt lat="43.2753073" lon="10.5624665"><ele>17.0</ele><time>2026-04-05T11:39:24.817Z</time></trkpt><trkpt lat="43.2751496" lon="10.5626935"><ele>17.0</ele><time>2026-04-05T11:39:25.817Z</time></trkpt><trkpt lat="43.2749909" lon="10.5629211"><ele>17.0</ele><time>2026-04-05T11:39:26.817Z</time></trkpt><trkpt lat="43.274828" lon="10.5631543"><ele>17.0</ele><time>2026-04-05T11:39:27.817Z</time></trkpt><trkpt lat="43.2746653" lon="10.5633897"><ele>17.0</ele><time>2026-04-05T11:39:28.817Z</time></trkpt><trkpt lat="43.2745023" lon="10.5636229"><ele>17.5</ele><time>2026-04-05T11:39:29.817Z</time></trkpt><trkpt lat="43.2743455" lon="10.5638483"><ele>18.0</ele><time>2026-04-05T11:39:30.817Z</time></trkpt><trkpt lat="43.2741899" lon="10.5640728"><ele>18.0</ele><time>2026-04-05T11:39:31.817Z</time></trkpt><trkpt lat="43.2740317" lon="10.5642986"><ele>18.0</ele><time>2026-04-05T11:39:32.817Z</time></trkpt><trkpt lat="43.2738721" lon="10.5645296"><ele>17.5</ele><time>2026-04-05T11:39:33.817Z</time></trkpt><trkpt lat="43.2737111" lon="10.5647707"><ele>17.0</ele><time>2026-04-05T11:39:34.817Z</time></trkpt><trkpt lat="43.2735482" lon="10.5650123"><ele>17.0</ele><time>2026-04-05T11:39:35.817Z</time></trkpt><trkpt lat="43.2733839" lon="10.5652524"><ele>17.0</ele><time>2026-04-05T11:39:36.817Z</time></trkpt><trkpt lat="43.2732179" lon="10.5654907"><ele>17.5</ele><time>2026-04-05T11:39:37.817Z</time></trkpt><trkpt lat="43.2730522" lon="10.5657221"><ele>18.0</ele><time>2026-04-05T11:39:38.817Z</time></trkpt><trkpt lat="43.2728906" lon="10.5659379"><ele>18.0</ele><time>2026-04-05T11:39:39.817Z</time></trkpt><trkpt lat="43.2727362" lon="10.5661409"><ele>18.0</ele><time>2026-04-05T11:39:40.817Z</time></trkpt><trkpt lat="43.2725927" lon="10.5663387"><ele>18.0</ele><time>2026-04-05T11:39:41.817Z</time></trkpt><trkpt lat="43.2724624" lon="10.5665305"><ele>18.0</ele><time>2026-04-05T11:39:42.817Z</time></trkpt><trkpt lat="43.2723404" lon="10.5667026"><ele>18.0</ele><time>2026-04-05T11:39:43.817Z</time></trkpt><trkpt lat="43.2722296" lon="10.5668608"><ele>18.0</ele><time>2026-04-05T11:39:44.817Z</time></trkpt><trkpt lat="43.2721308" lon="10.5670037"><ele>18.0</ele><time>2026-04-05T11:39:45.817Z</time></trkpt><trkpt lat="43.2720414" lon="10.5671199"><ele>18.0</ele><time>2026-04-05T11:39:46.817Z</time></trkpt><trkpt lat="43.2719547" lon="10.5671918"><ele>18.0</ele><time>2026-04-05T11:39:47.817Z</time></trkpt><trkpt lat="43.2718711" lon="10.5672065"><ele>18.0</ele><time>2026-04-05T11:39:48.817Z</time></trkpt><trkpt lat="43.2718046" lon="10.5671717"><ele>18.0</ele><time>2026-04-05T11:39:49.817Z</time></trkpt><trkpt lat="43.2717648" lon="10.5670957"><ele>18.0</ele><time>2026-04-05T11:39:50.817Z</time></trkpt><trkpt lat="43.2717535" lon="10.5669835"><ele>18.0</ele><time>2026-04-05T11:39:51.817Z</time></trkpt><trkpt lat="43.2717644" lon="10.5668303"><ele>18.0</ele><time>2026-04-05T11:39:52.817Z</time></trkpt><trkpt lat="43.2717943" lon="10.566637"><ele>18.0</ele><time>2026-04-05T11:39:53.816Z</time></trkpt><trkpt lat="43.2718266" lon="10.566422"><ele>18.0</ele><time>2026-04-05T11:39:54.817Z</time></trkpt><trkpt lat="43.2718663" lon="10.5661842"><ele>18.0</ele><time>2026-04-05T11:39:55.817Z</time></trkpt><trkpt lat="43.2719087" lon="10.5659278"><ele>18.0</ele><time>2026-04-05T11:39:56.817Z</time></trkpt><trkpt lat="43.2719554" lon="10.5656728"><ele>18.0</ele><time>2026-04-05T11:39:57.817Z</time></trkpt><trkpt lat="43.2719978" lon="10.5654151"><ele>17.333333333333332</ele><time>2026-04-05T11:39:58.817Z</time></trkpt><trkpt lat="43.2720323" lon="10.5651536"><ele>16.666666666666664</ele><time>2026-04-05T11:39:59.817Z</time></trkpt><trkpt lat="43.272047" lon="10.5648841"><ele>16.0</ele><time>2026-04-05T11:40:00.817Z</time></trkpt><trkpt lat="43.2720336" lon="10.5645996"><ele>15.666666666666666</ele><time>2026-04-05T11:40:01.816Z</time></trkpt><trkpt lat="43.2720117" lon="10.5643101"><ele>15.333333333333332</ele><time>2026-04-05T11:40:02.817Z</time></trkpt><trkpt lat="43.2719823" lon="10.5640074"><ele>15.0</ele><time>2026-04-05T11:40:03.816Z</time></trkpt><trkpt lat="43.2719447" lon="10.563695"><ele>16.0</ele><time>2026-04-05T11:40:04.817Z</time></trkpt><trkpt lat="43.2719035" lon="10.5633717"><ele>17.0</ele><time>2026-04-05T11:40:05.817Z</time></trkpt><trkpt lat="43.271865" lon="10.5630414"><ele>16.5</ele><time>2026-04-05T11:40:06.817Z</time></trkpt><trkpt lat="43.2718254" lon="10.5627108"><ele>16.0</ele><time>2026-04-05T11:40:07.817Z</time></trkpt><trkpt lat="43.2717888" lon="10.5623752"><ele>16.0</ele><time>2026-04-05T11:40:08.817Z</time></trkpt><trkpt lat="43.2717482" lon="10.5620426"><ele>16.0</ele><time>2026-04-05T11:40:09.817Z</time></trkpt><trkpt lat="43.2717072" lon="10.5617105"><ele>15.5</ele><time>2026-04-05T11:40:10.817Z</time></trkpt><trkpt lat="43.2716669" lon="10.5613792"><ele>15.0</ele><time>2026-04-05T11:40:11.817Z</time></trkpt><trkpt lat="43.2716267" lon="10.5610515"><ele>14.5</ele><time>2026-04-05T11:40:12.817Z</time></trkpt><trkpt lat="43.2715886" lon="10.5607232"><ele>14.0</ele><time>2026-04-05T11:40:13.817Z</time></trkpt><trkpt lat="43.2715531" lon="10.5603956"><ele>13.5</ele><time>2026-04-05T11:40:14.817Z</time></trkpt><trkpt lat="43.271511" lon="10.5600692"><ele>13.0</ele><time>2026-04-05T11:40:15.817Z</time></trkpt><trkpt lat="43.2714681" lon="10.5597424"><ele>13.0</ele><time>2026-04-05T11:40:16.817Z</time></trkpt><trkpt lat="43.2714253" lon="10.5594114"><ele>13.0</ele><time>2026-04-05T11:40:17.817Z</time></trkpt><trkpt lat="43.2713823" lon="10.5590784"><ele>13.0</ele><time>2026-04-05T11:40:18.817Z</time></trkpt><trkpt lat="43.2713417" lon="10.5587445"><ele>13.0</ele><time>2026-04-05T11:40:19.817Z</time></trkpt><trkpt lat="43.2712996" lon="10.5584064"><ele>14.0</ele><time>2026-04-05T11:40:20.817Z</time></trkpt><trkpt lat="43.2712577" lon="10.5580673"><ele>15.0</ele><time>2026-04-05T11:40:21.817Z</time></trkpt><trkpt lat="43.2712196" lon="10.5577264"><ele>15.0</ele><time>2026-04-05T11:40:22.817Z</time></trkpt><trkpt lat="43.2711771" lon="10.5573831"><ele>15.0</ele><time>2026-04-05T11:40:23.817Z</time></trkpt><trkpt lat="43.2711301" lon="10.5570368"><ele>14.5</ele><time>2026-04-05T11:40:24.817Z</time></trkpt><trkpt lat="43.2710807" lon="10.5566878"><ele>14.0</ele><time>2026-04-05T11:40:25.817Z</time></trkpt><trkpt lat="43.2710357" lon="10.5563353"><ele>13.5</ele><time>2026-04-05T11:40:26.817Z</time></trkpt><trkpt lat="43.2709931" lon="10.5559815"><ele>13.0</ele><time>2026-04-05T11:40:27.817Z</time></trkpt><trkpt lat="43.2709514" lon="10.5556272"><ele>12.5</ele><time>2026-04-05T11:40:28.817Z</time></trkpt><trkpt lat="43.2709118" lon="10.5552699"><ele>12.0</ele><time>2026-04-05T11:40:29.817Z</time></trkpt><trkpt lat="43.2708714" lon="10.5549121"><ele>12.0</ele><time>2026-04-05T11:40:30.817Z</time></trkpt><trkpt lat="43.2708286" lon="10.5545561"><ele>12.0</ele><time>2026-04-05T11:40:31.817Z</time></trkpt><trkpt lat="43.2707847" lon="10.5542037"><ele>12.5</ele><time>2026-04-05T11:40:32.817Z</time></trkpt><trkpt lat="43.2707418" lon="10.5538537"><ele>13.0</ele><time>2026-04-05T11:40:33.817Z</time></trkpt><trkpt lat="43.2706978" lon="10.5535028"><ele>13.0</ele><time>2026-04-05T11:40:34.817Z</time></trkpt><trkpt lat="43.2706536" lon="10.553153"><ele>13.0</ele><time>2026-04-05T11:40:35.817Z</time></trkpt><trkpt lat="43.2706092" lon="10.5528039"><ele>12.0</ele><time>2026-04-05T11:40:36.817Z</time></trkpt><trkpt lat="43.2705666" lon="10.5524617"><ele>11.0</ele><time>2026-04-05T11:40:37.817Z</time></trkpt><trkpt lat="43.2705274" lon="10.5521348"><ele>11.0</ele><time>2026-04-05T11:40:38.817Z</time></trkpt><trkpt lat="43.2704889" lon="10.5518263"><ele>11.0</ele><time>2026-04-05T11:40:39.816Z</time></trkpt><trkpt lat="43.2704503" lon="10.5515224"><ele>11.0</ele><time>2026-04-05T11:40:40.817Z</time></trkpt><trkpt lat="43.270414" lon="10.5512251"><ele>11.0</ele><time>2026-04-05T11:40:41.817Z</time></trkpt><trkpt lat="43.2703789" lon="10.5509444"><ele>11.0</ele><time>2026-04-05T11:40:42.816Z</time></trkpt><trkpt lat="43.2703471" lon="10.5506799"><ele>11.0</ele><time>2026-04-05T11:40:43.817Z</time></trkpt><trkpt lat="43.2703184" lon="10.5504381"><ele>11.0</ele><time>2026-04-05T11:40:44.816Z</time></trkpt><trkpt lat="43.2702927" lon="10.5502259"><ele>11.0</ele><time>2026-04-05T11:40:45.817Z</time></trkpt><trkpt lat="43.2702649" lon="10.5500323"><ele>11.0</ele><time>2026-04-05T11:40:46.817Z</time></trkpt><trkpt lat="43.270248" lon="10.5498629"><ele>11.0</ele><time>2026-04-05T11:40:47.817Z</time></trkpt><trkpt lat="43.2702578" lon="10.5497084"><ele>11.0</ele><time>2026-04-05T11:40:48.816Z</time></trkpt><trkpt lat="43.2702862" lon="10.5495706"><ele>11.0</ele><time>2026-04-05T11:40:49.817Z</time></trkpt><trkpt lat="43.2703203" lon="10.5494487"><ele>11.0</ele><time>2026-04-05T11:40:50.817Z</time></trkpt><trkpt lat="43.2703287" lon="10.5493271"><ele>10.8</ele><time>2026-04-05T11:40:51.817Z</time></trkpt><trkpt lat="43.2703106" lon="10.5492036"><ele>10.600000000000001</ele><time>2026-04-05T11:40:52.817Z</time></trkpt><trkpt lat="43.2702641" lon="10.5490995"><ele>10.4</ele><time>2026-04-05T11:40:53.817Z</time></trkpt><trkpt lat="43.2702006" lon="10.5490062"><ele>10.2</ele><time>2026-04-05T11:40:54.816Z</time></trkpt><trkpt lat="43.2701412" lon="10.5488924"><ele>10.0</ele><time>2026-04-05T11:40:55.817Z</time></trkpt><trkpt lat="43.2700968" lon="10.5487463"><ele>9.666666666666668</ele><time>2026-04-05T11:40:56.816Z</time></trkpt><trkpt lat="43.2700665" lon="10.5485709"><ele>9.333333333333334</ele><time>2026-04-05T11:40:57.817Z</time></trkpt><trkpt lat="43.2700426" lon="10.5483608"><ele>9.0</ele><time>2026-04-05T11:40:58.817Z</time></trkpt><trkpt lat="43.2700186" lon="10.5481317"><ele>9.0</ele><time>2026-04-05T11:40:59.816Z</time></trkpt><trkpt lat="43.2699935" lon="10.5478871"><ele>9.0</ele><time>2026-04-05T11:41:00.817Z</time></trkpt><trkpt lat="43.2699642" lon="10.5476369"><ele>9.0</ele><time>2026-04-05T11:41:01.817Z</time></trkpt><trkpt lat="43.2699326" lon="10.5473692"><ele>9.333333333333334</ele><time>2026-04-05T11:41:02.816Z</time></trkpt><trkpt lat="43.269899" lon="10.5470907"><ele>9.666666666666668</ele><time>2026-04-05T11:41:03.817Z</time></trkpt><trkpt lat="43.2698642" lon="10.5468008"><ele>10.0</ele><time>2026-04-05T11:41:04.817Z</time></trkpt><trkpt lat="43.2698273" lon="10.5465207"><ele>10.333333333333334</ele><time>2026-04-05T11:41:05.817Z</time></trkpt><trkpt lat="43.2697929" lon="10.5462539"><ele>10.666666666666666</ele><time>2026-04-05T11:41:06.816Z</time></trkpt><trkpt lat="43.2697613" lon="10.5460012"><ele>11.0</ele><time>2026-04-05T11:41:07.817Z</time></trkpt><trkpt lat="43.2697335" lon="10.5457614"><ele>10.666666666666666</ele><time>2026-04-05T11:41:08.817Z</time></trkpt><trkpt lat="43.2697058" lon="10.545535"><ele>10.333333333333334</ele><time>2026-04-05T11:41:09.817Z</time></trkpt><trkpt lat="43.2696787" lon="10.5453217"><ele>10.0</ele><time>2026-04-05T11:41:10.817Z</time></trkpt><trkpt lat="43.2696529" lon="10.5451197"><ele>10.0</ele><time>2026-04-05T11:41:11.816Z</time></trkpt><trkpt lat="43.2696285" lon="10.5449305"><ele>10.0</ele><time>2026-04-05T11:41:12.817Z</time></trkpt><trkpt lat="43.2696063" lon="10.5447519"><ele>10.0</ele><time>2026-04-05T11:41:13.817Z</time></trkpt><trkpt lat="43.2695857" lon="10.5445849"><ele>10.0</ele><time>2026-04-05T11:41:14.817Z</time></trkpt><trkpt lat="43.26957" lon="10.5444242"><ele>9.8</ele><time>2026-04-05T11:41:15.817Z</time></trkpt><trkpt lat="43.269551" lon="10.5442762"><ele>9.6</ele><time>2026-04-05T11:41:16.817Z</time></trkpt><trkpt lat="43.2695341" lon="10.5441394"><ele>9.4</ele><time>2026-04-05T11:41:17.817Z</time></trkpt><trkpt lat="43.2695188" lon="10.5440119"><ele>9.2</ele><time>2026-04-05T11:41:18.817Z</time></trkpt><trkpt lat="43.269502" lon="10.5438925"><ele>9.0</ele><time>2026-04-05T11:41:19.817Z</time></trkpt><trkpt lat="43.2694827" lon="10.5437808"><ele>9.0</ele><time>2026-04-05T11:41:20.817Z</time></trkpt><trkpt lat="43.2694616" lon="10.5436769"><ele>9.0</ele><time>2026-04-05T11:41:21.817Z</time></trkpt><trkpt lat="43.2694418" lon="10.5435793"><ele>9.0</ele><time>2026-04-05T11:41:22.817Z</time></trkpt><trkpt lat="43.2694271" lon="10.5434939"><ele>9.0</ele><time>2026-04-05T11:41:23.817Z</time></trkpt><trkpt lat="43.269411" lon="10.5433748"><ele>9.0</ele><time>2026-04-05T11:41:25.817Z</time></trkpt><trkpt lat="43.2693816" lon="10.5432617"><ele>9.0</ele><time>2026-04-05T11:41:35.817Z</time></trkpt><trkpt lat="43.2693355" lon="10.5431978"><ele>9.0</ele><time>2026-04-05T11:41:36.816Z</time></trkpt><trkpt lat="43.2692623" lon="10.5431643"><ele>9.0</ele><time>2026-04-05T11:41:37.817Z</time></trkpt><trkpt lat="43.2691741" lon="10.5431669"><ele>9.0</ele><time>2026-04-05T11:41:38.817Z</time></trkpt><trkpt lat="43.269061" lon="10.5432017"><ele>9.0</ele><time>2026-04-05T11:41:39.817Z</time></trkpt><trkpt lat="43.2689318" lon="10.5432537"><ele>9.0</ele><time>2026-04-05T11:41:40.817Z</time></trkpt><trkpt lat="43.268789" lon="10.5433098"><ele>9.333333333333334</ele><time>2026-04-05T11:41:41.817Z</time></trkpt><trkpt lat="43.2686324" lon="10.5433739"><ele>9.666666666666668</ele><time>2026-04-05T11:41:42.817Z</time></trkpt><trkpt lat="43.268463" lon="10.5434417"><ele>10.0</ele><time>2026-04-05T11:41:43.817Z</time></trkpt><trkpt lat="43.2682814" lon="10.543506"><ele>10.0</ele><time>2026-04-05T11:41:44.817Z</time></trkpt><trkpt lat="43.2680913" lon="10.5435723"><ele>10.0</ele><time>2026-04-05T11:41:45.817Z</time></trkpt><trkpt lat="43.267896" lon="10.5436401"><ele>10.0</ele><time>2026-04-05T11:41:46.817Z</time></trkpt><trkpt lat="43.2676973" lon="10.5437153"><ele>9.666666666666668</ele><time>2026-04-05T11:41:47.817Z</time></trkpt><trkpt lat="43.2674951" lon="10.5437959"><ele>9.333333333333334</ele><time>2026-04-05T11:41:48.817Z</time></trkpt><trkpt lat="43.267288" lon="10.543871"><ele>9.0</ele><time>2026-04-05T11:41:49.817Z</time></trkpt><trkpt lat="43.2670814" lon="10.5439455"><ele>8.666666666666666</ele><time>2026-04-05T11:41:50.817Z</time></trkpt><trkpt lat="43.2668729" lon="10.5440213"><ele>8.333333333333332</ele><time>2026-04-05T11:41:51.817Z</time></trkpt><trkpt lat="43.2666645" lon="10.5440955"><ele>8.0</ele><time>2026-04-05T11:41:52.817Z</time></trkpt><trkpt lat="43.2664636" lon="10.5441641"><ele>7.666666666666666</ele><time>2026-04-05T11:41:53.817Z</time></trkpt><trkpt lat="43.2662739" lon="10.5442384"><ele>7.333333333333334</ele><time>2026-04-05T11:41:54.817Z</time></trkpt><trkpt lat="43.2660853" lon="10.5443241"><ele>7.0</ele><time>2026-04-05T11:41:55.816Z</time></trkpt><trkpt lat="43.2659008" lon="10.5444215"><ele>7.0</ele><time>2026-04-05T11:41:56.817Z</time></trkpt><trkpt lat="43.2657162" lon="10.5445318"><ele>7.0</ele><time>2026-04-05T11:41:57.817Z</time></trkpt><trkpt lat="43.2655286" lon="10.5446515"><ele>7.0</ele><time>2026-04-05T11:41:58.817Z</time></trkpt><trkpt lat="43.2653363" lon="10.5447736"><ele>6.666666666666667</ele><time>2026-04-05T11:41:59.817Z</time></trkpt><trkpt lat="43.265141" lon="10.5448908"><ele>6.333333333333334</ele><time>2026-04-05T11:42:00.817Z</time></trkpt><trkpt lat="43.2649383" lon="10.5450013"><ele>6.0</ele><time>2026-04-05T11:42:01.817Z</time></trkpt><trkpt lat="43.26473" lon="10.5451057"><ele>6.0</ele><time>2026-04-05T11:42:02.817Z</time></trkpt><trkpt lat="43.2645272" lon="10.5452031"><ele>6.0</ele><time>2026-04-05T11:42:03.817Z</time></trkpt><trkpt lat="43.2643312" lon="10.5452927"><ele>6.0</ele><time>2026-04-05T11:42:04.816Z</time></trkpt><trkpt lat="43.2641377" lon="10.5453841"><ele>6.333333333333334</ele><time>2026-04-05T11:42:05.816Z</time></trkpt><trkpt lat="43.2639427" lon="10.5454756"><ele>6.666666666666667</ele><time>2026-04-05T11:42:06.817Z</time></trkpt><trkpt lat="43.2637448" lon="10.5455695"><ele>7.0</ele><time>2026-04-05T11:42:07.817Z</time></trkpt><trkpt lat="43.2635458" lon="10.5456592"><ele>7.0</ele><time>2026-04-05T11:42:08.816Z</time></trkpt><trkpt lat="43.2633421" lon="10.5457442"><ele>7.0</ele><time>2026-04-05T11:42:09.816Z</time></trkpt><trkpt lat="43.2631356" lon="10.5458243"><ele>7.0</ele><time>2026-04-05T11:42:10.817Z</time></trkpt><trkpt lat="43.2629282" lon="10.5459048"><ele>6.666666666666667</ele><time>2026-04-05T11:42:11.816Z</time></trkpt><trkpt lat="43.2627198" lon="10.5459803"><ele>6.333333333333334</ele><time>2026-04-05T11:42:12.816Z</time></trkpt><trkpt lat="43.2625109" lon="10.5460547"><ele>6.0</ele><time>2026-04-05T11:42:13.817Z</time></trkpt><trkpt lat="43.2622968" lon="10.546119"><ele>6.0</ele><time>2026-04-05T11:42:14.817Z</time></trkpt><trkpt lat="43.2620794" lon="10.5461661"><ele>6.0</ele><time>2026-04-05T11:42:15.817Z</time></trkpt><trkpt lat="43.2618611" lon="10.5461919"><ele>6.0</ele><time>2026-04-05T11:42:16.817Z</time></trkpt><trkpt lat="43.2616417" lon="10.5462048"><ele>6.333333333333334</ele><time>2026-04-05T11:42:17.817Z</time></trkpt><trkpt lat="43.261423" lon="10.5462141"><ele>6.666666666666667</ele><time>2026-04-05T11:42:18.817Z</time></trkpt><trkpt lat="43.2612065" lon="10.546231"><ele>7.0</ele><time>2026-04-05T11:42:19.817Z</time></trkpt><trkpt lat="43.2609996" lon="10.5462592"><ele>7.0</ele><time>2026-04-05T11:42:20.817Z</time></trkpt><trkpt lat="43.260803" lon="10.5462918"><ele>7.0</ele><time>2026-04-05T11:42:21.817Z</time></trkpt><trkpt lat="43.2606122" lon="10.5463311"><ele>7.0</ele><time>2026-04-05T11:42:22.817Z</time></trkpt><trkpt lat="43.2604207" lon="10.5463728"><ele>7.0</ele><time>2026-04-05T11:42:23.817Z</time></trkpt><trkpt lat="43.2602304" lon="10.5464226"><ele>7.0</ele><time>2026-04-05T11:42:24.816Z</time></trkpt><trkpt lat="43.2600383" lon="10.5464832"><ele>7.0</ele><time>2026-04-05T11:42:25.817Z</time></trkpt><trkpt lat="43.2598445" lon="10.5465567"><ele>6.666666666666667</ele><time>2026-04-05T11:42:26.817Z</time></trkpt><trkpt lat="43.2596467" lon="10.5466465"><ele>6.333333333333334</ele><time>2026-04-05T11:42:27.817Z</time></trkpt><trkpt lat="43.2594487" lon="10.546747"><ele>6.0</ele><time>2026-04-05T11:42:28.817Z</time></trkpt><trkpt lat="43.2592465" lon="10.5468503"><ele>6.0</ele><time>2026-04-05T11:42:29.817Z</time></trkpt><trkpt lat="43.2590395" lon="10.5469493"><ele>6.0</ele><time>2026-04-05T11:42:30.817Z</time></trkpt><trkpt lat="43.2588316" lon="10.5470537"><ele>6.0</ele><time>2026-04-05T11:42:31.817Z</time></trkpt><trkpt lat="43.2586194" lon="10.5471588"><ele>6.0</ele><time>2026-04-05T11:42:32.817Z</time></trkpt><trkpt lat="43.2584073" lon="10.5472639"><ele>6.0</ele><time>2026-04-05T11:42:33.816Z</time></trkpt><trkpt lat="43.2581968" lon="10.5473681"><ele>6.0</ele><time>2026-04-05T11:42:34.817Z</time></trkpt><trkpt lat="43.2579982" lon="10.5474631"><ele>6.0</ele><time>2026-04-05T11:42:35.817Z</time></trkpt><trkpt lat="43.2578096" lon="10.5475528"><ele>6.0</ele><time>2026-04-05T11:42:36.817Z</time></trkpt><trkpt lat="43.2576238" lon="10.5476276"><ele>6.0</ele><time>2026-04-05T11:42:37.817Z</time></trkpt><trkpt lat="43.2574291" lon="10.5476853"><ele>5.666666666666667</ele><time>2026-04-05T11:42:38.817Z</time></trkpt><trkpt lat="43.2572266" lon="10.5477308"><ele>5.333333333333334</ele><time>2026-04-05T11:42:39.817Z</time></trkpt><trkpt lat="43.257016" lon="10.5477641"><ele>5.0</ele><time>2026-04-05T11:42:40.817Z</time></trkpt><trkpt lat="43.2567984" lon="10.5477946"><ele>5.0</ele><time>2026-04-05T11:42:41.817Z</time></trkpt><trkpt lat="43.2565768" lon="10.5478225"><ele>5.0</ele><time>2026-04-05T11:42:42.817Z</time></trkpt><trkpt lat="43.2563545" lon="10.5478537"><ele>5.0</ele><time>2026-04-05T11:42:43.817Z</time></trkpt><trkpt lat="43.2561302" lon="10.5479021"><ele>5.0</ele><time>2026-04-05T11:42:44.817Z</time></trkpt><trkpt lat="43.2559044" lon="10.5479775"><ele>5.0</ele><time>2026-04-05T11:42:45.817Z</time></trkpt><trkpt lat="43.2556777" lon="10.5480667"><ele>6.0</ele><time>2026-04-05T11:42:46.817Z</time></trkpt><trkpt lat="43.2554505" lon="10.5481556"><ele>7.0</ele><time>2026-04-05T11:42:47.817Z</time></trkpt><trkpt lat="43.2552197" lon="10.5482331"><ele>7.0</ele><time>2026-04-05T11:42:48.817Z</time></trkpt><trkpt lat="43.2549889" lon="10.548302"><ele>7.0</ele><time>2026-04-05T11:42:49.817Z</time></trkpt><trkpt lat="43.254767" lon="10.5483684"><ele>6.666666666666667</ele><time>2026-04-05T11:42:50.817Z</time></trkpt><trkpt lat="43.2545579" lon="10.5484404"><ele>6.333333333333334</ele><time>2026-04-05T11:42:51.817Z</time></trkpt><trkpt lat="43.2543515" lon="10.5485243"><ele>6.0</ele><time>2026-04-05T11:42:52.817Z</time></trkpt><trkpt lat="43.2541458" lon="10.5486204"><ele>6.0</ele><time>2026-04-05T11:42:53.817Z</time></trkpt><trkpt lat="43.2539409" lon="10.5487252"><ele>6.0</ele><time>2026-04-05T11:42:54.817Z</time></trkpt><trkpt lat="43.2537388" lon="10.5488351"><ele>6.0</ele><time>2026-04-05T11:42:55.817Z</time></trkpt><trkpt lat="43.2535411" lon="10.5489395"><ele>6.0</ele><time>2026-04-05T11:42:56.817Z</time></trkpt><trkpt lat="43.2533385" lon="10.5490414"><ele>6.0</ele><time>2026-04-05T11:42:57.817Z</time></trkpt><trkpt lat="43.2531315" lon="10.549138"><ele>6.0</ele><time>2026-04-05T11:42:58.817Z</time></trkpt><trkpt lat="43.2529215" lon="10.5492266"><ele>5.666666666666667</ele><time>2026-04-05T11:42:59.817Z</time></trkpt><trkpt lat="43.2527156" lon="10.5493155"><ele>5.333333333333334</ele><time>2026-04-05T11:43:00.817Z</time></trkpt><trkpt lat="43.2525075" lon="10.5494097"><ele>5.0</ele><time>2026-04-05T11:43:01.817Z</time></trkpt><trkpt lat="43.2522976" lon="10.5495"><ele>5.333333333333334</ele><time>2026-04-05T11:43:02.817Z</time></trkpt><trkpt lat="43.2520833" lon="10.5495825"><ele>5.666666666666667</ele><time>2026-04-05T11:43:03.817Z</time></trkpt><trkpt lat="43.2518643" lon="10.5496571"><ele>6.0</ele><time>2026-04-05T11:43:04.817Z</time></trkpt><trkpt lat="43.2516433" lon="10.5497293"><ele>6.666666666666666</ele><time>2026-04-05T11:43:05.817Z</time></trkpt><trkpt lat="43.2514232" lon="10.5498053"><ele>7.333333333333333</ele><time>2026-04-05T11:43:06.817Z</time></trkpt><trkpt lat="43.2512124" lon="10.5498829"><ele>8.0</ele><time>2026-04-05T11:43:07.817Z</time></trkpt><trkpt lat="43.2510119" lon="10.5499575"><ele>8.0</ele><time>2026-04-05T11:43:08.817Z</time></trkpt><trkpt lat="43.2508217" lon="10.5500296"><ele>8.0</ele><time>2026-04-05T11:43:09.817Z</time></trkpt><trkpt lat="43.250641" lon="10.5500952"><ele>8.0</ele><time>2026-04-05T11:43:10.817Z</time></trkpt><trkpt lat="43.2504701" lon="10.5501574"><ele>7.666666666666666</ele><time>2026-04-05T11:43:11.817Z</time></trkpt><trkpt lat="43.2503084" lon="10.5502134"><ele>7.333333333333334</ele><time>2026-04-05T11:43:12.817Z</time></trkpt><trkpt lat="43.2501536" lon="10.5502633"><ele>7.0</ele><time>2026-04-05T11:43:13.817Z</time></trkpt><trkpt lat="43.2500018" lon="10.5503074"><ele>7.0</ele><time>2026-04-05T11:43:14.817Z</time></trkpt><trkpt lat="43.2498488" lon="10.5503478"><ele>7.0</ele><time>2026-04-05T11:43:15.817Z</time></trkpt><trkpt lat="43.2497036" lon="10.5503843"><ele>7.0</ele><time>2026-04-05T11:43:16.817Z</time></trkpt><trkpt lat="43.2495677" lon="10.5504137"><ele>7.0</ele><time>2026-04-05T11:43:17.817Z</time></trkpt><trkpt lat="43.2494414" lon="10.5504115"><ele>7.25</ele><time>2026-04-05T11:43:18.817Z</time></trkpt><trkpt lat="43.2493274" lon="10.5503538"><ele>7.5</ele><time>2026-04-05T11:43:19.817Z</time></trkpt><trkpt lat="43.2492235" lon="10.5502605"><ele>7.75</ele><time>2026-04-05T11:43:20.817Z</time></trkpt><trkpt lat="43.2491458" lon="10.5501317"><ele>8.0</ele><time>2026-04-05T11:43:21.817Z</time></trkpt><trkpt lat="43.2490936" lon="10.5499856"><ele>8.0</ele><time>2026-04-05T11:43:22.817Z</time></trkpt><trkpt lat="43.2490648" lon="10.5498263"><ele>8.0</ele><time>2026-04-05T11:43:23.817Z</time></trkpt><trkpt lat="43.2490463" lon="10.5496482"><ele>8.0</ele><time>2026-04-05T11:43:24.817Z</time></trkpt><trkpt lat="43.2490278" lon="10.5494537"><ele>8.0</ele><time>2026-04-05T11:43:25.817Z</time></trkpt><trkpt lat="43.2490014" lon="10.5492439"><ele>8.0</ele><time>2026-04-05T11:43:26.817Z</time></trkpt><trkpt lat="43.2489674" lon="10.5490162"><ele>8.0</ele><time>2026-04-05T11:43:27.817Z</time></trkpt><trkpt lat="43.2489307" lon="10.5487785"><ele>8.0</ele><time>2026-04-05T11:43:28.817Z</time></trkpt><trkpt lat="43.2488919" lon="10.5485254"><ele>7.666666666666666</ele><time>2026-04-05T11:43:29.817Z</time></trkpt><trkpt lat="43.2488537" lon="10.5482594"><ele>7.333333333333334</ele><time>2026-04-05T11:43:30.817Z</time></trkpt><trkpt lat="43.2488156" lon="10.5479814"><ele>7.0</ele><time>2026-04-05T11:43:31.817Z</time></trkpt><trkpt lat="43.2487773" lon="10.5476959"><ele>7.0</ele><time>2026-04-05T11:43:32.817Z</time></trkpt><trkpt lat="43.2487402" lon="10.5474127"><ele>7.0</ele><time>2026-04-05T11:43:33.817Z</time></trkpt><trkpt lat="43.2487011" lon="10.5471299"><ele>7.0</ele><time>2026-04-05T11:43:34.817Z</time></trkpt><trkpt lat="43.2486598" lon="10.5468442"><ele>6.666666666666667</ele><time>2026-04-05T11:43:35.817Z</time></trkpt><trkpt lat="43.2486201" lon="10.5465627"><ele>6.333333333333334</ele><time>2026-04-05T11:43:36.816Z</time></trkpt><trkpt lat="43.2485805" lon="10.5462868"><ele>6.0</ele><time>2026-04-05T11:43:37.817Z</time></trkpt><trkpt lat="43.2485396" lon="10.5460102"><ele>5.666666666666667</ele><time>2026-04-05T11:43:38.817Z</time></trkpt><trkpt lat="43.2484972" lon="10.5457403"><ele>5.333333333333334</ele><time>2026-04-05T11:43:39.817Z</time></trkpt><trkpt lat="43.2484547" lon="10.5454804"><ele>5.0</ele><time>2026-04-05T11:43:40.817Z</time></trkpt><trkpt lat="43.2484201" lon="10.5452363"><ele>4.75</ele><time>2026-04-05T11:43:41.817Z</time></trkpt><trkpt lat="43.2483999" lon="10.5450142"><ele>4.5</ele><time>2026-04-05T11:43:42.817Z</time></trkpt><trkpt lat="43.2484032" lon="10.5448111"><ele>4.25</ele><time>2026-04-05T11:43:43.817Z</time></trkpt><trkpt lat="43.2484223" lon="10.54463"><ele>4.0</ele><time>2026-04-05T11:43:44.817Z</time></trkpt><trkpt lat="43.24843" lon="10.5444771"><ele>4.0</ele><time>2026-04-05T11:43:45.817Z</time></trkpt><trkpt lat="43.2483978" lon="10.5443601"><ele>4.0</ele><time>2026-04-05T11:43:46.816Z</time></trkpt><trkpt lat="43.2483373" lon="10.5442518"><ele>4.0</ele><time>2026-04-05T11:43:47.817Z</time></trkpt><trkpt lat="43.2482688" lon="10.5441288"><ele>4.0</ele><time>2026-04-05T11:43:48.817Z</time></trkpt><trkpt lat="43.2482194" lon="10.5439716"><ele>4.0</ele><time>2026-04-05T11:43:49.817Z</time></trkpt><trkpt lat="43.248174" lon="10.5437906"><ele>4.0</ele><time>2026-04-05T11:43:50.817Z</time></trkpt><trkpt lat="43.2481241" lon="10.5435946"><ele>4.0</ele><time>2026-04-05T11:43:51.817Z</time></trkpt><trkpt lat="43.2480707" lon="10.5433879"><ele>4.0</ele><time>2026-04-05T11:43:52.817Z</time></trkpt><trkpt lat="43.248014" lon="10.5431716"><ele>4.0</ele><time>2026-04-05T11:43:53.817Z</time></trkpt><trkpt lat="43.2479563" lon="10.5429461"><ele>4.0</ele><time>2026-04-05T11:43:54.817Z</time></trkpt><trkpt lat="43.2478938" lon="10.5427123"><ele>4.0</ele><time>2026-04-05T11:43:55.817Z</time></trkpt><trkpt lat="43.2478316" lon="10.5424697"><ele>3.6666666666666665</ele><time>2026-04-05T11:43:56.817Z</time></trkpt><trkpt lat="43.2477678" lon="10.5422191"><ele>3.333333333333333</ele><time>2026-04-05T11:43:57.817Z</time></trkpt><trkpt lat="43.2477043" lon="10.5419633"><ele>3.0</ele><time>2026-04-05T11:43:58.816Z</time></trkpt><trkpt lat="43.2476367" lon="10.5416992"><ele>3.0</ele><time>2026-04-05T11:43:59.817Z</time></trkpt><trkpt lat="43.2475686" lon="10.5414317"><ele>3.0</ele><time>2026-04-05T11:44:00.817Z</time></trkpt><trkpt lat="43.2475026" lon="10.5411674"><ele>3.0</ele><time>2026-04-05T11:44:01.817Z</time></trkpt><trkpt lat="43.247435" lon="10.5409025"><ele>3.0</ele><time>2026-04-05T11:44:02.817Z</time></trkpt><trkpt lat="43.2473684" lon="10.5406372"><ele>3.0</ele><time>2026-04-05T11:44:03.817Z</time></trkpt><trkpt lat="43.2473017" lon="10.5403708"><ele>3.0</ele><time>2026-04-05T11:44:04.817Z</time></trkpt><trkpt lat="43.2472357" lon="10.5401055"><ele>2.6666666666666665</ele><time>2026-04-05T11:44:05.817Z</time></trkpt><trkpt lat="43.2471684" lon="10.5398385"><ele>2.333333333333333</ele><time>2026-04-05T11:44:06.817Z</time></trkpt><trkpt lat="43.2471014" lon="10.5395695"><ele>2.0</ele><time>2026-04-05T11:44:07.817Z</time></trkpt><trkpt lat="43.2470363" lon="10.5392996"><ele>2.0</ele><time>2026-04-05T11:44:08.817Z</time></trkpt><trkpt lat="43.246969" lon="10.5390324"><ele>2.0</ele><time>2026-04-05T11:44:09.817Z</time></trkpt><trkpt lat="43.2469071" lon="10.5387768"><ele>2.0</ele><time>2026-04-05T11:44:10.817Z</time></trkpt><trkpt lat="43.2468468" lon="10.5385368"><ele>2.6666666666666665</ele><time>2026-04-05T11:44:11.817Z</time></trkpt><trkpt lat="43.2467882" lon="10.5383107"><ele>3.333333333333333</ele><time>2026-04-05T11:44:12.817Z</time></trkpt><trkpt lat="43.246734" lon="10.5380981"><ele>4.0</ele><time>2026-04-05T11:44:13.817Z</time></trkpt><trkpt lat="43.2466832" lon="10.5378991"><ele>3.75</ele><time>2026-04-05T11:44:14.817Z</time></trkpt><trkpt lat="43.246633" lon="10.5377107"><ele>3.5</ele><time>2026-04-05T11:44:15.817Z</time></trkpt><trkpt lat="43.2465894" lon="10.5375332"><ele>3.25</ele><time>2026-04-05T11:44:16.817Z</time></trkpt><trkpt lat="43.2465501" lon="10.5373726"><ele>3.0</ele><time>2026-04-05T11:44:17.817Z</time></trkpt><trkpt lat="43.2465173" lon="10.5372331"><ele>3.0</ele><time>2026-04-05T11:44:18.817Z</time></trkpt><trkpt lat="43.2464971" lon="10.5371146"><ele>3.0</ele><time>2026-04-05T11:44:19.817Z</time></trkpt><trkpt lat="43.2464907" lon="10.5370056"><ele>3.0</ele><time>2026-04-05T11:44:20.816Z</time></trkpt><trkpt lat="43.2464753" lon="10.5369086"><ele>3.0</ele><time>2026-04-05T11:44:21.817Z</time></trkpt><trkpt lat="43.2464404" lon="10.5368269"><ele>3.0</ele><time>2026-04-05T11:44:22.817Z</time></trkpt><trkpt lat="43.2464004" lon="10.5367488"><ele>3.0</ele><time>2026-04-05T11:44:23.817Z</time></trkpt><trkpt lat="43.2463657" lon="10.536655"><ele>3.2</ele><time>2026-04-05T11:44:24.817Z</time></trkpt><trkpt lat="43.2463369" lon="10.5365425"><ele>3.4</ele><time>2026-04-05T11:44:25.817Z</time></trkpt><trkpt lat="43.2463071" lon="10.5364177"><ele>3.6000000000000005</ele><time>2026-04-05T11:44:26.817Z</time></trkpt><trkpt lat="43.246274" lon="10.536285"><ele>3.8000000000000003</ele><time>2026-04-05T11:44:27.817Z</time></trkpt><trkpt lat="43.2462392" lon="10.5361378"><ele>4.0</ele><time>2026-04-05T11:44:28.817Z</time></trkpt><trkpt lat="43.2461959" lon="10.5359802"><ele>4.25</ele><time>2026-04-05T11:44:29.817Z</time></trkpt><trkpt lat="43.2461507" lon="10.5358143"><ele>4.5</ele><time>2026-04-05T11:44:30.817Z</time></trkpt><trkpt lat="43.2461093" lon="10.5356425"><ele>4.75</ele><time>2026-04-05T11:44:31.817Z</time></trkpt><trkpt lat="43.2460661" lon="10.5354644"><ele>5.0</ele><time>2026-04-05T11:44:32.817Z</time></trkpt><trkpt lat="43.2460177" lon="10.5352827"><ele>5.25</ele><time>2026-04-05T11:44:33.817Z</time></trkpt><trkpt lat="43.2459659" lon="10.5351032"><ele>5.5</ele><time>2026-04-05T11:44:34.817Z</time></trkpt><trkpt lat="43.2459061" lon="10.5349224"><ele>5.75</ele><time>2026-04-05T11:44:35.817Z</time></trkpt><trkpt lat="43.2458516" lon="10.5347388"><ele>6.0</ele><time>2026-04-05T11:44:36.818Z</time></trkpt><trkpt lat="43.2457997" lon="10.5345558"><ele>6.25</ele><time>2026-04-05T11:44:37.817Z</time></trkpt><trkpt lat="43.245746" lon="10.5343788"><ele>6.5</ele><time>2026-04-05T11:44:38.817Z</time></trkpt><trkpt lat="43.2456889" lon="10.5342012"><ele>6.75</ele><time>2026-04-05T11:44:39.817Z</time></trkpt><trkpt lat="43.2456308" lon="10.5340282"><ele>7.0</ele><time>2026-04-05T11:44:40.817Z</time></trkpt><trkpt lat="43.2455608" lon="10.5338637"><ele>7.0</ele><time>2026-04-05T11:44:41.817Z</time></trkpt><trkpt lat="43.2454814" lon="10.5337029"><ele>7.0</ele><time>2026-04-05T11:44:42.817Z</time></trkpt><trkpt lat="43.2454003" lon="10.5335608"><ele>7.0</ele><time>2026-04-05T11:44:43.817Z</time></trkpt><trkpt lat="43.2453263" lon="10.5334263"><ele>7.0</ele><time>2026-04-05T11:44:44.817Z</time></trkpt><trkpt lat="43.2452667" lon="10.5332999"><ele>7.0</ele><time>2026-04-05T11:44:45.817Z</time></trkpt><trkpt lat="43.2452021" lon="10.5331938"><ele>6.999999999999999</ele><time>2026-04-05T11:44:46.817Z</time></trkpt><trkpt lat="43.2451169" lon="10.533116"><ele>6.999999999999999</ele><time>2026-04-05T11:44:47.817Z</time></trkpt><trkpt lat="43.2450093" lon="10.5330575"><ele>7.0</ele><time>2026-04-05T11:44:48.817Z</time></trkpt><trkpt lat="43.2448819" lon="10.5330208"><ele>7.0</ele><time>2026-04-05T11:44:49.817Z</time></trkpt><trkpt lat="43.2447296" lon="10.5330058"><ele>6.0</ele><time>2026-04-05T11:44:50.817Z</time></trkpt><trkpt lat="43.2445695" lon="10.5329962"><ele>5.0</ele><time>2026-04-05T11:44:51.817Z</time></trkpt><trkpt lat="43.2443983" lon="10.5329845"><ele>4.0</ele><time>2026-04-05T11:44:52.817Z</time></trkpt><trkpt lat="43.244224" lon="10.5329695"><ele>4.0</ele><time>2026-04-05T11:44:53.817Z</time></trkpt><trkpt lat="43.2440419" lon="10.5329557"><ele>4.0</ele><time>2026-04-05T11:44:54.816Z</time></trkpt><trkpt lat="43.2438559" lon="10.5329419"><ele>4.0</ele><time>2026-04-05T11:44:55.817Z</time></trkpt><trkpt lat="43.2436682" lon="10.5329278"><ele>4.0</ele><time>2026-04-05T11:44:56.817Z</time></trkpt><trkpt lat="43.2434851" lon="10.5329158"><ele>4.0</ele><time>2026-04-05T11:44:57.817Z</time></trkpt><trkpt lat="43.2433087" lon="10.5328986"><ele>4.0</ele><time>2026-04-05T11:44:58.817Z</time></trkpt><trkpt lat="43.2431347" lon="10.532883"><ele>3.333333333333333</ele><time>2026-04-05T11:44:59.817Z</time></trkpt><trkpt lat="43.2429604" lon="10.5328634"><ele>2.6666666666666665</ele><time>2026-04-05T11:45:00.816Z</time></trkpt><trkpt lat="43.2427935" lon="10.5328529"><ele>2.0</ele><time>2026-04-05T11:45:01.817Z</time></trkpt><trkpt lat="43.2426335" lon="10.5328414"><ele>2.0</ele><time>2026-04-05T11:45:02.816Z</time></trkpt><trkpt lat="43.2424775" lon="10.5328229"><ele>2.0</ele><time>2026-04-05T11:45:03.817Z</time></trkpt><trkpt lat="43.2423226" lon="10.5327912"><ele>2.0</ele><time>2026-04-05T11:45:04.817Z</time></trkpt><trkpt lat="43.2421644" lon="10.5327425"><ele>2.333333333333333</ele><time>2026-04-05T11:45:05.817Z</time></trkpt><trkpt lat="43.2420053" lon="10.5326715"><ele>2.6666666666666665</ele><time>2026-04-05T11:45:06.816Z</time></trkpt><trkpt lat="43.2418486" lon="10.5325802"><ele>3.0</ele><time>2026-04-05T11:45:07.818Z</time></trkpt><trkpt lat="43.2416966" lon="10.5324651"><ele>3.0</ele><time>2026-04-05T11:45:08.817Z</time></trkpt><trkpt lat="43.2415466" lon="10.5323384"><ele>3.0</ele><time>2026-04-05T11:45:09.816Z</time></trkpt><trkpt lat="43.2414019" lon="10.5322236"><ele>3.0</ele><time>2026-04-05T11:45:10.817Z</time></trkpt><trkpt lat="43.2412587" lon="10.5321271"><ele>3.0</ele><time>2026-04-05T11:45:11.817Z</time></trkpt><trkpt lat="43.2411076" lon="10.5320532"><ele>3.0</ele><time>2026-04-05T11:45:12.817Z</time></trkpt><trkpt lat="43.2409483" lon="10.5320021"><ele>3.0</ele><time>2026-04-05T11:45:13.817Z</time></trkpt><trkpt lat="43.2407837" lon="10.5319672"><ele>3.666666666666667</ele><time>2026-04-05T11:45:14.817Z</time></trkpt><trkpt lat="43.2406147" lon="10.5319386"><ele>4.333333333333334</ele><time>2026-04-05T11:45:15.817Z</time></trkpt><trkpt lat="43.2404429" lon="10.5318868"><ele>5.0</ele><time>2026-04-05T11:45:16.817Z</time></trkpt><trkpt lat="43.2402739" lon="10.5318151"><ele>5.0</ele><time>2026-04-05T11:45:17.817Z</time></trkpt><trkpt lat="43.2401084" lon="10.531738"><ele>5.0</ele><time>2026-04-05T11:45:18.818Z</time></trkpt><trkpt lat="43.2399521" lon="10.5316612"><ele>5.0</ele><time>2026-04-05T11:45:19.818Z</time></trkpt><trkpt lat="43.2398047" lon="10.5315869"><ele>4.75</ele><time>2026-04-05T11:45:20.818Z</time></trkpt><trkpt lat="43.2396682" lon="10.5315163"><ele>4.5</ele><time>2026-04-05T11:45:21.818Z</time></trkpt><trkpt lat="43.2395327" lon="10.5314462"><ele>4.25</ele><time>2026-04-05T11:45:22.818Z</time></trkpt><trkpt lat="43.2394015" lon="10.5313712"><ele>4.0</ele><time>2026-04-05T11:45:23.818Z</time></trkpt><trkpt lat="43.2392845" lon="10.5312867"><ele>5.0</ele><time>2026-04-05T11:45:24.818Z</time></trkpt><trkpt lat="43.2391884" lon="10.5311795"><ele>6.0</ele><time>2026-04-05T11:45:25.818Z</time></trkpt><trkpt lat="43.2391252" lon="10.5310525"><ele>7.0</ele><time>2026-04-05T11:45:26.818Z</time></trkpt><trkpt lat="43.2390879" lon="10.5309068"><ele>8.0</ele><time>2026-04-05T11:45:27.818Z</time></trkpt><trkpt lat="43.2390773" lon="10.5307391"><ele>8.0</ele><time>2026-04-05T11:45:28.818Z</time></trkpt><trkpt lat="43.2390507" lon="10.5305773"><ele>8.0</ele><time>2026-04-05T11:45:29.818Z</time></trkpt><trkpt lat="43.2389935" lon="10.5304109"><ele>8.0</ele><time>2026-04-05T11:45:30.818Z</time></trkpt><trkpt lat="43.2389182" lon="10.5302449"><ele>8.0</ele><time>2026-04-05T11:45:31.818Z</time></trkpt><trkpt lat="43.2388371" lon="10.530073"><ele>7.75</ele><time>2026-04-05T11:45:32.818Z</time></trkpt><trkpt lat="43.2387579" lon="10.5298948"><ele>7.5</ele><time>2026-04-05T11:45:33.818Z</time></trkpt><trkpt lat="43.2386826" lon="10.5297236"><ele>7.25</ele><time>2026-04-05T11:45:34.817Z</time></trkpt><trkpt lat="43.238609" lon="10.5295627"><ele>7.0</ele><time>2026-04-05T11:45:35.818Z</time></trkpt><trkpt lat="43.2385384" lon="10.529416"><ele>7.0</ele><time>2026-04-05T11:45:36.818Z</time></trkpt><trkpt lat="43.2384773" lon="10.5292773"><ele>6.999999999999999</ele><time>2026-04-05T11:45:37.818Z</time></trkpt><trkpt lat="43.238421" lon="10.5291436"><ele>6.999999999999999</ele><time>2026-04-05T11:45:38.818Z</time></trkpt><trkpt lat="43.2383701" lon="10.5290177"><ele>7.0</ele><time>2026-04-05T11:45:39.818Z</time></trkpt><trkpt lat="43.2383252" lon="10.5288999"><ele>7.0</ele><time>2026-04-05T11:45:40.818Z</time></trkpt><trkpt lat="43.2382822" lon="10.5287913"><ele>6.8</ele><time>2026-04-05T11:45:41.818Z</time></trkpt><trkpt lat="43.2382415" lon="10.52868"><ele>6.6</ele><time>2026-04-05T11:45:42.818Z</time></trkpt><trkpt lat="43.238199" lon="10.5285686"><ele>6.3999999999999995</ele><time>2026-04-05T11:45:43.818Z</time></trkpt><trkpt lat="43.2381472" lon="10.5284722"><ele>6.199999999999999</ele><time>2026-04-05T11:45:44.818Z</time></trkpt><trkpt lat="43.2380771" lon="10.5284016"><ele>6.0</ele><time>2026-04-05T11:45:45.818Z</time></trkpt><trkpt lat="43.2379926" lon="10.5283454"><ele>6.0</ele><time>2026-04-05T11:45:46.818Z</time></trkpt><trkpt lat="43.2379073" lon="10.5282736"><ele>6.0</ele><time>2026-04-05T11:45:47.818Z</time></trkpt><trkpt lat="43.2378433" lon="10.5281827"><ele>6.0</ele><time>2026-04-05T11:45:48.817Z</time></trkpt><trkpt lat="43.2378097" lon="10.5280837"><ele>6.0</ele><time>2026-04-05T11:45:49.818Z</time></trkpt><trkpt lat="43.2377904" lon="10.5279885"><ele>6.0</ele><time>2026-04-05T11:45:50.818Z</time></trkpt><trkpt lat="43.2377593" lon="10.5279105"><ele>6.0</ele><time>2026-04-05T11:45:51.818Z</time></trkpt><trkpt lat="43.2377159" lon="10.5278431"><ele>5.666666666666667</ele><time>2026-04-05T11:45:52.817Z</time></trkpt><trkpt lat="43.23766" lon="10.5277825"><ele>5.333333333333333</ele><time>2026-04-05T11:45:53.818Z</time></trkpt><trkpt lat="43.2376035" lon="10.5277079"><ele>5.0</ele><time>2026-04-05T11:45:54.818Z</time></trkpt><trkpt lat="43.2375646" lon="10.5276291"><ele>4.666666666666666</ele><time>2026-04-05T11:45:55.818Z</time></trkpt><trkpt lat="43.2375067" lon="10.5274978"><ele>4.333333333333333</ele><time>2026-04-05T11:45:57.818Z</time></trkpt><trkpt lat="43.2374731" lon="10.527415"><ele>4.0</ele><time>2026-04-05T11:45:59.818Z</time></trkpt><trkpt lat="43.2373993" lon="10.5273695"><ele>4.0</ele><time>2026-04-05T11:46:02.818Z</time></trkpt></trkseg></trk></gpx>